<?xml version="1.0" encoding="UTF-8" standalone="no" ?>
<gpx xmlns="http://www.topografix.com/GPX/1/1" xmlns:xsi="http://www.w3.org/2001/XMLSchema-instance" xsi:schemaLocation="http://www.topografix.com/GPX/1/1 http://www.topografix.com/GPX/1/1/gpx.xsd" version="1.1" creator="VisuGPX - https://www.visugpx.com">
  <metadata>
    <name>Tour du Mont Colombis</name>
    <desc><![CDATA[Départ du parking du col Lebraut sur la D3 à 1107m
Descendre la D3 puis plus bas sur la gauche le chemin en direction du Rocher de Chabrand surplombant la D3. Au sommet du Rocher prendre à droite le single descendant en applomb très spectaculaire qui plonge vers le torrent à 879m puis en bas rejoindre la D103 jusqu'au village du Rousset. Prendre le chemin qui longe la Viste et le champ de panneaux solaires superbes jusqu'au village abandonné de Vière et son église. Continuer en montée jusqu'à la Croix des près puis en face la piste vers le sommet du Colombis ou la vue est splendide sur tout l'Embrunais. Descente par le chemin caillouteux de la crète de l'Ane puis à droite le chemin qui longe la Serre des Rousses par la gauche pour rejoindre la Croix des Près. Prendre le GR en face puis un peu plus loin à droite le raidillon abrupte jusqu'à la crète du chemin de la Procession. On longe la crète qui surplomb le cirque des Rousses. Descente par le GR pour rejoindre le Col Lebraut plus bas  ]]></desc>
  </metadata>
  <trk>
    <name><![CDATA[PHILIPPE_DARRE_2023-04-21_11-05-43]]></name>
    <trkseg>
      <trkpt lat="44.50677" lon="6.2834">
        <ele>1115</ele>
        <time>2023-04-21T09:05:43.000Z</time>
      </trkpt>
      <trkpt lat="44.50677" lon="6.2834">
        <ele>1115</ele>
        <time>2023-04-21T09:05:44.000Z</time>
      </trkpt>
      <trkpt lat="44.50677" lon="6.2834">
        <ele>1114</ele>
        <time>2023-04-21T09:05:45.000Z</time>
      </trkpt>
      <trkpt lat="44.50677" lon="6.2834">
        <ele>1114</ele>
        <time>2023-04-21T09:05:46.000Z</time>
      </trkpt>
      <trkpt lat="44.50677" lon="6.2834">
        <ele>1114</ele>
        <time>2023-04-21T09:05:47.000Z</time>
      </trkpt>
      <trkpt lat="44.50678" lon="6.28341">
        <ele>1114</ele>
        <time>2023-04-21T09:05:48.000Z</time>
      </trkpt>
      <trkpt lat="44.50678" lon="6.2834">
        <ele>1114</ele>
        <time>2023-04-21T09:05:49.000Z</time>
      </trkpt>
      <trkpt lat="44.50678" lon="6.28341">
        <ele>1114</ele>
        <time>2023-04-21T09:05:50.000Z</time>
      </trkpt>
      <trkpt lat="44.50678" lon="6.2834">
        <ele>1114</ele>
        <time>2023-04-21T09:05:51.000Z</time>
      </trkpt>
      <trkpt lat="44.50678" lon="6.2834">
        <ele>1113</ele>
        <time>2023-04-21T09:05:52.000Z</time>
      </trkpt>
      <trkpt lat="44.50678" lon="6.28339">
        <ele>1113</ele>
        <time>2023-04-21T09:05:53.000Z</time>
      </trkpt>
      <trkpt lat="44.50678" lon="6.28339">
        <ele>1112</ele>
        <time>2023-04-21T09:05:54.000Z</time>
      </trkpt>
      <trkpt lat="44.50679" lon="6.28339">
        <ele>1112</ele>
        <time>2023-04-21T09:05:55.000Z</time>
      </trkpt>
      <trkpt lat="44.50679" lon="6.28339">
        <ele>1113</ele>
        <time>2023-04-21T09:05:56.000Z</time>
      </trkpt>
      <trkpt lat="44.50679" lon="6.28339">
        <ele>1113</ele>
        <time>2023-04-21T09:05:57.000Z</time>
      </trkpt>
      <trkpt lat="44.50679" lon="6.28339">
        <ele>1113</ele>
        <time>2023-04-21T09:05:58.000Z</time>
      </trkpt>
      <trkpt lat="44.50679" lon="6.28339">
        <ele>1113</ele>
        <time>2023-04-21T09:05:59.000Z</time>
      </trkpt>
      <trkpt lat="44.50679" lon="6.28339">
        <ele>1113</ele>
        <time>2023-04-21T09:06:00.000Z</time>
      </trkpt>
      <trkpt lat="44.50678" lon="6.28339">
        <ele>1114</ele>
        <time>2023-04-21T09:06:01.000Z</time>
      </trkpt>
      <trkpt lat="44.50678" lon="6.28339">
        <ele>1114</ele>
        <time>2023-04-21T09:06:02.000Z</time>
      </trkpt>
      <trkpt lat="44.50678" lon="6.28339">
        <ele>1114</ele>
        <time>2023-04-21T09:06:03.000Z</time>
      </trkpt>
      <trkpt lat="44.50678" lon="6.28339">
        <ele>1114</ele>
        <time>2023-04-21T09:06:04.000Z</time>
      </trkpt>
      <trkpt lat="44.50678" lon="6.28339">
        <ele>1115</ele>
        <time>2023-04-21T09:06:05.000Z</time>
      </trkpt>
      <trkpt lat="44.50678" lon="6.28339">
        <ele>1115</ele>
        <time>2023-04-21T09:06:06.000Z</time>
      </trkpt>
      <trkpt lat="44.50679" lon="6.2834">
        <ele>1115</ele>
        <time>2023-04-21T09:06:07.000Z</time>
      </trkpt>
      <trkpt lat="44.50679" lon="6.2834">
        <ele>1115</ele>
        <time>2023-04-21T09:06:08.000Z</time>
      </trkpt>
      <trkpt lat="44.50679" lon="6.2834">
        <ele>1115</ele>
        <time>2023-04-21T09:06:09.000Z</time>
      </trkpt>
      <trkpt lat="44.50679" lon="6.2834">
        <ele>1115</ele>
        <time>2023-04-21T09:06:10.000Z</time>
      </trkpt>
      <trkpt lat="44.50679" lon="6.2834">
        <ele>1116</ele>
        <time>2023-04-21T09:06:11.000Z</time>
      </trkpt>
      <trkpt lat="44.50679" lon="6.2834">
        <ele>1115</ele>
        <time>2023-04-21T09:06:12.000Z</time>
      </trkpt>
      <trkpt lat="44.50679" lon="6.2834">
        <ele>1115</ele>
        <time>2023-04-21T09:06:13.000Z</time>
      </trkpt>
      <trkpt lat="44.50678" lon="6.28339">
        <ele>1115</ele>
        <time>2023-04-21T09:06:14.000Z</time>
      </trkpt>
      <trkpt lat="44.50678" lon="6.28338">
        <ele>1115</ele>
        <time>2023-04-21T09:06:15.000Z</time>
      </trkpt>
      <trkpt lat="44.50676" lon="6.28337">
        <ele>1115</ele>
        <time>2023-04-21T09:06:16.000Z</time>
      </trkpt>
      <trkpt lat="44.50675" lon="6.28336">
        <ele>1116</ele>
        <time>2023-04-21T09:06:17.000Z</time>
      </trkpt>
      <trkpt lat="44.50674" lon="6.28335">
        <ele>1117</ele>
        <time>2023-04-21T09:06:18.000Z</time>
      </trkpt>
      <trkpt lat="44.50673" lon="6.28335">
        <ele>1117</ele>
        <time>2023-04-21T09:06:19.000Z</time>
      </trkpt>
      <trkpt lat="44.50672" lon="6.28334">
        <ele>1118</ele>
        <time>2023-04-21T09:06:20.000Z</time>
      </trkpt>
      <trkpt lat="44.5067" lon="6.28333">
        <ele>1119</ele>
        <time>2023-04-21T09:06:21.000Z</time>
      </trkpt>
      <trkpt lat="44.50669" lon="6.28332">
        <ele>1120</ele>
        <time>2023-04-21T09:06:22.000Z</time>
      </trkpt>
      <trkpt lat="44.50668" lon="6.2833">
        <ele>1121</ele>
        <time>2023-04-21T09:06:23.000Z</time>
      </trkpt>
      <trkpt lat="44.50668" lon="6.28328">
        <ele>1122</ele>
        <time>2023-04-21T09:06:24.000Z</time>
      </trkpt>
      <trkpt lat="44.50668" lon="6.28326">
        <ele>1123</ele>
        <time>2023-04-21T09:06:25.000Z</time>
      </trkpt>
      <trkpt lat="44.50667" lon="6.28324">
        <ele>1123</ele>
        <time>2023-04-21T09:06:26.000Z</time>
      </trkpt>
      <trkpt lat="44.50666" lon="6.28323">
        <ele>1124</ele>
        <time>2023-04-21T09:06:27.000Z</time>
      </trkpt>
      <trkpt lat="44.50665" lon="6.28321">
        <ele>1125</ele>
        <time>2023-04-21T09:06:28.000Z</time>
      </trkpt>
      <trkpt lat="44.50665" lon="6.28319">
        <ele>1125</ele>
        <time>2023-04-21T09:06:29.000Z</time>
      </trkpt>
      <trkpt lat="44.50665" lon="6.28318">
        <ele>1126</ele>
        <time>2023-04-21T09:06:30.000Z</time>
      </trkpt>
      <trkpt lat="44.50664" lon="6.28316">
        <ele>1127</ele>
        <time>2023-04-21T09:06:31.000Z</time>
      </trkpt>
      <trkpt lat="44.50663" lon="6.28314">
        <ele>1128</ele>
        <time>2023-04-21T09:06:32.000Z</time>
      </trkpt>
      <trkpt lat="44.50664" lon="6.28314">
        <ele>1131</ele>
        <time>2023-04-21T09:06:33.000Z</time>
      </trkpt>
      <trkpt lat="44.50663" lon="6.28314">
        <ele>1132</ele>
        <time>2023-04-21T09:06:34.000Z</time>
      </trkpt>
      <trkpt lat="44.5066" lon="6.28313">
        <ele>1133</ele>
        <time>2023-04-21T09:06:35.000Z</time>
      </trkpt>
      <trkpt lat="44.50659" lon="6.28313">
        <ele>1134</ele>
        <time>2023-04-21T09:06:36.000Z</time>
      </trkpt>
      <trkpt lat="44.50657" lon="6.28312">
        <ele>1134</ele>
        <time>2023-04-21T09:06:37.000Z</time>
      </trkpt>
      <trkpt lat="44.50655" lon="6.28311">
        <ele>1135</ele>
        <time>2023-04-21T09:06:38.000Z</time>
      </trkpt>
      <trkpt lat="44.50654" lon="6.2831">
        <ele>1136</ele>
        <time>2023-04-21T09:06:39.000Z</time>
      </trkpt>
      <trkpt lat="44.50653" lon="6.2831">
        <ele>1137</ele>
        <time>2023-04-21T09:06:40.000Z</time>
      </trkpt>
      <trkpt lat="44.50652" lon="6.28309">
        <ele>1137</ele>
        <time>2023-04-21T09:06:41.000Z</time>
      </trkpt>
      <trkpt lat="44.50651" lon="6.28308">
        <ele>1138</ele>
        <time>2023-04-21T09:06:42.000Z</time>
      </trkpt>
      <trkpt lat="44.50651" lon="6.28307">
        <ele>1139</ele>
        <time>2023-04-21T09:06:43.000Z</time>
      </trkpt>
      <trkpt lat="44.50649" lon="6.28306">
        <ele>1139</ele>
        <time>2023-04-21T09:06:44.000Z</time>
      </trkpt>
      <trkpt lat="44.50647" lon="6.28305">
        <ele>1140</ele>
        <time>2023-04-21T09:06:45.000Z</time>
      </trkpt>
      <trkpt lat="44.50645" lon="6.28305">
        <ele>1140</ele>
        <time>2023-04-21T09:06:46.000Z</time>
      </trkpt>
      <trkpt lat="44.50643" lon="6.28305">
        <ele>1140</ele>
        <time>2023-04-21T09:06:47.000Z</time>
      </trkpt>
      <trkpt lat="44.5064" lon="6.28305">
        <ele>1140</ele>
        <time>2023-04-21T09:06:48.000Z</time>
      </trkpt>
      <trkpt lat="44.50638" lon="6.28305">
        <ele>1140</ele>
        <time>2023-04-21T09:06:49.000Z</time>
      </trkpt>
      <trkpt lat="44.50637" lon="6.28306">
        <ele>1141</ele>
        <time>2023-04-21T09:06:50.000Z</time>
      </trkpt>
      <trkpt lat="44.50635" lon="6.28307">
        <ele>1141</ele>
        <time>2023-04-21T09:06:51.000Z</time>
      </trkpt>
      <trkpt lat="44.50633" lon="6.28308">
        <ele>1141</ele>
        <time>2023-04-21T09:06:52.000Z</time>
      </trkpt>
      <trkpt lat="44.50632" lon="6.28308">
        <ele>1141</ele>
        <time>2023-04-21T09:06:53.000Z</time>
      </trkpt>
      <trkpt lat="44.5063" lon="6.2831">
        <ele>1141</ele>
        <time>2023-04-21T09:06:54.000Z</time>
      </trkpt>
      <trkpt lat="44.50628" lon="6.28311">
        <ele>1141</ele>
        <time>2023-04-21T09:06:55.000Z</time>
      </trkpt>
      <trkpt lat="44.50627" lon="6.28312">
        <ele>1141</ele>
        <time>2023-04-21T09:06:56.000Z</time>
      </trkpt>
      <trkpt lat="44.50626" lon="6.28312">
        <ele>1141</ele>
        <time>2023-04-21T09:06:57.000Z</time>
      </trkpt>
      <trkpt lat="44.50624" lon="6.28314">
        <ele>1141</ele>
        <time>2023-04-21T09:06:58.000Z</time>
      </trkpt>
      <trkpt lat="44.50623" lon="6.28315">
        <ele>1141</ele>
        <time>2023-04-21T09:06:59.000Z</time>
      </trkpt>
      <trkpt lat="44.50621" lon="6.28316">
        <ele>1141</ele>
        <time>2023-04-21T09:07:00.000Z</time>
      </trkpt>
      <trkpt lat="44.50619" lon="6.28317">
        <ele>1141</ele>
        <time>2023-04-21T09:07:01.000Z</time>
      </trkpt>
      <trkpt lat="44.50617" lon="6.28318">
        <ele>1141</ele>
        <time>2023-04-21T09:07:02.000Z</time>
      </trkpt>
      <trkpt lat="44.50616" lon="6.28319">
        <ele>1141</ele>
        <time>2023-04-21T09:07:03.000Z</time>
      </trkpt>
      <trkpt lat="44.50614" lon="6.2832">
        <ele>1142</ele>
        <time>2023-04-21T09:07:04.000Z</time>
      </trkpt>
      <trkpt lat="44.50612" lon="6.28321">
        <ele>1142</ele>
        <time>2023-04-21T09:07:05.000Z</time>
      </trkpt>
      <trkpt lat="44.5061" lon="6.28322">
        <ele>1142</ele>
        <time>2023-04-21T09:07:06.000Z</time>
      </trkpt>
      <trkpt lat="44.50609" lon="6.28323">
        <ele>1142</ele>
        <time>2023-04-21T09:07:07.000Z</time>
      </trkpt>
      <trkpt lat="44.50607" lon="6.28323">
        <ele>1142</ele>
        <time>2023-04-21T09:07:08.000Z</time>
      </trkpt>
      <trkpt lat="44.50605" lon="6.28323">
        <ele>1142</ele>
        <time>2023-04-21T09:07:09.000Z</time>
      </trkpt>
      <trkpt lat="44.50604" lon="6.28324">
        <ele>1143</ele>
        <time>2023-04-21T09:07:10.000Z</time>
      </trkpt>
      <trkpt lat="44.50602" lon="6.28324">
        <ele>1143</ele>
        <time>2023-04-21T09:07:11.000Z</time>
      </trkpt>
      <trkpt lat="44.506" lon="6.28325">
        <ele>1143</ele>
        <time>2023-04-21T09:07:12.000Z</time>
      </trkpt>
      <trkpt lat="44.50598" lon="6.28326">
        <ele>1144</ele>
        <time>2023-04-21T09:07:13.000Z</time>
      </trkpt>
      <trkpt lat="44.50597" lon="6.28326">
        <ele>1144</ele>
        <time>2023-04-21T09:07:14.000Z</time>
      </trkpt>
      <trkpt lat="44.50595" lon="6.28327">
        <ele>1144</ele>
        <time>2023-04-21T09:07:15.000Z</time>
      </trkpt>
      <trkpt lat="44.50593" lon="6.28327">
        <ele>1145</ele>
        <time>2023-04-21T09:07:16.000Z</time>
      </trkpt>
      <trkpt lat="44.50591" lon="6.28327">
        <ele>1145</ele>
        <time>2023-04-21T09:07:17.000Z</time>
      </trkpt>
      <trkpt lat="44.50589" lon="6.28328">
        <ele>1145</ele>
        <time>2023-04-21T09:07:18.000Z</time>
      </trkpt>
      <trkpt lat="44.50588" lon="6.28328">
        <ele>1145</ele>
        <time>2023-04-21T09:07:19.000Z</time>
      </trkpt>
      <trkpt lat="44.50586" lon="6.28328">
        <ele>1145</ele>
        <time>2023-04-21T09:07:20.000Z</time>
      </trkpt>
      <trkpt lat="44.50584" lon="6.28328">
        <ele>1145</ele>
        <time>2023-04-21T09:07:21.000Z</time>
      </trkpt>
      <trkpt lat="44.50582" lon="6.28329">
        <ele>1145</ele>
        <time>2023-04-21T09:07:22.000Z</time>
      </trkpt>
      <trkpt lat="44.5058" lon="6.28329">
        <ele>1146</ele>
        <time>2023-04-21T09:07:23.000Z</time>
      </trkpt>
      <trkpt lat="44.50579" lon="6.28329">
        <ele>1146</ele>
        <time>2023-04-21T09:07:24.000Z</time>
      </trkpt>
      <trkpt lat="44.50577" lon="6.28329">
        <ele>1146</ele>
        <time>2023-04-21T09:07:25.000Z</time>
      </trkpt>
      <trkpt lat="44.50575" lon="6.28329">
        <ele>1146</ele>
        <time>2023-04-21T09:07:26.000Z</time>
      </trkpt>
      <trkpt lat="44.50574" lon="6.28328">
        <ele>1146</ele>
        <time>2023-04-21T09:07:27.000Z</time>
      </trkpt>
      <trkpt lat="44.50572" lon="6.28328">
        <ele>1147</ele>
        <time>2023-04-21T09:07:28.000Z</time>
      </trkpt>
      <trkpt lat="44.5057" lon="6.28328">
        <ele>1147</ele>
        <time>2023-04-21T09:07:29.000Z</time>
      </trkpt>
      <trkpt lat="44.50568" lon="6.28328">
        <ele>1147</ele>
        <time>2023-04-21T09:07:30.000Z</time>
      </trkpt>
      <trkpt lat="44.50567" lon="6.28328">
        <ele>1148</ele>
        <time>2023-04-21T09:07:31.000Z</time>
      </trkpt>
      <trkpt lat="44.50565" lon="6.28327">
        <ele>1148</ele>
        <time>2023-04-21T09:07:32.000Z</time>
      </trkpt>
      <trkpt lat="44.50563" lon="6.28327">
        <ele>1148</ele>
        <time>2023-04-21T09:07:33.000Z</time>
      </trkpt>
      <trkpt lat="44.50561" lon="6.28326">
        <ele>1149</ele>
        <time>2023-04-21T09:07:34.000Z</time>
      </trkpt>
      <trkpt lat="44.5056" lon="6.28326">
        <ele>1149</ele>
        <time>2023-04-21T09:07:35.000Z</time>
      </trkpt>
      <trkpt lat="44.50558" lon="6.28325">
        <ele>1149</ele>
        <time>2023-04-21T09:07:36.000Z</time>
      </trkpt>
      <trkpt lat="44.50556" lon="6.28325">
        <ele>1149</ele>
        <time>2023-04-21T09:07:37.000Z</time>
      </trkpt>
      <trkpt lat="44.50555" lon="6.28324">
        <ele>1150</ele>
        <time>2023-04-21T09:07:38.000Z</time>
      </trkpt>
      <trkpt lat="44.50553" lon="6.28324">
        <ele>1150</ele>
        <time>2023-04-21T09:07:39.000Z</time>
      </trkpt>
      <trkpt lat="44.50551" lon="6.28323">
        <ele>1151</ele>
        <time>2023-04-21T09:07:40.000Z</time>
      </trkpt>
      <trkpt lat="44.50549" lon="6.28322">
        <ele>1151</ele>
        <time>2023-04-21T09:07:41.000Z</time>
      </trkpt>
      <trkpt lat="44.50547" lon="6.28321">
        <ele>1151</ele>
        <time>2023-04-21T09:07:42.000Z</time>
      </trkpt>
      <trkpt lat="44.50546" lon="6.28321">
        <ele>1152</ele>
        <time>2023-04-21T09:07:43.000Z</time>
      </trkpt>
      <trkpt lat="44.50544" lon="6.28321">
        <ele>1152</ele>
        <time>2023-04-21T09:07:44.000Z</time>
      </trkpt>
      <trkpt lat="44.50542" lon="6.2832">
        <ele>1152</ele>
        <time>2023-04-21T09:07:45.000Z</time>
      </trkpt>
      <trkpt lat="44.5054" lon="6.2832">
        <ele>1152</ele>
        <time>2023-04-21T09:07:46.000Z</time>
      </trkpt>
      <trkpt lat="44.50539" lon="6.28319">
        <ele>1152</ele>
        <time>2023-04-21T09:07:47.000Z</time>
      </trkpt>
      <trkpt lat="44.50537" lon="6.28318">
        <ele>1152</ele>
        <time>2023-04-21T09:07:48.000Z</time>
      </trkpt>
      <trkpt lat="44.50535" lon="6.28318">
        <ele>1153</ele>
        <time>2023-04-21T09:07:49.000Z</time>
      </trkpt>
      <trkpt lat="44.50534" lon="6.28317">
        <ele>1153</ele>
        <time>2023-04-21T09:07:50.000Z</time>
      </trkpt>
      <trkpt lat="44.50532" lon="6.28317">
        <ele>1153</ele>
        <time>2023-04-21T09:07:51.000Z</time>
      </trkpt>
      <trkpt lat="44.5053" lon="6.28317">
        <ele>1153</ele>
        <time>2023-04-21T09:07:52.000Z</time>
      </trkpt>
      <trkpt lat="44.50528" lon="6.28317">
        <ele>1153</ele>
        <time>2023-04-21T09:07:53.000Z</time>
      </trkpt>
      <trkpt lat="44.50527" lon="6.28316">
        <ele>1153</ele>
        <time>2023-04-21T09:07:54.000Z</time>
      </trkpt>
      <trkpt lat="44.50526" lon="6.28316">
        <ele>1153</ele>
        <time>2023-04-21T09:07:55.000Z</time>
      </trkpt>
      <trkpt lat="44.50525" lon="6.28317">
        <ele>1153</ele>
        <time>2023-04-21T09:07:56.000Z</time>
      </trkpt>
      <trkpt lat="44.50524" lon="6.28318">
        <ele>1154</ele>
        <time>2023-04-21T09:07:57.000Z</time>
      </trkpt>
      <trkpt lat="44.50524" lon="6.28319">
        <ele>1154</ele>
        <time>2023-04-21T09:07:58.000Z</time>
      </trkpt>
      <trkpt lat="44.50523" lon="6.2832">
        <ele>1154</ele>
        <time>2023-04-21T09:07:59.000Z</time>
      </trkpt>
      <trkpt lat="44.50523" lon="6.28322">
        <ele>1153</ele>
        <time>2023-04-21T09:08:00.000Z</time>
      </trkpt>
      <trkpt lat="44.50522" lon="6.28326">
        <ele>1152</ele>
        <time>2023-04-21T09:08:01.000Z</time>
      </trkpt>
      <trkpt lat="44.5052" lon="6.28328">
        <ele>1152</ele>
        <time>2023-04-21T09:08:02.000Z</time>
      </trkpt>
      <trkpt lat="44.50518" lon="6.28332">
        <ele>1152</ele>
        <time>2023-04-21T09:08:03.000Z</time>
      </trkpt>
      <trkpt lat="44.50517" lon="6.28334">
        <ele>1152</ele>
        <time>2023-04-21T09:08:04.000Z</time>
      </trkpt>
      <trkpt lat="44.50513" lon="6.28338">
        <ele>1150</ele>
        <time>2023-04-21T09:08:05.000Z</time>
      </trkpt>
      <trkpt lat="44.50511" lon="6.28341">
        <ele>1149</ele>
        <time>2023-04-21T09:08:06.000Z</time>
      </trkpt>
      <trkpt lat="44.50508" lon="6.28342">
        <ele>1148</ele>
        <time>2023-04-21T09:08:07.000Z</time>
      </trkpt>
      <trkpt lat="44.50505" lon="6.28343">
        <ele>1146</ele>
        <time>2023-04-21T09:08:08.000Z</time>
      </trkpt>
      <trkpt lat="44.50502" lon="6.28344">
        <ele>1147</ele>
        <time>2023-04-21T09:08:09.000Z</time>
      </trkpt>
      <trkpt lat="44.50498" lon="6.28345">
        <ele>1146</ele>
        <time>2023-04-21T09:08:10.000Z</time>
      </trkpt>
      <trkpt lat="44.50495" lon="6.28346">
        <ele>1147</ele>
        <time>2023-04-21T09:08:11.000Z</time>
      </trkpt>
      <trkpt lat="44.50492" lon="6.28347">
        <ele>1147</ele>
        <time>2023-04-21T09:08:12.000Z</time>
      </trkpt>
      <trkpt lat="44.50489" lon="6.28348">
        <ele>1147</ele>
        <time>2023-04-21T09:08:13.000Z</time>
      </trkpt>
      <trkpt lat="44.50486" lon="6.28349">
        <ele>1148</ele>
        <time>2023-04-21T09:08:14.000Z</time>
      </trkpt>
      <trkpt lat="44.50482" lon="6.28351">
        <ele>1147</ele>
        <time>2023-04-21T09:08:15.000Z</time>
      </trkpt>
      <trkpt lat="44.50479" lon="6.28351">
        <ele>1146</ele>
        <time>2023-04-21T09:08:16.000Z</time>
      </trkpt>
      <trkpt lat="44.50475" lon="6.28354">
        <ele>1144</ele>
        <time>2023-04-21T09:08:17.000Z</time>
      </trkpt>
      <trkpt lat="44.50472" lon="6.28357">
        <ele>1143</ele>
        <time>2023-04-21T09:08:18.000Z</time>
      </trkpt>
      <trkpt lat="44.50468" lon="6.28359">
        <ele>1142</ele>
        <time>2023-04-21T09:08:19.000Z</time>
      </trkpt>
      <trkpt lat="44.50465" lon="6.28361">
        <ele>1141</ele>
        <time>2023-04-21T09:08:20.000Z</time>
      </trkpt>
      <trkpt lat="44.50461" lon="6.28364">
        <ele>1139</ele>
        <time>2023-04-21T09:08:21.000Z</time>
      </trkpt>
      <trkpt lat="44.50457" lon="6.28367">
        <ele>1138</ele>
        <time>2023-04-21T09:08:22.000Z</time>
      </trkpt>
      <trkpt lat="44.50453" lon="6.2837">
        <ele>1138</ele>
        <time>2023-04-21T09:08:23.000Z</time>
      </trkpt>
      <trkpt lat="44.5045" lon="6.28372">
        <ele>1138</ele>
        <time>2023-04-21T09:08:24.000Z</time>
      </trkpt>
      <trkpt lat="44.50447" lon="6.28375">
        <ele>1137</ele>
        <time>2023-04-21T09:08:25.000Z</time>
      </trkpt>
      <trkpt lat="44.50444" lon="6.28376">
        <ele>1137</ele>
        <time>2023-04-21T09:08:26.000Z</time>
      </trkpt>
      <trkpt lat="44.5044" lon="6.28377">
        <ele>1137</ele>
        <time>2023-04-21T09:08:27.000Z</time>
      </trkpt>
      <trkpt lat="44.50438" lon="6.28378">
        <ele>1137</ele>
        <time>2023-04-21T09:08:28.000Z</time>
      </trkpt>
      <trkpt lat="44.50436" lon="6.28378">
        <ele>1138</ele>
        <time>2023-04-21T09:08:29.000Z</time>
      </trkpt>
      <trkpt lat="44.50434" lon="6.28379">
        <ele>1137</ele>
        <time>2023-04-21T09:08:30.000Z</time>
      </trkpt>
      <trkpt lat="44.50432" lon="6.28378">
        <ele>1137</ele>
        <time>2023-04-21T09:08:31.000Z</time>
      </trkpt>
      <trkpt lat="44.50431" lon="6.28378">
        <ele>1137</ele>
        <time>2023-04-21T09:08:32.000Z</time>
      </trkpt>
      <trkpt lat="44.50431" lon="6.28378">
        <ele>1138</ele>
        <time>2023-04-21T09:08:33.000Z</time>
      </trkpt>
      <trkpt lat="44.50431" lon="6.28378">
        <ele>1137</ele>
        <time>2023-04-21T09:08:34.000Z</time>
      </trkpt>
      <trkpt lat="44.50431" lon="6.28378">
        <ele>1137</ele>
        <time>2023-04-21T09:08:35.000Z</time>
      </trkpt>
      <trkpt lat="44.5043" lon="6.28378">
        <ele>1136</ele>
        <time>2023-04-21T09:08:36.000Z</time>
      </trkpt>
      <trkpt lat="44.5043" lon="6.28378">
        <ele>1136</ele>
        <time>2023-04-21T09:08:37.000Z</time>
      </trkpt>
      <trkpt lat="44.5043" lon="6.28378">
        <ele>1136</ele>
        <time>2023-04-21T09:08:38.000Z</time>
      </trkpt>
      <trkpt lat="44.5043" lon="6.28378">
        <ele>1135</ele>
        <time>2023-04-21T09:08:39.000Z</time>
      </trkpt>
      <trkpt lat="44.5043" lon="6.28378">
        <ele>1135</ele>
        <time>2023-04-21T09:08:40.000Z</time>
      </trkpt>
      <trkpt lat="44.5043" lon="6.28378">
        <ele>1135</ele>
        <time>2023-04-21T09:08:41.000Z</time>
      </trkpt>
      <trkpt lat="44.50429" lon="6.28378">
        <ele>1134</ele>
        <time>2023-04-21T09:08:42.000Z</time>
      </trkpt>
      <trkpt lat="44.50429" lon="6.28378">
        <ele>1134</ele>
        <time>2023-04-21T09:08:43.000Z</time>
      </trkpt>
      <trkpt lat="44.50429" lon="6.28378">
        <ele>1133</ele>
        <time>2023-04-21T09:08:44.000Z</time>
      </trkpt>
      <trkpt lat="44.50428" lon="6.28378">
        <ele>1133</ele>
        <time>2023-04-21T09:08:45.000Z</time>
      </trkpt>
      <trkpt lat="44.50428" lon="6.28378">
        <ele>1133</ele>
        <time>2023-04-21T09:08:46.000Z</time>
      </trkpt>
      <trkpt lat="44.50428" lon="6.28378">
        <ele>1132</ele>
        <time>2023-04-21T09:08:47.000Z</time>
      </trkpt>
      <trkpt lat="44.50428" lon="6.28378">
        <ele>1132</ele>
        <time>2023-04-21T09:08:48.000Z</time>
      </trkpt>
      <trkpt lat="44.50428" lon="6.28378">
        <ele>1132</ele>
        <time>2023-04-21T09:08:49.000Z</time>
      </trkpt>
      <trkpt lat="44.50428" lon="6.28378">
        <ele>1132</ele>
        <time>2023-04-21T09:08:50.000Z</time>
      </trkpt>
      <trkpt lat="44.50428" lon="6.28378">
        <ele>1132</ele>
        <time>2023-04-21T09:08:51.000Z</time>
      </trkpt>
      <trkpt lat="44.50428" lon="6.28378">
        <ele>1131</ele>
        <time>2023-04-21T09:08:52.000Z</time>
      </trkpt>
      <trkpt lat="44.50428" lon="6.28378">
        <ele>1131</ele>
        <time>2023-04-21T09:08:53.000Z</time>
      </trkpt>
      <trkpt lat="44.50428" lon="6.28378">
        <ele>1131</ele>
        <time>2023-04-21T09:08:54.000Z</time>
      </trkpt>
      <trkpt lat="44.50428" lon="6.28378">
        <ele>1131</ele>
        <time>2023-04-21T09:08:55.000Z</time>
      </trkpt>
      <trkpt lat="44.50428" lon="6.28378">
        <ele>1131</ele>
        <time>2023-04-21T09:08:56.000Z</time>
      </trkpt>
      <trkpt lat="44.50428" lon="6.28379">
        <ele>1131</ele>
        <time>2023-04-21T09:08:57.000Z</time>
      </trkpt>
      <trkpt lat="44.50428" lon="6.28379">
        <ele>1130</ele>
        <time>2023-04-21T09:08:58.000Z</time>
      </trkpt>
      <trkpt lat="44.50428" lon="6.28379">
        <ele>1130</ele>
        <time>2023-04-21T09:08:59.000Z</time>
      </trkpt>
      <trkpt lat="44.50428" lon="6.28379">
        <ele>1130</ele>
        <time>2023-04-21T09:09:00.000Z</time>
      </trkpt>
      <trkpt lat="44.50428" lon="6.28379">
        <ele>1130</ele>
        <time>2023-04-21T09:09:01.000Z</time>
      </trkpt>
      <trkpt lat="44.50428" lon="6.28379">
        <ele>1130</ele>
        <time>2023-04-21T09:09:02.000Z</time>
      </trkpt>
      <trkpt lat="44.50428" lon="6.28379">
        <ele>1130</ele>
        <time>2023-04-21T09:09:03.000Z</time>
      </trkpt>
      <trkpt lat="44.50428" lon="6.28379">
        <ele>1130</ele>
        <time>2023-04-21T09:09:04.000Z</time>
      </trkpt>
      <trkpt lat="44.50428" lon="6.28379">
        <ele>1129</ele>
        <time>2023-04-21T09:09:05.000Z</time>
      </trkpt>
      <trkpt lat="44.50428" lon="6.28379">
        <ele>1129</ele>
        <time>2023-04-21T09:09:06.000Z</time>
      </trkpt>
      <trkpt lat="44.50428" lon="6.28379">
        <ele>1129</ele>
        <time>2023-04-21T09:09:07.000Z</time>
      </trkpt>
      <trkpt lat="44.50428" lon="6.28379">
        <ele>1129</ele>
        <time>2023-04-21T09:09:08.000Z</time>
      </trkpt>
      <trkpt lat="44.50428" lon="6.28379">
        <ele>1129</ele>
        <time>2023-04-21T09:09:09.000Z</time>
      </trkpt>
      <trkpt lat="44.50428" lon="6.28379">
        <ele>1129</ele>
        <time>2023-04-21T09:09:10.000Z</time>
      </trkpt>
      <trkpt lat="44.50428" lon="6.28379">
        <ele>1129</ele>
        <time>2023-04-21T09:09:11.000Z</time>
      </trkpt>
      <trkpt lat="44.50428" lon="6.28379">
        <ele>1129</ele>
        <time>2023-04-21T09:09:12.000Z</time>
      </trkpt>
      <trkpt lat="44.50428" lon="6.28379">
        <ele>1129</ele>
        <time>2023-04-21T09:09:13.000Z</time>
      </trkpt>
      <trkpt lat="44.50428" lon="6.28379">
        <ele>1129</ele>
        <time>2023-04-21T09:09:14.000Z</time>
      </trkpt>
      <trkpt lat="44.50428" lon="6.28379">
        <ele>1128</ele>
        <time>2023-04-21T09:09:15.000Z</time>
      </trkpt>
      <trkpt lat="44.50428" lon="6.28379">
        <ele>1128</ele>
        <time>2023-04-21T09:09:16.000Z</time>
      </trkpt>
      <trkpt lat="44.50428" lon="6.28379">
        <ele>1128</ele>
        <time>2023-04-21T09:09:17.000Z</time>
      </trkpt>
      <trkpt lat="44.50428" lon="6.28379">
        <ele>1128</ele>
        <time>2023-04-21T09:09:18.000Z</time>
      </trkpt>
      <trkpt lat="44.50428" lon="6.28379">
        <ele>1128</ele>
        <time>2023-04-21T09:09:19.000Z</time>
      </trkpt>
      <trkpt lat="44.50428" lon="6.28379">
        <ele>1128</ele>
        <time>2023-04-21T09:09:20.000Z</time>
      </trkpt>
      <trkpt lat="44.50428" lon="6.28379">
        <ele>1128</ele>
        <time>2023-04-21T09:09:21.000Z</time>
      </trkpt>
      <trkpt lat="44.50428" lon="6.28379">
        <ele>1128</ele>
        <time>2023-04-21T09:09:22.000Z</time>
      </trkpt>
      <trkpt lat="44.50428" lon="6.28379">
        <ele>1128</ele>
        <time>2023-04-21T09:09:23.000Z</time>
      </trkpt>
      <trkpt lat="44.50428" lon="6.28379">
        <ele>1128</ele>
        <time>2023-04-21T09:09:24.000Z</time>
      </trkpt>
      <trkpt lat="44.50428" lon="6.28379">
        <ele>1128</ele>
        <time>2023-04-21T09:09:25.000Z</time>
      </trkpt>
      <trkpt lat="44.50428" lon="6.28379">
        <ele>1128</ele>
        <time>2023-04-21T09:09:26.000Z</time>
      </trkpt>
      <trkpt lat="44.50428" lon="6.28379">
        <ele>1128</ele>
        <time>2023-04-21T09:09:27.000Z</time>
      </trkpt>
      <trkpt lat="44.50428" lon="6.28379">
        <ele>1128</ele>
        <time>2023-04-21T09:09:28.000Z</time>
      </trkpt>
      <trkpt lat="44.50428" lon="6.28379">
        <ele>1128</ele>
        <time>2023-04-21T09:09:29.000Z</time>
      </trkpt>
      <trkpt lat="44.50427" lon="6.28379">
        <ele>1128</ele>
        <time>2023-04-21T09:09:30.000Z</time>
      </trkpt>
      <trkpt lat="44.50425" lon="6.28379">
        <ele>1128</ele>
        <time>2023-04-21T09:09:31.000Z</time>
      </trkpt>
      <trkpt lat="44.50424" lon="6.28378">
        <ele>1128</ele>
        <time>2023-04-21T09:09:32.000Z</time>
      </trkpt>
      <trkpt lat="44.50423" lon="6.28377">
        <ele>1129</ele>
        <time>2023-04-21T09:09:33.000Z</time>
      </trkpt>
      <trkpt lat="44.5042" lon="6.28376">
        <ele>1130</ele>
        <time>2023-04-21T09:09:34.000Z</time>
      </trkpt>
      <trkpt lat="44.50417" lon="6.28375">
        <ele>1130</ele>
        <time>2023-04-21T09:09:35.000Z</time>
      </trkpt>
      <trkpt lat="44.50414" lon="6.28376">
        <ele>1131</ele>
        <time>2023-04-21T09:09:36.000Z</time>
      </trkpt>
      <trkpt lat="44.5041" lon="6.28377">
        <ele>1130</ele>
        <time>2023-04-21T09:09:37.000Z</time>
      </trkpt>
      <trkpt lat="44.50406" lon="6.28379">
        <ele>1130</ele>
        <time>2023-04-21T09:09:38.000Z</time>
      </trkpt>
      <trkpt lat="44.50403" lon="6.28382">
        <ele>1131</ele>
        <time>2023-04-21T09:09:39.000Z</time>
      </trkpt>
      <trkpt lat="44.50399" lon="6.28385">
        <ele>1131</ele>
        <time>2023-04-21T09:09:40.000Z</time>
      </trkpt>
      <trkpt lat="44.50394" lon="6.28387">
        <ele>1130</ele>
        <time>2023-04-21T09:09:41.000Z</time>
      </trkpt>
      <trkpt lat="44.50388" lon="6.28388">
        <ele>1130</ele>
        <time>2023-04-21T09:09:42.000Z</time>
      </trkpt>
      <trkpt lat="44.50382" lon="6.28391">
        <ele>1130</ele>
        <time>2023-04-21T09:09:43.000Z</time>
      </trkpt>
      <trkpt lat="44.50376" lon="6.28392">
        <ele>1129</ele>
        <time>2023-04-21T09:09:44.000Z</time>
      </trkpt>
      <trkpt lat="44.50368" lon="6.28394">
        <ele>1128</ele>
        <time>2023-04-21T09:09:45.000Z</time>
      </trkpt>
      <trkpt lat="44.50362" lon="6.28394">
        <ele>1129</ele>
        <time>2023-04-21T09:09:46.000Z</time>
      </trkpt>
      <trkpt lat="44.50356" lon="6.28394">
        <ele>1128</ele>
        <time>2023-04-21T09:09:47.000Z</time>
      </trkpt>
      <trkpt lat="44.5035" lon="6.28393">
        <ele>1128</ele>
        <time>2023-04-21T09:09:48.000Z</time>
      </trkpt>
      <trkpt lat="44.50344" lon="6.28392">
        <ele>1128</ele>
        <time>2023-04-21T09:09:49.000Z</time>
      </trkpt>
      <trkpt lat="44.50338" lon="6.28392">
        <ele>1128</ele>
        <time>2023-04-21T09:09:50.000Z</time>
      </trkpt>
      <trkpt lat="44.50333" lon="6.28391">
        <ele>1128</ele>
        <time>2023-04-21T09:09:51.000Z</time>
      </trkpt>
      <trkpt lat="44.50328" lon="6.28391">
        <ele>1127</ele>
        <time>2023-04-21T09:09:52.000Z</time>
      </trkpt>
      <trkpt lat="44.50324" lon="6.28392">
        <ele>1127</ele>
        <time>2023-04-21T09:09:53.000Z</time>
      </trkpt>
      <trkpt lat="44.5032" lon="6.28392">
        <ele>1126</ele>
        <time>2023-04-21T09:09:54.000Z</time>
      </trkpt>
      <trkpt lat="44.50316" lon="6.28392">
        <ele>1126</ele>
        <time>2023-04-21T09:09:55.000Z</time>
      </trkpt>
      <trkpt lat="44.50311" lon="6.28394">
        <ele>1126</ele>
        <time>2023-04-21T09:09:56.000Z</time>
      </trkpt>
      <trkpt lat="44.50308" lon="6.28396">
        <ele>1127</ele>
        <time>2023-04-21T09:09:57.000Z</time>
      </trkpt>
      <trkpt lat="44.50304" lon="6.28399">
        <ele>1126</ele>
        <time>2023-04-21T09:09:58.000Z</time>
      </trkpt>
      <trkpt lat="44.503" lon="6.28403">
        <ele>1124</ele>
        <time>2023-04-21T09:09:59.000Z</time>
      </trkpt>
      <trkpt lat="44.50296" lon="6.28406">
        <ele>1124</ele>
        <time>2023-04-21T09:10:00.000Z</time>
      </trkpt>
      <trkpt lat="44.50292" lon="6.28409">
        <ele>1122</ele>
        <time>2023-04-21T09:10:01.000Z</time>
      </trkpt>
      <trkpt lat="44.50288" lon="6.28411">
        <ele>1121</ele>
        <time>2023-04-21T09:10:02.000Z</time>
      </trkpt>
      <trkpt lat="44.50283" lon="6.28413">
        <ele>1121</ele>
        <time>2023-04-21T09:10:03.000Z</time>
      </trkpt>
      <trkpt lat="44.50277" lon="6.28414">
        <ele>1121</ele>
        <time>2023-04-21T09:10:04.000Z</time>
      </trkpt>
      <trkpt lat="44.50271" lon="6.28416">
        <ele>1121</ele>
        <time>2023-04-21T09:10:05.000Z</time>
      </trkpt>
      <trkpt lat="44.50265" lon="6.28416">
        <ele>1120</ele>
        <time>2023-04-21T09:10:06.000Z</time>
      </trkpt>
      <trkpt lat="44.50259" lon="6.28417">
        <ele>1120</ele>
        <time>2023-04-21T09:10:07.000Z</time>
      </trkpt>
      <trkpt lat="44.50254" lon="6.28416">
        <ele>1119</ele>
        <time>2023-04-21T09:10:08.000Z</time>
      </trkpt>
      <trkpt lat="44.5025" lon="6.28415">
        <ele>1119</ele>
        <time>2023-04-21T09:10:09.000Z</time>
      </trkpt>
      <trkpt lat="44.50246" lon="6.28413">
        <ele>1119</ele>
        <time>2023-04-21T09:10:10.000Z</time>
      </trkpt>
      <trkpt lat="44.50241" lon="6.2841">
        <ele>1118</ele>
        <time>2023-04-21T09:10:11.000Z</time>
      </trkpt>
      <trkpt lat="44.50235" lon="6.28408">
        <ele>1118</ele>
        <time>2023-04-21T09:10:12.000Z</time>
      </trkpt>
      <trkpt lat="44.50229" lon="6.28409">
        <ele>1120</ele>
        <time>2023-04-21T09:10:13.000Z</time>
      </trkpt>
      <trkpt lat="44.50224" lon="6.28411">
        <ele>1122</ele>
        <time>2023-04-21T09:10:14.000Z</time>
      </trkpt>
      <trkpt lat="44.50224" lon="6.28415">
        <ele>1125</ele>
        <time>2023-04-21T09:10:15.000Z</time>
      </trkpt>
      <trkpt lat="44.50223" lon="6.28417">
        <ele>1124</ele>
        <time>2023-04-21T09:10:16.000Z</time>
      </trkpt>
      <trkpt lat="44.5022" lon="6.28418">
        <ele>1124</ele>
        <time>2023-04-21T09:10:17.000Z</time>
      </trkpt>
      <trkpt lat="44.50218" lon="6.28419">
        <ele>1124</ele>
        <time>2023-04-21T09:10:18.000Z</time>
      </trkpt>
      <trkpt lat="44.50215" lon="6.2842">
        <ele>1124</ele>
        <time>2023-04-21T09:10:19.000Z</time>
      </trkpt>
      <trkpt lat="44.50212" lon="6.28421">
        <ele>1125</ele>
        <time>2023-04-21T09:10:20.000Z</time>
      </trkpt>
      <trkpt lat="44.50207" lon="6.2842">
        <ele>1128</ele>
        <time>2023-04-21T09:10:21.000Z</time>
      </trkpt>
      <trkpt lat="44.50201" lon="6.2842">
        <ele>1130</ele>
        <time>2023-04-21T09:10:22.000Z</time>
      </trkpt>
      <trkpt lat="44.50197" lon="6.28419">
        <ele>1131</ele>
        <time>2023-04-21T09:10:23.000Z</time>
      </trkpt>
      <trkpt lat="44.50192" lon="6.28419">
        <ele>1133</ele>
        <time>2023-04-21T09:10:24.000Z</time>
      </trkpt>
      <trkpt lat="44.50188" lon="6.28418">
        <ele>1135</ele>
        <time>2023-04-21T09:10:25.000Z</time>
      </trkpt>
      <trkpt lat="44.50184" lon="6.28417">
        <ele>1136</ele>
        <time>2023-04-21T09:10:26.000Z</time>
      </trkpt>
      <trkpt lat="44.50179" lon="6.28416">
        <ele>1137</ele>
        <time>2023-04-21T09:10:27.000Z</time>
      </trkpt>
      <trkpt lat="44.50175" lon="6.28416">
        <ele>1137</ele>
        <time>2023-04-21T09:10:28.000Z</time>
      </trkpt>
      <trkpt lat="44.50171" lon="6.28416">
        <ele>1137</ele>
        <time>2023-04-21T09:10:29.000Z</time>
      </trkpt>
      <trkpt lat="44.50167" lon="6.28414">
        <ele>1136</ele>
        <time>2023-04-21T09:10:30.000Z</time>
      </trkpt>
      <trkpt lat="44.50163" lon="6.28413">
        <ele>1135</ele>
        <time>2023-04-21T09:10:31.000Z</time>
      </trkpt>
      <trkpt lat="44.50159" lon="6.28412">
        <ele>1135</ele>
        <time>2023-04-21T09:10:32.000Z</time>
      </trkpt>
      <trkpt lat="44.50155" lon="6.28411">
        <ele>1136</ele>
        <time>2023-04-21T09:10:33.000Z</time>
      </trkpt>
      <trkpt lat="44.5015" lon="6.28409">
        <ele>1137</ele>
        <time>2023-04-21T09:10:34.000Z</time>
      </trkpt>
      <trkpt lat="44.50146" lon="6.28407">
        <ele>1137</ele>
        <time>2023-04-21T09:10:35.000Z</time>
      </trkpt>
      <trkpt lat="44.50141" lon="6.28408">
        <ele>1138</ele>
        <time>2023-04-21T09:10:36.000Z</time>
      </trkpt>
      <trkpt lat="44.50136" lon="6.28407">
        <ele>1137</ele>
        <time>2023-04-21T09:10:37.000Z</time>
      </trkpt>
      <trkpt lat="44.5013" lon="6.28407">
        <ele>1134</ele>
        <time>2023-04-21T09:10:38.000Z</time>
      </trkpt>
      <trkpt lat="44.50124" lon="6.28405">
        <ele>1130</ele>
        <time>2023-04-21T09:10:39.000Z</time>
      </trkpt>
      <trkpt lat="44.5012" lon="6.28404">
        <ele>1131</ele>
        <time>2023-04-21T09:10:40.000Z</time>
      </trkpt>
      <trkpt lat="44.50115" lon="6.28403">
        <ele>1132</ele>
        <time>2023-04-21T09:10:41.000Z</time>
      </trkpt>
      <trkpt lat="44.5011" lon="6.28401">
        <ele>1132</ele>
        <time>2023-04-21T09:10:42.000Z</time>
      </trkpt>
      <trkpt lat="44.50106" lon="6.28401">
        <ele>1132</ele>
        <time>2023-04-21T09:10:43.000Z</time>
      </trkpt>
      <trkpt lat="44.50102" lon="6.28401">
        <ele>1133</ele>
        <time>2023-04-21T09:10:44.000Z</time>
      </trkpt>
      <trkpt lat="44.50098" lon="6.28401">
        <ele>1133</ele>
        <time>2023-04-21T09:10:45.000Z</time>
      </trkpt>
      <trkpt lat="44.50095" lon="6.28401">
        <ele>1133</ele>
        <time>2023-04-21T09:10:46.000Z</time>
      </trkpt>
      <trkpt lat="44.50091" lon="6.28401">
        <ele>1133</ele>
        <time>2023-04-21T09:10:47.000Z</time>
      </trkpt>
      <trkpt lat="44.50089" lon="6.284">
        <ele>1134</ele>
        <time>2023-04-21T09:10:48.000Z</time>
      </trkpt>
      <trkpt lat="44.50087" lon="6.28401">
        <ele>1136</ele>
        <time>2023-04-21T09:10:49.000Z</time>
      </trkpt>
      <trkpt lat="44.50085" lon="6.28402">
        <ele>1136</ele>
        <time>2023-04-21T09:10:50.000Z</time>
      </trkpt>
      <trkpt lat="44.50083" lon="6.28403">
        <ele>1135</ele>
        <time>2023-04-21T09:10:51.000Z</time>
      </trkpt>
      <trkpt lat="44.50082" lon="6.28402">
        <ele>1133</ele>
        <time>2023-04-21T09:10:52.000Z</time>
      </trkpt>
      <trkpt lat="44.5008" lon="6.28402">
        <ele>1131</ele>
        <time>2023-04-21T09:10:53.000Z</time>
      </trkpt>
      <trkpt lat="44.5008" lon="6.28401">
        <ele>1132</ele>
        <time>2023-04-21T09:10:54.000Z</time>
      </trkpt>
      <trkpt lat="44.5008" lon="6.28401">
        <ele>1130</ele>
        <time>2023-04-21T09:10:55.000Z</time>
      </trkpt>
      <trkpt lat="44.50078" lon="6.28401">
        <ele>1128</ele>
        <time>2023-04-21T09:10:56.000Z</time>
      </trkpt>
      <trkpt lat="44.50078" lon="6.28401">
        <ele>1126</ele>
        <time>2023-04-21T09:10:57.000Z</time>
      </trkpt>
      <trkpt lat="44.50077" lon="6.28401">
        <ele>1125</ele>
        <time>2023-04-21T09:10:58.000Z</time>
      </trkpt>
      <trkpt lat="44.50077" lon="6.284">
        <ele>1124</ele>
        <time>2023-04-21T09:10:59.000Z</time>
      </trkpt>
      <trkpt lat="44.50076" lon="6.284">
        <ele>1123</ele>
        <time>2023-04-21T09:11:00.000Z</time>
      </trkpt>
      <trkpt lat="44.50076" lon="6.284">
        <ele>1122</ele>
        <time>2023-04-21T09:11:01.000Z</time>
      </trkpt>
      <trkpt lat="44.50076" lon="6.284">
        <ele>1121</ele>
        <time>2023-04-21T09:11:02.000Z</time>
      </trkpt>
      <trkpt lat="44.50075" lon="6.284">
        <ele>1121</ele>
        <time>2023-04-21T09:11:03.000Z</time>
      </trkpt>
      <trkpt lat="44.50075" lon="6.284">
        <ele>1120</ele>
        <time>2023-04-21T09:11:04.000Z</time>
      </trkpt>
      <trkpt lat="44.50075" lon="6.284">
        <ele>1119</ele>
        <time>2023-04-21T09:11:05.000Z</time>
      </trkpt>
      <trkpt lat="44.50075" lon="6.284">
        <ele>1119</ele>
        <time>2023-04-21T09:11:06.000Z</time>
      </trkpt>
      <trkpt lat="44.50075" lon="6.284">
        <ele>1119</ele>
        <time>2023-04-21T09:11:07.000Z</time>
      </trkpt>
      <trkpt lat="44.50075" lon="6.284">
        <ele>1118</ele>
        <time>2023-04-21T09:11:08.000Z</time>
      </trkpt>
      <trkpt lat="44.50074" lon="6.28399">
        <ele>1117</ele>
        <time>2023-04-21T09:11:09.000Z</time>
      </trkpt>
      <trkpt lat="44.50074" lon="6.28399">
        <ele>1117</ele>
        <time>2023-04-21T09:11:10.000Z</time>
      </trkpt>
      <trkpt lat="44.50074" lon="6.28399">
        <ele>1117</ele>
        <time>2023-04-21T09:11:11.000Z</time>
      </trkpt>
      <trkpt lat="44.50074" lon="6.28399">
        <ele>1116</ele>
        <time>2023-04-21T09:11:12.000Z</time>
      </trkpt>
      <trkpt lat="44.50074" lon="6.28399">
        <ele>1116</ele>
        <time>2023-04-21T09:11:13.000Z</time>
      </trkpt>
      <trkpt lat="44.50074" lon="6.28399">
        <ele>1115</ele>
        <time>2023-04-21T09:11:14.000Z</time>
      </trkpt>
      <trkpt lat="44.50074" lon="6.28399">
        <ele>1115</ele>
        <time>2023-04-21T09:11:15.000Z</time>
      </trkpt>
      <trkpt lat="44.50074" lon="6.28399">
        <ele>1114</ele>
        <time>2023-04-21T09:11:16.000Z</time>
      </trkpt>
      <trkpt lat="44.50074" lon="6.28399">
        <ele>1114</ele>
        <time>2023-04-21T09:11:17.000Z</time>
      </trkpt>
      <trkpt lat="44.50073" lon="6.28399">
        <ele>1114</ele>
        <time>2023-04-21T09:11:18.000Z</time>
      </trkpt>
      <trkpt lat="44.50073" lon="6.28399">
        <ele>1113</ele>
        <time>2023-04-21T09:11:19.000Z</time>
      </trkpt>
      <trkpt lat="44.50073" lon="6.28399">
        <ele>1113</ele>
        <time>2023-04-21T09:11:20.000Z</time>
      </trkpt>
      <trkpt lat="44.50073" lon="6.28399">
        <ele>1113</ele>
        <time>2023-04-21T09:11:21.000Z</time>
      </trkpt>
      <trkpt lat="44.50073" lon="6.28399">
        <ele>1112</ele>
        <time>2023-04-21T09:11:22.000Z</time>
      </trkpt>
      <trkpt lat="44.50073" lon="6.28399">
        <ele>1112</ele>
        <time>2023-04-21T09:11:23.000Z</time>
      </trkpt>
      <trkpt lat="44.50073" lon="6.28399">
        <ele>1112</ele>
        <time>2023-04-21T09:11:24.000Z</time>
      </trkpt>
      <trkpt lat="44.50071" lon="6.28398">
        <ele>1113</ele>
        <time>2023-04-21T09:11:25.000Z</time>
      </trkpt>
      <trkpt lat="44.5007" lon="6.28398">
        <ele>1114</ele>
        <time>2023-04-21T09:11:26.000Z</time>
      </trkpt>
      <trkpt lat="44.50068" lon="6.28397">
        <ele>1115</ele>
        <time>2023-04-21T09:11:27.000Z</time>
      </trkpt>
      <trkpt lat="44.50067" lon="6.28396">
        <ele>1116</ele>
        <time>2023-04-21T09:11:28.000Z</time>
      </trkpt>
      <trkpt lat="44.50064" lon="6.28396">
        <ele>1117</ele>
        <time>2023-04-21T09:11:29.000Z</time>
      </trkpt>
      <trkpt lat="44.5006" lon="6.28393">
        <ele>1120</ele>
        <time>2023-04-21T09:11:30.000Z</time>
      </trkpt>
      <trkpt lat="44.50055" lon="6.28392">
        <ele>1122</ele>
        <time>2023-04-21T09:11:31.000Z</time>
      </trkpt>
      <trkpt lat="44.5005" lon="6.28389">
        <ele>1124</ele>
        <time>2023-04-21T09:11:32.000Z</time>
      </trkpt>
      <trkpt lat="44.50047" lon="6.28386">
        <ele>1125</ele>
        <time>2023-04-21T09:11:33.000Z</time>
      </trkpt>
      <trkpt lat="44.50043" lon="6.28382">
        <ele>1125</ele>
        <time>2023-04-21T09:11:34.000Z</time>
      </trkpt>
      <trkpt lat="44.50039" lon="6.28379">
        <ele>1124</ele>
        <time>2023-04-21T09:11:35.000Z</time>
      </trkpt>
      <trkpt lat="44.50035" lon="6.28377">
        <ele>1124</ele>
        <time>2023-04-21T09:11:36.000Z</time>
      </trkpt>
      <trkpt lat="44.50032" lon="6.28375">
        <ele>1125</ele>
        <time>2023-04-21T09:11:37.000Z</time>
      </trkpt>
      <trkpt lat="44.50029" lon="6.28373">
        <ele>1126</ele>
        <time>2023-04-21T09:11:38.000Z</time>
      </trkpt>
      <trkpt lat="44.50025" lon="6.28372">
        <ele>1127</ele>
        <time>2023-04-21T09:11:39.000Z</time>
      </trkpt>
      <trkpt lat="44.50022" lon="6.28371">
        <ele>1127</ele>
        <time>2023-04-21T09:11:40.000Z</time>
      </trkpt>
      <trkpt lat="44.50018" lon="6.28371">
        <ele>1127</ele>
        <time>2023-04-21T09:11:41.000Z</time>
      </trkpt>
      <trkpt lat="44.50014" lon="6.28369">
        <ele>1128</ele>
        <time>2023-04-21T09:11:42.000Z</time>
      </trkpt>
      <trkpt lat="44.5001" lon="6.28367">
        <ele>1129</ele>
        <time>2023-04-21T09:11:43.000Z</time>
      </trkpt>
      <trkpt lat="44.50004" lon="6.28365">
        <ele>1127</ele>
        <time>2023-04-21T09:11:44.000Z</time>
      </trkpt>
      <trkpt lat="44.49996" lon="6.2837">
        <ele>1124</ele>
        <time>2023-04-21T09:11:45.000Z</time>
      </trkpt>
      <trkpt lat="44.49993" lon="6.28372">
        <ele>1121</ele>
        <time>2023-04-21T09:11:46.000Z</time>
      </trkpt>
      <trkpt lat="44.49989" lon="6.28373">
        <ele>1119</ele>
        <time>2023-04-21T09:11:47.000Z</time>
      </trkpt>
      <trkpt lat="44.49987" lon="6.2837">
        <ele>1116</ele>
        <time>2023-04-21T09:11:48.000Z</time>
      </trkpt>
      <trkpt lat="44.49982" lon="6.28369">
        <ele>1117</ele>
        <time>2023-04-21T09:11:49.000Z</time>
      </trkpt>
      <trkpt lat="44.49978" lon="6.28366">
        <ele>1117</ele>
        <time>2023-04-21T09:11:50.000Z</time>
      </trkpt>
      <trkpt lat="44.49975" lon="6.28362">
        <ele>1116</ele>
        <time>2023-04-21T09:11:51.000Z</time>
      </trkpt>
      <trkpt lat="44.49971" lon="6.28358">
        <ele>1116</ele>
        <time>2023-04-21T09:11:52.000Z</time>
      </trkpt>
      <trkpt lat="44.49968" lon="6.28355">
        <ele>1116</ele>
        <time>2023-04-21T09:11:53.000Z</time>
      </trkpt>
      <trkpt lat="44.49965" lon="6.28352">
        <ele>1117</ele>
        <time>2023-04-21T09:11:54.000Z</time>
      </trkpt>
      <trkpt lat="44.49962" lon="6.28351">
        <ele>1117</ele>
        <time>2023-04-21T09:11:55.000Z</time>
      </trkpt>
      <trkpt lat="44.49958" lon="6.2835">
        <ele>1118</ele>
        <time>2023-04-21T09:11:56.000Z</time>
      </trkpt>
      <trkpt lat="44.49956" lon="6.2835">
        <ele>1118</ele>
        <time>2023-04-21T09:11:57.000Z</time>
      </trkpt>
      <trkpt lat="44.49954" lon="6.28351">
        <ele>1119</ele>
        <time>2023-04-21T09:11:58.000Z</time>
      </trkpt>
      <trkpt lat="44.49952" lon="6.28351">
        <ele>1119</ele>
        <time>2023-04-21T09:11:59.000Z</time>
      </trkpt>
      <trkpt lat="44.49949" lon="6.28351">
        <ele>1118</ele>
        <time>2023-04-21T09:12:00.000Z</time>
      </trkpt>
      <trkpt lat="44.49948" lon="6.28347">
        <ele>1118</ele>
        <time>2023-04-21T09:12:01.000Z</time>
      </trkpt>
      <trkpt lat="44.49945" lon="6.28345">
        <ele>1118</ele>
        <time>2023-04-21T09:12:02.000Z</time>
      </trkpt>
      <trkpt lat="44.49942" lon="6.28342">
        <ele>1118</ele>
        <time>2023-04-21T09:12:03.000Z</time>
      </trkpt>
      <trkpt lat="44.49939" lon="6.28339">
        <ele>1119</ele>
        <time>2023-04-21T09:12:04.000Z</time>
      </trkpt>
      <trkpt lat="44.49935" lon="6.28338">
        <ele>1119</ele>
        <time>2023-04-21T09:12:05.000Z</time>
      </trkpt>
      <trkpt lat="44.49931" lon="6.28338">
        <ele>1119</ele>
        <time>2023-04-21T09:12:06.000Z</time>
      </trkpt>
      <trkpt lat="44.49928" lon="6.28338">
        <ele>1119</ele>
        <time>2023-04-21T09:12:07.000Z</time>
      </trkpt>
      <trkpt lat="44.49922" lon="6.28338">
        <ele>1120</ele>
        <time>2023-04-21T09:12:08.000Z</time>
      </trkpt>
      <trkpt lat="44.49916" lon="6.28341">
        <ele>1118</ele>
        <time>2023-04-21T09:12:09.000Z</time>
      </trkpt>
      <trkpt lat="44.49913" lon="6.28342">
        <ele>1113</ele>
        <time>2023-04-21T09:12:10.000Z</time>
      </trkpt>
      <trkpt lat="44.49908" lon="6.28344">
        <ele>1111</ele>
        <time>2023-04-21T09:12:11.000Z</time>
      </trkpt>
      <trkpt lat="44.49903" lon="6.28345">
        <ele>1109</ele>
        <time>2023-04-21T09:12:12.000Z</time>
      </trkpt>
      <trkpt lat="44.49899" lon="6.28343">
        <ele>1107</ele>
        <time>2023-04-21T09:12:13.000Z</time>
      </trkpt>
      <trkpt lat="44.49894" lon="6.2834">
        <ele>1106</ele>
        <time>2023-04-21T09:12:14.000Z</time>
      </trkpt>
      <trkpt lat="44.49888" lon="6.28338">
        <ele>1103</ele>
        <time>2023-04-21T09:12:15.000Z</time>
      </trkpt>
      <trkpt lat="44.49883" lon="6.28339">
        <ele>1103</ele>
        <time>2023-04-21T09:12:16.000Z</time>
      </trkpt>
      <trkpt lat="44.49878" lon="6.28339">
        <ele>1102</ele>
        <time>2023-04-21T09:12:17.000Z</time>
      </trkpt>
      <trkpt lat="44.49874" lon="6.28337">
        <ele>1101</ele>
        <time>2023-04-21T09:12:18.000Z</time>
      </trkpt>
      <trkpt lat="44.49869" lon="6.28334">
        <ele>1101</ele>
        <time>2023-04-21T09:12:19.000Z</time>
      </trkpt>
      <trkpt lat="44.49866" lon="6.28331">
        <ele>1100</ele>
        <time>2023-04-21T09:12:20.000Z</time>
      </trkpt>
      <trkpt lat="44.49864" lon="6.28327">
        <ele>1098</ele>
        <time>2023-04-21T09:12:21.000Z</time>
      </trkpt>
      <trkpt lat="44.49862" lon="6.28323">
        <ele>1096</ele>
        <time>2023-04-21T09:12:22.000Z</time>
      </trkpt>
      <trkpt lat="44.49859" lon="6.28319">
        <ele>1095</ele>
        <time>2023-04-21T09:12:23.000Z</time>
      </trkpt>
      <trkpt lat="44.49856" lon="6.2832">
        <ele>1094</ele>
        <time>2023-04-21T09:12:24.000Z</time>
      </trkpt>
      <trkpt lat="44.49853" lon="6.28321">
        <ele>1092</ele>
        <time>2023-04-21T09:12:25.000Z</time>
      </trkpt>
      <trkpt lat="44.4985" lon="6.28323">
        <ele>1090</ele>
        <time>2023-04-21T09:12:26.000Z</time>
      </trkpt>
      <trkpt lat="44.49846" lon="6.28325">
        <ele>1087</ele>
        <time>2023-04-21T09:12:27.000Z</time>
      </trkpt>
      <trkpt lat="44.49842" lon="6.28327">
        <ele>1086</ele>
        <time>2023-04-21T09:12:28.000Z</time>
      </trkpt>
      <trkpt lat="44.49839" lon="6.28326">
        <ele>1086</ele>
        <time>2023-04-21T09:12:29.000Z</time>
      </trkpt>
      <trkpt lat="44.49835" lon="6.28325">
        <ele>1085</ele>
        <time>2023-04-21T09:12:30.000Z</time>
      </trkpt>
      <trkpt lat="44.49831" lon="6.28325">
        <ele>1085</ele>
        <time>2023-04-21T09:12:31.000Z</time>
      </trkpt>
      <trkpt lat="44.49826" lon="6.28324">
        <ele>1084</ele>
        <time>2023-04-21T09:12:32.000Z</time>
      </trkpt>
      <trkpt lat="44.49822" lon="6.28326">
        <ele>1084</ele>
        <time>2023-04-21T09:12:33.000Z</time>
      </trkpt>
      <trkpt lat="44.49818" lon="6.28329">
        <ele>1083</ele>
        <time>2023-04-21T09:12:34.000Z</time>
      </trkpt>
      <trkpt lat="44.49814" lon="6.28333">
        <ele>1081</ele>
        <time>2023-04-21T09:12:35.000Z</time>
      </trkpt>
      <trkpt lat="44.4981" lon="6.28338">
        <ele>1080</ele>
        <time>2023-04-21T09:12:36.000Z</time>
      </trkpt>
      <trkpt lat="44.49807" lon="6.28344">
        <ele>1079</ele>
        <time>2023-04-21T09:12:37.000Z</time>
      </trkpt>
      <trkpt lat="44.49804" lon="6.28348">
        <ele>1079</ele>
        <time>2023-04-21T09:12:38.000Z</time>
      </trkpt>
      <trkpt lat="44.49799" lon="6.2835">
        <ele>1078</ele>
        <time>2023-04-21T09:12:39.000Z</time>
      </trkpt>
      <trkpt lat="44.49793" lon="6.28351">
        <ele>1077</ele>
        <time>2023-04-21T09:12:40.000Z</time>
      </trkpt>
      <trkpt lat="44.49789" lon="6.28353">
        <ele>1076</ele>
        <time>2023-04-21T09:12:41.000Z</time>
      </trkpt>
      <trkpt lat="44.49781" lon="6.28356">
        <ele>1076</ele>
        <time>2023-04-21T09:12:42.000Z</time>
      </trkpt>
      <trkpt lat="44.49777" lon="6.28359">
        <ele>1075</ele>
        <time>2023-04-21T09:12:43.000Z</time>
      </trkpt>
      <trkpt lat="44.49773" lon="6.28363">
        <ele>1075</ele>
        <time>2023-04-21T09:12:44.000Z</time>
      </trkpt>
      <trkpt lat="44.49768" lon="6.28366">
        <ele>1074</ele>
        <time>2023-04-21T09:12:45.000Z</time>
      </trkpt>
      <trkpt lat="44.49765" lon="6.28369">
        <ele>1073</ele>
        <time>2023-04-21T09:12:46.000Z</time>
      </trkpt>
      <trkpt lat="44.49761" lon="6.28371">
        <ele>1072</ele>
        <time>2023-04-21T09:12:47.000Z</time>
      </trkpt>
      <trkpt lat="44.49757" lon="6.28374">
        <ele>1071</ele>
        <time>2023-04-21T09:12:48.000Z</time>
      </trkpt>
      <trkpt lat="44.49753" lon="6.28376">
        <ele>1071</ele>
        <time>2023-04-21T09:12:49.000Z</time>
      </trkpt>
      <trkpt lat="44.4975" lon="6.28372">
        <ele>1070</ele>
        <time>2023-04-21T09:12:50.000Z</time>
      </trkpt>
      <trkpt lat="44.49747" lon="6.2837">
        <ele>1071</ele>
        <time>2023-04-21T09:12:51.000Z</time>
      </trkpt>
      <trkpt lat="44.49743" lon="6.28369">
        <ele>1071</ele>
        <time>2023-04-21T09:12:52.000Z</time>
      </trkpt>
      <trkpt lat="44.4974" lon="6.2837">
        <ele>1070</ele>
        <time>2023-04-21T09:12:53.000Z</time>
      </trkpt>
      <trkpt lat="44.49736" lon="6.28372">
        <ele>1069</ele>
        <time>2023-04-21T09:12:54.000Z</time>
      </trkpt>
      <trkpt lat="44.49732" lon="6.28373">
        <ele>1067</ele>
        <time>2023-04-21T09:12:55.000Z</time>
      </trkpt>
      <trkpt lat="44.49729" lon="6.28373">
        <ele>1066</ele>
        <time>2023-04-21T09:12:56.000Z</time>
      </trkpt>
      <trkpt lat="44.49726" lon="6.28372">
        <ele>1065</ele>
        <time>2023-04-21T09:12:57.000Z</time>
      </trkpt>
      <trkpt lat="44.49721" lon="6.28372">
        <ele>1063</ele>
        <time>2023-04-21T09:12:58.000Z</time>
      </trkpt>
      <trkpt lat="44.49717" lon="6.28372">
        <ele>1062</ele>
        <time>2023-04-21T09:12:59.000Z</time>
      </trkpt>
      <trkpt lat="44.49714" lon="6.28373">
        <ele>1061</ele>
        <time>2023-04-21T09:13:00.000Z</time>
      </trkpt>
      <trkpt lat="44.49711" lon="6.28373">
        <ele>1059</ele>
        <time>2023-04-21T09:13:01.000Z</time>
      </trkpt>
      <trkpt lat="44.49707" lon="6.28373">
        <ele>1058</ele>
        <time>2023-04-21T09:13:02.000Z</time>
      </trkpt>
      <trkpt lat="44.49704" lon="6.28372">
        <ele>1058</ele>
        <time>2023-04-21T09:13:03.000Z</time>
      </trkpt>
      <trkpt lat="44.49701" lon="6.2837">
        <ele>1058</ele>
        <time>2023-04-21T09:13:04.000Z</time>
      </trkpt>
      <trkpt lat="44.49698" lon="6.2837">
        <ele>1057</ele>
        <time>2023-04-21T09:13:05.000Z</time>
      </trkpt>
      <trkpt lat="44.49694" lon="6.2837">
        <ele>1057</ele>
        <time>2023-04-21T09:13:06.000Z</time>
      </trkpt>
      <trkpt lat="44.49691" lon="6.28371">
        <ele>1056</ele>
        <time>2023-04-21T09:13:07.000Z</time>
      </trkpt>
      <trkpt lat="44.49689" lon="6.28373">
        <ele>1055</ele>
        <time>2023-04-21T09:13:08.000Z</time>
      </trkpt>
      <trkpt lat="44.49686" lon="6.28376">
        <ele>1055</ele>
        <time>2023-04-21T09:13:09.000Z</time>
      </trkpt>
      <trkpt lat="44.49684" lon="6.2838">
        <ele>1054</ele>
        <time>2023-04-21T09:13:10.000Z</time>
      </trkpt>
      <trkpt lat="44.49683" lon="6.28385">
        <ele>1054</ele>
        <time>2023-04-21T09:13:11.000Z</time>
      </trkpt>
      <trkpt lat="44.49681" lon="6.28389">
        <ele>1053</ele>
        <time>2023-04-21T09:13:12.000Z</time>
      </trkpt>
      <trkpt lat="44.49679" lon="6.28392">
        <ele>1052</ele>
        <time>2023-04-21T09:13:13.000Z</time>
      </trkpt>
      <trkpt lat="44.49676" lon="6.28396">
        <ele>1051</ele>
        <time>2023-04-21T09:13:14.000Z</time>
      </trkpt>
      <trkpt lat="44.49673" lon="6.284">
        <ele>1050</ele>
        <time>2023-04-21T09:13:15.000Z</time>
      </trkpt>
      <trkpt lat="44.49668" lon="6.28402">
        <ele>1051</ele>
        <time>2023-04-21T09:13:16.000Z</time>
      </trkpt>
      <trkpt lat="44.49666" lon="6.28405">
        <ele>1051</ele>
        <time>2023-04-21T09:13:17.000Z</time>
      </trkpt>
      <trkpt lat="44.49664" lon="6.28407">
        <ele>1051</ele>
        <time>2023-04-21T09:13:18.000Z</time>
      </trkpt>
      <trkpt lat="44.49661" lon="6.28409">
        <ele>1051</ele>
        <time>2023-04-21T09:13:19.000Z</time>
      </trkpt>
      <trkpt lat="44.49659" lon="6.28411">
        <ele>1051</ele>
        <time>2023-04-21T09:13:20.000Z</time>
      </trkpt>
      <trkpt lat="44.49656" lon="6.28413">
        <ele>1052</ele>
        <time>2023-04-21T09:13:21.000Z</time>
      </trkpt>
      <trkpt lat="44.49654" lon="6.28415">
        <ele>1051</ele>
        <time>2023-04-21T09:13:22.000Z</time>
      </trkpt>
      <trkpt lat="44.49652" lon="6.28416">
        <ele>1051</ele>
        <time>2023-04-21T09:13:23.000Z</time>
      </trkpt>
      <trkpt lat="44.49651" lon="6.28417">
        <ele>1051</ele>
        <time>2023-04-21T09:13:24.000Z</time>
      </trkpt>
      <trkpt lat="44.49651" lon="6.28417">
        <ele>1051</ele>
        <time>2023-04-21T09:13:25.000Z</time>
      </trkpt>
      <trkpt lat="44.49651" lon="6.28418">
        <ele>1051</ele>
        <time>2023-04-21T09:13:26.000Z</time>
      </trkpt>
      <trkpt lat="44.49651" lon="6.28418">
        <ele>1051</ele>
        <time>2023-04-21T09:13:27.000Z</time>
      </trkpt>
      <trkpt lat="44.4965" lon="6.28418">
        <ele>1051</ele>
        <time>2023-04-21T09:13:28.000Z</time>
      </trkpt>
      <trkpt lat="44.4965" lon="6.28418">
        <ele>1050</ele>
        <time>2023-04-21T09:13:29.000Z</time>
      </trkpt>
      <trkpt lat="44.4965" lon="6.28419">
        <ele>1050</ele>
        <time>2023-04-21T09:13:30.000Z</time>
      </trkpt>
      <trkpt lat="44.4965" lon="6.28419">
        <ele>1050</ele>
        <time>2023-04-21T09:13:31.000Z</time>
      </trkpt>
      <trkpt lat="44.4965" lon="6.28419">
        <ele>1050</ele>
        <time>2023-04-21T09:13:32.000Z</time>
      </trkpt>
      <trkpt lat="44.49649" lon="6.2842">
        <ele>1050</ele>
        <time>2023-04-21T09:13:33.000Z</time>
      </trkpt>
      <trkpt lat="44.49648" lon="6.2842">
        <ele>1050</ele>
        <time>2023-04-21T09:13:34.000Z</time>
      </trkpt>
      <trkpt lat="44.49646" lon="6.2842">
        <ele>1050</ele>
        <time>2023-04-21T09:13:35.000Z</time>
      </trkpt>
      <trkpt lat="44.49644" lon="6.2842">
        <ele>1050</ele>
        <time>2023-04-21T09:13:36.000Z</time>
      </trkpt>
      <trkpt lat="44.49642" lon="6.28418">
        <ele>1050</ele>
        <time>2023-04-21T09:13:37.000Z</time>
      </trkpt>
      <trkpt lat="44.49642" lon="6.28416">
        <ele>1050</ele>
        <time>2023-04-21T09:13:38.000Z</time>
      </trkpt>
      <trkpt lat="44.49641" lon="6.28414">
        <ele>1050</ele>
        <time>2023-04-21T09:13:39.000Z</time>
      </trkpt>
      <trkpt lat="44.4964" lon="6.28411">
        <ele>1050</ele>
        <time>2023-04-21T09:13:40.000Z</time>
      </trkpt>
      <trkpt lat="44.49639" lon="6.28407">
        <ele>1049</ele>
        <time>2023-04-21T09:13:41.000Z</time>
      </trkpt>
      <trkpt lat="44.49638" lon="6.28403">
        <ele>1049</ele>
        <time>2023-04-21T09:13:42.000Z</time>
      </trkpt>
      <trkpt lat="44.49636" lon="6.28398">
        <ele>1048</ele>
        <time>2023-04-21T09:13:43.000Z</time>
      </trkpt>
      <trkpt lat="44.49634" lon="6.28394">
        <ele>1048</ele>
        <time>2023-04-21T09:13:44.000Z</time>
      </trkpt>
      <trkpt lat="44.49631" lon="6.2839">
        <ele>1048</ele>
        <time>2023-04-21T09:13:45.000Z</time>
      </trkpt>
      <trkpt lat="44.49629" lon="6.28387">
        <ele>1048</ele>
        <time>2023-04-21T09:13:46.000Z</time>
      </trkpt>
      <trkpt lat="44.49627" lon="6.28386">
        <ele>1048</ele>
        <time>2023-04-21T09:13:47.000Z</time>
      </trkpt>
      <trkpt lat="44.49624" lon="6.28384">
        <ele>1048</ele>
        <time>2023-04-21T09:13:48.000Z</time>
      </trkpt>
      <trkpt lat="44.49622" lon="6.28381">
        <ele>1048</ele>
        <time>2023-04-21T09:13:49.000Z</time>
      </trkpt>
      <trkpt lat="44.49619" lon="6.2838">
        <ele>1049</ele>
        <time>2023-04-21T09:13:50.000Z</time>
      </trkpt>
      <trkpt lat="44.49615" lon="6.28377">
        <ele>1048</ele>
        <time>2023-04-21T09:13:51.000Z</time>
      </trkpt>
      <trkpt lat="44.49613" lon="6.28374">
        <ele>1047</ele>
        <time>2023-04-21T09:13:52.000Z</time>
      </trkpt>
      <trkpt lat="44.4961" lon="6.28373">
        <ele>1047</ele>
        <time>2023-04-21T09:13:53.000Z</time>
      </trkpt>
      <trkpt lat="44.49607" lon="6.28371">
        <ele>1046</ele>
        <time>2023-04-21T09:13:54.000Z</time>
      </trkpt>
      <trkpt lat="44.49603" lon="6.2837">
        <ele>1046</ele>
        <time>2023-04-21T09:13:55.000Z</time>
      </trkpt>
      <trkpt lat="44.49599" lon="6.28368">
        <ele>1046</ele>
        <time>2023-04-21T09:13:56.000Z</time>
      </trkpt>
      <trkpt lat="44.49596" lon="6.28365">
        <ele>1046</ele>
        <time>2023-04-21T09:13:57.000Z</time>
      </trkpt>
      <trkpt lat="44.49593" lon="6.28361">
        <ele>1045</ele>
        <time>2023-04-21T09:13:58.000Z</time>
      </trkpt>
      <trkpt lat="44.49591" lon="6.28356">
        <ele>1044</ele>
        <time>2023-04-21T09:13:59.000Z</time>
      </trkpt>
      <trkpt lat="44.49589" lon="6.28351">
        <ele>1044</ele>
        <time>2023-04-21T09:14:00.000Z</time>
      </trkpt>
      <trkpt lat="44.49586" lon="6.28347">
        <ele>1044</ele>
        <time>2023-04-21T09:14:01.000Z</time>
      </trkpt>
      <trkpt lat="44.49585" lon="6.28343">
        <ele>1044</ele>
        <time>2023-04-21T09:14:02.000Z</time>
      </trkpt>
      <trkpt lat="44.49584" lon="6.2834">
        <ele>1043</ele>
        <time>2023-04-21T09:14:03.000Z</time>
      </trkpt>
      <trkpt lat="44.49584" lon="6.2834">
        <ele>1043</ele>
        <time>2023-04-21T09:14:04.000Z</time>
      </trkpt>
      <trkpt lat="44.49584" lon="6.2834">
        <ele>1043</ele>
        <time>2023-04-21T09:14:05.000Z</time>
      </trkpt>
      <trkpt lat="44.49584" lon="6.2834">
        <ele>1043</ele>
        <time>2023-04-21T09:14:06.000Z</time>
      </trkpt>
      <trkpt lat="44.49584" lon="6.2834">
        <ele>1043</ele>
        <time>2023-04-21T09:14:07.000Z</time>
      </trkpt>
      <trkpt lat="44.49584" lon="6.2834">
        <ele>1043</ele>
        <time>2023-04-21T09:14:08.000Z</time>
      </trkpt>
      <trkpt lat="44.49584" lon="6.2834">
        <ele>1043</ele>
        <time>2023-04-21T09:14:09.000Z</time>
      </trkpt>
      <trkpt lat="44.49584" lon="6.2834">
        <ele>1042</ele>
        <time>2023-04-21T09:14:10.000Z</time>
      </trkpt>
      <trkpt lat="44.49584" lon="6.2834">
        <ele>1042</ele>
        <time>2023-04-21T09:14:11.000Z</time>
      </trkpt>
      <trkpt lat="44.49584" lon="6.2834">
        <ele>1042</ele>
        <time>2023-04-21T09:14:12.000Z</time>
      </trkpt>
      <trkpt lat="44.49584" lon="6.2834">
        <ele>1042</ele>
        <time>2023-04-21T09:14:13.000Z</time>
      </trkpt>
      <trkpt lat="44.49584" lon="6.2834">
        <ele>1042</ele>
        <time>2023-04-21T09:14:14.000Z</time>
      </trkpt>
      <trkpt lat="44.49584" lon="6.2834">
        <ele>1042</ele>
        <time>2023-04-21T09:14:15.000Z</time>
      </trkpt>
      <trkpt lat="44.49584" lon="6.2834">
        <ele>1042</ele>
        <time>2023-04-21T09:14:16.000Z</time>
      </trkpt>
      <trkpt lat="44.49584" lon="6.2834">
        <ele>1042</ele>
        <time>2023-04-21T09:14:17.000Z</time>
      </trkpt>
      <trkpt lat="44.49584" lon="6.2834">
        <ele>1042</ele>
        <time>2023-04-21T09:14:18.000Z</time>
      </trkpt>
      <trkpt lat="44.49584" lon="6.2834">
        <ele>1042</ele>
        <time>2023-04-21T09:14:19.000Z</time>
      </trkpt>
      <trkpt lat="44.49584" lon="6.2834">
        <ele>1042</ele>
        <time>2023-04-21T09:14:20.000Z</time>
      </trkpt>
      <trkpt lat="44.49584" lon="6.2834">
        <ele>1042</ele>
        <time>2023-04-21T09:14:21.000Z</time>
      </trkpt>
      <trkpt lat="44.49584" lon="6.2834">
        <ele>1042</ele>
        <time>2023-04-21T09:14:22.000Z</time>
      </trkpt>
      <trkpt lat="44.49584" lon="6.2834">
        <ele>1042</ele>
        <time>2023-04-21T09:14:23.000Z</time>
      </trkpt>
      <trkpt lat="44.49584" lon="6.2834">
        <ele>1042</ele>
        <time>2023-04-21T09:14:24.000Z</time>
      </trkpt>
      <trkpt lat="44.49584" lon="6.2834">
        <ele>1042</ele>
        <time>2023-04-21T09:14:25.000Z</time>
      </trkpt>
      <trkpt lat="44.49584" lon="6.2834">
        <ele>1042</ele>
        <time>2023-04-21T09:14:26.000Z</time>
      </trkpt>
      <trkpt lat="44.49583" lon="6.28339">
        <ele>1041</ele>
        <time>2023-04-21T09:14:27.000Z</time>
      </trkpt>
      <trkpt lat="44.49583" lon="6.28338">
        <ele>1041</ele>
        <time>2023-04-21T09:14:28.000Z</time>
      </trkpt>
      <trkpt lat="44.49582" lon="6.28337">
        <ele>1041</ele>
        <time>2023-04-21T09:14:29.000Z</time>
      </trkpt>
      <trkpt lat="44.49581" lon="6.28334">
        <ele>1041</ele>
        <time>2023-04-21T09:14:30.000Z</time>
      </trkpt>
      <trkpt lat="44.4958" lon="6.28331">
        <ele>1041</ele>
        <time>2023-04-21T09:14:31.000Z</time>
      </trkpt>
      <trkpt lat="44.49579" lon="6.28327">
        <ele>1041</ele>
        <time>2023-04-21T09:14:32.000Z</time>
      </trkpt>
      <trkpt lat="44.49578" lon="6.28322">
        <ele>1041</ele>
        <time>2023-04-21T09:14:33.000Z</time>
      </trkpt>
      <trkpt lat="44.49577" lon="6.28318">
        <ele>1041</ele>
        <time>2023-04-21T09:14:34.000Z</time>
      </trkpt>
      <trkpt lat="44.49576" lon="6.28313">
        <ele>1041</ele>
        <time>2023-04-21T09:14:35.000Z</time>
      </trkpt>
      <trkpt lat="44.49576" lon="6.28307">
        <ele>1040</ele>
        <time>2023-04-21T09:14:36.000Z</time>
      </trkpt>
      <trkpt lat="44.49577" lon="6.28301">
        <ele>1040</ele>
        <time>2023-04-21T09:14:37.000Z</time>
      </trkpt>
      <trkpt lat="44.49577" lon="6.28295">
        <ele>1040</ele>
        <time>2023-04-21T09:14:38.000Z</time>
      </trkpt>
      <trkpt lat="44.49579" lon="6.28289">
        <ele>1039</ele>
        <time>2023-04-21T09:14:39.000Z</time>
      </trkpt>
      <trkpt lat="44.49581" lon="6.28283">
        <ele>1039</ele>
        <time>2023-04-21T09:14:40.000Z</time>
      </trkpt>
      <trkpt lat="44.49582" lon="6.28277">
        <ele>1039</ele>
        <time>2023-04-21T09:14:41.000Z</time>
      </trkpt>
      <trkpt lat="44.49584" lon="6.28272">
        <ele>1039</ele>
        <time>2023-04-21T09:14:42.000Z</time>
      </trkpt>
      <trkpt lat="44.49586" lon="6.28267">
        <ele>1038</ele>
        <time>2023-04-21T09:14:43.000Z</time>
      </trkpt>
      <trkpt lat="44.49588" lon="6.28262">
        <ele>1038</ele>
        <time>2023-04-21T09:14:44.000Z</time>
      </trkpt>
      <trkpt lat="44.4959" lon="6.28258">
        <ele>1039</ele>
        <time>2023-04-21T09:14:45.000Z</time>
      </trkpt>
      <trkpt lat="44.49592" lon="6.28254">
        <ele>1039</ele>
        <time>2023-04-21T09:14:46.000Z</time>
      </trkpt>
      <trkpt lat="44.49593" lon="6.28251">
        <ele>1039</ele>
        <time>2023-04-21T09:14:47.000Z</time>
      </trkpt>
      <trkpt lat="44.49594" lon="6.28247">
        <ele>1039</ele>
        <time>2023-04-21T09:14:48.000Z</time>
      </trkpt>
      <trkpt lat="44.49596" lon="6.28243">
        <ele>1039</ele>
        <time>2023-04-21T09:14:49.000Z</time>
      </trkpt>
      <trkpt lat="44.49597" lon="6.2824">
        <ele>1039</ele>
        <time>2023-04-21T09:14:50.000Z</time>
      </trkpt>
      <trkpt lat="44.49599" lon="6.28236">
        <ele>1039</ele>
        <time>2023-04-21T09:14:51.000Z</time>
      </trkpt>
      <trkpt lat="44.49601" lon="6.28233">
        <ele>1039</ele>
        <time>2023-04-21T09:14:52.000Z</time>
      </trkpt>
      <trkpt lat="44.49603" lon="6.2823">
        <ele>1039</ele>
        <time>2023-04-21T09:14:53.000Z</time>
      </trkpt>
      <trkpt lat="44.49605" lon="6.28226">
        <ele>1039</ele>
        <time>2023-04-21T09:14:54.000Z</time>
      </trkpt>
      <trkpt lat="44.49607" lon="6.28223">
        <ele>1039</ele>
        <time>2023-04-21T09:14:55.000Z</time>
      </trkpt>
      <trkpt lat="44.49609" lon="6.2822">
        <ele>1040</ele>
        <time>2023-04-21T09:14:56.000Z</time>
      </trkpt>
      <trkpt lat="44.4961" lon="6.28216">
        <ele>1040</ele>
        <time>2023-04-21T09:14:57.000Z</time>
      </trkpt>
      <trkpt lat="44.49611" lon="6.28211">
        <ele>1039</ele>
        <time>2023-04-21T09:14:58.000Z</time>
      </trkpt>
      <trkpt lat="44.49612" lon="6.28206">
        <ele>1039</ele>
        <time>2023-04-21T09:14:59.000Z</time>
      </trkpt>
      <trkpt lat="44.49612" lon="6.28202">
        <ele>1039</ele>
        <time>2023-04-21T09:15:00.000Z</time>
      </trkpt>
      <trkpt lat="44.49612" lon="6.28197">
        <ele>1039</ele>
        <time>2023-04-21T09:15:01.000Z</time>
      </trkpt>
      <trkpt lat="44.49613" lon="6.28193">
        <ele>1039</ele>
        <time>2023-04-21T09:15:02.000Z</time>
      </trkpt>
      <trkpt lat="44.49613" lon="6.28188">
        <ele>1039</ele>
        <time>2023-04-21T09:15:03.000Z</time>
      </trkpt>
      <trkpt lat="44.49614" lon="6.28184">
        <ele>1039</ele>
        <time>2023-04-21T09:15:04.000Z</time>
      </trkpt>
      <trkpt lat="44.49614" lon="6.28179">
        <ele>1039</ele>
        <time>2023-04-21T09:15:05.000Z</time>
      </trkpt>
      <trkpt lat="44.49614" lon="6.28174">
        <ele>1039</ele>
        <time>2023-04-21T09:15:06.000Z</time>
      </trkpt>
      <trkpt lat="44.49614" lon="6.28169">
        <ele>1039</ele>
        <time>2023-04-21T09:15:07.000Z</time>
      </trkpt>
      <trkpt lat="44.49613" lon="6.28164">
        <ele>1039</ele>
        <time>2023-04-21T09:15:08.000Z</time>
      </trkpt>
      <trkpt lat="44.49611" lon="6.2816">
        <ele>1038</ele>
        <time>2023-04-21T09:15:09.000Z</time>
      </trkpt>
      <trkpt lat="44.49609" lon="6.28159">
        <ele>1039</ele>
        <time>2023-04-21T09:15:10.000Z</time>
      </trkpt>
      <trkpt lat="44.49605" lon="6.28161">
        <ele>1042</ele>
        <time>2023-04-21T09:15:11.000Z</time>
      </trkpt>
      <trkpt lat="44.49603" lon="6.28161">
        <ele>1042</ele>
        <time>2023-04-21T09:15:12.000Z</time>
      </trkpt>
      <trkpt lat="44.49601" lon="6.2816">
        <ele>1043</ele>
        <time>2023-04-21T09:15:13.000Z</time>
      </trkpt>
      <trkpt lat="44.49599" lon="6.28158">
        <ele>1043</ele>
        <time>2023-04-21T09:15:14.000Z</time>
      </trkpt>
      <trkpt lat="44.49597" lon="6.28156">
        <ele>1043</ele>
        <time>2023-04-21T09:15:15.000Z</time>
      </trkpt>
      <trkpt lat="44.49595" lon="6.28154">
        <ele>1043</ele>
        <time>2023-04-21T09:15:16.000Z</time>
      </trkpt>
      <trkpt lat="44.49594" lon="6.28151">
        <ele>1043</ele>
        <time>2023-04-21T09:15:17.000Z</time>
      </trkpt>
      <trkpt lat="44.49593" lon="6.28148">
        <ele>1043</ele>
        <time>2023-04-21T09:15:18.000Z</time>
      </trkpt>
      <trkpt lat="44.49593" lon="6.28145">
        <ele>1043</ele>
        <time>2023-04-21T09:15:19.000Z</time>
      </trkpt>
      <trkpt lat="44.49593" lon="6.28142">
        <ele>1044</ele>
        <time>2023-04-21T09:15:20.000Z</time>
      </trkpt>
      <trkpt lat="44.49595" lon="6.28138">
        <ele>1044</ele>
        <time>2023-04-21T09:15:21.000Z</time>
      </trkpt>
      <trkpt lat="44.49594" lon="6.28134">
        <ele>1045</ele>
        <time>2023-04-21T09:15:22.000Z</time>
      </trkpt>
      <trkpt lat="44.49594" lon="6.28131">
        <ele>1045</ele>
        <time>2023-04-21T09:15:23.000Z</time>
      </trkpt>
      <trkpt lat="44.49594" lon="6.28129">
        <ele>1045</ele>
        <time>2023-04-21T09:15:24.000Z</time>
      </trkpt>
      <trkpt lat="44.49593" lon="6.28126">
        <ele>1046</ele>
        <time>2023-04-21T09:15:25.000Z</time>
      </trkpt>
      <trkpt lat="44.49594" lon="6.28123">
        <ele>1046</ele>
        <time>2023-04-21T09:15:26.000Z</time>
      </trkpt>
      <trkpt lat="44.49594" lon="6.2812">
        <ele>1047</ele>
        <time>2023-04-21T09:15:27.000Z</time>
      </trkpt>
      <trkpt lat="44.49594" lon="6.28117">
        <ele>1047</ele>
        <time>2023-04-21T09:15:28.000Z</time>
      </trkpt>
      <trkpt lat="44.49594" lon="6.28114">
        <ele>1048</ele>
        <time>2023-04-21T09:15:29.000Z</time>
      </trkpt>
      <trkpt lat="44.49594" lon="6.2811">
        <ele>1048</ele>
        <time>2023-04-21T09:15:30.000Z</time>
      </trkpt>
      <trkpt lat="44.49594" lon="6.28106">
        <ele>1049</ele>
        <time>2023-04-21T09:15:31.000Z</time>
      </trkpt>
      <trkpt lat="44.49595" lon="6.28103">
        <ele>1048</ele>
        <time>2023-04-21T09:15:32.000Z</time>
      </trkpt>
      <trkpt lat="44.49595" lon="6.28099">
        <ele>1048</ele>
        <time>2023-04-21T09:15:33.000Z</time>
      </trkpt>
      <trkpt lat="44.49595" lon="6.28096">
        <ele>1049</ele>
        <time>2023-04-21T09:15:34.000Z</time>
      </trkpt>
      <trkpt lat="44.49596" lon="6.28093">
        <ele>1049</ele>
        <time>2023-04-21T09:15:35.000Z</time>
      </trkpt>
      <trkpt lat="44.49596" lon="6.28089">
        <ele>1049</ele>
        <time>2023-04-21T09:15:36.000Z</time>
      </trkpt>
      <trkpt lat="44.49597" lon="6.28086">
        <ele>1049</ele>
        <time>2023-04-21T09:15:37.000Z</time>
      </trkpt>
      <trkpt lat="44.49597" lon="6.28083">
        <ele>1049</ele>
        <time>2023-04-21T09:15:38.000Z</time>
      </trkpt>
      <trkpt lat="44.49598" lon="6.2808">
        <ele>1049</ele>
        <time>2023-04-21T09:15:39.000Z</time>
      </trkpt>
      <trkpt lat="44.49598" lon="6.28077">
        <ele>1049</ele>
        <time>2023-04-21T09:15:40.000Z</time>
      </trkpt>
      <trkpt lat="44.49599" lon="6.28074">
        <ele>1050</ele>
        <time>2023-04-21T09:15:41.000Z</time>
      </trkpt>
      <trkpt lat="44.49599" lon="6.28071">
        <ele>1049</ele>
        <time>2023-04-21T09:15:42.000Z</time>
      </trkpt>
      <trkpt lat="44.496" lon="6.28068">
        <ele>1050</ele>
        <time>2023-04-21T09:15:43.000Z</time>
      </trkpt>
      <trkpt lat="44.49601" lon="6.28065">
        <ele>1050</ele>
        <time>2023-04-21T09:15:44.000Z</time>
      </trkpt>
      <trkpt lat="44.49602" lon="6.28062">
        <ele>1050</ele>
        <time>2023-04-21T09:15:45.000Z</time>
      </trkpt>
      <trkpt lat="44.49603" lon="6.2806">
        <ele>1050</ele>
        <time>2023-04-21T09:15:46.000Z</time>
      </trkpt>
      <trkpt lat="44.49604" lon="6.28057">
        <ele>1050</ele>
        <time>2023-04-21T09:15:47.000Z</time>
      </trkpt>
      <trkpt lat="44.49605" lon="6.28055">
        <ele>1050</ele>
        <time>2023-04-21T09:15:48.000Z</time>
      </trkpt>
      <trkpt lat="44.49606" lon="6.28053">
        <ele>1051</ele>
        <time>2023-04-21T09:15:49.000Z</time>
      </trkpt>
      <trkpt lat="44.49608" lon="6.28051">
        <ele>1051</ele>
        <time>2023-04-21T09:15:50.000Z</time>
      </trkpt>
      <trkpt lat="44.49609" lon="6.28049">
        <ele>1051</ele>
        <time>2023-04-21T09:15:51.000Z</time>
      </trkpt>
      <trkpt lat="44.4961" lon="6.28047">
        <ele>1051</ele>
        <time>2023-04-21T09:15:52.000Z</time>
      </trkpt>
      <trkpt lat="44.49612" lon="6.28045">
        <ele>1052</ele>
        <time>2023-04-21T09:15:53.000Z</time>
      </trkpt>
      <trkpt lat="44.49613" lon="6.28043">
        <ele>1052</ele>
        <time>2023-04-21T09:15:54.000Z</time>
      </trkpt>
      <trkpt lat="44.49614" lon="6.2804">
        <ele>1053</ele>
        <time>2023-04-21T09:15:55.000Z</time>
      </trkpt>
      <trkpt lat="44.49615" lon="6.28037">
        <ele>1052</ele>
        <time>2023-04-21T09:15:56.000Z</time>
      </trkpt>
      <trkpt lat="44.49617" lon="6.28035">
        <ele>1053</ele>
        <time>2023-04-21T09:15:57.000Z</time>
      </trkpt>
      <trkpt lat="44.49618" lon="6.28033">
        <ele>1053</ele>
        <time>2023-04-21T09:15:58.000Z</time>
      </trkpt>
      <trkpt lat="44.4962" lon="6.28031">
        <ele>1054</ele>
        <time>2023-04-21T09:15:59.000Z</time>
      </trkpt>
      <trkpt lat="44.49621" lon="6.28029">
        <ele>1055</ele>
        <time>2023-04-21T09:16:00.000Z</time>
      </trkpt>
      <trkpt lat="44.49622" lon="6.28026">
        <ele>1055</ele>
        <time>2023-04-21T09:16:01.000Z</time>
      </trkpt>
      <trkpt lat="44.49622" lon="6.28024">
        <ele>1056</ele>
        <time>2023-04-21T09:16:02.000Z</time>
      </trkpt>
      <trkpt lat="44.49623" lon="6.28022">
        <ele>1057</ele>
        <time>2023-04-21T09:16:03.000Z</time>
      </trkpt>
      <trkpt lat="44.49624" lon="6.28019">
        <ele>1058</ele>
        <time>2023-04-21T09:16:04.000Z</time>
      </trkpt>
      <trkpt lat="44.49623" lon="6.28017">
        <ele>1059</ele>
        <time>2023-04-21T09:16:05.000Z</time>
      </trkpt>
      <trkpt lat="44.49623" lon="6.28015">
        <ele>1060</ele>
        <time>2023-04-21T09:16:06.000Z</time>
      </trkpt>
      <trkpt lat="44.49622" lon="6.28014">
        <ele>1061</ele>
        <time>2023-04-21T09:16:07.000Z</time>
      </trkpt>
      <trkpt lat="44.4962" lon="6.28013">
        <ele>1061</ele>
        <time>2023-04-21T09:16:08.000Z</time>
      </trkpt>
      <trkpt lat="44.49618" lon="6.28011">
        <ele>1061</ele>
        <time>2023-04-21T09:16:09.000Z</time>
      </trkpt>
      <trkpt lat="44.49616" lon="6.2801">
        <ele>1062</ele>
        <time>2023-04-21T09:16:10.000Z</time>
      </trkpt>
      <trkpt lat="44.49614" lon="6.28009">
        <ele>1062</ele>
        <time>2023-04-21T09:16:11.000Z</time>
      </trkpt>
      <trkpt lat="44.49613" lon="6.28008">
        <ele>1063</ele>
        <time>2023-04-21T09:16:12.000Z</time>
      </trkpt>
      <trkpt lat="44.49611" lon="6.28008">
        <ele>1064</ele>
        <time>2023-04-21T09:16:13.000Z</time>
      </trkpt>
      <trkpt lat="44.49609" lon="6.28007">
        <ele>1064</ele>
        <time>2023-04-21T09:16:14.000Z</time>
      </trkpt>
      <trkpt lat="44.49607" lon="6.28006">
        <ele>1065</ele>
        <time>2023-04-21T09:16:15.000Z</time>
      </trkpt>
      <trkpt lat="44.49606" lon="6.28005">
        <ele>1065</ele>
        <time>2023-04-21T09:16:16.000Z</time>
      </trkpt>
      <trkpt lat="44.49604" lon="6.28004">
        <ele>1066</ele>
        <time>2023-04-21T09:16:17.000Z</time>
      </trkpt>
      <trkpt lat="44.49602" lon="6.28003">
        <ele>1066</ele>
        <time>2023-04-21T09:16:18.000Z</time>
      </trkpt>
      <trkpt lat="44.496" lon="6.28001">
        <ele>1067</ele>
        <time>2023-04-21T09:16:19.000Z</time>
      </trkpt>
      <trkpt lat="44.49599" lon="6.28">
        <ele>1068</ele>
        <time>2023-04-21T09:16:20.000Z</time>
      </trkpt>
      <trkpt lat="44.49598" lon="6.27999">
        <ele>1068</ele>
        <time>2023-04-21T09:16:21.000Z</time>
      </trkpt>
      <trkpt lat="44.49596" lon="6.27998">
        <ele>1070</ele>
        <time>2023-04-21T09:16:22.000Z</time>
      </trkpt>
      <trkpt lat="44.49595" lon="6.27997">
        <ele>1070</ele>
        <time>2023-04-21T09:16:23.000Z</time>
      </trkpt>
      <trkpt lat="44.49593" lon="6.27995">
        <ele>1070</ele>
        <time>2023-04-21T09:16:24.000Z</time>
      </trkpt>
      <trkpt lat="44.49591" lon="6.27993">
        <ele>1071</ele>
        <time>2023-04-21T09:16:25.000Z</time>
      </trkpt>
      <trkpt lat="44.4959" lon="6.27992">
        <ele>1071</ele>
        <time>2023-04-21T09:16:26.000Z</time>
      </trkpt>
      <trkpt lat="44.49588" lon="6.27989">
        <ele>1071</ele>
        <time>2023-04-21T09:16:27.000Z</time>
      </trkpt>
      <trkpt lat="44.49586" lon="6.27988">
        <ele>1073</ele>
        <time>2023-04-21T09:16:28.000Z</time>
      </trkpt>
      <trkpt lat="44.49584" lon="6.27987">
        <ele>1073</ele>
        <time>2023-04-21T09:16:29.000Z</time>
      </trkpt>
      <trkpt lat="44.49583" lon="6.27985">
        <ele>1074</ele>
        <time>2023-04-21T09:16:30.000Z</time>
      </trkpt>
      <trkpt lat="44.49581" lon="6.27983">
        <ele>1074</ele>
        <time>2023-04-21T09:16:31.000Z</time>
      </trkpt>
      <trkpt lat="44.49579" lon="6.27982">
        <ele>1074</ele>
        <time>2023-04-21T09:16:32.000Z</time>
      </trkpt>
      <trkpt lat="44.49577" lon="6.2798">
        <ele>1074</ele>
        <time>2023-04-21T09:16:33.000Z</time>
      </trkpt>
      <trkpt lat="44.49575" lon="6.27978">
        <ele>1074</ele>
        <time>2023-04-21T09:16:34.000Z</time>
      </trkpt>
      <trkpt lat="44.49573" lon="6.27977">
        <ele>1074</ele>
        <time>2023-04-21T09:16:35.000Z</time>
      </trkpt>
      <trkpt lat="44.49571" lon="6.27975">
        <ele>1074</ele>
        <time>2023-04-21T09:16:36.000Z</time>
      </trkpt>
      <trkpt lat="44.4957" lon="6.27974">
        <ele>1073</ele>
        <time>2023-04-21T09:16:37.000Z</time>
      </trkpt>
      <trkpt lat="44.49568" lon="6.27972">
        <ele>1073</ele>
        <time>2023-04-21T09:16:38.000Z</time>
      </trkpt>
      <trkpt lat="44.49566" lon="6.27971">
        <ele>1073</ele>
        <time>2023-04-21T09:16:39.000Z</time>
      </trkpt>
      <trkpt lat="44.49564" lon="6.2797">
        <ele>1072</ele>
        <time>2023-04-21T09:16:40.000Z</time>
      </trkpt>
      <trkpt lat="44.49562" lon="6.27969">
        <ele>1072</ele>
        <time>2023-04-21T09:16:41.000Z</time>
      </trkpt>
      <trkpt lat="44.4956" lon="6.27968">
        <ele>1072</ele>
        <time>2023-04-21T09:16:42.000Z</time>
      </trkpt>
      <trkpt lat="44.49558" lon="6.27966">
        <ele>1072</ele>
        <time>2023-04-21T09:16:43.000Z</time>
      </trkpt>
      <trkpt lat="44.49556" lon="6.27965">
        <ele>1071</ele>
        <time>2023-04-21T09:16:44.000Z</time>
      </trkpt>
      <trkpt lat="44.49554" lon="6.27964">
        <ele>1071</ele>
        <time>2023-04-21T09:16:45.000Z</time>
      </trkpt>
      <trkpt lat="44.49552" lon="6.27963">
        <ele>1071</ele>
        <time>2023-04-21T09:16:46.000Z</time>
      </trkpt>
      <trkpt lat="44.4955" lon="6.27962">
        <ele>1071</ele>
        <time>2023-04-21T09:16:47.000Z</time>
      </trkpt>
      <trkpt lat="44.49548" lon="6.27961">
        <ele>1071</ele>
        <time>2023-04-21T09:16:48.000Z</time>
      </trkpt>
      <trkpt lat="44.49546" lon="6.2796">
        <ele>1071</ele>
        <time>2023-04-21T09:16:49.000Z</time>
      </trkpt>
      <trkpt lat="44.49543" lon="6.27958">
        <ele>1071</ele>
        <time>2023-04-21T09:16:50.000Z</time>
      </trkpt>
      <trkpt lat="44.49541" lon="6.27957">
        <ele>1071</ele>
        <time>2023-04-21T09:16:51.000Z</time>
      </trkpt>
      <trkpt lat="44.49539" lon="6.27956">
        <ele>1071</ele>
        <time>2023-04-21T09:16:52.000Z</time>
      </trkpt>
      <trkpt lat="44.49537" lon="6.27954">
        <ele>1071</ele>
        <time>2023-04-21T09:16:53.000Z</time>
      </trkpt>
      <trkpt lat="44.49535" lon="6.27953">
        <ele>1071</ele>
        <time>2023-04-21T09:16:54.000Z</time>
      </trkpt>
      <trkpt lat="44.49533" lon="6.27951">
        <ele>1071</ele>
        <time>2023-04-21T09:16:55.000Z</time>
      </trkpt>
      <trkpt lat="44.49531" lon="6.27949">
        <ele>1071</ele>
        <time>2023-04-21T09:16:56.000Z</time>
      </trkpt>
      <trkpt lat="44.49529" lon="6.27948">
        <ele>1071</ele>
        <time>2023-04-21T09:16:57.000Z</time>
      </trkpt>
      <trkpt lat="44.49527" lon="6.27946">
        <ele>1071</ele>
        <time>2023-04-21T09:16:58.000Z</time>
      </trkpt>
      <trkpt lat="44.49525" lon="6.27944">
        <ele>1071</ele>
        <time>2023-04-21T09:16:59.000Z</time>
      </trkpt>
      <trkpt lat="44.49523" lon="6.27942">
        <ele>1071</ele>
        <time>2023-04-21T09:17:00.000Z</time>
      </trkpt>
      <trkpt lat="44.49522" lon="6.2794">
        <ele>1071</ele>
        <time>2023-04-21T09:17:01.000Z</time>
      </trkpt>
      <trkpt lat="44.4952" lon="6.27939">
        <ele>1071</ele>
        <time>2023-04-21T09:17:02.000Z</time>
      </trkpt>
      <trkpt lat="44.49518" lon="6.27937">
        <ele>1071</ele>
        <time>2023-04-21T09:17:03.000Z</time>
      </trkpt>
      <trkpt lat="44.49516" lon="6.27934">
        <ele>1071</ele>
        <time>2023-04-21T09:17:04.000Z</time>
      </trkpt>
      <trkpt lat="44.49515" lon="6.27932">
        <ele>1071</ele>
        <time>2023-04-21T09:17:05.000Z</time>
      </trkpt>
      <trkpt lat="44.49513" lon="6.2793">
        <ele>1071</ele>
        <time>2023-04-21T09:17:06.000Z</time>
      </trkpt>
      <trkpt lat="44.49511" lon="6.27927">
        <ele>1071</ele>
        <time>2023-04-21T09:17:07.000Z</time>
      </trkpt>
      <trkpt lat="44.49511" lon="6.27925">
        <ele>1071</ele>
        <time>2023-04-21T09:17:08.000Z</time>
      </trkpt>
      <trkpt lat="44.49509" lon="6.27923">
        <ele>1071</ele>
        <time>2023-04-21T09:17:09.000Z</time>
      </trkpt>
      <trkpt lat="44.49508" lon="6.27921">
        <ele>1071</ele>
        <time>2023-04-21T09:17:10.000Z</time>
      </trkpt>
      <trkpt lat="44.49508" lon="6.27918">
        <ele>1071</ele>
        <time>2023-04-21T09:17:11.000Z</time>
      </trkpt>
      <trkpt lat="44.49509" lon="6.27914">
        <ele>1072</ele>
        <time>2023-04-21T09:17:12.000Z</time>
      </trkpt>
      <trkpt lat="44.49509" lon="6.27912">
        <ele>1071</ele>
        <time>2023-04-21T09:17:13.000Z</time>
      </trkpt>
      <trkpt lat="44.4951" lon="6.2791">
        <ele>1072</ele>
        <time>2023-04-21T09:17:14.000Z</time>
      </trkpt>
      <trkpt lat="44.4951" lon="6.27907">
        <ele>1072</ele>
        <time>2023-04-21T09:17:15.000Z</time>
      </trkpt>
      <trkpt lat="44.49511" lon="6.27905">
        <ele>1072</ele>
        <time>2023-04-21T09:17:16.000Z</time>
      </trkpt>
      <trkpt lat="44.49513" lon="6.27903">
        <ele>1073</ele>
        <time>2023-04-21T09:17:17.000Z</time>
      </trkpt>
      <trkpt lat="44.49513" lon="6.279">
        <ele>1073</ele>
        <time>2023-04-21T09:17:18.000Z</time>
      </trkpt>
      <trkpt lat="44.49514" lon="6.27898">
        <ele>1074</ele>
        <time>2023-04-21T09:17:19.000Z</time>
      </trkpt>
      <trkpt lat="44.49516" lon="6.27896">
        <ele>1075</ele>
        <time>2023-04-21T09:17:20.000Z</time>
      </trkpt>
      <trkpt lat="44.49517" lon="6.27894">
        <ele>1075</ele>
        <time>2023-04-21T09:17:21.000Z</time>
      </trkpt>
      <trkpt lat="44.49518" lon="6.27892">
        <ele>1076</ele>
        <time>2023-04-21T09:17:22.000Z</time>
      </trkpt>
      <trkpt lat="44.4952" lon="6.27889">
        <ele>1076</ele>
        <time>2023-04-21T09:17:23.000Z</time>
      </trkpt>
      <trkpt lat="44.49521" lon="6.27887">
        <ele>1077</ele>
        <time>2023-04-21T09:17:24.000Z</time>
      </trkpt>
      <trkpt lat="44.49522" lon="6.27885">
        <ele>1077</ele>
        <time>2023-04-21T09:17:25.000Z</time>
      </trkpt>
      <trkpt lat="44.49523" lon="6.27883">
        <ele>1078</ele>
        <time>2023-04-21T09:17:26.000Z</time>
      </trkpt>
      <trkpt lat="44.49524" lon="6.27881">
        <ele>1078</ele>
        <time>2023-04-21T09:17:27.000Z</time>
      </trkpt>
      <trkpt lat="44.49525" lon="6.27879">
        <ele>1079</ele>
        <time>2023-04-21T09:17:28.000Z</time>
      </trkpt>
      <trkpt lat="44.49525" lon="6.27877">
        <ele>1080</ele>
        <time>2023-04-21T09:17:29.000Z</time>
      </trkpt>
      <trkpt lat="44.49526" lon="6.27874">
        <ele>1080</ele>
        <time>2023-04-21T09:17:30.000Z</time>
      </trkpt>
      <trkpt lat="44.49527" lon="6.27872">
        <ele>1082</ele>
        <time>2023-04-21T09:17:31.000Z</time>
      </trkpt>
      <trkpt lat="44.49526" lon="6.27869">
        <ele>1081</ele>
        <time>2023-04-21T09:17:32.000Z</time>
      </trkpt>
      <trkpt lat="44.49526" lon="6.27866">
        <ele>1082</ele>
        <time>2023-04-21T09:17:33.000Z</time>
      </trkpt>
      <trkpt lat="44.49526" lon="6.27864">
        <ele>1083</ele>
        <time>2023-04-21T09:17:34.000Z</time>
      </trkpt>
      <trkpt lat="44.49525" lon="6.27862">
        <ele>1084</ele>
        <time>2023-04-21T09:17:35.000Z</time>
      </trkpt>
      <trkpt lat="44.49525" lon="6.27859">
        <ele>1085</ele>
        <time>2023-04-21T09:17:36.000Z</time>
      </trkpt>
      <trkpt lat="44.49523" lon="6.27857">
        <ele>1085</ele>
        <time>2023-04-21T09:17:37.000Z</time>
      </trkpt>
      <trkpt lat="44.49522" lon="6.27854">
        <ele>1085</ele>
        <time>2023-04-21T09:17:38.000Z</time>
      </trkpt>
      <trkpt lat="44.49522" lon="6.27851">
        <ele>1085</ele>
        <time>2023-04-21T09:17:39.000Z</time>
      </trkpt>
      <trkpt lat="44.49521" lon="6.27849">
        <ele>1086</ele>
        <time>2023-04-21T09:17:40.000Z</time>
      </trkpt>
      <trkpt lat="44.49519" lon="6.27847">
        <ele>1087</ele>
        <time>2023-04-21T09:17:41.000Z</time>
      </trkpt>
      <trkpt lat="44.49518" lon="6.27844">
        <ele>1087</ele>
        <time>2023-04-21T09:17:42.000Z</time>
      </trkpt>
      <trkpt lat="44.49517" lon="6.27842">
        <ele>1088</ele>
        <time>2023-04-21T09:17:43.000Z</time>
      </trkpt>
      <trkpt lat="44.49516" lon="6.2784">
        <ele>1089</ele>
        <time>2023-04-21T09:17:44.000Z</time>
      </trkpt>
      <trkpt lat="44.49516" lon="6.27838">
        <ele>1089</ele>
        <time>2023-04-21T09:17:45.000Z</time>
      </trkpt>
      <trkpt lat="44.49514" lon="6.27836">
        <ele>1089</ele>
        <time>2023-04-21T09:17:46.000Z</time>
      </trkpt>
      <trkpt lat="44.49514" lon="6.27833">
        <ele>1089</ele>
        <time>2023-04-21T09:17:47.000Z</time>
      </trkpt>
      <trkpt lat="44.49515" lon="6.2783">
        <ele>1090</ele>
        <time>2023-04-21T09:17:48.000Z</time>
      </trkpt>
      <trkpt lat="44.49513" lon="6.27828">
        <ele>1090</ele>
        <time>2023-04-21T09:17:49.000Z</time>
      </trkpt>
      <trkpt lat="44.49512" lon="6.27826">
        <ele>1091</ele>
        <time>2023-04-21T09:17:50.000Z</time>
      </trkpt>
      <trkpt lat="44.49511" lon="6.27824">
        <ele>1092</ele>
        <time>2023-04-21T09:17:51.000Z</time>
      </trkpt>
      <trkpt lat="44.4951" lon="6.27822">
        <ele>1091</ele>
        <time>2023-04-21T09:17:52.000Z</time>
      </trkpt>
      <trkpt lat="44.49508" lon="6.2782">
        <ele>1091</ele>
        <time>2023-04-21T09:17:53.000Z</time>
      </trkpt>
      <trkpt lat="44.49507" lon="6.27818">
        <ele>1091</ele>
        <time>2023-04-21T09:17:54.000Z</time>
      </trkpt>
      <trkpt lat="44.49506" lon="6.27816">
        <ele>1091</ele>
        <time>2023-04-21T09:17:55.000Z</time>
      </trkpt>
      <trkpt lat="44.49503" lon="6.27813">
        <ele>1088</ele>
        <time>2023-04-21T09:17:56.000Z</time>
      </trkpt>
      <trkpt lat="44.49501" lon="6.2781">
        <ele>1087</ele>
        <time>2023-04-21T09:17:57.000Z</time>
      </trkpt>
      <trkpt lat="44.49499" lon="6.27808">
        <ele>1087</ele>
        <time>2023-04-21T09:17:58.000Z</time>
      </trkpt>
      <trkpt lat="44.49497" lon="6.27805">
        <ele>1086</ele>
        <time>2023-04-21T09:17:59.000Z</time>
      </trkpt>
      <trkpt lat="44.49496" lon="6.27802">
        <ele>1085</ele>
        <time>2023-04-21T09:18:00.000Z</time>
      </trkpt>
      <trkpt lat="44.49495" lon="6.27799">
        <ele>1084</ele>
        <time>2023-04-21T09:18:01.000Z</time>
      </trkpt>
      <trkpt lat="44.49494" lon="6.27797">
        <ele>1084</ele>
        <time>2023-04-21T09:18:02.000Z</time>
      </trkpt>
      <trkpt lat="44.49492" lon="6.27795">
        <ele>1083</ele>
        <time>2023-04-21T09:18:03.000Z</time>
      </trkpt>
      <trkpt lat="44.49491" lon="6.27792">
        <ele>1084</ele>
        <time>2023-04-21T09:18:04.000Z</time>
      </trkpt>
      <trkpt lat="44.49491" lon="6.2779">
        <ele>1083</ele>
        <time>2023-04-21T09:18:05.000Z</time>
      </trkpt>
      <trkpt lat="44.4949" lon="6.27787">
        <ele>1083</ele>
        <time>2023-04-21T09:18:06.000Z</time>
      </trkpt>
      <trkpt lat="44.4949" lon="6.27785">
        <ele>1083</ele>
        <time>2023-04-21T09:18:07.000Z</time>
      </trkpt>
      <trkpt lat="44.49488" lon="6.27783">
        <ele>1084</ele>
        <time>2023-04-21T09:18:08.000Z</time>
      </trkpt>
      <trkpt lat="44.49487" lon="6.27781">
        <ele>1084</ele>
        <time>2023-04-21T09:18:09.000Z</time>
      </trkpt>
      <trkpt lat="44.49486" lon="6.27779">
        <ele>1084</ele>
        <time>2023-04-21T09:18:10.000Z</time>
      </trkpt>
      <trkpt lat="44.49484" lon="6.27777">
        <ele>1084</ele>
        <time>2023-04-21T09:18:11.000Z</time>
      </trkpt>
      <trkpt lat="44.49483" lon="6.27775">
        <ele>1085</ele>
        <time>2023-04-21T09:18:12.000Z</time>
      </trkpt>
      <trkpt lat="44.49483" lon="6.27772">
        <ele>1085</ele>
        <time>2023-04-21T09:18:13.000Z</time>
      </trkpt>
      <trkpt lat="44.49482" lon="6.2777">
        <ele>1086</ele>
        <time>2023-04-21T09:18:14.000Z</time>
      </trkpt>
      <trkpt lat="44.49481" lon="6.27768">
        <ele>1086</ele>
        <time>2023-04-21T09:18:15.000Z</time>
      </trkpt>
      <trkpt lat="44.4948" lon="6.27766">
        <ele>1085</ele>
        <time>2023-04-21T09:18:16.000Z</time>
      </trkpt>
      <trkpt lat="44.49479" lon="6.27764">
        <ele>1086</ele>
        <time>2023-04-21T09:18:17.000Z</time>
      </trkpt>
      <trkpt lat="44.49478" lon="6.27762">
        <ele>1086</ele>
        <time>2023-04-21T09:18:18.000Z</time>
      </trkpt>
      <trkpt lat="44.49477" lon="6.2776">
        <ele>1087</ele>
        <time>2023-04-21T09:18:19.000Z</time>
      </trkpt>
      <trkpt lat="44.49477" lon="6.27757">
        <ele>1087</ele>
        <time>2023-04-21T09:18:20.000Z</time>
      </trkpt>
      <trkpt lat="44.49476" lon="6.27755">
        <ele>1087</ele>
        <time>2023-04-21T09:18:21.000Z</time>
      </trkpt>
      <trkpt lat="44.49475" lon="6.27753">
        <ele>1087</ele>
        <time>2023-04-21T09:18:22.000Z</time>
      </trkpt>
      <trkpt lat="44.49475" lon="6.27751">
        <ele>1088</ele>
        <time>2023-04-21T09:18:23.000Z</time>
      </trkpt>
      <trkpt lat="44.49474" lon="6.27748">
        <ele>1088</ele>
        <time>2023-04-21T09:18:24.000Z</time>
      </trkpt>
      <trkpt lat="44.49474" lon="6.27745">
        <ele>1088</ele>
        <time>2023-04-21T09:18:25.000Z</time>
      </trkpt>
      <trkpt lat="44.49475" lon="6.27742">
        <ele>1089</ele>
        <time>2023-04-21T09:18:26.000Z</time>
      </trkpt>
      <trkpt lat="44.49474" lon="6.2774">
        <ele>1089</ele>
        <time>2023-04-21T09:18:27.000Z</time>
      </trkpt>
      <trkpt lat="44.49473" lon="6.27738">
        <ele>1089</ele>
        <time>2023-04-21T09:18:28.000Z</time>
      </trkpt>
      <trkpt lat="44.49473" lon="6.27735">
        <ele>1090</ele>
        <time>2023-04-21T09:18:29.000Z</time>
      </trkpt>
      <trkpt lat="44.49472" lon="6.27733">
        <ele>1090</ele>
        <time>2023-04-21T09:18:30.000Z</time>
      </trkpt>
      <trkpt lat="44.49471" lon="6.27731">
        <ele>1090</ele>
        <time>2023-04-21T09:18:31.000Z</time>
      </trkpt>
      <trkpt lat="44.49471" lon="6.27728">
        <ele>1091</ele>
        <time>2023-04-21T09:18:32.000Z</time>
      </trkpt>
      <trkpt lat="44.49471" lon="6.27725">
        <ele>1091</ele>
        <time>2023-04-21T09:18:33.000Z</time>
      </trkpt>
      <trkpt lat="44.4947" lon="6.27723">
        <ele>1091</ele>
        <time>2023-04-21T09:18:34.000Z</time>
      </trkpt>
      <trkpt lat="44.49469" lon="6.27721">
        <ele>1092</ele>
        <time>2023-04-21T09:18:35.000Z</time>
      </trkpt>
      <trkpt lat="44.49469" lon="6.27719">
        <ele>1093</ele>
        <time>2023-04-21T09:18:36.000Z</time>
      </trkpt>
      <trkpt lat="44.49469" lon="6.27716">
        <ele>1094</ele>
        <time>2023-04-21T09:18:37.000Z</time>
      </trkpt>
      <trkpt lat="44.49469" lon="6.27714">
        <ele>1096</ele>
        <time>2023-04-21T09:18:38.000Z</time>
      </trkpt>
      <trkpt lat="44.49468" lon="6.27712">
        <ele>1096</ele>
        <time>2023-04-21T09:18:39.000Z</time>
      </trkpt>
      <trkpt lat="44.49467" lon="6.2771">
        <ele>1097</ele>
        <time>2023-04-21T09:18:40.000Z</time>
      </trkpt>
      <trkpt lat="44.49467" lon="6.27708">
        <ele>1099</ele>
        <time>2023-04-21T09:18:41.000Z</time>
      </trkpt>
      <trkpt lat="44.49467" lon="6.27705">
        <ele>1099</ele>
        <time>2023-04-21T09:18:42.000Z</time>
      </trkpt>
      <trkpt lat="44.49468" lon="6.27701">
        <ele>1099</ele>
        <time>2023-04-21T09:18:43.000Z</time>
      </trkpt>
      <trkpt lat="44.49469" lon="6.27697">
        <ele>1100</ele>
        <time>2023-04-21T09:18:44.000Z</time>
      </trkpt>
      <trkpt lat="44.49469" lon="6.27694">
        <ele>1100</ele>
        <time>2023-04-21T09:18:45.000Z</time>
      </trkpt>
      <trkpt lat="44.49469" lon="6.27692">
        <ele>1100</ele>
        <time>2023-04-21T09:18:46.000Z</time>
      </trkpt>
      <trkpt lat="44.49469" lon="6.2769">
        <ele>1101</ele>
        <time>2023-04-21T09:18:47.000Z</time>
      </trkpt>
      <trkpt lat="44.49468" lon="6.27688">
        <ele>1102</ele>
        <time>2023-04-21T09:18:48.000Z</time>
      </trkpt>
      <trkpt lat="44.49468" lon="6.27685">
        <ele>1102</ele>
        <time>2023-04-21T09:18:49.000Z</time>
      </trkpt>
      <trkpt lat="44.49468" lon="6.27683">
        <ele>1103</ele>
        <time>2023-04-21T09:18:50.000Z</time>
      </trkpt>
      <trkpt lat="44.49468" lon="6.2768">
        <ele>1103</ele>
        <time>2023-04-21T09:18:51.000Z</time>
      </trkpt>
      <trkpt lat="44.49469" lon="6.27677">
        <ele>1103</ele>
        <time>2023-04-21T09:18:52.000Z</time>
      </trkpt>
      <trkpt lat="44.49469" lon="6.27675">
        <ele>1103</ele>
        <time>2023-04-21T09:18:53.000Z</time>
      </trkpt>
      <trkpt lat="44.49469" lon="6.27673">
        <ele>1104</ele>
        <time>2023-04-21T09:18:54.000Z</time>
      </trkpt>
      <trkpt lat="44.49469" lon="6.2767">
        <ele>1104</ele>
        <time>2023-04-21T09:18:55.000Z</time>
      </trkpt>
      <trkpt lat="44.49469" lon="6.27667">
        <ele>1105</ele>
        <time>2023-04-21T09:18:56.000Z</time>
      </trkpt>
      <trkpt lat="44.49468" lon="6.27665">
        <ele>1105</ele>
        <time>2023-04-21T09:18:57.000Z</time>
      </trkpt>
      <trkpt lat="44.49468" lon="6.27662">
        <ele>1105</ele>
        <time>2023-04-21T09:18:58.000Z</time>
      </trkpt>
      <trkpt lat="44.49467" lon="6.2766">
        <ele>1105</ele>
        <time>2023-04-21T09:18:59.000Z</time>
      </trkpt>
      <trkpt lat="44.49466" lon="6.27658">
        <ele>1105</ele>
        <time>2023-04-21T09:19:00.000Z</time>
      </trkpt>
      <trkpt lat="44.49465" lon="6.27656">
        <ele>1105</ele>
        <time>2023-04-21T09:19:01.000Z</time>
      </trkpt>
      <trkpt lat="44.49464" lon="6.27653">
        <ele>1105</ele>
        <time>2023-04-21T09:19:02.000Z</time>
      </trkpt>
      <trkpt lat="44.49464" lon="6.2765">
        <ele>1105</ele>
        <time>2023-04-21T09:19:03.000Z</time>
      </trkpt>
      <trkpt lat="44.49463" lon="6.27648">
        <ele>1105</ele>
        <time>2023-04-21T09:19:04.000Z</time>
      </trkpt>
      <trkpt lat="44.49462" lon="6.27646">
        <ele>1104</ele>
        <time>2023-04-21T09:19:05.000Z</time>
      </trkpt>
      <trkpt lat="44.49461" lon="6.27643">
        <ele>1104</ele>
        <time>2023-04-21T09:19:06.000Z</time>
      </trkpt>
      <trkpt lat="44.49461" lon="6.2764">
        <ele>1104</ele>
        <time>2023-04-21T09:19:07.000Z</time>
      </trkpt>
      <trkpt lat="44.49461" lon="6.27637">
        <ele>1105</ele>
        <time>2023-04-21T09:19:08.000Z</time>
      </trkpt>
      <trkpt lat="44.4946" lon="6.27633">
        <ele>1105</ele>
        <time>2023-04-21T09:19:09.000Z</time>
      </trkpt>
      <trkpt lat="44.49459" lon="6.27631">
        <ele>1102</ele>
        <time>2023-04-21T09:19:10.000Z</time>
      </trkpt>
      <trkpt lat="44.49459" lon="6.27628">
        <ele>1102</ele>
        <time>2023-04-21T09:19:11.000Z</time>
      </trkpt>
      <trkpt lat="44.49458" lon="6.27625">
        <ele>1102</ele>
        <time>2023-04-21T09:19:12.000Z</time>
      </trkpt>
      <trkpt lat="44.49458" lon="6.27622">
        <ele>1102</ele>
        <time>2023-04-21T09:19:13.000Z</time>
      </trkpt>
      <trkpt lat="44.49458" lon="6.2762">
        <ele>1102</ele>
        <time>2023-04-21T09:19:14.000Z</time>
      </trkpt>
      <trkpt lat="44.49457" lon="6.27617">
        <ele>1101</ele>
        <time>2023-04-21T09:19:15.000Z</time>
      </trkpt>
      <trkpt lat="44.49457" lon="6.27615">
        <ele>1102</ele>
        <time>2023-04-21T09:19:16.000Z</time>
      </trkpt>
      <trkpt lat="44.49456" lon="6.27613">
        <ele>1102</ele>
        <time>2023-04-21T09:19:17.000Z</time>
      </trkpt>
      <trkpt lat="44.49455" lon="6.2761">
        <ele>1102</ele>
        <time>2023-04-21T09:19:18.000Z</time>
      </trkpt>
      <trkpt lat="44.49454" lon="6.27609">
        <ele>1103</ele>
        <time>2023-04-21T09:19:19.000Z</time>
      </trkpt>
      <trkpt lat="44.49454" lon="6.27607">
        <ele>1104</ele>
        <time>2023-04-21T09:19:20.000Z</time>
      </trkpt>
      <trkpt lat="44.49452" lon="6.27605">
        <ele>1105</ele>
        <time>2023-04-21T09:19:21.000Z</time>
      </trkpt>
      <trkpt lat="44.49451" lon="6.27603">
        <ele>1106</ele>
        <time>2023-04-21T09:19:22.000Z</time>
      </trkpt>
      <trkpt lat="44.4945" lon="6.27601">
        <ele>1106</ele>
        <time>2023-04-21T09:19:23.000Z</time>
      </trkpt>
      <trkpt lat="44.49449" lon="6.27599">
        <ele>1106</ele>
        <time>2023-04-21T09:19:24.000Z</time>
      </trkpt>
      <trkpt lat="44.49447" lon="6.27597">
        <ele>1106</ele>
        <time>2023-04-21T09:19:25.000Z</time>
      </trkpt>
      <trkpt lat="44.49446" lon="6.27595">
        <ele>1107</ele>
        <time>2023-04-21T09:19:26.000Z</time>
      </trkpt>
      <trkpt lat="44.49444" lon="6.27594">
        <ele>1107</ele>
        <time>2023-04-21T09:19:27.000Z</time>
      </trkpt>
      <trkpt lat="44.49443" lon="6.27592">
        <ele>1107</ele>
        <time>2023-04-21T09:19:28.000Z</time>
      </trkpt>
      <trkpt lat="44.49442" lon="6.2759">
        <ele>1108</ele>
        <time>2023-04-21T09:19:29.000Z</time>
      </trkpt>
      <trkpt lat="44.49441" lon="6.27589">
        <ele>1108</ele>
        <time>2023-04-21T09:19:30.000Z</time>
      </trkpt>
      <trkpt lat="44.49439" lon="6.27588">
        <ele>1109</ele>
        <time>2023-04-21T09:19:31.000Z</time>
      </trkpt>
      <trkpt lat="44.49438" lon="6.27586">
        <ele>1109</ele>
        <time>2023-04-21T09:19:32.000Z</time>
      </trkpt>
      <trkpt lat="44.49437" lon="6.27585">
        <ele>1109</ele>
        <time>2023-04-21T09:19:33.000Z</time>
      </trkpt>
      <trkpt lat="44.49435" lon="6.27583">
        <ele>1109</ele>
        <time>2023-04-21T09:19:34.000Z</time>
      </trkpt>
      <trkpt lat="44.49434" lon="6.27582">
        <ele>1109</ele>
        <time>2023-04-21T09:19:35.000Z</time>
      </trkpt>
      <trkpt lat="44.49432" lon="6.27581">
        <ele>1109</ele>
        <time>2023-04-21T09:19:36.000Z</time>
      </trkpt>
      <trkpt lat="44.49431" lon="6.27579">
        <ele>1109</ele>
        <time>2023-04-21T09:19:37.000Z</time>
      </trkpt>
      <trkpt lat="44.49429" lon="6.27578">
        <ele>1109</ele>
        <time>2023-04-21T09:19:38.000Z</time>
      </trkpt>
      <trkpt lat="44.49428" lon="6.27576">
        <ele>1108</ele>
        <time>2023-04-21T09:19:39.000Z</time>
      </trkpt>
      <trkpt lat="44.49426" lon="6.27575">
        <ele>1109</ele>
        <time>2023-04-21T09:19:40.000Z</time>
      </trkpt>
      <trkpt lat="44.49425" lon="6.27574">
        <ele>1109</ele>
        <time>2023-04-21T09:19:41.000Z</time>
      </trkpt>
      <trkpt lat="44.49424" lon="6.27572">
        <ele>1109</ele>
        <time>2023-04-21T09:19:42.000Z</time>
      </trkpt>
      <trkpt lat="44.49422" lon="6.2757">
        <ele>1109</ele>
        <time>2023-04-21T09:19:43.000Z</time>
      </trkpt>
      <trkpt lat="44.49421" lon="6.27569">
        <ele>1109</ele>
        <time>2023-04-21T09:19:44.000Z</time>
      </trkpt>
      <trkpt lat="44.49419" lon="6.27567">
        <ele>1109</ele>
        <time>2023-04-21T09:19:45.000Z</time>
      </trkpt>
      <trkpt lat="44.49418" lon="6.27565">
        <ele>1109</ele>
        <time>2023-04-21T09:19:46.000Z</time>
      </trkpt>
      <trkpt lat="44.49417" lon="6.27563">
        <ele>1110</ele>
        <time>2023-04-21T09:19:47.000Z</time>
      </trkpt>
      <trkpt lat="44.49416" lon="6.27562">
        <ele>1110</ele>
        <time>2023-04-21T09:19:48.000Z</time>
      </trkpt>
      <trkpt lat="44.49414" lon="6.2756">
        <ele>1110</ele>
        <time>2023-04-21T09:19:49.000Z</time>
      </trkpt>
      <trkpt lat="44.49412" lon="6.27558">
        <ele>1110</ele>
        <time>2023-04-21T09:19:50.000Z</time>
      </trkpt>
      <trkpt lat="44.4941" lon="6.27557">
        <ele>1110</ele>
        <time>2023-04-21T09:19:51.000Z</time>
      </trkpt>
      <trkpt lat="44.49408" lon="6.27555">
        <ele>1110</ele>
        <time>2023-04-21T09:19:52.000Z</time>
      </trkpt>
      <trkpt lat="44.49407" lon="6.27554">
        <ele>1110</ele>
        <time>2023-04-21T09:19:53.000Z</time>
      </trkpt>
      <trkpt lat="44.49406" lon="6.27553">
        <ele>1111</ele>
        <time>2023-04-21T09:19:54.000Z</time>
      </trkpt>
      <trkpt lat="44.49404" lon="6.27552">
        <ele>1111</ele>
        <time>2023-04-21T09:19:55.000Z</time>
      </trkpt>
      <trkpt lat="44.49402" lon="6.27551">
        <ele>1111</ele>
        <time>2023-04-21T09:19:56.000Z</time>
      </trkpt>
      <trkpt lat="44.494" lon="6.2755">
        <ele>1111</ele>
        <time>2023-04-21T09:19:57.000Z</time>
      </trkpt>
      <trkpt lat="44.49399" lon="6.27549">
        <ele>1112</ele>
        <time>2023-04-21T09:19:58.000Z</time>
      </trkpt>
      <trkpt lat="44.49397" lon="6.27549">
        <ele>1112</ele>
        <time>2023-04-21T09:19:59.000Z</time>
      </trkpt>
      <trkpt lat="44.49395" lon="6.27548">
        <ele>1112</ele>
        <time>2023-04-21T09:20:00.000Z</time>
      </trkpt>
      <trkpt lat="44.49393" lon="6.27548">
        <ele>1112</ele>
        <time>2023-04-21T09:20:01.000Z</time>
      </trkpt>
      <trkpt lat="44.49391" lon="6.27548">
        <ele>1112</ele>
        <time>2023-04-21T09:20:02.000Z</time>
      </trkpt>
      <trkpt lat="44.49389" lon="6.27548">
        <ele>1112</ele>
        <time>2023-04-21T09:20:03.000Z</time>
      </trkpt>
      <trkpt lat="44.49388" lon="6.27548">
        <ele>1112</ele>
        <time>2023-04-21T09:20:04.000Z</time>
      </trkpt>
      <trkpt lat="44.49386" lon="6.27548">
        <ele>1112</ele>
        <time>2023-04-21T09:20:05.000Z</time>
      </trkpt>
      <trkpt lat="44.49385" lon="6.27548">
        <ele>1112</ele>
        <time>2023-04-21T09:20:06.000Z</time>
      </trkpt>
      <trkpt lat="44.49384" lon="6.27548">
        <ele>1112</ele>
        <time>2023-04-21T09:20:07.000Z</time>
      </trkpt>
      <trkpt lat="44.49383" lon="6.27548">
        <ele>1112</ele>
        <time>2023-04-21T09:20:08.000Z</time>
      </trkpt>
      <trkpt lat="44.49383" lon="6.27548">
        <ele>1112</ele>
        <time>2023-04-21T09:20:09.000Z</time>
      </trkpt>
      <trkpt lat="44.49382" lon="6.27548">
        <ele>1112</ele>
        <time>2023-04-21T09:20:10.000Z</time>
      </trkpt>
      <trkpt lat="44.49382" lon="6.27548">
        <ele>1111</ele>
        <time>2023-04-21T09:20:11.000Z</time>
      </trkpt>
      <trkpt lat="44.49381" lon="6.27548">
        <ele>1111</ele>
        <time>2023-04-21T09:20:12.000Z</time>
      </trkpt>
      <trkpt lat="44.49381" lon="6.27548">
        <ele>1111</ele>
        <time>2023-04-21T09:20:13.000Z</time>
      </trkpt>
      <trkpt lat="44.49381" lon="6.27548">
        <ele>1111</ele>
        <time>2023-04-21T09:20:14.000Z</time>
      </trkpt>
      <trkpt lat="44.49381" lon="6.27548">
        <ele>1110</ele>
        <time>2023-04-21T09:20:15.000Z</time>
      </trkpt>
      <trkpt lat="44.49381" lon="6.27548">
        <ele>1110</ele>
        <time>2023-04-21T09:20:16.000Z</time>
      </trkpt>
      <trkpt lat="44.4938" lon="6.27548">
        <ele>1110</ele>
        <time>2023-04-21T09:20:17.000Z</time>
      </trkpt>
      <trkpt lat="44.4938" lon="6.27548">
        <ele>1110</ele>
        <time>2023-04-21T09:20:18.000Z</time>
      </trkpt>
      <trkpt lat="44.4938" lon="6.27548">
        <ele>1110</ele>
        <time>2023-04-21T09:20:19.000Z</time>
      </trkpt>
      <trkpt lat="44.4938" lon="6.27548">
        <ele>1110</ele>
        <time>2023-04-21T09:20:20.000Z</time>
      </trkpt>
      <trkpt lat="44.4938" lon="6.27548">
        <ele>1110</ele>
        <time>2023-04-21T09:20:21.000Z</time>
      </trkpt>
      <trkpt lat="44.4938" lon="6.27548">
        <ele>1110</ele>
        <time>2023-04-21T09:20:22.000Z</time>
      </trkpt>
      <trkpt lat="44.4938" lon="6.27548">
        <ele>1110</ele>
        <time>2023-04-21T09:20:23.000Z</time>
      </trkpt>
      <trkpt lat="44.4938" lon="6.27548">
        <ele>1110</ele>
        <time>2023-04-21T09:20:24.000Z</time>
      </trkpt>
      <trkpt lat="44.4938" lon="6.27548">
        <ele>1110</ele>
        <time>2023-04-21T09:20:25.000Z</time>
      </trkpt>
      <trkpt lat="44.4938" lon="6.27548">
        <ele>1110</ele>
        <time>2023-04-21T09:20:26.000Z</time>
      </trkpt>
      <trkpt lat="44.4938" lon="6.27548">
        <ele>1110</ele>
        <time>2023-04-21T09:20:27.000Z</time>
      </trkpt>
      <trkpt lat="44.4938" lon="6.27548">
        <ele>1110</ele>
        <time>2023-04-21T09:20:28.000Z</time>
      </trkpt>
      <trkpt lat="44.4938" lon="6.27548">
        <ele>1109</ele>
        <time>2023-04-21T09:20:29.000Z</time>
      </trkpt>
      <trkpt lat="44.4938" lon="6.27547">
        <ele>1109</ele>
        <time>2023-04-21T09:20:30.000Z</time>
      </trkpt>
      <trkpt lat="44.4938" lon="6.27547">
        <ele>1109</ele>
        <time>2023-04-21T09:20:31.000Z</time>
      </trkpt>
      <trkpt lat="44.4938" lon="6.27547">
        <ele>1109</ele>
        <time>2023-04-21T09:20:32.000Z</time>
      </trkpt>
      <trkpt lat="44.4938" lon="6.27547">
        <ele>1109</ele>
        <time>2023-04-21T09:20:33.000Z</time>
      </trkpt>
      <trkpt lat="44.4938" lon="6.27547">
        <ele>1109</ele>
        <time>2023-04-21T09:20:34.000Z</time>
      </trkpt>
      <trkpt lat="44.4938" lon="6.27547">
        <ele>1108</ele>
        <time>2023-04-21T09:20:35.000Z</time>
      </trkpt>
      <trkpt lat="44.4938" lon="6.27547">
        <ele>1108</ele>
        <time>2023-04-21T09:20:36.000Z</time>
      </trkpt>
      <trkpt lat="44.4938" lon="6.27547">
        <ele>1108</ele>
        <time>2023-04-21T09:20:37.000Z</time>
      </trkpt>
      <trkpt lat="44.4938" lon="6.27547">
        <ele>1108</ele>
        <time>2023-04-21T09:20:38.000Z</time>
      </trkpt>
      <trkpt lat="44.49381" lon="6.27547">
        <ele>1108</ele>
        <time>2023-04-21T09:20:39.000Z</time>
      </trkpt>
      <trkpt lat="44.49381" lon="6.27547">
        <ele>1108</ele>
        <time>2023-04-21T09:20:40.000Z</time>
      </trkpt>
      <trkpt lat="44.49381" lon="6.27547">
        <ele>1108</ele>
        <time>2023-04-21T09:20:41.000Z</time>
      </trkpt>
      <trkpt lat="44.49381" lon="6.27547">
        <ele>1108</ele>
        <time>2023-04-21T09:20:42.000Z</time>
      </trkpt>
      <trkpt lat="44.49381" lon="6.27547">
        <ele>1108</ele>
        <time>2023-04-21T09:20:43.000Z</time>
      </trkpt>
      <trkpt lat="44.49381" lon="6.27547">
        <ele>1108</ele>
        <time>2023-04-21T09:20:44.000Z</time>
      </trkpt>
      <trkpt lat="44.49381" lon="6.27547">
        <ele>1108</ele>
        <time>2023-04-21T09:20:45.000Z</time>
      </trkpt>
      <trkpt lat="44.4938" lon="6.27547">
        <ele>1108</ele>
        <time>2023-04-21T09:20:46.000Z</time>
      </trkpt>
      <trkpt lat="44.4938" lon="6.27547">
        <ele>1107</ele>
        <time>2023-04-21T09:20:47.000Z</time>
      </trkpt>
      <trkpt lat="44.4938" lon="6.27547">
        <ele>1107</ele>
        <time>2023-04-21T09:20:48.000Z</time>
      </trkpt>
      <trkpt lat="44.4938" lon="6.27547">
        <ele>1107</ele>
        <time>2023-04-21T09:20:49.000Z</time>
      </trkpt>
      <trkpt lat="44.4938" lon="6.27547">
        <ele>1107</ele>
        <time>2023-04-21T09:20:50.000Z</time>
      </trkpt>
      <trkpt lat="44.4938" lon="6.27547">
        <ele>1107</ele>
        <time>2023-04-21T09:20:51.000Z</time>
      </trkpt>
      <trkpt lat="44.4938" lon="6.27547">
        <ele>1107</ele>
        <time>2023-04-21T09:20:52.000Z</time>
      </trkpt>
      <trkpt lat="44.4938" lon="6.27547">
        <ele>1107</ele>
        <time>2023-04-21T09:20:53.000Z</time>
      </trkpt>
      <trkpt lat="44.4938" lon="6.27547">
        <ele>1107</ele>
        <time>2023-04-21T09:20:54.000Z</time>
      </trkpt>
      <trkpt lat="44.4938" lon="6.27547">
        <ele>1107</ele>
        <time>2023-04-21T09:20:55.000Z</time>
      </trkpt>
      <trkpt lat="44.4938" lon="6.27547">
        <ele>1107</ele>
        <time>2023-04-21T09:20:56.000Z</time>
      </trkpt>
      <trkpt lat="44.4938" lon="6.27547">
        <ele>1107</ele>
        <time>2023-04-21T09:20:57.000Z</time>
      </trkpt>
      <trkpt lat="44.49381" lon="6.27547">
        <ele>1107</ele>
        <time>2023-04-21T09:20:58.000Z</time>
      </trkpt>
      <trkpt lat="44.49381" lon="6.27547">
        <ele>1107</ele>
        <time>2023-04-21T09:20:59.000Z</time>
      </trkpt>
      <trkpt lat="44.49381" lon="6.27547">
        <ele>1108</ele>
        <time>2023-04-21T09:21:00.000Z</time>
      </trkpt>
      <trkpt lat="44.49381" lon="6.27547">
        <ele>1108</ele>
        <time>2023-04-21T09:21:01.000Z</time>
      </trkpt>
      <trkpt lat="44.49381" lon="6.27547">
        <ele>1108</ele>
        <time>2023-04-21T09:21:02.000Z</time>
      </trkpt>
      <trkpt lat="44.49381" lon="6.27547">
        <ele>1108</ele>
        <time>2023-04-21T09:21:03.000Z</time>
      </trkpt>
      <trkpt lat="44.49381" lon="6.27547">
        <ele>1108</ele>
        <time>2023-04-21T09:21:04.000Z</time>
      </trkpt>
      <trkpt lat="44.49381" lon="6.27547">
        <ele>1108</ele>
        <time>2023-04-21T09:21:05.000Z</time>
      </trkpt>
      <trkpt lat="44.49381" lon="6.27547">
        <ele>1108</ele>
        <time>2023-04-21T09:21:06.000Z</time>
      </trkpt>
      <trkpt lat="44.49381" lon="6.27547">
        <ele>1108</ele>
        <time>2023-04-21T09:21:07.000Z</time>
      </trkpt>
      <trkpt lat="44.49382" lon="6.27546">
        <ele>1108</ele>
        <time>2023-04-21T09:21:08.000Z</time>
      </trkpt>
      <trkpt lat="44.49382" lon="6.27546">
        <ele>1108</ele>
        <time>2023-04-21T09:21:09.000Z</time>
      </trkpt>
      <trkpt lat="44.49382" lon="6.27546">
        <ele>1108</ele>
        <time>2023-04-21T09:21:10.000Z</time>
      </trkpt>
      <trkpt lat="44.49382" lon="6.27546">
        <ele>1108</ele>
        <time>2023-04-21T09:21:11.000Z</time>
      </trkpt>
      <trkpt lat="44.49382" lon="6.27546">
        <ele>1109</ele>
        <time>2023-04-21T09:21:12.000Z</time>
      </trkpt>
      <trkpt lat="44.49382" lon="6.27546">
        <ele>1109</ele>
        <time>2023-04-21T09:21:13.000Z</time>
      </trkpt>
      <trkpt lat="44.49382" lon="6.27546">
        <ele>1109</ele>
        <time>2023-04-21T09:21:14.000Z</time>
      </trkpt>
      <trkpt lat="44.49382" lon="6.27545">
        <ele>1109</ele>
        <time>2023-04-21T09:21:15.000Z</time>
      </trkpt>
      <trkpt lat="44.49382" lon="6.27545">
        <ele>1109</ele>
        <time>2023-04-21T09:21:16.000Z</time>
      </trkpt>
      <trkpt lat="44.49382" lon="6.27545">
        <ele>1109</ele>
        <time>2023-04-21T09:21:17.000Z</time>
      </trkpt>
      <trkpt lat="44.49382" lon="6.27545">
        <ele>1110</ele>
        <time>2023-04-21T09:21:18.000Z</time>
      </trkpt>
      <trkpt lat="44.49382" lon="6.27545">
        <ele>1110</ele>
        <time>2023-04-21T09:21:19.000Z</time>
      </trkpt>
      <trkpt lat="44.49382" lon="6.27545">
        <ele>1110</ele>
        <time>2023-04-21T09:21:20.000Z</time>
      </trkpt>
      <trkpt lat="44.49382" lon="6.27545">
        <ele>1110</ele>
        <time>2023-04-21T09:21:21.000Z</time>
      </trkpt>
      <trkpt lat="44.49382" lon="6.27545">
        <ele>1110</ele>
        <time>2023-04-21T09:21:22.000Z</time>
      </trkpt>
      <trkpt lat="44.49382" lon="6.27545">
        <ele>1110</ele>
        <time>2023-04-21T09:21:23.000Z</time>
      </trkpt>
      <trkpt lat="44.49382" lon="6.27545">
        <ele>1110</ele>
        <time>2023-04-21T09:21:24.000Z</time>
      </trkpt>
      <trkpt lat="44.49382" lon="6.27545">
        <ele>1110</ele>
        <time>2023-04-21T09:21:25.000Z</time>
      </trkpt>
      <trkpt lat="44.49382" lon="6.27545">
        <ele>1111</ele>
        <time>2023-04-21T09:21:26.000Z</time>
      </trkpt>
      <trkpt lat="44.49382" lon="6.27545">
        <ele>1110</ele>
        <time>2023-04-21T09:21:27.000Z</time>
      </trkpt>
      <trkpt lat="44.49382" lon="6.27545">
        <ele>1110</ele>
        <time>2023-04-21T09:21:28.000Z</time>
      </trkpt>
      <trkpt lat="44.49382" lon="6.27545">
        <ele>1110</ele>
        <time>2023-04-21T09:21:29.000Z</time>
      </trkpt>
      <trkpt lat="44.49381" lon="6.27545">
        <ele>1111</ele>
        <time>2023-04-21T09:21:30.000Z</time>
      </trkpt>
      <trkpt lat="44.4938" lon="6.27545">
        <ele>1111</ele>
        <time>2023-04-21T09:21:31.000Z</time>
      </trkpt>
      <trkpt lat="44.49379" lon="6.27546">
        <ele>1111</ele>
        <time>2023-04-21T09:21:32.000Z</time>
      </trkpt>
      <trkpt lat="44.49378" lon="6.27547">
        <ele>1111</ele>
        <time>2023-04-21T09:21:33.000Z</time>
      </trkpt>
      <trkpt lat="44.49378" lon="6.27547">
        <ele>1111</ele>
        <time>2023-04-21T09:21:34.000Z</time>
      </trkpt>
      <trkpt lat="44.49377" lon="6.27549">
        <ele>1112</ele>
        <time>2023-04-21T09:21:35.000Z</time>
      </trkpt>
      <trkpt lat="44.49376" lon="6.2755">
        <ele>1112</ele>
        <time>2023-04-21T09:21:36.000Z</time>
      </trkpt>
      <trkpt lat="44.49376" lon="6.2755">
        <ele>1112</ele>
        <time>2023-04-21T09:21:37.000Z</time>
      </trkpt>
      <trkpt lat="44.49375" lon="6.27549">
        <ele>1112</ele>
        <time>2023-04-21T09:21:38.000Z</time>
      </trkpt>
      <trkpt lat="44.49375" lon="6.27548">
        <ele>1113</ele>
        <time>2023-04-21T09:21:39.000Z</time>
      </trkpt>
      <trkpt lat="44.49375" lon="6.27547">
        <ele>1113</ele>
        <time>2023-04-21T09:21:40.000Z</time>
      </trkpt>
      <trkpt lat="44.49376" lon="6.27546">
        <ele>1113</ele>
        <time>2023-04-21T09:21:41.000Z</time>
      </trkpt>
      <trkpt lat="44.49378" lon="6.27547">
        <ele>1113</ele>
        <time>2023-04-21T09:21:42.000Z</time>
      </trkpt>
      <trkpt lat="44.49379" lon="6.27547">
        <ele>1114</ele>
        <time>2023-04-21T09:21:43.000Z</time>
      </trkpt>
      <trkpt lat="44.4938" lon="6.27547">
        <ele>1114</ele>
        <time>2023-04-21T09:21:44.000Z</time>
      </trkpt>
      <trkpt lat="44.4938" lon="6.27547">
        <ele>1114</ele>
        <time>2023-04-21T09:21:45.000Z</time>
      </trkpt>
      <trkpt lat="44.4938" lon="6.27547">
        <ele>1114</ele>
        <time>2023-04-21T09:21:46.000Z</time>
      </trkpt>
      <trkpt lat="44.4938" lon="6.27547">
        <ele>1114</ele>
        <time>2023-04-21T09:21:47.000Z</time>
      </trkpt>
      <trkpt lat="44.4938" lon="6.27547">
        <ele>1114</ele>
        <time>2023-04-21T09:21:48.000Z</time>
      </trkpt>
      <trkpt lat="44.4938" lon="6.27547">
        <ele>1114</ele>
        <time>2023-04-21T09:21:49.000Z</time>
      </trkpt>
      <trkpt lat="44.4938" lon="6.27547">
        <ele>1114</ele>
        <time>2023-04-21T09:21:50.000Z</time>
      </trkpt>
      <trkpt lat="44.4938" lon="6.27547">
        <ele>1114</ele>
        <time>2023-04-21T09:21:51.000Z</time>
      </trkpt>
      <trkpt lat="44.4938" lon="6.27547">
        <ele>1114</ele>
        <time>2023-04-21T09:21:52.000Z</time>
      </trkpt>
      <trkpt lat="44.4938" lon="6.27547">
        <ele>1114</ele>
        <time>2023-04-21T09:21:53.000Z</time>
      </trkpt>
      <trkpt lat="44.49379" lon="6.27547">
        <ele>1114</ele>
        <time>2023-04-21T09:21:54.000Z</time>
      </trkpt>
      <trkpt lat="44.49379" lon="6.27547">
        <ele>1114</ele>
        <time>2023-04-21T09:21:55.000Z</time>
      </trkpt>
      <trkpt lat="44.49379" lon="6.27547">
        <ele>1114</ele>
        <time>2023-04-21T09:21:56.000Z</time>
      </trkpt>
      <trkpt lat="44.49379" lon="6.27547">
        <ele>1114</ele>
        <time>2023-04-21T09:21:57.000Z</time>
      </trkpt>
      <trkpt lat="44.49379" lon="6.27547">
        <ele>1114</ele>
        <time>2023-04-21T09:21:58.000Z</time>
      </trkpt>
      <trkpt lat="44.49379" lon="6.27547">
        <ele>1114</ele>
        <time>2023-04-21T09:21:59.000Z</time>
      </trkpt>
      <trkpt lat="44.49379" lon="6.27547">
        <ele>1114</ele>
        <time>2023-04-21T09:22:00.000Z</time>
      </trkpt>
      <trkpt lat="44.49379" lon="6.27547">
        <ele>1114</ele>
        <time>2023-04-21T09:22:01.000Z</time>
      </trkpt>
      <trkpt lat="44.49379" lon="6.27547">
        <ele>1113</ele>
        <time>2023-04-21T09:22:02.000Z</time>
      </trkpt>
      <trkpt lat="44.49379" lon="6.27547">
        <ele>1113</ele>
        <time>2023-04-21T09:22:03.000Z</time>
      </trkpt>
      <trkpt lat="44.49379" lon="6.27547">
        <ele>1113</ele>
        <time>2023-04-21T09:22:04.000Z</time>
      </trkpt>
      <trkpt lat="44.49379" lon="6.27547">
        <ele>1113</ele>
        <time>2023-04-21T09:22:05.000Z</time>
      </trkpt>
      <trkpt lat="44.49379" lon="6.27547">
        <ele>1113</ele>
        <time>2023-04-21T09:22:06.000Z</time>
      </trkpt>
      <trkpt lat="44.49379" lon="6.27547">
        <ele>1113</ele>
        <time>2023-04-21T09:22:07.000Z</time>
      </trkpt>
      <trkpt lat="44.4938" lon="6.27547">
        <ele>1113</ele>
        <time>2023-04-21T09:22:08.000Z</time>
      </trkpt>
      <trkpt lat="44.4938" lon="6.27547">
        <ele>1113</ele>
        <time>2023-04-21T09:22:09.000Z</time>
      </trkpt>
      <trkpt lat="44.4938" lon="6.27547">
        <ele>1113</ele>
        <time>2023-04-21T09:22:10.000Z</time>
      </trkpt>
      <trkpt lat="44.4938" lon="6.27547">
        <ele>1113</ele>
        <time>2023-04-21T09:22:11.000Z</time>
      </trkpt>
      <trkpt lat="44.4938" lon="6.27547">
        <ele>1113</ele>
        <time>2023-04-21T09:22:12.000Z</time>
      </trkpt>
      <trkpt lat="44.49381" lon="6.27546">
        <ele>1113</ele>
        <time>2023-04-21T09:22:13.000Z</time>
      </trkpt>
      <trkpt lat="44.49382" lon="6.27545">
        <ele>1113</ele>
        <time>2023-04-21T09:22:14.000Z</time>
      </trkpt>
      <trkpt lat="44.49382" lon="6.27543">
        <ele>1113</ele>
        <time>2023-04-21T09:22:15.000Z</time>
      </trkpt>
      <trkpt lat="44.49382" lon="6.27542">
        <ele>1114</ele>
        <time>2023-04-21T09:22:16.000Z</time>
      </trkpt>
      <trkpt lat="44.4938" lon="6.27542">
        <ele>1114</ele>
        <time>2023-04-21T09:22:17.000Z</time>
      </trkpt>
      <trkpt lat="44.49379" lon="6.27541">
        <ele>1114</ele>
        <time>2023-04-21T09:22:18.000Z</time>
      </trkpt>
      <trkpt lat="44.49378" lon="6.27541">
        <ele>1114</ele>
        <time>2023-04-21T09:22:19.000Z</time>
      </trkpt>
      <trkpt lat="44.49376" lon="6.27541">
        <ele>1114</ele>
        <time>2023-04-21T09:22:20.000Z</time>
      </trkpt>
      <trkpt lat="44.49373" lon="6.27541">
        <ele>1112</ele>
        <time>2023-04-21T09:22:21.000Z</time>
      </trkpt>
      <trkpt lat="44.4937" lon="6.2754">
        <ele>1111</ele>
        <time>2023-04-21T09:22:22.000Z</time>
      </trkpt>
      <trkpt lat="44.49368" lon="6.2754">
        <ele>1111</ele>
        <time>2023-04-21T09:22:23.000Z</time>
      </trkpt>
      <trkpt lat="44.49365" lon="6.27541">
        <ele>1110</ele>
        <time>2023-04-21T09:22:24.000Z</time>
      </trkpt>
      <trkpt lat="44.49363" lon="6.27541">
        <ele>1110</ele>
        <time>2023-04-21T09:22:25.000Z</time>
      </trkpt>
      <trkpt lat="44.49361" lon="6.27541">
        <ele>1109</ele>
        <time>2023-04-21T09:22:26.000Z</time>
      </trkpt>
      <trkpt lat="44.49358" lon="6.27541">
        <ele>1109</ele>
        <time>2023-04-21T09:22:27.000Z</time>
      </trkpt>
      <trkpt lat="44.49355" lon="6.27541">
        <ele>1108</ele>
        <time>2023-04-21T09:22:28.000Z</time>
      </trkpt>
      <trkpt lat="44.49353" lon="6.27542">
        <ele>1108</ele>
        <time>2023-04-21T09:22:29.000Z</time>
      </trkpt>
      <trkpt lat="44.4935" lon="6.27543">
        <ele>1107</ele>
        <time>2023-04-21T09:22:30.000Z</time>
      </trkpt>
      <trkpt lat="44.49348" lon="6.27542">
        <ele>1107</ele>
        <time>2023-04-21T09:22:31.000Z</time>
      </trkpt>
      <trkpt lat="44.49347" lon="6.2754">
        <ele>1107</ele>
        <time>2023-04-21T09:22:32.000Z</time>
      </trkpt>
      <trkpt lat="44.49345" lon="6.2754">
        <ele>1106</ele>
        <time>2023-04-21T09:22:33.000Z</time>
      </trkpt>
      <trkpt lat="44.49343" lon="6.27539">
        <ele>1107</ele>
        <time>2023-04-21T09:22:34.000Z</time>
      </trkpt>
      <trkpt lat="44.49341" lon="6.27537">
        <ele>1106</ele>
        <time>2023-04-21T09:22:35.000Z</time>
      </trkpt>
      <trkpt lat="44.49339" lon="6.27536">
        <ele>1106</ele>
        <time>2023-04-21T09:22:36.000Z</time>
      </trkpt>
      <trkpt lat="44.49338" lon="6.27536">
        <ele>1106</ele>
        <time>2023-04-21T09:22:37.000Z</time>
      </trkpt>
      <trkpt lat="44.49336" lon="6.27535">
        <ele>1106</ele>
        <time>2023-04-21T09:22:38.000Z</time>
      </trkpt>
      <trkpt lat="44.49335" lon="6.27534">
        <ele>1107</ele>
        <time>2023-04-21T09:22:39.000Z</time>
      </trkpt>
      <trkpt lat="44.49333" lon="6.27532">
        <ele>1107</ele>
        <time>2023-04-21T09:22:40.000Z</time>
      </trkpt>
      <trkpt lat="44.49331" lon="6.27531">
        <ele>1108</ele>
        <time>2023-04-21T09:22:41.000Z</time>
      </trkpt>
      <trkpt lat="44.49329" lon="6.2753">
        <ele>1107</ele>
        <time>2023-04-21T09:22:42.000Z</time>
      </trkpt>
      <trkpt lat="44.49328" lon="6.2753">
        <ele>1107</ele>
        <time>2023-04-21T09:22:43.000Z</time>
      </trkpt>
      <trkpt lat="44.49326" lon="6.27529">
        <ele>1108</ele>
        <time>2023-04-21T09:22:44.000Z</time>
      </trkpt>
      <trkpt lat="44.49324" lon="6.27528">
        <ele>1108</ele>
        <time>2023-04-21T09:22:45.000Z</time>
      </trkpt>
      <trkpt lat="44.49323" lon="6.27527">
        <ele>1109</ele>
        <time>2023-04-21T09:22:46.000Z</time>
      </trkpt>
      <trkpt lat="44.49321" lon="6.27527">
        <ele>1109</ele>
        <time>2023-04-21T09:22:47.000Z</time>
      </trkpt>
      <trkpt lat="44.49319" lon="6.27527">
        <ele>1109</ele>
        <time>2023-04-21T09:22:48.000Z</time>
      </trkpt>
      <trkpt lat="44.49318" lon="6.27527">
        <ele>1109</ele>
        <time>2023-04-21T09:22:49.000Z</time>
      </trkpt>
      <trkpt lat="44.49315" lon="6.27526">
        <ele>1109</ele>
        <time>2023-04-21T09:22:50.000Z</time>
      </trkpt>
      <trkpt lat="44.49313" lon="6.27525">
        <ele>1109</ele>
        <time>2023-04-21T09:22:51.000Z</time>
      </trkpt>
      <trkpt lat="44.49312" lon="6.27524">
        <ele>1109</ele>
        <time>2023-04-21T09:22:52.000Z</time>
      </trkpt>
      <trkpt lat="44.4931" lon="6.27523">
        <ele>1109</ele>
        <time>2023-04-21T09:22:53.000Z</time>
      </trkpt>
      <trkpt lat="44.49309" lon="6.27521">
        <ele>1110</ele>
        <time>2023-04-21T09:22:54.000Z</time>
      </trkpt>
      <trkpt lat="44.49308" lon="6.2752">
        <ele>1110</ele>
        <time>2023-04-21T09:22:55.000Z</time>
      </trkpt>
      <trkpt lat="44.49307" lon="6.27519">
        <ele>1111</ele>
        <time>2023-04-21T09:22:56.000Z</time>
      </trkpt>
      <trkpt lat="44.49306" lon="6.27518">
        <ele>1112</ele>
        <time>2023-04-21T09:22:57.000Z</time>
      </trkpt>
      <trkpt lat="44.49303" lon="6.27516">
        <ele>1112</ele>
        <time>2023-04-21T09:22:58.000Z</time>
      </trkpt>
      <trkpt lat="44.49302" lon="6.27515">
        <ele>1112</ele>
        <time>2023-04-21T09:22:59.000Z</time>
      </trkpt>
      <trkpt lat="44.49301" lon="6.27514">
        <ele>1113</ele>
        <time>2023-04-21T09:23:00.000Z</time>
      </trkpt>
      <trkpt lat="44.493" lon="6.27512">
        <ele>1114</ele>
        <time>2023-04-21T09:23:01.000Z</time>
      </trkpt>
      <trkpt lat="44.49298" lon="6.27511">
        <ele>1116</ele>
        <time>2023-04-21T09:23:02.000Z</time>
      </trkpt>
      <trkpt lat="44.49297" lon="6.27509">
        <ele>1116</ele>
        <time>2023-04-21T09:23:03.000Z</time>
      </trkpt>
      <trkpt lat="44.49296" lon="6.27508">
        <ele>1117</ele>
        <time>2023-04-21T09:23:04.000Z</time>
      </trkpt>
      <trkpt lat="44.49294" lon="6.27507">
        <ele>1117</ele>
        <time>2023-04-21T09:23:05.000Z</time>
      </trkpt>
      <trkpt lat="44.49293" lon="6.27506">
        <ele>1118</ele>
        <time>2023-04-21T09:23:06.000Z</time>
      </trkpt>
      <trkpt lat="44.4929" lon="6.27504">
        <ele>1118</ele>
        <time>2023-04-21T09:23:07.000Z</time>
      </trkpt>
      <trkpt lat="44.49287" lon="6.27503">
        <ele>1117</ele>
        <time>2023-04-21T09:23:08.000Z</time>
      </trkpt>
      <trkpt lat="44.49286" lon="6.27502">
        <ele>1118</ele>
        <time>2023-04-21T09:23:09.000Z</time>
      </trkpt>
      <trkpt lat="44.49284" lon="6.275">
        <ele>1118</ele>
        <time>2023-04-21T09:23:10.000Z</time>
      </trkpt>
      <trkpt lat="44.49283" lon="6.275">
        <ele>1120</ele>
        <time>2023-04-21T09:23:11.000Z</time>
      </trkpt>
      <trkpt lat="44.49281" lon="6.27498">
        <ele>1120</ele>
        <time>2023-04-21T09:23:12.000Z</time>
      </trkpt>
      <trkpt lat="44.49278" lon="6.27497">
        <ele>1120</ele>
        <time>2023-04-21T09:23:13.000Z</time>
      </trkpt>
      <trkpt lat="44.49275" lon="6.27496">
        <ele>1120</ele>
        <time>2023-04-21T09:23:14.000Z</time>
      </trkpt>
      <trkpt lat="44.49273" lon="6.27495">
        <ele>1120</ele>
        <time>2023-04-21T09:23:15.000Z</time>
      </trkpt>
      <trkpt lat="44.49271" lon="6.27494">
        <ele>1120</ele>
        <time>2023-04-21T09:23:16.000Z</time>
      </trkpt>
      <trkpt lat="44.49268" lon="6.27493">
        <ele>1120</ele>
        <time>2023-04-21T09:23:17.000Z</time>
      </trkpt>
      <trkpt lat="44.49266" lon="6.27492">
        <ele>1121</ele>
        <time>2023-04-21T09:23:18.000Z</time>
      </trkpt>
      <trkpt lat="44.49264" lon="6.27491">
        <ele>1121</ele>
        <time>2023-04-21T09:23:19.000Z</time>
      </trkpt>
      <trkpt lat="44.49262" lon="6.27491">
        <ele>1120</ele>
        <time>2023-04-21T09:23:20.000Z</time>
      </trkpt>
      <trkpt lat="44.4926" lon="6.2749">
        <ele>1120</ele>
        <time>2023-04-21T09:23:21.000Z</time>
      </trkpt>
      <trkpt lat="44.49258" lon="6.27489">
        <ele>1121</ele>
        <time>2023-04-21T09:23:22.000Z</time>
      </trkpt>
      <trkpt lat="44.49256" lon="6.27488">
        <ele>1122</ele>
        <time>2023-04-21T09:23:23.000Z</time>
      </trkpt>
      <trkpt lat="44.49254" lon="6.27487">
        <ele>1122</ele>
        <time>2023-04-21T09:23:24.000Z</time>
      </trkpt>
      <trkpt lat="44.49251" lon="6.27486">
        <ele>1121</ele>
        <time>2023-04-21T09:23:25.000Z</time>
      </trkpt>
      <trkpt lat="44.49249" lon="6.27485">
        <ele>1122</ele>
        <time>2023-04-21T09:23:26.000Z</time>
      </trkpt>
      <trkpt lat="44.49247" lon="6.27483">
        <ele>1122</ele>
        <time>2023-04-21T09:23:27.000Z</time>
      </trkpt>
      <trkpt lat="44.49245" lon="6.27482">
        <ele>1122</ele>
        <time>2023-04-21T09:23:28.000Z</time>
      </trkpt>
      <trkpt lat="44.49243" lon="6.27482">
        <ele>1122</ele>
        <time>2023-04-21T09:23:29.000Z</time>
      </trkpt>
      <trkpt lat="44.4924" lon="6.27482">
        <ele>1122</ele>
        <time>2023-04-21T09:23:30.000Z</time>
      </trkpt>
      <trkpt lat="44.49238" lon="6.27481">
        <ele>1122</ele>
        <time>2023-04-21T09:23:31.000Z</time>
      </trkpt>
      <trkpt lat="44.49236" lon="6.2748">
        <ele>1122</ele>
        <time>2023-04-21T09:23:32.000Z</time>
      </trkpt>
      <trkpt lat="44.49234" lon="6.27479">
        <ele>1123</ele>
        <time>2023-04-21T09:23:33.000Z</time>
      </trkpt>
      <trkpt lat="44.49232" lon="6.27479">
        <ele>1123</ele>
        <time>2023-04-21T09:23:34.000Z</time>
      </trkpt>
      <trkpt lat="44.4923" lon="6.27478">
        <ele>1122</ele>
        <time>2023-04-21T09:23:35.000Z</time>
      </trkpt>
      <trkpt lat="44.49228" lon="6.27477">
        <ele>1122</ele>
        <time>2023-04-21T09:23:36.000Z</time>
      </trkpt>
      <trkpt lat="44.49225" lon="6.27477">
        <ele>1122</ele>
        <time>2023-04-21T09:23:37.000Z</time>
      </trkpt>
      <trkpt lat="44.49223" lon="6.27476">
        <ele>1123</ele>
        <time>2023-04-21T09:23:38.000Z</time>
      </trkpt>
      <trkpt lat="44.49216" lon="6.27515">
        <ele>1103</ele>
        <time>2023-04-21T09:24:14.125Z</time>
      </trkpt>
      <trkpt lat="44.49157" lon="6.27502">
        <ele>1106.8</ele>
        <time>2023-04-21T09:25:29.534Z</time>
      </trkpt>
      <trkpt lat="44.49122" lon="6.27524">
        <ele>1109</ele>
        <time>2023-04-21T09:26:17.890Z</time>
      </trkpt>
      <trkpt lat="44.49053" lon="6.2752">
        <ele>1105.3</ele>
        <time>2023-04-21T09:27:45.154Z</time>
      </trkpt>
      <trkpt lat="44.4901" lon="6.27531">
        <ele>1107.3</ele>
        <time>2023-04-21T09:28:39.138Z</time>
      </trkpt>
      <trkpt lat="44.48962" lon="6.27542">
        <ele>1106.3</ele>
        <time>2023-04-21T09:29:41.063Z</time>
      </trkpt>
      <trkpt lat="44.48948" lon="6.27546">
        <ele>1106.3</ele>
        <time>2023-04-21T09:29:58.797Z</time>
      </trkpt>
      <trkpt lat="44.48937" lon="6.27551">
        <ele>1107.3</ele>
        <time>2023-04-21T09:30:13.055Z</time>
      </trkpt>
      <trkpt lat="44.48914" lon="6.27565">
        <ele>1111.3</ele>
        <time>2023-04-21T09:30:44.610Z</time>
      </trkpt>
      <trkpt lat="44.48902" lon="6.27578">
        <ele>1114.8</ele>
        <time>2023-04-21T09:31:04.405Z</time>
      </trkpt>
      <trkpt lat="44.48899" lon="6.27583">
        <ele>1116.5</ele>
        <time>2023-04-21T09:31:09.916Z</time>
      </trkpt>
      <trkpt lat="44.48894" lon="6.27587">
        <ele>1116</ele>
        <time>2023-04-21T09:31:16.666Z</time>
      </trkpt>
      <trkpt lat="44.48889" lon="6.27589">
        <ele>1115</ele>
        <time>2023-04-21T09:31:23.355Z</time>
      </trkpt>
      <trkpt lat="44.48872" lon="6.27587">
        <ele>1111</ele>
        <time>2023-04-21T09:31:44.965Z</time>
      </trkpt>
      <trkpt lat="44.48863" lon="6.27592">
        <ele>1109.5</ele>
        <time>2023-04-21T09:31:56.933Z</time>
      </trkpt>
      <trkpt lat="44.48889" lon="6.27558">
        <ele>1102</ele>
        <time>2023-04-21T09:32:20.639Z</time>
      </trkpt>
      <trkpt lat="44.48891" lon="6.27554">
        <ele>1100.8</ele>
        <time>2023-04-21T09:32:21.442Z</time>
      </trkpt>
      <trkpt lat="44.489" lon="6.27537">
        <ele>1094.8</ele>
        <time>2023-04-21T09:32:24.309Z</time>
      </trkpt>
      <trkpt lat="44.4891" lon="6.27525">
        <ele>1091.3</ele>
        <time>2023-04-21T09:32:26.975Z</time>
      </trkpt>
      <trkpt lat="44.48914" lon="6.27522">
        <ele>1090.8</ele>
        <time>2023-04-21T09:32:27.733Z</time>
      </trkpt>
      <trkpt lat="44.48922" lon="6.27521">
        <ele>1091.5</ele>
        <time>2023-04-21T09:32:29.333Z</time>
      </trkpt>
      <trkpt lat="44.48925" lon="6.27517">
        <ele>1090.3</ele>
        <time>2023-04-21T09:32:30.161Z</time>
      </trkpt>
      <trkpt lat="44.48925" lon="6.27517">
        <ele>1090.3</ele>
        <time>2023-04-21T09:32:30.161Z</time>
      </trkpt>
      <trkpt lat="44.48922" lon="6.27521">
        <ele>1091.5</ele>
        <time>2023-04-21T09:32:30.989Z</time>
      </trkpt>
      <trkpt lat="44.48914" lon="6.27522">
        <ele>1090.8</ele>
        <time>2023-04-21T09:32:32.589Z</time>
      </trkpt>
      <trkpt lat="44.4891" lon="6.27525">
        <ele>1091.3</ele>
        <time>2023-04-21T09:32:33.347Z</time>
      </trkpt>
      <trkpt lat="44.489" lon="6.27537">
        <ele>1094.8</ele>
        <time>2023-04-21T09:32:36.013Z</time>
      </trkpt>
      <trkpt lat="44.48891" lon="6.27554">
        <ele>1100.8</ele>
        <time>2023-04-21T09:32:38.880Z</time>
      </trkpt>
      <trkpt lat="44.48889" lon="6.27558">
        <ele>1102</ele>
        <time>2023-04-21T09:32:39.683Z</time>
      </trkpt>
      <trkpt lat="44.48889" lon="6.27558">
        <ele>1102</ele>
        <time>2023-04-21T09:38:34.748Z</time>
      </trkpt>
      <trkpt lat="44.48891" lon="6.27554">
        <ele>1100.8</ele>
        <time>2023-04-21T09:38:35.194Z</time>
      </trkpt>
      <trkpt lat="44.489" lon="6.27537">
        <ele>1094.8</ele>
        <time>2023-04-21T09:38:36.787Z</time>
      </trkpt>
      <trkpt lat="44.4891" lon="6.27525">
        <ele>1091.3</ele>
        <time>2023-04-21T09:38:38.269Z</time>
      </trkpt>
      <trkpt lat="44.48914" lon="6.27522">
        <ele>1090.8</ele>
        <time>2023-04-21T09:38:38.690Z</time>
      </trkpt>
      <trkpt lat="44.48922" lon="6.27521">
        <ele>1091.5</ele>
        <time>2023-04-21T09:38:39.579Z</time>
      </trkpt>
      <trkpt lat="44.48925" lon="6.27517">
        <ele>1090.3</ele>
        <time>2023-04-21T09:38:40.039Z</time>
      </trkpt>
      <trkpt lat="44.4893" lon="6.27513">
        <ele>1089.5</ele>
        <time>2023-04-21T09:38:40.629Z</time>
      </trkpt>
      <trkpt lat="44.48929" lon="6.27511">
        <ele>1088.3</ele>
        <time>2023-04-21T09:38:40.828Z</time>
      </trkpt>
      <trkpt lat="44.48919" lon="6.27505">
        <ele>1084</ele>
        <time>2023-04-21T09:38:41.979Z</time>
      </trkpt>
      <trkpt lat="44.48919" lon="6.27503">
        <ele>1082.5</ele>
        <time>2023-04-21T09:38:42.197Z</time>
      </trkpt>
      <trkpt lat="44.4892" lon="6.27498">
        <ele>1080.3</ele>
        <time>2023-04-21T09:38:42.562Z</time>
      </trkpt>
      <trkpt lat="44.48926" lon="6.27491">
        <ele>1077.3</ele>
        <time>2023-04-21T09:38:43.494Z</time>
      </trkpt>
      <trkpt lat="44.48927" lon="6.27488">
        <ele>1075.8</ele>
        <time>2023-04-21T09:38:43.734Z</time>
      </trkpt>
      <trkpt lat="44.48926" lon="6.27487">
        <ele>1074.8</ele>
        <time>2023-04-21T09:38:43.868Z</time>
      </trkpt>
      <trkpt lat="44.48914" lon="6.27481">
        <ele>1069</ele>
        <time>2023-04-21T09:38:45.302Z</time>
      </trkpt>
      <trkpt lat="44.48897" lon="6.27476">
        <ele>1058.3</ele>
        <time>2023-04-21T09:38:47.254Z</time>
      </trkpt>
      <trkpt lat="44.48914" lon="6.27481">
        <ele>1069</ele>
        <time>2023-04-21T09:38:49.206Z</time>
      </trkpt>
      <trkpt lat="44.48926" lon="6.27487">
        <ele>1074.8</ele>
        <time>2023-04-21T09:38:50.640Z</time>
      </trkpt>
      <trkpt lat="44.48927" lon="6.27488">
        <ele>1075.8</ele>
        <time>2023-04-21T09:38:50.774Z</time>
      </trkpt>
      <trkpt lat="44.48926" lon="6.27491">
        <ele>1077.3</ele>
        <time>2023-04-21T09:38:51.014Z</time>
      </trkpt>
      <trkpt lat="44.4892" lon="6.27498">
        <ele>1080.3</ele>
        <time>2023-04-21T09:38:51.946Z</time>
      </trkpt>
      <trkpt lat="44.48919" lon="6.27503">
        <ele>1082.5</ele>
        <time>2023-04-21T09:38:52.311Z</time>
      </trkpt>
      <trkpt lat="44.48919" lon="6.27505">
        <ele>1084</ele>
        <time>2023-04-21T09:38:52.529Z</time>
      </trkpt>
      <trkpt lat="44.48929" lon="6.27511">
        <ele>1088.3</ele>
        <time>2023-04-21T09:38:53.680Z</time>
      </trkpt>
      <trkpt lat="44.4893" lon="6.27513">
        <ele>1089.5</ele>
        <time>2023-04-21T09:38:53.879Z</time>
      </trkpt>
      <trkpt lat="44.48925" lon="6.27517">
        <ele>1090.3</ele>
        <time>2023-04-21T09:38:54.469Z</time>
      </trkpt>
      <trkpt lat="44.48922" lon="6.27521">
        <ele>1091.5</ele>
        <time>2023-04-21T09:38:54.929Z</time>
      </trkpt>
      <trkpt lat="44.48914" lon="6.27522">
        <ele>1090.8</ele>
        <time>2023-04-21T09:38:55.818Z</time>
      </trkpt>
      <trkpt lat="44.4891" lon="6.27525">
        <ele>1091.3</ele>
        <time>2023-04-21T09:38:56.239Z</time>
      </trkpt>
      <trkpt lat="44.489" lon="6.27537">
        <ele>1094.8</ele>
        <time>2023-04-21T09:38:57.721Z</time>
      </trkpt>
      <trkpt lat="44.48891" lon="6.27554">
        <ele>1100.8</ele>
        <time>2023-04-21T09:38:59.314Z</time>
      </trkpt>
      <trkpt lat="44.48889" lon="6.27558">
        <ele>1102</ele>
        <time>2023-04-21T09:38:59.760Z</time>
      </trkpt>
      <trkpt lat="44.48889" lon="6.27558">
        <ele>1102</ele>
        <time>2023-04-21T09:42:06.483Z</time>
      </trkpt>
      <trkpt lat="44.48891" lon="6.27554">
        <ele>1100.8</ele>
        <time>2023-04-21T09:42:07.201Z</time>
      </trkpt>
      <trkpt lat="44.489" lon="6.27537">
        <ele>1094.8</ele>
        <time>2023-04-21T09:42:09.766Z</time>
      </trkpt>
      <trkpt lat="44.4891" lon="6.27525">
        <ele>1091.3</ele>
        <time>2023-04-21T09:42:12.151Z</time>
      </trkpt>
      <trkpt lat="44.48914" lon="6.27522">
        <ele>1090.8</ele>
        <time>2023-04-21T09:42:12.829Z</time>
      </trkpt>
      <trkpt lat="44.48922" lon="6.27521">
        <ele>1091.5</ele>
        <time>2023-04-21T09:42:14.260Z</time>
      </trkpt>
      <trkpt lat="44.48925" lon="6.27517">
        <ele>1090.3</ele>
        <time>2023-04-21T09:42:15.000Z</time>
      </trkpt>
      <trkpt lat="44.4893" lon="6.27513">
        <ele>1089.5</ele>
        <time>2023-04-21T09:42:15.950Z</time>
      </trkpt>
      <trkpt lat="44.48929" lon="6.27511">
        <ele>1088.3</ele>
        <time>2023-04-21T09:42:16.270Z</time>
      </trkpt>
      <trkpt lat="44.48919" lon="6.27505">
        <ele>1084</ele>
        <time>2023-04-21T09:42:18.123Z</time>
      </trkpt>
      <trkpt lat="44.48919" lon="6.27503">
        <ele>1082.5</ele>
        <time>2023-04-21T09:42:18.474Z</time>
      </trkpt>
      <trkpt lat="44.4892" lon="6.27498">
        <ele>1080.3</ele>
        <time>2023-04-21T09:42:19.063Z</time>
      </trkpt>
      <trkpt lat="44.48926" lon="6.27491">
        <ele>1077.3</ele>
        <time>2023-04-21T09:42:20.564Z</time>
      </trkpt>
      <trkpt lat="44.48927" lon="6.27488">
        <ele>1075.8</ele>
        <time>2023-04-21T09:42:20.951Z</time>
      </trkpt>
      <trkpt lat="44.48926" lon="6.27487">
        <ele>1074.8</ele>
        <time>2023-04-21T09:42:21.167Z</time>
      </trkpt>
      <trkpt lat="44.48914" lon="6.27481">
        <ele>1069</ele>
        <time>2023-04-21T09:42:23.476Z</time>
      </trkpt>
      <trkpt lat="44.48888" lon="6.27473">
        <ele>1058.3</ele>
        <time>2023-04-21T09:42:28.151Z</time>
      </trkpt>
      <trkpt lat="44.48884" lon="6.27473">
        <ele>1057.5</ele>
        <time>2023-04-21T09:42:28.787Z</time>
      </trkpt>
      <trkpt lat="44.48881" lon="6.27476">
        <ele>1058.5</ele>
        <time>2023-04-21T09:42:29.431Z</time>
      </trkpt>
      <trkpt lat="44.48876" lon="6.27486">
        <ele>1062.5</ele>
        <time>2023-04-21T09:42:30.919Z</time>
      </trkpt>
      <trkpt lat="44.48873" lon="6.27489">
        <ele>1063.5</ele>
        <time>2023-04-21T09:42:31.642Z</time>
      </trkpt>
      <trkpt lat="44.48869" lon="6.2749">
        <ele>1063.3</ele>
        <time>2023-04-21T09:42:32.330Z</time>
      </trkpt>
      <trkpt lat="44.48865" lon="6.27489">
        <ele>1061.8</ele>
        <time>2023-04-21T09:42:33.013Z</time>
      </trkpt>
      <trkpt lat="44.48862" lon="6.27487">
        <ele>1059.8</ele>
        <time>2023-04-21T09:42:33.654Z</time>
      </trkpt>
      <trkpt lat="44.48859" lon="6.27482">
        <ele>1056.5</ele>
        <time>2023-04-21T09:42:34.433Z</time>
      </trkpt>
      <trkpt lat="44.48855" lon="6.27479">
        <ele>1053.8</ele>
        <time>2023-04-21T09:42:35.236Z</time>
      </trkpt>
      <trkpt lat="44.48848" lon="6.27475">
        <ele>1050</ele>
        <time>2023-04-21T09:42:36.553Z</time>
      </trkpt>
      <trkpt lat="44.48841" lon="6.27474">
        <ele>1047</ele>
        <time>2023-04-21T09:42:37.835Z</time>
      </trkpt>
      <trkpt lat="44.4884" lon="6.27474">
        <ele>1047</ele>
        <time>2023-04-21T09:42:38.101Z</time>
      </trkpt>
      <trkpt lat="44.48838" lon="6.27472">
        <ele>1045.5</ele>
        <time>2023-04-21T09:42:38.535Z</time>
      </trkpt>
      <trkpt lat="44.48839" lon="6.27469">
        <ele>1044.5</ele>
        <time>2023-04-21T09:42:38.894Z</time>
      </trkpt>
      <trkpt lat="44.48844" lon="6.27468">
        <ele>1045</ele>
        <time>2023-04-21T09:42:39.903Z</time>
      </trkpt>
      <trkpt lat="44.48847" lon="6.27466">
        <ele>1044.8</ele>
        <time>2023-04-21T09:42:40.351Z</time>
      </trkpt>
      <trkpt lat="44.48848" lon="6.27463">
        <ele>1043.3</ele>
        <time>2023-04-21T09:42:40.864Z</time>
      </trkpt>
      <trkpt lat="44.48849" lon="6.2746">
        <ele>1042</ele>
        <time>2023-04-21T09:42:41.208Z</time>
      </trkpt>
      <trkpt lat="44.48848" lon="6.27459">
        <ele>1041</ele>
        <time>2023-04-21T09:42:41.392Z</time>
      </trkpt>
      <trkpt lat="44.48846" lon="6.27459">
        <ele>1040.5</ele>
        <time>2023-04-21T09:42:41.763Z</time>
      </trkpt>
      <trkpt lat="44.48812" lon="6.27466">
        <ele>1028.8</ele>
        <time>2023-04-21T09:42:47.901Z</time>
      </trkpt>
      <trkpt lat="44.48796" lon="6.27476">
        <ele>1024</ele>
        <time>2023-04-21T09:42:50.926Z</time>
      </trkpt>
      <trkpt lat="44.48786" lon="6.2748">
        <ele>1019.5</ele>
        <time>2023-04-21T09:42:52.695Z</time>
      </trkpt>
      <trkpt lat="44.48779" lon="6.27485">
        <ele>1017</ele>
        <time>2023-04-21T09:42:54.110Z</time>
      </trkpt>
      <trkpt lat="44.48774" lon="6.27494">
        <ele>1016.5</ele>
        <time>2023-04-21T09:42:55.561Z</time>
      </trkpt>
      <trkpt lat="44.48753" lon="6.27505">
        <ele>1007</ele>
        <time>2023-04-21T09:42:59.466Z</time>
      </trkpt>
      <trkpt lat="44.48751" lon="6.27505">
        <ele>1005</ele>
        <time>2023-04-21T09:42:59.978Z</time>
      </trkpt>
      <trkpt lat="44.48751" lon="6.27501">
        <ele>1002.8</ele>
        <time>2023-04-21T09:43:00.547Z</time>
      </trkpt>
      <trkpt lat="44.48755" lon="6.27492">
        <ele>1003.3</ele>
        <time>2023-04-21T09:43:01.881Z</time>
      </trkpt>
      <trkpt lat="44.4876" lon="6.27489">
        <ele>1005.8</ele>
        <time>2023-04-21T09:43:02.832Z</time>
      </trkpt>
      <trkpt lat="44.48764" lon="6.27484">
        <ele>1006.8</ele>
        <time>2023-04-21T09:43:03.818Z</time>
      </trkpt>
      <trkpt lat="44.48774" lon="6.27465">
        <ele>1007</ele>
        <time>2023-04-21T09:43:06.783Z</time>
      </trkpt>
      <trkpt lat="44.48786" lon="6.27448">
        <ele>1007.5</ele>
        <time>2023-04-21T09:43:09.772Z</time>
      </trkpt>
      <trkpt lat="44.48802" lon="6.27429">
        <ele>1007.5</ele>
        <time>2023-04-21T09:43:13.455Z</time>
      </trkpt>
      <trkpt lat="44.48808" lon="6.27424">
        <ele>1007.8</ele>
        <time>2023-04-21T09:43:14.686Z</time>
      </trkpt>
      <trkpt lat="44.48807" lon="6.27422">
        <ele>1006.8</ele>
        <time>2023-04-21T09:43:14.901Z</time>
      </trkpt>
      <trkpt lat="44.48797" lon="6.27421">
        <ele>1002.5</ele>
        <time>2023-04-21T09:43:16.564Z</time>
      </trkpt>
      <trkpt lat="44.48788" lon="6.27423">
        <ele>999.5</ele>
        <time>2023-04-21T09:43:18.207Z</time>
      </trkpt>
      <trkpt lat="44.48778" lon="6.27427">
        <ele>996.8</ele>
        <time>2023-04-21T09:43:20.003Z</time>
      </trkpt>
      <trkpt lat="44.48777" lon="6.27426">
        <ele>995.5</ele>
        <time>2023-04-21T09:43:20.322Z</time>
      </trkpt>
      <trkpt lat="44.48777" lon="6.27422">
        <ele>994.3</ele>
        <time>2023-04-21T09:43:20.803Z</time>
      </trkpt>
      <trkpt lat="44.4878" lon="6.27415">
        <ele>993</ele>
        <time>2023-04-21T09:43:21.728Z</time>
      </trkpt>
      <trkpt lat="44.48801" lon="6.27375">
        <ele>986.3</ele>
        <time>2023-04-21T09:43:28.080Z</time>
      </trkpt>
      <trkpt lat="44.48797" lon="6.27373">
        <ele>984.5</ele>
        <time>2023-04-21T09:43:28.822Z</time>
      </trkpt>
      <trkpt lat="44.48784" lon="6.27373">
        <ele>980.8</ele>
        <time>2023-04-21T09:43:31.101Z</time>
      </trkpt>
      <trkpt lat="44.48768" lon="6.27379">
        <ele>977.8</ele>
        <time>2023-04-21T09:43:33.954Z</time>
      </trkpt>
      <trkpt lat="44.48747" lon="6.27391">
        <ele>973.8</ele>
        <time>2023-04-21T09:43:37.977Z</time>
      </trkpt>
      <trkpt lat="44.48744" lon="6.2739">
        <ele>972.3</ele>
        <time>2023-04-21T09:43:38.578Z</time>
      </trkpt>
      <trkpt lat="44.48742" lon="6.27388">
        <ele>970.5</ele>
        <time>2023-04-21T09:43:39.041Z</time>
      </trkpt>
      <trkpt lat="44.48743" lon="6.27383">
        <ele>969.8</ele>
        <time>2023-04-21T09:43:39.793Z</time>
      </trkpt>
      <trkpt lat="44.48751" lon="6.27365">
        <ele>969.3</ele>
        <time>2023-04-21T09:43:42.502Z</time>
      </trkpt>
      <trkpt lat="44.48771" lon="6.27331">
        <ele>964.3</ele>
        <time>2023-04-21T09:43:47.940Z</time>
      </trkpt>
      <trkpt lat="44.48775" lon="6.27323">
        <ele>962.5</ele>
        <time>2023-04-21T09:43:49.225Z</time>
      </trkpt>
      <trkpt lat="44.48783" lon="6.27314">
        <ele>961.3</ele>
        <time>2023-04-21T09:43:51.020Z</time>
      </trkpt>
      <trkpt lat="44.48788" lon="6.27304">
        <ele>959</ele>
        <time>2023-04-21T09:43:52.518Z</time>
      </trkpt>
      <trkpt lat="44.48794" lon="6.27297">
        <ele>957.8</ele>
        <time>2023-04-21T09:43:54.022Z</time>
      </trkpt>
      <trkpt lat="44.488" lon="6.27294">
        <ele>957.5</ele>
        <time>2023-04-21T09:43:55.147Z</time>
      </trkpt>
      <trkpt lat="44.48802" lon="6.27288">
        <ele>955.8</ele>
        <time>2023-04-21T09:43:55.921Z</time>
      </trkpt>
      <trkpt lat="44.488" lon="6.2728">
        <ele>952.8</ele>
        <time>2023-04-21T09:43:57.079Z</time>
      </trkpt>
      <trkpt lat="44.48795" lon="6.27279">
        <ele>952</ele>
        <time>2023-04-21T09:43:57.896Z</time>
      </trkpt>
      <trkpt lat="44.48756" lon="6.2729">
        <ele>950.3</ele>
        <time>2023-04-21T09:44:04.840Z</time>
      </trkpt>
      <trkpt lat="44.48702" lon="6.27308">
        <ele>940</ele>
        <time>2023-04-21T09:44:14.776Z</time>
      </trkpt>
      <trkpt lat="44.48681" lon="6.27311">
        <ele>934.3</ele>
        <time>2023-04-21T09:44:18.449Z</time>
      </trkpt>
      <trkpt lat="44.48673" lon="6.2732">
        <ele>933.5</ele>
        <time>2023-04-21T09:44:20.280Z</time>
      </trkpt>
      <trkpt lat="44.4867" lon="6.27321">
        <ele>932.8</ele>
        <time>2023-04-21T09:44:20.797Z</time>
      </trkpt>
      <trkpt lat="44.48664" lon="6.2732">
        <ele>930.3</ele>
        <time>2023-04-21T09:44:21.958Z</time>
      </trkpt>
      <trkpt lat="44.48659" lon="6.27321">
        <ele>928.8</ele>
        <time>2023-04-21T09:44:22.698Z</time>
      </trkpt>
      <trkpt lat="44.48657" lon="6.27323">
        <ele>928</ele>
        <time>2023-04-21T09:44:23.219Z</time>
      </trkpt>
      <trkpt lat="44.48655" lon="6.27322">
        <ele>927</ele>
        <time>2023-04-21T09:44:23.613Z</time>
      </trkpt>
      <trkpt lat="44.48654" lon="6.27318">
        <ele>926</ele>
        <time>2023-04-21T09:44:24.119Z</time>
      </trkpt>
      <trkpt lat="44.48654" lon="6.27313">
        <ele>925.3</ele>
        <time>2023-04-21T09:44:24.787Z</time>
      </trkpt>
      <trkpt lat="44.4866" lon="6.27307">
        <ele>926.8</ele>
        <time>2023-04-21T09:44:25.988Z</time>
      </trkpt>
      <trkpt lat="44.48661" lon="6.27302">
        <ele>926.5</ele>
        <time>2023-04-21T09:44:26.701Z</time>
      </trkpt>
      <trkpt lat="44.48663" lon="6.27285">
        <ele>924.5</ele>
        <time>2023-04-21T09:44:28.823Z</time>
      </trkpt>
      <trkpt lat="44.48666" lon="6.27275">
        <ele>923.8</ele>
        <time>2023-04-21T09:44:30.176Z</time>
      </trkpt>
      <trkpt lat="44.4867" lon="6.27264">
        <ele>923</ele>
        <time>2023-04-21T09:44:31.745Z</time>
      </trkpt>
      <trkpt lat="44.48681" lon="6.27243">
        <ele>921.3</ele>
        <time>2023-04-21T09:44:35.049Z</time>
      </trkpt>
      <trkpt lat="44.48703" lon="6.27193">
        <ele>914.3</ele>
        <time>2023-04-21T09:44:42.440Z</time>
      </trkpt>
      <trkpt lat="44.48711" lon="6.27185">
        <ele>913.8</ele>
        <time>2023-04-21T09:44:44.089Z</time>
      </trkpt>
      <trkpt lat="44.48712" lon="6.2718">
        <ele>912.8</ele>
        <time>2023-04-21T09:44:44.819Z</time>
      </trkpt>
      <trkpt lat="44.48713" lon="6.27166">
        <ele>909.5</ele>
        <time>2023-04-21T09:44:46.569Z</time>
      </trkpt>
      <trkpt lat="44.48715" lon="6.27163">
        <ele>909.3</ele>
        <time>2023-04-21T09:44:47.124Z</time>
      </trkpt>
      <trkpt lat="44.48721" lon="6.27166">
        <ele>910.8</ele>
        <time>2023-04-21T09:44:48.099Z</time>
      </trkpt>
      <trkpt lat="44.48724" lon="6.27165">
        <ele>911</ele>
        <time>2023-04-21T09:44:48.671Z</time>
      </trkpt>
      <trkpt lat="44.48725" lon="6.27162">
        <ele>910.5</ele>
        <time>2023-04-21T09:44:49.154Z</time>
      </trkpt>
      <trkpt lat="44.48726" lon="6.27147">
        <ele>906.8</ele>
        <time>2023-04-21T09:44:51.062Z</time>
      </trkpt>
      <trkpt lat="44.48733" lon="6.27136">
        <ele>905</ele>
        <time>2023-04-21T09:44:52.843Z</time>
      </trkpt>
      <trkpt lat="44.48741" lon="6.27115">
        <ele>900.5</ele>
        <time>2023-04-21T09:44:55.901Z</time>
      </trkpt>
      <trkpt lat="44.48744" lon="6.27106">
        <ele>898.5</ele>
        <time>2023-04-21T09:44:57.138Z</time>
      </trkpt>
      <trkpt lat="44.48749" lon="6.27103">
        <ele>898</ele>
        <time>2023-04-21T09:44:58.025Z</time>
      </trkpt>
      <trkpt lat="44.48755" lon="6.27095">
        <ele>896</ele>
        <time>2023-04-21T09:44:59.534Z</time>
      </trkpt>
      <trkpt lat="44.48755" lon="6.27084">
        <ele>892.8</ele>
        <time>2023-04-21T09:45:00.970Z</time>
      </trkpt>
      <trkpt lat="44.48794" lon="6.27067">
        <ele>902</ele>
        <time>2023-04-21T09:46:52.000Z</time>
      </trkpt>
      <trkpt lat="44.48795" lon="6.27069">
        <ele>902</ele>
        <time>2023-04-21T09:46:53.000Z</time>
      </trkpt>
      <trkpt lat="44.48795" lon="6.27071">
        <ele>902</ele>
        <time>2023-04-21T09:46:54.000Z</time>
      </trkpt>
      <trkpt lat="44.48796" lon="6.27074">
        <ele>902</ele>
        <time>2023-04-21T09:46:55.000Z</time>
      </trkpt>
      <trkpt lat="44.48796" lon="6.27077">
        <ele>902</ele>
        <time>2023-04-21T09:46:56.000Z</time>
      </trkpt>
      <trkpt lat="44.48797" lon="6.2708">
        <ele>902</ele>
        <time>2023-04-21T09:46:57.000Z</time>
      </trkpt>
      <trkpt lat="44.48797" lon="6.27083">
        <ele>902</ele>
        <time>2023-04-21T09:46:58.000Z</time>
      </trkpt>
      <trkpt lat="44.48798" lon="6.27086">
        <ele>902</ele>
        <time>2023-04-21T09:46:59.000Z</time>
      </trkpt>
      <trkpt lat="44.48801" lon="6.27088">
        <ele>901</ele>
        <time>2023-04-21T09:47:00.000Z</time>
      </trkpt>
      <trkpt lat="44.48803" lon="6.2709">
        <ele>900</ele>
        <time>2023-04-21T09:47:01.000Z</time>
      </trkpt>
      <trkpt lat="44.48805" lon="6.2709">
        <ele>902</ele>
        <time>2023-04-21T09:47:02.000Z</time>
      </trkpt>
      <trkpt lat="44.48807" lon="6.27088">
        <ele>903</ele>
        <time>2023-04-21T09:47:03.000Z</time>
      </trkpt>
      <trkpt lat="44.48809" lon="6.27087">
        <ele>904</ele>
        <time>2023-04-21T09:47:04.000Z</time>
      </trkpt>
      <trkpt lat="44.48812" lon="6.27086">
        <ele>905</ele>
        <time>2023-04-21T09:47:05.000Z</time>
      </trkpt>
      <trkpt lat="44.48816" lon="6.27086">
        <ele>905</ele>
        <time>2023-04-21T09:47:06.000Z</time>
      </trkpt>
      <trkpt lat="44.48819" lon="6.27087">
        <ele>905</ele>
        <time>2023-04-21T09:47:07.000Z</time>
      </trkpt>
      <trkpt lat="44.48821" lon="6.27088">
        <ele>905</ele>
        <time>2023-04-21T09:47:08.000Z</time>
      </trkpt>
      <trkpt lat="44.48824" lon="6.2709">
        <ele>904</ele>
        <time>2023-04-21T09:47:09.000Z</time>
      </trkpt>
      <trkpt lat="44.48827" lon="6.27091">
        <ele>904</ele>
        <time>2023-04-21T09:47:10.000Z</time>
      </trkpt>
      <trkpt lat="44.48829" lon="6.27092">
        <ele>905</ele>
        <time>2023-04-21T09:47:11.000Z</time>
      </trkpt>
      <trkpt lat="44.48831" lon="6.27094">
        <ele>905</ele>
        <time>2023-04-21T09:47:12.000Z</time>
      </trkpt>
      <trkpt lat="44.48834" lon="6.27095">
        <ele>905</ele>
        <time>2023-04-21T09:47:13.000Z</time>
      </trkpt>
      <trkpt lat="44.48836" lon="6.27097">
        <ele>905</ele>
        <time>2023-04-21T09:47:14.000Z</time>
      </trkpt>
      <trkpt lat="44.48839" lon="6.27099">
        <ele>904</ele>
        <time>2023-04-21T09:47:15.000Z</time>
      </trkpt>
      <trkpt lat="44.48841" lon="6.271">
        <ele>904</ele>
        <time>2023-04-21T09:47:16.000Z</time>
      </trkpt>
      <trkpt lat="44.48844" lon="6.27101">
        <ele>904</ele>
        <time>2023-04-21T09:47:17.000Z</time>
      </trkpt>
      <trkpt lat="44.48846" lon="6.27102">
        <ele>904</ele>
        <time>2023-04-21T09:47:18.000Z</time>
      </trkpt>
      <trkpt lat="44.48849" lon="6.27102">
        <ele>904</ele>
        <time>2023-04-21T09:47:19.000Z</time>
      </trkpt>
      <trkpt lat="44.48851" lon="6.27101">
        <ele>904</ele>
        <time>2023-04-21T09:47:20.000Z</time>
      </trkpt>
      <trkpt lat="44.48854" lon="6.271">
        <ele>904</ele>
        <time>2023-04-21T09:47:21.000Z</time>
      </trkpt>
      <trkpt lat="44.48857" lon="6.27098">
        <ele>904</ele>
        <time>2023-04-21T09:47:22.000Z</time>
      </trkpt>
      <trkpt lat="44.4886" lon="6.27097">
        <ele>904</ele>
        <time>2023-04-21T09:47:23.000Z</time>
      </trkpt>
      <trkpt lat="44.48862" lon="6.27094">
        <ele>904</ele>
        <time>2023-04-21T09:47:24.000Z</time>
      </trkpt>
      <trkpt lat="44.48864" lon="6.27092">
        <ele>904</ele>
        <time>2023-04-21T09:47:25.000Z</time>
      </trkpt>
      <trkpt lat="44.48865" lon="6.27089">
        <ele>904</ele>
        <time>2023-04-21T09:47:26.000Z</time>
      </trkpt>
      <trkpt lat="44.48867" lon="6.27087">
        <ele>903</ele>
        <time>2023-04-21T09:47:27.000Z</time>
      </trkpt>
      <trkpt lat="44.48869" lon="6.27083">
        <ele>903</ele>
        <time>2023-04-21T09:47:28.000Z</time>
      </trkpt>
      <trkpt lat="44.4887" lon="6.2708">
        <ele>902</ele>
        <time>2023-04-21T09:47:29.000Z</time>
      </trkpt>
      <trkpt lat="44.48871" lon="6.27076">
        <ele>902</ele>
        <time>2023-04-21T09:47:30.000Z</time>
      </trkpt>
      <trkpt lat="44.48871" lon="6.27072">
        <ele>902</ele>
        <time>2023-04-21T09:47:31.000Z</time>
      </trkpt>
      <trkpt lat="44.48872" lon="6.27069">
        <ele>901</ele>
        <time>2023-04-21T09:47:32.000Z</time>
      </trkpt>
      <trkpt lat="44.48873" lon="6.27066">
        <ele>901</ele>
        <time>2023-04-21T09:47:33.000Z</time>
      </trkpt>
      <trkpt lat="44.48874" lon="6.27064">
        <ele>901</ele>
        <time>2023-04-21T09:47:34.000Z</time>
      </trkpt>
      <trkpt lat="44.48874" lon="6.27062">
        <ele>901</ele>
        <time>2023-04-21T09:47:35.000Z</time>
      </trkpt>
      <trkpt lat="44.48875" lon="6.2706">
        <ele>901</ele>
        <time>2023-04-21T09:47:36.000Z</time>
      </trkpt>
      <trkpt lat="44.48875" lon="6.27058">
        <ele>901</ele>
        <time>2023-04-21T09:47:37.000Z</time>
      </trkpt>
      <trkpt lat="44.48875" lon="6.27056">
        <ele>901</ele>
        <time>2023-04-21T09:47:38.000Z</time>
      </trkpt>
      <trkpt lat="44.48876" lon="6.27054">
        <ele>901</ele>
        <time>2023-04-21T09:47:39.000Z</time>
      </trkpt>
      <trkpt lat="44.48876" lon="6.27053">
        <ele>901</ele>
        <time>2023-04-21T09:47:40.000Z</time>
      </trkpt>
      <trkpt lat="44.48876" lon="6.27051">
        <ele>901</ele>
        <time>2023-04-21T09:47:41.000Z</time>
      </trkpt>
      <trkpt lat="44.48877" lon="6.2705">
        <ele>901</ele>
        <time>2023-04-21T09:47:42.000Z</time>
      </trkpt>
      <trkpt lat="44.48877" lon="6.27049">
        <ele>901</ele>
        <time>2023-04-21T09:47:43.000Z</time>
      </trkpt>
      <trkpt lat="44.48877" lon="6.27048">
        <ele>901</ele>
        <time>2023-04-21T09:47:44.000Z</time>
      </trkpt>
      <trkpt lat="44.48877" lon="6.27047">
        <ele>901</ele>
        <time>2023-04-21T09:47:45.000Z</time>
      </trkpt>
      <trkpt lat="44.48878" lon="6.27046">
        <ele>901</ele>
        <time>2023-04-21T09:47:46.000Z</time>
      </trkpt>
      <trkpt lat="44.48878" lon="6.27046">
        <ele>901</ele>
        <time>2023-04-21T09:47:47.000Z</time>
      </trkpt>
      <trkpt lat="44.48878" lon="6.27045">
        <ele>901</ele>
        <time>2023-04-21T09:47:48.000Z</time>
      </trkpt>
      <trkpt lat="44.48878" lon="6.27044">
        <ele>901</ele>
        <time>2023-04-21T09:47:49.000Z</time>
      </trkpt>
      <trkpt lat="44.48878" lon="6.27044">
        <ele>901</ele>
        <time>2023-04-21T09:47:50.000Z</time>
      </trkpt>
      <trkpt lat="44.48878" lon="6.27044">
        <ele>901</ele>
        <time>2023-04-21T09:47:51.000Z</time>
      </trkpt>
      <trkpt lat="44.48878" lon="6.27043">
        <ele>900</ele>
        <time>2023-04-21T09:47:52.000Z</time>
      </trkpt>
      <trkpt lat="44.48878" lon="6.27042">
        <ele>900</ele>
        <time>2023-04-21T09:47:53.000Z</time>
      </trkpt>
      <trkpt lat="44.48878" lon="6.27041">
        <ele>900</ele>
        <time>2023-04-21T09:47:54.000Z</time>
      </trkpt>
      <trkpt lat="44.48879" lon="6.27037">
        <ele>898</ele>
        <time>2023-04-21T09:47:55.000Z</time>
      </trkpt>
      <trkpt lat="44.4888" lon="6.27038">
        <ele>900</ele>
        <time>2023-04-21T09:47:56.000Z</time>
      </trkpt>
      <trkpt lat="44.48882" lon="6.27038">
        <ele>899</ele>
        <time>2023-04-21T09:47:57.000Z</time>
      </trkpt>
      <trkpt lat="44.48884" lon="6.27037">
        <ele>899</ele>
        <time>2023-04-21T09:47:58.000Z</time>
      </trkpt>
      <trkpt lat="44.48886" lon="6.27036">
        <ele>897</ele>
        <time>2023-04-21T09:47:59.000Z</time>
      </trkpt>
      <trkpt lat="44.48888" lon="6.27033">
        <ele>897</ele>
        <time>2023-04-21T09:48:00.000Z</time>
      </trkpt>
      <trkpt lat="44.48892" lon="6.27032">
        <ele>894</ele>
        <time>2023-04-21T09:48:01.000Z</time>
      </trkpt>
      <trkpt lat="44.48896" lon="6.2703">
        <ele>894</ele>
        <time>2023-04-21T09:48:02.000Z</time>
      </trkpt>
      <trkpt lat="44.48901" lon="6.27028">
        <ele>893</ele>
        <time>2023-04-21T09:48:03.000Z</time>
      </trkpt>
      <trkpt lat="44.48905" lon="6.27026">
        <ele>893</ele>
        <time>2023-04-21T09:48:04.000Z</time>
      </trkpt>
      <trkpt lat="44.48909" lon="6.27024">
        <ele>893</ele>
        <time>2023-04-21T09:48:05.000Z</time>
      </trkpt>
      <trkpt lat="44.48913" lon="6.27024">
        <ele>893</ele>
        <time>2023-04-21T09:48:06.000Z</time>
      </trkpt>
      <trkpt lat="44.48917" lon="6.27023">
        <ele>893</ele>
        <time>2023-04-21T09:48:07.000Z</time>
      </trkpt>
      <trkpt lat="44.48921" lon="6.27022">
        <ele>893</ele>
        <time>2023-04-21T09:48:08.000Z</time>
      </trkpt>
      <trkpt lat="44.48924" lon="6.2702">
        <ele>893</ele>
        <time>2023-04-21T09:48:09.000Z</time>
      </trkpt>
      <trkpt lat="44.48927" lon="6.27019">
        <ele>892</ele>
        <time>2023-04-21T09:48:10.000Z</time>
      </trkpt>
      <trkpt lat="44.4893" lon="6.27019">
        <ele>892</ele>
        <time>2023-04-21T09:48:11.000Z</time>
      </trkpt>
      <trkpt lat="44.48931" lon="6.27018">
        <ele>891</ele>
        <time>2023-04-21T09:48:12.000Z</time>
      </trkpt>
      <trkpt lat="44.48933" lon="6.27017">
        <ele>891</ele>
        <time>2023-04-21T09:48:13.000Z</time>
      </trkpt>
      <trkpt lat="44.48933" lon="6.27015">
        <ele>891</ele>
        <time>2023-04-21T09:48:14.000Z</time>
      </trkpt>
      <trkpt lat="44.48934" lon="6.27013">
        <ele>891</ele>
        <time>2023-04-21T09:48:15.000Z</time>
      </trkpt>
      <trkpt lat="44.48934" lon="6.27011">
        <ele>890</ele>
        <time>2023-04-21T09:48:16.000Z</time>
      </trkpt>
      <trkpt lat="44.48934" lon="6.27009">
        <ele>890</ele>
        <time>2023-04-21T09:48:17.000Z</time>
      </trkpt>
      <trkpt lat="44.48933" lon="6.27007">
        <ele>891</ele>
        <time>2023-04-21T09:48:18.000Z</time>
      </trkpt>
      <trkpt lat="44.48933" lon="6.27005">
        <ele>891</ele>
        <time>2023-04-21T09:48:19.000Z</time>
      </trkpt>
      <trkpt lat="44.48933" lon="6.27003">
        <ele>891</ele>
        <time>2023-04-21T09:48:20.000Z</time>
      </trkpt>
      <trkpt lat="44.48934" lon="6.27002">
        <ele>892</ele>
        <time>2023-04-21T09:48:21.000Z</time>
      </trkpt>
      <trkpt lat="44.48935" lon="6.27">
        <ele>893</ele>
        <time>2023-04-21T09:48:22.000Z</time>
      </trkpt>
      <trkpt lat="44.48936" lon="6.26997">
        <ele>893</ele>
        <time>2023-04-21T09:48:23.000Z</time>
      </trkpt>
      <trkpt lat="44.48936" lon="6.26995">
        <ele>894</ele>
        <time>2023-04-21T09:48:24.000Z</time>
      </trkpt>
      <trkpt lat="44.48937" lon="6.26993">
        <ele>894</ele>
        <time>2023-04-21T09:48:25.000Z</time>
      </trkpt>
      <trkpt lat="44.48937" lon="6.26991">
        <ele>894</ele>
        <time>2023-04-21T09:48:26.000Z</time>
      </trkpt>
      <trkpt lat="44.48937" lon="6.2699">
        <ele>895</ele>
        <time>2023-04-21T09:48:27.000Z</time>
      </trkpt>
      <trkpt lat="44.48936" lon="6.26989">
        <ele>895</ele>
        <time>2023-04-21T09:48:28.000Z</time>
      </trkpt>
      <trkpt lat="44.48936" lon="6.26987">
        <ele>895</ele>
        <time>2023-04-21T09:48:29.000Z</time>
      </trkpt>
      <trkpt lat="44.48936" lon="6.26984">
        <ele>896</ele>
        <time>2023-04-21T09:48:30.000Z</time>
      </trkpt>
      <trkpt lat="44.48935" lon="6.26982">
        <ele>895</ele>
        <time>2023-04-21T09:48:31.000Z</time>
      </trkpt>
      <trkpt lat="44.48935" lon="6.26979">
        <ele>895</ele>
        <time>2023-04-21T09:48:32.000Z</time>
      </trkpt>
      <trkpt lat="44.48936" lon="6.26976">
        <ele>894</ele>
        <time>2023-04-21T09:48:33.000Z</time>
      </trkpt>
      <trkpt lat="44.48937" lon="6.26972">
        <ele>894</ele>
        <time>2023-04-21T09:48:34.000Z</time>
      </trkpt>
      <trkpt lat="44.48939" lon="6.26968">
        <ele>894</ele>
        <time>2023-04-21T09:48:35.000Z</time>
      </trkpt>
      <trkpt lat="44.48939" lon="6.26964">
        <ele>894</ele>
        <time>2023-04-21T09:48:36.000Z</time>
      </trkpt>
      <trkpt lat="44.48941" lon="6.26959">
        <ele>894</ele>
        <time>2023-04-21T09:48:37.000Z</time>
      </trkpt>
      <trkpt lat="44.48942" lon="6.26954">
        <ele>893</ele>
        <time>2023-04-21T09:48:38.000Z</time>
      </trkpt>
      <trkpt lat="44.48944" lon="6.26949">
        <ele>893</ele>
        <time>2023-04-21T09:48:39.000Z</time>
      </trkpt>
      <trkpt lat="44.48945" lon="6.26944">
        <ele>893</ele>
        <time>2023-04-21T09:48:40.000Z</time>
      </trkpt>
      <trkpt lat="44.48946" lon="6.26939">
        <ele>893</ele>
        <time>2023-04-21T09:48:41.000Z</time>
      </trkpt>
      <trkpt lat="44.48948" lon="6.26934">
        <ele>893</ele>
        <time>2023-04-21T09:48:42.000Z</time>
      </trkpt>
      <trkpt lat="44.48952" lon="6.26929">
        <ele>894</ele>
        <time>2023-04-21T09:48:43.000Z</time>
      </trkpt>
      <trkpt lat="44.48955" lon="6.26926">
        <ele>893</ele>
        <time>2023-04-21T09:48:44.000Z</time>
      </trkpt>
      <trkpt lat="44.48958" lon="6.26922">
        <ele>893</ele>
        <time>2023-04-21T09:48:45.000Z</time>
      </trkpt>
      <trkpt lat="44.48962" lon="6.26918">
        <ele>892</ele>
        <time>2023-04-21T09:48:46.000Z</time>
      </trkpt>
      <trkpt lat="44.48965" lon="6.26915">
        <ele>893</ele>
        <time>2023-04-21T09:48:47.000Z</time>
      </trkpt>
      <trkpt lat="44.48969" lon="6.26911">
        <ele>893</ele>
        <time>2023-04-21T09:48:48.000Z</time>
      </trkpt>
      <trkpt lat="44.48972" lon="6.26905">
        <ele>893</ele>
        <time>2023-04-21T09:48:49.000Z</time>
      </trkpt>
      <trkpt lat="44.48975" lon="6.26899">
        <ele>893</ele>
        <time>2023-04-21T09:48:50.000Z</time>
      </trkpt>
      <trkpt lat="44.48977" lon="6.26893">
        <ele>893</ele>
        <time>2023-04-21T09:48:51.000Z</time>
      </trkpt>
      <trkpt lat="44.48979" lon="6.26887">
        <ele>892</ele>
        <time>2023-04-21T09:48:52.000Z</time>
      </trkpt>
      <trkpt lat="44.48982" lon="6.26881">
        <ele>892</ele>
        <time>2023-04-21T09:48:53.000Z</time>
      </trkpt>
      <trkpt lat="44.48984" lon="6.26875">
        <ele>892</ele>
        <time>2023-04-21T09:48:54.000Z</time>
      </trkpt>
      <trkpt lat="44.48984" lon="6.26869">
        <ele>890</ele>
        <time>2023-04-21T09:48:55.000Z</time>
      </trkpt>
      <trkpt lat="44.48984" lon="6.26863">
        <ele>889</ele>
        <time>2023-04-21T09:48:56.000Z</time>
      </trkpt>
      <trkpt lat="44.48985" lon="6.26858">
        <ele>889</ele>
        <time>2023-04-21T09:48:57.000Z</time>
      </trkpt>
      <trkpt lat="44.48985" lon="6.26854">
        <ele>889</ele>
        <time>2023-04-21T09:48:58.000Z</time>
      </trkpt>
      <trkpt lat="44.48984" lon="6.26849">
        <ele>888</ele>
        <time>2023-04-21T09:48:59.000Z</time>
      </trkpt>
      <trkpt lat="44.48984" lon="6.26845">
        <ele>888</ele>
        <time>2023-04-21T09:49:00.000Z</time>
      </trkpt>
      <trkpt lat="44.48983" lon="6.2684">
        <ele>888</ele>
        <time>2023-04-21T09:49:01.000Z</time>
      </trkpt>
      <trkpt lat="44.48982" lon="6.26837">
        <ele>889</ele>
        <time>2023-04-21T09:49:02.000Z</time>
      </trkpt>
      <trkpt lat="44.48978" lon="6.26837">
        <ele>893</ele>
        <time>2023-04-21T09:49:03.000Z</time>
      </trkpt>
      <trkpt lat="44.48976" lon="6.26837">
        <ele>892</ele>
        <time>2023-04-21T09:49:04.000Z</time>
      </trkpt>
      <trkpt lat="44.48975" lon="6.26836">
        <ele>893</ele>
        <time>2023-04-21T09:49:05.000Z</time>
      </trkpt>
      <trkpt lat="44.48973" lon="6.26838">
        <ele>894</ele>
        <time>2023-04-21T09:49:06.000Z</time>
      </trkpt>
      <trkpt lat="44.48971" lon="6.26839">
        <ele>895</ele>
        <time>2023-04-21T09:49:07.000Z</time>
      </trkpt>
      <trkpt lat="44.48969" lon="6.26841">
        <ele>897</ele>
        <time>2023-04-21T09:49:08.000Z</time>
      </trkpt>
      <trkpt lat="44.48967" lon="6.26844">
        <ele>898</ele>
        <time>2023-04-21T09:49:09.000Z</time>
      </trkpt>
      <trkpt lat="44.48965" lon="6.26847">
        <ele>900</ele>
        <time>2023-04-21T09:49:10.000Z</time>
      </trkpt>
      <trkpt lat="44.48964" lon="6.26851">
        <ele>901</ele>
        <time>2023-04-21T09:49:11.000Z</time>
      </trkpt>
      <trkpt lat="44.48962" lon="6.26854">
        <ele>903</ele>
        <time>2023-04-21T09:49:12.000Z</time>
      </trkpt>
      <trkpt lat="44.48961" lon="6.26856">
        <ele>904</ele>
        <time>2023-04-21T09:49:13.000Z</time>
      </trkpt>
      <trkpt lat="44.4896" lon="6.26859">
        <ele>907</ele>
        <time>2023-04-21T09:49:14.000Z</time>
      </trkpt>
      <trkpt lat="44.48958" lon="6.26861">
        <ele>908</ele>
        <time>2023-04-21T09:49:15.000Z</time>
      </trkpt>
      <trkpt lat="44.48956" lon="6.26863">
        <ele>909</ele>
        <time>2023-04-21T09:49:16.000Z</time>
      </trkpt>
      <trkpt lat="44.48955" lon="6.26866">
        <ele>911</ele>
        <time>2023-04-21T09:49:17.000Z</time>
      </trkpt>
      <trkpt lat="44.48954" lon="6.26868">
        <ele>913</ele>
        <time>2023-04-21T09:49:18.000Z</time>
      </trkpt>
      <trkpt lat="44.48951" lon="6.26869">
        <ele>914</ele>
        <time>2023-04-21T09:49:19.000Z</time>
      </trkpt>
      <trkpt lat="44.4895" lon="6.2687">
        <ele>916</ele>
        <time>2023-04-21T09:49:20.000Z</time>
      </trkpt>
      <trkpt lat="44.48948" lon="6.26872">
        <ele>917</ele>
        <time>2023-04-21T09:49:21.000Z</time>
      </trkpt>
      <trkpt lat="44.48944" lon="6.26874">
        <ele>915</ele>
        <time>2023-04-21T09:49:22.000Z</time>
      </trkpt>
      <trkpt lat="44.48942" lon="6.26875">
        <ele>917</ele>
        <time>2023-04-21T09:49:23.000Z</time>
      </trkpt>
      <trkpt lat="44.4894" lon="6.26877">
        <ele>917</ele>
        <time>2023-04-21T09:49:24.000Z</time>
      </trkpt>
      <trkpt lat="44.48937" lon="6.26878">
        <ele>917</ele>
        <time>2023-04-21T09:49:25.000Z</time>
      </trkpt>
      <trkpt lat="44.48935" lon="6.26879">
        <ele>917</ele>
        <time>2023-04-21T09:49:26.000Z</time>
      </trkpt>
      <trkpt lat="44.48934" lon="6.26881">
        <ele>918</ele>
        <time>2023-04-21T09:49:27.000Z</time>
      </trkpt>
      <trkpt lat="44.48932" lon="6.26882">
        <ele>918</ele>
        <time>2023-04-21T09:49:28.000Z</time>
      </trkpt>
      <trkpt lat="44.48929" lon="6.26883">
        <ele>919</ele>
        <time>2023-04-21T09:49:29.000Z</time>
      </trkpt>
      <trkpt lat="44.48927" lon="6.26884">
        <ele>919</ele>
        <time>2023-04-21T09:49:30.000Z</time>
      </trkpt>
      <trkpt lat="44.48924" lon="6.26886">
        <ele>920</ele>
        <time>2023-04-21T09:49:31.000Z</time>
      </trkpt>
      <trkpt lat="44.48922" lon="6.26888">
        <ele>920</ele>
        <time>2023-04-21T09:49:32.000Z</time>
      </trkpt>
      <trkpt lat="44.4892" lon="6.26891">
        <ele>921</ele>
        <time>2023-04-21T09:49:33.000Z</time>
      </trkpt>
      <trkpt lat="44.48918" lon="6.26894">
        <ele>922</ele>
        <time>2023-04-21T09:49:34.000Z</time>
      </trkpt>
      <trkpt lat="44.48918" lon="6.26897">
        <ele>923</ele>
        <time>2023-04-21T09:49:35.000Z</time>
      </trkpt>
      <trkpt lat="44.48916" lon="6.269">
        <ele>924</ele>
        <time>2023-04-21T09:49:36.000Z</time>
      </trkpt>
      <trkpt lat="44.48916" lon="6.26904">
        <ele>926</ele>
        <time>2023-04-21T09:49:37.000Z</time>
      </trkpt>
      <trkpt lat="44.48915" lon="6.26907">
        <ele>927</ele>
        <time>2023-04-21T09:49:38.000Z</time>
      </trkpt>
      <trkpt lat="44.48914" lon="6.2691">
        <ele>928</ele>
        <time>2023-04-21T09:49:39.000Z</time>
      </trkpt>
      <trkpt lat="44.48912" lon="6.26913">
        <ele>929</ele>
        <time>2023-04-21T09:49:40.000Z</time>
      </trkpt>
      <trkpt lat="44.48911" lon="6.26916">
        <ele>929</ele>
        <time>2023-04-21T09:49:41.000Z</time>
      </trkpt>
      <trkpt lat="44.48908" lon="6.26917">
        <ele>928</ele>
        <time>2023-04-21T09:49:42.000Z</time>
      </trkpt>
      <trkpt lat="44.48904" lon="6.26917">
        <ele>928</ele>
        <time>2023-04-21T09:49:43.000Z</time>
      </trkpt>
      <trkpt lat="44.489" lon="6.26918">
        <ele>925</ele>
        <time>2023-04-21T09:49:44.000Z</time>
      </trkpt>
      <trkpt lat="44.48891" lon="6.26919">
        <ele>923</ele>
        <time>2023-04-21T09:49:45.000Z</time>
      </trkpt>
      <trkpt lat="44.48886" lon="6.2692">
        <ele>921</ele>
        <time>2023-04-21T09:49:46.000Z</time>
      </trkpt>
      <trkpt lat="44.48877" lon="6.2692">
        <ele>915</ele>
        <time>2023-04-21T09:49:47.000Z</time>
      </trkpt>
      <trkpt lat="44.4887" lon="6.26919">
        <ele>911</ele>
        <time>2023-04-21T09:49:48.000Z</time>
      </trkpt>
      <trkpt lat="44.48865" lon="6.26918">
        <ele>908</ele>
        <time>2023-04-21T09:49:49.000Z</time>
      </trkpt>
      <trkpt lat="44.4886" lon="6.26918">
        <ele>907</ele>
        <time>2023-04-21T09:49:50.000Z</time>
      </trkpt>
      <trkpt lat="44.48856" lon="6.26917">
        <ele>905</ele>
        <time>2023-04-21T09:49:51.000Z</time>
      </trkpt>
      <trkpt lat="44.4885" lon="6.26916">
        <ele>903</ele>
        <time>2023-04-21T09:49:52.000Z</time>
      </trkpt>
      <trkpt lat="44.48845" lon="6.26914">
        <ele>901</ele>
        <time>2023-04-21T09:49:53.000Z</time>
      </trkpt>
      <trkpt lat="44.48841" lon="6.26912">
        <ele>900</ele>
        <time>2023-04-21T09:49:54.000Z</time>
      </trkpt>
      <trkpt lat="44.48837" lon="6.2691">
        <ele>899</ele>
        <time>2023-04-21T09:49:55.000Z</time>
      </trkpt>
      <trkpt lat="44.48834" lon="6.26909">
        <ele>899</ele>
        <time>2023-04-21T09:49:56.000Z</time>
      </trkpt>
      <trkpt lat="44.48831" lon="6.26907">
        <ele>899</ele>
        <time>2023-04-21T09:49:57.000Z</time>
      </trkpt>
      <trkpt lat="44.48827" lon="6.26905">
        <ele>898</ele>
        <time>2023-04-21T09:49:58.000Z</time>
      </trkpt>
      <trkpt lat="44.48825" lon="6.26904">
        <ele>898</ele>
        <time>2023-04-21T09:49:59.000Z</time>
      </trkpt>
      <trkpt lat="44.48822" lon="6.26903">
        <ele>898</ele>
        <time>2023-04-21T09:50:00.000Z</time>
      </trkpt>
      <trkpt lat="44.4882" lon="6.26902">
        <ele>899</ele>
        <time>2023-04-21T09:50:01.000Z</time>
      </trkpt>
      <trkpt lat="44.48818" lon="6.26901">
        <ele>900</ele>
        <time>2023-04-21T09:50:02.000Z</time>
      </trkpt>
      <trkpt lat="44.48815" lon="6.269">
        <ele>900</ele>
        <time>2023-04-21T09:50:03.000Z</time>
      </trkpt>
      <trkpt lat="44.48812" lon="6.26899">
        <ele>900</ele>
        <time>2023-04-21T09:50:04.000Z</time>
      </trkpt>
      <trkpt lat="44.48809" lon="6.26897">
        <ele>901</ele>
        <time>2023-04-21T09:50:05.000Z</time>
      </trkpt>
      <trkpt lat="44.48807" lon="6.26896">
        <ele>901</ele>
        <time>2023-04-21T09:50:06.000Z</time>
      </trkpt>
      <trkpt lat="44.48804" lon="6.26895">
        <ele>900</ele>
        <time>2023-04-21T09:50:07.000Z</time>
      </trkpt>
      <trkpt lat="44.488" lon="6.26893">
        <ele>900</ele>
        <time>2023-04-21T09:50:08.000Z</time>
      </trkpt>
      <trkpt lat="44.48798" lon="6.26892">
        <ele>900</ele>
        <time>2023-04-21T09:50:09.000Z</time>
      </trkpt>
      <trkpt lat="44.48794" lon="6.26891">
        <ele>900</ele>
        <time>2023-04-21T09:50:10.000Z</time>
      </trkpt>
      <trkpt lat="44.48791" lon="6.2689">
        <ele>899</ele>
        <time>2023-04-21T09:50:11.000Z</time>
      </trkpt>
      <trkpt lat="44.48787" lon="6.26889">
        <ele>900</ele>
        <time>2023-04-21T09:50:12.000Z</time>
      </trkpt>
      <trkpt lat="44.48783" lon="6.26888">
        <ele>900</ele>
        <time>2023-04-21T09:50:13.000Z</time>
      </trkpt>
      <trkpt lat="44.48781" lon="6.26887">
        <ele>901</ele>
        <time>2023-04-21T09:50:14.000Z</time>
      </trkpt>
      <trkpt lat="44.48778" lon="6.26886">
        <ele>901</ele>
        <time>2023-04-21T09:50:15.000Z</time>
      </trkpt>
      <trkpt lat="44.48775" lon="6.26885">
        <ele>902</ele>
        <time>2023-04-21T09:50:16.000Z</time>
      </trkpt>
      <trkpt lat="44.48773" lon="6.26884">
        <ele>902</ele>
        <time>2023-04-21T09:50:17.000Z</time>
      </trkpt>
      <trkpt lat="44.4877" lon="6.26883">
        <ele>902</ele>
        <time>2023-04-21T09:50:18.000Z</time>
      </trkpt>
      <trkpt lat="44.48766" lon="6.26881">
        <ele>903</ele>
        <time>2023-04-21T09:50:19.000Z</time>
      </trkpt>
      <trkpt lat="44.48764" lon="6.2688">
        <ele>903</ele>
        <time>2023-04-21T09:50:20.000Z</time>
      </trkpt>
      <trkpt lat="44.4876" lon="6.26878">
        <ele>903</ele>
        <time>2023-04-21T09:50:21.000Z</time>
      </trkpt>
      <trkpt lat="44.48758" lon="6.26876">
        <ele>903</ele>
        <time>2023-04-21T09:50:22.000Z</time>
      </trkpt>
      <trkpt lat="44.48755" lon="6.26873">
        <ele>903</ele>
        <time>2023-04-21T09:50:23.000Z</time>
      </trkpt>
      <trkpt lat="44.48754" lon="6.2687">
        <ele>903</ele>
        <time>2023-04-21T09:50:24.000Z</time>
      </trkpt>
      <trkpt lat="44.48752" lon="6.26867">
        <ele>903</ele>
        <time>2023-04-21T09:50:25.000Z</time>
      </trkpt>
      <trkpt lat="44.4875" lon="6.26863">
        <ele>903</ele>
        <time>2023-04-21T09:50:26.000Z</time>
      </trkpt>
      <trkpt lat="44.48748" lon="6.26859">
        <ele>903</ele>
        <time>2023-04-21T09:50:27.000Z</time>
      </trkpt>
      <trkpt lat="44.48746" lon="6.26855">
        <ele>903</ele>
        <time>2023-04-21T09:50:28.000Z</time>
      </trkpt>
      <trkpt lat="44.48744" lon="6.26852">
        <ele>902</ele>
        <time>2023-04-21T09:50:29.000Z</time>
      </trkpt>
      <trkpt lat="44.48742" lon="6.26848">
        <ele>902</ele>
        <time>2023-04-21T09:50:30.000Z</time>
      </trkpt>
      <trkpt lat="44.48741" lon="6.26844">
        <ele>902</ele>
        <time>2023-04-21T09:50:31.000Z</time>
      </trkpt>
      <trkpt lat="44.48739" lon="6.26839">
        <ele>901</ele>
        <time>2023-04-21T09:50:32.000Z</time>
      </trkpt>
      <trkpt lat="44.48737" lon="6.26834">
        <ele>900</ele>
        <time>2023-04-21T09:50:33.000Z</time>
      </trkpt>
      <trkpt lat="44.48736" lon="6.26829">
        <ele>900</ele>
        <time>2023-04-21T09:50:34.000Z</time>
      </trkpt>
      <trkpt lat="44.48734" lon="6.26824">
        <ele>899</ele>
        <time>2023-04-21T09:50:35.000Z</time>
      </trkpt>
      <trkpt lat="44.48733" lon="6.26818">
        <ele>899</ele>
        <time>2023-04-21T09:50:36.000Z</time>
      </trkpt>
      <trkpt lat="44.4873" lon="6.26813">
        <ele>899</ele>
        <time>2023-04-21T09:50:37.000Z</time>
      </trkpt>
      <trkpt lat="44.48728" lon="6.2681">
        <ele>899</ele>
        <time>2023-04-21T09:50:38.000Z</time>
      </trkpt>
      <trkpt lat="44.48726" lon="6.2681">
        <ele>900</ele>
        <time>2023-04-21T09:50:39.000Z</time>
      </trkpt>
      <trkpt lat="44.48724" lon="6.26811">
        <ele>901</ele>
        <time>2023-04-21T09:50:40.000Z</time>
      </trkpt>
      <trkpt lat="44.48722" lon="6.26813">
        <ele>902</ele>
        <time>2023-04-21T09:50:41.000Z</time>
      </trkpt>
      <trkpt lat="44.48721" lon="6.26815">
        <ele>903</ele>
        <time>2023-04-21T09:50:42.000Z</time>
      </trkpt>
      <trkpt lat="44.4872" lon="6.26817">
        <ele>904</ele>
        <time>2023-04-21T09:50:43.000Z</time>
      </trkpt>
      <trkpt lat="44.48718" lon="6.26818">
        <ele>905</ele>
        <time>2023-04-21T09:50:44.000Z</time>
      </trkpt>
      <trkpt lat="44.48716" lon="6.26819">
        <ele>905</ele>
        <time>2023-04-21T09:50:45.000Z</time>
      </trkpt>
      <trkpt lat="44.48713" lon="6.2682">
        <ele>905</ele>
        <time>2023-04-21T09:50:46.000Z</time>
      </trkpt>
      <trkpt lat="44.4871" lon="6.26821">
        <ele>904</ele>
        <time>2023-04-21T09:50:47.000Z</time>
      </trkpt>
      <trkpt lat="44.48706" lon="6.26821">
        <ele>905</ele>
        <time>2023-04-21T09:50:48.000Z</time>
      </trkpt>
      <trkpt lat="44.48703" lon="6.26821">
        <ele>905</ele>
        <time>2023-04-21T09:50:49.000Z</time>
      </trkpt>
      <trkpt lat="44.487" lon="6.26822">
        <ele>905</ele>
        <time>2023-04-21T09:50:50.000Z</time>
      </trkpt>
      <trkpt lat="44.48696" lon="6.26822">
        <ele>905</ele>
        <time>2023-04-21T09:50:51.000Z</time>
      </trkpt>
      <trkpt lat="44.48693" lon="6.26822">
        <ele>904</ele>
        <time>2023-04-21T09:50:52.000Z</time>
      </trkpt>
      <trkpt lat="44.4869" lon="6.26822">
        <ele>903</ele>
        <time>2023-04-21T09:50:53.000Z</time>
      </trkpt>
      <trkpt lat="44.48688" lon="6.26821">
        <ele>903</ele>
        <time>2023-04-21T09:50:54.000Z</time>
      </trkpt>
      <trkpt lat="44.48686" lon="6.26821">
        <ele>902</ele>
        <time>2023-04-21T09:50:55.000Z</time>
      </trkpt>
      <trkpt lat="44.48684" lon="6.26822">
        <ele>902</ele>
        <time>2023-04-21T09:50:56.000Z</time>
      </trkpt>
      <trkpt lat="44.48682" lon="6.26821">
        <ele>901</ele>
        <time>2023-04-21T09:50:57.000Z</time>
      </trkpt>
      <trkpt lat="44.48679" lon="6.26821">
        <ele>901</ele>
        <time>2023-04-21T09:50:58.000Z</time>
      </trkpt>
      <trkpt lat="44.48675" lon="6.26822">
        <ele>899</ele>
        <time>2023-04-21T09:50:59.000Z</time>
      </trkpt>
      <trkpt lat="44.48671" lon="6.26821">
        <ele>899</ele>
        <time>2023-04-21T09:51:00.000Z</time>
      </trkpt>
      <trkpt lat="44.48667" lon="6.2682">
        <ele>899</ele>
        <time>2023-04-21T09:51:01.000Z</time>
      </trkpt>
      <trkpt lat="44.48662" lon="6.26819">
        <ele>898</ele>
        <time>2023-04-21T09:51:02.000Z</time>
      </trkpt>
      <trkpt lat="44.48657" lon="6.2682">
        <ele>897</ele>
        <time>2023-04-21T09:51:03.000Z</time>
      </trkpt>
      <trkpt lat="44.48652" lon="6.26821">
        <ele>897</ele>
        <time>2023-04-21T09:51:04.000Z</time>
      </trkpt>
      <trkpt lat="44.48647" lon="6.26821">
        <ele>896</ele>
        <time>2023-04-21T09:51:05.000Z</time>
      </trkpt>
      <trkpt lat="44.48642" lon="6.26821">
        <ele>896</ele>
        <time>2023-04-21T09:51:06.000Z</time>
      </trkpt>
      <trkpt lat="44.48637" lon="6.2682">
        <ele>896</ele>
        <time>2023-04-21T09:51:07.000Z</time>
      </trkpt>
      <trkpt lat="44.48633" lon="6.26819">
        <ele>896</ele>
        <time>2023-04-21T09:51:08.000Z</time>
      </trkpt>
      <trkpt lat="44.48627" lon="6.26816">
        <ele>895</ele>
        <time>2023-04-21T09:51:09.000Z</time>
      </trkpt>
      <trkpt lat="44.48623" lon="6.26811">
        <ele>895</ele>
        <time>2023-04-21T09:51:10.000Z</time>
      </trkpt>
      <trkpt lat="44.4862" lon="6.26805">
        <ele>894</ele>
        <time>2023-04-21T09:51:11.000Z</time>
      </trkpt>
      <trkpt lat="44.48618" lon="6.268">
        <ele>893</ele>
        <time>2023-04-21T09:51:12.000Z</time>
      </trkpt>
      <trkpt lat="44.48617" lon="6.26795">
        <ele>893</ele>
        <time>2023-04-21T09:51:13.000Z</time>
      </trkpt>
      <trkpt lat="44.48616" lon="6.2679">
        <ele>892</ele>
        <time>2023-04-21T09:51:14.000Z</time>
      </trkpt>
      <trkpt lat="44.48615" lon="6.26786">
        <ele>892</ele>
        <time>2023-04-21T09:51:15.000Z</time>
      </trkpt>
      <trkpt lat="44.48614" lon="6.26782">
        <ele>892</ele>
        <time>2023-04-21T09:51:16.000Z</time>
      </trkpt>
      <trkpt lat="44.48614" lon="6.26778">
        <ele>891</ele>
        <time>2023-04-21T09:51:17.000Z</time>
      </trkpt>
      <trkpt lat="44.48614" lon="6.26773">
        <ele>891</ele>
        <time>2023-04-21T09:51:18.000Z</time>
      </trkpt>
      <trkpt lat="44.48614" lon="6.26769">
        <ele>890</ele>
        <time>2023-04-21T09:51:19.000Z</time>
      </trkpt>
      <trkpt lat="44.48613" lon="6.26763">
        <ele>889</ele>
        <time>2023-04-21T09:51:20.000Z</time>
      </trkpt>
      <trkpt lat="44.48613" lon="6.26757">
        <ele>888</ele>
        <time>2023-04-21T09:51:21.000Z</time>
      </trkpt>
      <trkpt lat="44.48613" lon="6.26752">
        <ele>888</ele>
        <time>2023-04-21T09:51:22.000Z</time>
      </trkpt>
      <trkpt lat="44.48613" lon="6.26745">
        <ele>887</ele>
        <time>2023-04-21T09:51:23.000Z</time>
      </trkpt>
      <trkpt lat="44.48612" lon="6.26738">
        <ele>886</ele>
        <time>2023-04-21T09:51:24.000Z</time>
      </trkpt>
      <trkpt lat="44.48612" lon="6.26731">
        <ele>886</ele>
        <time>2023-04-21T09:51:25.000Z</time>
      </trkpt>
      <trkpt lat="44.48614" lon="6.26724">
        <ele>885</ele>
        <time>2023-04-21T09:51:26.000Z</time>
      </trkpt>
      <trkpt lat="44.48616" lon="6.26717">
        <ele>885</ele>
        <time>2023-04-21T09:51:27.000Z</time>
      </trkpt>
      <trkpt lat="44.48619" lon="6.26711">
        <ele>884</ele>
        <time>2023-04-21T09:51:28.000Z</time>
      </trkpt>
      <trkpt lat="44.48622" lon="6.26704">
        <ele>883</ele>
        <time>2023-04-21T09:51:29.000Z</time>
      </trkpt>
      <trkpt lat="44.48625" lon="6.26698">
        <ele>883</ele>
        <time>2023-04-21T09:51:30.000Z</time>
      </trkpt>
      <trkpt lat="44.4863" lon="6.26692">
        <ele>882</ele>
        <time>2023-04-21T09:51:31.000Z</time>
      </trkpt>
      <trkpt lat="44.48634" lon="6.26687">
        <ele>881</ele>
        <time>2023-04-21T09:51:32.000Z</time>
      </trkpt>
      <trkpt lat="44.48639" lon="6.26681">
        <ele>881</ele>
        <time>2023-04-21T09:51:33.000Z</time>
      </trkpt>
      <trkpt lat="44.48643" lon="6.26675">
        <ele>880</ele>
        <time>2023-04-21T09:51:34.000Z</time>
      </trkpt>
      <trkpt lat="44.48647" lon="6.26669">
        <ele>879</ele>
        <time>2023-04-21T09:51:35.000Z</time>
      </trkpt>
      <trkpt lat="44.48651" lon="6.26662">
        <ele>878</ele>
        <time>2023-04-21T09:51:36.000Z</time>
      </trkpt>
      <trkpt lat="44.48655" lon="6.26654">
        <ele>877</ele>
        <time>2023-04-21T09:51:37.000Z</time>
      </trkpt>
      <trkpt lat="44.48658" lon="6.26647">
        <ele>877</ele>
        <time>2023-04-21T09:51:38.000Z</time>
      </trkpt>
      <trkpt lat="44.48661" lon="6.2664">
        <ele>876</ele>
        <time>2023-04-21T09:51:39.000Z</time>
      </trkpt>
      <trkpt lat="44.48664" lon="6.26632">
        <ele>876</ele>
        <time>2023-04-21T09:51:40.000Z</time>
      </trkpt>
      <trkpt lat="44.48666" lon="6.26626">
        <ele>876</ele>
        <time>2023-04-21T09:51:41.000Z</time>
      </trkpt>
      <trkpt lat="44.48669" lon="6.2662">
        <ele>875</ele>
        <time>2023-04-21T09:51:42.000Z</time>
      </trkpt>
      <trkpt lat="44.4867" lon="6.26615">
        <ele>875</ele>
        <time>2023-04-21T09:51:43.000Z</time>
      </trkpt>
      <trkpt lat="44.48669" lon="6.2661">
        <ele>875</ele>
        <time>2023-04-21T09:51:44.000Z</time>
      </trkpt>
      <trkpt lat="44.48668" lon="6.26607">
        <ele>875</ele>
        <time>2023-04-21T09:51:45.000Z</time>
      </trkpt>
      <trkpt lat="44.48667" lon="6.26607">
        <ele>876</ele>
        <time>2023-04-21T09:51:46.000Z</time>
      </trkpt>
      <trkpt lat="44.48664" lon="6.26607">
        <ele>878</ele>
        <time>2023-04-21T09:51:47.000Z</time>
      </trkpt>
      <trkpt lat="44.48661" lon="6.26609">
        <ele>878</ele>
        <time>2023-04-21T09:51:48.000Z</time>
      </trkpt>
      <trkpt lat="44.4866" lon="6.26612">
        <ele>878</ele>
        <time>2023-04-21T09:51:49.000Z</time>
      </trkpt>
      <trkpt lat="44.48662" lon="6.26615">
        <ele>879</ele>
        <time>2023-04-21T09:51:50.000Z</time>
      </trkpt>
      <trkpt lat="44.48662" lon="6.26618">
        <ele>880</ele>
        <time>2023-04-21T09:51:51.000Z</time>
      </trkpt>
      <trkpt lat="44.48662" lon="6.26621">
        <ele>880</ele>
        <time>2023-04-21T09:51:52.000Z</time>
      </trkpt>
      <trkpt lat="44.48661" lon="6.26622">
        <ele>880</ele>
        <time>2023-04-21T09:51:53.000Z</time>
      </trkpt>
      <trkpt lat="44.48654" lon="6.26623">
        <ele>880</ele>
        <time>2023-04-21T09:51:54.000Z</time>
      </trkpt>
      <trkpt lat="44.4865" lon="6.26624">
        <ele>880</ele>
        <time>2023-04-21T09:51:55.000Z</time>
      </trkpt>
      <trkpt lat="44.48646" lon="6.26624">
        <ele>881</ele>
        <time>2023-04-21T09:51:56.000Z</time>
      </trkpt>
      <trkpt lat="44.48641" lon="6.26625">
        <ele>881</ele>
        <time>2023-04-21T09:51:57.000Z</time>
      </trkpt>
      <trkpt lat="44.48637" lon="6.26625">
        <ele>882</ele>
        <time>2023-04-21T09:51:58.000Z</time>
      </trkpt>
      <trkpt lat="44.48633" lon="6.26624">
        <ele>883</ele>
        <time>2023-04-21T09:51:59.000Z</time>
      </trkpt>
      <trkpt lat="44.48628" lon="6.26623">
        <ele>884</ele>
        <time>2023-04-21T09:52:00.000Z</time>
      </trkpt>
      <trkpt lat="44.48625" lon="6.26622">
        <ele>884</ele>
        <time>2023-04-21T09:52:01.000Z</time>
      </trkpt>
      <trkpt lat="44.48621" lon="6.26621">
        <ele>884</ele>
        <time>2023-04-21T09:52:02.000Z</time>
      </trkpt>
      <trkpt lat="44.48617" lon="6.26619">
        <ele>884</ele>
        <time>2023-04-21T09:52:03.000Z</time>
      </trkpt>
      <trkpt lat="44.48613" lon="6.26618">
        <ele>884</ele>
        <time>2023-04-21T09:52:04.000Z</time>
      </trkpt>
      <trkpt lat="44.4861" lon="6.26616">
        <ele>884</ele>
        <time>2023-04-21T09:52:05.000Z</time>
      </trkpt>
      <trkpt lat="44.48607" lon="6.26612">
        <ele>884</ele>
        <time>2023-04-21T09:52:06.000Z</time>
      </trkpt>
      <trkpt lat="44.48605" lon="6.26607">
        <ele>883</ele>
        <time>2023-04-21T09:52:07.000Z</time>
      </trkpt>
      <trkpt lat="44.48604" lon="6.26601">
        <ele>883</ele>
        <time>2023-04-21T09:52:08.000Z</time>
      </trkpt>
      <trkpt lat="44.48604" lon="6.26595">
        <ele>882</ele>
        <time>2023-04-21T09:52:09.000Z</time>
      </trkpt>
      <trkpt lat="44.48603" lon="6.26587">
        <ele>880</ele>
        <time>2023-04-21T09:52:10.000Z</time>
      </trkpt>
      <trkpt lat="44.48602" lon="6.26579">
        <ele>880</ele>
        <time>2023-04-21T09:52:11.000Z</time>
      </trkpt>
      <trkpt lat="44.48602" lon="6.26571">
        <ele>879</ele>
        <time>2023-04-21T09:52:12.000Z</time>
      </trkpt>
      <trkpt lat="44.48602" lon="6.26563">
        <ele>879</ele>
        <time>2023-04-21T09:52:13.000Z</time>
      </trkpt>
      <trkpt lat="44.48603" lon="6.26556">
        <ele>878</ele>
        <time>2023-04-21T09:52:14.000Z</time>
      </trkpt>
      <trkpt lat="44.48604" lon="6.2655">
        <ele>878</ele>
        <time>2023-04-21T09:52:15.000Z</time>
      </trkpt>
      <trkpt lat="44.48605" lon="6.26544">
        <ele>878</ele>
        <time>2023-04-21T09:52:16.000Z</time>
      </trkpt>
      <trkpt lat="44.48606" lon="6.26539">
        <ele>878</ele>
        <time>2023-04-21T09:52:17.000Z</time>
      </trkpt>
      <trkpt lat="44.48606" lon="6.26534">
        <ele>878</ele>
        <time>2023-04-21T09:52:18.000Z</time>
      </trkpt>
      <trkpt lat="44.48604" lon="6.2653">
        <ele>877</ele>
        <time>2023-04-21T09:52:19.000Z</time>
      </trkpt>
      <trkpt lat="44.486" lon="6.26527">
        <ele>878</ele>
        <time>2023-04-21T09:52:20.000Z</time>
      </trkpt>
      <trkpt lat="44.48598" lon="6.26526">
        <ele>878</ele>
        <time>2023-04-21T09:52:21.000Z</time>
      </trkpt>
      <trkpt lat="44.48595" lon="6.26526">
        <ele>879</ele>
        <time>2023-04-21T09:52:22.000Z</time>
      </trkpt>
      <trkpt lat="44.48595" lon="6.26527">
        <ele>879</ele>
        <time>2023-04-21T09:52:23.000Z</time>
      </trkpt>
      <trkpt lat="44.48593" lon="6.2653">
        <ele>879</ele>
        <time>2023-04-21T09:52:24.000Z</time>
      </trkpt>
      <trkpt lat="44.48592" lon="6.26532">
        <ele>880</ele>
        <time>2023-04-21T09:52:25.000Z</time>
      </trkpt>
      <trkpt lat="44.48592" lon="6.26535">
        <ele>880</ele>
        <time>2023-04-21T09:52:26.000Z</time>
      </trkpt>
      <trkpt lat="44.48589" lon="6.26537">
        <ele>881</ele>
        <time>2023-04-21T09:52:27.000Z</time>
      </trkpt>
      <trkpt lat="44.48587" lon="6.2654">
        <ele>881</ele>
        <time>2023-04-21T09:52:28.000Z</time>
      </trkpt>
      <trkpt lat="44.48584" lon="6.26544">
        <ele>881</ele>
        <time>2023-04-21T09:52:29.000Z</time>
      </trkpt>
      <trkpt lat="44.48583" lon="6.26548">
        <ele>882</ele>
        <time>2023-04-21T09:52:30.000Z</time>
      </trkpt>
      <trkpt lat="44.48581" lon="6.26551">
        <ele>882</ele>
        <time>2023-04-21T09:52:31.000Z</time>
      </trkpt>
      <trkpt lat="44.4858" lon="6.26554">
        <ele>882</ele>
        <time>2023-04-21T09:52:32.000Z</time>
      </trkpt>
      <trkpt lat="44.48579" lon="6.26557">
        <ele>882</ele>
        <time>2023-04-21T09:52:33.000Z</time>
      </trkpt>
      <trkpt lat="44.48578" lon="6.26561">
        <ele>882</ele>
        <time>2023-04-21T09:52:34.000Z</time>
      </trkpt>
      <trkpt lat="44.48577" lon="6.26564">
        <ele>883</ele>
        <time>2023-04-21T09:52:35.000Z</time>
      </trkpt>
      <trkpt lat="44.48575" lon="6.26567">
        <ele>883</ele>
        <time>2023-04-21T09:52:36.000Z</time>
      </trkpt>
      <trkpt lat="44.48573" lon="6.2657">
        <ele>883</ele>
        <time>2023-04-21T09:52:37.000Z</time>
      </trkpt>
      <trkpt lat="44.48571" lon="6.26572">
        <ele>884</ele>
        <time>2023-04-21T09:52:38.000Z</time>
      </trkpt>
      <trkpt lat="44.48569" lon="6.26574">
        <ele>885</ele>
        <time>2023-04-21T09:52:39.000Z</time>
      </trkpt>
      <trkpt lat="44.48565" lon="6.26574">
        <ele>885</ele>
        <time>2023-04-21T09:52:40.000Z</time>
      </trkpt>
      <trkpt lat="44.48563" lon="6.26576">
        <ele>886</ele>
        <time>2023-04-21T09:52:41.000Z</time>
      </trkpt>
      <trkpt lat="44.4856" lon="6.26577">
        <ele>886</ele>
        <time>2023-04-21T09:52:42.000Z</time>
      </trkpt>
      <trkpt lat="44.48559" lon="6.2658">
        <ele>887</ele>
        <time>2023-04-21T09:52:43.000Z</time>
      </trkpt>
      <trkpt lat="44.48557" lon="6.26583">
        <ele>887</ele>
        <time>2023-04-21T09:52:44.000Z</time>
      </trkpt>
      <trkpt lat="44.48555" lon="6.26585">
        <ele>887</ele>
        <time>2023-04-21T09:52:45.000Z</time>
      </trkpt>
      <trkpt lat="44.48553" lon="6.26589">
        <ele>888</ele>
        <time>2023-04-21T09:52:46.000Z</time>
      </trkpt>
      <trkpt lat="44.48552" lon="6.26592">
        <ele>888</ele>
        <time>2023-04-21T09:52:47.000Z</time>
      </trkpt>
      <trkpt lat="44.4855" lon="6.26594">
        <ele>888</ele>
        <time>2023-04-21T09:52:48.000Z</time>
      </trkpt>
      <trkpt lat="44.48548" lon="6.26596">
        <ele>888</ele>
        <time>2023-04-21T09:52:49.000Z</time>
      </trkpt>
      <trkpt lat="44.48547" lon="6.26598">
        <ele>889</ele>
        <time>2023-04-21T09:52:50.000Z</time>
      </trkpt>
      <trkpt lat="44.48543" lon="6.266">
        <ele>889</ele>
        <time>2023-04-21T09:52:51.000Z</time>
      </trkpt>
      <trkpt lat="44.4854" lon="6.26602">
        <ele>889</ele>
        <time>2023-04-21T09:52:52.000Z</time>
      </trkpt>
      <trkpt lat="44.48537" lon="6.26604">
        <ele>889</ele>
        <time>2023-04-21T09:52:53.000Z</time>
      </trkpt>
      <trkpt lat="44.48535" lon="6.26607">
        <ele>890</ele>
        <time>2023-04-21T09:52:54.000Z</time>
      </trkpt>
      <trkpt lat="44.48535" lon="6.26609">
        <ele>890</ele>
        <time>2023-04-21T09:52:55.000Z</time>
      </trkpt>
      <trkpt lat="44.48533" lon="6.26612">
        <ele>890</ele>
        <time>2023-04-21T09:52:56.000Z</time>
      </trkpt>
      <trkpt lat="44.48531" lon="6.26614">
        <ele>891</ele>
        <time>2023-04-21T09:52:57.000Z</time>
      </trkpt>
      <trkpt lat="44.4853" lon="6.26617">
        <ele>891</ele>
        <time>2023-04-21T09:52:58.000Z</time>
      </trkpt>
      <trkpt lat="44.48528" lon="6.2662">
        <ele>891</ele>
        <time>2023-04-21T09:52:59.000Z</time>
      </trkpt>
      <trkpt lat="44.48527" lon="6.26624">
        <ele>891</ele>
        <time>2023-04-21T09:53:00.000Z</time>
      </trkpt>
      <trkpt lat="44.48526" lon="6.26627">
        <ele>892</ele>
        <time>2023-04-21T09:53:01.000Z</time>
      </trkpt>
      <trkpt lat="44.48524" lon="6.26631">
        <ele>892</ele>
        <time>2023-04-21T09:53:02.000Z</time>
      </trkpt>
      <trkpt lat="44.48523" lon="6.26633">
        <ele>893</ele>
        <time>2023-04-21T09:53:03.000Z</time>
      </trkpt>
      <trkpt lat="44.48521" lon="6.26636">
        <ele>892</ele>
        <time>2023-04-21T09:53:04.000Z</time>
      </trkpt>
      <trkpt lat="44.48517" lon="6.26637">
        <ele>892</ele>
        <time>2023-04-21T09:53:05.000Z</time>
      </trkpt>
      <trkpt lat="44.48514" lon="6.26638">
        <ele>892</ele>
        <time>2023-04-21T09:53:06.000Z</time>
      </trkpt>
      <trkpt lat="44.48507" lon="6.26639">
        <ele>890</ele>
        <time>2023-04-21T09:53:07.000Z</time>
      </trkpt>
      <trkpt lat="44.48504" lon="6.2664">
        <ele>890</ele>
        <time>2023-04-21T09:53:08.000Z</time>
      </trkpt>
      <trkpt lat="44.485" lon="6.26639">
        <ele>890</ele>
        <time>2023-04-21T09:53:09.000Z</time>
      </trkpt>
      <trkpt lat="44.48496" lon="6.26639">
        <ele>889</ele>
        <time>2023-04-21T09:53:10.000Z</time>
      </trkpt>
      <trkpt lat="44.48492" lon="6.26637">
        <ele>888</ele>
        <time>2023-04-21T09:53:11.000Z</time>
      </trkpt>
      <trkpt lat="44.48487" lon="6.26636">
        <ele>887</ele>
        <time>2023-04-21T09:53:12.000Z</time>
      </trkpt>
      <trkpt lat="44.48484" lon="6.26634">
        <ele>887</ele>
        <time>2023-04-21T09:53:13.000Z</time>
      </trkpt>
      <trkpt lat="44.4848" lon="6.26632">
        <ele>886</ele>
        <time>2023-04-21T09:53:14.000Z</time>
      </trkpt>
      <trkpt lat="44.48476" lon="6.2663">
        <ele>885</ele>
        <time>2023-04-21T09:53:15.000Z</time>
      </trkpt>
      <trkpt lat="44.48472" lon="6.26627">
        <ele>884</ele>
        <time>2023-04-21T09:53:16.000Z</time>
      </trkpt>
      <trkpt lat="44.48469" lon="6.26625">
        <ele>883</ele>
        <time>2023-04-21T09:53:17.000Z</time>
      </trkpt>
      <trkpt lat="44.48466" lon="6.26622">
        <ele>882</ele>
        <time>2023-04-21T09:53:18.000Z</time>
      </trkpt>
      <trkpt lat="44.48463" lon="6.2662">
        <ele>882</ele>
        <time>2023-04-21T09:53:19.000Z</time>
      </trkpt>
      <trkpt lat="44.48461" lon="6.26617">
        <ele>881</ele>
        <time>2023-04-21T09:53:20.000Z</time>
      </trkpt>
      <trkpt lat="44.48458" lon="6.26613">
        <ele>880</ele>
        <time>2023-04-21T09:53:21.000Z</time>
      </trkpt>
      <trkpt lat="44.48456" lon="6.2661">
        <ele>880</ele>
        <time>2023-04-21T09:53:22.000Z</time>
      </trkpt>
      <trkpt lat="44.48452" lon="6.26607">
        <ele>879</ele>
        <time>2023-04-21T09:53:23.000Z</time>
      </trkpt>
      <trkpt lat="44.48449" lon="6.26603">
        <ele>879</ele>
        <time>2023-04-21T09:53:24.000Z</time>
      </trkpt>
      <trkpt lat="44.48447" lon="6.266">
        <ele>879</ele>
        <time>2023-04-21T09:53:25.000Z</time>
      </trkpt>
      <trkpt lat="44.48445" lon="6.26598">
        <ele>879</ele>
        <time>2023-04-21T09:53:26.000Z</time>
      </trkpt>
      <trkpt lat="44.48442" lon="6.26596">
        <ele>879</ele>
        <time>2023-04-21T09:53:27.000Z</time>
      </trkpt>
      <trkpt lat="44.4844" lon="6.26594">
        <ele>879</ele>
        <time>2023-04-21T09:53:28.000Z</time>
      </trkpt>
      <trkpt lat="44.48437" lon="6.26592">
        <ele>878</ele>
        <time>2023-04-21T09:53:29.000Z</time>
      </trkpt>
      <trkpt lat="44.48435" lon="6.26591">
        <ele>878</ele>
        <time>2023-04-21T09:53:30.000Z</time>
      </trkpt>
      <trkpt lat="44.48434" lon="6.2659">
        <ele>877</ele>
        <time>2023-04-21T09:53:31.000Z</time>
      </trkpt>
      <trkpt lat="44.48433" lon="6.26589">
        <ele>877</ele>
        <time>2023-04-21T09:53:32.000Z</time>
      </trkpt>
      <trkpt lat="44.48432" lon="6.26589">
        <ele>876</ele>
        <time>2023-04-21T09:53:33.000Z</time>
      </trkpt>
      <trkpt lat="44.48432" lon="6.26589">
        <ele>876</ele>
        <time>2023-04-21T09:53:34.000Z</time>
      </trkpt>
      <trkpt lat="44.48431" lon="6.26589">
        <ele>876</ele>
        <time>2023-04-21T09:53:35.000Z</time>
      </trkpt>
      <trkpt lat="44.4843" lon="6.26589">
        <ele>876</ele>
        <time>2023-04-21T09:53:36.000Z</time>
      </trkpt>
      <trkpt lat="44.4843" lon="6.26588">
        <ele>876</ele>
        <time>2023-04-21T09:53:37.000Z</time>
      </trkpt>
      <trkpt lat="44.48429" lon="6.26588">
        <ele>876</ele>
        <time>2023-04-21T09:53:38.000Z</time>
      </trkpt>
      <trkpt lat="44.48427" lon="6.26588">
        <ele>875</ele>
        <time>2023-04-21T09:53:39.000Z</time>
      </trkpt>
      <trkpt lat="44.48426" lon="6.26588">
        <ele>875</ele>
        <time>2023-04-21T09:53:40.000Z</time>
      </trkpt>
      <trkpt lat="44.48424" lon="6.26587">
        <ele>876</ele>
        <time>2023-04-21T09:53:41.000Z</time>
      </trkpt>
      <trkpt lat="44.48422" lon="6.26585">
        <ele>876</ele>
        <time>2023-04-21T09:53:42.000Z</time>
      </trkpt>
      <trkpt lat="44.48419" lon="6.26584">
        <ele>876</ele>
        <time>2023-04-21T09:53:43.000Z</time>
      </trkpt>
      <trkpt lat="44.48416" lon="6.26582">
        <ele>876</ele>
        <time>2023-04-21T09:53:44.000Z</time>
      </trkpt>
      <trkpt lat="44.48413" lon="6.26581">
        <ele>876</ele>
        <time>2023-04-21T09:53:45.000Z</time>
      </trkpt>
      <trkpt lat="44.4841" lon="6.2658">
        <ele>877</ele>
        <time>2023-04-21T09:53:46.000Z</time>
      </trkpt>
      <trkpt lat="44.48407" lon="6.26579">
        <ele>877</ele>
        <time>2023-04-21T09:53:47.000Z</time>
      </trkpt>
      <trkpt lat="44.48403" lon="6.26577">
        <ele>878</ele>
        <time>2023-04-21T09:53:48.000Z</time>
      </trkpt>
      <trkpt lat="44.48399" lon="6.26575">
        <ele>878</ele>
        <time>2023-04-21T09:53:49.000Z</time>
      </trkpt>
      <trkpt lat="44.48396" lon="6.26571">
        <ele>877</ele>
        <time>2023-04-21T09:53:50.000Z</time>
      </trkpt>
      <trkpt lat="44.48393" lon="6.26566">
        <ele>877</ele>
        <time>2023-04-21T09:53:51.000Z</time>
      </trkpt>
      <trkpt lat="44.48391" lon="6.2656">
        <ele>877</ele>
        <time>2023-04-21T09:53:52.000Z</time>
      </trkpt>
      <trkpt lat="44.4839" lon="6.26554">
        <ele>877</ele>
        <time>2023-04-21T09:53:53.000Z</time>
      </trkpt>
      <trkpt lat="44.48389" lon="6.26547">
        <ele>876</ele>
        <time>2023-04-21T09:53:54.000Z</time>
      </trkpt>
      <trkpt lat="44.48388" lon="6.2654">
        <ele>876</ele>
        <time>2023-04-21T09:53:55.000Z</time>
      </trkpt>
      <trkpt lat="44.48386" lon="6.26534">
        <ele>876</ele>
        <time>2023-04-21T09:53:56.000Z</time>
      </trkpt>
      <trkpt lat="44.48385" lon="6.26529">
        <ele>876</ele>
        <time>2023-04-21T09:53:57.000Z</time>
      </trkpt>
      <trkpt lat="44.48385" lon="6.26525">
        <ele>876</ele>
        <time>2023-04-21T09:53:58.000Z</time>
      </trkpt>
      <trkpt lat="44.48382" lon="6.26522">
        <ele>875</ele>
        <time>2023-04-21T09:53:59.000Z</time>
      </trkpt>
      <trkpt lat="44.4838" lon="6.26518">
        <ele>875</ele>
        <time>2023-04-21T09:54:00.000Z</time>
      </trkpt>
      <trkpt lat="44.48377" lon="6.26517">
        <ele>875</ele>
        <time>2023-04-21T09:54:01.000Z</time>
      </trkpt>
      <trkpt lat="44.48374" lon="6.26518">
        <ele>875</ele>
        <time>2023-04-21T09:54:02.000Z</time>
      </trkpt>
      <trkpt lat="44.48372" lon="6.26521">
        <ele>875</ele>
        <time>2023-04-21T09:54:03.000Z</time>
      </trkpt>
      <trkpt lat="44.4837" lon="6.26526">
        <ele>876</ele>
        <time>2023-04-21T09:54:04.000Z</time>
      </trkpt>
      <trkpt lat="44.48369" lon="6.26533">
        <ele>877</ele>
        <time>2023-04-21T09:54:05.000Z</time>
      </trkpt>
      <trkpt lat="44.48367" lon="6.26538">
        <ele>877</ele>
        <time>2023-04-21T09:54:06.000Z</time>
      </trkpt>
      <trkpt lat="44.48364" lon="6.26544">
        <ele>877</ele>
        <time>2023-04-21T09:54:07.000Z</time>
      </trkpt>
      <trkpt lat="44.48363" lon="6.2655">
        <ele>877</ele>
        <time>2023-04-21T09:54:08.000Z</time>
      </trkpt>
      <trkpt lat="44.48361" lon="6.26556">
        <ele>876</ele>
        <time>2023-04-21T09:54:09.000Z</time>
      </trkpt>
      <trkpt lat="44.48359" lon="6.26561">
        <ele>877</ele>
        <time>2023-04-21T09:54:10.000Z</time>
      </trkpt>
      <trkpt lat="44.48358" lon="6.26566">
        <ele>877</ele>
        <time>2023-04-21T09:54:11.000Z</time>
      </trkpt>
      <trkpt lat="44.48357" lon="6.2657">
        <ele>878</ele>
        <time>2023-04-21T09:54:12.000Z</time>
      </trkpt>
      <trkpt lat="44.48355" lon="6.26574">
        <ele>878</ele>
        <time>2023-04-21T09:54:13.000Z</time>
      </trkpt>
      <trkpt lat="44.48352" lon="6.26578">
        <ele>879</ele>
        <time>2023-04-21T09:54:14.000Z</time>
      </trkpt>
      <trkpt lat="44.48351" lon="6.26582">
        <ele>879</ele>
        <time>2023-04-21T09:54:15.000Z</time>
      </trkpt>
      <trkpt lat="44.4835" lon="6.26587">
        <ele>879</ele>
        <time>2023-04-21T09:54:16.000Z</time>
      </trkpt>
      <trkpt lat="44.48348" lon="6.26592">
        <ele>880</ele>
        <time>2023-04-21T09:54:17.000Z</time>
      </trkpt>
      <trkpt lat="44.48347" lon="6.26597">
        <ele>881</ele>
        <time>2023-04-21T09:54:18.000Z</time>
      </trkpt>
      <trkpt lat="44.48345" lon="6.26604">
        <ele>882</ele>
        <time>2023-04-21T09:54:19.000Z</time>
      </trkpt>
      <trkpt lat="44.48343" lon="6.26611">
        <ele>883</ele>
        <time>2023-04-21T09:54:20.000Z</time>
      </trkpt>
      <trkpt lat="44.48342" lon="6.26618">
        <ele>884</ele>
        <time>2023-04-21T09:54:21.000Z</time>
      </trkpt>
      <trkpt lat="44.4834" lon="6.26626">
        <ele>884</ele>
        <time>2023-04-21T09:54:22.000Z</time>
      </trkpt>
      <trkpt lat="44.48339" lon="6.26633">
        <ele>885</ele>
        <time>2023-04-21T09:54:23.000Z</time>
      </trkpt>
      <trkpt lat="44.48336" lon="6.26639">
        <ele>886</ele>
        <time>2023-04-21T09:54:24.000Z</time>
      </trkpt>
      <trkpt lat="44.48335" lon="6.26645">
        <ele>887</ele>
        <time>2023-04-21T09:54:25.000Z</time>
      </trkpt>
      <trkpt lat="44.48334" lon="6.2665">
        <ele>888</ele>
        <time>2023-04-21T09:54:26.000Z</time>
      </trkpt>
      <trkpt lat="44.48333" lon="6.26654">
        <ele>888</ele>
        <time>2023-04-21T09:54:27.000Z</time>
      </trkpt>
      <trkpt lat="44.48332" lon="6.2666">
        <ele>889</ele>
        <time>2023-04-21T09:54:28.000Z</time>
      </trkpt>
      <trkpt lat="44.48329" lon="6.26665">
        <ele>889</ele>
        <time>2023-04-21T09:54:29.000Z</time>
      </trkpt>
      <trkpt lat="44.48325" lon="6.2667">
        <ele>890</ele>
        <time>2023-04-21T09:54:30.000Z</time>
      </trkpt>
      <trkpt lat="44.4832" lon="6.26675">
        <ele>889</ele>
        <time>2023-04-21T09:54:31.000Z</time>
      </trkpt>
      <trkpt lat="44.48317" lon="6.26679">
        <ele>890</ele>
        <time>2023-04-21T09:54:32.000Z</time>
      </trkpt>
      <trkpt lat="44.48316" lon="6.26682">
        <ele>888</ele>
        <time>2023-04-21T09:54:33.000Z</time>
      </trkpt>
      <trkpt lat="44.48311" lon="6.26686">
        <ele>886</ele>
        <time>2023-04-21T09:54:34.000Z</time>
      </trkpt>
      <trkpt lat="44.48309" lon="6.2669">
        <ele>885</ele>
        <time>2023-04-21T09:54:35.000Z</time>
      </trkpt>
      <trkpt lat="44.48304" lon="6.26692">
        <ele>883</ele>
        <time>2023-04-21T09:54:36.000Z</time>
      </trkpt>
      <trkpt lat="44.483" lon="6.26694">
        <ele>881</ele>
        <time>2023-04-21T09:54:37.000Z</time>
      </trkpt>
      <trkpt lat="44.48299" lon="6.26696">
        <ele>880</ele>
        <time>2023-04-21T09:54:38.000Z</time>
      </trkpt>
      <trkpt lat="44.48298" lon="6.26699">
        <ele>878</ele>
        <time>2023-04-21T09:54:39.000Z</time>
      </trkpt>
      <trkpt lat="44.48298" lon="6.26701">
        <ele>877</ele>
        <time>2023-04-21T09:54:40.000Z</time>
      </trkpt>
      <trkpt lat="44.48297" lon="6.26703">
        <ele>877</ele>
        <time>2023-04-21T09:54:41.000Z</time>
      </trkpt>
      <trkpt lat="44.48296" lon="6.26705">
        <ele>877</ele>
        <time>2023-04-21T09:54:42.000Z</time>
      </trkpt>
      <trkpt lat="44.48294" lon="6.26707">
        <ele>876</ele>
        <time>2023-04-21T09:54:43.000Z</time>
      </trkpt>
      <trkpt lat="44.48292" lon="6.26711">
        <ele>877</ele>
        <time>2023-04-21T09:54:44.000Z</time>
      </trkpt>
      <trkpt lat="44.4829" lon="6.26717">
        <ele>877</ele>
        <time>2023-04-21T09:54:45.000Z</time>
      </trkpt>
      <trkpt lat="44.4829" lon="6.26725">
        <ele>877</ele>
        <time>2023-04-21T09:54:46.000Z</time>
      </trkpt>
      <trkpt lat="44.48289" lon="6.26732">
        <ele>876</ele>
        <time>2023-04-21T09:54:47.000Z</time>
      </trkpt>
      <trkpt lat="44.48286" lon="6.26738">
        <ele>876</ele>
        <time>2023-04-21T09:54:48.000Z</time>
      </trkpt>
      <trkpt lat="44.48285" lon="6.26742">
        <ele>875</ele>
        <time>2023-04-21T09:54:49.000Z</time>
      </trkpt>
      <trkpt lat="44.48283" lon="6.26745">
        <ele>875</ele>
        <time>2023-04-21T09:54:50.000Z</time>
      </trkpt>
      <trkpt lat="44.4828" lon="6.26748">
        <ele>875</ele>
        <time>2023-04-21T09:54:51.000Z</time>
      </trkpt>
      <trkpt lat="44.48278" lon="6.26752">
        <ele>874</ele>
        <time>2023-04-21T09:54:52.000Z</time>
      </trkpt>
      <trkpt lat="44.48276" lon="6.26755">
        <ele>874</ele>
        <time>2023-04-21T09:54:53.000Z</time>
      </trkpt>
      <trkpt lat="44.48273" lon="6.26759">
        <ele>873</ele>
        <time>2023-04-21T09:54:54.000Z</time>
      </trkpt>
      <trkpt lat="44.48271" lon="6.26763">
        <ele>873</ele>
        <time>2023-04-21T09:54:55.000Z</time>
      </trkpt>
      <trkpt lat="44.4827" lon="6.26768">
        <ele>874</ele>
        <time>2023-04-21T09:54:56.000Z</time>
      </trkpt>
      <trkpt lat="44.48267" lon="6.26773">
        <ele>874</ele>
        <time>2023-04-21T09:54:57.000Z</time>
      </trkpt>
      <trkpt lat="44.48264" lon="6.26779">
        <ele>874</ele>
        <time>2023-04-21T09:54:58.000Z</time>
      </trkpt>
      <trkpt lat="44.48261" lon="6.26786">
        <ele>873</ele>
        <time>2023-04-21T09:54:59.000Z</time>
      </trkpt>
      <trkpt lat="44.48258" lon="6.26792">
        <ele>873</ele>
        <time>2023-04-21T09:55:00.000Z</time>
      </trkpt>
      <trkpt lat="44.48255" lon="6.26798">
        <ele>873</ele>
        <time>2023-04-21T09:55:01.000Z</time>
      </trkpt>
      <trkpt lat="44.48252" lon="6.26804">
        <ele>872</ele>
        <time>2023-04-21T09:55:02.000Z</time>
      </trkpt>
      <trkpt lat="44.48249" lon="6.2681">
        <ele>872</ele>
        <time>2023-04-21T09:55:03.000Z</time>
      </trkpt>
      <trkpt lat="44.48246" lon="6.26813">
        <ele>871</ele>
        <time>2023-04-21T09:55:04.000Z</time>
      </trkpt>
      <trkpt lat="44.48243" lon="6.26817">
        <ele>870</ele>
        <time>2023-04-21T09:55:05.000Z</time>
      </trkpt>
      <trkpt lat="44.48241" lon="6.26822">
        <ele>870</ele>
        <time>2023-04-21T09:55:06.000Z</time>
      </trkpt>
      <trkpt lat="44.4824" lon="6.26825">
        <ele>870</ele>
        <time>2023-04-21T09:55:07.000Z</time>
      </trkpt>
      <trkpt lat="44.48239" lon="6.26827">
        <ele>869</ele>
        <time>2023-04-21T09:55:08.000Z</time>
      </trkpt>
      <trkpt lat="44.48238" lon="6.26831">
        <ele>869</ele>
        <time>2023-04-21T09:55:09.000Z</time>
      </trkpt>
      <trkpt lat="44.48237" lon="6.26835">
        <ele>868</ele>
        <time>2023-04-21T09:55:10.000Z</time>
      </trkpt>
      <trkpt lat="44.48235" lon="6.26839">
        <ele>867</ele>
        <time>2023-04-21T09:55:11.000Z</time>
      </trkpt>
      <trkpt lat="44.48232" lon="6.26844">
        <ele>867</ele>
        <time>2023-04-21T09:55:12.000Z</time>
      </trkpt>
      <trkpt lat="44.4823" lon="6.26851">
        <ele>868</ele>
        <time>2023-04-21T09:55:13.000Z</time>
      </trkpt>
      <trkpt lat="44.48229" lon="6.26857">
        <ele>867</ele>
        <time>2023-04-21T09:55:14.000Z</time>
      </trkpt>
      <trkpt lat="44.48228" lon="6.26861">
        <ele>867</ele>
        <time>2023-04-21T09:55:15.000Z</time>
      </trkpt>
      <trkpt lat="44.48227" lon="6.26865">
        <ele>867</ele>
        <time>2023-04-21T09:55:16.000Z</time>
      </trkpt>
      <trkpt lat="44.48225" lon="6.26866">
        <ele>866</ele>
        <time>2023-04-21T09:55:17.000Z</time>
      </trkpt>
      <trkpt lat="44.48222" lon="6.26868">
        <ele>864</ele>
        <time>2023-04-21T09:55:18.000Z</time>
      </trkpt>
      <trkpt lat="44.48219" lon="6.26869">
        <ele>861</ele>
        <time>2023-04-21T09:55:19.000Z</time>
      </trkpt>
      <trkpt lat="44.48218" lon="6.2687">
        <ele>859</ele>
        <time>2023-04-21T09:55:20.000Z</time>
      </trkpt>
      <trkpt lat="44.48217" lon="6.26871">
        <ele>857</ele>
        <time>2023-04-21T09:55:21.000Z</time>
      </trkpt>
      <trkpt lat="44.48217" lon="6.26872">
        <ele>856</ele>
        <time>2023-04-21T09:55:22.000Z</time>
      </trkpt>
      <trkpt lat="44.48217" lon="6.26873">
        <ele>855</ele>
        <time>2023-04-21T09:55:23.000Z</time>
      </trkpt>
      <trkpt lat="44.48216" lon="6.26874">
        <ele>855</ele>
        <time>2023-04-21T09:55:24.000Z</time>
      </trkpt>
      <trkpt lat="44.48216" lon="6.26875">
        <ele>854</ele>
        <time>2023-04-21T09:55:25.000Z</time>
      </trkpt>
      <trkpt lat="44.48216" lon="6.26876">
        <ele>854</ele>
        <time>2023-04-21T09:55:26.000Z</time>
      </trkpt>
      <trkpt lat="44.48216" lon="6.26876">
        <ele>853</ele>
        <time>2023-04-21T09:55:27.000Z</time>
      </trkpt>
      <trkpt lat="44.48215" lon="6.26877">
        <ele>853</ele>
        <time>2023-04-21T09:55:28.000Z</time>
      </trkpt>
      <trkpt lat="44.48215" lon="6.26877">
        <ele>852</ele>
        <time>2023-04-21T09:55:29.000Z</time>
      </trkpt>
      <trkpt lat="44.48215" lon="6.26878">
        <ele>852</ele>
        <time>2023-04-21T09:55:30.000Z</time>
      </trkpt>
      <trkpt lat="44.48215" lon="6.26878">
        <ele>851</ele>
        <time>2023-04-21T09:55:31.000Z</time>
      </trkpt>
      <trkpt lat="44.48215" lon="6.26879">
        <ele>850</ele>
        <time>2023-04-21T09:55:32.000Z</time>
      </trkpt>
      <trkpt lat="44.48215" lon="6.26879">
        <ele>850</ele>
        <time>2023-04-21T09:55:33.000Z</time>
      </trkpt>
      <trkpt lat="44.48215" lon="6.2688">
        <ele>849</ele>
        <time>2023-04-21T09:55:34.000Z</time>
      </trkpt>
      <trkpt lat="44.48215" lon="6.2688">
        <ele>849</ele>
        <time>2023-04-21T09:55:35.000Z</time>
      </trkpt>
      <trkpt lat="44.48214" lon="6.2688">
        <ele>848</ele>
        <time>2023-04-21T09:55:36.000Z</time>
      </trkpt>
      <trkpt lat="44.48214" lon="6.26881">
        <ele>848</ele>
        <time>2023-04-21T09:55:37.000Z</time>
      </trkpt>
      <trkpt lat="44.48214" lon="6.26881">
        <ele>847</ele>
        <time>2023-04-21T09:55:38.000Z</time>
      </trkpt>
      <trkpt lat="44.48214" lon="6.26881">
        <ele>847</ele>
        <time>2023-04-21T09:55:39.000Z</time>
      </trkpt>
      <trkpt lat="44.48214" lon="6.26881">
        <ele>846</ele>
        <time>2023-04-21T09:55:40.000Z</time>
      </trkpt>
      <trkpt lat="44.48214" lon="6.26882">
        <ele>846</ele>
        <time>2023-04-21T09:55:41.000Z</time>
      </trkpt>
      <trkpt lat="44.48214" lon="6.26882">
        <ele>845</ele>
        <time>2023-04-21T09:55:42.000Z</time>
      </trkpt>
      <trkpt lat="44.48214" lon="6.26882">
        <ele>845</ele>
        <time>2023-04-21T09:55:43.000Z</time>
      </trkpt>
      <trkpt lat="44.48214" lon="6.26882">
        <ele>844</ele>
        <time>2023-04-21T09:55:44.000Z</time>
      </trkpt>
      <trkpt lat="44.48214" lon="6.26882">
        <ele>843</ele>
        <time>2023-04-21T09:55:45.000Z</time>
      </trkpt>
      <trkpt lat="44.48213" lon="6.26882">
        <ele>843</ele>
        <time>2023-04-21T09:55:46.000Z</time>
      </trkpt>
      <trkpt lat="44.48213" lon="6.26882">
        <ele>842</ele>
        <time>2023-04-21T09:55:47.000Z</time>
      </trkpt>
      <trkpt lat="44.48213" lon="6.26882">
        <ele>842</ele>
        <time>2023-04-21T09:55:48.000Z</time>
      </trkpt>
      <trkpt lat="44.48213" lon="6.26883">
        <ele>842</ele>
        <time>2023-04-21T09:55:49.000Z</time>
      </trkpt>
      <trkpt lat="44.48213" lon="6.26883">
        <ele>841</ele>
        <time>2023-04-21T09:55:50.000Z</time>
      </trkpt>
      <trkpt lat="44.48213" lon="6.26883">
        <ele>841</ele>
        <time>2023-04-21T09:55:51.000Z</time>
      </trkpt>
      <trkpt lat="44.48212" lon="6.26883">
        <ele>840</ele>
        <time>2023-04-21T09:55:52.000Z</time>
      </trkpt>
      <trkpt lat="44.48212" lon="6.26883">
        <ele>840</ele>
        <time>2023-04-21T09:55:53.000Z</time>
      </trkpt>
      <trkpt lat="44.48212" lon="6.26883">
        <ele>839</ele>
        <time>2023-04-21T09:55:54.000Z</time>
      </trkpt>
      <trkpt lat="44.48212" lon="6.26883">
        <ele>839</ele>
        <time>2023-04-21T09:55:55.000Z</time>
      </trkpt>
      <trkpt lat="44.48212" lon="6.26883">
        <ele>839</ele>
        <time>2023-04-21T09:55:56.000Z</time>
      </trkpt>
      <trkpt lat="44.48212" lon="6.26883">
        <ele>838</ele>
        <time>2023-04-21T09:55:57.000Z</time>
      </trkpt>
      <trkpt lat="44.48212" lon="6.26883">
        <ele>838</ele>
        <time>2023-04-21T09:55:58.000Z</time>
      </trkpt>
      <trkpt lat="44.48212" lon="6.26883">
        <ele>838</ele>
        <time>2023-04-21T09:55:59.000Z</time>
      </trkpt>
      <trkpt lat="44.48211" lon="6.26883">
        <ele>838</ele>
        <time>2023-04-21T09:56:00.000Z</time>
      </trkpt>
      <trkpt lat="44.48211" lon="6.26883">
        <ele>837</ele>
        <time>2023-04-21T09:56:01.000Z</time>
      </trkpt>
      <trkpt lat="44.48211" lon="6.26883">
        <ele>837</ele>
        <time>2023-04-21T09:56:02.000Z</time>
      </trkpt>
      <trkpt lat="44.48211" lon="6.26883">
        <ele>837</ele>
        <time>2023-04-21T09:56:03.000Z</time>
      </trkpt>
      <trkpt lat="44.48211" lon="6.26883">
        <ele>836</ele>
        <time>2023-04-21T09:56:04.000Z</time>
      </trkpt>
      <trkpt lat="44.48211" lon="6.26883">
        <ele>836</ele>
        <time>2023-04-21T09:56:05.000Z</time>
      </trkpt>
      <trkpt lat="44.48211" lon="6.26883">
        <ele>836</ele>
        <time>2023-04-21T09:56:06.000Z</time>
      </trkpt>
      <trkpt lat="44.48211" lon="6.26883">
        <ele>835</ele>
        <time>2023-04-21T09:56:07.000Z</time>
      </trkpt>
      <trkpt lat="44.48211" lon="6.26883">
        <ele>835</ele>
        <time>2023-04-21T09:56:08.000Z</time>
      </trkpt>
      <trkpt lat="44.48211" lon="6.26883">
        <ele>835</ele>
        <time>2023-04-21T09:56:09.000Z</time>
      </trkpt>
      <trkpt lat="44.4821" lon="6.26883">
        <ele>835</ele>
        <time>2023-04-21T09:56:10.000Z</time>
      </trkpt>
      <trkpt lat="44.4821" lon="6.26883">
        <ele>834</ele>
        <time>2023-04-21T09:56:11.000Z</time>
      </trkpt>
      <trkpt lat="44.4821" lon="6.26883">
        <ele>834</ele>
        <time>2023-04-21T09:56:12.000Z</time>
      </trkpt>
      <trkpt lat="44.48209" lon="6.26883">
        <ele>834</ele>
        <time>2023-04-21T09:56:13.000Z</time>
      </trkpt>
      <trkpt lat="44.48209" lon="6.26883">
        <ele>834</ele>
        <time>2023-04-21T09:56:14.000Z</time>
      </trkpt>
      <trkpt lat="44.48209" lon="6.26884">
        <ele>833</ele>
        <time>2023-04-21T09:56:15.000Z</time>
      </trkpt>
      <trkpt lat="44.48208" lon="6.26885">
        <ele>833</ele>
        <time>2023-04-21T09:56:16.000Z</time>
      </trkpt>
      <trkpt lat="44.48207" lon="6.26888">
        <ele>833</ele>
        <time>2023-04-21T09:56:17.000Z</time>
      </trkpt>
      <trkpt lat="44.48205" lon="6.26891">
        <ele>833</ele>
        <time>2023-04-21T09:56:18.000Z</time>
      </trkpt>
      <trkpt lat="44.48204" lon="6.26894">
        <ele>833</ele>
        <time>2023-04-21T09:56:19.000Z</time>
      </trkpt>
      <trkpt lat="44.48203" lon="6.26898">
        <ele>833</ele>
        <time>2023-04-21T09:56:20.000Z</time>
      </trkpt>
      <trkpt lat="44.48201" lon="6.26901">
        <ele>833</ele>
        <time>2023-04-21T09:56:21.000Z</time>
      </trkpt>
      <trkpt lat="44.482" lon="6.26904">
        <ele>833</ele>
        <time>2023-04-21T09:56:22.000Z</time>
      </trkpt>
      <trkpt lat="44.482" lon="6.26908">
        <ele>833</ele>
        <time>2023-04-21T09:56:23.000Z</time>
      </trkpt>
      <trkpt lat="44.48199" lon="6.26913">
        <ele>834</ele>
        <time>2023-04-21T09:56:24.000Z</time>
      </trkpt>
      <trkpt lat="44.48198" lon="6.26918">
        <ele>834</ele>
        <time>2023-04-21T09:56:25.000Z</time>
      </trkpt>
      <trkpt lat="44.48197" lon="6.26923">
        <ele>834</ele>
        <time>2023-04-21T09:56:26.000Z</time>
      </trkpt>
      <trkpt lat="44.48196" lon="6.26928">
        <ele>835</ele>
        <time>2023-04-21T09:56:27.000Z</time>
      </trkpt>
      <trkpt lat="44.48194" lon="6.26934">
        <ele>835</ele>
        <time>2023-04-21T09:56:28.000Z</time>
      </trkpt>
      <trkpt lat="44.48191" lon="6.26937">
        <ele>834</ele>
        <time>2023-04-21T09:56:29.000Z</time>
      </trkpt>
      <trkpt lat="44.48188" lon="6.2694">
        <ele>834</ele>
        <time>2023-04-21T09:56:30.000Z</time>
      </trkpt>
      <trkpt lat="44.48185" lon="6.2694">
        <ele>833</ele>
        <time>2023-04-21T09:56:31.000Z</time>
      </trkpt>
      <trkpt lat="44.48181" lon="6.2694">
        <ele>833</ele>
        <time>2023-04-21T09:56:32.000Z</time>
      </trkpt>
      <trkpt lat="44.48177" lon="6.2694">
        <ele>833</ele>
        <time>2023-04-21T09:56:33.000Z</time>
      </trkpt>
      <trkpt lat="44.48174" lon="6.26939">
        <ele>833</ele>
        <time>2023-04-21T09:56:34.000Z</time>
      </trkpt>
      <trkpt lat="44.4817" lon="6.26939">
        <ele>832</ele>
        <time>2023-04-21T09:56:35.000Z</time>
      </trkpt>
      <trkpt lat="44.48167" lon="6.26939">
        <ele>832</ele>
        <time>2023-04-21T09:56:36.000Z</time>
      </trkpt>
      <trkpt lat="44.48163" lon="6.26938">
        <ele>832</ele>
        <time>2023-04-21T09:56:37.000Z</time>
      </trkpt>
      <trkpt lat="44.4816" lon="6.26937">
        <ele>831</ele>
        <time>2023-04-21T09:56:38.000Z</time>
      </trkpt>
      <trkpt lat="44.48156" lon="6.26937">
        <ele>831</ele>
        <time>2023-04-21T09:56:39.000Z</time>
      </trkpt>
      <trkpt lat="44.48152" lon="6.26937">
        <ele>831</ele>
        <time>2023-04-21T09:56:40.000Z</time>
      </trkpt>
      <trkpt lat="44.48148" lon="6.26936">
        <ele>831</ele>
        <time>2023-04-21T09:56:41.000Z</time>
      </trkpt>
      <trkpt lat="44.48144" lon="6.26935">
        <ele>830</ele>
        <time>2023-04-21T09:56:42.000Z</time>
      </trkpt>
      <trkpt lat="44.4814" lon="6.26934">
        <ele>830</ele>
        <time>2023-04-21T09:56:43.000Z</time>
      </trkpt>
      <trkpt lat="44.48136" lon="6.26934">
        <ele>830</ele>
        <time>2023-04-21T09:56:44.000Z</time>
      </trkpt>
      <trkpt lat="44.48133" lon="6.26933">
        <ele>830</ele>
        <time>2023-04-21T09:56:45.000Z</time>
      </trkpt>
      <trkpt lat="44.48129" lon="6.26933">
        <ele>829</ele>
        <time>2023-04-21T09:56:46.000Z</time>
      </trkpt>
      <trkpt lat="44.48125" lon="6.26932">
        <ele>829</ele>
        <time>2023-04-21T09:56:47.000Z</time>
      </trkpt>
      <trkpt lat="44.48121" lon="6.26932">
        <ele>829</ele>
        <time>2023-04-21T09:56:48.000Z</time>
      </trkpt>
      <trkpt lat="44.48117" lon="6.26932">
        <ele>829</ele>
        <time>2023-04-21T09:56:49.000Z</time>
      </trkpt>
      <trkpt lat="44.48113" lon="6.26933">
        <ele>829</ele>
        <time>2023-04-21T09:56:50.000Z</time>
      </trkpt>
      <trkpt lat="44.4811" lon="6.26933">
        <ele>829</ele>
        <time>2023-04-21T09:56:51.000Z</time>
      </trkpt>
      <trkpt lat="44.48106" lon="6.26934">
        <ele>829</ele>
        <time>2023-04-21T09:56:52.000Z</time>
      </trkpt>
      <trkpt lat="44.48103" lon="6.26935">
        <ele>829</ele>
        <time>2023-04-21T09:56:53.000Z</time>
      </trkpt>
      <trkpt lat="44.48101" lon="6.26936">
        <ele>828</ele>
        <time>2023-04-21T09:56:54.000Z</time>
      </trkpt>
      <trkpt lat="44.48098" lon="6.26936">
        <ele>828</ele>
        <time>2023-04-21T09:56:55.000Z</time>
      </trkpt>
      <trkpt lat="44.48095" lon="6.26935">
        <ele>828</ele>
        <time>2023-04-21T09:56:56.000Z</time>
      </trkpt>
      <trkpt lat="44.48092" lon="6.26934">
        <ele>828</ele>
        <time>2023-04-21T09:56:57.000Z</time>
      </trkpt>
      <trkpt lat="44.48089" lon="6.26935">
        <ele>828</ele>
        <time>2023-04-21T09:56:58.000Z</time>
      </trkpt>
      <trkpt lat="44.48086" lon="6.26935">
        <ele>828</ele>
        <time>2023-04-21T09:56:59.000Z</time>
      </trkpt>
      <trkpt lat="44.48083" lon="6.26937">
        <ele>828</ele>
        <time>2023-04-21T09:57:00.000Z</time>
      </trkpt>
      <trkpt lat="44.48079" lon="6.26938">
        <ele>828</ele>
        <time>2023-04-21T09:57:01.000Z</time>
      </trkpt>
      <trkpt lat="44.48076" lon="6.2694">
        <ele>828</ele>
        <time>2023-04-21T09:57:02.000Z</time>
      </trkpt>
      <trkpt lat="44.48073" lon="6.26942">
        <ele>828</ele>
        <time>2023-04-21T09:57:03.000Z</time>
      </trkpt>
      <trkpt lat="44.4807" lon="6.26942">
        <ele>828</ele>
        <time>2023-04-21T09:57:04.000Z</time>
      </trkpt>
      <trkpt lat="44.48067" lon="6.26942">
        <ele>828</ele>
        <time>2023-04-21T09:57:05.000Z</time>
      </trkpt>
      <trkpt lat="44.48065" lon="6.26941">
        <ele>828</ele>
        <time>2023-04-21T09:57:06.000Z</time>
      </trkpt>
      <trkpt lat="44.48063" lon="6.26939">
        <ele>828</ele>
        <time>2023-04-21T09:57:07.000Z</time>
      </trkpt>
      <trkpt lat="44.48062" lon="6.26938">
        <ele>829</ele>
        <time>2023-04-21T09:57:08.000Z</time>
      </trkpt>
      <trkpt lat="44.48061" lon="6.26937">
        <ele>829</ele>
        <time>2023-04-21T09:57:09.000Z</time>
      </trkpt>
      <trkpt lat="44.4806" lon="6.26936">
        <ele>829</ele>
        <time>2023-04-21T09:57:10.000Z</time>
      </trkpt>
      <trkpt lat="44.48059" lon="6.26935">
        <ele>829</ele>
        <time>2023-04-21T09:57:11.000Z</time>
      </trkpt>
      <trkpt lat="44.48058" lon="6.26934">
        <ele>830</ele>
        <time>2023-04-21T09:57:12.000Z</time>
      </trkpt>
      <trkpt lat="44.48058" lon="6.26933">
        <ele>830</ele>
        <time>2023-04-21T09:57:13.000Z</time>
      </trkpt>
      <trkpt lat="44.48057" lon="6.26932">
        <ele>831</ele>
        <time>2023-04-21T09:57:14.000Z</time>
      </trkpt>
      <trkpt lat="44.48057" lon="6.26931">
        <ele>831</ele>
        <time>2023-04-21T09:57:15.000Z</time>
      </trkpt>
      <trkpt lat="44.48056" lon="6.2693">
        <ele>832</ele>
        <time>2023-04-21T09:57:16.000Z</time>
      </trkpt>
      <trkpt lat="44.48055" lon="6.2693">
        <ele>832</ele>
        <time>2023-04-21T09:57:17.000Z</time>
      </trkpt>
      <trkpt lat="44.48054" lon="6.26929">
        <ele>832</ele>
        <time>2023-04-21T09:57:18.000Z</time>
      </trkpt>
      <trkpt lat="44.48054" lon="6.26928">
        <ele>833</ele>
        <time>2023-04-21T09:57:19.000Z</time>
      </trkpt>
      <trkpt lat="44.48052" lon="6.26927">
        <ele>833</ele>
        <time>2023-04-21T09:57:20.000Z</time>
      </trkpt>
      <trkpt lat="44.48052" lon="6.26927">
        <ele>834</ele>
        <time>2023-04-21T09:57:21.000Z</time>
      </trkpt>
      <trkpt lat="44.48052" lon="6.26925">
        <ele>834</ele>
        <time>2023-04-21T09:57:22.000Z</time>
      </trkpt>
      <trkpt lat="44.48052" lon="6.26925">
        <ele>834</ele>
        <time>2023-04-21T09:57:23.000Z</time>
      </trkpt>
      <trkpt lat="44.48052" lon="6.26923">
        <ele>835</ele>
        <time>2023-04-21T09:57:24.000Z</time>
      </trkpt>
      <trkpt lat="44.4805" lon="6.26922">
        <ele>835</ele>
        <time>2023-04-21T09:57:25.000Z</time>
      </trkpt>
      <trkpt lat="44.48049" lon="6.26921">
        <ele>835</ele>
        <time>2023-04-21T09:57:26.000Z</time>
      </trkpt>
      <trkpt lat="44.48049" lon="6.2692">
        <ele>835</ele>
        <time>2023-04-21T09:57:27.000Z</time>
      </trkpt>
      <trkpt lat="44.48047" lon="6.26919">
        <ele>835</ele>
        <time>2023-04-21T09:57:28.000Z</time>
      </trkpt>
      <trkpt lat="44.48046" lon="6.26919">
        <ele>836</ele>
        <time>2023-04-21T09:57:29.000Z</time>
      </trkpt>
      <trkpt lat="44.48045" lon="6.26918">
        <ele>836</ele>
        <time>2023-04-21T09:57:30.000Z</time>
      </trkpt>
      <trkpt lat="44.48044" lon="6.26917">
        <ele>837</ele>
        <time>2023-04-21T09:57:31.000Z</time>
      </trkpt>
      <trkpt lat="44.48043" lon="6.26917">
        <ele>837</ele>
        <time>2023-04-21T09:57:32.000Z</time>
      </trkpt>
      <trkpt lat="44.48042" lon="6.26916">
        <ele>837</ele>
        <time>2023-04-21T09:57:33.000Z</time>
      </trkpt>
      <trkpt lat="44.48041" lon="6.26916">
        <ele>838</ele>
        <time>2023-04-21T09:57:34.000Z</time>
      </trkpt>
      <trkpt lat="44.48039" lon="6.26915">
        <ele>839</ele>
        <time>2023-04-21T09:57:35.000Z</time>
      </trkpt>
      <trkpt lat="44.48039" lon="6.26915">
        <ele>840</ele>
        <time>2023-04-21T09:57:36.000Z</time>
      </trkpt>
      <trkpt lat="44.48038" lon="6.26914">
        <ele>840</ele>
        <time>2023-04-21T09:57:37.000Z</time>
      </trkpt>
      <trkpt lat="44.48037" lon="6.26913">
        <ele>840</ele>
        <time>2023-04-21T09:57:38.000Z</time>
      </trkpt>
      <trkpt lat="44.48035" lon="6.26912">
        <ele>842</ele>
        <time>2023-04-21T09:57:39.000Z</time>
      </trkpt>
      <trkpt lat="44.48034" lon="6.26912">
        <ele>843</ele>
        <time>2023-04-21T09:57:40.000Z</time>
      </trkpt>
      <trkpt lat="44.48033" lon="6.26911">
        <ele>844</ele>
        <time>2023-04-21T09:57:41.000Z</time>
      </trkpt>
      <trkpt lat="44.48033" lon="6.2691">
        <ele>844</ele>
        <time>2023-04-21T09:57:42.000Z</time>
      </trkpt>
      <trkpt lat="44.48032" lon="6.26909">
        <ele>846</ele>
        <time>2023-04-21T09:57:43.000Z</time>
      </trkpt>
      <trkpt lat="44.4803" lon="6.26908">
        <ele>847</ele>
        <time>2023-04-21T09:57:44.000Z</time>
      </trkpt>
      <trkpt lat="44.48029" lon="6.26907">
        <ele>847</ele>
        <time>2023-04-21T09:57:45.000Z</time>
      </trkpt>
      <trkpt lat="44.48027" lon="6.26906">
        <ele>847</ele>
        <time>2023-04-21T09:57:46.000Z</time>
      </trkpt>
      <trkpt lat="44.48026" lon="6.26905">
        <ele>848</ele>
        <time>2023-04-21T09:57:47.000Z</time>
      </trkpt>
      <trkpt lat="44.48025" lon="6.26905">
        <ele>848</ele>
        <time>2023-04-21T09:57:48.000Z</time>
      </trkpt>
      <trkpt lat="44.48023" lon="6.26902">
        <ele>848</ele>
        <time>2023-04-21T09:57:49.000Z</time>
      </trkpt>
      <trkpt lat="44.48022" lon="6.26902">
        <ele>848</ele>
        <time>2023-04-21T09:57:50.000Z</time>
      </trkpt>
      <trkpt lat="44.48021" lon="6.26901">
        <ele>849</ele>
        <time>2023-04-21T09:57:51.000Z</time>
      </trkpt>
      <trkpt lat="44.48019" lon="6.269">
        <ele>850</ele>
        <time>2023-04-21T09:57:52.000Z</time>
      </trkpt>
      <trkpt lat="44.48018" lon="6.26899">
        <ele>850</ele>
        <time>2023-04-21T09:57:53.000Z</time>
      </trkpt>
      <trkpt lat="44.48017" lon="6.26899">
        <ele>851</ele>
        <time>2023-04-21T09:57:54.000Z</time>
      </trkpt>
      <trkpt lat="44.48015" lon="6.26899">
        <ele>852</ele>
        <time>2023-04-21T09:57:55.000Z</time>
      </trkpt>
      <trkpt lat="44.48013" lon="6.26899">
        <ele>852</ele>
        <time>2023-04-21T09:57:56.000Z</time>
      </trkpt>
      <trkpt lat="44.48012" lon="6.26899">
        <ele>852</ele>
        <time>2023-04-21T09:57:57.000Z</time>
      </trkpt>
      <trkpt lat="44.4801" lon="6.26898">
        <ele>852</ele>
        <time>2023-04-21T09:57:58.000Z</time>
      </trkpt>
      <trkpt lat="44.48008" lon="6.26898">
        <ele>852</ele>
        <time>2023-04-21T09:57:59.000Z</time>
      </trkpt>
      <trkpt lat="44.48007" lon="6.26898">
        <ele>853</ele>
        <time>2023-04-21T09:58:00.000Z</time>
      </trkpt>
      <trkpt lat="44.48006" lon="6.26899">
        <ele>853</ele>
        <time>2023-04-21T09:58:01.000Z</time>
      </trkpt>
      <trkpt lat="44.48005" lon="6.26899">
        <ele>854</ele>
        <time>2023-04-21T09:58:02.000Z</time>
      </trkpt>
      <trkpt lat="44.48004" lon="6.26899">
        <ele>855</ele>
        <time>2023-04-21T09:58:03.000Z</time>
      </trkpt>
      <trkpt lat="44.48002" lon="6.26899">
        <ele>855</ele>
        <time>2023-04-21T09:58:04.000Z</time>
      </trkpt>
      <trkpt lat="44.48001" lon="6.26899">
        <ele>856</ele>
        <time>2023-04-21T09:58:05.000Z</time>
      </trkpt>
      <trkpt lat="44.47999" lon="6.26899">
        <ele>857</ele>
        <time>2023-04-21T09:58:06.000Z</time>
      </trkpt>
      <trkpt lat="44.47997" lon="6.26899">
        <ele>857</ele>
        <time>2023-04-21T09:58:07.000Z</time>
      </trkpt>
      <trkpt lat="44.47994" lon="6.26898">
        <ele>858</ele>
        <time>2023-04-21T09:58:08.000Z</time>
      </trkpt>
      <trkpt lat="44.47992" lon="6.26898">
        <ele>858</ele>
        <time>2023-04-21T09:58:09.000Z</time>
      </trkpt>
      <trkpt lat="44.47991" lon="6.26899">
        <ele>858</ele>
        <time>2023-04-21T09:58:10.000Z</time>
      </trkpt>
      <trkpt lat="44.47989" lon="6.26899">
        <ele>859</ele>
        <time>2023-04-21T09:58:11.000Z</time>
      </trkpt>
      <trkpt lat="44.47988" lon="6.269">
        <ele>860</ele>
        <time>2023-04-21T09:58:12.000Z</time>
      </trkpt>
      <trkpt lat="44.47987" lon="6.269">
        <ele>860</ele>
        <time>2023-04-21T09:58:13.000Z</time>
      </trkpt>
      <trkpt lat="44.47987" lon="6.26901">
        <ele>861</ele>
        <time>2023-04-21T09:58:14.000Z</time>
      </trkpt>
      <trkpt lat="44.47986" lon="6.26901">
        <ele>862</ele>
        <time>2023-04-21T09:58:15.000Z</time>
      </trkpt>
      <trkpt lat="44.47985" lon="6.26902">
        <ele>861</ele>
        <time>2023-04-21T09:58:16.000Z</time>
      </trkpt>
      <trkpt lat="44.47985" lon="6.26902">
        <ele>861</ele>
        <time>2023-04-21T09:58:17.000Z</time>
      </trkpt>
      <trkpt lat="44.47984" lon="6.26902">
        <ele>861</ele>
        <time>2023-04-21T09:58:18.000Z</time>
      </trkpt>
      <trkpt lat="44.47984" lon="6.26902">
        <ele>860</ele>
        <time>2023-04-21T09:58:19.000Z</time>
      </trkpt>
      <trkpt lat="44.47983" lon="6.26902">
        <ele>859</ele>
        <time>2023-04-21T09:58:20.000Z</time>
      </trkpt>
      <trkpt lat="44.47982" lon="6.26902">
        <ele>858</ele>
        <time>2023-04-21T09:58:21.000Z</time>
      </trkpt>
      <trkpt lat="44.47982" lon="6.26902">
        <ele>858</ele>
        <time>2023-04-21T09:58:22.000Z</time>
      </trkpt>
      <trkpt lat="44.47981" lon="6.26902">
        <ele>858</ele>
        <time>2023-04-21T09:58:23.000Z</time>
      </trkpt>
      <trkpt lat="44.47981" lon="6.26902">
        <ele>857</ele>
        <time>2023-04-21T09:58:24.000Z</time>
      </trkpt>
      <trkpt lat="44.47981" lon="6.26902">
        <ele>858</ele>
        <time>2023-04-21T09:58:25.000Z</time>
      </trkpt>
      <trkpt lat="44.4798" lon="6.26902">
        <ele>858</ele>
        <time>2023-04-21T09:58:26.000Z</time>
      </trkpt>
      <trkpt lat="44.47979" lon="6.26902">
        <ele>858</ele>
        <time>2023-04-21T09:58:27.000Z</time>
      </trkpt>
      <trkpt lat="44.47979" lon="6.26902">
        <ele>858</ele>
        <time>2023-04-21T09:58:28.000Z</time>
      </trkpt>
      <trkpt lat="44.47978" lon="6.26902">
        <ele>858</ele>
        <time>2023-04-21T09:58:29.000Z</time>
      </trkpt>
      <trkpt lat="44.47977" lon="6.26902">
        <ele>858</ele>
        <time>2023-04-21T09:58:30.000Z</time>
      </trkpt>
      <trkpt lat="44.47977" lon="6.26902">
        <ele>858</ele>
        <time>2023-04-21T09:58:31.000Z</time>
      </trkpt>
      <trkpt lat="44.47976" lon="6.26902">
        <ele>858</ele>
        <time>2023-04-21T09:58:32.000Z</time>
      </trkpt>
      <trkpt lat="44.47975" lon="6.26902">
        <ele>858</ele>
        <time>2023-04-21T09:58:33.000Z</time>
      </trkpt>
      <trkpt lat="44.47974" lon="6.26901">
        <ele>858</ele>
        <time>2023-04-21T09:58:34.000Z</time>
      </trkpt>
      <trkpt lat="44.47973" lon="6.26901">
        <ele>858</ele>
        <time>2023-04-21T09:58:35.000Z</time>
      </trkpt>
      <trkpt lat="44.47972" lon="6.26901">
        <ele>858</ele>
        <time>2023-04-21T09:58:36.000Z</time>
      </trkpt>
      <trkpt lat="44.47971" lon="6.269">
        <ele>858</ele>
        <time>2023-04-21T09:58:37.000Z</time>
      </trkpt>
      <trkpt lat="44.4797" lon="6.269">
        <ele>858</ele>
        <time>2023-04-21T09:58:38.000Z</time>
      </trkpt>
      <trkpt lat="44.47969" lon="6.269">
        <ele>858</ele>
        <time>2023-04-21T09:58:39.000Z</time>
      </trkpt>
      <trkpt lat="44.47968" lon="6.26899">
        <ele>858</ele>
        <time>2023-04-21T09:58:40.000Z</time>
      </trkpt>
      <trkpt lat="44.47967" lon="6.26899">
        <ele>858</ele>
        <time>2023-04-21T09:58:41.000Z</time>
      </trkpt>
      <trkpt lat="44.47966" lon="6.26899">
        <ele>859</ele>
        <time>2023-04-21T09:58:42.000Z</time>
      </trkpt>
      <trkpt lat="44.47966" lon="6.26898">
        <ele>859</ele>
        <time>2023-04-21T09:58:43.000Z</time>
      </trkpt>
      <trkpt lat="44.47965" lon="6.26898">
        <ele>859</ele>
        <time>2023-04-21T09:58:44.000Z</time>
      </trkpt>
      <trkpt lat="44.47964" lon="6.26898">
        <ele>859</ele>
        <time>2023-04-21T09:58:45.000Z</time>
      </trkpt>
      <trkpt lat="44.47964" lon="6.26898">
        <ele>859</ele>
        <time>2023-04-21T09:58:46.000Z</time>
      </trkpt>
      <trkpt lat="44.47963" lon="6.26898">
        <ele>859</ele>
        <time>2023-04-21T09:58:47.000Z</time>
      </trkpt>
      <trkpt lat="44.47963" lon="6.26898">
        <ele>859</ele>
        <time>2023-04-21T09:58:48.000Z</time>
      </trkpt>
      <trkpt lat="44.47962" lon="6.26897">
        <ele>859</ele>
        <time>2023-04-21T09:58:49.000Z</time>
      </trkpt>
      <trkpt lat="44.47961" lon="6.26896">
        <ele>859</ele>
        <time>2023-04-21T09:58:50.000Z</time>
      </trkpt>
      <trkpt lat="44.47961" lon="6.26896">
        <ele>859</ele>
        <time>2023-04-21T09:58:51.000Z</time>
      </trkpt>
      <trkpt lat="44.47961" lon="6.26895">
        <ele>859</ele>
        <time>2023-04-21T09:58:52.000Z</time>
      </trkpt>
      <trkpt lat="44.47961" lon="6.26894">
        <ele>858</ele>
        <time>2023-04-21T09:58:53.000Z</time>
      </trkpt>
      <trkpt lat="44.47961" lon="6.26894">
        <ele>859</ele>
        <time>2023-04-21T09:58:54.000Z</time>
      </trkpt>
      <trkpt lat="44.4796" lon="6.26893">
        <ele>858</ele>
        <time>2023-04-21T09:58:55.000Z</time>
      </trkpt>
      <trkpt lat="44.47959" lon="6.26892">
        <ele>858</ele>
        <time>2023-04-21T09:58:56.000Z</time>
      </trkpt>
      <trkpt lat="44.47959" lon="6.26892">
        <ele>858</ele>
        <time>2023-04-21T09:58:57.000Z</time>
      </trkpt>
      <trkpt lat="44.47959" lon="6.26892">
        <ele>858</ele>
        <time>2023-04-21T09:58:58.000Z</time>
      </trkpt>
      <trkpt lat="44.47958" lon="6.26891">
        <ele>858</ele>
        <time>2023-04-21T09:58:59.000Z</time>
      </trkpt>
      <trkpt lat="44.47958" lon="6.2689">
        <ele>858</ele>
        <time>2023-04-21T09:59:00.000Z</time>
      </trkpt>
      <trkpt lat="44.47958" lon="6.26888">
        <ele>858</ele>
        <time>2023-04-21T09:59:01.000Z</time>
      </trkpt>
      <trkpt lat="44.47957" lon="6.26888">
        <ele>858</ele>
        <time>2023-04-21T09:59:02.000Z</time>
      </trkpt>
      <trkpt lat="44.47956" lon="6.26887">
        <ele>857</ele>
        <time>2023-04-21T09:59:03.000Z</time>
      </trkpt>
      <trkpt lat="44.47956" lon="6.26886">
        <ele>858</ele>
        <time>2023-04-21T09:59:04.000Z</time>
      </trkpt>
      <trkpt lat="44.47956" lon="6.26885">
        <ele>858</ele>
        <time>2023-04-21T09:59:05.000Z</time>
      </trkpt>
      <trkpt lat="44.47955" lon="6.26884">
        <ele>858</ele>
        <time>2023-04-21T09:59:06.000Z</time>
      </trkpt>
      <trkpt lat="44.47955" lon="6.26883">
        <ele>858</ele>
        <time>2023-04-21T09:59:07.000Z</time>
      </trkpt>
      <trkpt lat="44.47954" lon="6.26883">
        <ele>858</ele>
        <time>2023-04-21T09:59:08.000Z</time>
      </trkpt>
      <trkpt lat="44.47954" lon="6.26882">
        <ele>858</ele>
        <time>2023-04-21T09:59:09.000Z</time>
      </trkpt>
      <trkpt lat="44.47954" lon="6.26882">
        <ele>858</ele>
        <time>2023-04-21T09:59:10.000Z</time>
      </trkpt>
      <trkpt lat="44.47954" lon="6.26882">
        <ele>858</ele>
        <time>2023-04-21T09:59:11.000Z</time>
      </trkpt>
      <trkpt lat="44.47954" lon="6.26882">
        <ele>858</ele>
        <time>2023-04-21T09:59:12.000Z</time>
      </trkpt>
      <trkpt lat="44.47953" lon="6.26883">
        <ele>858</ele>
        <time>2023-04-21T09:59:13.000Z</time>
      </trkpt>
      <trkpt lat="44.47953" lon="6.26882">
        <ele>858</ele>
        <time>2023-04-21T09:59:14.000Z</time>
      </trkpt>
      <trkpt lat="44.47953" lon="6.26882">
        <ele>858</ele>
        <time>2023-04-21T09:59:15.000Z</time>
      </trkpt>
      <trkpt lat="44.47953" lon="6.26882">
        <ele>858</ele>
        <time>2023-04-21T09:59:16.000Z</time>
      </trkpt>
      <trkpt lat="44.47953" lon="6.26882">
        <ele>858</ele>
        <time>2023-04-21T09:59:17.000Z</time>
      </trkpt>
      <trkpt lat="44.47953" lon="6.26882">
        <ele>858</ele>
        <time>2023-04-21T09:59:18.000Z</time>
      </trkpt>
      <trkpt lat="44.47953" lon="6.26882">
        <ele>858</ele>
        <time>2023-04-21T09:59:19.000Z</time>
      </trkpt>
      <trkpt lat="44.47953" lon="6.26882">
        <ele>858</ele>
        <time>2023-04-21T09:59:20.000Z</time>
      </trkpt>
      <trkpt lat="44.47953" lon="6.26882">
        <ele>857</ele>
        <time>2023-04-21T09:59:21.000Z</time>
      </trkpt>
      <trkpt lat="44.47953" lon="6.26882">
        <ele>857</ele>
        <time>2023-04-21T09:59:22.000Z</time>
      </trkpt>
      <trkpt lat="44.47952" lon="6.26882">
        <ele>857</ele>
        <time>2023-04-21T09:59:23.000Z</time>
      </trkpt>
      <trkpt lat="44.47952" lon="6.26881">
        <ele>857</ele>
        <time>2023-04-21T09:59:24.000Z</time>
      </trkpt>
      <trkpt lat="44.47951" lon="6.2688">
        <ele>858</ele>
        <time>2023-04-21T09:59:25.000Z</time>
      </trkpt>
      <trkpt lat="44.4795" lon="6.26879">
        <ele>858</ele>
        <time>2023-04-21T09:59:26.000Z</time>
      </trkpt>
      <trkpt lat="44.47949" lon="6.26879">
        <ele>858</ele>
        <time>2023-04-21T09:59:27.000Z</time>
      </trkpt>
      <trkpt lat="44.47948" lon="6.26878">
        <ele>858</ele>
        <time>2023-04-21T09:59:28.000Z</time>
      </trkpt>
      <trkpt lat="44.47947" lon="6.26876">
        <ele>858</ele>
        <time>2023-04-21T09:59:29.000Z</time>
      </trkpt>
      <trkpt lat="44.47946" lon="6.26874">
        <ele>858</ele>
        <time>2023-04-21T09:59:30.000Z</time>
      </trkpt>
      <trkpt lat="44.47945" lon="6.26874">
        <ele>858</ele>
        <time>2023-04-21T09:59:31.000Z</time>
      </trkpt>
      <trkpt lat="44.47944" lon="6.26872">
        <ele>859</ele>
        <time>2023-04-21T09:59:32.000Z</time>
      </trkpt>
      <trkpt lat="44.47943" lon="6.26871">
        <ele>859</ele>
        <time>2023-04-21T09:59:33.000Z</time>
      </trkpt>
      <trkpt lat="44.47942" lon="6.2687">
        <ele>859</ele>
        <time>2023-04-21T09:59:34.000Z</time>
      </trkpt>
      <trkpt lat="44.4794" lon="6.26869">
        <ele>859</ele>
        <time>2023-04-21T09:59:35.000Z</time>
      </trkpt>
      <trkpt lat="44.4794" lon="6.26868">
        <ele>859</ele>
        <time>2023-04-21T09:59:36.000Z</time>
      </trkpt>
      <trkpt lat="44.4794" lon="6.26866">
        <ele>859</ele>
        <time>2023-04-21T09:59:37.000Z</time>
      </trkpt>
      <trkpt lat="44.47939" lon="6.26865">
        <ele>859</ele>
        <time>2023-04-21T09:59:38.000Z</time>
      </trkpt>
      <trkpt lat="44.47939" lon="6.26864">
        <ele>860</ele>
        <time>2023-04-21T09:59:39.000Z</time>
      </trkpt>
      <trkpt lat="44.47938" lon="6.26863">
        <ele>859</ele>
        <time>2023-04-21T09:59:40.000Z</time>
      </trkpt>
      <trkpt lat="44.47937" lon="6.26862">
        <ele>860</ele>
        <time>2023-04-21T09:59:41.000Z</time>
      </trkpt>
      <trkpt lat="44.47936" lon="6.2686">
        <ele>860</ele>
        <time>2023-04-21T09:59:42.000Z</time>
      </trkpt>
      <trkpt lat="44.47935" lon="6.26859">
        <ele>861</ele>
        <time>2023-04-21T09:59:43.000Z</time>
      </trkpt>
      <trkpt lat="44.47935" lon="6.26857">
        <ele>861</ele>
        <time>2023-04-21T09:59:44.000Z</time>
      </trkpt>
      <trkpt lat="44.47934" lon="6.26855">
        <ele>861</ele>
        <time>2023-04-21T09:59:45.000Z</time>
      </trkpt>
      <trkpt lat="44.47933" lon="6.26852">
        <ele>862</ele>
        <time>2023-04-21T09:59:46.000Z</time>
      </trkpt>
      <trkpt lat="44.47932" lon="6.2685">
        <ele>863</ele>
        <time>2023-04-21T09:59:47.000Z</time>
      </trkpt>
      <trkpt lat="44.47931" lon="6.26849">
        <ele>864</ele>
        <time>2023-04-21T09:59:48.000Z</time>
      </trkpt>
      <trkpt lat="44.4793" lon="6.26848">
        <ele>864</ele>
        <time>2023-04-21T09:59:49.000Z</time>
      </trkpt>
      <trkpt lat="44.47929" lon="6.26846">
        <ele>865</ele>
        <time>2023-04-21T09:59:50.000Z</time>
      </trkpt>
      <trkpt lat="44.47927" lon="6.26845">
        <ele>866</ele>
        <time>2023-04-21T09:59:51.000Z</time>
      </trkpt>
      <trkpt lat="44.47925" lon="6.26844">
        <ele>867</ele>
        <time>2023-04-21T09:59:52.000Z</time>
      </trkpt>
      <trkpt lat="44.47923" lon="6.26843">
        <ele>867</ele>
        <time>2023-04-21T09:59:53.000Z</time>
      </trkpt>
      <trkpt lat="44.47922" lon="6.26842">
        <ele>868</ele>
        <time>2023-04-21T09:59:54.000Z</time>
      </trkpt>
      <trkpt lat="44.47921" lon="6.26841">
        <ele>868</ele>
        <time>2023-04-21T09:59:55.000Z</time>
      </trkpt>
      <trkpt lat="44.4792" lon="6.2684">
        <ele>869</ele>
        <time>2023-04-21T09:59:56.000Z</time>
      </trkpt>
      <trkpt lat="44.47918" lon="6.2684">
        <ele>869</ele>
        <time>2023-04-21T09:59:57.000Z</time>
      </trkpt>
      <trkpt lat="44.47917" lon="6.26839">
        <ele>870</ele>
        <time>2023-04-21T09:59:58.000Z</time>
      </trkpt>
      <trkpt lat="44.47916" lon="6.26838">
        <ele>870</ele>
        <time>2023-04-21T09:59:59.000Z</time>
      </trkpt>
      <trkpt lat="44.47915" lon="6.26837">
        <ele>871</ele>
        <time>2023-04-21T10:00:00.000Z</time>
      </trkpt>
      <trkpt lat="44.47914" lon="6.26836">
        <ele>872</ele>
        <time>2023-04-21T10:00:01.000Z</time>
      </trkpt>
      <trkpt lat="44.47913" lon="6.26835">
        <ele>872</ele>
        <time>2023-04-21T10:00:02.000Z</time>
      </trkpt>
      <trkpt lat="44.47912" lon="6.26834">
        <ele>872</ele>
        <time>2023-04-21T10:00:03.000Z</time>
      </trkpt>
      <trkpt lat="44.4791" lon="6.26833">
        <ele>873</ele>
        <time>2023-04-21T10:00:04.000Z</time>
      </trkpt>
      <trkpt lat="44.47909" lon="6.26831">
        <ele>873</ele>
        <time>2023-04-21T10:00:05.000Z</time>
      </trkpt>
      <trkpt lat="44.47908" lon="6.26829">
        <ele>873</ele>
        <time>2023-04-21T10:00:06.000Z</time>
      </trkpt>
      <trkpt lat="44.47907" lon="6.26829">
        <ele>874</ele>
        <time>2023-04-21T10:00:07.000Z</time>
      </trkpt>
      <trkpt lat="44.47905" lon="6.26828">
        <ele>874</ele>
        <time>2023-04-21T10:00:08.000Z</time>
      </trkpt>
      <trkpt lat="44.47904" lon="6.26827">
        <ele>874</ele>
        <time>2023-04-21T10:00:09.000Z</time>
      </trkpt>
      <trkpt lat="44.47903" lon="6.26826">
        <ele>875</ele>
        <time>2023-04-21T10:00:10.000Z</time>
      </trkpt>
      <trkpt lat="44.47902" lon="6.26825">
        <ele>875</ele>
        <time>2023-04-21T10:00:11.000Z</time>
      </trkpt>
      <trkpt lat="44.479" lon="6.26824">
        <ele>875</ele>
        <time>2023-04-21T10:00:12.000Z</time>
      </trkpt>
      <trkpt lat="44.47899" lon="6.26823">
        <ele>875</ele>
        <time>2023-04-21T10:00:13.000Z</time>
      </trkpt>
      <trkpt lat="44.47898" lon="6.26822">
        <ele>875</ele>
        <time>2023-04-21T10:00:14.000Z</time>
      </trkpt>
      <trkpt lat="44.47896" lon="6.26821">
        <ele>874</ele>
        <time>2023-04-21T10:00:15.000Z</time>
      </trkpt>
      <trkpt lat="44.47895" lon="6.2682">
        <ele>874</ele>
        <time>2023-04-21T10:00:16.000Z</time>
      </trkpt>
      <trkpt lat="44.47893" lon="6.26819">
        <ele>874</ele>
        <time>2023-04-21T10:00:17.000Z</time>
      </trkpt>
      <trkpt lat="44.47891" lon="6.26817">
        <ele>874</ele>
        <time>2023-04-21T10:00:18.000Z</time>
      </trkpt>
      <trkpt lat="44.47889" lon="6.26816">
        <ele>874</ele>
        <time>2023-04-21T10:00:19.000Z</time>
      </trkpt>
      <trkpt lat="44.47887" lon="6.26814">
        <ele>874</ele>
        <time>2023-04-21T10:00:20.000Z</time>
      </trkpt>
      <trkpt lat="44.47885" lon="6.26813">
        <ele>874</ele>
        <time>2023-04-21T10:00:21.000Z</time>
      </trkpt>
      <trkpt lat="44.47884" lon="6.26812">
        <ele>874</ele>
        <time>2023-04-21T10:00:22.000Z</time>
      </trkpt>
      <trkpt lat="44.47882" lon="6.2681">
        <ele>873</ele>
        <time>2023-04-21T10:00:23.000Z</time>
      </trkpt>
      <trkpt lat="44.4788" lon="6.26808">
        <ele>873</ele>
        <time>2023-04-21T10:00:24.000Z</time>
      </trkpt>
      <trkpt lat="44.47878" lon="6.26807">
        <ele>873</ele>
        <time>2023-04-21T10:00:25.000Z</time>
      </trkpt>
      <trkpt lat="44.47876" lon="6.26805">
        <ele>873</ele>
        <time>2023-04-21T10:00:26.000Z</time>
      </trkpt>
      <trkpt lat="44.47874" lon="6.26803">
        <ele>873</ele>
        <time>2023-04-21T10:00:27.000Z</time>
      </trkpt>
      <trkpt lat="44.47873" lon="6.26802">
        <ele>874</ele>
        <time>2023-04-21T10:00:28.000Z</time>
      </trkpt>
      <trkpt lat="44.47871" lon="6.268">
        <ele>874</ele>
        <time>2023-04-21T10:00:29.000Z</time>
      </trkpt>
      <trkpt lat="44.4787" lon="6.26799">
        <ele>874</ele>
        <time>2023-04-21T10:00:30.000Z</time>
      </trkpt>
      <trkpt lat="44.47868" lon="6.26797">
        <ele>875</ele>
        <time>2023-04-21T10:00:31.000Z</time>
      </trkpt>
      <trkpt lat="44.47867" lon="6.26796">
        <ele>876</ele>
        <time>2023-04-21T10:00:32.000Z</time>
      </trkpt>
      <trkpt lat="44.47866" lon="6.26794">
        <ele>876</ele>
        <time>2023-04-21T10:00:33.000Z</time>
      </trkpt>
      <trkpt lat="44.47864" lon="6.26793">
        <ele>876</ele>
        <time>2023-04-21T10:00:34.000Z</time>
      </trkpt>
      <trkpt lat="44.47863" lon="6.26792">
        <ele>877</ele>
        <time>2023-04-21T10:00:35.000Z</time>
      </trkpt>
      <trkpt lat="44.47862" lon="6.26793">
        <ele>877</ele>
        <time>2023-04-21T10:00:36.000Z</time>
      </trkpt>
      <trkpt lat="44.47861" lon="6.26792">
        <ele>877</ele>
        <time>2023-04-21T10:00:37.000Z</time>
      </trkpt>
      <trkpt lat="44.47859" lon="6.26793">
        <ele>878</ele>
        <time>2023-04-21T10:00:38.000Z</time>
      </trkpt>
      <trkpt lat="44.47858" lon="6.26793">
        <ele>878</ele>
        <time>2023-04-21T10:00:39.000Z</time>
      </trkpt>
      <trkpt lat="44.47856" lon="6.26793">
        <ele>879</ele>
        <time>2023-04-21T10:00:40.000Z</time>
      </trkpt>
      <trkpt lat="44.47855" lon="6.26793">
        <ele>879</ele>
        <time>2023-04-21T10:00:41.000Z</time>
      </trkpt>
      <trkpt lat="44.47853" lon="6.26793">
        <ele>880</ele>
        <time>2023-04-21T10:00:42.000Z</time>
      </trkpt>
      <trkpt lat="44.47852" lon="6.26793">
        <ele>881</ele>
        <time>2023-04-21T10:00:43.000Z</time>
      </trkpt>
      <trkpt lat="44.4785" lon="6.26793">
        <ele>881</ele>
        <time>2023-04-21T10:00:44.000Z</time>
      </trkpt>
      <trkpt lat="44.47849" lon="6.26794">
        <ele>882</ele>
        <time>2023-04-21T10:00:45.000Z</time>
      </trkpt>
      <trkpt lat="44.47847" lon="6.26794">
        <ele>882</ele>
        <time>2023-04-21T10:00:46.000Z</time>
      </trkpt>
      <trkpt lat="44.47846" lon="6.26794">
        <ele>883</ele>
        <time>2023-04-21T10:00:47.000Z</time>
      </trkpt>
      <trkpt lat="44.47845" lon="6.26795">
        <ele>883</ele>
        <time>2023-04-21T10:00:48.000Z</time>
      </trkpt>
      <trkpt lat="44.47843" lon="6.26794">
        <ele>883</ele>
        <time>2023-04-21T10:00:49.000Z</time>
      </trkpt>
      <trkpt lat="44.47842" lon="6.26794">
        <ele>884</ele>
        <time>2023-04-21T10:00:50.000Z</time>
      </trkpt>
      <trkpt lat="44.4784" lon="6.26794">
        <ele>884</ele>
        <time>2023-04-21T10:00:51.000Z</time>
      </trkpt>
      <trkpt lat="44.47838" lon="6.26794">
        <ele>884</ele>
        <time>2023-04-21T10:00:52.000Z</time>
      </trkpt>
      <trkpt lat="44.47837" lon="6.26794">
        <ele>885</ele>
        <time>2023-04-21T10:00:53.000Z</time>
      </trkpt>
      <trkpt lat="44.47836" lon="6.26795">
        <ele>885</ele>
        <time>2023-04-21T10:00:54.000Z</time>
      </trkpt>
      <trkpt lat="44.47835" lon="6.26795">
        <ele>885</ele>
        <time>2023-04-21T10:00:55.000Z</time>
      </trkpt>
      <trkpt lat="44.47833" lon="6.26795">
        <ele>885</ele>
        <time>2023-04-21T10:00:56.000Z</time>
      </trkpt>
      <trkpt lat="44.47832" lon="6.26795">
        <ele>885</ele>
        <time>2023-04-21T10:00:57.000Z</time>
      </trkpt>
      <trkpt lat="44.4783" lon="6.26795">
        <ele>886</ele>
        <time>2023-04-21T10:00:58.000Z</time>
      </trkpt>
      <trkpt lat="44.47828" lon="6.26796">
        <ele>886</ele>
        <time>2023-04-21T10:00:59.000Z</time>
      </trkpt>
      <trkpt lat="44.47827" lon="6.26796">
        <ele>887</ele>
        <time>2023-04-21T10:01:00.000Z</time>
      </trkpt>
      <trkpt lat="44.47825" lon="6.26796">
        <ele>887</ele>
        <time>2023-04-21T10:01:01.000Z</time>
      </trkpt>
      <trkpt lat="44.47823" lon="6.26796">
        <ele>888</ele>
        <time>2023-04-21T10:01:02.000Z</time>
      </trkpt>
      <trkpt lat="44.47821" lon="6.26796">
        <ele>888</ele>
        <time>2023-04-21T10:01:03.000Z</time>
      </trkpt>
      <trkpt lat="44.4782" lon="6.26797">
        <ele>888</ele>
        <time>2023-04-21T10:01:04.000Z</time>
      </trkpt>
      <trkpt lat="44.47818" lon="6.26797">
        <ele>889</ele>
        <time>2023-04-21T10:01:05.000Z</time>
      </trkpt>
      <trkpt lat="44.47817" lon="6.26798">
        <ele>889</ele>
        <time>2023-04-21T10:01:06.000Z</time>
      </trkpt>
      <trkpt lat="44.47815" lon="6.26799">
        <ele>890</ele>
        <time>2023-04-21T10:01:07.000Z</time>
      </trkpt>
      <trkpt lat="44.47813" lon="6.26799">
        <ele>890</ele>
        <time>2023-04-21T10:01:08.000Z</time>
      </trkpt>
      <trkpt lat="44.47811" lon="6.268">
        <ele>890</ele>
        <time>2023-04-21T10:01:09.000Z</time>
      </trkpt>
      <trkpt lat="44.47809" lon="6.268">
        <ele>891</ele>
        <time>2023-04-21T10:01:10.000Z</time>
      </trkpt>
      <trkpt lat="44.47808" lon="6.268">
        <ele>891</ele>
        <time>2023-04-21T10:01:11.000Z</time>
      </trkpt>
      <trkpt lat="44.47806" lon="6.268">
        <ele>891</ele>
        <time>2023-04-21T10:01:12.000Z</time>
      </trkpt>
      <trkpt lat="44.47803" lon="6.26801">
        <ele>891</ele>
        <time>2023-04-21T10:01:13.000Z</time>
      </trkpt>
      <trkpt lat="44.47801" lon="6.26801">
        <ele>891</ele>
        <time>2023-04-21T10:01:14.000Z</time>
      </trkpt>
      <trkpt lat="44.47799" lon="6.26801">
        <ele>891</ele>
        <time>2023-04-21T10:01:15.000Z</time>
      </trkpt>
      <trkpt lat="44.47797" lon="6.26801">
        <ele>891</ele>
        <time>2023-04-21T10:01:16.000Z</time>
      </trkpt>
      <trkpt lat="44.47795" lon="6.26801">
        <ele>891</ele>
        <time>2023-04-21T10:01:17.000Z</time>
      </trkpt>
      <trkpt lat="44.47793" lon="6.26801">
        <ele>891</ele>
        <time>2023-04-21T10:01:18.000Z</time>
      </trkpt>
      <trkpt lat="44.47791" lon="6.26802">
        <ele>891</ele>
        <time>2023-04-21T10:01:19.000Z</time>
      </trkpt>
      <trkpt lat="44.47789" lon="6.26803">
        <ele>891</ele>
        <time>2023-04-21T10:01:20.000Z</time>
      </trkpt>
      <trkpt lat="44.47788" lon="6.26804">
        <ele>892</ele>
        <time>2023-04-21T10:01:21.000Z</time>
      </trkpt>
      <trkpt lat="44.47787" lon="6.26805">
        <ele>892</ele>
        <time>2023-04-21T10:01:22.000Z</time>
      </trkpt>
      <trkpt lat="44.47786" lon="6.26806">
        <ele>892</ele>
        <time>2023-04-21T10:01:23.000Z</time>
      </trkpt>
      <trkpt lat="44.47785" lon="6.26807">
        <ele>892</ele>
        <time>2023-04-21T10:01:24.000Z</time>
      </trkpt>
      <trkpt lat="44.47783" lon="6.26809">
        <ele>892</ele>
        <time>2023-04-21T10:01:25.000Z</time>
      </trkpt>
      <trkpt lat="44.47782" lon="6.2681">
        <ele>892</ele>
        <time>2023-04-21T10:01:26.000Z</time>
      </trkpt>
      <trkpt lat="44.4778" lon="6.26811">
        <ele>892</ele>
        <time>2023-04-21T10:01:27.000Z</time>
      </trkpt>
      <trkpt lat="44.47779" lon="6.26812">
        <ele>893</ele>
        <time>2023-04-21T10:01:28.000Z</time>
      </trkpt>
      <trkpt lat="44.47777" lon="6.26813">
        <ele>893</ele>
        <time>2023-04-21T10:01:29.000Z</time>
      </trkpt>
      <trkpt lat="44.47775" lon="6.26814">
        <ele>893</ele>
        <time>2023-04-21T10:01:30.000Z</time>
      </trkpt>
      <trkpt lat="44.47774" lon="6.26814">
        <ele>893</ele>
        <time>2023-04-21T10:01:31.000Z</time>
      </trkpt>
      <trkpt lat="44.47772" lon="6.26815">
        <ele>894</ele>
        <time>2023-04-21T10:01:32.000Z</time>
      </trkpt>
      <trkpt lat="44.4777" lon="6.26815">
        <ele>895</ele>
        <time>2023-04-21T10:01:33.000Z</time>
      </trkpt>
      <trkpt lat="44.47769" lon="6.26815">
        <ele>895</ele>
        <time>2023-04-21T10:01:34.000Z</time>
      </trkpt>
      <trkpt lat="44.47767" lon="6.26815">
        <ele>896</ele>
        <time>2023-04-21T10:01:35.000Z</time>
      </trkpt>
      <trkpt lat="44.47766" lon="6.26815">
        <ele>896</ele>
        <time>2023-04-21T10:01:36.000Z</time>
      </trkpt>
      <trkpt lat="44.47765" lon="6.26816">
        <ele>896</ele>
        <time>2023-04-21T10:01:37.000Z</time>
      </trkpt>
      <trkpt lat="44.47763" lon="6.26816">
        <ele>896</ele>
        <time>2023-04-21T10:01:38.000Z</time>
      </trkpt>
      <trkpt lat="44.47761" lon="6.26816">
        <ele>897</ele>
        <time>2023-04-21T10:01:39.000Z</time>
      </trkpt>
      <trkpt lat="44.4776" lon="6.26815">
        <ele>897</ele>
        <time>2023-04-21T10:01:40.000Z</time>
      </trkpt>
      <trkpt lat="44.47758" lon="6.26815">
        <ele>897</ele>
        <time>2023-04-21T10:01:41.000Z</time>
      </trkpt>
      <trkpt lat="44.47756" lon="6.26815">
        <ele>897</ele>
        <time>2023-04-21T10:01:42.000Z</time>
      </trkpt>
      <trkpt lat="44.47755" lon="6.26815">
        <ele>898</ele>
        <time>2023-04-21T10:01:43.000Z</time>
      </trkpt>
      <trkpt lat="44.47753" lon="6.26815">
        <ele>898</ele>
        <time>2023-04-21T10:01:44.000Z</time>
      </trkpt>
      <trkpt lat="44.47752" lon="6.26814">
        <ele>898</ele>
        <time>2023-04-21T10:01:45.000Z</time>
      </trkpt>
      <trkpt lat="44.47751" lon="6.26814">
        <ele>898</ele>
        <time>2023-04-21T10:01:46.000Z</time>
      </trkpt>
      <trkpt lat="44.47749" lon="6.26813">
        <ele>898</ele>
        <time>2023-04-21T10:01:47.000Z</time>
      </trkpt>
      <trkpt lat="44.47747" lon="6.26813">
        <ele>898</ele>
        <time>2023-04-21T10:01:48.000Z</time>
      </trkpt>
      <trkpt lat="44.47746" lon="6.26812">
        <ele>898</ele>
        <time>2023-04-21T10:01:49.000Z</time>
      </trkpt>
      <trkpt lat="44.47744" lon="6.26812">
        <ele>897</ele>
        <time>2023-04-21T10:01:50.000Z</time>
      </trkpt>
      <trkpt lat="44.47742" lon="6.26811">
        <ele>897</ele>
        <time>2023-04-21T10:01:51.000Z</time>
      </trkpt>
      <trkpt lat="44.4774" lon="6.26811">
        <ele>897</ele>
        <time>2023-04-21T10:01:52.000Z</time>
      </trkpt>
      <trkpt lat="44.47738" lon="6.26811">
        <ele>897</ele>
        <time>2023-04-21T10:01:53.000Z</time>
      </trkpt>
      <trkpt lat="44.47737" lon="6.26811">
        <ele>897</ele>
        <time>2023-04-21T10:01:54.000Z</time>
      </trkpt>
      <trkpt lat="44.47735" lon="6.2681">
        <ele>898</ele>
        <time>2023-04-21T10:01:55.000Z</time>
      </trkpt>
      <trkpt lat="44.47733" lon="6.26811">
        <ele>898</ele>
        <time>2023-04-21T10:01:56.000Z</time>
      </trkpt>
      <trkpt lat="44.47731" lon="6.26811">
        <ele>898</ele>
        <time>2023-04-21T10:01:57.000Z</time>
      </trkpt>
      <trkpt lat="44.4773" lon="6.26811">
        <ele>898</ele>
        <time>2023-04-21T10:01:58.000Z</time>
      </trkpt>
      <trkpt lat="44.47728" lon="6.26811">
        <ele>899</ele>
        <time>2023-04-21T10:01:59.000Z</time>
      </trkpt>
      <trkpt lat="44.47727" lon="6.26811">
        <ele>899</ele>
        <time>2023-04-21T10:02:00.000Z</time>
      </trkpt>
      <trkpt lat="44.47726" lon="6.26811">
        <ele>900</ele>
        <time>2023-04-21T10:02:01.000Z</time>
      </trkpt>
      <trkpt lat="44.47724" lon="6.26812">
        <ele>900</ele>
        <time>2023-04-21T10:02:02.000Z</time>
      </trkpt>
      <trkpt lat="44.47722" lon="6.26812">
        <ele>900</ele>
        <time>2023-04-21T10:02:03.000Z</time>
      </trkpt>
      <trkpt lat="44.4772" lon="6.26812">
        <ele>900</ele>
        <time>2023-04-21T10:02:04.000Z</time>
      </trkpt>
      <trkpt lat="44.47718" lon="6.26812">
        <ele>899</ele>
        <time>2023-04-21T10:02:05.000Z</time>
      </trkpt>
      <trkpt lat="44.47716" lon="6.26811">
        <ele>900</ele>
        <time>2023-04-21T10:02:06.000Z</time>
      </trkpt>
      <trkpt lat="44.47715" lon="6.26812">
        <ele>900</ele>
        <time>2023-04-21T10:02:07.000Z</time>
      </trkpt>
      <trkpt lat="44.47714" lon="6.26812">
        <ele>900</ele>
        <time>2023-04-21T10:02:08.000Z</time>
      </trkpt>
      <trkpt lat="44.47712" lon="6.26811">
        <ele>901</ele>
        <time>2023-04-21T10:02:09.000Z</time>
      </trkpt>
      <trkpt lat="44.4771" lon="6.26811">
        <ele>901</ele>
        <time>2023-04-21T10:02:10.000Z</time>
      </trkpt>
      <trkpt lat="44.47709" lon="6.2681">
        <ele>901</ele>
        <time>2023-04-21T10:02:11.000Z</time>
      </trkpt>
      <trkpt lat="44.47707" lon="6.2681">
        <ele>901</ele>
        <time>2023-04-21T10:02:12.000Z</time>
      </trkpt>
      <trkpt lat="44.47706" lon="6.26809">
        <ele>901</ele>
        <time>2023-04-21T10:02:13.000Z</time>
      </trkpt>
      <trkpt lat="44.47705" lon="6.26809">
        <ele>902</ele>
        <time>2023-04-21T10:02:14.000Z</time>
      </trkpt>
      <trkpt lat="44.47703" lon="6.26808">
        <ele>902</ele>
        <time>2023-04-21T10:02:15.000Z</time>
      </trkpt>
      <trkpt lat="44.47702" lon="6.26807">
        <ele>903</ele>
        <time>2023-04-21T10:02:16.000Z</time>
      </trkpt>
      <trkpt lat="44.477" lon="6.26806">
        <ele>903</ele>
        <time>2023-04-21T10:02:17.000Z</time>
      </trkpt>
      <trkpt lat="44.47698" lon="6.26805">
        <ele>903</ele>
        <time>2023-04-21T10:02:18.000Z</time>
      </trkpt>
      <trkpt lat="44.47697" lon="6.26804">
        <ele>903</ele>
        <time>2023-04-21T10:02:19.000Z</time>
      </trkpt>
      <trkpt lat="44.47695" lon="6.26803">
        <ele>903</ele>
        <time>2023-04-21T10:02:20.000Z</time>
      </trkpt>
      <trkpt lat="44.47693" lon="6.26802">
        <ele>903</ele>
        <time>2023-04-21T10:02:21.000Z</time>
      </trkpt>
      <trkpt lat="44.47692" lon="6.26801">
        <ele>902</ele>
        <time>2023-04-21T10:02:22.000Z</time>
      </trkpt>
      <trkpt lat="44.4769" lon="6.268">
        <ele>902</ele>
        <time>2023-04-21T10:02:23.000Z</time>
      </trkpt>
      <trkpt lat="44.4769" lon="6.26799">
        <ele>902</ele>
        <time>2023-04-21T10:02:24.000Z</time>
      </trkpt>
      <trkpt lat="44.47689" lon="6.26798">
        <ele>901</ele>
        <time>2023-04-21T10:02:25.000Z</time>
      </trkpt>
      <trkpt lat="44.47688" lon="6.26796">
        <ele>900</ele>
        <time>2023-04-21T10:02:26.000Z</time>
      </trkpt>
      <trkpt lat="44.47688" lon="6.26795">
        <ele>900</ele>
        <time>2023-04-21T10:02:27.000Z</time>
      </trkpt>
      <trkpt lat="44.47688" lon="6.26794">
        <ele>900</ele>
        <time>2023-04-21T10:02:28.000Z</time>
      </trkpt>
      <trkpt lat="44.47687" lon="6.26792">
        <ele>900</ele>
        <time>2023-04-21T10:02:29.000Z</time>
      </trkpt>
      <trkpt lat="44.47686" lon="6.26791">
        <ele>899</ele>
        <time>2023-04-21T10:02:30.000Z</time>
      </trkpt>
      <trkpt lat="44.47685" lon="6.26791">
        <ele>898</ele>
        <time>2023-04-21T10:02:31.000Z</time>
      </trkpt>
      <trkpt lat="44.47684" lon="6.26791">
        <ele>898</ele>
        <time>2023-04-21T10:02:32.000Z</time>
      </trkpt>
      <trkpt lat="44.47683" lon="6.26791">
        <ele>898</ele>
        <time>2023-04-21T10:02:33.000Z</time>
      </trkpt>
      <trkpt lat="44.47682" lon="6.26791">
        <ele>897</ele>
        <time>2023-04-21T10:02:34.000Z</time>
      </trkpt>
      <trkpt lat="44.47682" lon="6.26791">
        <ele>897</ele>
        <time>2023-04-21T10:02:35.000Z</time>
      </trkpt>
      <trkpt lat="44.47681" lon="6.26791">
        <ele>897</ele>
        <time>2023-04-21T10:02:36.000Z</time>
      </trkpt>
      <trkpt lat="44.47681" lon="6.26791">
        <ele>897</ele>
        <time>2023-04-21T10:02:37.000Z</time>
      </trkpt>
      <trkpt lat="44.4768" lon="6.26791">
        <ele>897</ele>
        <time>2023-04-21T10:02:38.000Z</time>
      </trkpt>
      <trkpt lat="44.4768" lon="6.2679">
        <ele>897</ele>
        <time>2023-04-21T10:02:39.000Z</time>
      </trkpt>
      <trkpt lat="44.4768" lon="6.2679">
        <ele>896</ele>
        <time>2023-04-21T10:02:40.000Z</time>
      </trkpt>
      <trkpt lat="44.47679" lon="6.2679">
        <ele>896</ele>
        <time>2023-04-21T10:02:41.000Z</time>
      </trkpt>
      <trkpt lat="44.47679" lon="6.2679">
        <ele>896</ele>
        <time>2023-04-21T10:02:42.000Z</time>
      </trkpt>
      <trkpt lat="44.47679" lon="6.2679">
        <ele>896</ele>
        <time>2023-04-21T10:02:43.000Z</time>
      </trkpt>
      <trkpt lat="44.47679" lon="6.2679">
        <ele>896</ele>
        <time>2023-04-21T10:02:44.000Z</time>
      </trkpt>
      <trkpt lat="44.47678" lon="6.2679">
        <ele>896</ele>
        <time>2023-04-21T10:02:45.000Z</time>
      </trkpt>
      <trkpt lat="44.47678" lon="6.2679">
        <ele>896</ele>
        <time>2023-04-21T10:02:46.000Z</time>
      </trkpt>
      <trkpt lat="44.47678" lon="6.2679">
        <ele>896</ele>
        <time>2023-04-21T10:02:47.000Z</time>
      </trkpt>
      <trkpt lat="44.47677" lon="6.2679">
        <ele>896</ele>
        <time>2023-04-21T10:02:48.000Z</time>
      </trkpt>
      <trkpt lat="44.47677" lon="6.2679">
        <ele>896</ele>
        <time>2023-04-21T10:02:49.000Z</time>
      </trkpt>
      <trkpt lat="44.47677" lon="6.2679">
        <ele>896</ele>
        <time>2023-04-21T10:02:50.000Z</time>
      </trkpt>
      <trkpt lat="44.47677" lon="6.2679">
        <ele>896</ele>
        <time>2023-04-21T10:02:51.000Z</time>
      </trkpt>
      <trkpt lat="44.47676" lon="6.2679">
        <ele>896</ele>
        <time>2023-04-21T10:02:52.000Z</time>
      </trkpt>
      <trkpt lat="44.47676" lon="6.2679">
        <ele>896</ele>
        <time>2023-04-21T10:02:53.000Z</time>
      </trkpt>
      <trkpt lat="44.47676" lon="6.2679">
        <ele>896</ele>
        <time>2023-04-21T10:02:54.000Z</time>
      </trkpt>
      <trkpt lat="44.47676" lon="6.2679">
        <ele>896</ele>
        <time>2023-04-21T10:02:55.000Z</time>
      </trkpt>
      <trkpt lat="44.47675" lon="6.2679">
        <ele>896</ele>
        <time>2023-04-21T10:02:56.000Z</time>
      </trkpt>
      <trkpt lat="44.47675" lon="6.2679">
        <ele>896</ele>
        <time>2023-04-21T10:02:57.000Z</time>
      </trkpt>
      <trkpt lat="44.47675" lon="6.2679">
        <ele>896</ele>
        <time>2023-04-21T10:02:58.000Z</time>
      </trkpt>
      <trkpt lat="44.47675" lon="6.2679">
        <ele>896</ele>
        <time>2023-04-21T10:02:59.000Z</time>
      </trkpt>
      <trkpt lat="44.47675" lon="6.26789">
        <ele>896</ele>
        <time>2023-04-21T10:03:00.000Z</time>
      </trkpt>
      <trkpt lat="44.47675" lon="6.26786">
        <ele>896</ele>
        <time>2023-04-21T10:03:01.000Z</time>
      </trkpt>
      <trkpt lat="44.47676" lon="6.26784">
        <ele>897</ele>
        <time>2023-04-21T10:03:02.000Z</time>
      </trkpt>
      <trkpt lat="44.47676" lon="6.26782">
        <ele>897</ele>
        <time>2023-04-21T10:03:03.000Z</time>
      </trkpt>
      <trkpt lat="44.47676" lon="6.2678">
        <ele>897</ele>
        <time>2023-04-21T10:03:04.000Z</time>
      </trkpt>
      <trkpt lat="44.47677" lon="6.26777">
        <ele>897</ele>
        <time>2023-04-21T10:03:05.000Z</time>
      </trkpt>
      <trkpt lat="44.47677" lon="6.26774">
        <ele>897</ele>
        <time>2023-04-21T10:03:06.000Z</time>
      </trkpt>
      <trkpt lat="44.47678" lon="6.26771">
        <ele>897</ele>
        <time>2023-04-21T10:03:07.000Z</time>
      </trkpt>
      <trkpt lat="44.47678" lon="6.26767">
        <ele>897</ele>
        <time>2023-04-21T10:03:08.000Z</time>
      </trkpt>
      <trkpt lat="44.47679" lon="6.26763">
        <ele>897</ele>
        <time>2023-04-21T10:03:09.000Z</time>
      </trkpt>
      <trkpt lat="44.47679" lon="6.26759">
        <ele>897</ele>
        <time>2023-04-21T10:03:10.000Z</time>
      </trkpt>
      <trkpt lat="44.4768" lon="6.26756">
        <ele>897</ele>
        <time>2023-04-21T10:03:11.000Z</time>
      </trkpt>
      <trkpt lat="44.4768" lon="6.26752">
        <ele>897</ele>
        <time>2023-04-21T10:03:12.000Z</time>
      </trkpt>
      <trkpt lat="44.47681" lon="6.26749">
        <ele>897</ele>
        <time>2023-04-21T10:03:13.000Z</time>
      </trkpt>
      <trkpt lat="44.47682" lon="6.26745">
        <ele>897</ele>
        <time>2023-04-21T10:03:14.000Z</time>
      </trkpt>
      <trkpt lat="44.47682" lon="6.26741">
        <ele>897</ele>
        <time>2023-04-21T10:03:15.000Z</time>
      </trkpt>
      <trkpt lat="44.47683" lon="6.26737">
        <ele>896</ele>
        <time>2023-04-21T10:03:16.000Z</time>
      </trkpt>
      <trkpt lat="44.47683" lon="6.26733">
        <ele>896</ele>
        <time>2023-04-21T10:03:17.000Z</time>
      </trkpt>
      <trkpt lat="44.47684" lon="6.26729">
        <ele>896</ele>
        <time>2023-04-21T10:03:18.000Z</time>
      </trkpt>
      <trkpt lat="44.47684" lon="6.26725">
        <ele>896</ele>
        <time>2023-04-21T10:03:19.000Z</time>
      </trkpt>
      <trkpt lat="44.47684" lon="6.2672">
        <ele>896</ele>
        <time>2023-04-21T10:03:20.000Z</time>
      </trkpt>
      <trkpt lat="44.47685" lon="6.26716">
        <ele>896</ele>
        <time>2023-04-21T10:03:21.000Z</time>
      </trkpt>
      <trkpt lat="44.47686" lon="6.26712">
        <ele>896</ele>
        <time>2023-04-21T10:03:22.000Z</time>
      </trkpt>
      <trkpt lat="44.47686" lon="6.26707">
        <ele>896</ele>
        <time>2023-04-21T10:03:23.000Z</time>
      </trkpt>
      <trkpt lat="44.47685" lon="6.26703">
        <ele>896</ele>
        <time>2023-04-21T10:03:24.000Z</time>
      </trkpt>
      <trkpt lat="44.47685" lon="6.26698">
        <ele>895</ele>
        <time>2023-04-21T10:03:25.000Z</time>
      </trkpt>
      <trkpt lat="44.47685" lon="6.26694">
        <ele>895</ele>
        <time>2023-04-21T10:03:26.000Z</time>
      </trkpt>
      <trkpt lat="44.47684" lon="6.26689">
        <ele>895</ele>
        <time>2023-04-21T10:03:27.000Z</time>
      </trkpt>
      <trkpt lat="44.47683" lon="6.26685">
        <ele>895</ele>
        <time>2023-04-21T10:03:28.000Z</time>
      </trkpt>
      <trkpt lat="44.47683" lon="6.26681">
        <ele>895</ele>
        <time>2023-04-21T10:03:29.000Z</time>
      </trkpt>
      <trkpt lat="44.47682" lon="6.26677">
        <ele>895</ele>
        <time>2023-04-21T10:03:30.000Z</time>
      </trkpt>
      <trkpt lat="44.47681" lon="6.26673">
        <ele>895</ele>
        <time>2023-04-21T10:03:31.000Z</time>
      </trkpt>
      <trkpt lat="44.4768" lon="6.26669">
        <ele>895</ele>
        <time>2023-04-21T10:03:32.000Z</time>
      </trkpt>
      <trkpt lat="44.47679" lon="6.26665">
        <ele>896</ele>
        <time>2023-04-21T10:03:33.000Z</time>
      </trkpt>
      <trkpt lat="44.47678" lon="6.2666">
        <ele>896</ele>
        <time>2023-04-21T10:03:34.000Z</time>
      </trkpt>
      <trkpt lat="44.47676" lon="6.26656">
        <ele>896</ele>
        <time>2023-04-21T10:03:35.000Z</time>
      </trkpt>
      <trkpt lat="44.47675" lon="6.26652">
        <ele>897</ele>
        <time>2023-04-21T10:03:36.000Z</time>
      </trkpt>
      <trkpt lat="44.47674" lon="6.26648">
        <ele>897</ele>
        <time>2023-04-21T10:03:37.000Z</time>
      </trkpt>
      <trkpt lat="44.47673" lon="6.26644">
        <ele>897</ele>
        <time>2023-04-21T10:03:38.000Z</time>
      </trkpt>
      <trkpt lat="44.47672" lon="6.2664">
        <ele>898</ele>
        <time>2023-04-21T10:03:39.000Z</time>
      </trkpt>
      <trkpt lat="44.47671" lon="6.26635">
        <ele>898</ele>
        <time>2023-04-21T10:03:40.000Z</time>
      </trkpt>
      <trkpt lat="44.4767" lon="6.26631">
        <ele>898</ele>
        <time>2023-04-21T10:03:41.000Z</time>
      </trkpt>
      <trkpt lat="44.47669" lon="6.26627">
        <ele>898</ele>
        <time>2023-04-21T10:03:42.000Z</time>
      </trkpt>
      <trkpt lat="44.47668" lon="6.26623">
        <ele>899</ele>
        <time>2023-04-21T10:03:43.000Z</time>
      </trkpt>
      <trkpt lat="44.47667" lon="6.26619">
        <ele>899</ele>
        <time>2023-04-21T10:03:44.000Z</time>
      </trkpt>
      <trkpt lat="44.47666" lon="6.26616">
        <ele>899</ele>
        <time>2023-04-21T10:03:45.000Z</time>
      </trkpt>
      <trkpt lat="44.47666" lon="6.26612">
        <ele>899</ele>
        <time>2023-04-21T10:03:46.000Z</time>
      </trkpt>
      <trkpt lat="44.47665" lon="6.26608">
        <ele>900</ele>
        <time>2023-04-21T10:03:47.000Z</time>
      </trkpt>
      <trkpt lat="44.47665" lon="6.26605">
        <ele>900</ele>
        <time>2023-04-21T10:03:48.000Z</time>
      </trkpt>
      <trkpt lat="44.47665" lon="6.26601">
        <ele>900</ele>
        <time>2023-04-21T10:03:49.000Z</time>
      </trkpt>
      <trkpt lat="44.47665" lon="6.26597">
        <ele>900</ele>
        <time>2023-04-21T10:03:50.000Z</time>
      </trkpt>
      <trkpt lat="44.47666" lon="6.26594">
        <ele>900</ele>
        <time>2023-04-21T10:03:51.000Z</time>
      </trkpt>
      <trkpt lat="44.47666" lon="6.26591">
        <ele>900</ele>
        <time>2023-04-21T10:03:52.000Z</time>
      </trkpt>
      <trkpt lat="44.47667" lon="6.26589">
        <ele>900</ele>
        <time>2023-04-21T10:03:53.000Z</time>
      </trkpt>
      <trkpt lat="44.47668" lon="6.26588">
        <ele>900</ele>
        <time>2023-04-21T10:03:54.000Z</time>
      </trkpt>
      <trkpt lat="44.47668" lon="6.26586">
        <ele>900</ele>
        <time>2023-04-21T10:03:55.000Z</time>
      </trkpt>
      <trkpt lat="44.47668" lon="6.26584">
        <ele>901</ele>
        <time>2023-04-21T10:03:56.000Z</time>
      </trkpt>
      <trkpt lat="44.47668" lon="6.26583">
        <ele>900</ele>
        <time>2023-04-21T10:03:57.000Z</time>
      </trkpt>
      <trkpt lat="44.47666" lon="6.26585">
        <ele>901</ele>
        <time>2023-04-21T10:03:58.000Z</time>
      </trkpt>
      <trkpt lat="44.47665" lon="6.26586">
        <ele>901</ele>
        <time>2023-04-21T10:03:59.000Z</time>
      </trkpt>
      <trkpt lat="44.47663" lon="6.26588">
        <ele>901</ele>
        <time>2023-04-21T10:04:00.000Z</time>
      </trkpt>
      <trkpt lat="44.47662" lon="6.26589">
        <ele>902</ele>
        <time>2023-04-21T10:04:01.000Z</time>
      </trkpt>
      <trkpt lat="44.4766" lon="6.26591">
        <ele>902</ele>
        <time>2023-04-21T10:04:02.000Z</time>
      </trkpt>
      <trkpt lat="44.47661" lon="6.26593">
        <ele>902</ele>
        <time>2023-04-21T10:04:03.000Z</time>
      </trkpt>
      <trkpt lat="44.47663" lon="6.26594">
        <ele>903</ele>
        <time>2023-04-21T10:04:04.000Z</time>
      </trkpt>
      <trkpt lat="44.47664" lon="6.26594">
        <ele>902</ele>
        <time>2023-04-21T10:04:05.000Z</time>
      </trkpt>
      <trkpt lat="44.47666" lon="6.26592">
        <ele>903</ele>
        <time>2023-04-21T10:04:06.000Z</time>
      </trkpt>
      <trkpt lat="44.47666" lon="6.2659">
        <ele>903</ele>
        <time>2023-04-21T10:04:07.000Z</time>
      </trkpt>
      <trkpt lat="44.47667" lon="6.26587">
        <ele>903</ele>
        <time>2023-04-21T10:04:08.000Z</time>
      </trkpt>
      <trkpt lat="44.47668" lon="6.26584">
        <ele>903</ele>
        <time>2023-04-21T10:04:09.000Z</time>
      </trkpt>
      <trkpt lat="44.4767" lon="6.26582">
        <ele>903</ele>
        <time>2023-04-21T10:04:10.000Z</time>
      </trkpt>
      <trkpt lat="44.47672" lon="6.2658">
        <ele>904</ele>
        <time>2023-04-21T10:04:11.000Z</time>
      </trkpt>
      <trkpt lat="44.47674" lon="6.26577">
        <ele>904</ele>
        <time>2023-04-21T10:04:12.000Z</time>
      </trkpt>
      <trkpt lat="44.47676" lon="6.26575">
        <ele>904</ele>
        <time>2023-04-21T10:04:13.000Z</time>
      </trkpt>
      <trkpt lat="44.47678" lon="6.26573">
        <ele>904</ele>
        <time>2023-04-21T10:04:14.000Z</time>
      </trkpt>
      <trkpt lat="44.4768" lon="6.26571">
        <ele>904</ele>
        <time>2023-04-21T10:04:15.000Z</time>
      </trkpt>
      <trkpt lat="44.47682" lon="6.26569">
        <ele>904</ele>
        <time>2023-04-21T10:04:16.000Z</time>
      </trkpt>
      <trkpt lat="44.47684" lon="6.26567">
        <ele>904</ele>
        <time>2023-04-21T10:04:17.000Z</time>
      </trkpt>
      <trkpt lat="44.47686" lon="6.26564">
        <ele>904</ele>
        <time>2023-04-21T10:04:18.000Z</time>
      </trkpt>
      <trkpt lat="44.47688" lon="6.26562">
        <ele>904</ele>
        <time>2023-04-21T10:04:19.000Z</time>
      </trkpt>
      <trkpt lat="44.4769" lon="6.2656">
        <ele>905</ele>
        <time>2023-04-21T10:04:20.000Z</time>
      </trkpt>
      <trkpt lat="44.47692" lon="6.26557">
        <ele>905</ele>
        <time>2023-04-21T10:04:21.000Z</time>
      </trkpt>
      <trkpt lat="44.47694" lon="6.26555">
        <ele>905</ele>
        <time>2023-04-21T10:04:22.000Z</time>
      </trkpt>
      <trkpt lat="44.47696" lon="6.26553">
        <ele>905</ele>
        <time>2023-04-21T10:04:23.000Z</time>
      </trkpt>
      <trkpt lat="44.47698" lon="6.26551">
        <ele>906</ele>
        <time>2023-04-21T10:04:24.000Z</time>
      </trkpt>
      <trkpt lat="44.477" lon="6.26548">
        <ele>906</ele>
        <time>2023-04-21T10:04:25.000Z</time>
      </trkpt>
      <trkpt lat="44.47702" lon="6.26545">
        <ele>906</ele>
        <time>2023-04-21T10:04:26.000Z</time>
      </trkpt>
      <trkpt lat="44.47703" lon="6.26542">
        <ele>906</ele>
        <time>2023-04-21T10:04:27.000Z</time>
      </trkpt>
      <trkpt lat="44.47704" lon="6.26539">
        <ele>906</ele>
        <time>2023-04-21T10:04:28.000Z</time>
      </trkpt>
      <trkpt lat="44.47705" lon="6.26535">
        <ele>907</ele>
        <time>2023-04-21T10:04:29.000Z</time>
      </trkpt>
      <trkpt lat="44.47706" lon="6.26533">
        <ele>907</ele>
        <time>2023-04-21T10:04:30.000Z</time>
      </trkpt>
      <trkpt lat="44.47707" lon="6.26529">
        <ele>907</ele>
        <time>2023-04-21T10:04:31.000Z</time>
      </trkpt>
      <trkpt lat="44.47707" lon="6.26525">
        <ele>907</ele>
        <time>2023-04-21T10:04:32.000Z</time>
      </trkpt>
      <trkpt lat="44.47708" lon="6.26522">
        <ele>907</ele>
        <time>2023-04-21T10:04:33.000Z</time>
      </trkpt>
      <trkpt lat="44.47708" lon="6.26518">
        <ele>907</ele>
        <time>2023-04-21T10:04:34.000Z</time>
      </trkpt>
      <trkpt lat="44.47709" lon="6.26515">
        <ele>907</ele>
        <time>2023-04-21T10:04:35.000Z</time>
      </trkpt>
      <trkpt lat="44.47709" lon="6.26511">
        <ele>908</ele>
        <time>2023-04-21T10:04:36.000Z</time>
      </trkpt>
      <trkpt lat="44.47709" lon="6.26508">
        <ele>908</ele>
        <time>2023-04-21T10:04:37.000Z</time>
      </trkpt>
      <trkpt lat="44.4771" lon="6.26504">
        <ele>909</ele>
        <time>2023-04-21T10:04:38.000Z</time>
      </trkpt>
      <trkpt lat="44.4771" lon="6.265">
        <ele>909</ele>
        <time>2023-04-21T10:04:39.000Z</time>
      </trkpt>
      <trkpt lat="44.4771" lon="6.26497">
        <ele>909</ele>
        <time>2023-04-21T10:04:40.000Z</time>
      </trkpt>
      <trkpt lat="44.4771" lon="6.26494">
        <ele>909</ele>
        <time>2023-04-21T10:04:41.000Z</time>
      </trkpt>
      <trkpt lat="44.4771" lon="6.26491">
        <ele>910</ele>
        <time>2023-04-21T10:04:42.000Z</time>
      </trkpt>
      <trkpt lat="44.4771" lon="6.26489">
        <ele>911</ele>
        <time>2023-04-21T10:04:43.000Z</time>
      </trkpt>
      <trkpt lat="44.47709" lon="6.26486">
        <ele>911</ele>
        <time>2023-04-21T10:04:44.000Z</time>
      </trkpt>
      <trkpt lat="44.47709" lon="6.26484">
        <ele>911</ele>
        <time>2023-04-21T10:04:45.000Z</time>
      </trkpt>
      <trkpt lat="44.47708" lon="6.26481">
        <ele>912</ele>
        <time>2023-04-21T10:04:46.000Z</time>
      </trkpt>
      <trkpt lat="44.47708" lon="6.26479">
        <ele>912</ele>
        <time>2023-04-21T10:04:47.000Z</time>
      </trkpt>
      <trkpt lat="44.47707" lon="6.26477">
        <ele>913</ele>
        <time>2023-04-21T10:04:48.000Z</time>
      </trkpt>
      <trkpt lat="44.47706" lon="6.26475">
        <ele>913</ele>
        <time>2023-04-21T10:04:49.000Z</time>
      </trkpt>
      <trkpt lat="44.47705" lon="6.26472">
        <ele>914</ele>
        <time>2023-04-21T10:04:50.000Z</time>
      </trkpt>
      <trkpt lat="44.47703" lon="6.2647">
        <ele>915</ele>
        <time>2023-04-21T10:04:51.000Z</time>
      </trkpt>
      <trkpt lat="44.47701" lon="6.26468">
        <ele>915</ele>
        <time>2023-04-21T10:04:52.000Z</time>
      </trkpt>
      <trkpt lat="44.47699" lon="6.26464">
        <ele>915</ele>
        <time>2023-04-21T10:04:53.000Z</time>
      </trkpt>
      <trkpt lat="44.47697" lon="6.26462">
        <ele>915</ele>
        <time>2023-04-21T10:04:54.000Z</time>
      </trkpt>
      <trkpt lat="44.47696" lon="6.2646">
        <ele>915</ele>
        <time>2023-04-21T10:04:55.000Z</time>
      </trkpt>
      <trkpt lat="44.47694" lon="6.26457">
        <ele>915</ele>
        <time>2023-04-21T10:04:56.000Z</time>
      </trkpt>
      <trkpt lat="44.47693" lon="6.26455">
        <ele>914</ele>
        <time>2023-04-21T10:04:57.000Z</time>
      </trkpt>
      <trkpt lat="44.47693" lon="6.26454">
        <ele>914</ele>
        <time>2023-04-21T10:04:58.000Z</time>
      </trkpt>
      <trkpt lat="44.47692" lon="6.26453">
        <ele>914</ele>
        <time>2023-04-21T10:04:59.000Z</time>
      </trkpt>
      <trkpt lat="44.47692" lon="6.26452">
        <ele>914</ele>
        <time>2023-04-21T10:05:00.000Z</time>
      </trkpt>
      <trkpt lat="44.47692" lon="6.26452">
        <ele>914</ele>
        <time>2023-04-21T10:05:01.000Z</time>
      </trkpt>
      <trkpt lat="44.47692" lon="6.26452">
        <ele>914</ele>
        <time>2023-04-21T10:05:02.000Z</time>
      </trkpt>
      <trkpt lat="44.47691" lon="6.26452">
        <ele>914</ele>
        <time>2023-04-21T10:05:03.000Z</time>
      </trkpt>
      <trkpt lat="44.47691" lon="6.26451">
        <ele>914</ele>
        <time>2023-04-21T10:05:04.000Z</time>
      </trkpt>
      <trkpt lat="44.47691" lon="6.26451">
        <ele>913</ele>
        <time>2023-04-21T10:05:05.000Z</time>
      </trkpt>
      <trkpt lat="44.47691" lon="6.26451">
        <ele>913</ele>
        <time>2023-04-21T10:05:06.000Z</time>
      </trkpt>
      <trkpt lat="44.47691" lon="6.26451">
        <ele>913</ele>
        <time>2023-04-21T10:05:07.000Z</time>
      </trkpt>
      <trkpt lat="44.47691" lon="6.26451">
        <ele>913</ele>
        <time>2023-04-21T10:05:08.000Z</time>
      </trkpt>
      <trkpt lat="44.47691" lon="6.26451">
        <ele>913</ele>
        <time>2023-04-21T10:05:09.000Z</time>
      </trkpt>
      <trkpt lat="44.4769" lon="6.26451">
        <ele>913</ele>
        <time>2023-04-21T10:05:10.000Z</time>
      </trkpt>
      <trkpt lat="44.4769" lon="6.2645">
        <ele>913</ele>
        <time>2023-04-21T10:05:11.000Z</time>
      </trkpt>
      <trkpt lat="44.47689" lon="6.26449">
        <ele>913</ele>
        <time>2023-04-21T10:05:12.000Z</time>
      </trkpt>
      <trkpt lat="44.47687" lon="6.26447">
        <ele>913</ele>
        <time>2023-04-21T10:05:13.000Z</time>
      </trkpt>
      <trkpt lat="44.47686" lon="6.26445">
        <ele>913</ele>
        <time>2023-04-21T10:05:14.000Z</time>
      </trkpt>
      <trkpt lat="44.47685" lon="6.26442">
        <ele>914</ele>
        <time>2023-04-21T10:05:15.000Z</time>
      </trkpt>
      <trkpt lat="44.47684" lon="6.2644">
        <ele>914</ele>
        <time>2023-04-21T10:05:16.000Z</time>
      </trkpt>
      <trkpt lat="44.47682" lon="6.26437">
        <ele>914</ele>
        <time>2023-04-21T10:05:17.000Z</time>
      </trkpt>
      <trkpt lat="44.47681" lon="6.26433">
        <ele>914</ele>
        <time>2023-04-21T10:05:18.000Z</time>
      </trkpt>
      <trkpt lat="44.4768" lon="6.2643">
        <ele>914</ele>
        <time>2023-04-21T10:05:19.000Z</time>
      </trkpt>
      <trkpt lat="44.47679" lon="6.26427">
        <ele>915</ele>
        <time>2023-04-21T10:05:20.000Z</time>
      </trkpt>
      <trkpt lat="44.47678" lon="6.26423">
        <ele>915</ele>
        <time>2023-04-21T10:05:21.000Z</time>
      </trkpt>
      <trkpt lat="44.47677" lon="6.2642">
        <ele>915</ele>
        <time>2023-04-21T10:05:22.000Z</time>
      </trkpt>
      <trkpt lat="44.47676" lon="6.26416">
        <ele>915</ele>
        <time>2023-04-21T10:05:23.000Z</time>
      </trkpt>
      <trkpt lat="44.47676" lon="6.26413">
        <ele>916</ele>
        <time>2023-04-21T10:05:24.000Z</time>
      </trkpt>
      <trkpt lat="44.47675" lon="6.26409">
        <ele>916</ele>
        <time>2023-04-21T10:05:25.000Z</time>
      </trkpt>
      <trkpt lat="44.47675" lon="6.26406">
        <ele>916</ele>
        <time>2023-04-21T10:05:26.000Z</time>
      </trkpt>
      <trkpt lat="44.47675" lon="6.26402">
        <ele>916</ele>
        <time>2023-04-21T10:05:27.000Z</time>
      </trkpt>
      <trkpt lat="44.47675" lon="6.26398">
        <ele>916</ele>
        <time>2023-04-21T10:05:28.000Z</time>
      </trkpt>
      <trkpt lat="44.47675" lon="6.26394">
        <ele>916</ele>
        <time>2023-04-21T10:05:29.000Z</time>
      </trkpt>
      <trkpt lat="44.47676" lon="6.2639">
        <ele>917</ele>
        <time>2023-04-21T10:05:30.000Z</time>
      </trkpt>
      <trkpt lat="44.47678" lon="6.26387">
        <ele>918</ele>
        <time>2023-04-21T10:05:31.000Z</time>
      </trkpt>
      <trkpt lat="44.47679" lon="6.26384">
        <ele>918</ele>
        <time>2023-04-21T10:05:32.000Z</time>
      </trkpt>
      <trkpt lat="44.47681" lon="6.26381">
        <ele>918</ele>
        <time>2023-04-21T10:05:33.000Z</time>
      </trkpt>
      <trkpt lat="44.47683" lon="6.26379">
        <ele>919</ele>
        <time>2023-04-21T10:05:34.000Z</time>
      </trkpt>
      <trkpt lat="44.47685" lon="6.26376">
        <ele>919</ele>
        <time>2023-04-21T10:05:35.000Z</time>
      </trkpt>
      <trkpt lat="44.47687" lon="6.26374">
        <ele>919</ele>
        <time>2023-04-21T10:05:36.000Z</time>
      </trkpt>
      <trkpt lat="44.47689" lon="6.26371">
        <ele>919</ele>
        <time>2023-04-21T10:05:37.000Z</time>
      </trkpt>
      <trkpt lat="44.4769" lon="6.26368">
        <ele>920</ele>
        <time>2023-04-21T10:05:38.000Z</time>
      </trkpt>
      <trkpt lat="44.47692" lon="6.26365">
        <ele>920</ele>
        <time>2023-04-21T10:05:39.000Z</time>
      </trkpt>
      <trkpt lat="44.47693" lon="6.26362">
        <ele>921</ele>
        <time>2023-04-21T10:05:40.000Z</time>
      </trkpt>
      <trkpt lat="44.47693" lon="6.26358">
        <ele>921</ele>
        <time>2023-04-21T10:05:41.000Z</time>
      </trkpt>
      <trkpt lat="44.47694" lon="6.26354">
        <ele>921</ele>
        <time>2023-04-21T10:05:42.000Z</time>
      </trkpt>
      <trkpt lat="44.47694" lon="6.2635">
        <ele>921</ele>
        <time>2023-04-21T10:05:43.000Z</time>
      </trkpt>
      <trkpt lat="44.47694" lon="6.26346">
        <ele>921</ele>
        <time>2023-04-21T10:05:44.000Z</time>
      </trkpt>
      <trkpt lat="44.47694" lon="6.26342">
        <ele>921</ele>
        <time>2023-04-21T10:05:45.000Z</time>
      </trkpt>
      <trkpt lat="44.47694" lon="6.26339">
        <ele>922</ele>
        <time>2023-04-21T10:05:46.000Z</time>
      </trkpt>
      <trkpt lat="44.47694" lon="6.26335">
        <ele>922</ele>
        <time>2023-04-21T10:05:47.000Z</time>
      </trkpt>
      <trkpt lat="44.47694" lon="6.26332">
        <ele>922</ele>
        <time>2023-04-21T10:05:48.000Z</time>
      </trkpt>
      <trkpt lat="44.47694" lon="6.26328">
        <ele>923</ele>
        <time>2023-04-21T10:05:49.000Z</time>
      </trkpt>
      <trkpt lat="44.47694" lon="6.26324">
        <ele>923</ele>
        <time>2023-04-21T10:05:50.000Z</time>
      </trkpt>
      <trkpt lat="44.47693" lon="6.2632">
        <ele>923</ele>
        <time>2023-04-21T10:05:51.000Z</time>
      </trkpt>
      <trkpt lat="44.47693" lon="6.26317">
        <ele>923</ele>
        <time>2023-04-21T10:05:52.000Z</time>
      </trkpt>
      <trkpt lat="44.47693" lon="6.26313">
        <ele>924</ele>
        <time>2023-04-21T10:05:53.000Z</time>
      </trkpt>
      <trkpt lat="44.47692" lon="6.26309">
        <ele>924</ele>
        <time>2023-04-21T10:05:54.000Z</time>
      </trkpt>
      <trkpt lat="44.47691" lon="6.26305">
        <ele>924</ele>
        <time>2023-04-21T10:05:55.000Z</time>
      </trkpt>
      <trkpt lat="44.47689" lon="6.26301">
        <ele>924</ele>
        <time>2023-04-21T10:05:56.000Z</time>
      </trkpt>
      <trkpt lat="44.47687" lon="6.26298">
        <ele>925</ele>
        <time>2023-04-21T10:05:57.000Z</time>
      </trkpt>
      <trkpt lat="44.47686" lon="6.26295">
        <ele>925</ele>
        <time>2023-04-21T10:05:58.000Z</time>
      </trkpt>
      <trkpt lat="44.47684" lon="6.26292">
        <ele>925</ele>
        <time>2023-04-21T10:05:59.000Z</time>
      </trkpt>
      <trkpt lat="44.47681" lon="6.2629">
        <ele>926</ele>
        <time>2023-04-21T10:06:00.000Z</time>
      </trkpt>
      <trkpt lat="44.47679" lon="6.26287">
        <ele>926</ele>
        <time>2023-04-21T10:06:01.000Z</time>
      </trkpt>
      <trkpt lat="44.47676" lon="6.26284">
        <ele>926</ele>
        <time>2023-04-21T10:06:02.000Z</time>
      </trkpt>
      <trkpt lat="44.47674" lon="6.26282">
        <ele>926</ele>
        <time>2023-04-21T10:06:03.000Z</time>
      </trkpt>
      <trkpt lat="44.47672" lon="6.26279">
        <ele>927</ele>
        <time>2023-04-21T10:06:04.000Z</time>
      </trkpt>
      <trkpt lat="44.47669" lon="6.26276">
        <ele>927</ele>
        <time>2023-04-21T10:06:05.000Z</time>
      </trkpt>
      <trkpt lat="44.47667" lon="6.26274">
        <ele>927</ele>
        <time>2023-04-21T10:06:06.000Z</time>
      </trkpt>
      <trkpt lat="44.47664" lon="6.26271">
        <ele>927</ele>
        <time>2023-04-21T10:06:07.000Z</time>
      </trkpt>
      <trkpt lat="44.47662" lon="6.26269">
        <ele>927</ele>
        <time>2023-04-21T10:06:08.000Z</time>
      </trkpt>
      <trkpt lat="44.47659" lon="6.26266">
        <ele>928</ele>
        <time>2023-04-21T10:06:09.000Z</time>
      </trkpt>
      <trkpt lat="44.47657" lon="6.26263">
        <ele>928</ele>
        <time>2023-04-21T10:06:10.000Z</time>
      </trkpt>
      <trkpt lat="44.47654" lon="6.2626">
        <ele>928</ele>
        <time>2023-04-21T10:06:11.000Z</time>
      </trkpt>
      <trkpt lat="44.47652" lon="6.26257">
        <ele>929</ele>
        <time>2023-04-21T10:06:12.000Z</time>
      </trkpt>
      <trkpt lat="44.4765" lon="6.26254">
        <ele>929</ele>
        <time>2023-04-21T10:06:13.000Z</time>
      </trkpt>
      <trkpt lat="44.47648" lon="6.26251">
        <ele>929</ele>
        <time>2023-04-21T10:06:14.000Z</time>
      </trkpt>
      <trkpt lat="44.47647" lon="6.26247">
        <ele>930</ele>
        <time>2023-04-21T10:06:15.000Z</time>
      </trkpt>
      <trkpt lat="44.47645" lon="6.26243">
        <ele>930</ele>
        <time>2023-04-21T10:06:16.000Z</time>
      </trkpt>
      <trkpt lat="44.47643" lon="6.26239">
        <ele>930</ele>
        <time>2023-04-21T10:06:17.000Z</time>
      </trkpt>
      <trkpt lat="44.47642" lon="6.26236">
        <ele>931</ele>
        <time>2023-04-21T10:06:18.000Z</time>
      </trkpt>
      <trkpt lat="44.47641" lon="6.26232">
        <ele>931</ele>
        <time>2023-04-21T10:06:19.000Z</time>
      </trkpt>
      <trkpt lat="44.4764" lon="6.26228">
        <ele>931</ele>
        <time>2023-04-21T10:06:20.000Z</time>
      </trkpt>
      <trkpt lat="44.47639" lon="6.26224">
        <ele>931</ele>
        <time>2023-04-21T10:06:21.000Z</time>
      </trkpt>
      <trkpt lat="44.47638" lon="6.26219">
        <ele>932</ele>
        <time>2023-04-21T10:06:22.000Z</time>
      </trkpt>
      <trkpt lat="44.47637" lon="6.26215">
        <ele>932</ele>
        <time>2023-04-21T10:06:23.000Z</time>
      </trkpt>
      <trkpt lat="44.47637" lon="6.26211">
        <ele>932</ele>
        <time>2023-04-21T10:06:24.000Z</time>
      </trkpt>
      <trkpt lat="44.47636" lon="6.26207">
        <ele>932</ele>
        <time>2023-04-21T10:06:25.000Z</time>
      </trkpt>
      <trkpt lat="44.47635" lon="6.26203">
        <ele>932</ele>
        <time>2023-04-21T10:06:26.000Z</time>
      </trkpt>
      <trkpt lat="44.47635" lon="6.26198">
        <ele>932</ele>
        <time>2023-04-21T10:06:27.000Z</time>
      </trkpt>
      <trkpt lat="44.47634" lon="6.26194">
        <ele>932</ele>
        <time>2023-04-21T10:06:28.000Z</time>
      </trkpt>
      <trkpt lat="44.47634" lon="6.2619">
        <ele>932</ele>
        <time>2023-04-21T10:06:29.000Z</time>
      </trkpt>
      <trkpt lat="44.47633" lon="6.26185">
        <ele>932</ele>
        <time>2023-04-21T10:06:30.000Z</time>
      </trkpt>
      <trkpt lat="44.47632" lon="6.26181">
        <ele>932</ele>
        <time>2023-04-21T10:06:31.000Z</time>
      </trkpt>
      <trkpt lat="44.47631" lon="6.26177">
        <ele>932</ele>
        <time>2023-04-21T10:06:32.000Z</time>
      </trkpt>
      <trkpt lat="44.47629" lon="6.26172">
        <ele>932</ele>
        <time>2023-04-21T10:06:33.000Z</time>
      </trkpt>
      <trkpt lat="44.47628" lon="6.26168">
        <ele>932</ele>
        <time>2023-04-21T10:06:34.000Z</time>
      </trkpt>
      <trkpt lat="44.47626" lon="6.26164">
        <ele>932</ele>
        <time>2023-04-21T10:06:35.000Z</time>
      </trkpt>
      <trkpt lat="44.47624" lon="6.2616">
        <ele>932</ele>
        <time>2023-04-21T10:06:36.000Z</time>
      </trkpt>
      <trkpt lat="44.47622" lon="6.26157">
        <ele>932</ele>
        <time>2023-04-21T10:06:37.000Z</time>
      </trkpt>
      <trkpt lat="44.4762" lon="6.26153">
        <ele>933</ele>
        <time>2023-04-21T10:06:38.000Z</time>
      </trkpt>
      <trkpt lat="44.47617" lon="6.2615">
        <ele>933</ele>
        <time>2023-04-21T10:06:39.000Z</time>
      </trkpt>
      <trkpt lat="44.47615" lon="6.26146">
        <ele>933</ele>
        <time>2023-04-21T10:06:40.000Z</time>
      </trkpt>
      <trkpt lat="44.47612" lon="6.26143">
        <ele>933</ele>
        <time>2023-04-21T10:06:41.000Z</time>
      </trkpt>
      <trkpt lat="44.47609" lon="6.2614">
        <ele>933</ele>
        <time>2023-04-21T10:06:42.000Z</time>
      </trkpt>
      <trkpt lat="44.47607" lon="6.26137">
        <ele>933</ele>
        <time>2023-04-21T10:06:43.000Z</time>
      </trkpt>
      <trkpt lat="44.47604" lon="6.26135">
        <ele>933</ele>
        <time>2023-04-21T10:06:44.000Z</time>
      </trkpt>
      <trkpt lat="44.47601" lon="6.26132">
        <ele>933</ele>
        <time>2023-04-21T10:06:45.000Z</time>
      </trkpt>
      <trkpt lat="44.47599" lon="6.26129">
        <ele>934</ele>
        <time>2023-04-21T10:06:46.000Z</time>
      </trkpt>
      <trkpt lat="44.47597" lon="6.26126">
        <ele>934</ele>
        <time>2023-04-21T10:06:47.000Z</time>
      </trkpt>
      <trkpt lat="44.47595" lon="6.26122">
        <ele>934</ele>
        <time>2023-04-21T10:06:48.000Z</time>
      </trkpt>
      <trkpt lat="44.47594" lon="6.26118">
        <ele>934</ele>
        <time>2023-04-21T10:06:49.000Z</time>
      </trkpt>
      <trkpt lat="44.47592" lon="6.26113">
        <ele>935</ele>
        <time>2023-04-21T10:06:50.000Z</time>
      </trkpt>
      <trkpt lat="44.47591" lon="6.26109">
        <ele>935</ele>
        <time>2023-04-21T10:06:51.000Z</time>
      </trkpt>
      <trkpt lat="44.4759" lon="6.26104">
        <ele>935</ele>
        <time>2023-04-21T10:06:52.000Z</time>
      </trkpt>
      <trkpt lat="44.47589" lon="6.261">
        <ele>935</ele>
        <time>2023-04-21T10:06:53.000Z</time>
      </trkpt>
      <trkpt lat="44.47588" lon="6.26095">
        <ele>935</ele>
        <time>2023-04-21T10:06:54.000Z</time>
      </trkpt>
      <trkpt lat="44.47587" lon="6.26091">
        <ele>935</ele>
        <time>2023-04-21T10:06:55.000Z</time>
      </trkpt>
      <trkpt lat="44.47585" lon="6.26086">
        <ele>935</ele>
        <time>2023-04-21T10:06:56.000Z</time>
      </trkpt>
      <trkpt lat="44.47583" lon="6.26082">
        <ele>935</ele>
        <time>2023-04-21T10:06:57.000Z</time>
      </trkpt>
      <trkpt lat="44.47581" lon="6.26079">
        <ele>936</ele>
        <time>2023-04-21T10:06:58.000Z</time>
      </trkpt>
      <trkpt lat="44.4758" lon="6.26075">
        <ele>936</ele>
        <time>2023-04-21T10:06:59.000Z</time>
      </trkpt>
      <trkpt lat="44.47578" lon="6.26072">
        <ele>936</ele>
        <time>2023-04-21T10:07:00.000Z</time>
      </trkpt>
      <trkpt lat="44.47576" lon="6.26068">
        <ele>937</ele>
        <time>2023-04-21T10:07:01.000Z</time>
      </trkpt>
      <trkpt lat="44.47575" lon="6.26064">
        <ele>937</ele>
        <time>2023-04-21T10:07:02.000Z</time>
      </trkpt>
      <trkpt lat="44.47575" lon="6.2606">
        <ele>937</ele>
        <time>2023-04-21T10:07:03.000Z</time>
      </trkpt>
      <trkpt lat="44.47576" lon="6.26056">
        <ele>937</ele>
        <time>2023-04-21T10:07:04.000Z</time>
      </trkpt>
      <trkpt lat="44.47578" lon="6.26054">
        <ele>938</ele>
        <time>2023-04-21T10:07:05.000Z</time>
      </trkpt>
      <trkpt lat="44.4758" lon="6.26051">
        <ele>939</ele>
        <time>2023-04-21T10:07:06.000Z</time>
      </trkpt>
      <trkpt lat="44.47581" lon="6.26048">
        <ele>939</ele>
        <time>2023-04-21T10:07:07.000Z</time>
      </trkpt>
      <trkpt lat="44.47582" lon="6.26045">
        <ele>940</ele>
        <time>2023-04-21T10:07:08.000Z</time>
      </trkpt>
      <trkpt lat="44.47584" lon="6.26043">
        <ele>940</ele>
        <time>2023-04-21T10:07:09.000Z</time>
      </trkpt>
      <trkpt lat="44.47585" lon="6.2604">
        <ele>941</ele>
        <time>2023-04-21T10:07:10.000Z</time>
      </trkpt>
      <trkpt lat="44.47587" lon="6.26038">
        <ele>942</ele>
        <time>2023-04-21T10:07:11.000Z</time>
      </trkpt>
      <trkpt lat="44.47589" lon="6.26035">
        <ele>942</ele>
        <time>2023-04-21T10:07:12.000Z</time>
      </trkpt>
      <trkpt lat="44.47591" lon="6.26032">
        <ele>942</ele>
        <time>2023-04-21T10:07:13.000Z</time>
      </trkpt>
      <trkpt lat="44.47593" lon="6.2603">
        <ele>943</ele>
        <time>2023-04-21T10:07:14.000Z</time>
      </trkpt>
      <trkpt lat="44.47594" lon="6.26027">
        <ele>944</ele>
        <time>2023-04-21T10:07:15.000Z</time>
      </trkpt>
      <trkpt lat="44.47597" lon="6.26024">
        <ele>945</ele>
        <time>2023-04-21T10:07:16.000Z</time>
      </trkpt>
      <trkpt lat="44.47599" lon="6.26021">
        <ele>945</ele>
        <time>2023-04-21T10:07:17.000Z</time>
      </trkpt>
      <trkpt lat="44.47602" lon="6.26018">
        <ele>945</ele>
        <time>2023-04-21T10:07:18.000Z</time>
      </trkpt>
      <trkpt lat="44.47604" lon="6.26015">
        <ele>946</ele>
        <time>2023-04-21T10:07:19.000Z</time>
      </trkpt>
      <trkpt lat="44.47606" lon="6.26012">
        <ele>946</ele>
        <time>2023-04-21T10:07:20.000Z</time>
      </trkpt>
      <trkpt lat="44.47609" lon="6.26009">
        <ele>946</ele>
        <time>2023-04-21T10:07:21.000Z</time>
      </trkpt>
      <trkpt lat="44.47611" lon="6.26006">
        <ele>947</ele>
        <time>2023-04-21T10:07:22.000Z</time>
      </trkpt>
      <trkpt lat="44.47613" lon="6.26003">
        <ele>947</ele>
        <time>2023-04-21T10:07:23.000Z</time>
      </trkpt>
      <trkpt lat="44.47616" lon="6.26">
        <ele>947</ele>
        <time>2023-04-21T10:07:24.000Z</time>
      </trkpt>
      <trkpt lat="44.47618" lon="6.25996">
        <ele>947</ele>
        <time>2023-04-21T10:07:25.000Z</time>
      </trkpt>
      <trkpt lat="44.4762" lon="6.25993">
        <ele>947</ele>
        <time>2023-04-21T10:07:26.000Z</time>
      </trkpt>
      <trkpt lat="44.47622" lon="6.2599">
        <ele>948</ele>
        <time>2023-04-21T10:07:27.000Z</time>
      </trkpt>
      <trkpt lat="44.47623" lon="6.25986">
        <ele>948</ele>
        <time>2023-04-21T10:07:28.000Z</time>
      </trkpt>
      <trkpt lat="44.47625" lon="6.25983">
        <ele>949</ele>
        <time>2023-04-21T10:07:29.000Z</time>
      </trkpt>
      <trkpt lat="44.47626" lon="6.25979">
        <ele>949</ele>
        <time>2023-04-21T10:07:30.000Z</time>
      </trkpt>
      <trkpt lat="44.47628" lon="6.25975">
        <ele>949</ele>
        <time>2023-04-21T10:07:31.000Z</time>
      </trkpt>
      <trkpt lat="44.47629" lon="6.25971">
        <ele>948</ele>
        <time>2023-04-21T10:07:32.000Z</time>
      </trkpt>
      <trkpt lat="44.47631" lon="6.25968">
        <ele>948</ele>
        <time>2023-04-21T10:07:33.000Z</time>
      </trkpt>
      <trkpt lat="44.47632" lon="6.25964">
        <ele>948</ele>
        <time>2023-04-21T10:07:34.000Z</time>
      </trkpt>
      <trkpt lat="44.47633" lon="6.2596">
        <ele>949</ele>
        <time>2023-04-21T10:07:35.000Z</time>
      </trkpt>
      <trkpt lat="44.47634" lon="6.25957">
        <ele>950</ele>
        <time>2023-04-21T10:07:36.000Z</time>
      </trkpt>
      <trkpt lat="44.47636" lon="6.25953">
        <ele>950</ele>
        <time>2023-04-21T10:07:37.000Z</time>
      </trkpt>
      <trkpt lat="44.47637" lon="6.2595">
        <ele>951</ele>
        <time>2023-04-21T10:07:38.000Z</time>
      </trkpt>
      <trkpt lat="44.47638" lon="6.25946">
        <ele>951</ele>
        <time>2023-04-21T10:07:39.000Z</time>
      </trkpt>
      <trkpt lat="44.47639" lon="6.25942">
        <ele>951</ele>
        <time>2023-04-21T10:07:40.000Z</time>
      </trkpt>
      <trkpt lat="44.47641" lon="6.25939">
        <ele>951</ele>
        <time>2023-04-21T10:07:41.000Z</time>
      </trkpt>
      <trkpt lat="44.47642" lon="6.25935">
        <ele>951</ele>
        <time>2023-04-21T10:07:42.000Z</time>
      </trkpt>
      <trkpt lat="44.47643" lon="6.25932">
        <ele>952</ele>
        <time>2023-04-21T10:07:43.000Z</time>
      </trkpt>
      <trkpt lat="44.47644" lon="6.25929">
        <ele>952</ele>
        <time>2023-04-21T10:07:44.000Z</time>
      </trkpt>
      <trkpt lat="44.47646" lon="6.25925">
        <ele>953</ele>
        <time>2023-04-21T10:07:45.000Z</time>
      </trkpt>
      <trkpt lat="44.47648" lon="6.25921">
        <ele>954</ele>
        <time>2023-04-21T10:07:46.000Z</time>
      </trkpt>
      <trkpt lat="44.4765" lon="6.25918">
        <ele>954</ele>
        <time>2023-04-21T10:07:47.000Z</time>
      </trkpt>
      <trkpt lat="44.47652" lon="6.25915">
        <ele>955</ele>
        <time>2023-04-21T10:07:48.000Z</time>
      </trkpt>
      <trkpt lat="44.47653" lon="6.25911">
        <ele>956</ele>
        <time>2023-04-21T10:07:49.000Z</time>
      </trkpt>
      <trkpt lat="44.47656" lon="6.25908">
        <ele>955</ele>
        <time>2023-04-21T10:07:50.000Z</time>
      </trkpt>
      <trkpt lat="44.47657" lon="6.25904">
        <ele>955</ele>
        <time>2023-04-21T10:07:51.000Z</time>
      </trkpt>
      <trkpt lat="44.47659" lon="6.259">
        <ele>955</ele>
        <time>2023-04-21T10:07:52.000Z</time>
      </trkpt>
      <trkpt lat="44.47661" lon="6.25896">
        <ele>956</ele>
        <time>2023-04-21T10:07:53.000Z</time>
      </trkpt>
      <trkpt lat="44.47662" lon="6.25892">
        <ele>956</ele>
        <time>2023-04-21T10:07:54.000Z</time>
      </trkpt>
      <trkpt lat="44.47664" lon="6.25888">
        <ele>956</ele>
        <time>2023-04-21T10:07:55.000Z</time>
      </trkpt>
      <trkpt lat="44.47665" lon="6.25884">
        <ele>957</ele>
        <time>2023-04-21T10:07:56.000Z</time>
      </trkpt>
      <trkpt lat="44.47666" lon="6.25879">
        <ele>957</ele>
        <time>2023-04-21T10:07:57.000Z</time>
      </trkpt>
      <trkpt lat="44.47667" lon="6.25875">
        <ele>958</ele>
        <time>2023-04-21T10:07:58.000Z</time>
      </trkpt>
      <trkpt lat="44.47667" lon="6.25871">
        <ele>958</ele>
        <time>2023-04-21T10:07:59.000Z</time>
      </trkpt>
      <trkpt lat="44.47667" lon="6.25867">
        <ele>958</ele>
        <time>2023-04-21T10:08:00.000Z</time>
      </trkpt>
      <trkpt lat="44.47668" lon="6.25863">
        <ele>959</ele>
        <time>2023-04-21T10:08:01.000Z</time>
      </trkpt>
      <trkpt lat="44.47668" lon="6.25859">
        <ele>959</ele>
        <time>2023-04-21T10:08:02.000Z</time>
      </trkpt>
      <trkpt lat="44.47668" lon="6.25854">
        <ele>959</ele>
        <time>2023-04-21T10:08:03.000Z</time>
      </trkpt>
      <trkpt lat="44.47669" lon="6.2585">
        <ele>959</ele>
        <time>2023-04-21T10:08:04.000Z</time>
      </trkpt>
      <trkpt lat="44.4767" lon="6.25845">
        <ele>959</ele>
        <time>2023-04-21T10:08:05.000Z</time>
      </trkpt>
      <trkpt lat="44.47671" lon="6.25841">
        <ele>960</ele>
        <time>2023-04-21T10:08:06.000Z</time>
      </trkpt>
      <trkpt lat="44.47673" lon="6.25837">
        <ele>960</ele>
        <time>2023-04-21T10:08:07.000Z</time>
      </trkpt>
      <trkpt lat="44.47675" lon="6.25833">
        <ele>960</ele>
        <time>2023-04-21T10:08:08.000Z</time>
      </trkpt>
      <trkpt lat="44.47677" lon="6.2583">
        <ele>961</ele>
        <time>2023-04-21T10:08:09.000Z</time>
      </trkpt>
      <trkpt lat="44.4768" lon="6.25828">
        <ele>961</ele>
        <time>2023-04-21T10:08:10.000Z</time>
      </trkpt>
      <trkpt lat="44.47683" lon="6.25826">
        <ele>961</ele>
        <time>2023-04-21T10:08:11.000Z</time>
      </trkpt>
      <trkpt lat="44.47685" lon="6.25825">
        <ele>962</ele>
        <time>2023-04-21T10:08:12.000Z</time>
      </trkpt>
      <trkpt lat="44.47688" lon="6.25824">
        <ele>962</ele>
        <time>2023-04-21T10:08:13.000Z</time>
      </trkpt>
      <trkpt lat="44.47691" lon="6.25823">
        <ele>962</ele>
        <time>2023-04-21T10:08:14.000Z</time>
      </trkpt>
      <trkpt lat="44.47694" lon="6.25823">
        <ele>962</ele>
        <time>2023-04-21T10:08:15.000Z</time>
      </trkpt>
      <trkpt lat="44.47696" lon="6.25822">
        <ele>962</ele>
        <time>2023-04-21T10:08:16.000Z</time>
      </trkpt>
      <trkpt lat="44.47699" lon="6.25821">
        <ele>963</ele>
        <time>2023-04-21T10:08:17.000Z</time>
      </trkpt>
      <trkpt lat="44.47702" lon="6.25819">
        <ele>963</ele>
        <time>2023-04-21T10:08:18.000Z</time>
      </trkpt>
      <trkpt lat="44.47704" lon="6.25818">
        <ele>963</ele>
        <time>2023-04-21T10:08:19.000Z</time>
      </trkpt>
      <trkpt lat="44.47707" lon="6.25816">
        <ele>963</ele>
        <time>2023-04-21T10:08:20.000Z</time>
      </trkpt>
      <trkpt lat="44.47709" lon="6.25815">
        <ele>964</ele>
        <time>2023-04-21T10:08:21.000Z</time>
      </trkpt>
      <trkpt lat="44.47712" lon="6.25813">
        <ele>964</ele>
        <time>2023-04-21T10:08:22.000Z</time>
      </trkpt>
      <trkpt lat="44.47714" lon="6.25811">
        <ele>964</ele>
        <time>2023-04-21T10:08:23.000Z</time>
      </trkpt>
      <trkpt lat="44.47717" lon="6.25808">
        <ele>964</ele>
        <time>2023-04-21T10:08:24.000Z</time>
      </trkpt>
      <trkpt lat="44.47719" lon="6.25806">
        <ele>964</ele>
        <time>2023-04-21T10:08:25.000Z</time>
      </trkpt>
      <trkpt lat="44.47721" lon="6.25803">
        <ele>965</ele>
        <time>2023-04-21T10:08:26.000Z</time>
      </trkpt>
      <trkpt lat="44.47723" lon="6.258">
        <ele>965</ele>
        <time>2023-04-21T10:08:27.000Z</time>
      </trkpt>
      <trkpt lat="44.47726" lon="6.25797">
        <ele>965</ele>
        <time>2023-04-21T10:08:28.000Z</time>
      </trkpt>
      <trkpt lat="44.47728" lon="6.25794">
        <ele>965</ele>
        <time>2023-04-21T10:08:29.000Z</time>
      </trkpt>
      <trkpt lat="44.4773" lon="6.25791">
        <ele>965</ele>
        <time>2023-04-21T10:08:30.000Z</time>
      </trkpt>
      <trkpt lat="44.47732" lon="6.25787">
        <ele>965</ele>
        <time>2023-04-21T10:08:31.000Z</time>
      </trkpt>
      <trkpt lat="44.47734" lon="6.25784">
        <ele>966</ele>
        <time>2023-04-21T10:08:32.000Z</time>
      </trkpt>
      <trkpt lat="44.47736" lon="6.25781">
        <ele>966</ele>
        <time>2023-04-21T10:08:33.000Z</time>
      </trkpt>
      <trkpt lat="44.47738" lon="6.25778">
        <ele>966</ele>
        <time>2023-04-21T10:08:34.000Z</time>
      </trkpt>
      <trkpt lat="44.4774" lon="6.25775">
        <ele>967</ele>
        <time>2023-04-21T10:08:35.000Z</time>
      </trkpt>
      <trkpt lat="44.47741" lon="6.25771">
        <ele>967</ele>
        <time>2023-04-21T10:08:36.000Z</time>
      </trkpt>
      <trkpt lat="44.47743" lon="6.25768">
        <ele>967</ele>
        <time>2023-04-21T10:08:37.000Z</time>
      </trkpt>
      <trkpt lat="44.47744" lon="6.25764">
        <ele>968</ele>
        <time>2023-04-21T10:08:38.000Z</time>
      </trkpt>
      <trkpt lat="44.47745" lon="6.2576">
        <ele>968</ele>
        <time>2023-04-21T10:08:39.000Z</time>
      </trkpt>
      <trkpt lat="44.47747" lon="6.25756">
        <ele>968</ele>
        <time>2023-04-21T10:08:40.000Z</time>
      </trkpt>
      <trkpt lat="44.47748" lon="6.25752">
        <ele>969</ele>
        <time>2023-04-21T10:08:41.000Z</time>
      </trkpt>
      <trkpt lat="44.47748" lon="6.25748">
        <ele>969</ele>
        <time>2023-04-21T10:08:42.000Z</time>
      </trkpt>
      <trkpt lat="44.47748" lon="6.25744">
        <ele>970</ele>
        <time>2023-04-21T10:08:43.000Z</time>
      </trkpt>
      <trkpt lat="44.47748" lon="6.25739">
        <ele>970</ele>
        <time>2023-04-21T10:08:44.000Z</time>
      </trkpt>
      <trkpt lat="44.47748" lon="6.25735">
        <ele>970</ele>
        <time>2023-04-21T10:08:45.000Z</time>
      </trkpt>
      <trkpt lat="44.47747" lon="6.25731">
        <ele>970</ele>
        <time>2023-04-21T10:08:46.000Z</time>
      </trkpt>
      <trkpt lat="44.47747" lon="6.25727">
        <ele>971</ele>
        <time>2023-04-21T10:08:47.000Z</time>
      </trkpt>
      <trkpt lat="44.47746" lon="6.25722">
        <ele>971</ele>
        <time>2023-04-21T10:08:48.000Z</time>
      </trkpt>
      <trkpt lat="44.47746" lon="6.25718">
        <ele>971</ele>
        <time>2023-04-21T10:08:49.000Z</time>
      </trkpt>
      <trkpt lat="44.47745" lon="6.25714">
        <ele>972</ele>
        <time>2023-04-21T10:08:50.000Z</time>
      </trkpt>
      <trkpt lat="44.47745" lon="6.2571">
        <ele>971</ele>
        <time>2023-04-21T10:08:51.000Z</time>
      </trkpt>
      <trkpt lat="44.47744" lon="6.25705">
        <ele>971</ele>
        <time>2023-04-21T10:08:52.000Z</time>
      </trkpt>
      <trkpt lat="44.47744" lon="6.25701">
        <ele>972</ele>
        <time>2023-04-21T10:08:53.000Z</time>
      </trkpt>
      <trkpt lat="44.47744" lon="6.25696">
        <ele>972</ele>
        <time>2023-04-21T10:08:54.000Z</time>
      </trkpt>
      <trkpt lat="44.47743" lon="6.25692">
        <ele>972</ele>
        <time>2023-04-21T10:08:55.000Z</time>
      </trkpt>
      <trkpt lat="44.47743" lon="6.25688">
        <ele>972</ele>
        <time>2023-04-21T10:08:56.000Z</time>
      </trkpt>
      <trkpt lat="44.47743" lon="6.25684">
        <ele>972</ele>
        <time>2023-04-21T10:08:57.000Z</time>
      </trkpt>
      <trkpt lat="44.47743" lon="6.2568">
        <ele>973</ele>
        <time>2023-04-21T10:08:58.000Z</time>
      </trkpt>
      <trkpt lat="44.47742" lon="6.25675">
        <ele>973</ele>
        <time>2023-04-21T10:08:59.000Z</time>
      </trkpt>
      <trkpt lat="44.47742" lon="6.25671">
        <ele>973</ele>
        <time>2023-04-21T10:09:00.000Z</time>
      </trkpt>
      <trkpt lat="44.47742" lon="6.25667">
        <ele>973</ele>
        <time>2023-04-21T10:09:01.000Z</time>
      </trkpt>
      <trkpt lat="44.47742" lon="6.25662">
        <ele>973</ele>
        <time>2023-04-21T10:09:02.000Z</time>
      </trkpt>
      <trkpt lat="44.47741" lon="6.25658">
        <ele>973</ele>
        <time>2023-04-21T10:09:03.000Z</time>
      </trkpt>
      <trkpt lat="44.47741" lon="6.25653">
        <ele>973</ele>
        <time>2023-04-21T10:09:04.000Z</time>
      </trkpt>
      <trkpt lat="44.4774" lon="6.25648">
        <ele>973</ele>
        <time>2023-04-21T10:09:05.000Z</time>
      </trkpt>
      <trkpt lat="44.4774" lon="6.25644">
        <ele>973</ele>
        <time>2023-04-21T10:09:06.000Z</time>
      </trkpt>
      <trkpt lat="44.47739" lon="6.25639">
        <ele>974</ele>
        <time>2023-04-21T10:09:07.000Z</time>
      </trkpt>
      <trkpt lat="44.47739" lon="6.25635">
        <ele>974</ele>
        <time>2023-04-21T10:09:08.000Z</time>
      </trkpt>
      <trkpt lat="44.47738" lon="6.25631">
        <ele>974</ele>
        <time>2023-04-21T10:09:09.000Z</time>
      </trkpt>
      <trkpt lat="44.47737" lon="6.25626">
        <ele>974</ele>
        <time>2023-04-21T10:09:10.000Z</time>
      </trkpt>
      <trkpt lat="44.47737" lon="6.25621">
        <ele>974</ele>
        <time>2023-04-21T10:09:11.000Z</time>
      </trkpt>
      <trkpt lat="44.47736" lon="6.25617">
        <ele>974</ele>
        <time>2023-04-21T10:09:12.000Z</time>
      </trkpt>
      <trkpt lat="44.47736" lon="6.25613">
        <ele>974</ele>
        <time>2023-04-21T10:09:13.000Z</time>
      </trkpt>
      <trkpt lat="44.47736" lon="6.25608">
        <ele>974</ele>
        <time>2023-04-21T10:09:14.000Z</time>
      </trkpt>
      <trkpt lat="44.47736" lon="6.25603">
        <ele>975</ele>
        <time>2023-04-21T10:09:15.000Z</time>
      </trkpt>
      <trkpt lat="44.47737" lon="6.25599">
        <ele>975</ele>
        <time>2023-04-21T10:09:16.000Z</time>
      </trkpt>
      <trkpt lat="44.47737" lon="6.25594">
        <ele>975</ele>
        <time>2023-04-21T10:09:17.000Z</time>
      </trkpt>
      <trkpt lat="44.47739" lon="6.2559">
        <ele>976</ele>
        <time>2023-04-21T10:09:18.000Z</time>
      </trkpt>
      <trkpt lat="44.4774" lon="6.25586">
        <ele>977</ele>
        <time>2023-04-21T10:09:19.000Z</time>
      </trkpt>
      <trkpt lat="44.47741" lon="6.25581">
        <ele>977</ele>
        <time>2023-04-21T10:09:20.000Z</time>
      </trkpt>
      <trkpt lat="44.47742" lon="6.25577">
        <ele>978</ele>
        <time>2023-04-21T10:09:21.000Z</time>
      </trkpt>
      <trkpt lat="44.47742" lon="6.25572">
        <ele>978</ele>
        <time>2023-04-21T10:09:22.000Z</time>
      </trkpt>
      <trkpt lat="44.47743" lon="6.25568">
        <ele>978</ele>
        <time>2023-04-21T10:09:23.000Z</time>
      </trkpt>
      <trkpt lat="44.47744" lon="6.25563">
        <ele>979</ele>
        <time>2023-04-21T10:09:24.000Z</time>
      </trkpt>
      <trkpt lat="44.47744" lon="6.25559">
        <ele>979</ele>
        <time>2023-04-21T10:09:25.000Z</time>
      </trkpt>
      <trkpt lat="44.47745" lon="6.25555">
        <ele>980</ele>
        <time>2023-04-21T10:09:26.000Z</time>
      </trkpt>
      <trkpt lat="44.47745" lon="6.2555">
        <ele>980</ele>
        <time>2023-04-21T10:09:27.000Z</time>
      </trkpt>
      <trkpt lat="44.47746" lon="6.25546">
        <ele>980</ele>
        <time>2023-04-21T10:09:28.000Z</time>
      </trkpt>
      <trkpt lat="44.47746" lon="6.25542">
        <ele>981</ele>
        <time>2023-04-21T10:09:29.000Z</time>
      </trkpt>
      <trkpt lat="44.47747" lon="6.25538">
        <ele>981</ele>
        <time>2023-04-21T10:09:30.000Z</time>
      </trkpt>
      <trkpt lat="44.47748" lon="6.25533">
        <ele>982</ele>
        <time>2023-04-21T10:09:31.000Z</time>
      </trkpt>
      <trkpt lat="44.47749" lon="6.25529">
        <ele>982</ele>
        <time>2023-04-21T10:09:32.000Z</time>
      </trkpt>
      <trkpt lat="44.47749" lon="6.25525">
        <ele>982</ele>
        <time>2023-04-21T10:09:33.000Z</time>
      </trkpt>
      <trkpt lat="44.4775" lon="6.25522">
        <ele>982</ele>
        <time>2023-04-21T10:09:34.000Z</time>
      </trkpt>
      <trkpt lat="44.47752" lon="6.25518">
        <ele>983</ele>
        <time>2023-04-21T10:09:35.000Z</time>
      </trkpt>
      <trkpt lat="44.47753" lon="6.25514">
        <ele>983</ele>
        <time>2023-04-21T10:09:36.000Z</time>
      </trkpt>
      <trkpt lat="44.47754" lon="6.2551">
        <ele>983</ele>
        <time>2023-04-21T10:09:37.000Z</time>
      </trkpt>
      <trkpt lat="44.47755" lon="6.25507">
        <ele>984</ele>
        <time>2023-04-21T10:09:38.000Z</time>
      </trkpt>
      <trkpt lat="44.47757" lon="6.25503">
        <ele>984</ele>
        <time>2023-04-21T10:09:39.000Z</time>
      </trkpt>
      <trkpt lat="44.47759" lon="6.255">
        <ele>984</ele>
        <time>2023-04-21T10:09:40.000Z</time>
      </trkpt>
      <trkpt lat="44.4776" lon="6.25497">
        <ele>985</ele>
        <time>2023-04-21T10:09:41.000Z</time>
      </trkpt>
      <trkpt lat="44.47762" lon="6.25494">
        <ele>985</ele>
        <time>2023-04-21T10:09:42.000Z</time>
      </trkpt>
      <trkpt lat="44.47764" lon="6.25491">
        <ele>986</ele>
        <time>2023-04-21T10:09:43.000Z</time>
      </trkpt>
      <trkpt lat="44.47766" lon="6.25488">
        <ele>986</ele>
        <time>2023-04-21T10:09:44.000Z</time>
      </trkpt>
      <trkpt lat="44.47769" lon="6.25485">
        <ele>986</ele>
        <time>2023-04-21T10:09:45.000Z</time>
      </trkpt>
      <trkpt lat="44.47771" lon="6.25482">
        <ele>986</ele>
        <time>2023-04-21T10:09:46.000Z</time>
      </trkpt>
      <trkpt lat="44.47773" lon="6.25479">
        <ele>987</ele>
        <time>2023-04-21T10:09:47.000Z</time>
      </trkpt>
      <trkpt lat="44.47775" lon="6.25477">
        <ele>987</ele>
        <time>2023-04-21T10:09:48.000Z</time>
      </trkpt>
      <trkpt lat="44.47778" lon="6.25474">
        <ele>987</ele>
        <time>2023-04-21T10:09:49.000Z</time>
      </trkpt>
      <trkpt lat="44.4778" lon="6.2547">
        <ele>988</ele>
        <time>2023-04-21T10:09:50.000Z</time>
      </trkpt>
      <trkpt lat="44.47782" lon="6.25467">
        <ele>988</ele>
        <time>2023-04-21T10:09:51.000Z</time>
      </trkpt>
      <trkpt lat="44.47784" lon="6.25465">
        <ele>988</ele>
        <time>2023-04-21T10:09:52.000Z</time>
      </trkpt>
      <trkpt lat="44.47786" lon="6.25462">
        <ele>989</ele>
        <time>2023-04-21T10:09:53.000Z</time>
      </trkpt>
      <trkpt lat="44.47788" lon="6.25459">
        <ele>989</ele>
        <time>2023-04-21T10:09:54.000Z</time>
      </trkpt>
      <trkpt lat="44.47791" lon="6.25456">
        <ele>989</ele>
        <time>2023-04-21T10:09:55.000Z</time>
      </trkpt>
      <trkpt lat="44.47793" lon="6.25454">
        <ele>990</ele>
        <time>2023-04-21T10:09:56.000Z</time>
      </trkpt>
      <trkpt lat="44.47795" lon="6.25451">
        <ele>990</ele>
        <time>2023-04-21T10:09:57.000Z</time>
      </trkpt>
      <trkpt lat="44.47797" lon="6.25448">
        <ele>990</ele>
        <time>2023-04-21T10:09:58.000Z</time>
      </trkpt>
      <trkpt lat="44.47799" lon="6.25445">
        <ele>991</ele>
        <time>2023-04-21T10:09:59.000Z</time>
      </trkpt>
      <trkpt lat="44.47801" lon="6.25442">
        <ele>991</ele>
        <time>2023-04-21T10:10:00.000Z</time>
      </trkpt>
      <trkpt lat="44.47803" lon="6.25439">
        <ele>992</ele>
        <time>2023-04-21T10:10:01.000Z</time>
      </trkpt>
      <trkpt lat="44.47805" lon="6.25436">
        <ele>993</ele>
        <time>2023-04-21T10:10:02.000Z</time>
      </trkpt>
      <trkpt lat="44.47806" lon="6.25433">
        <ele>993</ele>
        <time>2023-04-21T10:10:03.000Z</time>
      </trkpt>
      <trkpt lat="44.47808" lon="6.2543">
        <ele>994</ele>
        <time>2023-04-21T10:10:04.000Z</time>
      </trkpt>
      <trkpt lat="44.4781" lon="6.25427">
        <ele>994</ele>
        <time>2023-04-21T10:10:05.000Z</time>
      </trkpt>
      <trkpt lat="44.47812" lon="6.25424">
        <ele>994</ele>
        <time>2023-04-21T10:10:06.000Z</time>
      </trkpt>
      <trkpt lat="44.47814" lon="6.2542">
        <ele>994</ele>
        <time>2023-04-21T10:10:07.000Z</time>
      </trkpt>
      <trkpt lat="44.47816" lon="6.25417">
        <ele>995</ele>
        <time>2023-04-21T10:10:08.000Z</time>
      </trkpt>
      <trkpt lat="44.47818" lon="6.25414">
        <ele>995</ele>
        <time>2023-04-21T10:10:09.000Z</time>
      </trkpt>
      <trkpt lat="44.4782" lon="6.25411">
        <ele>996</ele>
        <time>2023-04-21T10:10:10.000Z</time>
      </trkpt>
      <trkpt lat="44.47823" lon="6.25408">
        <ele>996</ele>
        <time>2023-04-21T10:10:11.000Z</time>
      </trkpt>
      <trkpt lat="44.47825" lon="6.25405">
        <ele>996</ele>
        <time>2023-04-21T10:10:12.000Z</time>
      </trkpt>
      <trkpt lat="44.47827" lon="6.25402">
        <ele>996</ele>
        <time>2023-04-21T10:10:13.000Z</time>
      </trkpt>
      <trkpt lat="44.47829" lon="6.254">
        <ele>997</ele>
        <time>2023-04-21T10:10:14.000Z</time>
      </trkpt>
      <trkpt lat="44.47832" lon="6.25397">
        <ele>997</ele>
        <time>2023-04-21T10:10:15.000Z</time>
      </trkpt>
      <trkpt lat="44.47834" lon="6.25394">
        <ele>998</ele>
        <time>2023-04-21T10:10:16.000Z</time>
      </trkpt>
      <trkpt lat="44.47836" lon="6.25391">
        <ele>998</ele>
        <time>2023-04-21T10:10:17.000Z</time>
      </trkpt>
      <trkpt lat="44.47839" lon="6.25389">
        <ele>998</ele>
        <time>2023-04-21T10:10:18.000Z</time>
      </trkpt>
      <trkpt lat="44.47841" lon="6.25387">
        <ele>999</ele>
        <time>2023-04-21T10:10:19.000Z</time>
      </trkpt>
      <trkpt lat="44.47844" lon="6.25384">
        <ele>999</ele>
        <time>2023-04-21T10:10:20.000Z</time>
      </trkpt>
      <trkpt lat="44.47846" lon="6.25382">
        <ele>999</ele>
        <time>2023-04-21T10:10:21.000Z</time>
      </trkpt>
      <trkpt lat="44.47849" lon="6.2538">
        <ele>1000</ele>
        <time>2023-04-21T10:10:22.000Z</time>
      </trkpt>
      <trkpt lat="44.47851" lon="6.25378">
        <ele>1000</ele>
        <time>2023-04-21T10:10:23.000Z</time>
      </trkpt>
      <trkpt lat="44.47853" lon="6.25375">
        <ele>1000</ele>
        <time>2023-04-21T10:10:24.000Z</time>
      </trkpt>
      <trkpt lat="44.47856" lon="6.25373">
        <ele>1000</ele>
        <time>2023-04-21T10:10:25.000Z</time>
      </trkpt>
      <trkpt lat="44.47859" lon="6.25371">
        <ele>1000</ele>
        <time>2023-04-21T10:10:26.000Z</time>
      </trkpt>
      <trkpt lat="44.47861" lon="6.25369">
        <ele>1001</ele>
        <time>2023-04-21T10:10:27.000Z</time>
      </trkpt>
      <trkpt lat="44.47864" lon="6.25367">
        <ele>1001</ele>
        <time>2023-04-21T10:10:28.000Z</time>
      </trkpt>
      <trkpt lat="44.47867" lon="6.25365">
        <ele>1001</ele>
        <time>2023-04-21T10:10:29.000Z</time>
      </trkpt>
      <trkpt lat="44.4787" lon="6.25362">
        <ele>1002</ele>
        <time>2023-04-21T10:10:30.000Z</time>
      </trkpt>
      <trkpt lat="44.47872" lon="6.25361">
        <ele>1002</ele>
        <time>2023-04-21T10:10:31.000Z</time>
      </trkpt>
      <trkpt lat="44.47875" lon="6.25359">
        <ele>1002</ele>
        <time>2023-04-21T10:10:32.000Z</time>
      </trkpt>
      <trkpt lat="44.47878" lon="6.25357">
        <ele>1002</ele>
        <time>2023-04-21T10:10:33.000Z</time>
      </trkpt>
      <trkpt lat="44.4788" lon="6.25355">
        <ele>1003</ele>
        <time>2023-04-21T10:10:34.000Z</time>
      </trkpt>
      <trkpt lat="44.47882" lon="6.25352">
        <ele>1003</ele>
        <time>2023-04-21T10:10:35.000Z</time>
      </trkpt>
      <trkpt lat="44.47884" lon="6.25349">
        <ele>1004</ele>
        <time>2023-04-21T10:10:36.000Z</time>
      </trkpt>
      <trkpt lat="44.47886" lon="6.25345">
        <ele>1004</ele>
        <time>2023-04-21T10:10:37.000Z</time>
      </trkpt>
      <trkpt lat="44.47886" lon="6.25342">
        <ele>1005</ele>
        <time>2023-04-21T10:10:38.000Z</time>
      </trkpt>
      <trkpt lat="44.47886" lon="6.25338">
        <ele>1006</ele>
        <time>2023-04-21T10:10:39.000Z</time>
      </trkpt>
      <trkpt lat="44.47885" lon="6.25334">
        <ele>1006</ele>
        <time>2023-04-21T10:10:40.000Z</time>
      </trkpt>
      <trkpt lat="44.47884" lon="6.25331">
        <ele>1006</ele>
        <time>2023-04-21T10:10:41.000Z</time>
      </trkpt>
      <trkpt lat="44.47881" lon="6.2533">
        <ele>1007</ele>
        <time>2023-04-21T10:10:42.000Z</time>
      </trkpt>
      <trkpt lat="44.47878" lon="6.2533">
        <ele>1008</ele>
        <time>2023-04-21T10:10:43.000Z</time>
      </trkpt>
      <trkpt lat="44.47875" lon="6.2533">
        <ele>1008</ele>
        <time>2023-04-21T10:10:44.000Z</time>
      </trkpt>
      <trkpt lat="44.47872" lon="6.2533">
        <ele>1008</ele>
        <time>2023-04-21T10:10:45.000Z</time>
      </trkpt>
      <trkpt lat="44.47869" lon="6.25329">
        <ele>1009</ele>
        <time>2023-04-21T10:10:46.000Z</time>
      </trkpt>
      <trkpt lat="44.47866" lon="6.25329">
        <ele>1009</ele>
        <time>2023-04-21T10:10:47.000Z</time>
      </trkpt>
      <trkpt lat="44.47863" lon="6.25329">
        <ele>1009</ele>
        <time>2023-04-21T10:10:48.000Z</time>
      </trkpt>
      <trkpt lat="44.4786" lon="6.25329">
        <ele>1009</ele>
        <time>2023-04-21T10:10:49.000Z</time>
      </trkpt>
      <trkpt lat="44.47857" lon="6.25328">
        <ele>1010</ele>
        <time>2023-04-21T10:10:50.000Z</time>
      </trkpt>
      <trkpt lat="44.47854" lon="6.25327">
        <ele>1010</ele>
        <time>2023-04-21T10:10:51.000Z</time>
      </trkpt>
      <trkpt lat="44.47851" lon="6.25325">
        <ele>1010</ele>
        <time>2023-04-21T10:10:52.000Z</time>
      </trkpt>
      <trkpt lat="44.47849" lon="6.25322">
        <ele>1011</ele>
        <time>2023-04-21T10:10:53.000Z</time>
      </trkpt>
      <trkpt lat="44.47847" lon="6.25319">
        <ele>1011</ele>
        <time>2023-04-21T10:10:54.000Z</time>
      </trkpt>
      <trkpt lat="44.47846" lon="6.25316">
        <ele>1012</ele>
        <time>2023-04-21T10:10:55.000Z</time>
      </trkpt>
      <trkpt lat="44.47845" lon="6.25313">
        <ele>1014</ele>
        <time>2023-04-21T10:10:56.000Z</time>
      </trkpt>
      <trkpt lat="44.47846" lon="6.25308">
        <ele>1013</ele>
        <time>2023-04-21T10:10:57.000Z</time>
      </trkpt>
      <trkpt lat="44.47847" lon="6.25305">
        <ele>1013</ele>
        <time>2023-04-21T10:10:58.000Z</time>
      </trkpt>
      <trkpt lat="44.47847" lon="6.253">
        <ele>1014</ele>
        <time>2023-04-21T10:10:59.000Z</time>
      </trkpt>
      <trkpt lat="44.47848" lon="6.25297">
        <ele>1014</ele>
        <time>2023-04-21T10:11:00.000Z</time>
      </trkpt>
      <trkpt lat="44.47848" lon="6.25293">
        <ele>1014</ele>
        <time>2023-04-21T10:11:01.000Z</time>
      </trkpt>
      <trkpt lat="44.47848" lon="6.25288">
        <ele>1014</ele>
        <time>2023-04-21T10:11:02.000Z</time>
      </trkpt>
      <trkpt lat="44.47849" lon="6.25284">
        <ele>1015</ele>
        <time>2023-04-21T10:11:03.000Z</time>
      </trkpt>
      <trkpt lat="44.4785" lon="6.2528">
        <ele>1015</ele>
        <time>2023-04-21T10:11:04.000Z</time>
      </trkpt>
      <trkpt lat="44.47851" lon="6.25275">
        <ele>1016</ele>
        <time>2023-04-21T10:11:05.000Z</time>
      </trkpt>
      <trkpt lat="44.47851" lon="6.25271">
        <ele>1016</ele>
        <time>2023-04-21T10:11:06.000Z</time>
      </trkpt>
      <trkpt lat="44.47852" lon="6.25267">
        <ele>1016</ele>
        <time>2023-04-21T10:11:07.000Z</time>
      </trkpt>
      <trkpt lat="44.47853" lon="6.25262">
        <ele>1017</ele>
        <time>2023-04-21T10:11:08.000Z</time>
      </trkpt>
      <trkpt lat="44.47854" lon="6.25258">
        <ele>1017</ele>
        <time>2023-04-21T10:11:09.000Z</time>
      </trkpt>
      <trkpt lat="44.47855" lon="6.25254">
        <ele>1017</ele>
        <time>2023-04-21T10:11:10.000Z</time>
      </trkpt>
      <trkpt lat="44.47857" lon="6.25249">
        <ele>1018</ele>
        <time>2023-04-21T10:11:11.000Z</time>
      </trkpt>
      <trkpt lat="44.47857" lon="6.25245">
        <ele>1018</ele>
        <time>2023-04-21T10:11:12.000Z</time>
      </trkpt>
      <trkpt lat="44.47858" lon="6.25241">
        <ele>1018</ele>
        <time>2023-04-21T10:11:13.000Z</time>
      </trkpt>
      <trkpt lat="44.47859" lon="6.25236">
        <ele>1019</ele>
        <time>2023-04-21T10:11:14.000Z</time>
      </trkpt>
      <trkpt lat="44.4786" lon="6.25232">
        <ele>1019</ele>
        <time>2023-04-21T10:11:15.000Z</time>
      </trkpt>
      <trkpt lat="44.4786" lon="6.25228">
        <ele>1019</ele>
        <time>2023-04-21T10:11:16.000Z</time>
      </trkpt>
      <trkpt lat="44.47861" lon="6.25223">
        <ele>1020</ele>
        <time>2023-04-21T10:11:17.000Z</time>
      </trkpt>
      <trkpt lat="44.4786" lon="6.25219">
        <ele>1020</ele>
        <time>2023-04-21T10:11:18.000Z</time>
      </trkpt>
      <trkpt lat="44.47859" lon="6.25215">
        <ele>1021</ele>
        <time>2023-04-21T10:11:19.000Z</time>
      </trkpt>
      <trkpt lat="44.47858" lon="6.2521">
        <ele>1021</ele>
        <time>2023-04-21T10:11:20.000Z</time>
      </trkpt>
      <trkpt lat="44.47857" lon="6.25206">
        <ele>1021</ele>
        <time>2023-04-21T10:11:21.000Z</time>
      </trkpt>
      <trkpt lat="44.47855" lon="6.25204">
        <ele>1021</ele>
        <time>2023-04-21T10:11:22.000Z</time>
      </trkpt>
      <trkpt lat="44.47854" lon="6.25201">
        <ele>1022</ele>
        <time>2023-04-21T10:11:23.000Z</time>
      </trkpt>
      <trkpt lat="44.47852" lon="6.25198">
        <ele>1022</ele>
        <time>2023-04-21T10:11:24.000Z</time>
      </trkpt>
      <trkpt lat="44.4785" lon="6.25195">
        <ele>1023</ele>
        <time>2023-04-21T10:11:25.000Z</time>
      </trkpt>
      <trkpt lat="44.47848" lon="6.25192">
        <ele>1023</ele>
        <time>2023-04-21T10:11:26.000Z</time>
      </trkpt>
      <trkpt lat="44.47847" lon="6.25189">
        <ele>1023</ele>
        <time>2023-04-21T10:11:27.000Z</time>
      </trkpt>
      <trkpt lat="44.47845" lon="6.25186">
        <ele>1024</ele>
        <time>2023-04-21T10:11:28.000Z</time>
      </trkpt>
      <trkpt lat="44.47844" lon="6.25182">
        <ele>1024</ele>
        <time>2023-04-21T10:11:29.000Z</time>
      </trkpt>
      <trkpt lat="44.47842" lon="6.25179">
        <ele>1024</ele>
        <time>2023-04-21T10:11:30.000Z</time>
      </trkpt>
      <trkpt lat="44.47841" lon="6.25175">
        <ele>1025</ele>
        <time>2023-04-21T10:11:31.000Z</time>
      </trkpt>
      <trkpt lat="44.47839" lon="6.25172">
        <ele>1025</ele>
        <time>2023-04-21T10:11:32.000Z</time>
      </trkpt>
      <trkpt lat="44.47838" lon="6.25169">
        <ele>1025</ele>
        <time>2023-04-21T10:11:33.000Z</time>
      </trkpt>
      <trkpt lat="44.47836" lon="6.25164">
        <ele>1025</ele>
        <time>2023-04-21T10:11:34.000Z</time>
      </trkpt>
      <trkpt lat="44.47834" lon="6.2516">
        <ele>1025</ele>
        <time>2023-04-21T10:11:35.000Z</time>
      </trkpt>
      <trkpt lat="44.47833" lon="6.25156">
        <ele>1025</ele>
        <time>2023-04-21T10:11:36.000Z</time>
      </trkpt>
      <trkpt lat="44.47831" lon="6.25152">
        <ele>1025</ele>
        <time>2023-04-21T10:11:37.000Z</time>
      </trkpt>
      <trkpt lat="44.4783" lon="6.25148">
        <ele>1025</ele>
        <time>2023-04-21T10:11:38.000Z</time>
      </trkpt>
      <trkpt lat="44.47828" lon="6.25144">
        <ele>1026</ele>
        <time>2023-04-21T10:11:39.000Z</time>
      </trkpt>
      <trkpt lat="44.47827" lon="6.2514">
        <ele>1026</ele>
        <time>2023-04-21T10:11:40.000Z</time>
      </trkpt>
      <trkpt lat="44.47826" lon="6.25136">
        <ele>1025</ele>
        <time>2023-04-21T10:11:41.000Z</time>
      </trkpt>
      <trkpt lat="44.47825" lon="6.25131">
        <ele>1025</ele>
        <time>2023-04-21T10:11:42.000Z</time>
      </trkpt>
      <trkpt lat="44.47824" lon="6.25127">
        <ele>1024</ele>
        <time>2023-04-21T10:11:43.000Z</time>
      </trkpt>
      <trkpt lat="44.47823" lon="6.25123">
        <ele>1024</ele>
        <time>2023-04-21T10:11:44.000Z</time>
      </trkpt>
      <trkpt lat="44.47822" lon="6.25119">
        <ele>1024</ele>
        <time>2023-04-21T10:11:45.000Z</time>
      </trkpt>
      <trkpt lat="44.4782" lon="6.25115">
        <ele>1023</ele>
        <time>2023-04-21T10:11:46.000Z</time>
      </trkpt>
      <trkpt lat="44.47819" lon="6.25111">
        <ele>1023</ele>
        <time>2023-04-21T10:11:47.000Z</time>
      </trkpt>
      <trkpt lat="44.47817" lon="6.25107">
        <ele>1023</ele>
        <time>2023-04-21T10:11:48.000Z</time>
      </trkpt>
      <trkpt lat="44.47816" lon="6.25103">
        <ele>1023</ele>
        <time>2023-04-21T10:11:49.000Z</time>
      </trkpt>
      <trkpt lat="44.47814" lon="6.251">
        <ele>1023</ele>
        <time>2023-04-21T10:11:50.000Z</time>
      </trkpt>
      <trkpt lat="44.47813" lon="6.25095">
        <ele>1023</ele>
        <time>2023-04-21T10:11:51.000Z</time>
      </trkpt>
      <trkpt lat="44.47811" lon="6.25091">
        <ele>1023</ele>
        <time>2023-04-21T10:11:52.000Z</time>
      </trkpt>
      <trkpt lat="44.4781" lon="6.25086">
        <ele>1022</ele>
        <time>2023-04-21T10:11:53.000Z</time>
      </trkpt>
      <trkpt lat="44.47808" lon="6.25082">
        <ele>1023</ele>
        <time>2023-04-21T10:11:54.000Z</time>
      </trkpt>
      <trkpt lat="44.47806" lon="6.25078">
        <ele>1023</ele>
        <time>2023-04-21T10:11:55.000Z</time>
      </trkpt>
      <trkpt lat="44.47805" lon="6.25073">
        <ele>1023</ele>
        <time>2023-04-21T10:11:56.000Z</time>
      </trkpt>
      <trkpt lat="44.47802" lon="6.25069">
        <ele>1023</ele>
        <time>2023-04-21T10:11:57.000Z</time>
      </trkpt>
      <trkpt lat="44.478" lon="6.25065">
        <ele>1023</ele>
        <time>2023-04-21T10:11:58.000Z</time>
      </trkpt>
      <trkpt lat="44.47798" lon="6.25061">
        <ele>1024</ele>
        <time>2023-04-21T10:11:59.000Z</time>
      </trkpt>
      <trkpt lat="44.47796" lon="6.25057">
        <ele>1024</ele>
        <time>2023-04-21T10:12:00.000Z</time>
      </trkpt>
      <trkpt lat="44.47794" lon="6.25052">
        <ele>1024</ele>
        <time>2023-04-21T10:12:01.000Z</time>
      </trkpt>
      <trkpt lat="44.47793" lon="6.25047">
        <ele>1024</ele>
        <time>2023-04-21T10:12:02.000Z</time>
      </trkpt>
      <trkpt lat="44.47791" lon="6.25043">
        <ele>1024</ele>
        <time>2023-04-21T10:12:03.000Z</time>
      </trkpt>
      <trkpt lat="44.4779" lon="6.25038">
        <ele>1023</ele>
        <time>2023-04-21T10:12:04.000Z</time>
      </trkpt>
      <trkpt lat="44.47788" lon="6.25034">
        <ele>1023</ele>
        <time>2023-04-21T10:12:05.000Z</time>
      </trkpt>
      <trkpt lat="44.47787" lon="6.25029">
        <ele>1023</ele>
        <time>2023-04-21T10:12:06.000Z</time>
      </trkpt>
      <trkpt lat="44.47785" lon="6.25024">
        <ele>1023</ele>
        <time>2023-04-21T10:12:07.000Z</time>
      </trkpt>
      <trkpt lat="44.47783" lon="6.2502">
        <ele>1023</ele>
        <time>2023-04-21T10:12:08.000Z</time>
      </trkpt>
      <trkpt lat="44.47781" lon="6.25016">
        <ele>1024</ele>
        <time>2023-04-21T10:12:09.000Z</time>
      </trkpt>
      <trkpt lat="44.47779" lon="6.25011">
        <ele>1024</ele>
        <time>2023-04-21T10:12:10.000Z</time>
      </trkpt>
      <trkpt lat="44.47777" lon="6.25006">
        <ele>1024</ele>
        <time>2023-04-21T10:12:11.000Z</time>
      </trkpt>
      <trkpt lat="44.47776" lon="6.25001">
        <ele>1024</ele>
        <time>2023-04-21T10:12:12.000Z</time>
      </trkpt>
      <trkpt lat="44.47774" lon="6.24996">
        <ele>1024</ele>
        <time>2023-04-21T10:12:13.000Z</time>
      </trkpt>
      <trkpt lat="44.47772" lon="6.24991">
        <ele>1024</ele>
        <time>2023-04-21T10:12:14.000Z</time>
      </trkpt>
      <trkpt lat="44.47771" lon="6.24986">
        <ele>1024</ele>
        <time>2023-04-21T10:12:15.000Z</time>
      </trkpt>
      <trkpt lat="44.47769" lon="6.24981">
        <ele>1025</ele>
        <time>2023-04-21T10:12:16.000Z</time>
      </trkpt>
      <trkpt lat="44.47768" lon="6.24977">
        <ele>1025</ele>
        <time>2023-04-21T10:12:17.000Z</time>
      </trkpt>
      <trkpt lat="44.47767" lon="6.24972">
        <ele>1025</ele>
        <time>2023-04-21T10:12:18.000Z</time>
      </trkpt>
      <trkpt lat="44.47766" lon="6.24967">
        <ele>1026</ele>
        <time>2023-04-21T10:12:19.000Z</time>
      </trkpt>
      <trkpt lat="44.47765" lon="6.24962">
        <ele>1026</ele>
        <time>2023-04-21T10:12:20.000Z</time>
      </trkpt>
      <trkpt lat="44.47764" lon="6.24957">
        <ele>1026</ele>
        <time>2023-04-21T10:12:21.000Z</time>
      </trkpt>
      <trkpt lat="44.47764" lon="6.24952">
        <ele>1026</ele>
        <time>2023-04-21T10:12:22.000Z</time>
      </trkpt>
      <trkpt lat="44.47763" lon="6.24947">
        <ele>1027</ele>
        <time>2023-04-21T10:12:23.000Z</time>
      </trkpt>
      <trkpt lat="44.47763" lon="6.24942">
        <ele>1027</ele>
        <time>2023-04-21T10:12:24.000Z</time>
      </trkpt>
      <trkpt lat="44.47762" lon="6.24938">
        <ele>1028</ele>
        <time>2023-04-21T10:12:25.000Z</time>
      </trkpt>
      <trkpt lat="44.47762" lon="6.24933">
        <ele>1028</ele>
        <time>2023-04-21T10:12:26.000Z</time>
      </trkpt>
      <trkpt lat="44.47762" lon="6.24928">
        <ele>1029</ele>
        <time>2023-04-21T10:12:27.000Z</time>
      </trkpt>
      <trkpt lat="44.47762" lon="6.24924">
        <ele>1029</ele>
        <time>2023-04-21T10:12:28.000Z</time>
      </trkpt>
      <trkpt lat="44.47762" lon="6.2492">
        <ele>1030</ele>
        <time>2023-04-21T10:12:29.000Z</time>
      </trkpt>
      <trkpt lat="44.47763" lon="6.24917">
        <ele>1029</ele>
        <time>2023-04-21T10:12:30.000Z</time>
      </trkpt>
      <trkpt lat="44.47763" lon="6.24913">
        <ele>1030</ele>
        <time>2023-04-21T10:12:31.000Z</time>
      </trkpt>
      <trkpt lat="44.47763" lon="6.24909">
        <ele>1030</ele>
        <time>2023-04-21T10:12:32.000Z</time>
      </trkpt>
      <trkpt lat="44.47764" lon="6.24905">
        <ele>1030</ele>
        <time>2023-04-21T10:12:33.000Z</time>
      </trkpt>
      <trkpt lat="44.47765" lon="6.24901">
        <ele>1030</ele>
        <time>2023-04-21T10:12:34.000Z</time>
      </trkpt>
      <trkpt lat="44.47765" lon="6.24896">
        <ele>1031</ele>
        <time>2023-04-21T10:12:35.000Z</time>
      </trkpt>
      <trkpt lat="44.47766" lon="6.24892">
        <ele>1031</ele>
        <time>2023-04-21T10:12:36.000Z</time>
      </trkpt>
      <trkpt lat="44.47767" lon="6.24887">
        <ele>1031</ele>
        <time>2023-04-21T10:12:37.000Z</time>
      </trkpt>
      <trkpt lat="44.47768" lon="6.24883">
        <ele>1032</ele>
        <time>2023-04-21T10:12:38.000Z</time>
      </trkpt>
      <trkpt lat="44.4777" lon="6.24879">
        <ele>1032</ele>
        <time>2023-04-21T10:12:39.000Z</time>
      </trkpt>
      <trkpt lat="44.47771" lon="6.24874">
        <ele>1032</ele>
        <time>2023-04-21T10:12:40.000Z</time>
      </trkpt>
      <trkpt lat="44.47773" lon="6.2487">
        <ele>1032</ele>
        <time>2023-04-21T10:12:41.000Z</time>
      </trkpt>
      <trkpt lat="44.47775" lon="6.24865">
        <ele>1033</ele>
        <time>2023-04-21T10:12:42.000Z</time>
      </trkpt>
      <trkpt lat="44.47776" lon="6.2486">
        <ele>1033</ele>
        <time>2023-04-21T10:12:43.000Z</time>
      </trkpt>
      <trkpt lat="44.47778" lon="6.24855">
        <ele>1033</ele>
        <time>2023-04-21T10:12:44.000Z</time>
      </trkpt>
      <trkpt lat="44.4778" lon="6.24851">
        <ele>1033</ele>
        <time>2023-04-21T10:12:45.000Z</time>
      </trkpt>
      <trkpt lat="44.47781" lon="6.24847">
        <ele>1033</ele>
        <time>2023-04-21T10:12:46.000Z</time>
      </trkpt>
      <trkpt lat="44.47783" lon="6.24843">
        <ele>1033</ele>
        <time>2023-04-21T10:12:47.000Z</time>
      </trkpt>
      <trkpt lat="44.47784" lon="6.2484">
        <ele>1034</ele>
        <time>2023-04-21T10:12:48.000Z</time>
      </trkpt>
      <trkpt lat="44.47785" lon="6.24836">
        <ele>1034</ele>
        <time>2023-04-21T10:12:49.000Z</time>
      </trkpt>
      <trkpt lat="44.47786" lon="6.24833">
        <ele>1035</ele>
        <time>2023-04-21T10:12:50.000Z</time>
      </trkpt>
      <trkpt lat="44.47787" lon="6.2483">
        <ele>1035</ele>
        <time>2023-04-21T10:12:51.000Z</time>
      </trkpt>
      <trkpt lat="44.47788" lon="6.24826">
        <ele>1035</ele>
        <time>2023-04-21T10:12:52.000Z</time>
      </trkpt>
      <trkpt lat="44.4779" lon="6.24821">
        <ele>1035</ele>
        <time>2023-04-21T10:12:53.000Z</time>
      </trkpt>
      <trkpt lat="44.47791" lon="6.24818">
        <ele>1035</ele>
        <time>2023-04-21T10:12:54.000Z</time>
      </trkpt>
      <trkpt lat="44.47792" lon="6.24815">
        <ele>1035</ele>
        <time>2023-04-21T10:12:55.000Z</time>
      </trkpt>
      <trkpt lat="44.47793" lon="6.24812">
        <ele>1035</ele>
        <time>2023-04-21T10:12:56.000Z</time>
      </trkpt>
      <trkpt lat="44.47795" lon="6.24809">
        <ele>1035</ele>
        <time>2023-04-21T10:12:57.000Z</time>
      </trkpt>
      <trkpt lat="44.47797" lon="6.24807">
        <ele>1037</ele>
        <time>2023-04-21T10:12:58.000Z</time>
      </trkpt>
      <trkpt lat="44.47799" lon="6.24803">
        <ele>1037</ele>
        <time>2023-04-21T10:12:59.000Z</time>
      </trkpt>
      <trkpt lat="44.478" lon="6.248">
        <ele>1037</ele>
        <time>2023-04-21T10:13:00.000Z</time>
      </trkpt>
      <trkpt lat="44.47802" lon="6.24796">
        <ele>1036</ele>
        <time>2023-04-21T10:13:01.000Z</time>
      </trkpt>
      <trkpt lat="44.47802" lon="6.24792">
        <ele>1036</ele>
        <time>2023-04-21T10:13:02.000Z</time>
      </trkpt>
      <trkpt lat="44.47802" lon="6.24788">
        <ele>1035</ele>
        <time>2023-04-21T10:13:03.000Z</time>
      </trkpt>
      <trkpt lat="44.47801" lon="6.24784">
        <ele>1035</ele>
        <time>2023-04-21T10:13:04.000Z</time>
      </trkpt>
      <trkpt lat="44.478" lon="6.2478">
        <ele>1036</ele>
        <time>2023-04-21T10:13:05.000Z</time>
      </trkpt>
      <trkpt lat="44.47799" lon="6.24776">
        <ele>1036</ele>
        <time>2023-04-21T10:13:06.000Z</time>
      </trkpt>
      <trkpt lat="44.47797" lon="6.24773">
        <ele>1036</ele>
        <time>2023-04-21T10:13:07.000Z</time>
      </trkpt>
      <trkpt lat="44.47796" lon="6.24769">
        <ele>1036</ele>
        <time>2023-04-21T10:13:08.000Z</time>
      </trkpt>
      <trkpt lat="44.47795" lon="6.24765">
        <ele>1035</ele>
        <time>2023-04-21T10:13:09.000Z</time>
      </trkpt>
      <trkpt lat="44.47794" lon="6.24761">
        <ele>1036</ele>
        <time>2023-04-21T10:13:10.000Z</time>
      </trkpt>
      <trkpt lat="44.47792" lon="6.24757">
        <ele>1037</ele>
        <time>2023-04-21T10:13:11.000Z</time>
      </trkpt>
      <trkpt lat="44.47791" lon="6.24754">
        <ele>1038</ele>
        <time>2023-04-21T10:13:12.000Z</time>
      </trkpt>
      <trkpt lat="44.4779" lon="6.2475">
        <ele>1038</ele>
        <time>2023-04-21T10:13:13.000Z</time>
      </trkpt>
      <trkpt lat="44.4779" lon="6.24746">
        <ele>1038</ele>
        <time>2023-04-21T10:13:14.000Z</time>
      </trkpt>
      <trkpt lat="44.47789" lon="6.24741">
        <ele>1039</ele>
        <time>2023-04-21T10:13:15.000Z</time>
      </trkpt>
      <trkpt lat="44.47789" lon="6.24737">
        <ele>1039</ele>
        <time>2023-04-21T10:13:16.000Z</time>
      </trkpt>
      <trkpt lat="44.47789" lon="6.24732">
        <ele>1039</ele>
        <time>2023-04-21T10:13:17.000Z</time>
      </trkpt>
      <trkpt lat="44.47789" lon="6.24728">
        <ele>1040</ele>
        <time>2023-04-21T10:13:18.000Z</time>
      </trkpt>
      <trkpt lat="44.47788" lon="6.24724">
        <ele>1040</ele>
        <time>2023-04-21T10:13:19.000Z</time>
      </trkpt>
      <trkpt lat="44.47788" lon="6.2472">
        <ele>1041</ele>
        <time>2023-04-21T10:13:20.000Z</time>
      </trkpt>
      <trkpt lat="44.47787" lon="6.24716">
        <ele>1042</ele>
        <time>2023-04-21T10:13:21.000Z</time>
      </trkpt>
      <trkpt lat="44.47787" lon="6.24712">
        <ele>1042</ele>
        <time>2023-04-21T10:13:22.000Z</time>
      </trkpt>
      <trkpt lat="44.47786" lon="6.24707">
        <ele>1043</ele>
        <time>2023-04-21T10:13:23.000Z</time>
      </trkpt>
      <trkpt lat="44.47786" lon="6.24703">
        <ele>1043</ele>
        <time>2023-04-21T10:13:24.000Z</time>
      </trkpt>
      <trkpt lat="44.47786" lon="6.24699">
        <ele>1043</ele>
        <time>2023-04-21T10:13:25.000Z</time>
      </trkpt>
      <trkpt lat="44.47786" lon="6.24696">
        <ele>1043</ele>
        <time>2023-04-21T10:13:26.000Z</time>
      </trkpt>
      <trkpt lat="44.47786" lon="6.24693">
        <ele>1043</ele>
        <time>2023-04-21T10:13:27.000Z</time>
      </trkpt>
      <trkpt lat="44.47786" lon="6.2469">
        <ele>1043</ele>
        <time>2023-04-21T10:13:28.000Z</time>
      </trkpt>
      <trkpt lat="44.47786" lon="6.24687">
        <ele>1043</ele>
        <time>2023-04-21T10:13:29.000Z</time>
      </trkpt>
      <trkpt lat="44.47787" lon="6.24684">
        <ele>1043</ele>
        <time>2023-04-21T10:13:30.000Z</time>
      </trkpt>
      <trkpt lat="44.47787" lon="6.24681">
        <ele>1043</ele>
        <time>2023-04-21T10:13:31.000Z</time>
      </trkpt>
      <trkpt lat="44.47787" lon="6.24678">
        <ele>1044</ele>
        <time>2023-04-21T10:13:32.000Z</time>
      </trkpt>
      <trkpt lat="44.47787" lon="6.24676">
        <ele>1045</ele>
        <time>2023-04-21T10:13:33.000Z</time>
      </trkpt>
      <trkpt lat="44.47787" lon="6.24673">
        <ele>1046</ele>
        <time>2023-04-21T10:13:34.000Z</time>
      </trkpt>
      <trkpt lat="44.47788" lon="6.24669">
        <ele>1047</ele>
        <time>2023-04-21T10:13:35.000Z</time>
      </trkpt>
      <trkpt lat="44.47788" lon="6.24665">
        <ele>1048</ele>
        <time>2023-04-21T10:13:36.000Z</time>
      </trkpt>
      <trkpt lat="44.47789" lon="6.24661">
        <ele>1048</ele>
        <time>2023-04-21T10:13:37.000Z</time>
      </trkpt>
      <trkpt lat="44.4779" lon="6.24656">
        <ele>1048</ele>
        <time>2023-04-21T10:13:38.000Z</time>
      </trkpt>
      <trkpt lat="44.47791" lon="6.24652">
        <ele>1048</ele>
        <time>2023-04-21T10:13:39.000Z</time>
      </trkpt>
      <trkpt lat="44.47793" lon="6.24649">
        <ele>1048</ele>
        <time>2023-04-21T10:13:40.000Z</time>
      </trkpt>
      <trkpt lat="44.47794" lon="6.24646">
        <ele>1049</ele>
        <time>2023-04-21T10:13:41.000Z</time>
      </trkpt>
      <trkpt lat="44.47795" lon="6.24643">
        <ele>1050</ele>
        <time>2023-04-21T10:13:42.000Z</time>
      </trkpt>
      <trkpt lat="44.47797" lon="6.24639">
        <ele>1051</ele>
        <time>2023-04-21T10:13:43.000Z</time>
      </trkpt>
      <trkpt lat="44.47799" lon="6.24636">
        <ele>1052</ele>
        <time>2023-04-21T10:13:44.000Z</time>
      </trkpt>
      <trkpt lat="44.478" lon="6.24633">
        <ele>1052</ele>
        <time>2023-04-21T10:13:45.000Z</time>
      </trkpt>
      <trkpt lat="44.47802" lon="6.2463">
        <ele>1053</ele>
        <time>2023-04-21T10:13:46.000Z</time>
      </trkpt>
      <trkpt lat="44.47804" lon="6.24626">
        <ele>1054</ele>
        <time>2023-04-21T10:13:47.000Z</time>
      </trkpt>
      <trkpt lat="44.47805" lon="6.24622">
        <ele>1054</ele>
        <time>2023-04-21T10:13:48.000Z</time>
      </trkpt>
      <trkpt lat="44.47807" lon="6.24618">
        <ele>1054</ele>
        <time>2023-04-21T10:13:49.000Z</time>
      </trkpt>
      <trkpt lat="44.47808" lon="6.24614">
        <ele>1054</ele>
        <time>2023-04-21T10:13:50.000Z</time>
      </trkpt>
      <trkpt lat="44.47809" lon="6.24609">
        <ele>1054</ele>
        <time>2023-04-21T10:13:51.000Z</time>
      </trkpt>
      <trkpt lat="44.4781" lon="6.24605">
        <ele>1055</ele>
        <time>2023-04-21T10:13:52.000Z</time>
      </trkpt>
      <trkpt lat="44.4781" lon="6.24601">
        <ele>1055</ele>
        <time>2023-04-21T10:13:53.000Z</time>
      </trkpt>
      <trkpt lat="44.47811" lon="6.24596">
        <ele>1055</ele>
        <time>2023-04-21T10:13:54.000Z</time>
      </trkpt>
      <trkpt lat="44.47812" lon="6.24592">
        <ele>1055</ele>
        <time>2023-04-21T10:13:55.000Z</time>
      </trkpt>
      <trkpt lat="44.47813" lon="6.24588">
        <ele>1054</ele>
        <time>2023-04-21T10:13:56.000Z</time>
      </trkpt>
      <trkpt lat="44.47814" lon="6.24584">
        <ele>1054</ele>
        <time>2023-04-21T10:13:57.000Z</time>
      </trkpt>
      <trkpt lat="44.47816" lon="6.24581">
        <ele>1054</ele>
        <time>2023-04-21T10:13:58.000Z</time>
      </trkpt>
      <trkpt lat="44.47817" lon="6.24577">
        <ele>1054</ele>
        <time>2023-04-21T10:13:59.000Z</time>
      </trkpt>
      <trkpt lat="44.47818" lon="6.24574">
        <ele>1054</ele>
        <time>2023-04-21T10:14:00.000Z</time>
      </trkpt>
      <trkpt lat="44.4782" lon="6.24571">
        <ele>1054</ele>
        <time>2023-04-21T10:14:01.000Z</time>
      </trkpt>
      <trkpt lat="44.47823" lon="6.24567">
        <ele>1053</ele>
        <time>2023-04-21T10:14:02.000Z</time>
      </trkpt>
      <trkpt lat="44.47825" lon="6.24564">
        <ele>1053</ele>
        <time>2023-04-21T10:14:03.000Z</time>
      </trkpt>
      <trkpt lat="44.47828" lon="6.2456">
        <ele>1053</ele>
        <time>2023-04-21T10:14:04.000Z</time>
      </trkpt>
      <trkpt lat="44.4783" lon="6.24558">
        <ele>1053</ele>
        <time>2023-04-21T10:14:05.000Z</time>
      </trkpt>
      <trkpt lat="44.47833" lon="6.24555">
        <ele>1053</ele>
        <time>2023-04-21T10:14:06.000Z</time>
      </trkpt>
      <trkpt lat="44.47835" lon="6.24553">
        <ele>1053</ele>
        <time>2023-04-21T10:14:07.000Z</time>
      </trkpt>
      <trkpt lat="44.47837" lon="6.2455">
        <ele>1053</ele>
        <time>2023-04-21T10:14:08.000Z</time>
      </trkpt>
      <trkpt lat="44.4784" lon="6.24547">
        <ele>1053</ele>
        <time>2023-04-21T10:14:09.000Z</time>
      </trkpt>
      <trkpt lat="44.47842" lon="6.24544">
        <ele>1053</ele>
        <time>2023-04-21T10:14:10.000Z</time>
      </trkpt>
      <trkpt lat="44.47844" lon="6.24541">
        <ele>1054</ele>
        <time>2023-04-21T10:14:11.000Z</time>
      </trkpt>
      <trkpt lat="44.47847" lon="6.24538">
        <ele>1054</ele>
        <time>2023-04-21T10:14:12.000Z</time>
      </trkpt>
      <trkpt lat="44.47849" lon="6.24535">
        <ele>1054</ele>
        <time>2023-04-21T10:14:13.000Z</time>
      </trkpt>
      <trkpt lat="44.47852" lon="6.24532">
        <ele>1055</ele>
        <time>2023-04-21T10:14:14.000Z</time>
      </trkpt>
      <trkpt lat="44.47854" lon="6.24529">
        <ele>1055</ele>
        <time>2023-04-21T10:14:15.000Z</time>
      </trkpt>
      <trkpt lat="44.47857" lon="6.24526">
        <ele>1055</ele>
        <time>2023-04-21T10:14:16.000Z</time>
      </trkpt>
      <trkpt lat="44.47859" lon="6.24523">
        <ele>1056</ele>
        <time>2023-04-21T10:14:17.000Z</time>
      </trkpt>
      <trkpt lat="44.47861" lon="6.2452">
        <ele>1056</ele>
        <time>2023-04-21T10:14:18.000Z</time>
      </trkpt>
      <trkpt lat="44.47863" lon="6.24518">
        <ele>1057</ele>
        <time>2023-04-21T10:14:19.000Z</time>
      </trkpt>
      <trkpt lat="44.47865" lon="6.24515">
        <ele>1057</ele>
        <time>2023-04-21T10:14:20.000Z</time>
      </trkpt>
      <trkpt lat="44.47868" lon="6.24512">
        <ele>1058</ele>
        <time>2023-04-21T10:14:21.000Z</time>
      </trkpt>
      <trkpt lat="44.4787" lon="6.2451">
        <ele>1058</ele>
        <time>2023-04-21T10:14:22.000Z</time>
      </trkpt>
      <trkpt lat="44.47872" lon="6.24508">
        <ele>1059</ele>
        <time>2023-04-21T10:14:23.000Z</time>
      </trkpt>
      <trkpt lat="44.47874" lon="6.24506">
        <ele>1060</ele>
        <time>2023-04-21T10:14:24.000Z</time>
      </trkpt>
      <trkpt lat="44.47876" lon="6.24504">
        <ele>1061</ele>
        <time>2023-04-21T10:14:25.000Z</time>
      </trkpt>
      <trkpt lat="44.47878" lon="6.24502">
        <ele>1061</ele>
        <time>2023-04-21T10:14:26.000Z</time>
      </trkpt>
      <trkpt lat="44.47881" lon="6.245">
        <ele>1062</ele>
        <time>2023-04-21T10:14:27.000Z</time>
      </trkpt>
      <trkpt lat="44.47883" lon="6.24498">
        <ele>1063</ele>
        <time>2023-04-21T10:14:28.000Z</time>
      </trkpt>
      <trkpt lat="44.47884" lon="6.24497">
        <ele>1064</ele>
        <time>2023-04-21T10:14:29.000Z</time>
      </trkpt>
      <trkpt lat="44.47886" lon="6.24496">
        <ele>1065</ele>
        <time>2023-04-21T10:14:30.000Z</time>
      </trkpt>
      <trkpt lat="44.47887" lon="6.24495">
        <ele>1066</ele>
        <time>2023-04-21T10:14:31.000Z</time>
      </trkpt>
      <trkpt lat="44.4789" lon="6.24493">
        <ele>1065</ele>
        <time>2023-04-21T10:14:32.000Z</time>
      </trkpt>
      <trkpt lat="44.47891" lon="6.24492">
        <ele>1065</ele>
        <time>2023-04-21T10:14:33.000Z</time>
      </trkpt>
      <trkpt lat="44.47893" lon="6.24491">
        <ele>1065</ele>
        <time>2023-04-21T10:14:34.000Z</time>
      </trkpt>
      <trkpt lat="44.47894" lon="6.2449">
        <ele>1065</ele>
        <time>2023-04-21T10:14:35.000Z</time>
      </trkpt>
      <trkpt lat="44.47895" lon="6.24488">
        <ele>1066</ele>
        <time>2023-04-21T10:14:36.000Z</time>
      </trkpt>
      <trkpt lat="44.47895" lon="6.24487">
        <ele>1066</ele>
        <time>2023-04-21T10:14:37.000Z</time>
      </trkpt>
      <trkpt lat="44.47895" lon="6.24487">
        <ele>1067</ele>
        <time>2023-04-21T10:14:38.000Z</time>
      </trkpt>
      <trkpt lat="44.47895" lon="6.24487">
        <ele>1067</ele>
        <time>2023-04-21T10:14:39.000Z</time>
      </trkpt>
      <trkpt lat="44.47895" lon="6.24487">
        <ele>1067</ele>
        <time>2023-04-21T10:14:40.000Z</time>
      </trkpt>
      <trkpt lat="44.47895" lon="6.24487">
        <ele>1067</ele>
        <time>2023-04-21T10:14:41.000Z</time>
      </trkpt>
      <trkpt lat="44.47895" lon="6.24487">
        <ele>1068</ele>
        <time>2023-04-21T10:14:42.000Z</time>
      </trkpt>
      <trkpt lat="44.47895" lon="6.24487">
        <ele>1068</ele>
        <time>2023-04-21T10:14:43.000Z</time>
      </trkpt>
      <trkpt lat="44.47895" lon="6.24487">
        <ele>1068</ele>
        <time>2023-04-21T10:14:44.000Z</time>
      </trkpt>
      <trkpt lat="44.47895" lon="6.24487">
        <ele>1069</ele>
        <time>2023-04-21T10:14:45.000Z</time>
      </trkpt>
      <trkpt lat="44.47895" lon="6.24487">
        <ele>1069</ele>
        <time>2023-04-21T10:14:46.000Z</time>
      </trkpt>
      <trkpt lat="44.47894" lon="6.24487">
        <ele>1070</ele>
        <time>2023-04-21T10:14:47.000Z</time>
      </trkpt>
      <trkpt lat="44.47894" lon="6.24486">
        <ele>1070</ele>
        <time>2023-04-21T10:14:48.000Z</time>
      </trkpt>
      <trkpt lat="44.47894" lon="6.24487">
        <ele>1071</ele>
        <time>2023-04-21T10:14:49.000Z</time>
      </trkpt>
      <trkpt lat="44.47894" lon="6.24487">
        <ele>1071</ele>
        <time>2023-04-21T10:14:50.000Z</time>
      </trkpt>
      <trkpt lat="44.47894" lon="6.24487">
        <ele>1071</ele>
        <time>2023-04-21T10:14:51.000Z</time>
      </trkpt>
      <trkpt lat="44.47894" lon="6.24486">
        <ele>1071</ele>
        <time>2023-04-21T10:14:52.000Z</time>
      </trkpt>
      <trkpt lat="44.47894" lon="6.24486">
        <ele>1071</ele>
        <time>2023-04-21T10:14:53.000Z</time>
      </trkpt>
      <trkpt lat="44.47894" lon="6.24486">
        <ele>1071</ele>
        <time>2023-04-21T10:14:54.000Z</time>
      </trkpt>
      <trkpt lat="44.47894" lon="6.24486">
        <ele>1071</ele>
        <time>2023-04-21T10:14:55.000Z</time>
      </trkpt>
      <trkpt lat="44.47894" lon="6.24486">
        <ele>1071</ele>
        <time>2023-04-21T10:14:56.000Z</time>
      </trkpt>
      <trkpt lat="44.47894" lon="6.24486">
        <ele>1071</ele>
        <time>2023-04-21T10:14:57.000Z</time>
      </trkpt>
      <trkpt lat="44.47894" lon="6.24486">
        <ele>1072</ele>
        <time>2023-04-21T10:14:58.000Z</time>
      </trkpt>
      <trkpt lat="44.47894" lon="6.24486">
        <ele>1072</ele>
        <time>2023-04-21T10:14:59.000Z</time>
      </trkpt>
      <trkpt lat="44.47894" lon="6.24486">
        <ele>1072</ele>
        <time>2023-04-21T10:15:00.000Z</time>
      </trkpt>
      <trkpt lat="44.47894" lon="6.24486">
        <ele>1072</ele>
        <time>2023-04-21T10:15:01.000Z</time>
      </trkpt>
      <trkpt lat="44.47894" lon="6.24486">
        <ele>1072</ele>
        <time>2023-04-21T10:15:02.000Z</time>
      </trkpt>
      <trkpt lat="44.47894" lon="6.24486">
        <ele>1072</ele>
        <time>2023-04-21T10:15:03.000Z</time>
      </trkpt>
      <trkpt lat="44.47894" lon="6.24486">
        <ele>1072</ele>
        <time>2023-04-21T10:15:04.000Z</time>
      </trkpt>
      <trkpt lat="44.47894" lon="6.24486">
        <ele>1072</ele>
        <time>2023-04-21T10:15:05.000Z</time>
      </trkpt>
      <trkpt lat="44.47894" lon="6.24485">
        <ele>1072</ele>
        <time>2023-04-21T10:15:06.000Z</time>
      </trkpt>
      <trkpt lat="44.47894" lon="6.24485">
        <ele>1073</ele>
        <time>2023-04-21T10:15:07.000Z</time>
      </trkpt>
      <trkpt lat="44.47894" lon="6.24485">
        <ele>1073</ele>
        <time>2023-04-21T10:15:08.000Z</time>
      </trkpt>
      <trkpt lat="44.47894" lon="6.24485">
        <ele>1073</ele>
        <time>2023-04-21T10:15:09.000Z</time>
      </trkpt>
      <trkpt lat="44.47894" lon="6.24485">
        <ele>1073</ele>
        <time>2023-04-21T10:15:10.000Z</time>
      </trkpt>
      <trkpt lat="44.47893" lon="6.24485">
        <ele>1073</ele>
        <time>2023-04-21T10:15:11.000Z</time>
      </trkpt>
      <trkpt lat="44.47893" lon="6.24485">
        <ele>1073</ele>
        <time>2023-04-21T10:15:12.000Z</time>
      </trkpt>
      <trkpt lat="44.47893" lon="6.24485">
        <ele>1074</ele>
        <time>2023-04-21T10:15:13.000Z</time>
      </trkpt>
      <trkpt lat="44.47893" lon="6.24485">
        <ele>1074</ele>
        <time>2023-04-21T10:15:14.000Z</time>
      </trkpt>
      <trkpt lat="44.47893" lon="6.24486">
        <ele>1074</ele>
        <time>2023-04-21T10:15:15.000Z</time>
      </trkpt>
      <trkpt lat="44.47893" lon="6.24486">
        <ele>1074</ele>
        <time>2023-04-21T10:15:16.000Z</time>
      </trkpt>
      <trkpt lat="44.47893" lon="6.24486">
        <ele>1075</ele>
        <time>2023-04-21T10:15:17.000Z</time>
      </trkpt>
      <trkpt lat="44.47893" lon="6.24486">
        <ele>1075</ele>
        <time>2023-04-21T10:15:18.000Z</time>
      </trkpt>
      <trkpt lat="44.47893" lon="6.24486">
        <ele>1075</ele>
        <time>2023-04-21T10:15:19.000Z</time>
      </trkpt>
      <trkpt lat="44.47893" lon="6.24485">
        <ele>1075</ele>
        <time>2023-04-21T10:15:20.000Z</time>
      </trkpt>
      <trkpt lat="44.47893" lon="6.24485">
        <ele>1074</ele>
        <time>2023-04-21T10:15:21.000Z</time>
      </trkpt>
      <trkpt lat="44.47893" lon="6.24485">
        <ele>1074</ele>
        <time>2023-04-21T10:15:22.000Z</time>
      </trkpt>
      <trkpt lat="44.47893" lon="6.24485">
        <ele>1074</ele>
        <time>2023-04-21T10:15:23.000Z</time>
      </trkpt>
      <trkpt lat="44.47893" lon="6.24485">
        <ele>1074</ele>
        <time>2023-04-21T10:15:24.000Z</time>
      </trkpt>
      <trkpt lat="44.47893" lon="6.24485">
        <ele>1074</ele>
        <time>2023-04-21T10:15:25.000Z</time>
      </trkpt>
      <trkpt lat="44.47893" lon="6.24485">
        <ele>1074</ele>
        <time>2023-04-21T10:15:26.000Z</time>
      </trkpt>
      <trkpt lat="44.47893" lon="6.24485">
        <ele>1074</ele>
        <time>2023-04-21T10:15:27.000Z</time>
      </trkpt>
      <trkpt lat="44.47893" lon="6.24485">
        <ele>1073</ele>
        <time>2023-04-21T10:15:28.000Z</time>
      </trkpt>
      <trkpt lat="44.47893" lon="6.24485">
        <ele>1073</ele>
        <time>2023-04-21T10:15:29.000Z</time>
      </trkpt>
      <trkpt lat="44.47893" lon="6.24485">
        <ele>1073</ele>
        <time>2023-04-21T10:15:30.000Z</time>
      </trkpt>
      <trkpt lat="44.47893" lon="6.24485">
        <ele>1073</ele>
        <time>2023-04-21T10:15:31.000Z</time>
      </trkpt>
      <trkpt lat="44.47893" lon="6.24485">
        <ele>1072</ele>
        <time>2023-04-21T10:15:32.000Z</time>
      </trkpt>
      <trkpt lat="44.47893" lon="6.24485">
        <ele>1072</ele>
        <time>2023-04-21T10:15:33.000Z</time>
      </trkpt>
      <trkpt lat="44.47893" lon="6.24485">
        <ele>1072</ele>
        <time>2023-04-21T10:15:34.000Z</time>
      </trkpt>
      <trkpt lat="44.47893" lon="6.24485">
        <ele>1072</ele>
        <time>2023-04-21T10:15:35.000Z</time>
      </trkpt>
      <trkpt lat="44.47893" lon="6.24485">
        <ele>1072</ele>
        <time>2023-04-21T10:15:36.000Z</time>
      </trkpt>
      <trkpt lat="44.47893" lon="6.24485">
        <ele>1072</ele>
        <time>2023-04-21T10:15:37.000Z</time>
      </trkpt>
      <trkpt lat="44.47894" lon="6.24485">
        <ele>1071</ele>
        <time>2023-04-21T10:15:38.000Z</time>
      </trkpt>
      <trkpt lat="44.47894" lon="6.24485">
        <ele>1071</ele>
        <time>2023-04-21T10:15:39.000Z</time>
      </trkpt>
      <trkpt lat="44.47894" lon="6.24485">
        <ele>1071</ele>
        <time>2023-04-21T10:15:40.000Z</time>
      </trkpt>
      <trkpt lat="44.47894" lon="6.24485">
        <ele>1071</ele>
        <time>2023-04-21T10:15:41.000Z</time>
      </trkpt>
      <trkpt lat="44.47894" lon="6.24485">
        <ele>1071</ele>
        <time>2023-04-21T10:15:42.000Z</time>
      </trkpt>
      <trkpt lat="44.47893" lon="6.24486">
        <ele>1071</ele>
        <time>2023-04-21T10:15:43.000Z</time>
      </trkpt>
      <trkpt lat="44.47893" lon="6.24486">
        <ele>1071</ele>
        <time>2023-04-21T10:15:44.000Z</time>
      </trkpt>
      <trkpt lat="44.47893" lon="6.24486">
        <ele>1071</ele>
        <time>2023-04-21T10:15:45.000Z</time>
      </trkpt>
      <trkpt lat="44.47893" lon="6.24486">
        <ele>1071</ele>
        <time>2023-04-21T10:15:46.000Z</time>
      </trkpt>
      <trkpt lat="44.47893" lon="6.24486">
        <ele>1071</ele>
        <time>2023-04-21T10:15:47.000Z</time>
      </trkpt>
      <trkpt lat="44.47893" lon="6.24486">
        <ele>1071</ele>
        <time>2023-04-21T10:15:48.000Z</time>
      </trkpt>
      <trkpt lat="44.47893" lon="6.24486">
        <ele>1071</ele>
        <time>2023-04-21T10:15:49.000Z</time>
      </trkpt>
      <trkpt lat="44.47893" lon="6.24486">
        <ele>1071</ele>
        <time>2023-04-21T10:15:50.000Z</time>
      </trkpt>
      <trkpt lat="44.47893" lon="6.24486">
        <ele>1071</ele>
        <time>2023-04-21T10:15:51.000Z</time>
      </trkpt>
      <trkpt lat="44.47893" lon="6.24486">
        <ele>1071</ele>
        <time>2023-04-21T10:15:52.000Z</time>
      </trkpt>
      <trkpt lat="44.47893" lon="6.24486">
        <ele>1071</ele>
        <time>2023-04-21T10:15:53.000Z</time>
      </trkpt>
      <trkpt lat="44.47893" lon="6.24486">
        <ele>1071</ele>
        <time>2023-04-21T10:15:54.000Z</time>
      </trkpt>
      <trkpt lat="44.47893" lon="6.24486">
        <ele>1071</ele>
        <time>2023-04-21T10:15:55.000Z</time>
      </trkpt>
      <trkpt lat="44.47893" lon="6.24486">
        <ele>1071</ele>
        <time>2023-04-21T10:15:56.000Z</time>
      </trkpt>
      <trkpt lat="44.47893" lon="6.24486">
        <ele>1072</ele>
        <time>2023-04-21T10:15:57.000Z</time>
      </trkpt>
      <trkpt lat="44.47893" lon="6.24486">
        <ele>1072</ele>
        <time>2023-04-21T10:15:58.000Z</time>
      </trkpt>
      <trkpt lat="44.47893" lon="6.24486">
        <ele>1072</ele>
        <time>2023-04-21T10:15:59.000Z</time>
      </trkpt>
      <trkpt lat="44.47892" lon="6.24486">
        <ele>1072</ele>
        <time>2023-04-21T10:16:00.000Z</time>
      </trkpt>
      <trkpt lat="44.47892" lon="6.24486">
        <ele>1073</ele>
        <time>2023-04-21T10:16:01.000Z</time>
      </trkpt>
      <trkpt lat="44.47892" lon="6.24486">
        <ele>1073</ele>
        <time>2023-04-21T10:16:02.000Z</time>
      </trkpt>
      <trkpt lat="44.47892" lon="6.24485">
        <ele>1073</ele>
        <time>2023-04-21T10:16:03.000Z</time>
      </trkpt>
      <trkpt lat="44.47892" lon="6.24485">
        <ele>1073</ele>
        <time>2023-04-21T10:16:04.000Z</time>
      </trkpt>
      <trkpt lat="44.47892" lon="6.24485">
        <ele>1074</ele>
        <time>2023-04-21T10:16:05.000Z</time>
      </trkpt>
      <trkpt lat="44.47892" lon="6.24485">
        <ele>1074</ele>
        <time>2023-04-21T10:16:06.000Z</time>
      </trkpt>
      <trkpt lat="44.47892" lon="6.24485">
        <ele>1074</ele>
        <time>2023-04-21T10:16:07.000Z</time>
      </trkpt>
      <trkpt lat="44.47892" lon="6.24485">
        <ele>1074</ele>
        <time>2023-04-21T10:16:08.000Z</time>
      </trkpt>
      <trkpt lat="44.47892" lon="6.24485">
        <ele>1074</ele>
        <time>2023-04-21T10:16:09.000Z</time>
      </trkpt>
      <trkpt lat="44.47892" lon="6.24485">
        <ele>1074</ele>
        <time>2023-04-21T10:16:10.000Z</time>
      </trkpt>
      <trkpt lat="44.47892" lon="6.24485">
        <ele>1075</ele>
        <time>2023-04-21T10:16:11.000Z</time>
      </trkpt>
      <trkpt lat="44.47892" lon="6.24484">
        <ele>1075</ele>
        <time>2023-04-21T10:16:12.000Z</time>
      </trkpt>
      <trkpt lat="44.47892" lon="6.24484">
        <ele>1075</ele>
        <time>2023-04-21T10:16:13.000Z</time>
      </trkpt>
      <trkpt lat="44.47892" lon="6.24484">
        <ele>1076</ele>
        <time>2023-04-21T10:16:14.000Z</time>
      </trkpt>
      <trkpt lat="44.47892" lon="6.24484">
        <ele>1076</ele>
        <time>2023-04-21T10:16:15.000Z</time>
      </trkpt>
      <trkpt lat="44.47891" lon="6.24484">
        <ele>1077</ele>
        <time>2023-04-21T10:16:16.000Z</time>
      </trkpt>
      <trkpt lat="44.47891" lon="6.24485">
        <ele>1078</ele>
        <time>2023-04-21T10:16:17.000Z</time>
      </trkpt>
      <trkpt lat="44.47891" lon="6.24484">
        <ele>1078</ele>
        <time>2023-04-21T10:16:18.000Z</time>
      </trkpt>
      <trkpt lat="44.47891" lon="6.24484">
        <ele>1078</ele>
        <time>2023-04-21T10:16:19.000Z</time>
      </trkpt>
      <trkpt lat="44.47891" lon="6.24483">
        <ele>1078</ele>
        <time>2023-04-21T10:16:20.000Z</time>
      </trkpt>
      <trkpt lat="44.47892" lon="6.24481">
        <ele>1078</ele>
        <time>2023-04-21T10:16:21.000Z</time>
      </trkpt>
      <trkpt lat="44.47892" lon="6.2448">
        <ele>1079</ele>
        <time>2023-04-21T10:16:22.000Z</time>
      </trkpt>
      <trkpt lat="44.47893" lon="6.24479">
        <ele>1079</ele>
        <time>2023-04-21T10:16:23.000Z</time>
      </trkpt>
      <trkpt lat="44.47894" lon="6.24478">
        <ele>1079</ele>
        <time>2023-04-21T10:16:24.000Z</time>
      </trkpt>
      <trkpt lat="44.47895" lon="6.24477">
        <ele>1080</ele>
        <time>2023-04-21T10:16:25.000Z</time>
      </trkpt>
      <trkpt lat="44.47896" lon="6.24476">
        <ele>1079</ele>
        <time>2023-04-21T10:16:26.000Z</time>
      </trkpt>
      <trkpt lat="44.47898" lon="6.24475">
        <ele>1079</ele>
        <time>2023-04-21T10:16:27.000Z</time>
      </trkpt>
      <trkpt lat="44.47899" lon="6.24474">
        <ele>1079</ele>
        <time>2023-04-21T10:16:28.000Z</time>
      </trkpt>
      <trkpt lat="44.47901" lon="6.24472">
        <ele>1079</ele>
        <time>2023-04-21T10:16:29.000Z</time>
      </trkpt>
      <trkpt lat="44.47902" lon="6.24471">
        <ele>1079</ele>
        <time>2023-04-21T10:16:30.000Z</time>
      </trkpt>
      <trkpt lat="44.47903" lon="6.24469">
        <ele>1079</ele>
        <time>2023-04-21T10:16:31.000Z</time>
      </trkpt>
      <trkpt lat="44.47904" lon="6.24468">
        <ele>1080</ele>
        <time>2023-04-21T10:16:32.000Z</time>
      </trkpt>
      <trkpt lat="44.47905" lon="6.24466">
        <ele>1080</ele>
        <time>2023-04-21T10:16:33.000Z</time>
      </trkpt>
      <trkpt lat="44.47906" lon="6.24465">
        <ele>1081</ele>
        <time>2023-04-21T10:16:34.000Z</time>
      </trkpt>
      <trkpt lat="44.47907" lon="6.24464">
        <ele>1081</ele>
        <time>2023-04-21T10:16:35.000Z</time>
      </trkpt>
      <trkpt lat="44.47908" lon="6.24464">
        <ele>1082</ele>
        <time>2023-04-21T10:16:36.000Z</time>
      </trkpt>
      <trkpt lat="44.4791" lon="6.24463">
        <ele>1083</ele>
        <time>2023-04-21T10:16:37.000Z</time>
      </trkpt>
      <trkpt lat="44.47911" lon="6.24462">
        <ele>1083</ele>
        <time>2023-04-21T10:16:38.000Z</time>
      </trkpt>
      <trkpt lat="44.47913" lon="6.2446">
        <ele>1083</ele>
        <time>2023-04-21T10:16:39.000Z</time>
      </trkpt>
      <trkpt lat="44.47914" lon="6.24459">
        <ele>1083</ele>
        <time>2023-04-21T10:16:40.000Z</time>
      </trkpt>
      <trkpt lat="44.47916" lon="6.24458">
        <ele>1084</ele>
        <time>2023-04-21T10:16:41.000Z</time>
      </trkpt>
      <trkpt lat="44.47917" lon="6.24457">
        <ele>1084</ele>
        <time>2023-04-21T10:16:42.000Z</time>
      </trkpt>
      <trkpt lat="44.47919" lon="6.24455">
        <ele>1084</ele>
        <time>2023-04-21T10:16:43.000Z</time>
      </trkpt>
      <trkpt lat="44.4792" lon="6.24454">
        <ele>1084</ele>
        <time>2023-04-21T10:16:44.000Z</time>
      </trkpt>
      <trkpt lat="44.47922" lon="6.24452">
        <ele>1083</ele>
        <time>2023-04-21T10:16:45.000Z</time>
      </trkpt>
      <trkpt lat="44.47923" lon="6.24451">
        <ele>1084</ele>
        <time>2023-04-21T10:16:46.000Z</time>
      </trkpt>
      <trkpt lat="44.47925" lon="6.24449">
        <ele>1083</ele>
        <time>2023-04-21T10:16:47.000Z</time>
      </trkpt>
      <trkpt lat="44.47927" lon="6.24447">
        <ele>1083</ele>
        <time>2023-04-21T10:16:48.000Z</time>
      </trkpt>
      <trkpt lat="44.47928" lon="6.24446">
        <ele>1083</ele>
        <time>2023-04-21T10:16:49.000Z</time>
      </trkpt>
      <trkpt lat="44.4793" lon="6.24444">
        <ele>1083</ele>
        <time>2023-04-21T10:16:50.000Z</time>
      </trkpt>
      <trkpt lat="44.47931" lon="6.24442">
        <ele>1083</ele>
        <time>2023-04-21T10:16:51.000Z</time>
      </trkpt>
      <trkpt lat="44.47933" lon="6.24441">
        <ele>1083</ele>
        <time>2023-04-21T10:16:52.000Z</time>
      </trkpt>
      <trkpt lat="44.47934" lon="6.2444">
        <ele>1084</ele>
        <time>2023-04-21T10:16:53.000Z</time>
      </trkpt>
      <trkpt lat="44.47936" lon="6.24439">
        <ele>1084</ele>
        <time>2023-04-21T10:16:54.000Z</time>
      </trkpt>
      <trkpt lat="44.47938" lon="6.24438">
        <ele>1084</ele>
        <time>2023-04-21T10:16:55.000Z</time>
      </trkpt>
      <trkpt lat="44.4794" lon="6.24437">
        <ele>1084</ele>
        <time>2023-04-21T10:16:56.000Z</time>
      </trkpt>
      <trkpt lat="44.47941" lon="6.24436">
        <ele>1085</ele>
        <time>2023-04-21T10:16:57.000Z</time>
      </trkpt>
      <trkpt lat="44.47943" lon="6.24435">
        <ele>1085</ele>
        <time>2023-04-21T10:16:58.000Z</time>
      </trkpt>
      <trkpt lat="44.47944" lon="6.24433">
        <ele>1085</ele>
        <time>2023-04-21T10:16:59.000Z</time>
      </trkpt>
      <trkpt lat="44.47946" lon="6.24432">
        <ele>1085</ele>
        <time>2023-04-21T10:17:00.000Z</time>
      </trkpt>
      <trkpt lat="44.47948" lon="6.24431">
        <ele>1085</ele>
        <time>2023-04-21T10:17:01.000Z</time>
      </trkpt>
      <trkpt lat="44.47949" lon="6.2443">
        <ele>1086</ele>
        <time>2023-04-21T10:17:02.000Z</time>
      </trkpt>
      <trkpt lat="44.47951" lon="6.24429">
        <ele>1087</ele>
        <time>2023-04-21T10:17:03.000Z</time>
      </trkpt>
      <trkpt lat="44.47952" lon="6.24427">
        <ele>1087</ele>
        <time>2023-04-21T10:17:04.000Z</time>
      </trkpt>
      <trkpt lat="44.47954" lon="6.24426">
        <ele>1086</ele>
        <time>2023-04-21T10:17:05.000Z</time>
      </trkpt>
      <trkpt lat="44.47956" lon="6.24424">
        <ele>1086</ele>
        <time>2023-04-21T10:17:06.000Z</time>
      </trkpt>
      <trkpt lat="44.47958" lon="6.24422">
        <ele>1086</ele>
        <time>2023-04-21T10:17:07.000Z</time>
      </trkpt>
      <trkpt lat="44.4796" lon="6.24421">
        <ele>1086</ele>
        <time>2023-04-21T10:17:08.000Z</time>
      </trkpt>
      <trkpt lat="44.47961" lon="6.2442">
        <ele>1086</ele>
        <time>2023-04-21T10:17:09.000Z</time>
      </trkpt>
      <trkpt lat="44.47963" lon="6.24419">
        <ele>1087</ele>
        <time>2023-04-21T10:17:10.000Z</time>
      </trkpt>
      <trkpt lat="44.47965" lon="6.24418">
        <ele>1087</ele>
        <time>2023-04-21T10:17:11.000Z</time>
      </trkpt>
      <trkpt lat="44.47967" lon="6.24417">
        <ele>1087</ele>
        <time>2023-04-21T10:17:12.000Z</time>
      </trkpt>
      <trkpt lat="44.47969" lon="6.24416">
        <ele>1087</ele>
        <time>2023-04-21T10:17:13.000Z</time>
      </trkpt>
      <trkpt lat="44.47971" lon="6.24415">
        <ele>1087</ele>
        <time>2023-04-21T10:17:14.000Z</time>
      </trkpt>
      <trkpt lat="44.47972" lon="6.24414">
        <ele>1087</ele>
        <time>2023-04-21T10:17:15.000Z</time>
      </trkpt>
      <trkpt lat="44.47974" lon="6.24412">
        <ele>1086</ele>
        <time>2023-04-21T10:17:16.000Z</time>
      </trkpt>
      <trkpt lat="44.47976" lon="6.24411">
        <ele>1086</ele>
        <time>2023-04-21T10:17:17.000Z</time>
      </trkpt>
      <trkpt lat="44.47978" lon="6.24411">
        <ele>1086</ele>
        <time>2023-04-21T10:17:18.000Z</time>
      </trkpt>
      <trkpt lat="44.47979" lon="6.2441">
        <ele>1086</ele>
        <time>2023-04-21T10:17:19.000Z</time>
      </trkpt>
      <trkpt lat="44.47981" lon="6.24409">
        <ele>1086</ele>
        <time>2023-04-21T10:17:20.000Z</time>
      </trkpt>
      <trkpt lat="44.47983" lon="6.24409">
        <ele>1085</ele>
        <time>2023-04-21T10:17:21.000Z</time>
      </trkpt>
      <trkpt lat="44.47984" lon="6.24409">
        <ele>1086</ele>
        <time>2023-04-21T10:17:22.000Z</time>
      </trkpt>
      <trkpt lat="44.47986" lon="6.24409">
        <ele>1086</ele>
        <time>2023-04-21T10:17:23.000Z</time>
      </trkpt>
      <trkpt lat="44.47988" lon="6.24408">
        <ele>1086</ele>
        <time>2023-04-21T10:17:24.000Z</time>
      </trkpt>
      <trkpt lat="44.47989" lon="6.24408">
        <ele>1086</ele>
        <time>2023-04-21T10:17:25.000Z</time>
      </trkpt>
      <trkpt lat="44.47991" lon="6.24408">
        <ele>1086</ele>
        <time>2023-04-21T10:17:26.000Z</time>
      </trkpt>
      <trkpt lat="44.47992" lon="6.24407">
        <ele>1086</ele>
        <time>2023-04-21T10:17:27.000Z</time>
      </trkpt>
      <trkpt lat="44.47993" lon="6.24407">
        <ele>1086</ele>
        <time>2023-04-21T10:17:28.000Z</time>
      </trkpt>
      <trkpt lat="44.47994" lon="6.24407">
        <ele>1086</ele>
        <time>2023-04-21T10:17:29.000Z</time>
      </trkpt>
      <trkpt lat="44.47994" lon="6.24407">
        <ele>1085</ele>
        <time>2023-04-21T10:17:30.000Z</time>
      </trkpt>
      <trkpt lat="44.47995" lon="6.24406">
        <ele>1085</ele>
        <time>2023-04-21T10:17:31.000Z</time>
      </trkpt>
      <trkpt lat="44.47995" lon="6.24406">
        <ele>1085</ele>
        <time>2023-04-21T10:17:32.000Z</time>
      </trkpt>
      <trkpt lat="44.47995" lon="6.24406">
        <ele>1085</ele>
        <time>2023-04-21T10:17:33.000Z</time>
      </trkpt>
      <trkpt lat="44.47995" lon="6.24406">
        <ele>1084</ele>
        <time>2023-04-21T10:17:34.000Z</time>
      </trkpt>
      <trkpt lat="44.47995" lon="6.24406">
        <ele>1084</ele>
        <time>2023-04-21T10:17:35.000Z</time>
      </trkpt>
      <trkpt lat="44.47995" lon="6.24405">
        <ele>1084</ele>
        <time>2023-04-21T10:17:36.000Z</time>
      </trkpt>
      <trkpt lat="44.47996" lon="6.24405">
        <ele>1084</ele>
        <time>2023-04-21T10:17:37.000Z</time>
      </trkpt>
      <trkpt lat="44.47995" lon="6.24405">
        <ele>1084</ele>
        <time>2023-04-21T10:17:38.000Z</time>
      </trkpt>
      <trkpt lat="44.47995" lon="6.24405">
        <ele>1084</ele>
        <time>2023-04-21T10:17:39.000Z</time>
      </trkpt>
      <trkpt lat="44.47995" lon="6.24405">
        <ele>1084</ele>
        <time>2023-04-21T10:17:40.000Z</time>
      </trkpt>
      <trkpt lat="44.47995" lon="6.24405">
        <ele>1084</ele>
        <time>2023-04-21T10:17:41.000Z</time>
      </trkpt>
      <trkpt lat="44.47995" lon="6.24405">
        <ele>1084</ele>
        <time>2023-04-21T10:17:42.000Z</time>
      </trkpt>
      <trkpt lat="44.47995" lon="6.24405">
        <ele>1084</ele>
        <time>2023-04-21T10:17:43.000Z</time>
      </trkpt>
      <trkpt lat="44.47995" lon="6.24405">
        <ele>1084</ele>
        <time>2023-04-21T10:17:44.000Z</time>
      </trkpt>
      <trkpt lat="44.47995" lon="6.24406">
        <ele>1084</ele>
        <time>2023-04-21T10:17:45.000Z</time>
      </trkpt>
      <trkpt lat="44.47995" lon="6.24406">
        <ele>1084</ele>
        <time>2023-04-21T10:17:46.000Z</time>
      </trkpt>
      <trkpt lat="44.47995" lon="6.24406">
        <ele>1084</ele>
        <time>2023-04-21T10:17:47.000Z</time>
      </trkpt>
      <trkpt lat="44.47996" lon="6.24406">
        <ele>1083</ele>
        <time>2023-04-21T10:17:48.000Z</time>
      </trkpt>
      <trkpt lat="44.47996" lon="6.24406">
        <ele>1083</ele>
        <time>2023-04-21T10:17:49.000Z</time>
      </trkpt>
      <trkpt lat="44.47996" lon="6.24406">
        <ele>1084</ele>
        <time>2023-04-21T10:17:50.000Z</time>
      </trkpt>
      <trkpt lat="44.47996" lon="6.24406">
        <ele>1084</ele>
        <time>2023-04-21T10:17:51.000Z</time>
      </trkpt>
      <trkpt lat="44.47996" lon="6.24406">
        <ele>1084</ele>
        <time>2023-04-21T10:17:52.000Z</time>
      </trkpt>
      <trkpt lat="44.47996" lon="6.24406">
        <ele>1084</ele>
        <time>2023-04-21T10:17:53.000Z</time>
      </trkpt>
      <trkpt lat="44.47996" lon="6.24407">
        <ele>1084</ele>
        <time>2023-04-21T10:17:54.000Z</time>
      </trkpt>
      <trkpt lat="44.47996" lon="6.24407">
        <ele>1083</ele>
        <time>2023-04-21T10:17:55.000Z</time>
      </trkpt>
      <trkpt lat="44.47996" lon="6.24407">
        <ele>1083</ele>
        <time>2023-04-21T10:17:56.000Z</time>
      </trkpt>
      <trkpt lat="44.47996" lon="6.24407">
        <ele>1083</ele>
        <time>2023-04-21T10:17:57.000Z</time>
      </trkpt>
      <trkpt lat="44.47996" lon="6.24407">
        <ele>1083</ele>
        <time>2023-04-21T10:17:58.000Z</time>
      </trkpt>
      <trkpt lat="44.47997" lon="6.24406">
        <ele>1083</ele>
        <time>2023-04-21T10:17:59.000Z</time>
      </trkpt>
      <trkpt lat="44.47998" lon="6.24406">
        <ele>1082</ele>
        <time>2023-04-21T10:18:00.000Z</time>
      </trkpt>
      <trkpt lat="44.47998" lon="6.24405">
        <ele>1083</ele>
        <time>2023-04-21T10:18:01.000Z</time>
      </trkpt>
      <trkpt lat="44.48" lon="6.24405">
        <ele>1083</ele>
        <time>2023-04-21T10:18:02.000Z</time>
      </trkpt>
      <trkpt lat="44.48002" lon="6.24405">
        <ele>1083</ele>
        <time>2023-04-21T10:18:03.000Z</time>
      </trkpt>
      <trkpt lat="44.48003" lon="6.24404">
        <ele>1083</ele>
        <time>2023-04-21T10:18:04.000Z</time>
      </trkpt>
      <trkpt lat="44.48005" lon="6.24404">
        <ele>1084</ele>
        <time>2023-04-21T10:18:05.000Z</time>
      </trkpt>
      <trkpt lat="44.48007" lon="6.24404">
        <ele>1084</ele>
        <time>2023-04-21T10:18:06.000Z</time>
      </trkpt>
      <trkpt lat="44.48009" lon="6.24404">
        <ele>1084</ele>
        <time>2023-04-21T10:18:07.000Z</time>
      </trkpt>
      <trkpt lat="44.48011" lon="6.24404">
        <ele>1084</ele>
        <time>2023-04-21T10:18:08.000Z</time>
      </trkpt>
      <trkpt lat="44.48013" lon="6.24404">
        <ele>1085</ele>
        <time>2023-04-21T10:18:09.000Z</time>
      </trkpt>
      <trkpt lat="44.48014" lon="6.24404">
        <ele>1085</ele>
        <time>2023-04-21T10:18:10.000Z</time>
      </trkpt>
      <trkpt lat="44.48016" lon="6.24404">
        <ele>1085</ele>
        <time>2023-04-21T10:18:11.000Z</time>
      </trkpt>
      <trkpt lat="44.48018" lon="6.24403">
        <ele>1086</ele>
        <time>2023-04-21T10:18:12.000Z</time>
      </trkpt>
      <trkpt lat="44.4802" lon="6.24403">
        <ele>1086</ele>
        <time>2023-04-21T10:18:13.000Z</time>
      </trkpt>
      <trkpt lat="44.48022" lon="6.24403">
        <ele>1087</ele>
        <time>2023-04-21T10:18:14.000Z</time>
      </trkpt>
      <trkpt lat="44.48024" lon="6.24403">
        <ele>1087</ele>
        <time>2023-04-21T10:18:15.000Z</time>
      </trkpt>
      <trkpt lat="44.48025" lon="6.24403">
        <ele>1088</ele>
        <time>2023-04-21T10:18:16.000Z</time>
      </trkpt>
      <trkpt lat="44.48027" lon="6.24403">
        <ele>1088</ele>
        <time>2023-04-21T10:18:17.000Z</time>
      </trkpt>
      <trkpt lat="44.48029" lon="6.24403">
        <ele>1089</ele>
        <time>2023-04-21T10:18:18.000Z</time>
      </trkpt>
      <trkpt lat="44.4803" lon="6.24402">
        <ele>1089</ele>
        <time>2023-04-21T10:18:19.000Z</time>
      </trkpt>
      <trkpt lat="44.48032" lon="6.24402">
        <ele>1090</ele>
        <time>2023-04-21T10:18:20.000Z</time>
      </trkpt>
      <trkpt lat="44.48033" lon="6.24402">
        <ele>1091</ele>
        <time>2023-04-21T10:18:21.000Z</time>
      </trkpt>
      <trkpt lat="44.48035" lon="6.24402">
        <ele>1092</ele>
        <time>2023-04-21T10:18:22.000Z</time>
      </trkpt>
      <trkpt lat="44.48037" lon="6.24403">
        <ele>1093</ele>
        <time>2023-04-21T10:18:23.000Z</time>
      </trkpt>
      <trkpt lat="44.48039" lon="6.24403">
        <ele>1094</ele>
        <time>2023-04-21T10:18:24.000Z</time>
      </trkpt>
      <trkpt lat="44.4804" lon="6.24403">
        <ele>1094</ele>
        <time>2023-04-21T10:18:25.000Z</time>
      </trkpt>
      <trkpt lat="44.48042" lon="6.24403">
        <ele>1095</ele>
        <time>2023-04-21T10:18:26.000Z</time>
      </trkpt>
      <trkpt lat="44.48044" lon="6.24403">
        <ele>1096</ele>
        <time>2023-04-21T10:18:27.000Z</time>
      </trkpt>
      <trkpt lat="44.48045" lon="6.24403">
        <ele>1096</ele>
        <time>2023-04-21T10:18:28.000Z</time>
      </trkpt>
      <trkpt lat="44.48047" lon="6.24403">
        <ele>1096</ele>
        <time>2023-04-21T10:18:29.000Z</time>
      </trkpt>
      <trkpt lat="44.48049" lon="6.24402">
        <ele>1096</ele>
        <time>2023-04-21T10:18:30.000Z</time>
      </trkpt>
      <trkpt lat="44.48051" lon="6.24402">
        <ele>1097</ele>
        <time>2023-04-21T10:18:31.000Z</time>
      </trkpt>
      <trkpt lat="44.48053" lon="6.24402">
        <ele>1097</ele>
        <time>2023-04-21T10:18:32.000Z</time>
      </trkpt>
      <trkpt lat="44.48054" lon="6.24402">
        <ele>1098</ele>
        <time>2023-04-21T10:18:33.000Z</time>
      </trkpt>
      <trkpt lat="44.48056" lon="6.24401">
        <ele>1098</ele>
        <time>2023-04-21T10:18:34.000Z</time>
      </trkpt>
      <trkpt lat="44.48058" lon="6.24401">
        <ele>1099</ele>
        <time>2023-04-21T10:18:35.000Z</time>
      </trkpt>
      <trkpt lat="44.4806" lon="6.244">
        <ele>1099</ele>
        <time>2023-04-21T10:18:36.000Z</time>
      </trkpt>
      <trkpt lat="44.48062" lon="6.244">
        <ele>1099</ele>
        <time>2023-04-21T10:18:37.000Z</time>
      </trkpt>
      <trkpt lat="44.48063" lon="6.24399">
        <ele>1099</ele>
        <time>2023-04-21T10:18:38.000Z</time>
      </trkpt>
      <trkpt lat="44.48065" lon="6.24399">
        <ele>1099</ele>
        <time>2023-04-21T10:18:39.000Z</time>
      </trkpt>
      <trkpt lat="44.48066" lon="6.24398">
        <ele>1099</ele>
        <time>2023-04-21T10:18:40.000Z</time>
      </trkpt>
      <trkpt lat="44.48068" lon="6.24397">
        <ele>1098</ele>
        <time>2023-04-21T10:18:41.000Z</time>
      </trkpt>
      <trkpt lat="44.48069" lon="6.24395">
        <ele>1098</ele>
        <time>2023-04-21T10:18:42.000Z</time>
      </trkpt>
      <trkpt lat="44.48071" lon="6.24393">
        <ele>1098</ele>
        <time>2023-04-21T10:18:43.000Z</time>
      </trkpt>
      <trkpt lat="44.48072" lon="6.24392">
        <ele>1098</ele>
        <time>2023-04-21T10:18:44.000Z</time>
      </trkpt>
      <trkpt lat="44.48074" lon="6.2439">
        <ele>1098</ele>
        <time>2023-04-21T10:18:45.000Z</time>
      </trkpt>
      <trkpt lat="44.48075" lon="6.24388">
        <ele>1099</ele>
        <time>2023-04-21T10:18:46.000Z</time>
      </trkpt>
      <trkpt lat="44.48077" lon="6.24387">
        <ele>1099</ele>
        <time>2023-04-21T10:18:47.000Z</time>
      </trkpt>
      <trkpt lat="44.48078" lon="6.24385">
        <ele>1099</ele>
        <time>2023-04-21T10:18:48.000Z</time>
      </trkpt>
      <trkpt lat="44.48079" lon="6.24383">
        <ele>1099</ele>
        <time>2023-04-21T10:18:49.000Z</time>
      </trkpt>
      <trkpt lat="44.4808" lon="6.24381">
        <ele>1100</ele>
        <time>2023-04-21T10:18:50.000Z</time>
      </trkpt>
      <trkpt lat="44.48081" lon="6.2438">
        <ele>1101</ele>
        <time>2023-04-21T10:18:51.000Z</time>
      </trkpt>
      <trkpt lat="44.48082" lon="6.24378">
        <ele>1101</ele>
        <time>2023-04-21T10:18:52.000Z</time>
      </trkpt>
      <trkpt lat="44.48082" lon="6.24377">
        <ele>1101</ele>
        <time>2023-04-21T10:18:53.000Z</time>
      </trkpt>
      <trkpt lat="44.48083" lon="6.24376">
        <ele>1101</ele>
        <time>2023-04-21T10:18:54.000Z</time>
      </trkpt>
      <trkpt lat="44.48084" lon="6.24375">
        <ele>1102</ele>
        <time>2023-04-21T10:18:55.000Z</time>
      </trkpt>
      <trkpt lat="44.48085" lon="6.24373">
        <ele>1102</ele>
        <time>2023-04-21T10:18:56.000Z</time>
      </trkpt>
      <trkpt lat="44.48086" lon="6.24372">
        <ele>1103</ele>
        <time>2023-04-21T10:18:57.000Z</time>
      </trkpt>
      <trkpt lat="44.48087" lon="6.2437">
        <ele>1103</ele>
        <time>2023-04-21T10:18:58.000Z</time>
      </trkpt>
      <trkpt lat="44.48088" lon="6.24369">
        <ele>1103</ele>
        <time>2023-04-21T10:18:59.000Z</time>
      </trkpt>
      <trkpt lat="44.48089" lon="6.24367">
        <ele>1104</ele>
        <time>2023-04-21T10:19:00.000Z</time>
      </trkpt>
      <trkpt lat="44.4809" lon="6.24366">
        <ele>1105</ele>
        <time>2023-04-21T10:19:01.000Z</time>
      </trkpt>
      <trkpt lat="44.48091" lon="6.24365">
        <ele>1106</ele>
        <time>2023-04-21T10:19:02.000Z</time>
      </trkpt>
      <trkpt lat="44.48092" lon="6.24363">
        <ele>1107</ele>
        <time>2023-04-21T10:19:03.000Z</time>
      </trkpt>
      <trkpt lat="44.48094" lon="6.24362">
        <ele>1107</ele>
        <time>2023-04-21T10:19:04.000Z</time>
      </trkpt>
      <trkpt lat="44.48095" lon="6.2436">
        <ele>1108</ele>
        <time>2023-04-21T10:19:05.000Z</time>
      </trkpt>
      <trkpt lat="44.48096" lon="6.24358">
        <ele>1109</ele>
        <time>2023-04-21T10:19:06.000Z</time>
      </trkpt>
      <trkpt lat="44.48097" lon="6.24357">
        <ele>1110</ele>
        <time>2023-04-21T10:19:07.000Z</time>
      </trkpt>
      <trkpt lat="44.48098" lon="6.24355">
        <ele>1109</ele>
        <time>2023-04-21T10:19:08.000Z</time>
      </trkpt>
      <trkpt lat="44.48099" lon="6.24353">
        <ele>1110</ele>
        <time>2023-04-21T10:19:09.000Z</time>
      </trkpt>
      <trkpt lat="44.48101" lon="6.24352">
        <ele>1110</ele>
        <time>2023-04-21T10:19:10.000Z</time>
      </trkpt>
      <trkpt lat="44.48102" lon="6.2435">
        <ele>1111</ele>
        <time>2023-04-21T10:19:11.000Z</time>
      </trkpt>
      <trkpt lat="44.48104" lon="6.24349">
        <ele>1111</ele>
        <time>2023-04-21T10:19:12.000Z</time>
      </trkpt>
      <trkpt lat="44.48105" lon="6.24347">
        <ele>1112</ele>
        <time>2023-04-21T10:19:13.000Z</time>
      </trkpt>
      <trkpt lat="44.48107" lon="6.24346">
        <ele>1112</ele>
        <time>2023-04-21T10:19:14.000Z</time>
      </trkpt>
      <trkpt lat="44.48108" lon="6.24345">
        <ele>1112</ele>
        <time>2023-04-21T10:19:15.000Z</time>
      </trkpt>
      <trkpt lat="44.48109" lon="6.24344">
        <ele>1112</ele>
        <time>2023-04-21T10:19:16.000Z</time>
      </trkpt>
      <trkpt lat="44.48111" lon="6.24343">
        <ele>1112</ele>
        <time>2023-04-21T10:19:17.000Z</time>
      </trkpt>
      <trkpt lat="44.48112" lon="6.24342">
        <ele>1113</ele>
        <time>2023-04-21T10:19:18.000Z</time>
      </trkpt>
      <trkpt lat="44.48113" lon="6.24341">
        <ele>1114</ele>
        <time>2023-04-21T10:19:19.000Z</time>
      </trkpt>
      <trkpt lat="44.48113" lon="6.2434">
        <ele>1115</ele>
        <time>2023-04-21T10:19:20.000Z</time>
      </trkpt>
      <trkpt lat="44.48113" lon="6.24339">
        <ele>1116</ele>
        <time>2023-04-21T10:19:21.000Z</time>
      </trkpt>
      <trkpt lat="44.48114" lon="6.24338">
        <ele>1116</ele>
        <time>2023-04-21T10:19:22.000Z</time>
      </trkpt>
      <trkpt lat="44.48115" lon="6.24337">
        <ele>1116</ele>
        <time>2023-04-21T10:19:23.000Z</time>
      </trkpt>
      <trkpt lat="44.48116" lon="6.24337">
        <ele>1116</ele>
        <time>2023-04-21T10:19:24.000Z</time>
      </trkpt>
      <trkpt lat="44.48117" lon="6.24337">
        <ele>1116</ele>
        <time>2023-04-21T10:19:25.000Z</time>
      </trkpt>
      <trkpt lat="44.48117" lon="6.24337">
        <ele>1117</ele>
        <time>2023-04-21T10:19:26.000Z</time>
      </trkpt>
      <trkpt lat="44.48118" lon="6.24337">
        <ele>1118</ele>
        <time>2023-04-21T10:19:27.000Z</time>
      </trkpt>
      <trkpt lat="44.48117" lon="6.24337">
        <ele>1119</ele>
        <time>2023-04-21T10:19:28.000Z</time>
      </trkpt>
      <trkpt lat="44.48117" lon="6.24337">
        <ele>1118</ele>
        <time>2023-04-21T10:19:29.000Z</time>
      </trkpt>
      <trkpt lat="44.48117" lon="6.24337">
        <ele>1118</ele>
        <time>2023-04-21T10:19:30.000Z</time>
      </trkpt>
      <trkpt lat="44.48115" lon="6.24339">
        <ele>1119</ele>
        <time>2023-04-21T10:19:31.000Z</time>
      </trkpt>
      <trkpt lat="44.48113" lon="6.24339">
        <ele>1119</ele>
        <time>2023-04-21T10:19:32.000Z</time>
      </trkpt>
      <trkpt lat="44.48112" lon="6.2434">
        <ele>1119</ele>
        <time>2023-04-21T10:19:33.000Z</time>
      </trkpt>
      <trkpt lat="44.48111" lon="6.2434">
        <ele>1118</ele>
        <time>2023-04-21T10:19:34.000Z</time>
      </trkpt>
      <trkpt lat="44.4811" lon="6.2434">
        <ele>1118</ele>
        <time>2023-04-21T10:19:35.000Z</time>
      </trkpt>
      <trkpt lat="44.48109" lon="6.2434">
        <ele>1118</ele>
        <time>2023-04-21T10:19:36.000Z</time>
      </trkpt>
      <trkpt lat="44.48108" lon="6.24339">
        <ele>1118</ele>
        <time>2023-04-21T10:19:37.000Z</time>
      </trkpt>
      <trkpt lat="44.48107" lon="6.24339">
        <ele>1117</ele>
        <time>2023-04-21T10:19:38.000Z</time>
      </trkpt>
      <trkpt lat="44.48107" lon="6.24339">
        <ele>1116</ele>
        <time>2023-04-21T10:19:39.000Z</time>
      </trkpt>
      <trkpt lat="44.48108" lon="6.24337">
        <ele>1113</ele>
        <time>2023-04-21T10:19:40.000Z</time>
      </trkpt>
      <trkpt lat="44.48109" lon="6.24337">
        <ele>1113</ele>
        <time>2023-04-21T10:19:41.000Z</time>
      </trkpt>
      <trkpt lat="44.48108" lon="6.24337">
        <ele>1112</ele>
        <time>2023-04-21T10:19:42.000Z</time>
      </trkpt>
      <trkpt lat="44.48108" lon="6.24337">
        <ele>1112</ele>
        <time>2023-04-21T10:19:43.000Z</time>
      </trkpt>
      <trkpt lat="44.48108" lon="6.24337">
        <ele>1112</ele>
        <time>2023-04-21T10:19:44.000Z</time>
      </trkpt>
      <trkpt lat="44.48108" lon="6.24337">
        <ele>1111</ele>
        <time>2023-04-21T10:19:45.000Z</time>
      </trkpt>
      <trkpt lat="44.48108" lon="6.24338">
        <ele>1111</ele>
        <time>2023-04-21T10:19:46.000Z</time>
      </trkpt>
      <trkpt lat="44.48108" lon="6.24338">
        <ele>1111</ele>
        <time>2023-04-21T10:19:47.000Z</time>
      </trkpt>
      <trkpt lat="44.48108" lon="6.24338">
        <ele>1110</ele>
        <time>2023-04-21T10:19:48.000Z</time>
      </trkpt>
      <trkpt lat="44.48107" lon="6.24338">
        <ele>1110</ele>
        <time>2023-04-21T10:19:49.000Z</time>
      </trkpt>
      <trkpt lat="44.48108" lon="6.24338">
        <ele>1110</ele>
        <time>2023-04-21T10:19:50.000Z</time>
      </trkpt>
      <trkpt lat="44.48108" lon="6.24338">
        <ele>1109</ele>
        <time>2023-04-21T10:19:51.000Z</time>
      </trkpt>
      <trkpt lat="44.48108" lon="6.24338">
        <ele>1109</ele>
        <time>2023-04-21T10:19:52.000Z</time>
      </trkpt>
      <trkpt lat="44.48108" lon="6.24338">
        <ele>1108</ele>
        <time>2023-04-21T10:19:53.000Z</time>
      </trkpt>
      <trkpt lat="44.48108" lon="6.24338">
        <ele>1108</ele>
        <time>2023-04-21T10:19:54.000Z</time>
      </trkpt>
      <trkpt lat="44.48108" lon="6.24338">
        <ele>1108</ele>
        <time>2023-04-21T10:19:55.000Z</time>
      </trkpt>
      <trkpt lat="44.48108" lon="6.24338">
        <ele>1108</ele>
        <time>2023-04-21T10:19:56.000Z</time>
      </trkpt>
      <trkpt lat="44.48108" lon="6.24339">
        <ele>1108</ele>
        <time>2023-04-21T10:19:57.000Z</time>
      </trkpt>
      <trkpt lat="44.48108" lon="6.24339">
        <ele>1108</ele>
        <time>2023-04-21T10:19:58.000Z</time>
      </trkpt>
      <trkpt lat="44.48107" lon="6.24339">
        <ele>1107</ele>
        <time>2023-04-21T10:19:59.000Z</time>
      </trkpt>
      <trkpt lat="44.48107" lon="6.24339">
        <ele>1108</ele>
        <time>2023-04-21T10:20:00.000Z</time>
      </trkpt>
      <trkpt lat="44.48106" lon="6.24338">
        <ele>1108</ele>
        <time>2023-04-21T10:20:01.000Z</time>
      </trkpt>
      <trkpt lat="44.48106" lon="6.24337">
        <ele>1108</ele>
        <time>2023-04-21T10:20:02.000Z</time>
      </trkpt>
      <trkpt lat="44.48105" lon="6.24337">
        <ele>1108</ele>
        <time>2023-04-21T10:20:03.000Z</time>
      </trkpt>
      <trkpt lat="44.48105" lon="6.24337">
        <ele>1108</ele>
        <time>2023-04-21T10:20:04.000Z</time>
      </trkpt>
      <trkpt lat="44.48105" lon="6.24337">
        <ele>1108</ele>
        <time>2023-04-21T10:20:05.000Z</time>
      </trkpt>
      <trkpt lat="44.48105" lon="6.24337">
        <ele>1107</ele>
        <time>2023-04-21T10:20:06.000Z</time>
      </trkpt>
      <trkpt lat="44.48105" lon="6.24337">
        <ele>1107</ele>
        <time>2023-04-21T10:20:07.000Z</time>
      </trkpt>
      <trkpt lat="44.48105" lon="6.24337">
        <ele>1107</ele>
        <time>2023-04-21T10:20:08.000Z</time>
      </trkpt>
      <trkpt lat="44.48105" lon="6.24336">
        <ele>1107</ele>
        <time>2023-04-21T10:20:09.000Z</time>
      </trkpt>
      <trkpt lat="44.48104" lon="6.24336">
        <ele>1107</ele>
        <time>2023-04-21T10:20:10.000Z</time>
      </trkpt>
      <trkpt lat="44.48104" lon="6.24336">
        <ele>1106</ele>
        <time>2023-04-21T10:20:11.000Z</time>
      </trkpt>
      <trkpt lat="44.48104" lon="6.24336">
        <ele>1107</ele>
        <time>2023-04-21T10:20:12.000Z</time>
      </trkpt>
      <trkpt lat="44.48104" lon="6.24335">
        <ele>1107</ele>
        <time>2023-04-21T10:20:13.000Z</time>
      </trkpt>
      <trkpt lat="44.48104" lon="6.24335">
        <ele>1107</ele>
        <time>2023-04-21T10:20:14.000Z</time>
      </trkpt>
      <trkpt lat="44.48103" lon="6.24335">
        <ele>1106</ele>
        <time>2023-04-21T10:20:15.000Z</time>
      </trkpt>
      <trkpt lat="44.48103" lon="6.24335">
        <ele>1106</ele>
        <time>2023-04-21T10:20:16.000Z</time>
      </trkpt>
      <trkpt lat="44.48103" lon="6.24335">
        <ele>1106</ele>
        <time>2023-04-21T10:20:17.000Z</time>
      </trkpt>
      <trkpt lat="44.48103" lon="6.24335">
        <ele>1106</ele>
        <time>2023-04-21T10:20:18.000Z</time>
      </trkpt>
      <trkpt lat="44.48103" lon="6.24335">
        <ele>1106</ele>
        <time>2023-04-21T10:20:19.000Z</time>
      </trkpt>
      <trkpt lat="44.48102" lon="6.24334">
        <ele>1106</ele>
        <time>2023-04-21T10:20:20.000Z</time>
      </trkpt>
      <trkpt lat="44.48102" lon="6.24334">
        <ele>1106</ele>
        <time>2023-04-21T10:20:21.000Z</time>
      </trkpt>
      <trkpt lat="44.48102" lon="6.24334">
        <ele>1106</ele>
        <time>2023-04-21T10:20:22.000Z</time>
      </trkpt>
      <trkpt lat="44.48101" lon="6.24334">
        <ele>1106</ele>
        <time>2023-04-21T10:20:23.000Z</time>
      </trkpt>
      <trkpt lat="44.48101" lon="6.24334">
        <ele>1106</ele>
        <time>2023-04-21T10:20:24.000Z</time>
      </trkpt>
      <trkpt lat="44.48101" lon="6.24333">
        <ele>1106</ele>
        <time>2023-04-21T10:20:25.000Z</time>
      </trkpt>
      <trkpt lat="44.48101" lon="6.24334">
        <ele>1106</ele>
        <time>2023-04-21T10:20:26.000Z</time>
      </trkpt>
      <trkpt lat="44.48101" lon="6.24334">
        <ele>1106</ele>
        <time>2023-04-21T10:20:27.000Z</time>
      </trkpt>
      <trkpt lat="44.48101" lon="6.24333">
        <ele>1106</ele>
        <time>2023-04-21T10:20:28.000Z</time>
      </trkpt>
      <trkpt lat="44.48101" lon="6.24333">
        <ele>1106</ele>
        <time>2023-04-21T10:20:29.000Z</time>
      </trkpt>
      <trkpt lat="44.481" lon="6.24333">
        <ele>1106</ele>
        <time>2023-04-21T10:20:30.000Z</time>
      </trkpt>
      <trkpt lat="44.481" lon="6.24333">
        <ele>1106</ele>
        <time>2023-04-21T10:20:31.000Z</time>
      </trkpt>
      <trkpt lat="44.481" lon="6.24333">
        <ele>1106</ele>
        <time>2023-04-21T10:20:32.000Z</time>
      </trkpt>
      <trkpt lat="44.481" lon="6.24333">
        <ele>1106</ele>
        <time>2023-04-21T10:20:33.000Z</time>
      </trkpt>
      <trkpt lat="44.481" lon="6.24333">
        <ele>1106</ele>
        <time>2023-04-21T10:20:34.000Z</time>
      </trkpt>
      <trkpt lat="44.481" lon="6.24333">
        <ele>1106</ele>
        <time>2023-04-21T10:20:35.000Z</time>
      </trkpt>
      <trkpt lat="44.48099" lon="6.24333">
        <ele>1106</ele>
        <time>2023-04-21T10:20:36.000Z</time>
      </trkpt>
      <trkpt lat="44.48099" lon="6.24333">
        <ele>1106</ele>
        <time>2023-04-21T10:20:37.000Z</time>
      </trkpt>
      <trkpt lat="44.48099" lon="6.24333">
        <ele>1106</ele>
        <time>2023-04-21T10:20:38.000Z</time>
      </trkpt>
      <trkpt lat="44.48099" lon="6.24334">
        <ele>1106</ele>
        <time>2023-04-21T10:20:39.000Z</time>
      </trkpt>
      <trkpt lat="44.48099" lon="6.24334">
        <ele>1105</ele>
        <time>2023-04-21T10:20:40.000Z</time>
      </trkpt>
      <trkpt lat="44.48099" lon="6.24333">
        <ele>1105</ele>
        <time>2023-04-21T10:20:41.000Z</time>
      </trkpt>
      <trkpt lat="44.48098" lon="6.24333">
        <ele>1105</ele>
        <time>2023-04-21T10:20:42.000Z</time>
      </trkpt>
      <trkpt lat="44.48098" lon="6.24334">
        <ele>1106</ele>
        <time>2023-04-21T10:20:43.000Z</time>
      </trkpt>
      <trkpt lat="44.48098" lon="6.24334">
        <ele>1106</ele>
        <time>2023-04-21T10:20:44.000Z</time>
      </trkpt>
      <trkpt lat="44.48098" lon="6.24333">
        <ele>1105</ele>
        <time>2023-04-21T10:20:45.000Z</time>
      </trkpt>
      <trkpt lat="44.48097" lon="6.24333">
        <ele>1106</ele>
        <time>2023-04-21T10:20:46.000Z</time>
      </trkpt>
      <trkpt lat="44.48097" lon="6.24333">
        <ele>1106</ele>
        <time>2023-04-21T10:20:47.000Z</time>
      </trkpt>
      <trkpt lat="44.48097" lon="6.24333">
        <ele>1106</ele>
        <time>2023-04-21T10:20:48.000Z</time>
      </trkpt>
      <trkpt lat="44.48097" lon="6.24333">
        <ele>1106</ele>
        <time>2023-04-21T10:20:49.000Z</time>
      </trkpt>
      <trkpt lat="44.48097" lon="6.24333">
        <ele>1106</ele>
        <time>2023-04-21T10:20:50.000Z</time>
      </trkpt>
      <trkpt lat="44.48096" lon="6.24333">
        <ele>1106</ele>
        <time>2023-04-21T10:20:51.000Z</time>
      </trkpt>
      <trkpt lat="44.48096" lon="6.24333">
        <ele>1105</ele>
        <time>2023-04-21T10:20:52.000Z</time>
      </trkpt>
      <trkpt lat="44.48096" lon="6.24334">
        <ele>1105</ele>
        <time>2023-04-21T10:20:53.000Z</time>
      </trkpt>
      <trkpt lat="44.48096" lon="6.24334">
        <ele>1105</ele>
        <time>2023-04-21T10:20:54.000Z</time>
      </trkpt>
      <trkpt lat="44.48095" lon="6.24334">
        <ele>1105</ele>
        <time>2023-04-21T10:20:55.000Z</time>
      </trkpt>
      <trkpt lat="44.48095" lon="6.24334">
        <ele>1105</ele>
        <time>2023-04-21T10:20:56.000Z</time>
      </trkpt>
      <trkpt lat="44.48094" lon="6.24334">
        <ele>1105</ele>
        <time>2023-04-21T10:20:57.000Z</time>
      </trkpt>
      <trkpt lat="44.48094" lon="6.24334">
        <ele>1105</ele>
        <time>2023-04-21T10:20:58.000Z</time>
      </trkpt>
      <trkpt lat="44.48093" lon="6.24335">
        <ele>1105</ele>
        <time>2023-04-21T10:20:59.000Z</time>
      </trkpt>
      <trkpt lat="44.48093" lon="6.24335">
        <ele>1105</ele>
        <time>2023-04-21T10:21:00.000Z</time>
      </trkpt>
      <trkpt lat="44.48092" lon="6.24335">
        <ele>1105</ele>
        <time>2023-04-21T10:21:01.000Z</time>
      </trkpt>
      <trkpt lat="44.48091" lon="6.24334">
        <ele>1106</ele>
        <time>2023-04-21T10:21:02.000Z</time>
      </trkpt>
      <trkpt lat="44.48091" lon="6.24333">
        <ele>1106</ele>
        <time>2023-04-21T10:21:03.000Z</time>
      </trkpt>
      <trkpt lat="44.48091" lon="6.24333">
        <ele>1106</ele>
        <time>2023-04-21T10:21:04.000Z</time>
      </trkpt>
      <trkpt lat="44.4809" lon="6.24333">
        <ele>1105</ele>
        <time>2023-04-21T10:21:05.000Z</time>
      </trkpt>
      <trkpt lat="44.4809" lon="6.24333">
        <ele>1105</ele>
        <time>2023-04-21T10:21:06.000Z</time>
      </trkpt>
      <trkpt lat="44.4809" lon="6.24333">
        <ele>1105</ele>
        <time>2023-04-21T10:21:07.000Z</time>
      </trkpt>
      <trkpt lat="44.4809" lon="6.24333">
        <ele>1105</ele>
        <time>2023-04-21T10:21:08.000Z</time>
      </trkpt>
      <trkpt lat="44.48089" lon="6.24333">
        <ele>1105</ele>
        <time>2023-04-21T10:21:09.000Z</time>
      </trkpt>
      <trkpt lat="44.48089" lon="6.24334">
        <ele>1105</ele>
        <time>2023-04-21T10:21:10.000Z</time>
      </trkpt>
      <trkpt lat="44.48089" lon="6.24334">
        <ele>1105</ele>
        <time>2023-04-21T10:21:11.000Z</time>
      </trkpt>
      <trkpt lat="44.48089" lon="6.24334">
        <ele>1105</ele>
        <time>2023-04-21T10:21:12.000Z</time>
      </trkpt>
      <trkpt lat="44.48089" lon="6.24334">
        <ele>1105</ele>
        <time>2023-04-21T10:21:13.000Z</time>
      </trkpt>
      <trkpt lat="44.48089" lon="6.24334">
        <ele>1105</ele>
        <time>2023-04-21T10:21:14.000Z</time>
      </trkpt>
      <trkpt lat="44.48089" lon="6.24334">
        <ele>1105</ele>
        <time>2023-04-21T10:21:15.000Z</time>
      </trkpt>
      <trkpt lat="44.48089" lon="6.24334">
        <ele>1106</ele>
        <time>2023-04-21T10:21:16.000Z</time>
      </trkpt>
      <trkpt lat="44.48089" lon="6.24334">
        <ele>1106</ele>
        <time>2023-04-21T10:21:17.000Z</time>
      </trkpt>
      <trkpt lat="44.48089" lon="6.24334">
        <ele>1106</ele>
        <time>2023-04-21T10:21:18.000Z</time>
      </trkpt>
      <trkpt lat="44.48089" lon="6.24335">
        <ele>1106</ele>
        <time>2023-04-21T10:21:19.000Z</time>
      </trkpt>
      <trkpt lat="44.48089" lon="6.24334">
        <ele>1106</ele>
        <time>2023-04-21T10:21:20.000Z</time>
      </trkpt>
      <trkpt lat="44.48089" lon="6.24335">
        <ele>1106</ele>
        <time>2023-04-21T10:21:21.000Z</time>
      </trkpt>
      <trkpt lat="44.48089" lon="6.24334">
        <ele>1106</ele>
        <time>2023-04-21T10:21:22.000Z</time>
      </trkpt>
      <trkpt lat="44.48089" lon="6.24334">
        <ele>1106</ele>
        <time>2023-04-21T10:21:23.000Z</time>
      </trkpt>
      <trkpt lat="44.48089" lon="6.24334">
        <ele>1106</ele>
        <time>2023-04-21T10:21:24.000Z</time>
      </trkpt>
      <trkpt lat="44.48089" lon="6.24334">
        <ele>1105</ele>
        <time>2023-04-21T10:21:25.000Z</time>
      </trkpt>
      <trkpt lat="44.48089" lon="6.24334">
        <ele>1105</ele>
        <time>2023-04-21T10:21:26.000Z</time>
      </trkpt>
      <trkpt lat="44.48089" lon="6.24334">
        <ele>1105</ele>
        <time>2023-04-21T10:21:27.000Z</time>
      </trkpt>
      <trkpt lat="44.48089" lon="6.24334">
        <ele>1105</ele>
        <time>2023-04-21T10:21:28.000Z</time>
      </trkpt>
      <trkpt lat="44.48089" lon="6.24334">
        <ele>1105</ele>
        <time>2023-04-21T10:21:29.000Z</time>
      </trkpt>
      <trkpt lat="44.48089" lon="6.24334">
        <ele>1105</ele>
        <time>2023-04-21T10:21:30.000Z</time>
      </trkpt>
      <trkpt lat="44.48089" lon="6.24334">
        <ele>1104</ele>
        <time>2023-04-21T10:21:31.000Z</time>
      </trkpt>
      <trkpt lat="44.48088" lon="6.24334">
        <ele>1104</ele>
        <time>2023-04-21T10:21:32.000Z</time>
      </trkpt>
      <trkpt lat="44.48088" lon="6.24334">
        <ele>1104</ele>
        <time>2023-04-21T10:21:33.000Z</time>
      </trkpt>
      <trkpt lat="44.48088" lon="6.24334">
        <ele>1104</ele>
        <time>2023-04-21T10:21:34.000Z</time>
      </trkpt>
      <trkpt lat="44.48088" lon="6.24334">
        <ele>1104</ele>
        <time>2023-04-21T10:21:35.000Z</time>
      </trkpt>
      <trkpt lat="44.48088" lon="6.24334">
        <ele>1104</ele>
        <time>2023-04-21T10:21:36.000Z</time>
      </trkpt>
      <trkpt lat="44.48088" lon="6.24333">
        <ele>1104</ele>
        <time>2023-04-21T10:21:37.000Z</time>
      </trkpt>
      <trkpt lat="44.48088" lon="6.24333">
        <ele>1104</ele>
        <time>2023-04-21T10:21:38.000Z</time>
      </trkpt>
      <trkpt lat="44.48088" lon="6.24333">
        <ele>1104</ele>
        <time>2023-04-21T10:21:39.000Z</time>
      </trkpt>
      <trkpt lat="44.48088" lon="6.24333">
        <ele>1104</ele>
        <time>2023-04-21T10:21:40.000Z</time>
      </trkpt>
      <trkpt lat="44.48088" lon="6.24333">
        <ele>1104</ele>
        <time>2023-04-21T10:21:41.000Z</time>
      </trkpt>
      <trkpt lat="44.48088" lon="6.24333">
        <ele>1104</ele>
        <time>2023-04-21T10:21:42.000Z</time>
      </trkpt>
      <trkpt lat="44.48088" lon="6.24333">
        <ele>1104</ele>
        <time>2023-04-21T10:21:43.000Z</time>
      </trkpt>
      <trkpt lat="44.48088" lon="6.24333">
        <ele>1104</ele>
        <time>2023-04-21T10:21:44.000Z</time>
      </trkpt>
      <trkpt lat="44.48088" lon="6.24332">
        <ele>1104</ele>
        <time>2023-04-21T10:21:45.000Z</time>
      </trkpt>
      <trkpt lat="44.48087" lon="6.24331">
        <ele>1104</ele>
        <time>2023-04-21T10:21:46.000Z</time>
      </trkpt>
      <trkpt lat="44.48086" lon="6.24329">
        <ele>1105</ele>
        <time>2023-04-21T10:21:47.000Z</time>
      </trkpt>
      <trkpt lat="44.48085" lon="6.24327">
        <ele>1105</ele>
        <time>2023-04-21T10:21:48.000Z</time>
      </trkpt>
      <trkpt lat="44.48084" lon="6.24326">
        <ele>1105</ele>
        <time>2023-04-21T10:21:49.000Z</time>
      </trkpt>
      <trkpt lat="44.48083" lon="6.24324">
        <ele>1105</ele>
        <time>2023-04-21T10:21:50.000Z</time>
      </trkpt>
      <trkpt lat="44.48083" lon="6.24322">
        <ele>1105</ele>
        <time>2023-04-21T10:21:51.000Z</time>
      </trkpt>
      <trkpt lat="44.48082" lon="6.24321">
        <ele>1104</ele>
        <time>2023-04-21T10:21:52.000Z</time>
      </trkpt>
      <trkpt lat="44.48082" lon="6.24319">
        <ele>1104</ele>
        <time>2023-04-21T10:21:53.000Z</time>
      </trkpt>
      <trkpt lat="44.4808" lon="6.24319">
        <ele>1105</ele>
        <time>2023-04-21T10:21:54.000Z</time>
      </trkpt>
      <trkpt lat="44.48079" lon="6.24317">
        <ele>1104</ele>
        <time>2023-04-21T10:21:55.000Z</time>
      </trkpt>
      <trkpt lat="44.48078" lon="6.24316">
        <ele>1104</ele>
        <time>2023-04-21T10:21:56.000Z</time>
      </trkpt>
      <trkpt lat="44.48077" lon="6.24313">
        <ele>1104</ele>
        <time>2023-04-21T10:21:57.000Z</time>
      </trkpt>
      <trkpt lat="44.48077" lon="6.24311">
        <ele>1105</ele>
        <time>2023-04-21T10:21:58.000Z</time>
      </trkpt>
      <trkpt lat="44.48077" lon="6.24309">
        <ele>1105</ele>
        <time>2023-04-21T10:21:59.000Z</time>
      </trkpt>
      <trkpt lat="44.48077" lon="6.24307">
        <ele>1105</ele>
        <time>2023-04-21T10:22:00.000Z</time>
      </trkpt>
      <trkpt lat="44.48076" lon="6.24305">
        <ele>1104</ele>
        <time>2023-04-21T10:22:01.000Z</time>
      </trkpt>
      <trkpt lat="44.48076" lon="6.24303">
        <ele>1104</ele>
        <time>2023-04-21T10:22:02.000Z</time>
      </trkpt>
      <trkpt lat="44.48076" lon="6.243">
        <ele>1104</ele>
        <time>2023-04-21T10:22:03.000Z</time>
      </trkpt>
      <trkpt lat="44.48076" lon="6.24298">
        <ele>1104</ele>
        <time>2023-04-21T10:22:04.000Z</time>
      </trkpt>
      <trkpt lat="44.48076" lon="6.24295">
        <ele>1104</ele>
        <time>2023-04-21T10:22:05.000Z</time>
      </trkpt>
      <trkpt lat="44.48075" lon="6.24293">
        <ele>1104</ele>
        <time>2023-04-21T10:22:06.000Z</time>
      </trkpt>
      <trkpt lat="44.48075" lon="6.2429">
        <ele>1104</ele>
        <time>2023-04-21T10:22:07.000Z</time>
      </trkpt>
      <trkpt lat="44.48075" lon="6.24288">
        <ele>1104</ele>
        <time>2023-04-21T10:22:08.000Z</time>
      </trkpt>
      <trkpt lat="44.48075" lon="6.24285">
        <ele>1104</ele>
        <time>2023-04-21T10:22:09.000Z</time>
      </trkpt>
      <trkpt lat="44.48075" lon="6.24282">
        <ele>1104</ele>
        <time>2023-04-21T10:22:10.000Z</time>
      </trkpt>
      <trkpt lat="44.48074" lon="6.2428">
        <ele>1104</ele>
        <time>2023-04-21T10:22:11.000Z</time>
      </trkpt>
      <trkpt lat="44.48074" lon="6.24277">
        <ele>1104</ele>
        <time>2023-04-21T10:22:12.000Z</time>
      </trkpt>
      <trkpt lat="44.48074" lon="6.24274">
        <ele>1104</ele>
        <time>2023-04-21T10:22:13.000Z</time>
      </trkpt>
      <trkpt lat="44.48074" lon="6.24271">
        <ele>1104</ele>
        <time>2023-04-21T10:22:14.000Z</time>
      </trkpt>
      <trkpt lat="44.48074" lon="6.24269">
        <ele>1104</ele>
        <time>2023-04-21T10:22:15.000Z</time>
      </trkpt>
      <trkpt lat="44.48074" lon="6.24266">
        <ele>1104</ele>
        <time>2023-04-21T10:22:16.000Z</time>
      </trkpt>
      <trkpt lat="44.48073" lon="6.24263">
        <ele>1104</ele>
        <time>2023-04-21T10:22:17.000Z</time>
      </trkpt>
      <trkpt lat="44.48073" lon="6.2426">
        <ele>1104</ele>
        <time>2023-04-21T10:22:18.000Z</time>
      </trkpt>
      <trkpt lat="44.48073" lon="6.24258">
        <ele>1104</ele>
        <time>2023-04-21T10:22:19.000Z</time>
      </trkpt>
      <trkpt lat="44.48073" lon="6.24255">
        <ele>1104</ele>
        <time>2023-04-21T10:22:20.000Z</time>
      </trkpt>
      <trkpt lat="44.48073" lon="6.24252">
        <ele>1104</ele>
        <time>2023-04-21T10:22:21.000Z</time>
      </trkpt>
      <trkpt lat="44.48073" lon="6.24249">
        <ele>1104</ele>
        <time>2023-04-21T10:22:22.000Z</time>
      </trkpt>
      <trkpt lat="44.48073" lon="6.24246">
        <ele>1104</ele>
        <time>2023-04-21T10:22:23.000Z</time>
      </trkpt>
      <trkpt lat="44.48073" lon="6.24243">
        <ele>1104</ele>
        <time>2023-04-21T10:22:24.000Z</time>
      </trkpt>
      <trkpt lat="44.48073" lon="6.2424">
        <ele>1104</ele>
        <time>2023-04-21T10:22:25.000Z</time>
      </trkpt>
      <trkpt lat="44.48073" lon="6.24237">
        <ele>1104</ele>
        <time>2023-04-21T10:22:26.000Z</time>
      </trkpt>
      <trkpt lat="44.48073" lon="6.24235">
        <ele>1105</ele>
        <time>2023-04-21T10:22:27.000Z</time>
      </trkpt>
      <trkpt lat="44.48073" lon="6.24232">
        <ele>1105</ele>
        <time>2023-04-21T10:22:28.000Z</time>
      </trkpt>
      <trkpt lat="44.48073" lon="6.24229">
        <ele>1105</ele>
        <time>2023-04-21T10:22:29.000Z</time>
      </trkpt>
      <trkpt lat="44.48073" lon="6.24227">
        <ele>1105</ele>
        <time>2023-04-21T10:22:30.000Z</time>
      </trkpt>
      <trkpt lat="44.48073" lon="6.24224">
        <ele>1105</ele>
        <time>2023-04-21T10:22:31.000Z</time>
      </trkpt>
      <trkpt lat="44.48073" lon="6.24222">
        <ele>1105</ele>
        <time>2023-04-21T10:22:32.000Z</time>
      </trkpt>
      <trkpt lat="44.48073" lon="6.24219">
        <ele>1105</ele>
        <time>2023-04-21T10:22:33.000Z</time>
      </trkpt>
      <trkpt lat="44.48073" lon="6.24216">
        <ele>1105</ele>
        <time>2023-04-21T10:22:34.000Z</time>
      </trkpt>
      <trkpt lat="44.48072" lon="6.24214">
        <ele>1105</ele>
        <time>2023-04-21T10:22:35.000Z</time>
      </trkpt>
      <trkpt lat="44.48073" lon="6.24211">
        <ele>1104</ele>
        <time>2023-04-21T10:22:36.000Z</time>
      </trkpt>
      <trkpt lat="44.48073" lon="6.24208">
        <ele>1104</ele>
        <time>2023-04-21T10:22:37.000Z</time>
      </trkpt>
      <trkpt lat="44.48074" lon="6.24206">
        <ele>1104</ele>
        <time>2023-04-21T10:22:38.000Z</time>
      </trkpt>
      <trkpt lat="44.48074" lon="6.24203">
        <ele>1104</ele>
        <time>2023-04-21T10:22:39.000Z</time>
      </trkpt>
      <trkpt lat="44.48074" lon="6.242">
        <ele>1103</ele>
        <time>2023-04-21T10:22:40.000Z</time>
      </trkpt>
      <trkpt lat="44.48074" lon="6.24197">
        <ele>1103</ele>
        <time>2023-04-21T10:22:41.000Z</time>
      </trkpt>
      <trkpt lat="44.48075" lon="6.24195">
        <ele>1103</ele>
        <time>2023-04-21T10:22:42.000Z</time>
      </trkpt>
      <trkpt lat="44.48075" lon="6.24192">
        <ele>1103</ele>
        <time>2023-04-21T10:22:43.000Z</time>
      </trkpt>
      <trkpt lat="44.48075" lon="6.2419">
        <ele>1103</ele>
        <time>2023-04-21T10:22:44.000Z</time>
      </trkpt>
      <trkpt lat="44.48076" lon="6.24187">
        <ele>1103</ele>
        <time>2023-04-21T10:22:45.000Z</time>
      </trkpt>
      <trkpt lat="44.48076" lon="6.24185">
        <ele>1102</ele>
        <time>2023-04-21T10:22:46.000Z</time>
      </trkpt>
      <trkpt lat="44.48077" lon="6.24184">
        <ele>1102</ele>
        <time>2023-04-21T10:22:47.000Z</time>
      </trkpt>
      <trkpt lat="44.48077" lon="6.24184">
        <ele>1102</ele>
        <time>2023-04-21T10:22:48.000Z</time>
      </trkpt>
      <trkpt lat="44.48076" lon="6.24184">
        <ele>1103</ele>
        <time>2023-04-21T10:22:49.000Z</time>
      </trkpt>
      <trkpt lat="44.48077" lon="6.24184">
        <ele>1103</ele>
        <time>2023-04-21T10:22:50.000Z</time>
      </trkpt>
      <trkpt lat="44.48077" lon="6.24184">
        <ele>1103</ele>
        <time>2023-04-21T10:22:51.000Z</time>
      </trkpt>
      <trkpt lat="44.48077" lon="6.24184">
        <ele>1103</ele>
        <time>2023-04-21T10:22:52.000Z</time>
      </trkpt>
      <trkpt lat="44.48076" lon="6.24184">
        <ele>1103</ele>
        <time>2023-04-21T10:22:53.000Z</time>
      </trkpt>
      <trkpt lat="44.48076" lon="6.24184">
        <ele>1103</ele>
        <time>2023-04-21T10:22:54.000Z</time>
      </trkpt>
      <trkpt lat="44.48076" lon="6.24184">
        <ele>1103</ele>
        <time>2023-04-21T10:22:55.000Z</time>
      </trkpt>
      <trkpt lat="44.48076" lon="6.24184">
        <ele>1103</ele>
        <time>2023-04-21T10:22:56.000Z</time>
      </trkpt>
      <trkpt lat="44.48076" lon="6.24184">
        <ele>1103</ele>
        <time>2023-04-21T10:22:57.000Z</time>
      </trkpt>
      <trkpt lat="44.48076" lon="6.24184">
        <ele>1103</ele>
        <time>2023-04-21T10:22:58.000Z</time>
      </trkpt>
      <trkpt lat="44.48076" lon="6.24184">
        <ele>1103</ele>
        <time>2023-04-21T10:22:59.000Z</time>
      </trkpt>
      <trkpt lat="44.48076" lon="6.24184">
        <ele>1102</ele>
        <time>2023-04-21T10:23:00.000Z</time>
      </trkpt>
      <trkpt lat="44.48076" lon="6.24184">
        <ele>1102</ele>
        <time>2023-04-21T10:23:01.000Z</time>
      </trkpt>
      <trkpt lat="44.48076" lon="6.24184">
        <ele>1102</ele>
        <time>2023-04-21T10:23:02.000Z</time>
      </trkpt>
      <trkpt lat="44.48076" lon="6.24184">
        <ele>1102</ele>
        <time>2023-04-21T10:23:03.000Z</time>
      </trkpt>
      <trkpt lat="44.48076" lon="6.24183">
        <ele>1102</ele>
        <time>2023-04-21T10:23:04.000Z</time>
      </trkpt>
      <trkpt lat="44.48076" lon="6.24183">
        <ele>1102</ele>
        <time>2023-04-21T10:23:05.000Z</time>
      </trkpt>
      <trkpt lat="44.48076" lon="6.24183">
        <ele>1102</ele>
        <time>2023-04-21T10:23:06.000Z</time>
      </trkpt>
      <trkpt lat="44.48076" lon="6.24183">
        <ele>1102</ele>
        <time>2023-04-21T10:23:07.000Z</time>
      </trkpt>
      <trkpt lat="44.48076" lon="6.24183">
        <ele>1102</ele>
        <time>2023-04-21T10:23:08.000Z</time>
      </trkpt>
      <trkpt lat="44.48076" lon="6.24183">
        <ele>1102</ele>
        <time>2023-04-21T10:23:09.000Z</time>
      </trkpt>
      <trkpt lat="44.48076" lon="6.24183">
        <ele>1102</ele>
        <time>2023-04-21T10:23:10.000Z</time>
      </trkpt>
      <trkpt lat="44.48076" lon="6.24183">
        <ele>1101</ele>
        <time>2023-04-21T10:23:11.000Z</time>
      </trkpt>
      <trkpt lat="44.48076" lon="6.24183">
        <ele>1101</ele>
        <time>2023-04-21T10:23:12.000Z</time>
      </trkpt>
      <trkpt lat="44.48076" lon="6.24183">
        <ele>1101</ele>
        <time>2023-04-21T10:23:13.000Z</time>
      </trkpt>
      <trkpt lat="44.48076" lon="6.24183">
        <ele>1101</ele>
        <time>2023-04-21T10:23:14.000Z</time>
      </trkpt>
      <trkpt lat="44.48076" lon="6.24183">
        <ele>1101</ele>
        <time>2023-04-21T10:23:15.000Z</time>
      </trkpt>
      <trkpt lat="44.48076" lon="6.24183">
        <ele>1101</ele>
        <time>2023-04-21T10:23:16.000Z</time>
      </trkpt>
      <trkpt lat="44.48076" lon="6.24183">
        <ele>1101</ele>
        <time>2023-04-21T10:23:17.000Z</time>
      </trkpt>
      <trkpt lat="44.48076" lon="6.24183">
        <ele>1101</ele>
        <time>2023-04-21T10:23:18.000Z</time>
      </trkpt>
      <trkpt lat="44.48076" lon="6.24183">
        <ele>1101</ele>
        <time>2023-04-21T10:23:19.000Z</time>
      </trkpt>
      <trkpt lat="44.48076" lon="6.24183">
        <ele>1101</ele>
        <time>2023-04-21T10:23:20.000Z</time>
      </trkpt>
      <trkpt lat="44.48076" lon="6.24183">
        <ele>1101</ele>
        <time>2023-04-21T10:23:21.000Z</time>
      </trkpt>
      <trkpt lat="44.48076" lon="6.24183">
        <ele>1101</ele>
        <time>2023-04-21T10:23:22.000Z</time>
      </trkpt>
      <trkpt lat="44.48076" lon="6.24183">
        <ele>1101</ele>
        <time>2023-04-21T10:23:23.000Z</time>
      </trkpt>
      <trkpt lat="44.48076" lon="6.24183">
        <ele>1101</ele>
        <time>2023-04-21T10:23:24.000Z</time>
      </trkpt>
      <trkpt lat="44.48076" lon="6.24183">
        <ele>1102</ele>
        <time>2023-04-21T10:23:25.000Z</time>
      </trkpt>
      <trkpt lat="44.48076" lon="6.24183">
        <ele>1102</ele>
        <time>2023-04-21T10:23:26.000Z</time>
      </trkpt>
      <trkpt lat="44.48076" lon="6.24183">
        <ele>1102</ele>
        <time>2023-04-21T10:23:27.000Z</time>
      </trkpt>
      <trkpt lat="44.48076" lon="6.24183">
        <ele>1102</ele>
        <time>2023-04-21T10:23:28.000Z</time>
      </trkpt>
      <trkpt lat="44.48076" lon="6.24183">
        <ele>1102</ele>
        <time>2023-04-21T10:23:29.000Z</time>
      </trkpt>
      <trkpt lat="44.48076" lon="6.24183">
        <ele>1102</ele>
        <time>2023-04-21T10:23:30.000Z</time>
      </trkpt>
      <trkpt lat="44.48077" lon="6.24183">
        <ele>1103</ele>
        <time>2023-04-21T10:23:31.000Z</time>
      </trkpt>
      <trkpt lat="44.48077" lon="6.24182">
        <ele>1103</ele>
        <time>2023-04-21T10:23:32.000Z</time>
      </trkpt>
      <trkpt lat="44.48078" lon="6.24182">
        <ele>1103</ele>
        <time>2023-04-21T10:23:33.000Z</time>
      </trkpt>
      <trkpt lat="44.48079" lon="6.24181">
        <ele>1103</ele>
        <time>2023-04-21T10:23:34.000Z</time>
      </trkpt>
      <trkpt lat="44.48079" lon="6.24181">
        <ele>1104</ele>
        <time>2023-04-21T10:23:35.000Z</time>
      </trkpt>
      <trkpt lat="44.4808" lon="6.24181">
        <ele>1104</ele>
        <time>2023-04-21T10:23:36.000Z</time>
      </trkpt>
      <trkpt lat="44.48081" lon="6.24181">
        <ele>1104</ele>
        <time>2023-04-21T10:23:37.000Z</time>
      </trkpt>
      <trkpt lat="44.48081" lon="6.24181">
        <ele>1104</ele>
        <time>2023-04-21T10:23:38.000Z</time>
      </trkpt>
      <trkpt lat="44.48082" lon="6.24181">
        <ele>1104</ele>
        <time>2023-04-21T10:23:39.000Z</time>
      </trkpt>
      <trkpt lat="44.48082" lon="6.24181">
        <ele>1104</ele>
        <time>2023-04-21T10:23:40.000Z</time>
      </trkpt>
      <trkpt lat="44.48083" lon="6.24182">
        <ele>1104</ele>
        <time>2023-04-21T10:23:41.000Z</time>
      </trkpt>
      <trkpt lat="44.48083" lon="6.24182">
        <ele>1104</ele>
        <time>2023-04-21T10:23:42.000Z</time>
      </trkpt>
      <trkpt lat="44.48084" lon="6.24182">
        <ele>1104</ele>
        <time>2023-04-21T10:23:43.000Z</time>
      </trkpt>
      <trkpt lat="44.48085" lon="6.24183">
        <ele>1104</ele>
        <time>2023-04-21T10:23:44.000Z</time>
      </trkpt>
      <trkpt lat="44.48085" lon="6.24183">
        <ele>1104</ele>
        <time>2023-04-21T10:23:45.000Z</time>
      </trkpt>
      <trkpt lat="44.48086" lon="6.24184">
        <ele>1105</ele>
        <time>2023-04-21T10:23:46.000Z</time>
      </trkpt>
      <trkpt lat="44.48087" lon="6.24184">
        <ele>1105</ele>
        <time>2023-04-21T10:23:47.000Z</time>
      </trkpt>
      <trkpt lat="44.48088" lon="6.24185">
        <ele>1105</ele>
        <time>2023-04-21T10:23:48.000Z</time>
      </trkpt>
      <trkpt lat="44.48088" lon="6.24185">
        <ele>1105</ele>
        <time>2023-04-21T10:23:49.000Z</time>
      </trkpt>
      <trkpt lat="44.48089" lon="6.24186">
        <ele>1105</ele>
        <time>2023-04-21T10:23:50.000Z</time>
      </trkpt>
      <trkpt lat="44.4809" lon="6.24187">
        <ele>1106</ele>
        <time>2023-04-21T10:23:51.000Z</time>
      </trkpt>
      <trkpt lat="44.48091" lon="6.24187">
        <ele>1106</ele>
        <time>2023-04-21T10:23:52.000Z</time>
      </trkpt>
      <trkpt lat="44.48091" lon="6.24188">
        <ele>1106</ele>
        <time>2023-04-21T10:23:53.000Z</time>
      </trkpt>
      <trkpt lat="44.48092" lon="6.24189">
        <ele>1106</ele>
        <time>2023-04-21T10:23:54.000Z</time>
      </trkpt>
      <trkpt lat="44.48093" lon="6.24189">
        <ele>1106</ele>
        <time>2023-04-21T10:23:55.000Z</time>
      </trkpt>
      <trkpt lat="44.48094" lon="6.2419">
        <ele>1106</ele>
        <time>2023-04-21T10:23:56.000Z</time>
      </trkpt>
      <trkpt lat="44.48094" lon="6.24191">
        <ele>1106</ele>
        <time>2023-04-21T10:23:57.000Z</time>
      </trkpt>
      <trkpt lat="44.48095" lon="6.24192">
        <ele>1106</ele>
        <time>2023-04-21T10:23:58.000Z</time>
      </trkpt>
      <trkpt lat="44.48095" lon="6.24193">
        <ele>1106</ele>
        <time>2023-04-21T10:23:59.000Z</time>
      </trkpt>
      <trkpt lat="44.48096" lon="6.24194">
        <ele>1107</ele>
        <time>2023-04-21T10:24:00.000Z</time>
      </trkpt>
      <trkpt lat="44.48096" lon="6.24195">
        <ele>1107</ele>
        <time>2023-04-21T10:24:01.000Z</time>
      </trkpt>
      <trkpt lat="44.48096" lon="6.24196">
        <ele>1107</ele>
        <time>2023-04-21T10:24:02.000Z</time>
      </trkpt>
      <trkpt lat="44.48097" lon="6.24197">
        <ele>1107</ele>
        <time>2023-04-21T10:24:03.000Z</time>
      </trkpt>
      <trkpt lat="44.48098" lon="6.24198">
        <ele>1108</ele>
        <time>2023-04-21T10:24:04.000Z</time>
      </trkpt>
      <trkpt lat="44.48099" lon="6.24198">
        <ele>1108</ele>
        <time>2023-04-21T10:24:05.000Z</time>
      </trkpt>
      <trkpt lat="44.48099" lon="6.24197">
        <ele>1108</ele>
        <time>2023-04-21T10:24:06.000Z</time>
      </trkpt>
      <trkpt lat="44.481" lon="6.24197">
        <ele>1108</ele>
        <time>2023-04-21T10:24:07.000Z</time>
      </trkpt>
      <trkpt lat="44.48101" lon="6.24197">
        <ele>1109</ele>
        <time>2023-04-21T10:24:08.000Z</time>
      </trkpt>
      <trkpt lat="44.48102" lon="6.24197">
        <ele>1109</ele>
        <time>2023-04-21T10:24:09.000Z</time>
      </trkpt>
      <trkpt lat="44.48103" lon="6.24198">
        <ele>1109</ele>
        <time>2023-04-21T10:24:10.000Z</time>
      </trkpt>
      <trkpt lat="44.48103" lon="6.24198">
        <ele>1109</ele>
        <time>2023-04-21T10:24:11.000Z</time>
      </trkpt>
      <trkpt lat="44.48104" lon="6.24198">
        <ele>1109</ele>
        <time>2023-04-21T10:24:12.000Z</time>
      </trkpt>
      <trkpt lat="44.48105" lon="6.24199">
        <ele>1109</ele>
        <time>2023-04-21T10:24:13.000Z</time>
      </trkpt>
      <trkpt lat="44.48106" lon="6.24199">
        <ele>1109</ele>
        <time>2023-04-21T10:24:14.000Z</time>
      </trkpt>
      <trkpt lat="44.48107" lon="6.242">
        <ele>1110</ele>
        <time>2023-04-21T10:24:15.000Z</time>
      </trkpt>
      <trkpt lat="44.48107" lon="6.242">
        <ele>1110</ele>
        <time>2023-04-21T10:24:16.000Z</time>
      </trkpt>
      <trkpt lat="44.48108" lon="6.24201">
        <ele>1110</ele>
        <time>2023-04-21T10:24:17.000Z</time>
      </trkpt>
      <trkpt lat="44.48109" lon="6.24202">
        <ele>1110</ele>
        <time>2023-04-21T10:24:18.000Z</time>
      </trkpt>
      <trkpt lat="44.4811" lon="6.24202">
        <ele>1111</ele>
        <time>2023-04-21T10:24:19.000Z</time>
      </trkpt>
      <trkpt lat="44.48111" lon="6.24203">
        <ele>1111</ele>
        <time>2023-04-21T10:24:20.000Z</time>
      </trkpt>
      <trkpt lat="44.48111" lon="6.24203">
        <ele>1111</ele>
        <time>2023-04-21T10:24:21.000Z</time>
      </trkpt>
      <trkpt lat="44.48112" lon="6.24204">
        <ele>1111</ele>
        <time>2023-04-21T10:24:22.000Z</time>
      </trkpt>
      <trkpt lat="44.48113" lon="6.24204">
        <ele>1111</ele>
        <time>2023-04-21T10:24:23.000Z</time>
      </trkpt>
      <trkpt lat="44.48114" lon="6.24205">
        <ele>1112</ele>
        <time>2023-04-21T10:24:24.000Z</time>
      </trkpt>
      <trkpt lat="44.48115" lon="6.24206">
        <ele>1112</ele>
        <time>2023-04-21T10:24:25.000Z</time>
      </trkpt>
      <trkpt lat="44.48115" lon="6.24206">
        <ele>1112</ele>
        <time>2023-04-21T10:24:26.000Z</time>
      </trkpt>
      <trkpt lat="44.48116" lon="6.24207">
        <ele>1112</ele>
        <time>2023-04-21T10:24:27.000Z</time>
      </trkpt>
      <trkpt lat="44.48117" lon="6.24208">
        <ele>1112</ele>
        <time>2023-04-21T10:24:28.000Z</time>
      </trkpt>
      <trkpt lat="44.48117" lon="6.24209">
        <ele>1112</ele>
        <time>2023-04-21T10:24:29.000Z</time>
      </trkpt>
      <trkpt lat="44.48118" lon="6.2421">
        <ele>1112</ele>
        <time>2023-04-21T10:24:30.000Z</time>
      </trkpt>
      <trkpt lat="44.48119" lon="6.24211">
        <ele>1112</ele>
        <time>2023-04-21T10:24:31.000Z</time>
      </trkpt>
      <trkpt lat="44.48119" lon="6.24212">
        <ele>1112</ele>
        <time>2023-04-21T10:24:32.000Z</time>
      </trkpt>
      <trkpt lat="44.4812" lon="6.24213">
        <ele>1112</ele>
        <time>2023-04-21T10:24:33.000Z</time>
      </trkpt>
      <trkpt lat="44.4812" lon="6.24214">
        <ele>1112</ele>
        <time>2023-04-21T10:24:34.000Z</time>
      </trkpt>
      <trkpt lat="44.4812" lon="6.24215">
        <ele>1113</ele>
        <time>2023-04-21T10:24:35.000Z</time>
      </trkpt>
      <trkpt lat="44.4812" lon="6.24217">
        <ele>1113</ele>
        <time>2023-04-21T10:24:36.000Z</time>
      </trkpt>
      <trkpt lat="44.4812" lon="6.24218">
        <ele>1113</ele>
        <time>2023-04-21T10:24:37.000Z</time>
      </trkpt>
      <trkpt lat="44.48121" lon="6.24219">
        <ele>1114</ele>
        <time>2023-04-21T10:24:38.000Z</time>
      </trkpt>
      <trkpt lat="44.48121" lon="6.2422">
        <ele>1114</ele>
        <time>2023-04-21T10:24:39.000Z</time>
      </trkpt>
      <trkpt lat="44.48121" lon="6.24221">
        <ele>1114</ele>
        <time>2023-04-21T10:24:40.000Z</time>
      </trkpt>
      <trkpt lat="44.4812" lon="6.24222">
        <ele>1114</ele>
        <time>2023-04-21T10:24:41.000Z</time>
      </trkpt>
      <trkpt lat="44.4812" lon="6.24223">
        <ele>1115</ele>
        <time>2023-04-21T10:24:42.000Z</time>
      </trkpt>
      <trkpt lat="44.4812" lon="6.24224">
        <ele>1115</ele>
        <time>2023-04-21T10:24:43.000Z</time>
      </trkpt>
      <trkpt lat="44.4812" lon="6.24226">
        <ele>1116</ele>
        <time>2023-04-21T10:24:44.000Z</time>
      </trkpt>
      <trkpt lat="44.4812" lon="6.24227">
        <ele>1116</ele>
        <time>2023-04-21T10:24:45.000Z</time>
      </trkpt>
      <trkpt lat="44.4812" lon="6.24228">
        <ele>1116</ele>
        <time>2023-04-21T10:24:46.000Z</time>
      </trkpt>
      <trkpt lat="44.4812" lon="6.24229">
        <ele>1116</ele>
        <time>2023-04-21T10:24:47.000Z</time>
      </trkpt>
      <trkpt lat="44.4812" lon="6.24231">
        <ele>1116</ele>
        <time>2023-04-21T10:24:48.000Z</time>
      </trkpt>
      <trkpt lat="44.4812" lon="6.24232">
        <ele>1116</ele>
        <time>2023-04-21T10:24:49.000Z</time>
      </trkpt>
      <trkpt lat="44.4812" lon="6.24234">
        <ele>1116</ele>
        <time>2023-04-21T10:24:50.000Z</time>
      </trkpt>
      <trkpt lat="44.4812" lon="6.24235">
        <ele>1116</ele>
        <time>2023-04-21T10:24:51.000Z</time>
      </trkpt>
      <trkpt lat="44.4812" lon="6.24236">
        <ele>1116</ele>
        <time>2023-04-21T10:24:52.000Z</time>
      </trkpt>
      <trkpt lat="44.4812" lon="6.24238">
        <ele>1116</ele>
        <time>2023-04-21T10:24:53.000Z</time>
      </trkpt>
      <trkpt lat="44.4812" lon="6.24239">
        <ele>1116</ele>
        <time>2023-04-21T10:24:54.000Z</time>
      </trkpt>
      <trkpt lat="44.4812" lon="6.24241">
        <ele>1116</ele>
        <time>2023-04-21T10:24:55.000Z</time>
      </trkpt>
      <trkpt lat="44.4812" lon="6.24242">
        <ele>1115</ele>
        <time>2023-04-21T10:24:56.000Z</time>
      </trkpt>
      <trkpt lat="44.4812" lon="6.24244">
        <ele>1115</ele>
        <time>2023-04-21T10:24:57.000Z</time>
      </trkpt>
      <trkpt lat="44.4812" lon="6.24245">
        <ele>1115</ele>
        <time>2023-04-21T10:24:58.000Z</time>
      </trkpt>
      <trkpt lat="44.4812" lon="6.24247">
        <ele>1115</ele>
        <time>2023-04-21T10:24:59.000Z</time>
      </trkpt>
      <trkpt lat="44.4812" lon="6.24248">
        <ele>1116</ele>
        <time>2023-04-21T10:25:00.000Z</time>
      </trkpt>
      <trkpt lat="44.48121" lon="6.2425">
        <ele>1116</ele>
        <time>2023-04-21T10:25:01.000Z</time>
      </trkpt>
      <trkpt lat="44.48121" lon="6.24251">
        <ele>1116</ele>
        <time>2023-04-21T10:25:02.000Z</time>
      </trkpt>
      <trkpt lat="44.48121" lon="6.24252">
        <ele>1117</ele>
        <time>2023-04-21T10:25:03.000Z</time>
      </trkpt>
      <trkpt lat="44.48122" lon="6.24253">
        <ele>1117</ele>
        <time>2023-04-21T10:25:04.000Z</time>
      </trkpt>
      <trkpt lat="44.48123" lon="6.24254">
        <ele>1117</ele>
        <time>2023-04-21T10:25:05.000Z</time>
      </trkpt>
      <trkpt lat="44.48124" lon="6.24254">
        <ele>1117</ele>
        <time>2023-04-21T10:25:06.000Z</time>
      </trkpt>
      <trkpt lat="44.48125" lon="6.24254">
        <ele>1117</ele>
        <time>2023-04-21T10:25:07.000Z</time>
      </trkpt>
      <trkpt lat="44.48126" lon="6.24254">
        <ele>1117</ele>
        <time>2023-04-21T10:25:08.000Z</time>
      </trkpt>
      <trkpt lat="44.48127" lon="6.24254">
        <ele>1117</ele>
        <time>2023-04-21T10:25:09.000Z</time>
      </trkpt>
      <trkpt lat="44.48128" lon="6.24255">
        <ele>1117</ele>
        <time>2023-04-21T10:25:10.000Z</time>
      </trkpt>
      <trkpt lat="44.48129" lon="6.24254">
        <ele>1117</ele>
        <time>2023-04-21T10:25:11.000Z</time>
      </trkpt>
      <trkpt lat="44.4813" lon="6.24254">
        <ele>1117</ele>
        <time>2023-04-21T10:25:12.000Z</time>
      </trkpt>
      <trkpt lat="44.4813" lon="6.24254">
        <ele>1116</ele>
        <time>2023-04-21T10:25:13.000Z</time>
      </trkpt>
      <trkpt lat="44.48131" lon="6.24254">
        <ele>1117</ele>
        <time>2023-04-21T10:25:14.000Z</time>
      </trkpt>
      <trkpt lat="44.48132" lon="6.24254">
        <ele>1117</ele>
        <time>2023-04-21T10:25:15.000Z</time>
      </trkpt>
      <trkpt lat="44.48133" lon="6.24254">
        <ele>1117</ele>
        <time>2023-04-21T10:25:16.000Z</time>
      </trkpt>
      <trkpt lat="44.48134" lon="6.24254">
        <ele>1117</ele>
        <time>2023-04-21T10:25:17.000Z</time>
      </trkpt>
      <trkpt lat="44.48135" lon="6.24254">
        <ele>1117</ele>
        <time>2023-04-21T10:25:18.000Z</time>
      </trkpt>
      <trkpt lat="44.48136" lon="6.24254">
        <ele>1117</ele>
        <time>2023-04-21T10:25:19.000Z</time>
      </trkpt>
      <trkpt lat="44.48137" lon="6.24254">
        <ele>1117</ele>
        <time>2023-04-21T10:25:20.000Z</time>
      </trkpt>
      <trkpt lat="44.48138" lon="6.24254">
        <ele>1117</ele>
        <time>2023-04-21T10:25:21.000Z</time>
      </trkpt>
      <trkpt lat="44.48139" lon="6.24254">
        <ele>1117</ele>
        <time>2023-04-21T10:25:22.000Z</time>
      </trkpt>
      <trkpt lat="44.4814" lon="6.24254">
        <ele>1117</ele>
        <time>2023-04-21T10:25:23.000Z</time>
      </trkpt>
      <trkpt lat="44.48141" lon="6.24255">
        <ele>1117</ele>
        <time>2023-04-21T10:25:24.000Z</time>
      </trkpt>
      <trkpt lat="44.48142" lon="6.24255">
        <ele>1117</ele>
        <time>2023-04-21T10:25:25.000Z</time>
      </trkpt>
      <trkpt lat="44.48142" lon="6.24255">
        <ele>1117</ele>
        <time>2023-04-21T10:25:26.000Z</time>
      </trkpt>
      <trkpt lat="44.48143" lon="6.24255">
        <ele>1118</ele>
        <time>2023-04-21T10:25:27.000Z</time>
      </trkpt>
      <trkpt lat="44.48144" lon="6.24255">
        <ele>1118</ele>
        <time>2023-04-21T10:25:28.000Z</time>
      </trkpt>
      <trkpt lat="44.48145" lon="6.24255">
        <ele>1118</ele>
        <time>2023-04-21T10:25:29.000Z</time>
      </trkpt>
      <trkpt lat="44.48146" lon="6.24255">
        <ele>1118</ele>
        <time>2023-04-21T10:25:30.000Z</time>
      </trkpt>
      <trkpt lat="44.48147" lon="6.24254">
        <ele>1119</ele>
        <time>2023-04-21T10:25:31.000Z</time>
      </trkpt>
      <trkpt lat="44.48147" lon="6.24253">
        <ele>1119</ele>
        <time>2023-04-21T10:25:32.000Z</time>
      </trkpt>
      <trkpt lat="44.48148" lon="6.24252">
        <ele>1119</ele>
        <time>2023-04-21T10:25:33.000Z</time>
      </trkpt>
      <trkpt lat="44.48147" lon="6.24251">
        <ele>1119</ele>
        <time>2023-04-21T10:25:34.000Z</time>
      </trkpt>
      <trkpt lat="44.48147" lon="6.2425">
        <ele>1119</ele>
        <time>2023-04-21T10:25:35.000Z</time>
      </trkpt>
      <trkpt lat="44.48147" lon="6.24249">
        <ele>1119</ele>
        <time>2023-04-21T10:25:36.000Z</time>
      </trkpt>
      <trkpt lat="44.48147" lon="6.24248">
        <ele>1119</ele>
        <time>2023-04-21T10:25:37.000Z</time>
      </trkpt>
      <trkpt lat="44.48146" lon="6.24248">
        <ele>1120</ele>
        <time>2023-04-21T10:25:38.000Z</time>
      </trkpt>
      <trkpt lat="44.48146" lon="6.24248">
        <ele>1120</ele>
        <time>2023-04-21T10:25:39.000Z</time>
      </trkpt>
      <trkpt lat="44.48145" lon="6.24247">
        <ele>1120</ele>
        <time>2023-04-21T10:25:40.000Z</time>
      </trkpt>
      <trkpt lat="44.48145" lon="6.24247">
        <ele>1120</ele>
        <time>2023-04-21T10:25:41.000Z</time>
      </trkpt>
      <trkpt lat="44.48144" lon="6.24246">
        <ele>1120</ele>
        <time>2023-04-21T10:25:42.000Z</time>
      </trkpt>
      <trkpt lat="44.48143" lon="6.24246">
        <ele>1120</ele>
        <time>2023-04-21T10:25:43.000Z</time>
      </trkpt>
      <trkpt lat="44.48143" lon="6.24245">
        <ele>1120</ele>
        <time>2023-04-21T10:25:44.000Z</time>
      </trkpt>
      <trkpt lat="44.48142" lon="6.24244">
        <ele>1120</ele>
        <time>2023-04-21T10:25:45.000Z</time>
      </trkpt>
      <trkpt lat="44.48142" lon="6.24244">
        <ele>1121</ele>
        <time>2023-04-21T10:25:46.000Z</time>
      </trkpt>
      <trkpt lat="44.48141" lon="6.24243">
        <ele>1121</ele>
        <time>2023-04-21T10:25:47.000Z</time>
      </trkpt>
      <trkpt lat="44.4814" lon="6.24241">
        <ele>1121</ele>
        <time>2023-04-21T10:25:48.000Z</time>
      </trkpt>
      <trkpt lat="44.4814" lon="6.2424">
        <ele>1121</ele>
        <time>2023-04-21T10:25:49.000Z</time>
      </trkpt>
      <trkpt lat="44.4814" lon="6.2424">
        <ele>1121</ele>
        <time>2023-04-21T10:25:50.000Z</time>
      </trkpt>
      <trkpt lat="44.4814" lon="6.24239">
        <ele>1120</ele>
        <time>2023-04-21T10:25:51.000Z</time>
      </trkpt>
      <trkpt lat="44.4814" lon="6.24239">
        <ele>1121</ele>
        <time>2023-04-21T10:25:52.000Z</time>
      </trkpt>
      <trkpt lat="44.4814" lon="6.24239">
        <ele>1121</ele>
        <time>2023-04-21T10:25:53.000Z</time>
      </trkpt>
      <trkpt lat="44.48141" lon="6.2424">
        <ele>1121</ele>
        <time>2023-04-21T10:25:54.000Z</time>
      </trkpt>
      <trkpt lat="44.48141" lon="6.2424">
        <ele>1121</ele>
        <time>2023-04-21T10:25:55.000Z</time>
      </trkpt>
      <trkpt lat="44.48141" lon="6.2424">
        <ele>1121</ele>
        <time>2023-04-21T10:25:56.000Z</time>
      </trkpt>
      <trkpt lat="44.48141" lon="6.24239">
        <ele>1121</ele>
        <time>2023-04-21T10:25:57.000Z</time>
      </trkpt>
      <trkpt lat="44.48141" lon="6.2424">
        <ele>1121</ele>
        <time>2023-04-21T10:25:58.000Z</time>
      </trkpt>
      <trkpt lat="44.48141" lon="6.2424">
        <ele>1121</ele>
        <time>2023-04-21T10:25:59.000Z</time>
      </trkpt>
      <trkpt lat="44.48141" lon="6.2424">
        <ele>1121</ele>
        <time>2023-04-21T10:26:00.000Z</time>
      </trkpt>
      <trkpt lat="44.48141" lon="6.2424">
        <ele>1121</ele>
        <time>2023-04-21T10:26:01.000Z</time>
      </trkpt>
      <trkpt lat="44.48141" lon="6.2424">
        <ele>1121</ele>
        <time>2023-04-21T10:26:02.000Z</time>
      </trkpt>
      <trkpt lat="44.48141" lon="6.2424">
        <ele>1121</ele>
        <time>2023-04-21T10:26:03.000Z</time>
      </trkpt>
      <trkpt lat="44.48141" lon="6.2424">
        <ele>1121</ele>
        <time>2023-04-21T10:26:04.000Z</time>
      </trkpt>
      <trkpt lat="44.48141" lon="6.2424">
        <ele>1121</ele>
        <time>2023-04-21T10:26:05.000Z</time>
      </trkpt>
      <trkpt lat="44.48142" lon="6.2424">
        <ele>1121</ele>
        <time>2023-04-21T10:26:06.000Z</time>
      </trkpt>
      <trkpt lat="44.48142" lon="6.2424">
        <ele>1121</ele>
        <time>2023-04-21T10:26:07.000Z</time>
      </trkpt>
      <trkpt lat="44.48142" lon="6.2424">
        <ele>1121</ele>
        <time>2023-04-21T10:26:08.000Z</time>
      </trkpt>
      <trkpt lat="44.48142" lon="6.2424">
        <ele>1121</ele>
        <time>2023-04-21T10:26:09.000Z</time>
      </trkpt>
      <trkpt lat="44.48142" lon="6.2424">
        <ele>1121</ele>
        <time>2023-04-21T10:26:10.000Z</time>
      </trkpt>
      <trkpt lat="44.48142" lon="6.2424">
        <ele>1121</ele>
        <time>2023-04-21T10:26:11.000Z</time>
      </trkpt>
      <trkpt lat="44.48142" lon="6.2424">
        <ele>1121</ele>
        <time>2023-04-21T10:26:12.000Z</time>
      </trkpt>
      <trkpt lat="44.48142" lon="6.2424">
        <ele>1121</ele>
        <time>2023-04-21T10:26:13.000Z</time>
      </trkpt>
      <trkpt lat="44.48142" lon="6.2424">
        <ele>1121</ele>
        <time>2023-04-21T10:26:14.000Z</time>
      </trkpt>
      <trkpt lat="44.48142" lon="6.2424">
        <ele>1121</ele>
        <time>2023-04-21T10:26:15.000Z</time>
      </trkpt>
      <trkpt lat="44.48142" lon="6.2424">
        <ele>1121</ele>
        <time>2023-04-21T10:26:16.000Z</time>
      </trkpt>
      <trkpt lat="44.48142" lon="6.2424">
        <ele>1122</ele>
        <time>2023-04-21T10:26:17.000Z</time>
      </trkpt>
      <trkpt lat="44.48142" lon="6.2424">
        <ele>1122</ele>
        <time>2023-04-21T10:26:18.000Z</time>
      </trkpt>
      <trkpt lat="44.48142" lon="6.2424">
        <ele>1121</ele>
        <time>2023-04-21T10:26:19.000Z</time>
      </trkpt>
      <trkpt lat="44.48142" lon="6.2424">
        <ele>1121</ele>
        <time>2023-04-21T10:26:20.000Z</time>
      </trkpt>
      <trkpt lat="44.48142" lon="6.2424">
        <ele>1121</ele>
        <time>2023-04-21T10:26:21.000Z</time>
      </trkpt>
      <trkpt lat="44.48142" lon="6.2424">
        <ele>1121</ele>
        <time>2023-04-21T10:26:22.000Z</time>
      </trkpt>
      <trkpt lat="44.48142" lon="6.2424">
        <ele>1121</ele>
        <time>2023-04-21T10:26:23.000Z</time>
      </trkpt>
      <trkpt lat="44.48142" lon="6.2424">
        <ele>1120</ele>
        <time>2023-04-21T10:26:24.000Z</time>
      </trkpt>
      <trkpt lat="44.48142" lon="6.2424">
        <ele>1120</ele>
        <time>2023-04-21T10:26:25.000Z</time>
      </trkpt>
      <trkpt lat="44.48142" lon="6.2424">
        <ele>1120</ele>
        <time>2023-04-21T10:26:26.000Z</time>
      </trkpt>
      <trkpt lat="44.48142" lon="6.2424">
        <ele>1120</ele>
        <time>2023-04-21T10:26:27.000Z</time>
      </trkpt>
      <trkpt lat="44.48142" lon="6.2424">
        <ele>1120</ele>
        <time>2023-04-21T10:26:28.000Z</time>
      </trkpt>
      <trkpt lat="44.48142" lon="6.2424">
        <ele>1120</ele>
        <time>2023-04-21T10:26:29.000Z</time>
      </trkpt>
      <trkpt lat="44.48142" lon="6.2424">
        <ele>1119</ele>
        <time>2023-04-21T10:26:30.000Z</time>
      </trkpt>
      <trkpt lat="44.48142" lon="6.2424">
        <ele>1119</ele>
        <time>2023-04-21T10:26:31.000Z</time>
      </trkpt>
      <trkpt lat="44.48142" lon="6.2424">
        <ele>1119</ele>
        <time>2023-04-21T10:26:32.000Z</time>
      </trkpt>
      <trkpt lat="44.48142" lon="6.2424">
        <ele>1119</ele>
        <time>2023-04-21T10:26:33.000Z</time>
      </trkpt>
      <trkpt lat="44.48142" lon="6.2424">
        <ele>1119</ele>
        <time>2023-04-21T10:26:34.000Z</time>
      </trkpt>
      <trkpt lat="44.48142" lon="6.24241">
        <ele>1119</ele>
        <time>2023-04-21T10:26:35.000Z</time>
      </trkpt>
      <trkpt lat="44.48143" lon="6.24241">
        <ele>1118</ele>
        <time>2023-04-21T10:26:36.000Z</time>
      </trkpt>
      <trkpt lat="44.48143" lon="6.24241">
        <ele>1118</ele>
        <time>2023-04-21T10:26:37.000Z</time>
      </trkpt>
      <trkpt lat="44.48143" lon="6.24241">
        <ele>1118</ele>
        <time>2023-04-21T10:26:38.000Z</time>
      </trkpt>
      <trkpt lat="44.48143" lon="6.24241">
        <ele>1118</ele>
        <time>2023-04-21T10:26:39.000Z</time>
      </trkpt>
      <trkpt lat="44.48143" lon="6.24241">
        <ele>1117</ele>
        <time>2023-04-21T10:26:40.000Z</time>
      </trkpt>
      <trkpt lat="44.48143" lon="6.24241">
        <ele>1117</ele>
        <time>2023-04-21T10:26:41.000Z</time>
      </trkpt>
      <trkpt lat="44.48143" lon="6.24241">
        <ele>1117</ele>
        <time>2023-04-21T10:26:42.000Z</time>
      </trkpt>
      <trkpt lat="44.48143" lon="6.24241">
        <ele>1117</ele>
        <time>2023-04-21T10:26:43.000Z</time>
      </trkpt>
      <trkpt lat="44.48143" lon="6.24241">
        <ele>1117</ele>
        <time>2023-04-21T10:26:44.000Z</time>
      </trkpt>
      <trkpt lat="44.48143" lon="6.24241">
        <ele>1117</ele>
        <time>2023-04-21T10:26:45.000Z</time>
      </trkpt>
      <trkpt lat="44.48143" lon="6.24241">
        <ele>1117</ele>
        <time>2023-04-21T10:26:46.000Z</time>
      </trkpt>
      <trkpt lat="44.48143" lon="6.24241">
        <ele>1116</ele>
        <time>2023-04-21T10:26:47.000Z</time>
      </trkpt>
      <trkpt lat="44.48143" lon="6.24241">
        <ele>1116</ele>
        <time>2023-04-21T10:26:48.000Z</time>
      </trkpt>
      <trkpt lat="44.48143" lon="6.24242">
        <ele>1116</ele>
        <time>2023-04-21T10:26:49.000Z</time>
      </trkpt>
      <trkpt lat="44.48143" lon="6.24241">
        <ele>1116</ele>
        <time>2023-04-21T10:26:50.000Z</time>
      </trkpt>
      <trkpt lat="44.48143" lon="6.24242">
        <ele>1116</ele>
        <time>2023-04-21T10:26:51.000Z</time>
      </trkpt>
      <trkpt lat="44.48143" lon="6.24242">
        <ele>1116</ele>
        <time>2023-04-21T10:26:52.000Z</time>
      </trkpt>
      <trkpt lat="44.48143" lon="6.24242">
        <ele>1116</ele>
        <time>2023-04-21T10:26:53.000Z</time>
      </trkpt>
      <trkpt lat="44.48143" lon="6.24242">
        <ele>1116</ele>
        <time>2023-04-21T10:26:54.000Z</time>
      </trkpt>
      <trkpt lat="44.48143" lon="6.24242">
        <ele>1116</ele>
        <time>2023-04-21T10:26:55.000Z</time>
      </trkpt>
      <trkpt lat="44.48143" lon="6.24242">
        <ele>1116</ele>
        <time>2023-04-21T10:26:56.000Z</time>
      </trkpt>
      <trkpt lat="44.48143" lon="6.24242">
        <ele>1117</ele>
        <time>2023-04-21T10:26:57.000Z</time>
      </trkpt>
      <trkpt lat="44.48143" lon="6.24242">
        <ele>1116</ele>
        <time>2023-04-21T10:26:58.000Z</time>
      </trkpt>
      <trkpt lat="44.48143" lon="6.24242">
        <ele>1117</ele>
        <time>2023-04-21T10:26:59.000Z</time>
      </trkpt>
      <trkpt lat="44.48143" lon="6.24242">
        <ele>1117</ele>
        <time>2023-04-21T10:27:00.000Z</time>
      </trkpt>
      <trkpt lat="44.48143" lon="6.24242">
        <ele>1117</ele>
        <time>2023-04-21T10:27:01.000Z</time>
      </trkpt>
      <trkpt lat="44.48143" lon="6.24241">
        <ele>1117</ele>
        <time>2023-04-21T10:27:02.000Z</time>
      </trkpt>
      <trkpt lat="44.48143" lon="6.24241">
        <ele>1117</ele>
        <time>2023-04-21T10:27:03.000Z</time>
      </trkpt>
      <trkpt lat="44.48143" lon="6.24241">
        <ele>1117</ele>
        <time>2023-04-21T10:27:04.000Z</time>
      </trkpt>
      <trkpt lat="44.48143" lon="6.24241">
        <ele>1117</ele>
        <time>2023-04-21T10:27:05.000Z</time>
      </trkpt>
      <trkpt lat="44.48142" lon="6.24241">
        <ele>1117</ele>
        <time>2023-04-21T10:27:06.000Z</time>
      </trkpt>
      <trkpt lat="44.48142" lon="6.24241">
        <ele>1117</ele>
        <time>2023-04-21T10:27:07.000Z</time>
      </trkpt>
      <trkpt lat="44.48142" lon="6.24241">
        <ele>1117</ele>
        <time>2023-04-21T10:27:08.000Z</time>
      </trkpt>
      <trkpt lat="44.48142" lon="6.24241">
        <ele>1118</ele>
        <time>2023-04-21T10:27:09.000Z</time>
      </trkpt>
      <trkpt lat="44.48142" lon="6.24241">
        <ele>1118</ele>
        <time>2023-04-21T10:27:10.000Z</time>
      </trkpt>
      <trkpt lat="44.48142" lon="6.24241">
        <ele>1118</ele>
        <time>2023-04-21T10:27:11.000Z</time>
      </trkpt>
      <trkpt lat="44.48142" lon="6.24241">
        <ele>1118</ele>
        <time>2023-04-21T10:27:12.000Z</time>
      </trkpt>
      <trkpt lat="44.48142" lon="6.24241">
        <ele>1118</ele>
        <time>2023-04-21T10:27:13.000Z</time>
      </trkpt>
      <trkpt lat="44.48142" lon="6.24241">
        <ele>1118</ele>
        <time>2023-04-21T10:27:14.000Z</time>
      </trkpt>
      <trkpt lat="44.48142" lon="6.24241">
        <ele>1118</ele>
        <time>2023-04-21T10:27:15.000Z</time>
      </trkpt>
      <trkpt lat="44.48142" lon="6.24241">
        <ele>1118</ele>
        <time>2023-04-21T10:27:16.000Z</time>
      </trkpt>
      <trkpt lat="44.48142" lon="6.24241">
        <ele>1118</ele>
        <time>2023-04-21T10:27:17.000Z</time>
      </trkpt>
      <trkpt lat="44.48142" lon="6.24241">
        <ele>1118</ele>
        <time>2023-04-21T10:27:18.000Z</time>
      </trkpt>
      <trkpt lat="44.48142" lon="6.24241">
        <ele>1118</ele>
        <time>2023-04-21T10:27:19.000Z</time>
      </trkpt>
      <trkpt lat="44.48142" lon="6.24241">
        <ele>1118</ele>
        <time>2023-04-21T10:27:20.000Z</time>
      </trkpt>
      <trkpt lat="44.48142" lon="6.24241">
        <ele>1118</ele>
        <time>2023-04-21T10:27:21.000Z</time>
      </trkpt>
      <trkpt lat="44.48142" lon="6.24241">
        <ele>1118</ele>
        <time>2023-04-21T10:27:22.000Z</time>
      </trkpt>
      <trkpt lat="44.48142" lon="6.24241">
        <ele>1118</ele>
        <time>2023-04-21T10:27:23.000Z</time>
      </trkpt>
      <trkpt lat="44.48142" lon="6.24241">
        <ele>1118</ele>
        <time>2023-04-21T10:27:24.000Z</time>
      </trkpt>
      <trkpt lat="44.48142" lon="6.24241">
        <ele>1118</ele>
        <time>2023-04-21T10:27:25.000Z</time>
      </trkpt>
      <trkpt lat="44.48142" lon="6.24241">
        <ele>1118</ele>
        <time>2023-04-21T10:27:26.000Z</time>
      </trkpt>
      <trkpt lat="44.48142" lon="6.24241">
        <ele>1118</ele>
        <time>2023-04-21T10:27:27.000Z</time>
      </trkpt>
      <trkpt lat="44.48141" lon="6.24241">
        <ele>1118</ele>
        <time>2023-04-21T10:27:28.000Z</time>
      </trkpt>
      <trkpt lat="44.48141" lon="6.24241">
        <ele>1118</ele>
        <time>2023-04-21T10:27:29.000Z</time>
      </trkpt>
      <trkpt lat="44.48141" lon="6.24241">
        <ele>1118</ele>
        <time>2023-04-21T10:27:30.000Z</time>
      </trkpt>
      <trkpt lat="44.48141" lon="6.24241">
        <ele>1118</ele>
        <time>2023-04-21T10:27:31.000Z</time>
      </trkpt>
      <trkpt lat="44.48141" lon="6.24241">
        <ele>1118</ele>
        <time>2023-04-21T10:27:32.000Z</time>
      </trkpt>
      <trkpt lat="44.48141" lon="6.24241">
        <ele>1118</ele>
        <time>2023-04-21T10:27:33.000Z</time>
      </trkpt>
      <trkpt lat="44.48141" lon="6.24241">
        <ele>1118</ele>
        <time>2023-04-21T10:27:34.000Z</time>
      </trkpt>
      <trkpt lat="44.48141" lon="6.24241">
        <ele>1118</ele>
        <time>2023-04-21T10:27:35.000Z</time>
      </trkpt>
      <trkpt lat="44.48141" lon="6.24241">
        <ele>1118</ele>
        <time>2023-04-21T10:27:36.000Z</time>
      </trkpt>
      <trkpt lat="44.48141" lon="6.24241">
        <ele>1118</ele>
        <time>2023-04-21T10:27:37.000Z</time>
      </trkpt>
      <trkpt lat="44.48141" lon="6.24241">
        <ele>1118</ele>
        <time>2023-04-21T10:27:38.000Z</time>
      </trkpt>
      <trkpt lat="44.48141" lon="6.24241">
        <ele>1118</ele>
        <time>2023-04-21T10:27:39.000Z</time>
      </trkpt>
      <trkpt lat="44.48141" lon="6.24241">
        <ele>1118</ele>
        <time>2023-04-21T10:27:40.000Z</time>
      </trkpt>
      <trkpt lat="44.48141" lon="6.24241">
        <ele>1117</ele>
        <time>2023-04-21T10:27:41.000Z</time>
      </trkpt>
      <trkpt lat="44.48141" lon="6.24241">
        <ele>1117</ele>
        <time>2023-04-21T10:27:42.000Z</time>
      </trkpt>
      <trkpt lat="44.48141" lon="6.24241">
        <ele>1118</ele>
        <time>2023-04-21T10:27:43.000Z</time>
      </trkpt>
      <trkpt lat="44.48141" lon="6.24241">
        <ele>1118</ele>
        <time>2023-04-21T10:27:44.000Z</time>
      </trkpt>
      <trkpt lat="44.48141" lon="6.24241">
        <ele>1118</ele>
        <time>2023-04-21T10:27:45.000Z</time>
      </trkpt>
      <trkpt lat="44.48141" lon="6.24241">
        <ele>1118</ele>
        <time>2023-04-21T10:27:46.000Z</time>
      </trkpt>
      <trkpt lat="44.48141" lon="6.24241">
        <ele>1118</ele>
        <time>2023-04-21T10:27:47.000Z</time>
      </trkpt>
      <trkpt lat="44.48141" lon="6.24241">
        <ele>1118</ele>
        <time>2023-04-21T10:27:48.000Z</time>
      </trkpt>
      <trkpt lat="44.48141" lon="6.24241">
        <ele>1118</ele>
        <time>2023-04-21T10:27:49.000Z</time>
      </trkpt>
      <trkpt lat="44.48141" lon="6.24241">
        <ele>1118</ele>
        <time>2023-04-21T10:27:50.000Z</time>
      </trkpt>
      <trkpt lat="44.48141" lon="6.24241">
        <ele>1118</ele>
        <time>2023-04-21T10:27:51.000Z</time>
      </trkpt>
      <trkpt lat="44.48141" lon="6.24241">
        <ele>1118</ele>
        <time>2023-04-21T10:27:52.000Z</time>
      </trkpt>
      <trkpt lat="44.48141" lon="6.24241">
        <ele>1118</ele>
        <time>2023-04-21T10:27:53.000Z</time>
      </trkpt>
      <trkpt lat="44.48141" lon="6.24241">
        <ele>1118</ele>
        <time>2023-04-21T10:27:54.000Z</time>
      </trkpt>
      <trkpt lat="44.48141" lon="6.24241">
        <ele>1119</ele>
        <time>2023-04-21T10:27:55.000Z</time>
      </trkpt>
      <trkpt lat="44.48141" lon="6.24241">
        <ele>1119</ele>
        <time>2023-04-21T10:27:56.000Z</time>
      </trkpt>
      <trkpt lat="44.48141" lon="6.24241">
        <ele>1119</ele>
        <time>2023-04-21T10:27:57.000Z</time>
      </trkpt>
      <trkpt lat="44.48142" lon="6.24241">
        <ele>1119</ele>
        <time>2023-04-21T10:27:58.000Z</time>
      </trkpt>
      <trkpt lat="44.48142" lon="6.24241">
        <ele>1119</ele>
        <time>2023-04-21T10:27:59.000Z</time>
      </trkpt>
      <trkpt lat="44.48142" lon="6.24241">
        <ele>1119</ele>
        <time>2023-04-21T10:28:00.000Z</time>
      </trkpt>
      <trkpt lat="44.48142" lon="6.24241">
        <ele>1119</ele>
        <time>2023-04-21T10:28:01.000Z</time>
      </trkpt>
      <trkpt lat="44.48142" lon="6.24241">
        <ele>1119</ele>
        <time>2023-04-21T10:28:02.000Z</time>
      </trkpt>
      <trkpt lat="44.48142" lon="6.24241">
        <ele>1119</ele>
        <time>2023-04-21T10:28:03.000Z</time>
      </trkpt>
      <trkpt lat="44.48142" lon="6.24241">
        <ele>1119</ele>
        <time>2023-04-21T10:28:04.000Z</time>
      </trkpt>
      <trkpt lat="44.48142" lon="6.24241">
        <ele>1119</ele>
        <time>2023-04-21T10:28:05.000Z</time>
      </trkpt>
      <trkpt lat="44.48142" lon="6.24241">
        <ele>1119</ele>
        <time>2023-04-21T10:28:06.000Z</time>
      </trkpt>
      <trkpt lat="44.48142" lon="6.24241">
        <ele>1119</ele>
        <time>2023-04-21T10:28:07.000Z</time>
      </trkpt>
      <trkpt lat="44.48142" lon="6.24241">
        <ele>1119</ele>
        <time>2023-04-21T10:28:08.000Z</time>
      </trkpt>
      <trkpt lat="44.48142" lon="6.24241">
        <ele>1119</ele>
        <time>2023-04-21T10:28:09.000Z</time>
      </trkpt>
      <trkpt lat="44.48142" lon="6.24241">
        <ele>1119</ele>
        <time>2023-04-21T10:28:10.000Z</time>
      </trkpt>
      <trkpt lat="44.48142" lon="6.24241">
        <ele>1119</ele>
        <time>2023-04-21T10:28:11.000Z</time>
      </trkpt>
      <trkpt lat="44.48142" lon="6.24241">
        <ele>1119</ele>
        <time>2023-04-21T10:28:12.000Z</time>
      </trkpt>
      <trkpt lat="44.48142" lon="6.24241">
        <ele>1119</ele>
        <time>2023-04-21T10:28:13.000Z</time>
      </trkpt>
      <trkpt lat="44.48143" lon="6.24241">
        <ele>1119</ele>
        <time>2023-04-21T10:28:14.000Z</time>
      </trkpt>
      <trkpt lat="44.48143" lon="6.24241">
        <ele>1119</ele>
        <time>2023-04-21T10:28:15.000Z</time>
      </trkpt>
      <trkpt lat="44.48143" lon="6.24241">
        <ele>1119</ele>
        <time>2023-04-21T10:28:16.000Z</time>
      </trkpt>
      <trkpt lat="44.48143" lon="6.24241">
        <ele>1119</ele>
        <time>2023-04-21T10:28:17.000Z</time>
      </trkpt>
      <trkpt lat="44.48143" lon="6.24241">
        <ele>1119</ele>
        <time>2023-04-21T10:28:18.000Z</time>
      </trkpt>
      <trkpt lat="44.48143" lon="6.24241">
        <ele>1120</ele>
        <time>2023-04-21T10:28:19.000Z</time>
      </trkpt>
      <trkpt lat="44.48143" lon="6.24241">
        <ele>1120</ele>
        <time>2023-04-21T10:28:20.000Z</time>
      </trkpt>
      <trkpt lat="44.48143" lon="6.24241">
        <ele>1120</ele>
        <time>2023-04-21T10:28:21.000Z</time>
      </trkpt>
      <trkpt lat="44.48143" lon="6.24241">
        <ele>1120</ele>
        <time>2023-04-21T10:28:22.000Z</time>
      </trkpt>
      <trkpt lat="44.48143" lon="6.24241">
        <ele>1120</ele>
        <time>2023-04-21T10:28:23.000Z</time>
      </trkpt>
      <trkpt lat="44.48143" lon="6.24241">
        <ele>1121</ele>
        <time>2023-04-21T10:28:24.000Z</time>
      </trkpt>
      <trkpt lat="44.48144" lon="6.24241">
        <ele>1121</ele>
        <time>2023-04-21T10:28:25.000Z</time>
      </trkpt>
      <trkpt lat="44.48144" lon="6.24241">
        <ele>1121</ele>
        <time>2023-04-21T10:28:26.000Z</time>
      </trkpt>
      <trkpt lat="44.48144" lon="6.24241">
        <ele>1121</ele>
        <time>2023-04-21T10:28:27.000Z</time>
      </trkpt>
      <trkpt lat="44.48144" lon="6.24241">
        <ele>1121</ele>
        <time>2023-04-21T10:28:28.000Z</time>
      </trkpt>
      <trkpt lat="44.48144" lon="6.24241">
        <ele>1121</ele>
        <time>2023-04-21T10:28:29.000Z</time>
      </trkpt>
      <trkpt lat="44.48144" lon="6.24241">
        <ele>1121</ele>
        <time>2023-04-21T10:28:30.000Z</time>
      </trkpt>
      <trkpt lat="44.48144" lon="6.2424">
        <ele>1121</ele>
        <time>2023-04-21T10:28:31.000Z</time>
      </trkpt>
      <trkpt lat="44.48144" lon="6.2424">
        <ele>1121</ele>
        <time>2023-04-21T10:28:32.000Z</time>
      </trkpt>
      <trkpt lat="44.48144" lon="6.2424">
        <ele>1121</ele>
        <time>2023-04-21T10:28:33.000Z</time>
      </trkpt>
      <trkpt lat="44.48144" lon="6.2424">
        <ele>1121</ele>
        <time>2023-04-21T10:28:34.000Z</time>
      </trkpt>
      <trkpt lat="44.48144" lon="6.2424">
        <ele>1121</ele>
        <time>2023-04-21T10:28:35.000Z</time>
      </trkpt>
      <trkpt lat="44.48144" lon="6.2424">
        <ele>1121</ele>
        <time>2023-04-21T10:28:36.000Z</time>
      </trkpt>
      <trkpt lat="44.48144" lon="6.2424">
        <ele>1121</ele>
        <time>2023-04-21T10:28:37.000Z</time>
      </trkpt>
      <trkpt lat="44.48144" lon="6.2424">
        <ele>1121</ele>
        <time>2023-04-21T10:28:38.000Z</time>
      </trkpt>
      <trkpt lat="44.48144" lon="6.2424">
        <ele>1121</ele>
        <time>2023-04-21T10:28:39.000Z</time>
      </trkpt>
      <trkpt lat="44.48144" lon="6.2424">
        <ele>1121</ele>
        <time>2023-04-21T10:28:40.000Z</time>
      </trkpt>
      <trkpt lat="44.48145" lon="6.24241">
        <ele>1121</ele>
        <time>2023-04-21T10:28:41.000Z</time>
      </trkpt>
      <trkpt lat="44.48145" lon="6.24241">
        <ele>1121</ele>
        <time>2023-04-21T10:28:42.000Z</time>
      </trkpt>
      <trkpt lat="44.48145" lon="6.24241">
        <ele>1122</ele>
        <time>2023-04-21T10:28:43.000Z</time>
      </trkpt>
      <trkpt lat="44.48145" lon="6.24241">
        <ele>1122</ele>
        <time>2023-04-21T10:28:44.000Z</time>
      </trkpt>
      <trkpt lat="44.48145" lon="6.24241">
        <ele>1122</ele>
        <time>2023-04-21T10:28:45.000Z</time>
      </trkpt>
      <trkpt lat="44.48145" lon="6.24241">
        <ele>1122</ele>
        <time>2023-04-21T10:28:46.000Z</time>
      </trkpt>
      <trkpt lat="44.48145" lon="6.24241">
        <ele>1122</ele>
        <time>2023-04-21T10:28:47.000Z</time>
      </trkpt>
      <trkpt lat="44.48145" lon="6.24241">
        <ele>1122</ele>
        <time>2023-04-21T10:28:48.000Z</time>
      </trkpt>
      <trkpt lat="44.48145" lon="6.24241">
        <ele>1122</ele>
        <time>2023-04-21T10:28:49.000Z</time>
      </trkpt>
      <trkpt lat="44.48145" lon="6.24241">
        <ele>1121</ele>
        <time>2023-04-21T10:28:50.000Z</time>
      </trkpt>
      <trkpt lat="44.48145" lon="6.24241">
        <ele>1121</ele>
        <time>2023-04-21T10:28:51.000Z</time>
      </trkpt>
      <trkpt lat="44.48145" lon="6.24241">
        <ele>1121</ele>
        <time>2023-04-21T10:28:52.000Z</time>
      </trkpt>
      <trkpt lat="44.48145" lon="6.24241">
        <ele>1121</ele>
        <time>2023-04-21T10:28:53.000Z</time>
      </trkpt>
      <trkpt lat="44.48145" lon="6.24241">
        <ele>1121</ele>
        <time>2023-04-21T10:28:54.000Z</time>
      </trkpt>
      <trkpt lat="44.48145" lon="6.24241">
        <ele>1121</ele>
        <time>2023-04-21T10:28:55.000Z</time>
      </trkpt>
      <trkpt lat="44.48145" lon="6.24241">
        <ele>1121</ele>
        <time>2023-04-21T10:28:56.000Z</time>
      </trkpt>
      <trkpt lat="44.48145" lon="6.24241">
        <ele>1121</ele>
        <time>2023-04-21T10:28:57.000Z</time>
      </trkpt>
      <trkpt lat="44.48146" lon="6.24241">
        <ele>1121</ele>
        <time>2023-04-21T10:28:58.000Z</time>
      </trkpt>
      <trkpt lat="44.48146" lon="6.2424">
        <ele>1121</ele>
        <time>2023-04-21T10:28:59.000Z</time>
      </trkpt>
      <trkpt lat="44.48146" lon="6.24241">
        <ele>1121</ele>
        <time>2023-04-21T10:29:00.000Z</time>
      </trkpt>
      <trkpt lat="44.48146" lon="6.24241">
        <ele>1121</ele>
        <time>2023-04-21T10:29:01.000Z</time>
      </trkpt>
      <trkpt lat="44.48146" lon="6.24241">
        <ele>1121</ele>
        <time>2023-04-21T10:29:02.000Z</time>
      </trkpt>
      <trkpt lat="44.48146" lon="6.24241">
        <ele>1121</ele>
        <time>2023-04-21T10:29:03.000Z</time>
      </trkpt>
      <trkpt lat="44.48146" lon="6.24241">
        <ele>1121</ele>
        <time>2023-04-21T10:29:04.000Z</time>
      </trkpt>
      <trkpt lat="44.48146" lon="6.24241">
        <ele>1121</ele>
        <time>2023-04-21T10:29:05.000Z</time>
      </trkpt>
      <trkpt lat="44.48146" lon="6.24241">
        <ele>1121</ele>
        <time>2023-04-21T10:29:06.000Z</time>
      </trkpt>
      <trkpt lat="44.48146" lon="6.24241">
        <ele>1121</ele>
        <time>2023-04-21T10:29:07.000Z</time>
      </trkpt>
      <trkpt lat="44.48146" lon="6.24241">
        <ele>1121</ele>
        <time>2023-04-21T10:29:08.000Z</time>
      </trkpt>
      <trkpt lat="44.48146" lon="6.24241">
        <ele>1121</ele>
        <time>2023-04-21T10:29:09.000Z</time>
      </trkpt>
      <trkpt lat="44.48146" lon="6.24241">
        <ele>1121</ele>
        <time>2023-04-21T10:29:10.000Z</time>
      </trkpt>
      <trkpt lat="44.48146" lon="6.24241">
        <ele>1121</ele>
        <time>2023-04-21T10:29:11.000Z</time>
      </trkpt>
      <trkpt lat="44.48146" lon="6.24241">
        <ele>1121</ele>
        <time>2023-04-21T10:29:12.000Z</time>
      </trkpt>
      <trkpt lat="44.48146" lon="6.24241">
        <ele>1121</ele>
        <time>2023-04-21T10:29:13.000Z</time>
      </trkpt>
      <trkpt lat="44.48146" lon="6.24241">
        <ele>1122</ele>
        <time>2023-04-21T10:29:14.000Z</time>
      </trkpt>
      <trkpt lat="44.48146" lon="6.24241">
        <ele>1122</ele>
        <time>2023-04-21T10:29:15.000Z</time>
      </trkpt>
      <trkpt lat="44.48146" lon="6.24241">
        <ele>1122</ele>
        <time>2023-04-21T10:29:16.000Z</time>
      </trkpt>
      <trkpt lat="44.48146" lon="6.24241">
        <ele>1122</ele>
        <time>2023-04-21T10:29:17.000Z</time>
      </trkpt>
      <trkpt lat="44.48146" lon="6.24241">
        <ele>1122</ele>
        <time>2023-04-21T10:29:18.000Z</time>
      </trkpt>
      <trkpt lat="44.48146" lon="6.24241">
        <ele>1122</ele>
        <time>2023-04-21T10:29:19.000Z</time>
      </trkpt>
      <trkpt lat="44.48146" lon="6.24241">
        <ele>1122</ele>
        <time>2023-04-21T10:29:20.000Z</time>
      </trkpt>
      <trkpt lat="44.48146" lon="6.24241">
        <ele>1122</ele>
        <time>2023-04-21T10:29:21.000Z</time>
      </trkpt>
      <trkpt lat="44.48146" lon="6.24241">
        <ele>1122</ele>
        <time>2023-04-21T10:29:22.000Z</time>
      </trkpt>
      <trkpt lat="44.48146" lon="6.24241">
        <ele>1122</ele>
        <time>2023-04-21T10:29:23.000Z</time>
      </trkpt>
      <trkpt lat="44.48146" lon="6.24241">
        <ele>1122</ele>
        <time>2023-04-21T10:29:24.000Z</time>
      </trkpt>
      <trkpt lat="44.48146" lon="6.24241">
        <ele>1122</ele>
        <time>2023-04-21T10:29:25.000Z</time>
      </trkpt>
      <trkpt lat="44.48146" lon="6.24241">
        <ele>1122</ele>
        <time>2023-04-21T10:29:26.000Z</time>
      </trkpt>
      <trkpt lat="44.48146" lon="6.24241">
        <ele>1122</ele>
        <time>2023-04-21T10:29:27.000Z</time>
      </trkpt>
      <trkpt lat="44.48147" lon="6.24241">
        <ele>1122</ele>
        <time>2023-04-21T10:29:28.000Z</time>
      </trkpt>
      <trkpt lat="44.48147" lon="6.24241">
        <ele>1122</ele>
        <time>2023-04-21T10:29:29.000Z</time>
      </trkpt>
      <trkpt lat="44.48147" lon="6.24241">
        <ele>1122</ele>
        <time>2023-04-21T10:29:30.000Z</time>
      </trkpt>
      <trkpt lat="44.48147" lon="6.24241">
        <ele>1122</ele>
        <time>2023-04-21T10:29:31.000Z</time>
      </trkpt>
      <trkpt lat="44.48147" lon="6.24241">
        <ele>1122</ele>
        <time>2023-04-21T10:29:32.000Z</time>
      </trkpt>
      <trkpt lat="44.48147" lon="6.24241">
        <ele>1122</ele>
        <time>2023-04-21T10:29:33.000Z</time>
      </trkpt>
      <trkpt lat="44.48147" lon="6.24241">
        <ele>1122</ele>
        <time>2023-04-21T10:29:34.000Z</time>
      </trkpt>
      <trkpt lat="44.48147" lon="6.24241">
        <ele>1122</ele>
        <time>2023-04-21T10:29:35.000Z</time>
      </trkpt>
      <trkpt lat="44.48147" lon="6.24241">
        <ele>1122</ele>
        <time>2023-04-21T10:29:36.000Z</time>
      </trkpt>
      <trkpt lat="44.48147" lon="6.24241">
        <ele>1122</ele>
        <time>2023-04-21T10:29:37.000Z</time>
      </trkpt>
      <trkpt lat="44.48147" lon="6.24241">
        <ele>1122</ele>
        <time>2023-04-21T10:29:38.000Z</time>
      </trkpt>
      <trkpt lat="44.48147" lon="6.24241">
        <ele>1122</ele>
        <time>2023-04-21T10:29:39.000Z</time>
      </trkpt>
      <trkpt lat="44.48147" lon="6.24241">
        <ele>1122</ele>
        <time>2023-04-21T10:29:40.000Z</time>
      </trkpt>
      <trkpt lat="44.48147" lon="6.24241">
        <ele>1122</ele>
        <time>2023-04-21T10:29:41.000Z</time>
      </trkpt>
      <trkpt lat="44.48147" lon="6.24241">
        <ele>1122</ele>
        <time>2023-04-21T10:29:42.000Z</time>
      </trkpt>
      <trkpt lat="44.48147" lon="6.24241">
        <ele>1121</ele>
        <time>2023-04-21T10:29:43.000Z</time>
      </trkpt>
      <trkpt lat="44.48147" lon="6.24241">
        <ele>1121</ele>
        <time>2023-04-21T10:29:44.000Z</time>
      </trkpt>
      <trkpt lat="44.48147" lon="6.24241">
        <ele>1121</ele>
        <time>2023-04-21T10:29:45.000Z</time>
      </trkpt>
      <trkpt lat="44.48147" lon="6.24241">
        <ele>1121</ele>
        <time>2023-04-21T10:29:46.000Z</time>
      </trkpt>
      <trkpt lat="44.48147" lon="6.24241">
        <ele>1121</ele>
        <time>2023-04-21T10:29:47.000Z</time>
      </trkpt>
      <trkpt lat="44.48147" lon="6.24241">
        <ele>1121</ele>
        <time>2023-04-21T10:29:48.000Z</time>
      </trkpt>
      <trkpt lat="44.48147" lon="6.24241">
        <ele>1121</ele>
        <time>2023-04-21T10:29:49.000Z</time>
      </trkpt>
      <trkpt lat="44.48147" lon="6.24241">
        <ele>1121</ele>
        <time>2023-04-21T10:29:50.000Z</time>
      </trkpt>
      <trkpt lat="44.48147" lon="6.24241">
        <ele>1120</ele>
        <time>2023-04-21T10:29:51.000Z</time>
      </trkpt>
      <trkpt lat="44.48147" lon="6.24241">
        <ele>1120</ele>
        <time>2023-04-21T10:29:52.000Z</time>
      </trkpt>
      <trkpt lat="44.48147" lon="6.24241">
        <ele>1120</ele>
        <time>2023-04-21T10:29:53.000Z</time>
      </trkpt>
      <trkpt lat="44.48147" lon="6.24241">
        <ele>1120</ele>
        <time>2023-04-21T10:29:54.000Z</time>
      </trkpt>
      <trkpt lat="44.48147" lon="6.24241">
        <ele>1120</ele>
        <time>2023-04-21T10:29:55.000Z</time>
      </trkpt>
      <trkpt lat="44.48147" lon="6.24241">
        <ele>1120</ele>
        <time>2023-04-21T10:29:56.000Z</time>
      </trkpt>
      <trkpt lat="44.48147" lon="6.24241">
        <ele>1119</ele>
        <time>2023-04-21T10:29:57.000Z</time>
      </trkpt>
      <trkpt lat="44.48147" lon="6.24241">
        <ele>1119</ele>
        <time>2023-04-21T10:29:58.000Z</time>
      </trkpt>
      <trkpt lat="44.48147" lon="6.24241">
        <ele>1119</ele>
        <time>2023-04-21T10:29:59.000Z</time>
      </trkpt>
      <trkpt lat="44.48148" lon="6.24241">
        <ele>1119</ele>
        <time>2023-04-21T10:30:00.000Z</time>
      </trkpt>
      <trkpt lat="44.48148" lon="6.24241">
        <ele>1119</ele>
        <time>2023-04-21T10:30:01.000Z</time>
      </trkpt>
      <trkpt lat="44.48148" lon="6.24241">
        <ele>1119</ele>
        <time>2023-04-21T10:30:02.000Z</time>
      </trkpt>
      <trkpt lat="44.48148" lon="6.24241">
        <ele>1119</ele>
        <time>2023-04-21T10:30:03.000Z</time>
      </trkpt>
      <trkpt lat="44.48148" lon="6.24241">
        <ele>1119</ele>
        <time>2023-04-21T10:30:04.000Z</time>
      </trkpt>
      <trkpt lat="44.48148" lon="6.24241">
        <ele>1118</ele>
        <time>2023-04-21T10:30:05.000Z</time>
      </trkpt>
      <trkpt lat="44.48148" lon="6.24241">
        <ele>1118</ele>
        <time>2023-04-21T10:30:06.000Z</time>
      </trkpt>
      <trkpt lat="44.48148" lon="6.24241">
        <ele>1118</ele>
        <time>2023-04-21T10:30:07.000Z</time>
      </trkpt>
      <trkpt lat="44.48148" lon="6.24241">
        <ele>1118</ele>
        <time>2023-04-21T10:30:08.000Z</time>
      </trkpt>
      <trkpt lat="44.48148" lon="6.24241">
        <ele>1118</ele>
        <time>2023-04-21T10:30:09.000Z</time>
      </trkpt>
      <trkpt lat="44.48148" lon="6.24241">
        <ele>1118</ele>
        <time>2023-04-21T10:30:10.000Z</time>
      </trkpt>
      <trkpt lat="44.48148" lon="6.24241">
        <ele>1118</ele>
        <time>2023-04-21T10:30:11.000Z</time>
      </trkpt>
      <trkpt lat="44.48148" lon="6.24241">
        <ele>1118</ele>
        <time>2023-04-21T10:30:12.000Z</time>
      </trkpt>
      <trkpt lat="44.48148" lon="6.24241">
        <ele>1118</ele>
        <time>2023-04-21T10:30:13.000Z</time>
      </trkpt>
      <trkpt lat="44.48148" lon="6.2424">
        <ele>1118</ele>
        <time>2023-04-21T10:30:14.000Z</time>
      </trkpt>
      <trkpt lat="44.48148" lon="6.2424">
        <ele>1118</ele>
        <time>2023-04-21T10:30:15.000Z</time>
      </trkpt>
      <trkpt lat="44.48148" lon="6.2424">
        <ele>1118</ele>
        <time>2023-04-21T10:30:16.000Z</time>
      </trkpt>
      <trkpt lat="44.48148" lon="6.2424">
        <ele>1118</ele>
        <time>2023-04-21T10:30:17.000Z</time>
      </trkpt>
      <trkpt lat="44.48148" lon="6.2424">
        <ele>1118</ele>
        <time>2023-04-21T10:30:18.000Z</time>
      </trkpt>
      <trkpt lat="44.48148" lon="6.2424">
        <ele>1118</ele>
        <time>2023-04-21T10:30:19.000Z</time>
      </trkpt>
      <trkpt lat="44.48148" lon="6.2424">
        <ele>1117</ele>
        <time>2023-04-21T10:30:20.000Z</time>
      </trkpt>
      <trkpt lat="44.48148" lon="6.2424">
        <ele>1117</ele>
        <time>2023-04-21T10:30:21.000Z</time>
      </trkpt>
      <trkpt lat="44.48148" lon="6.2424">
        <ele>1117</ele>
        <time>2023-04-21T10:30:22.000Z</time>
      </trkpt>
      <trkpt lat="44.48148" lon="6.2424">
        <ele>1118</ele>
        <time>2023-04-21T10:30:23.000Z</time>
      </trkpt>
      <trkpt lat="44.48148" lon="6.2424">
        <ele>1118</ele>
        <time>2023-04-21T10:30:24.000Z</time>
      </trkpt>
      <trkpt lat="44.48148" lon="6.2424">
        <ele>1118</ele>
        <time>2023-04-21T10:30:25.000Z</time>
      </trkpt>
      <trkpt lat="44.48148" lon="6.2424">
        <ele>1118</ele>
        <time>2023-04-21T10:30:26.000Z</time>
      </trkpt>
      <trkpt lat="44.48148" lon="6.2424">
        <ele>1118</ele>
        <time>2023-04-21T10:30:27.000Z</time>
      </trkpt>
      <trkpt lat="44.48148" lon="6.2424">
        <ele>1118</ele>
        <time>2023-04-21T10:30:28.000Z</time>
      </trkpt>
      <trkpt lat="44.48148" lon="6.2424">
        <ele>1118</ele>
        <time>2023-04-21T10:30:29.000Z</time>
      </trkpt>
      <trkpt lat="44.48148" lon="6.2424">
        <ele>1118</ele>
        <time>2023-04-21T10:30:30.000Z</time>
      </trkpt>
      <trkpt lat="44.48147" lon="6.2424">
        <ele>1118</ele>
        <time>2023-04-21T10:30:31.000Z</time>
      </trkpt>
      <trkpt lat="44.48147" lon="6.2424">
        <ele>1118</ele>
        <time>2023-04-21T10:30:32.000Z</time>
      </trkpt>
      <trkpt lat="44.48147" lon="6.2424">
        <ele>1118</ele>
        <time>2023-04-21T10:30:33.000Z</time>
      </trkpt>
      <trkpt lat="44.48147" lon="6.2424">
        <ele>1118</ele>
        <time>2023-04-21T10:30:34.000Z</time>
      </trkpt>
      <trkpt lat="44.48147" lon="6.2424">
        <ele>1118</ele>
        <time>2023-04-21T10:30:35.000Z</time>
      </trkpt>
      <trkpt lat="44.48147" lon="6.2424">
        <ele>1118</ele>
        <time>2023-04-21T10:30:36.000Z</time>
      </trkpt>
      <trkpt lat="44.48147" lon="6.2424">
        <ele>1118</ele>
        <time>2023-04-21T10:30:37.000Z</time>
      </trkpt>
      <trkpt lat="44.48147" lon="6.2424">
        <ele>1118</ele>
        <time>2023-04-21T10:30:38.000Z</time>
      </trkpt>
      <trkpt lat="44.48147" lon="6.2424">
        <ele>1118</ele>
        <time>2023-04-21T10:30:39.000Z</time>
      </trkpt>
      <trkpt lat="44.48147" lon="6.2424">
        <ele>1118</ele>
        <time>2023-04-21T10:30:40.000Z</time>
      </trkpt>
      <trkpt lat="44.48147" lon="6.24239">
        <ele>1118</ele>
        <time>2023-04-21T10:30:41.000Z</time>
      </trkpt>
      <trkpt lat="44.48147" lon="6.24239">
        <ele>1118</ele>
        <time>2023-04-21T10:30:42.000Z</time>
      </trkpt>
      <trkpt lat="44.48147" lon="6.24239">
        <ele>1118</ele>
        <time>2023-04-21T10:30:43.000Z</time>
      </trkpt>
      <trkpt lat="44.48147" lon="6.24239">
        <ele>1118</ele>
        <time>2023-04-21T10:30:44.000Z</time>
      </trkpt>
      <trkpt lat="44.48147" lon="6.24239">
        <ele>1118</ele>
        <time>2023-04-21T10:30:45.000Z</time>
      </trkpt>
      <trkpt lat="44.48147" lon="6.24239">
        <ele>1118</ele>
        <time>2023-04-21T10:30:46.000Z</time>
      </trkpt>
      <trkpt lat="44.48147" lon="6.24239">
        <ele>1118</ele>
        <time>2023-04-21T10:30:47.000Z</time>
      </trkpt>
      <trkpt lat="44.48146" lon="6.24239">
        <ele>1118</ele>
        <time>2023-04-21T10:30:48.000Z</time>
      </trkpt>
      <trkpt lat="44.48146" lon="6.24239">
        <ele>1118</ele>
        <time>2023-04-21T10:30:49.000Z</time>
      </trkpt>
      <trkpt lat="44.48146" lon="6.24239">
        <ele>1118</ele>
        <time>2023-04-21T10:30:50.000Z</time>
      </trkpt>
      <trkpt lat="44.48146" lon="6.24239">
        <ele>1118</ele>
        <time>2023-04-21T10:30:51.000Z</time>
      </trkpt>
      <trkpt lat="44.48146" lon="6.24239">
        <ele>1118</ele>
        <time>2023-04-21T10:30:52.000Z</time>
      </trkpt>
      <trkpt lat="44.48146" lon="6.24239">
        <ele>1118</ele>
        <time>2023-04-21T10:30:53.000Z</time>
      </trkpt>
      <trkpt lat="44.48146" lon="6.24239">
        <ele>1118</ele>
        <time>2023-04-21T10:30:54.000Z</time>
      </trkpt>
      <trkpt lat="44.48146" lon="6.24239">
        <ele>1118</ele>
        <time>2023-04-21T10:30:55.000Z</time>
      </trkpt>
      <trkpt lat="44.48146" lon="6.2424">
        <ele>1118</ele>
        <time>2023-04-21T10:30:56.000Z</time>
      </trkpt>
      <trkpt lat="44.48146" lon="6.2424">
        <ele>1118</ele>
        <time>2023-04-21T10:30:57.000Z</time>
      </trkpt>
      <trkpt lat="44.48146" lon="6.2424">
        <ele>1118</ele>
        <time>2023-04-21T10:30:58.000Z</time>
      </trkpt>
      <trkpt lat="44.48146" lon="6.2424">
        <ele>1118</ele>
        <time>2023-04-21T10:30:59.000Z</time>
      </trkpt>
      <trkpt lat="44.48146" lon="6.2424">
        <ele>1118</ele>
        <time>2023-04-21T10:31:00.000Z</time>
      </trkpt>
      <trkpt lat="44.48146" lon="6.2424">
        <ele>1118</ele>
        <time>2023-04-21T10:31:01.000Z</time>
      </trkpt>
      <trkpt lat="44.48146" lon="6.2424">
        <ele>1118</ele>
        <time>2023-04-21T10:31:02.000Z</time>
      </trkpt>
      <trkpt lat="44.48146" lon="6.2424">
        <ele>1118</ele>
        <time>2023-04-21T10:31:03.000Z</time>
      </trkpt>
      <trkpt lat="44.48146" lon="6.2424">
        <ele>1118</ele>
        <time>2023-04-21T10:31:04.000Z</time>
      </trkpt>
      <trkpt lat="44.48146" lon="6.2424">
        <ele>1119</ele>
        <time>2023-04-21T10:31:05.000Z</time>
      </trkpt>
      <trkpt lat="44.48146" lon="6.2424">
        <ele>1119</ele>
        <time>2023-04-21T10:31:06.000Z</time>
      </trkpt>
      <trkpt lat="44.48145" lon="6.2424">
        <ele>1119</ele>
        <time>2023-04-21T10:31:07.000Z</time>
      </trkpt>
      <trkpt lat="44.48145" lon="6.2424">
        <ele>1119</ele>
        <time>2023-04-21T10:31:08.000Z</time>
      </trkpt>
      <trkpt lat="44.48145" lon="6.2424">
        <ele>1119</ele>
        <time>2023-04-21T10:31:09.000Z</time>
      </trkpt>
      <trkpt lat="44.48145" lon="6.24241">
        <ele>1119</ele>
        <time>2023-04-21T10:31:10.000Z</time>
      </trkpt>
      <trkpt lat="44.48145" lon="6.24241">
        <ele>1119</ele>
        <time>2023-04-21T10:31:11.000Z</time>
      </trkpt>
      <trkpt lat="44.48145" lon="6.24241">
        <ele>1119</ele>
        <time>2023-04-21T10:31:12.000Z</time>
      </trkpt>
      <trkpt lat="44.48145" lon="6.24241">
        <ele>1119</ele>
        <time>2023-04-21T10:31:13.000Z</time>
      </trkpt>
      <trkpt lat="44.48145" lon="6.24241">
        <ele>1119</ele>
        <time>2023-04-21T10:31:14.000Z</time>
      </trkpt>
      <trkpt lat="44.48145" lon="6.24241">
        <ele>1119</ele>
        <time>2023-04-21T10:31:15.000Z</time>
      </trkpt>
      <trkpt lat="44.48145" lon="6.24241">
        <ele>1119</ele>
        <time>2023-04-21T10:31:16.000Z</time>
      </trkpt>
      <trkpt lat="44.48145" lon="6.24241">
        <ele>1119</ele>
        <time>2023-04-21T10:31:17.000Z</time>
      </trkpt>
      <trkpt lat="44.48145" lon="6.24241">
        <ele>1119</ele>
        <time>2023-04-21T10:31:18.000Z</time>
      </trkpt>
      <trkpt lat="44.48145" lon="6.24241">
        <ele>1119</ele>
        <time>2023-04-21T10:31:19.000Z</time>
      </trkpt>
      <trkpt lat="44.48145" lon="6.24241">
        <ele>1119</ele>
        <time>2023-04-21T10:31:20.000Z</time>
      </trkpt>
      <trkpt lat="44.48146" lon="6.24241">
        <ele>1119</ele>
        <time>2023-04-21T10:31:21.000Z</time>
      </trkpt>
      <trkpt lat="44.48146" lon="6.24241">
        <ele>1119</ele>
        <time>2023-04-21T10:31:22.000Z</time>
      </trkpt>
      <trkpt lat="44.48146" lon="6.24241">
        <ele>1119</ele>
        <time>2023-04-21T10:31:23.000Z</time>
      </trkpt>
      <trkpt lat="44.48146" lon="6.24241">
        <ele>1119</ele>
        <time>2023-04-21T10:31:24.000Z</time>
      </trkpt>
      <trkpt lat="44.48146" lon="6.24241">
        <ele>1119</ele>
        <time>2023-04-21T10:31:25.000Z</time>
      </trkpt>
      <trkpt lat="44.48146" lon="6.24241">
        <ele>1120</ele>
        <time>2023-04-21T10:31:26.000Z</time>
      </trkpt>
      <trkpt lat="44.48146" lon="6.24241">
        <ele>1120</ele>
        <time>2023-04-21T10:31:27.000Z</time>
      </trkpt>
      <trkpt lat="44.48146" lon="6.24241">
        <ele>1120</ele>
        <time>2023-04-21T10:31:28.000Z</time>
      </trkpt>
      <trkpt lat="44.48146" lon="6.24241">
        <ele>1120</ele>
        <time>2023-04-21T10:31:29.000Z</time>
      </trkpt>
      <trkpt lat="44.48146" lon="6.24241">
        <ele>1120</ele>
        <time>2023-04-21T10:31:30.000Z</time>
      </trkpt>
      <trkpt lat="44.48146" lon="6.24241">
        <ele>1120</ele>
        <time>2023-04-21T10:31:31.000Z</time>
      </trkpt>
      <trkpt lat="44.48146" lon="6.24241">
        <ele>1120</ele>
        <time>2023-04-21T10:31:32.000Z</time>
      </trkpt>
      <trkpt lat="44.48146" lon="6.24241">
        <ele>1120</ele>
        <time>2023-04-21T10:31:33.000Z</time>
      </trkpt>
      <trkpt lat="44.48146" lon="6.24241">
        <ele>1120</ele>
        <time>2023-04-21T10:31:34.000Z</time>
      </trkpt>
      <trkpt lat="44.48146" lon="6.24241">
        <ele>1120</ele>
        <time>2023-04-21T10:31:35.000Z</time>
      </trkpt>
      <trkpt lat="44.48146" lon="6.24241">
        <ele>1120</ele>
        <time>2023-04-21T10:31:36.000Z</time>
      </trkpt>
      <trkpt lat="44.48146" lon="6.24241">
        <ele>1120</ele>
        <time>2023-04-21T10:31:37.000Z</time>
      </trkpt>
      <trkpt lat="44.48146" lon="6.24241">
        <ele>1120</ele>
        <time>2023-04-21T10:31:38.000Z</time>
      </trkpt>
      <trkpt lat="44.48146" lon="6.24241">
        <ele>1120</ele>
        <time>2023-04-21T10:31:39.000Z</time>
      </trkpt>
      <trkpt lat="44.48146" lon="6.24241">
        <ele>1120</ele>
        <time>2023-04-21T10:31:40.000Z</time>
      </trkpt>
      <trkpt lat="44.48146" lon="6.24241">
        <ele>1120</ele>
        <time>2023-04-21T10:31:41.000Z</time>
      </trkpt>
      <trkpt lat="44.48146" lon="6.24241">
        <ele>1120</ele>
        <time>2023-04-21T10:31:42.000Z</time>
      </trkpt>
      <trkpt lat="44.48146" lon="6.24241">
        <ele>1120</ele>
        <time>2023-04-21T10:31:43.000Z</time>
      </trkpt>
      <trkpt lat="44.48146" lon="6.24241">
        <ele>1120</ele>
        <time>2023-04-21T10:31:44.000Z</time>
      </trkpt>
      <trkpt lat="44.48146" lon="6.24241">
        <ele>1120</ele>
        <time>2023-04-21T10:31:45.000Z</time>
      </trkpt>
      <trkpt lat="44.48146" lon="6.24241">
        <ele>1120</ele>
        <time>2023-04-21T10:31:46.000Z</time>
      </trkpt>
      <trkpt lat="44.48146" lon="6.24241">
        <ele>1120</ele>
        <time>2023-04-21T10:31:47.000Z</time>
      </trkpt>
      <trkpt lat="44.48146" lon="6.24241">
        <ele>1120</ele>
        <time>2023-04-21T10:31:48.000Z</time>
      </trkpt>
      <trkpt lat="44.48146" lon="6.24242">
        <ele>1120</ele>
        <time>2023-04-21T10:31:49.000Z</time>
      </trkpt>
      <trkpt lat="44.48146" lon="6.24242">
        <ele>1120</ele>
        <time>2023-04-21T10:31:50.000Z</time>
      </trkpt>
      <trkpt lat="44.48146" lon="6.24242">
        <ele>1120</ele>
        <time>2023-04-21T10:31:51.000Z</time>
      </trkpt>
      <trkpt lat="44.48146" lon="6.24242">
        <ele>1120</ele>
        <time>2023-04-21T10:31:52.000Z</time>
      </trkpt>
      <trkpt lat="44.48146" lon="6.24242">
        <ele>1120</ele>
        <time>2023-04-21T10:31:53.000Z</time>
      </trkpt>
      <trkpt lat="44.48146" lon="6.24242">
        <ele>1120</ele>
        <time>2023-04-21T10:31:54.000Z</time>
      </trkpt>
      <trkpt lat="44.48146" lon="6.24242">
        <ele>1120</ele>
        <time>2023-04-21T10:31:55.000Z</time>
      </trkpt>
      <trkpt lat="44.48146" lon="6.24242">
        <ele>1120</ele>
        <time>2023-04-21T10:31:56.000Z</time>
      </trkpt>
      <trkpt lat="44.48146" lon="6.24242">
        <ele>1120</ele>
        <time>2023-04-21T10:31:57.000Z</time>
      </trkpt>
      <trkpt lat="44.48146" lon="6.24242">
        <ele>1120</ele>
        <time>2023-04-21T10:31:58.000Z</time>
      </trkpt>
      <trkpt lat="44.48146" lon="6.24242">
        <ele>1120</ele>
        <time>2023-04-21T10:31:59.000Z</time>
      </trkpt>
      <trkpt lat="44.48146" lon="6.24242">
        <ele>1120</ele>
        <time>2023-04-21T10:32:00.000Z</time>
      </trkpt>
      <trkpt lat="44.48146" lon="6.24242">
        <ele>1120</ele>
        <time>2023-04-21T10:32:01.000Z</time>
      </trkpt>
      <trkpt lat="44.48145" lon="6.24242">
        <ele>1120</ele>
        <time>2023-04-21T10:32:02.000Z</time>
      </trkpt>
      <trkpt lat="44.48145" lon="6.24242">
        <ele>1120</ele>
        <time>2023-04-21T10:32:03.000Z</time>
      </trkpt>
      <trkpt lat="44.48145" lon="6.24242">
        <ele>1120</ele>
        <time>2023-04-21T10:32:04.000Z</time>
      </trkpt>
      <trkpt lat="44.48145" lon="6.24242">
        <ele>1120</ele>
        <time>2023-04-21T10:32:05.000Z</time>
      </trkpt>
      <trkpt lat="44.48145" lon="6.24242">
        <ele>1120</ele>
        <time>2023-04-21T10:32:06.000Z</time>
      </trkpt>
      <trkpt lat="44.48145" lon="6.24242">
        <ele>1120</ele>
        <time>2023-04-21T10:32:07.000Z</time>
      </trkpt>
      <trkpt lat="44.48145" lon="6.24242">
        <ele>1120</ele>
        <time>2023-04-21T10:32:08.000Z</time>
      </trkpt>
      <trkpt lat="44.48145" lon="6.24242">
        <ele>1120</ele>
        <time>2023-04-21T10:32:09.000Z</time>
      </trkpt>
      <trkpt lat="44.48145" lon="6.24242">
        <ele>1120</ele>
        <time>2023-04-21T10:32:10.000Z</time>
      </trkpt>
      <trkpt lat="44.48145" lon="6.24242">
        <ele>1120</ele>
        <time>2023-04-21T10:32:11.000Z</time>
      </trkpt>
      <trkpt lat="44.48145" lon="6.24242">
        <ele>1120</ele>
        <time>2023-04-21T10:32:12.000Z</time>
      </trkpt>
      <trkpt lat="44.48145" lon="6.24242">
        <ele>1120</ele>
        <time>2023-04-21T10:32:13.000Z</time>
      </trkpt>
      <trkpt lat="44.48145" lon="6.24242">
        <ele>1120</ele>
        <time>2023-04-21T10:32:14.000Z</time>
      </trkpt>
      <trkpt lat="44.48145" lon="6.24242">
        <ele>1120</ele>
        <time>2023-04-21T10:32:15.000Z</time>
      </trkpt>
      <trkpt lat="44.48145" lon="6.24242">
        <ele>1120</ele>
        <time>2023-04-21T10:32:16.000Z</time>
      </trkpt>
      <trkpt lat="44.48145" lon="6.24242">
        <ele>1120</ele>
        <time>2023-04-21T10:32:17.000Z</time>
      </trkpt>
      <trkpt lat="44.48145" lon="6.24242">
        <ele>1120</ele>
        <time>2023-04-21T10:32:18.000Z</time>
      </trkpt>
      <trkpt lat="44.48145" lon="6.24242">
        <ele>1121</ele>
        <time>2023-04-21T10:32:19.000Z</time>
      </trkpt>
      <trkpt lat="44.48145" lon="6.24242">
        <ele>1121</ele>
        <time>2023-04-21T10:32:20.000Z</time>
      </trkpt>
      <trkpt lat="44.48145" lon="6.24241">
        <ele>1121</ele>
        <time>2023-04-21T10:32:21.000Z</time>
      </trkpt>
      <trkpt lat="44.48145" lon="6.24241">
        <ele>1121</ele>
        <time>2023-04-21T10:32:22.000Z</time>
      </trkpt>
      <trkpt lat="44.48145" lon="6.24241">
        <ele>1121</ele>
        <time>2023-04-21T10:32:23.000Z</time>
      </trkpt>
      <trkpt lat="44.48145" lon="6.24241">
        <ele>1121</ele>
        <time>2023-04-21T10:32:24.000Z</time>
      </trkpt>
      <trkpt lat="44.48145" lon="6.24241">
        <ele>1121</ele>
        <time>2023-04-21T10:32:25.000Z</time>
      </trkpt>
      <trkpt lat="44.48145" lon="6.24241">
        <ele>1121</ele>
        <time>2023-04-21T10:32:26.000Z</time>
      </trkpt>
      <trkpt lat="44.48144" lon="6.24241">
        <ele>1121</ele>
        <time>2023-04-21T10:32:27.000Z</time>
      </trkpt>
      <trkpt lat="44.48144" lon="6.24241">
        <ele>1121</ele>
        <time>2023-04-21T10:32:28.000Z</time>
      </trkpt>
      <trkpt lat="44.48144" lon="6.24241">
        <ele>1121</ele>
        <time>2023-04-21T10:32:29.000Z</time>
      </trkpt>
      <trkpt lat="44.48144" lon="6.24241">
        <ele>1121</ele>
        <time>2023-04-21T10:32:30.000Z</time>
      </trkpt>
      <trkpt lat="44.48144" lon="6.24241">
        <ele>1121</ele>
        <time>2023-04-21T10:32:31.000Z</time>
      </trkpt>
      <trkpt lat="44.48144" lon="6.24241">
        <ele>1121</ele>
        <time>2023-04-21T10:32:32.000Z</time>
      </trkpt>
      <trkpt lat="44.48144" lon="6.24241">
        <ele>1121</ele>
        <time>2023-04-21T10:32:33.000Z</time>
      </trkpt>
      <trkpt lat="44.48144" lon="6.24241">
        <ele>1121</ele>
        <time>2023-04-21T10:32:34.000Z</time>
      </trkpt>
      <trkpt lat="44.48144" lon="6.24241">
        <ele>1121</ele>
        <time>2023-04-21T10:32:35.000Z</time>
      </trkpt>
      <trkpt lat="44.48144" lon="6.24241">
        <ele>1121</ele>
        <time>2023-04-21T10:32:36.000Z</time>
      </trkpt>
      <trkpt lat="44.48144" lon="6.24241">
        <ele>1121</ele>
        <time>2023-04-21T10:32:37.000Z</time>
      </trkpt>
      <trkpt lat="44.48144" lon="6.24241">
        <ele>1121</ele>
        <time>2023-04-21T10:32:38.000Z</time>
      </trkpt>
      <trkpt lat="44.48144" lon="6.24241">
        <ele>1121</ele>
        <time>2023-04-21T10:32:39.000Z</time>
      </trkpt>
      <trkpt lat="44.48144" lon="6.24241">
        <ele>1121</ele>
        <time>2023-04-21T10:32:40.000Z</time>
      </trkpt>
      <trkpt lat="44.48144" lon="6.24241">
        <ele>1121</ele>
        <time>2023-04-21T10:32:41.000Z</time>
      </trkpt>
      <trkpt lat="44.48144" lon="6.24241">
        <ele>1121</ele>
        <time>2023-04-21T10:32:42.000Z</time>
      </trkpt>
      <trkpt lat="44.48144" lon="6.24241">
        <ele>1121</ele>
        <time>2023-04-21T10:32:43.000Z</time>
      </trkpt>
      <trkpt lat="44.48144" lon="6.24241">
        <ele>1121</ele>
        <time>2023-04-21T10:32:44.000Z</time>
      </trkpt>
      <trkpt lat="44.48144" lon="6.24241">
        <ele>1121</ele>
        <time>2023-04-21T10:32:45.000Z</time>
      </trkpt>
      <trkpt lat="44.48144" lon="6.24241">
        <ele>1121</ele>
        <time>2023-04-21T10:32:46.000Z</time>
      </trkpt>
      <trkpt lat="44.48144" lon="6.24241">
        <ele>1121</ele>
        <time>2023-04-21T10:32:47.000Z</time>
      </trkpt>
      <trkpt lat="44.48144" lon="6.24241">
        <ele>1121</ele>
        <time>2023-04-21T10:32:48.000Z</time>
      </trkpt>
      <trkpt lat="44.48144" lon="6.24241">
        <ele>1121</ele>
        <time>2023-04-21T10:32:49.000Z</time>
      </trkpt>
      <trkpt lat="44.48144" lon="6.24241">
        <ele>1121</ele>
        <time>2023-04-21T10:32:50.000Z</time>
      </trkpt>
      <trkpt lat="44.48144" lon="6.24241">
        <ele>1121</ele>
        <time>2023-04-21T10:32:51.000Z</time>
      </trkpt>
      <trkpt lat="44.48145" lon="6.24242">
        <ele>1121</ele>
        <time>2023-04-21T10:32:52.000Z</time>
      </trkpt>
      <trkpt lat="44.48145" lon="6.24242">
        <ele>1121</ele>
        <time>2023-04-21T10:32:53.000Z</time>
      </trkpt>
      <trkpt lat="44.48145" lon="6.24242">
        <ele>1121</ele>
        <time>2023-04-21T10:32:54.000Z</time>
      </trkpt>
      <trkpt lat="44.48144" lon="6.24242">
        <ele>1122</ele>
        <time>2023-04-21T10:32:55.000Z</time>
      </trkpt>
      <trkpt lat="44.48144" lon="6.24242">
        <ele>1122</ele>
        <time>2023-04-21T10:32:56.000Z</time>
      </trkpt>
      <trkpt lat="44.48144" lon="6.24242">
        <ele>1122</ele>
        <time>2023-04-21T10:32:57.000Z</time>
      </trkpt>
      <trkpt lat="44.48144" lon="6.24242">
        <ele>1122</ele>
        <time>2023-04-21T10:32:58.000Z</time>
      </trkpt>
      <trkpt lat="44.48144" lon="6.24241">
        <ele>1122</ele>
        <time>2023-04-21T10:32:59.000Z</time>
      </trkpt>
      <trkpt lat="44.48143" lon="6.24241">
        <ele>1122</ele>
        <time>2023-04-21T10:33:00.000Z</time>
      </trkpt>
      <trkpt lat="44.48143" lon="6.2424">
        <ele>1123</ele>
        <time>2023-04-21T10:33:01.000Z</time>
      </trkpt>
      <trkpt lat="44.48142" lon="6.24238">
        <ele>1123</ele>
        <time>2023-04-21T10:33:02.000Z</time>
      </trkpt>
      <trkpt lat="44.48142" lon="6.24237">
        <ele>1123</ele>
        <time>2023-04-21T10:33:03.000Z</time>
      </trkpt>
      <trkpt lat="44.48142" lon="6.24235">
        <ele>1123</ele>
        <time>2023-04-21T10:33:04.000Z</time>
      </trkpt>
      <trkpt lat="44.48141" lon="6.24233">
        <ele>1123</ele>
        <time>2023-04-21T10:33:05.000Z</time>
      </trkpt>
      <trkpt lat="44.48141" lon="6.24231">
        <ele>1123</ele>
        <time>2023-04-21T10:33:06.000Z</time>
      </trkpt>
      <trkpt lat="44.48141" lon="6.24229">
        <ele>1123</ele>
        <time>2023-04-21T10:33:07.000Z</time>
      </trkpt>
      <trkpt lat="44.4814" lon="6.24228">
        <ele>1124</ele>
        <time>2023-04-21T10:33:08.000Z</time>
      </trkpt>
      <trkpt lat="44.48141" lon="6.24226">
        <ele>1124</ele>
        <time>2023-04-21T10:33:09.000Z</time>
      </trkpt>
      <trkpt lat="44.48141" lon="6.24224">
        <ele>1124</ele>
        <time>2023-04-21T10:33:10.000Z</time>
      </trkpt>
      <trkpt lat="44.48142" lon="6.24222">
        <ele>1124</ele>
        <time>2023-04-21T10:33:11.000Z</time>
      </trkpt>
      <trkpt lat="44.48142" lon="6.24221">
        <ele>1124</ele>
        <time>2023-04-21T10:33:12.000Z</time>
      </trkpt>
      <trkpt lat="44.48142" lon="6.24219">
        <ele>1124</ele>
        <time>2023-04-21T10:33:13.000Z</time>
      </trkpt>
      <trkpt lat="44.48143" lon="6.24218">
        <ele>1124</ele>
        <time>2023-04-21T10:33:14.000Z</time>
      </trkpt>
      <trkpt lat="44.48143" lon="6.24216">
        <ele>1124</ele>
        <time>2023-04-21T10:33:15.000Z</time>
      </trkpt>
      <trkpt lat="44.48142" lon="6.24214">
        <ele>1125</ele>
        <time>2023-04-21T10:33:16.000Z</time>
      </trkpt>
      <trkpt lat="44.48142" lon="6.24213">
        <ele>1125</ele>
        <time>2023-04-21T10:33:17.000Z</time>
      </trkpt>
      <trkpt lat="44.48143" lon="6.24211">
        <ele>1125</ele>
        <time>2023-04-21T10:33:18.000Z</time>
      </trkpt>
      <trkpt lat="44.48143" lon="6.2421">
        <ele>1124</ele>
        <time>2023-04-21T10:33:19.000Z</time>
      </trkpt>
      <trkpt lat="44.48144" lon="6.24209">
        <ele>1124</ele>
        <time>2023-04-21T10:33:20.000Z</time>
      </trkpt>
      <trkpt lat="44.48144" lon="6.24208">
        <ele>1124</ele>
        <time>2023-04-21T10:33:21.000Z</time>
      </trkpt>
      <trkpt lat="44.48144" lon="6.24206">
        <ele>1124</ele>
        <time>2023-04-21T10:33:22.000Z</time>
      </trkpt>
      <trkpt lat="44.48144" lon="6.24204">
        <ele>1124</ele>
        <time>2023-04-21T10:33:23.000Z</time>
      </trkpt>
      <trkpt lat="44.48144" lon="6.24203">
        <ele>1124</ele>
        <time>2023-04-21T10:33:24.000Z</time>
      </trkpt>
      <trkpt lat="44.48143" lon="6.242">
        <ele>1123</ele>
        <time>2023-04-21T10:33:25.000Z</time>
      </trkpt>
      <trkpt lat="44.48142" lon="6.24199">
        <ele>1123</ele>
        <time>2023-04-21T10:33:26.000Z</time>
      </trkpt>
      <trkpt lat="44.48141" lon="6.24197">
        <ele>1123</ele>
        <time>2023-04-21T10:33:27.000Z</time>
      </trkpt>
      <trkpt lat="44.4814" lon="6.24195">
        <ele>1123</ele>
        <time>2023-04-21T10:33:28.000Z</time>
      </trkpt>
      <trkpt lat="44.48139" lon="6.24192">
        <ele>1124</ele>
        <time>2023-04-21T10:33:29.000Z</time>
      </trkpt>
      <trkpt lat="44.48138" lon="6.24188">
        <ele>1124</ele>
        <time>2023-04-21T10:33:30.000Z</time>
      </trkpt>
      <trkpt lat="44.48137" lon="6.24185">
        <ele>1125</ele>
        <time>2023-04-21T10:33:31.000Z</time>
      </trkpt>
      <trkpt lat="44.48137" lon="6.24181">
        <ele>1125</ele>
        <time>2023-04-21T10:33:32.000Z</time>
      </trkpt>
      <trkpt lat="44.48136" lon="6.24175">
        <ele>1124</ele>
        <time>2023-04-21T10:33:33.000Z</time>
      </trkpt>
      <trkpt lat="44.48135" lon="6.2417">
        <ele>1124</ele>
        <time>2023-04-21T10:33:34.000Z</time>
      </trkpt>
      <trkpt lat="44.48135" lon="6.24164">
        <ele>1124</ele>
        <time>2023-04-21T10:33:35.000Z</time>
      </trkpt>
      <trkpt lat="44.48134" lon="6.24158">
        <ele>1124</ele>
        <time>2023-04-21T10:33:36.000Z</time>
      </trkpt>
      <trkpt lat="44.48134" lon="6.24152">
        <ele>1124</ele>
        <time>2023-04-21T10:33:37.000Z</time>
      </trkpt>
      <trkpt lat="44.48133" lon="6.24145">
        <ele>1124</ele>
        <time>2023-04-21T10:33:38.000Z</time>
      </trkpt>
      <trkpt lat="44.48132" lon="6.24138">
        <ele>1124</ele>
        <time>2023-04-21T10:33:39.000Z</time>
      </trkpt>
      <trkpt lat="44.48132" lon="6.24131">
        <ele>1123</ele>
        <time>2023-04-21T10:33:40.000Z</time>
      </trkpt>
      <trkpt lat="44.48131" lon="6.24123">
        <ele>1123</ele>
        <time>2023-04-21T10:33:41.000Z</time>
      </trkpt>
      <trkpt lat="44.4813" lon="6.24116">
        <ele>1123</ele>
        <time>2023-04-21T10:33:42.000Z</time>
      </trkpt>
      <trkpt lat="44.48129" lon="6.24108">
        <ele>1122</ele>
        <time>2023-04-21T10:33:43.000Z</time>
      </trkpt>
      <trkpt lat="44.48128" lon="6.24101">
        <ele>1121</ele>
        <time>2023-04-21T10:33:44.000Z</time>
      </trkpt>
      <trkpt lat="44.48126" lon="6.24094">
        <ele>1121</ele>
        <time>2023-04-21T10:33:45.000Z</time>
      </trkpt>
      <trkpt lat="44.48126" lon="6.24086">
        <ele>1121</ele>
        <time>2023-04-21T10:33:46.000Z</time>
      </trkpt>
      <trkpt lat="44.48125" lon="6.24078">
        <ele>1121</ele>
        <time>2023-04-21T10:33:47.000Z</time>
      </trkpt>
      <trkpt lat="44.48125" lon="6.24071">
        <ele>1121</ele>
        <time>2023-04-21T10:33:48.000Z</time>
      </trkpt>
      <trkpt lat="44.48124" lon="6.24063">
        <ele>1121</ele>
        <time>2023-04-21T10:33:49.000Z</time>
      </trkpt>
      <trkpt lat="44.48123" lon="6.24056">
        <ele>1121</ele>
        <time>2023-04-21T10:33:50.000Z</time>
      </trkpt>
      <trkpt lat="44.48122" lon="6.24049">
        <ele>1121</ele>
        <time>2023-04-21T10:33:51.000Z</time>
      </trkpt>
      <trkpt lat="44.48121" lon="6.24041">
        <ele>1121</ele>
        <time>2023-04-21T10:33:52.000Z</time>
      </trkpt>
      <trkpt lat="44.48119" lon="6.24034">
        <ele>1122</ele>
        <time>2023-04-21T10:33:53.000Z</time>
      </trkpt>
      <trkpt lat="44.48118" lon="6.24026">
        <ele>1121</ele>
        <time>2023-04-21T10:33:54.000Z</time>
      </trkpt>
      <trkpt lat="44.48116" lon="6.24018">
        <ele>1120</ele>
        <time>2023-04-21T10:33:55.000Z</time>
      </trkpt>
      <trkpt lat="44.48114" lon="6.2401">
        <ele>1118</ele>
        <time>2023-04-21T10:33:56.000Z</time>
      </trkpt>
      <trkpt lat="44.4811" lon="6.24003">
        <ele>1115</ele>
        <time>2023-04-21T10:33:57.000Z</time>
      </trkpt>
      <trkpt lat="44.48108" lon="6.23993">
        <ele>1112</ele>
        <time>2023-04-21T10:33:58.000Z</time>
      </trkpt>
      <trkpt lat="44.48105" lon="6.23984">
        <ele>1111</ele>
        <time>2023-04-21T10:33:59.000Z</time>
      </trkpt>
      <trkpt lat="44.48103" lon="6.23976">
        <ele>1111</ele>
        <time>2023-04-21T10:34:00.000Z</time>
      </trkpt>
      <trkpt lat="44.48101" lon="6.2397">
        <ele>1111</ele>
        <time>2023-04-21T10:34:01.000Z</time>
      </trkpt>
      <trkpt lat="44.481" lon="6.23967">
        <ele>1111</ele>
        <time>2023-04-21T10:34:02.000Z</time>
      </trkpt>
      <trkpt lat="44.48096" lon="6.23965">
        <ele>1114</ele>
        <time>2023-04-21T10:34:03.000Z</time>
      </trkpt>
      <trkpt lat="44.48095" lon="6.23964">
        <ele>1116</ele>
        <time>2023-04-21T10:34:04.000Z</time>
      </trkpt>
      <trkpt lat="44.48094" lon="6.23963">
        <ele>1115</ele>
        <time>2023-04-21T10:34:05.000Z</time>
      </trkpt>
      <trkpt lat="44.48092" lon="6.23961">
        <ele>1116</ele>
        <time>2023-04-21T10:34:06.000Z</time>
      </trkpt>
      <trkpt lat="44.48091" lon="6.23959">
        <ele>1116</ele>
        <time>2023-04-21T10:34:07.000Z</time>
      </trkpt>
      <trkpt lat="44.48089" lon="6.23957">
        <ele>1117</ele>
        <time>2023-04-21T10:34:08.000Z</time>
      </trkpt>
      <trkpt lat="44.48087" lon="6.23955">
        <ele>1117</ele>
        <time>2023-04-21T10:34:09.000Z</time>
      </trkpt>
      <trkpt lat="44.48085" lon="6.23953">
        <ele>1118</ele>
        <time>2023-04-21T10:34:10.000Z</time>
      </trkpt>
      <trkpt lat="44.48084" lon="6.23951">
        <ele>1118</ele>
        <time>2023-04-21T10:34:11.000Z</time>
      </trkpt>
      <trkpt lat="44.48082" lon="6.23949">
        <ele>1119</ele>
        <time>2023-04-21T10:34:12.000Z</time>
      </trkpt>
      <trkpt lat="44.4808" lon="6.23948">
        <ele>1120</ele>
        <time>2023-04-21T10:34:13.000Z</time>
      </trkpt>
      <trkpt lat="44.48079" lon="6.23946">
        <ele>1120</ele>
        <time>2023-04-21T10:34:14.000Z</time>
      </trkpt>
      <trkpt lat="44.48078" lon="6.23944">
        <ele>1121</ele>
        <time>2023-04-21T10:34:15.000Z</time>
      </trkpt>
      <trkpt lat="44.48076" lon="6.23942">
        <ele>1121</ele>
        <time>2023-04-21T10:34:16.000Z</time>
      </trkpt>
      <trkpt lat="44.48075" lon="6.2394">
        <ele>1122</ele>
        <time>2023-04-21T10:34:17.000Z</time>
      </trkpt>
      <trkpt lat="44.48073" lon="6.23938">
        <ele>1122</ele>
        <time>2023-04-21T10:34:18.000Z</time>
      </trkpt>
      <trkpt lat="44.48072" lon="6.23936">
        <ele>1122</ele>
        <time>2023-04-21T10:34:19.000Z</time>
      </trkpt>
      <trkpt lat="44.48071" lon="6.23933">
        <ele>1123</ele>
        <time>2023-04-21T10:34:20.000Z</time>
      </trkpt>
      <trkpt lat="44.4807" lon="6.23931">
        <ele>1123</ele>
        <time>2023-04-21T10:34:21.000Z</time>
      </trkpt>
      <trkpt lat="44.48069" lon="6.23929">
        <ele>1123</ele>
        <time>2023-04-21T10:34:22.000Z</time>
      </trkpt>
      <trkpt lat="44.48067" lon="6.23927">
        <ele>1124</ele>
        <time>2023-04-21T10:34:23.000Z</time>
      </trkpt>
      <trkpt lat="44.48066" lon="6.23924">
        <ele>1124</ele>
        <time>2023-04-21T10:34:24.000Z</time>
      </trkpt>
      <trkpt lat="44.48065" lon="6.23921">
        <ele>1124</ele>
        <time>2023-04-21T10:34:25.000Z</time>
      </trkpt>
      <trkpt lat="44.48064" lon="6.23918">
        <ele>1124</ele>
        <time>2023-04-21T10:34:26.000Z</time>
      </trkpt>
      <trkpt lat="44.48063" lon="6.23914">
        <ele>1123</ele>
        <time>2023-04-21T10:34:27.000Z</time>
      </trkpt>
      <trkpt lat="44.48062" lon="6.2391">
        <ele>1123</ele>
        <time>2023-04-21T10:34:28.000Z</time>
      </trkpt>
      <trkpt lat="44.48061" lon="6.23907">
        <ele>1123</ele>
        <time>2023-04-21T10:34:29.000Z</time>
      </trkpt>
      <trkpt lat="44.4806" lon="6.23904">
        <ele>1124</ele>
        <time>2023-04-21T10:34:30.000Z</time>
      </trkpt>
      <trkpt lat="44.4806" lon="6.23902">
        <ele>1124</ele>
        <time>2023-04-21T10:34:31.000Z</time>
      </trkpt>
      <trkpt lat="44.4806" lon="6.23899">
        <ele>1125</ele>
        <time>2023-04-21T10:34:32.000Z</time>
      </trkpt>
      <trkpt lat="44.48062" lon="6.23898">
        <ele>1126</ele>
        <time>2023-04-21T10:34:33.000Z</time>
      </trkpt>
      <trkpt lat="44.48063" lon="6.23897">
        <ele>1127</ele>
        <time>2023-04-21T10:34:34.000Z</time>
      </trkpt>
      <trkpt lat="44.48064" lon="6.23896">
        <ele>1127</ele>
        <time>2023-04-21T10:34:35.000Z</time>
      </trkpt>
      <trkpt lat="44.48066" lon="6.23896">
        <ele>1127</ele>
        <time>2023-04-21T10:34:36.000Z</time>
      </trkpt>
      <trkpt lat="44.48067" lon="6.23897">
        <ele>1128</ele>
        <time>2023-04-21T10:34:37.000Z</time>
      </trkpt>
      <trkpt lat="44.48069" lon="6.23898">
        <ele>1129</ele>
        <time>2023-04-21T10:34:38.000Z</time>
      </trkpt>
      <trkpt lat="44.48071" lon="6.23898">
        <ele>1129</ele>
        <time>2023-04-21T10:34:39.000Z</time>
      </trkpt>
      <trkpt lat="44.48072" lon="6.23899">
        <ele>1130</ele>
        <time>2023-04-21T10:34:40.000Z</time>
      </trkpt>
      <trkpt lat="44.48073" lon="6.239">
        <ele>1130</ele>
        <time>2023-04-21T10:34:41.000Z</time>
      </trkpt>
      <trkpt lat="44.48075" lon="6.23901">
        <ele>1130</ele>
        <time>2023-04-21T10:34:42.000Z</time>
      </trkpt>
      <trkpt lat="44.48076" lon="6.23902">
        <ele>1130</ele>
        <time>2023-04-21T10:34:43.000Z</time>
      </trkpt>
      <trkpt lat="44.48078" lon="6.23903">
        <ele>1129</ele>
        <time>2023-04-21T10:34:44.000Z</time>
      </trkpt>
      <trkpt lat="44.48079" lon="6.23904">
        <ele>1130</ele>
        <time>2023-04-21T10:34:45.000Z</time>
      </trkpt>
      <trkpt lat="44.48081" lon="6.23905">
        <ele>1130</ele>
        <time>2023-04-21T10:34:46.000Z</time>
      </trkpt>
      <trkpt lat="44.48082" lon="6.23905">
        <ele>1131</ele>
        <time>2023-04-21T10:34:47.000Z</time>
      </trkpt>
      <trkpt lat="44.48084" lon="6.23906">
        <ele>1131</ele>
        <time>2023-04-21T10:34:48.000Z</time>
      </trkpt>
      <trkpt lat="44.48086" lon="6.23907">
        <ele>1130</ele>
        <time>2023-04-21T10:34:49.000Z</time>
      </trkpt>
      <trkpt lat="44.48088" lon="6.23907">
        <ele>1130</ele>
        <time>2023-04-21T10:34:50.000Z</time>
      </trkpt>
      <trkpt lat="44.4809" lon="6.23908">
        <ele>1131</ele>
        <time>2023-04-21T10:34:51.000Z</time>
      </trkpt>
      <trkpt lat="44.48091" lon="6.23909">
        <ele>1130</ele>
        <time>2023-04-21T10:34:52.000Z</time>
      </trkpt>
      <trkpt lat="44.48093" lon="6.2391">
        <ele>1130</ele>
        <time>2023-04-21T10:34:53.000Z</time>
      </trkpt>
      <trkpt lat="44.48095" lon="6.2391">
        <ele>1131</ele>
        <time>2023-04-21T10:34:54.000Z</time>
      </trkpt>
      <trkpt lat="44.48096" lon="6.23911">
        <ele>1131</ele>
        <time>2023-04-21T10:34:55.000Z</time>
      </trkpt>
      <trkpt lat="44.48098" lon="6.23912">
        <ele>1132</ele>
        <time>2023-04-21T10:34:56.000Z</time>
      </trkpt>
      <trkpt lat="44.481" lon="6.23913">
        <ele>1132</ele>
        <time>2023-04-21T10:34:57.000Z</time>
      </trkpt>
      <trkpt lat="44.48101" lon="6.23915">
        <ele>1132</ele>
        <time>2023-04-21T10:34:58.000Z</time>
      </trkpt>
      <trkpt lat="44.48103" lon="6.23916">
        <ele>1133</ele>
        <time>2023-04-21T10:34:59.000Z</time>
      </trkpt>
      <trkpt lat="44.48104" lon="6.23917">
        <ele>1134</ele>
        <time>2023-04-21T10:35:00.000Z</time>
      </trkpt>
      <trkpt lat="44.48106" lon="6.23918">
        <ele>1134</ele>
        <time>2023-04-21T10:35:01.000Z</time>
      </trkpt>
      <trkpt lat="44.48108" lon="6.2392">
        <ele>1135</ele>
        <time>2023-04-21T10:35:02.000Z</time>
      </trkpt>
      <trkpt lat="44.48109" lon="6.23921">
        <ele>1136</ele>
        <time>2023-04-21T10:35:03.000Z</time>
      </trkpt>
      <trkpt lat="44.48111" lon="6.23922">
        <ele>1135</ele>
        <time>2023-04-21T10:35:04.000Z</time>
      </trkpt>
      <trkpt lat="44.48113" lon="6.23923">
        <ele>1135</ele>
        <time>2023-04-21T10:35:05.000Z</time>
      </trkpt>
      <trkpt lat="44.48115" lon="6.23925">
        <ele>1136</ele>
        <time>2023-04-21T10:35:06.000Z</time>
      </trkpt>
      <trkpt lat="44.48116" lon="6.23926">
        <ele>1136</ele>
        <time>2023-04-21T10:35:07.000Z</time>
      </trkpt>
      <trkpt lat="44.48118" lon="6.23928">
        <ele>1137</ele>
        <time>2023-04-21T10:35:08.000Z</time>
      </trkpt>
      <trkpt lat="44.48119" lon="6.2393">
        <ele>1138</ele>
        <time>2023-04-21T10:35:09.000Z</time>
      </trkpt>
      <trkpt lat="44.48121" lon="6.23932">
        <ele>1139</ele>
        <time>2023-04-21T10:35:10.000Z</time>
      </trkpt>
      <trkpt lat="44.48122" lon="6.23934">
        <ele>1139</ele>
        <time>2023-04-21T10:35:11.000Z</time>
      </trkpt>
      <trkpt lat="44.48123" lon="6.23935">
        <ele>1140</ele>
        <time>2023-04-21T10:35:12.000Z</time>
      </trkpt>
      <trkpt lat="44.48124" lon="6.23937">
        <ele>1141</ele>
        <time>2023-04-21T10:35:13.000Z</time>
      </trkpt>
      <trkpt lat="44.48126" lon="6.23939">
        <ele>1141</ele>
        <time>2023-04-21T10:35:14.000Z</time>
      </trkpt>
      <trkpt lat="44.48127" lon="6.23941">
        <ele>1142</ele>
        <time>2023-04-21T10:35:15.000Z</time>
      </trkpt>
      <trkpt lat="44.48128" lon="6.23942">
        <ele>1142</ele>
        <time>2023-04-21T10:35:16.000Z</time>
      </trkpt>
      <trkpt lat="44.4813" lon="6.23944">
        <ele>1143</ele>
        <time>2023-04-21T10:35:17.000Z</time>
      </trkpt>
      <trkpt lat="44.48131" lon="6.23946">
        <ele>1143</ele>
        <time>2023-04-21T10:35:18.000Z</time>
      </trkpt>
      <trkpt lat="44.48132" lon="6.23948">
        <ele>1143</ele>
        <time>2023-04-21T10:35:19.000Z</time>
      </trkpt>
      <trkpt lat="44.48134" lon="6.2395">
        <ele>1144</ele>
        <time>2023-04-21T10:35:20.000Z</time>
      </trkpt>
      <trkpt lat="44.48135" lon="6.23952">
        <ele>1144</ele>
        <time>2023-04-21T10:35:21.000Z</time>
      </trkpt>
      <trkpt lat="44.48136" lon="6.23954">
        <ele>1145</ele>
        <time>2023-04-21T10:35:22.000Z</time>
      </trkpt>
      <trkpt lat="44.48138" lon="6.23956">
        <ele>1145</ele>
        <time>2023-04-21T10:35:23.000Z</time>
      </trkpt>
      <trkpt lat="44.48139" lon="6.23958">
        <ele>1146</ele>
        <time>2023-04-21T10:35:24.000Z</time>
      </trkpt>
      <trkpt lat="44.4814" lon="6.2396">
        <ele>1146</ele>
        <time>2023-04-21T10:35:25.000Z</time>
      </trkpt>
      <trkpt lat="44.48141" lon="6.23963">
        <ele>1146</ele>
        <time>2023-04-21T10:35:26.000Z</time>
      </trkpt>
      <trkpt lat="44.48143" lon="6.23965">
        <ele>1146</ele>
        <time>2023-04-21T10:35:27.000Z</time>
      </trkpt>
      <trkpt lat="44.48144" lon="6.23967">
        <ele>1147</ele>
        <time>2023-04-21T10:35:28.000Z</time>
      </trkpt>
      <trkpt lat="44.48145" lon="6.2397">
        <ele>1147</ele>
        <time>2023-04-21T10:35:29.000Z</time>
      </trkpt>
      <trkpt lat="44.48146" lon="6.23972">
        <ele>1147</ele>
        <time>2023-04-21T10:35:30.000Z</time>
      </trkpt>
      <trkpt lat="44.48146" lon="6.23974">
        <ele>1148</ele>
        <time>2023-04-21T10:35:31.000Z</time>
      </trkpt>
      <trkpt lat="44.48147" lon="6.23977">
        <ele>1148</ele>
        <time>2023-04-21T10:35:32.000Z</time>
      </trkpt>
      <trkpt lat="44.48148" lon="6.23979">
        <ele>1149</ele>
        <time>2023-04-21T10:35:33.000Z</time>
      </trkpt>
      <trkpt lat="44.48149" lon="6.23981">
        <ele>1150</ele>
        <time>2023-04-21T10:35:34.000Z</time>
      </trkpt>
      <trkpt lat="44.4815" lon="6.23984">
        <ele>1150</ele>
        <time>2023-04-21T10:35:35.000Z</time>
      </trkpt>
      <trkpt lat="44.48151" lon="6.23987">
        <ele>1150</ele>
        <time>2023-04-21T10:35:36.000Z</time>
      </trkpt>
      <trkpt lat="44.48152" lon="6.23989">
        <ele>1150</ele>
        <time>2023-04-21T10:35:37.000Z</time>
      </trkpt>
      <trkpt lat="44.48152" lon="6.23992">
        <ele>1151</ele>
        <time>2023-04-21T10:35:38.000Z</time>
      </trkpt>
      <trkpt lat="44.48153" lon="6.23994">
        <ele>1151</ele>
        <time>2023-04-21T10:35:39.000Z</time>
      </trkpt>
      <trkpt lat="44.48154" lon="6.23997">
        <ele>1151</ele>
        <time>2023-04-21T10:35:40.000Z</time>
      </trkpt>
      <trkpt lat="44.48155" lon="6.23999">
        <ele>1152</ele>
        <time>2023-04-21T10:35:41.000Z</time>
      </trkpt>
      <trkpt lat="44.48155" lon="6.24001">
        <ele>1152</ele>
        <time>2023-04-21T10:35:42.000Z</time>
      </trkpt>
      <trkpt lat="44.48156" lon="6.24004">
        <ele>1152</ele>
        <time>2023-04-21T10:35:43.000Z</time>
      </trkpt>
      <trkpt lat="44.48157" lon="6.24006">
        <ele>1153</ele>
        <time>2023-04-21T10:35:44.000Z</time>
      </trkpt>
      <trkpt lat="44.48158" lon="6.24009">
        <ele>1153</ele>
        <time>2023-04-21T10:35:45.000Z</time>
      </trkpt>
      <trkpt lat="44.48159" lon="6.24011">
        <ele>1154</ele>
        <time>2023-04-21T10:35:46.000Z</time>
      </trkpt>
      <trkpt lat="44.48159" lon="6.24014">
        <ele>1154</ele>
        <time>2023-04-21T10:35:47.000Z</time>
      </trkpt>
      <trkpt lat="44.4816" lon="6.24016">
        <ele>1154</ele>
        <time>2023-04-21T10:35:48.000Z</time>
      </trkpt>
      <trkpt lat="44.48161" lon="6.24018">
        <ele>1154</ele>
        <time>2023-04-21T10:35:49.000Z</time>
      </trkpt>
      <trkpt lat="44.48162" lon="6.24021">
        <ele>1154</ele>
        <time>2023-04-21T10:35:50.000Z</time>
      </trkpt>
      <trkpt lat="44.48163" lon="6.24024">
        <ele>1154</ele>
        <time>2023-04-21T10:35:51.000Z</time>
      </trkpt>
      <trkpt lat="44.48163" lon="6.24026">
        <ele>1154</ele>
        <time>2023-04-21T10:35:52.000Z</time>
      </trkpt>
      <trkpt lat="44.48164" lon="6.24029">
        <ele>1155</ele>
        <time>2023-04-21T10:35:53.000Z</time>
      </trkpt>
      <trkpt lat="44.48165" lon="6.24031">
        <ele>1155</ele>
        <time>2023-04-21T10:35:54.000Z</time>
      </trkpt>
      <trkpt lat="44.48166" lon="6.24034">
        <ele>1155</ele>
        <time>2023-04-21T10:35:55.000Z</time>
      </trkpt>
      <trkpt lat="44.48166" lon="6.24036">
        <ele>1155</ele>
        <time>2023-04-21T10:35:56.000Z</time>
      </trkpt>
      <trkpt lat="44.48167" lon="6.24039">
        <ele>1156</ele>
        <time>2023-04-21T10:35:57.000Z</time>
      </trkpt>
      <trkpt lat="44.48168" lon="6.24042">
        <ele>1155</ele>
        <time>2023-04-21T10:35:58.000Z</time>
      </trkpt>
      <trkpt lat="44.48168" lon="6.24045">
        <ele>1155</ele>
        <time>2023-04-21T10:35:59.000Z</time>
      </trkpt>
      <trkpt lat="44.48169" lon="6.24048">
        <ele>1154</ele>
        <time>2023-04-21T10:36:00.000Z</time>
      </trkpt>
      <trkpt lat="44.48169" lon="6.24051">
        <ele>1155</ele>
        <time>2023-04-21T10:36:01.000Z</time>
      </trkpt>
      <trkpt lat="44.4817" lon="6.24053">
        <ele>1155</ele>
        <time>2023-04-21T10:36:02.000Z</time>
      </trkpt>
      <trkpt lat="44.4817" lon="6.24056">
        <ele>1156</ele>
        <time>2023-04-21T10:36:03.000Z</time>
      </trkpt>
      <trkpt lat="44.48171" lon="6.24058">
        <ele>1156</ele>
        <time>2023-04-21T10:36:04.000Z</time>
      </trkpt>
      <trkpt lat="44.48171" lon="6.24061">
        <ele>1157</ele>
        <time>2023-04-21T10:36:05.000Z</time>
      </trkpt>
      <trkpt lat="44.48171" lon="6.24063">
        <ele>1157</ele>
        <time>2023-04-21T10:36:06.000Z</time>
      </trkpt>
      <trkpt lat="44.48172" lon="6.24066">
        <ele>1158</ele>
        <time>2023-04-21T10:36:07.000Z</time>
      </trkpt>
      <trkpt lat="44.48173" lon="6.24068">
        <ele>1158</ele>
        <time>2023-04-21T10:36:08.000Z</time>
      </trkpt>
      <trkpt lat="44.48173" lon="6.24071">
        <ele>1158</ele>
        <time>2023-04-21T10:36:09.000Z</time>
      </trkpt>
      <trkpt lat="44.48174" lon="6.24073">
        <ele>1158</ele>
        <time>2023-04-21T10:36:10.000Z</time>
      </trkpt>
      <trkpt lat="44.48174" lon="6.24076">
        <ele>1159</ele>
        <time>2023-04-21T10:36:11.000Z</time>
      </trkpt>
      <trkpt lat="44.48175" lon="6.24078">
        <ele>1159</ele>
        <time>2023-04-21T10:36:12.000Z</time>
      </trkpt>
      <trkpt lat="44.48176" lon="6.2408">
        <ele>1160</ele>
        <time>2023-04-21T10:36:13.000Z</time>
      </trkpt>
      <trkpt lat="44.48177" lon="6.24082">
        <ele>1160</ele>
        <time>2023-04-21T10:36:14.000Z</time>
      </trkpt>
      <trkpt lat="44.48178" lon="6.24084">
        <ele>1160</ele>
        <time>2023-04-21T10:36:15.000Z</time>
      </trkpt>
      <trkpt lat="44.48179" lon="6.24086">
        <ele>1160</ele>
        <time>2023-04-21T10:36:16.000Z</time>
      </trkpt>
      <trkpt lat="44.48181" lon="6.24088">
        <ele>1161</ele>
        <time>2023-04-21T10:36:17.000Z</time>
      </trkpt>
      <trkpt lat="44.48182" lon="6.2409">
        <ele>1160</ele>
        <time>2023-04-21T10:36:18.000Z</time>
      </trkpt>
      <trkpt lat="44.48183" lon="6.24092">
        <ele>1161</ele>
        <time>2023-04-21T10:36:19.000Z</time>
      </trkpt>
      <trkpt lat="44.48184" lon="6.24095">
        <ele>1161</ele>
        <time>2023-04-21T10:36:20.000Z</time>
      </trkpt>
      <trkpt lat="44.48184" lon="6.24097">
        <ele>1162</ele>
        <time>2023-04-21T10:36:21.000Z</time>
      </trkpt>
      <trkpt lat="44.48185" lon="6.241">
        <ele>1162</ele>
        <time>2023-04-21T10:36:22.000Z</time>
      </trkpt>
      <trkpt lat="44.48185" lon="6.24103">
        <ele>1163</ele>
        <time>2023-04-21T10:36:23.000Z</time>
      </trkpt>
      <trkpt lat="44.48186" lon="6.24106">
        <ele>1163</ele>
        <time>2023-04-21T10:36:24.000Z</time>
      </trkpt>
      <trkpt lat="44.48186" lon="6.24108">
        <ele>1163</ele>
        <time>2023-04-21T10:36:25.000Z</time>
      </trkpt>
      <trkpt lat="44.48187" lon="6.2411">
        <ele>1164</ele>
        <time>2023-04-21T10:36:26.000Z</time>
      </trkpt>
      <trkpt lat="44.48188" lon="6.24113">
        <ele>1165</ele>
        <time>2023-04-21T10:36:27.000Z</time>
      </trkpt>
      <trkpt lat="44.48189" lon="6.24115">
        <ele>1165</ele>
        <time>2023-04-21T10:36:28.000Z</time>
      </trkpt>
      <trkpt lat="44.4819" lon="6.24118">
        <ele>1166</ele>
        <time>2023-04-21T10:36:29.000Z</time>
      </trkpt>
      <trkpt lat="44.48191" lon="6.2412">
        <ele>1167</ele>
        <time>2023-04-21T10:36:30.000Z</time>
      </trkpt>
      <trkpt lat="44.48192" lon="6.24122">
        <ele>1167</ele>
        <time>2023-04-21T10:36:31.000Z</time>
      </trkpt>
      <trkpt lat="44.48194" lon="6.24124">
        <ele>1167</ele>
        <time>2023-04-21T10:36:32.000Z</time>
      </trkpt>
      <trkpt lat="44.48195" lon="6.24125">
        <ele>1166</ele>
        <time>2023-04-21T10:36:33.000Z</time>
      </trkpt>
      <trkpt lat="44.48197" lon="6.24127">
        <ele>1167</ele>
        <time>2023-04-21T10:36:34.000Z</time>
      </trkpt>
      <trkpt lat="44.48199" lon="6.24129">
        <ele>1167</ele>
        <time>2023-04-21T10:36:35.000Z</time>
      </trkpt>
      <trkpt lat="44.482" lon="6.2413">
        <ele>1167</ele>
        <time>2023-04-21T10:36:36.000Z</time>
      </trkpt>
      <trkpt lat="44.48202" lon="6.24131">
        <ele>1166</ele>
        <time>2023-04-21T10:36:37.000Z</time>
      </trkpt>
      <trkpt lat="44.48204" lon="6.24132">
        <ele>1165</ele>
        <time>2023-04-21T10:36:38.000Z</time>
      </trkpt>
      <trkpt lat="44.48206" lon="6.24133">
        <ele>1165</ele>
        <time>2023-04-21T10:36:39.000Z</time>
      </trkpt>
      <trkpt lat="44.48207" lon="6.24134">
        <ele>1165</ele>
        <time>2023-04-21T10:36:40.000Z</time>
      </trkpt>
      <trkpt lat="44.48209" lon="6.24136">
        <ele>1165</ele>
        <time>2023-04-21T10:36:41.000Z</time>
      </trkpt>
      <trkpt lat="44.48211" lon="6.24137">
        <ele>1165</ele>
        <time>2023-04-21T10:36:42.000Z</time>
      </trkpt>
      <trkpt lat="44.48213" lon="6.24138">
        <ele>1164</ele>
        <time>2023-04-21T10:36:43.000Z</time>
      </trkpt>
      <trkpt lat="44.48215" lon="6.2414">
        <ele>1164</ele>
        <time>2023-04-21T10:36:44.000Z</time>
      </trkpt>
      <trkpt lat="44.48217" lon="6.24142">
        <ele>1163</ele>
        <time>2023-04-21T10:36:45.000Z</time>
      </trkpt>
      <trkpt lat="44.48219" lon="6.24144">
        <ele>1163</ele>
        <time>2023-04-21T10:36:46.000Z</time>
      </trkpt>
      <trkpt lat="44.48221" lon="6.24145">
        <ele>1163</ele>
        <time>2023-04-21T10:36:47.000Z</time>
      </trkpt>
      <trkpt lat="44.48223" lon="6.24147">
        <ele>1162</ele>
        <time>2023-04-21T10:36:48.000Z</time>
      </trkpt>
      <trkpt lat="44.48225" lon="6.24149">
        <ele>1162</ele>
        <time>2023-04-21T10:36:49.000Z</time>
      </trkpt>
      <trkpt lat="44.48226" lon="6.24151">
        <ele>1163</ele>
        <time>2023-04-21T10:36:50.000Z</time>
      </trkpt>
      <trkpt lat="44.48228" lon="6.24153">
        <ele>1162</ele>
        <time>2023-04-21T10:36:51.000Z</time>
      </trkpt>
      <trkpt lat="44.48229" lon="6.24155">
        <ele>1162</ele>
        <time>2023-04-21T10:36:52.000Z</time>
      </trkpt>
      <trkpt lat="44.48231" lon="6.24157">
        <ele>1163</ele>
        <time>2023-04-21T10:36:53.000Z</time>
      </trkpt>
      <trkpt lat="44.48232" lon="6.24159">
        <ele>1163</ele>
        <time>2023-04-21T10:36:54.000Z</time>
      </trkpt>
      <trkpt lat="44.48233" lon="6.24161">
        <ele>1163</ele>
        <time>2023-04-21T10:36:55.000Z</time>
      </trkpt>
      <trkpt lat="44.48234" lon="6.24162">
        <ele>1163</ele>
        <time>2023-04-21T10:36:56.000Z</time>
      </trkpt>
      <trkpt lat="44.48236" lon="6.24164">
        <ele>1163</ele>
        <time>2023-04-21T10:36:57.000Z</time>
      </trkpt>
      <trkpt lat="44.48237" lon="6.24166">
        <ele>1163</ele>
        <time>2023-04-21T10:36:58.000Z</time>
      </trkpt>
      <trkpt lat="44.48239" lon="6.24168">
        <ele>1163</ele>
        <time>2023-04-21T10:36:59.000Z</time>
      </trkpt>
      <trkpt lat="44.4824" lon="6.24171">
        <ele>1163</ele>
        <time>2023-04-21T10:37:00.000Z</time>
      </trkpt>
      <trkpt lat="44.48242" lon="6.24173">
        <ele>1163</ele>
        <time>2023-04-21T10:37:01.000Z</time>
      </trkpt>
      <trkpt lat="44.48243" lon="6.24176">
        <ele>1164</ele>
        <time>2023-04-21T10:37:02.000Z</time>
      </trkpt>
      <trkpt lat="44.48244" lon="6.24178">
        <ele>1164</ele>
        <time>2023-04-21T10:37:03.000Z</time>
      </trkpt>
      <trkpt lat="44.48245" lon="6.24181">
        <ele>1164</ele>
        <time>2023-04-21T10:37:04.000Z</time>
      </trkpt>
      <trkpt lat="44.48246" lon="6.24184">
        <ele>1164</ele>
        <time>2023-04-21T10:37:05.000Z</time>
      </trkpt>
      <trkpt lat="44.48247" lon="6.24186">
        <ele>1164</ele>
        <time>2023-04-21T10:37:06.000Z</time>
      </trkpt>
      <trkpt lat="44.48248" lon="6.24189">
        <ele>1164</ele>
        <time>2023-04-21T10:37:07.000Z</time>
      </trkpt>
      <trkpt lat="44.4825" lon="6.24192">
        <ele>1164</ele>
        <time>2023-04-21T10:37:08.000Z</time>
      </trkpt>
      <trkpt lat="44.48251" lon="6.24195">
        <ele>1165</ele>
        <time>2023-04-21T10:37:09.000Z</time>
      </trkpt>
      <trkpt lat="44.48252" lon="6.24197">
        <ele>1165</ele>
        <time>2023-04-21T10:37:10.000Z</time>
      </trkpt>
      <trkpt lat="44.48252" lon="6.242">
        <ele>1165</ele>
        <time>2023-04-21T10:37:11.000Z</time>
      </trkpt>
      <trkpt lat="44.48253" lon="6.24203">
        <ele>1166</ele>
        <time>2023-04-21T10:37:12.000Z</time>
      </trkpt>
      <trkpt lat="44.48254" lon="6.24206">
        <ele>1166</ele>
        <time>2023-04-21T10:37:13.000Z</time>
      </trkpt>
      <trkpt lat="44.48255" lon="6.24209">
        <ele>1166</ele>
        <time>2023-04-21T10:37:14.000Z</time>
      </trkpt>
      <trkpt lat="44.48256" lon="6.24212">
        <ele>1166</ele>
        <time>2023-04-21T10:37:15.000Z</time>
      </trkpt>
      <trkpt lat="44.48257" lon="6.24214">
        <ele>1167</ele>
        <time>2023-04-21T10:37:16.000Z</time>
      </trkpt>
      <trkpt lat="44.48258" lon="6.24217">
        <ele>1167</ele>
        <time>2023-04-21T10:37:17.000Z</time>
      </trkpt>
      <trkpt lat="44.48259" lon="6.2422">
        <ele>1167</ele>
        <time>2023-04-21T10:37:18.000Z</time>
      </trkpt>
      <trkpt lat="44.4826" lon="6.24223">
        <ele>1167</ele>
        <time>2023-04-21T10:37:19.000Z</time>
      </trkpt>
      <trkpt lat="44.48261" lon="6.24226">
        <ele>1167</ele>
        <time>2023-04-21T10:37:20.000Z</time>
      </trkpt>
      <trkpt lat="44.48262" lon="6.24229">
        <ele>1167</ele>
        <time>2023-04-21T10:37:21.000Z</time>
      </trkpt>
      <trkpt lat="44.48263" lon="6.24231">
        <ele>1167</ele>
        <time>2023-04-21T10:37:22.000Z</time>
      </trkpt>
      <trkpt lat="44.48264" lon="6.24234">
        <ele>1167</ele>
        <time>2023-04-21T10:37:23.000Z</time>
      </trkpt>
      <trkpt lat="44.48265" lon="6.24237">
        <ele>1167</ele>
        <time>2023-04-21T10:37:24.000Z</time>
      </trkpt>
      <trkpt lat="44.48266" lon="6.24239">
        <ele>1167</ele>
        <time>2023-04-21T10:37:25.000Z</time>
      </trkpt>
      <trkpt lat="44.48268" lon="6.24242">
        <ele>1167</ele>
        <time>2023-04-21T10:37:26.000Z</time>
      </trkpt>
      <trkpt lat="44.48269" lon="6.24245">
        <ele>1167</ele>
        <time>2023-04-21T10:37:27.000Z</time>
      </trkpt>
      <trkpt lat="44.4827" lon="6.24247">
        <ele>1168</ele>
        <time>2023-04-21T10:37:28.000Z</time>
      </trkpt>
      <trkpt lat="44.48272" lon="6.24249">
        <ele>1168</ele>
        <time>2023-04-21T10:37:29.000Z</time>
      </trkpt>
      <trkpt lat="44.48274" lon="6.2425">
        <ele>1168</ele>
        <time>2023-04-21T10:37:30.000Z</time>
      </trkpt>
      <trkpt lat="44.48277" lon="6.24251">
        <ele>1168</ele>
        <time>2023-04-21T10:37:31.000Z</time>
      </trkpt>
      <trkpt lat="44.48279" lon="6.24252">
        <ele>1168</ele>
        <time>2023-04-21T10:37:32.000Z</time>
      </trkpt>
      <trkpt lat="44.48281" lon="6.24253">
        <ele>1168</ele>
        <time>2023-04-21T10:37:33.000Z</time>
      </trkpt>
      <trkpt lat="44.48283" lon="6.24254">
        <ele>1168</ele>
        <time>2023-04-21T10:37:34.000Z</time>
      </trkpt>
      <trkpt lat="44.48285" lon="6.24255">
        <ele>1168</ele>
        <time>2023-04-21T10:37:35.000Z</time>
      </trkpt>
      <trkpt lat="44.48288" lon="6.24256">
        <ele>1169</ele>
        <time>2023-04-21T10:37:36.000Z</time>
      </trkpt>
      <trkpt lat="44.4829" lon="6.24256">
        <ele>1169</ele>
        <time>2023-04-21T10:37:37.000Z</time>
      </trkpt>
      <trkpt lat="44.48292" lon="6.24256">
        <ele>1169</ele>
        <time>2023-04-21T10:37:38.000Z</time>
      </trkpt>
      <trkpt lat="44.48294" lon="6.24257">
        <ele>1169</ele>
        <time>2023-04-21T10:37:39.000Z</time>
      </trkpt>
      <trkpt lat="44.48296" lon="6.24257">
        <ele>1169</ele>
        <time>2023-04-21T10:37:40.000Z</time>
      </trkpt>
      <trkpt lat="44.48299" lon="6.24258">
        <ele>1169</ele>
        <time>2023-04-21T10:37:41.000Z</time>
      </trkpt>
      <trkpt lat="44.48301" lon="6.24259">
        <ele>1169</ele>
        <time>2023-04-21T10:37:42.000Z</time>
      </trkpt>
      <trkpt lat="44.48303" lon="6.2426">
        <ele>1169</ele>
        <time>2023-04-21T10:37:43.000Z</time>
      </trkpt>
      <trkpt lat="44.48305" lon="6.24261">
        <ele>1169</ele>
        <time>2023-04-21T10:37:44.000Z</time>
      </trkpt>
      <trkpt lat="44.48307" lon="6.24262">
        <ele>1169</ele>
        <time>2023-04-21T10:37:45.000Z</time>
      </trkpt>
      <trkpt lat="44.48309" lon="6.24263">
        <ele>1169</ele>
        <time>2023-04-21T10:37:46.000Z</time>
      </trkpt>
      <trkpt lat="44.48312" lon="6.24264">
        <ele>1169</ele>
        <time>2023-04-21T10:37:47.000Z</time>
      </trkpt>
      <trkpt lat="44.48314" lon="6.24265">
        <ele>1169</ele>
        <time>2023-04-21T10:37:48.000Z</time>
      </trkpt>
      <trkpt lat="44.48316" lon="6.24267">
        <ele>1170</ele>
        <time>2023-04-21T10:37:49.000Z</time>
      </trkpt>
      <trkpt lat="44.48318" lon="6.24269">
        <ele>1170</ele>
        <time>2023-04-21T10:37:50.000Z</time>
      </trkpt>
      <trkpt lat="44.48319" lon="6.2427">
        <ele>1170</ele>
        <time>2023-04-21T10:37:51.000Z</time>
      </trkpt>
      <trkpt lat="44.48321" lon="6.24272">
        <ele>1170</ele>
        <time>2023-04-21T10:37:52.000Z</time>
      </trkpt>
      <trkpt lat="44.48322" lon="6.24275">
        <ele>1171</ele>
        <time>2023-04-21T10:37:53.000Z</time>
      </trkpt>
      <trkpt lat="44.48324" lon="6.24277">
        <ele>1171</ele>
        <time>2023-04-21T10:37:54.000Z</time>
      </trkpt>
      <trkpt lat="44.48325" lon="6.2428">
        <ele>1172</ele>
        <time>2023-04-21T10:37:55.000Z</time>
      </trkpt>
      <trkpt lat="44.48326" lon="6.24282">
        <ele>1172</ele>
        <time>2023-04-21T10:37:56.000Z</time>
      </trkpt>
      <trkpt lat="44.48327" lon="6.24284">
        <ele>1173</ele>
        <time>2023-04-21T10:37:57.000Z</time>
      </trkpt>
      <trkpt lat="44.48329" lon="6.24287">
        <ele>1173</ele>
        <time>2023-04-21T10:37:58.000Z</time>
      </trkpt>
      <trkpt lat="44.48329" lon="6.24289">
        <ele>1174</ele>
        <time>2023-04-21T10:37:59.000Z</time>
      </trkpt>
      <trkpt lat="44.4833" lon="6.24291">
        <ele>1175</ele>
        <time>2023-04-21T10:38:00.000Z</time>
      </trkpt>
      <trkpt lat="44.48331" lon="6.24294">
        <ele>1176</ele>
        <time>2023-04-21T10:38:01.000Z</time>
      </trkpt>
      <trkpt lat="44.48332" lon="6.24297">
        <ele>1177</ele>
        <time>2023-04-21T10:38:02.000Z</time>
      </trkpt>
      <trkpt lat="44.48332" lon="6.243">
        <ele>1178</ele>
        <time>2023-04-21T10:38:03.000Z</time>
      </trkpt>
      <trkpt lat="44.48333" lon="6.24302">
        <ele>1179</ele>
        <time>2023-04-21T10:38:04.000Z</time>
      </trkpt>
      <trkpt lat="44.48334" lon="6.24306">
        <ele>1180</ele>
        <time>2023-04-21T10:38:05.000Z</time>
      </trkpt>
      <trkpt lat="44.48334" lon="6.24309">
        <ele>1180</ele>
        <time>2023-04-21T10:38:06.000Z</time>
      </trkpt>
      <trkpt lat="44.48336" lon="6.24311">
        <ele>1181</ele>
        <time>2023-04-21T10:38:07.000Z</time>
      </trkpt>
      <trkpt lat="44.48337" lon="6.24314">
        <ele>1181</ele>
        <time>2023-04-21T10:38:08.000Z</time>
      </trkpt>
      <trkpt lat="44.48339" lon="6.24315">
        <ele>1184</ele>
        <time>2023-04-21T10:38:09.000Z</time>
      </trkpt>
      <trkpt lat="44.4834" lon="6.24315">
        <ele>1187</ele>
        <time>2023-04-21T10:38:10.000Z</time>
      </trkpt>
      <trkpt lat="44.48341" lon="6.24314">
        <ele>1189</ele>
        <time>2023-04-21T10:38:11.000Z</time>
      </trkpt>
      <trkpt lat="44.48342" lon="6.24312">
        <ele>1190</ele>
        <time>2023-04-21T10:38:12.000Z</time>
      </trkpt>
      <trkpt lat="44.48342" lon="6.24309">
        <ele>1190</ele>
        <time>2023-04-21T10:38:13.000Z</time>
      </trkpt>
      <trkpt lat="44.48343" lon="6.24306">
        <ele>1191</ele>
        <time>2023-04-21T10:38:14.000Z</time>
      </trkpt>
      <trkpt lat="44.48343" lon="6.24303">
        <ele>1190</ele>
        <time>2023-04-21T10:38:15.000Z</time>
      </trkpt>
      <trkpt lat="44.48342" lon="6.243">
        <ele>1189</ele>
        <time>2023-04-21T10:38:16.000Z</time>
      </trkpt>
      <trkpt lat="44.48342" lon="6.24297">
        <ele>1190</ele>
        <time>2023-04-21T10:38:17.000Z</time>
      </trkpt>
      <trkpt lat="44.48342" lon="6.24295">
        <ele>1190</ele>
        <time>2023-04-21T10:38:18.000Z</time>
      </trkpt>
      <trkpt lat="44.48341" lon="6.24292">
        <ele>1190</ele>
        <time>2023-04-21T10:38:19.000Z</time>
      </trkpt>
      <trkpt lat="44.4834" lon="6.24289">
        <ele>1191</ele>
        <time>2023-04-21T10:38:20.000Z</time>
      </trkpt>
      <trkpt lat="44.4834" lon="6.24286">
        <ele>1192</ele>
        <time>2023-04-21T10:38:21.000Z</time>
      </trkpt>
      <trkpt lat="44.48339" lon="6.24283">
        <ele>1192</ele>
        <time>2023-04-21T10:38:22.000Z</time>
      </trkpt>
      <trkpt lat="44.48339" lon="6.2428">
        <ele>1193</ele>
        <time>2023-04-21T10:38:23.000Z</time>
      </trkpt>
      <trkpt lat="44.48338" lon="6.24277">
        <ele>1193</ele>
        <time>2023-04-21T10:38:24.000Z</time>
      </trkpt>
      <trkpt lat="44.48338" lon="6.24275">
        <ele>1194</ele>
        <time>2023-04-21T10:38:25.000Z</time>
      </trkpt>
      <trkpt lat="44.48338" lon="6.24272">
        <ele>1194</ele>
        <time>2023-04-21T10:38:26.000Z</time>
      </trkpt>
      <trkpt lat="44.48338" lon="6.24269">
        <ele>1194</ele>
        <time>2023-04-21T10:38:27.000Z</time>
      </trkpt>
      <trkpt lat="44.48338" lon="6.24266">
        <ele>1195</ele>
        <time>2023-04-21T10:38:28.000Z</time>
      </trkpt>
      <trkpt lat="44.48337" lon="6.24263">
        <ele>1195</ele>
        <time>2023-04-21T10:38:29.000Z</time>
      </trkpt>
      <trkpt lat="44.48337" lon="6.2426">
        <ele>1195</ele>
        <time>2023-04-21T10:38:30.000Z</time>
      </trkpt>
      <trkpt lat="44.48337" lon="6.24257">
        <ele>1195</ele>
        <time>2023-04-21T10:38:31.000Z</time>
      </trkpt>
      <trkpt lat="44.48337" lon="6.24254">
        <ele>1194</ele>
        <time>2023-04-21T10:38:32.000Z</time>
      </trkpt>
      <trkpt lat="44.48337" lon="6.24251">
        <ele>1194</ele>
        <time>2023-04-21T10:38:33.000Z</time>
      </trkpt>
      <trkpt lat="44.48338" lon="6.24248">
        <ele>1192</ele>
        <time>2023-04-21T10:38:34.000Z</time>
      </trkpt>
      <trkpt lat="44.4834" lon="6.24245">
        <ele>1192</ele>
        <time>2023-04-21T10:38:35.000Z</time>
      </trkpt>
      <trkpt lat="44.48341" lon="6.24242">
        <ele>1192</ele>
        <time>2023-04-21T10:38:36.000Z</time>
      </trkpt>
      <trkpt lat="44.48341" lon="6.24239">
        <ele>1193</ele>
        <time>2023-04-21T10:38:37.000Z</time>
      </trkpt>
      <trkpt lat="44.48343" lon="6.24235">
        <ele>1192</ele>
        <time>2023-04-21T10:38:38.000Z</time>
      </trkpt>
      <trkpt lat="44.48345" lon="6.24232">
        <ele>1191</ele>
        <time>2023-04-21T10:38:39.000Z</time>
      </trkpt>
      <trkpt lat="44.48348" lon="6.24229">
        <ele>1188</ele>
        <time>2023-04-21T10:38:40.000Z</time>
      </trkpt>
      <trkpt lat="44.4835" lon="6.24227">
        <ele>1188</ele>
        <time>2023-04-21T10:38:41.000Z</time>
      </trkpt>
      <trkpt lat="44.48352" lon="6.24226">
        <ele>1188</ele>
        <time>2023-04-21T10:38:42.000Z</time>
      </trkpt>
      <trkpt lat="44.48355" lon="6.24225">
        <ele>1189</ele>
        <time>2023-04-21T10:38:43.000Z</time>
      </trkpt>
      <trkpt lat="44.48358" lon="6.24225">
        <ele>1189</ele>
        <time>2023-04-21T10:38:44.000Z</time>
      </trkpt>
      <trkpt lat="44.4836" lon="6.24225">
        <ele>1190</ele>
        <time>2023-04-21T10:38:45.000Z</time>
      </trkpt>
      <trkpt lat="44.48363" lon="6.24225">
        <ele>1190</ele>
        <time>2023-04-21T10:38:46.000Z</time>
      </trkpt>
      <trkpt lat="44.48365" lon="6.24226">
        <ele>1191</ele>
        <time>2023-04-21T10:38:47.000Z</time>
      </trkpt>
      <trkpt lat="44.48367" lon="6.24228">
        <ele>1192</ele>
        <time>2023-04-21T10:38:48.000Z</time>
      </trkpt>
      <trkpt lat="44.48369" lon="6.24229">
        <ele>1192</ele>
        <time>2023-04-21T10:38:49.000Z</time>
      </trkpt>
      <trkpt lat="44.48372" lon="6.2423">
        <ele>1193</ele>
        <time>2023-04-21T10:38:50.000Z</time>
      </trkpt>
      <trkpt lat="44.48374" lon="6.24232">
        <ele>1193</ele>
        <time>2023-04-21T10:38:51.000Z</time>
      </trkpt>
      <trkpt lat="44.48376" lon="6.24233">
        <ele>1194</ele>
        <time>2023-04-21T10:38:52.000Z</time>
      </trkpt>
      <trkpt lat="44.48379" lon="6.24234">
        <ele>1194</ele>
        <time>2023-04-21T10:38:53.000Z</time>
      </trkpt>
      <trkpt lat="44.48381" lon="6.24235">
        <ele>1194</ele>
        <time>2023-04-21T10:38:54.000Z</time>
      </trkpt>
      <trkpt lat="44.48383" lon="6.24236">
        <ele>1195</ele>
        <time>2023-04-21T10:38:55.000Z</time>
      </trkpt>
      <trkpt lat="44.48386" lon="6.24237">
        <ele>1196</ele>
        <time>2023-04-21T10:38:56.000Z</time>
      </trkpt>
      <trkpt lat="44.48389" lon="6.24238">
        <ele>1196</ele>
        <time>2023-04-21T10:38:57.000Z</time>
      </trkpt>
      <trkpt lat="44.48391" lon="6.24239">
        <ele>1197</ele>
        <time>2023-04-21T10:38:58.000Z</time>
      </trkpt>
      <trkpt lat="44.48394" lon="6.24241">
        <ele>1196</ele>
        <time>2023-04-21T10:38:59.000Z</time>
      </trkpt>
      <trkpt lat="44.48397" lon="6.24242">
        <ele>1196</ele>
        <time>2023-04-21T10:39:00.000Z</time>
      </trkpt>
      <trkpt lat="44.48399" lon="6.24244">
        <ele>1196</ele>
        <time>2023-04-21T10:39:01.000Z</time>
      </trkpt>
      <trkpt lat="44.48401" lon="6.24246">
        <ele>1196</ele>
        <time>2023-04-21T10:39:02.000Z</time>
      </trkpt>
      <trkpt lat="44.48404" lon="6.24248">
        <ele>1195</ele>
        <time>2023-04-21T10:39:03.000Z</time>
      </trkpt>
      <trkpt lat="44.48406" lon="6.2425">
        <ele>1195</ele>
        <time>2023-04-21T10:39:04.000Z</time>
      </trkpt>
      <trkpt lat="44.48409" lon="6.24253">
        <ele>1195</ele>
        <time>2023-04-21T10:39:05.000Z</time>
      </trkpt>
      <trkpt lat="44.48411" lon="6.24255">
        <ele>1194</ele>
        <time>2023-04-21T10:39:06.000Z</time>
      </trkpt>
      <trkpt lat="44.48413" lon="6.24257">
        <ele>1193</ele>
        <time>2023-04-21T10:39:07.000Z</time>
      </trkpt>
      <trkpt lat="44.48415" lon="6.24259">
        <ele>1193</ele>
        <time>2023-04-21T10:39:08.000Z</time>
      </trkpt>
      <trkpt lat="44.48417" lon="6.24262">
        <ele>1193</ele>
        <time>2023-04-21T10:39:09.000Z</time>
      </trkpt>
      <trkpt lat="44.4842" lon="6.24265">
        <ele>1193</ele>
        <time>2023-04-21T10:39:10.000Z</time>
      </trkpt>
      <trkpt lat="44.48422" lon="6.24267">
        <ele>1194</ele>
        <time>2023-04-21T10:39:11.000Z</time>
      </trkpt>
      <trkpt lat="44.48424" lon="6.2427">
        <ele>1195</ele>
        <time>2023-04-21T10:39:12.000Z</time>
      </trkpt>
      <trkpt lat="44.48427" lon="6.24272">
        <ele>1196</ele>
        <time>2023-04-21T10:39:13.000Z</time>
      </trkpt>
      <trkpt lat="44.48429" lon="6.24274">
        <ele>1197</ele>
        <time>2023-04-21T10:39:14.000Z</time>
      </trkpt>
      <trkpt lat="44.48432" lon="6.24277">
        <ele>1198</ele>
        <time>2023-04-21T10:39:15.000Z</time>
      </trkpt>
      <trkpt lat="44.48435" lon="6.24279">
        <ele>1197</ele>
        <time>2023-04-21T10:39:16.000Z</time>
      </trkpt>
      <trkpt lat="44.48437" lon="6.24281">
        <ele>1197</ele>
        <time>2023-04-21T10:39:17.000Z</time>
      </trkpt>
      <trkpt lat="44.48439" lon="6.24283">
        <ele>1196</ele>
        <time>2023-04-21T10:39:18.000Z</time>
      </trkpt>
      <trkpt lat="44.48441" lon="6.24286">
        <ele>1197</ele>
        <time>2023-04-21T10:39:19.000Z</time>
      </trkpt>
      <trkpt lat="44.48443" lon="6.24289">
        <ele>1200</ele>
        <time>2023-04-21T10:39:20.000Z</time>
      </trkpt>
      <trkpt lat="44.48444" lon="6.24293">
        <ele>1201</ele>
        <time>2023-04-21T10:39:21.000Z</time>
      </trkpt>
      <trkpt lat="44.48445" lon="6.24296">
        <ele>1201</ele>
        <time>2023-04-21T10:39:22.000Z</time>
      </trkpt>
      <trkpt lat="44.48446" lon="6.24299">
        <ele>1202</ele>
        <time>2023-04-21T10:39:23.000Z</time>
      </trkpt>
      <trkpt lat="44.48447" lon="6.24303">
        <ele>1202</ele>
        <time>2023-04-21T10:39:24.000Z</time>
      </trkpt>
      <trkpt lat="44.48447" lon="6.24307">
        <ele>1202</ele>
        <time>2023-04-21T10:39:25.000Z</time>
      </trkpt>
      <trkpt lat="44.48448" lon="6.2431">
        <ele>1202</ele>
        <time>2023-04-21T10:39:26.000Z</time>
      </trkpt>
      <trkpt lat="44.48448" lon="6.24313">
        <ele>1203</ele>
        <time>2023-04-21T10:39:27.000Z</time>
      </trkpt>
      <trkpt lat="44.48447" lon="6.24318">
        <ele>1202</ele>
        <time>2023-04-21T10:39:28.000Z</time>
      </trkpt>
      <trkpt lat="44.48447" lon="6.24323">
        <ele>1200</ele>
        <time>2023-04-21T10:39:29.000Z</time>
      </trkpt>
      <trkpt lat="44.48447" lon="6.24327">
        <ele>1198</ele>
        <time>2023-04-21T10:39:30.000Z</time>
      </trkpt>
      <trkpt lat="44.48448" lon="6.2433">
        <ele>1200</ele>
        <time>2023-04-21T10:39:31.000Z</time>
      </trkpt>
      <trkpt lat="44.4845" lon="6.24334">
        <ele>1197</ele>
        <time>2023-04-21T10:39:32.000Z</time>
      </trkpt>
      <trkpt lat="44.4845" lon="6.24337">
        <ele>1198</ele>
        <time>2023-04-21T10:39:33.000Z</time>
      </trkpt>
      <trkpt lat="44.48451" lon="6.2434">
        <ele>1198</ele>
        <time>2023-04-21T10:39:34.000Z</time>
      </trkpt>
      <trkpt lat="44.48452" lon="6.24344">
        <ele>1198</ele>
        <time>2023-04-21T10:39:35.000Z</time>
      </trkpt>
      <trkpt lat="44.48453" lon="6.24347">
        <ele>1198</ele>
        <time>2023-04-21T10:39:36.000Z</time>
      </trkpt>
      <trkpt lat="44.48456" lon="6.2435">
        <ele>1197</ele>
        <time>2023-04-21T10:39:37.000Z</time>
      </trkpt>
      <trkpt lat="44.48459" lon="6.24354">
        <ele>1197</ele>
        <time>2023-04-21T10:39:38.000Z</time>
      </trkpt>
      <trkpt lat="44.48463" lon="6.24359">
        <ele>1195</ele>
        <time>2023-04-21T10:39:39.000Z</time>
      </trkpt>
      <trkpt lat="44.48467" lon="6.24361">
        <ele>1201</ele>
        <time>2023-04-21T10:39:40.000Z</time>
      </trkpt>
      <trkpt lat="44.48474" lon="6.24363">
        <ele>1205</ele>
        <time>2023-04-21T10:39:41.000Z</time>
      </trkpt>
      <trkpt lat="44.48478" lon="6.24364">
        <ele>1205</ele>
        <time>2023-04-21T10:39:42.000Z</time>
      </trkpt>
      <trkpt lat="44.48482" lon="6.24366">
        <ele>1206</ele>
        <time>2023-04-21T10:39:43.000Z</time>
      </trkpt>
      <trkpt lat="44.48486" lon="6.24367">
        <ele>1207</ele>
        <time>2023-04-21T10:39:44.000Z</time>
      </trkpt>
      <trkpt lat="44.4849" lon="6.24368">
        <ele>1207</ele>
        <time>2023-04-21T10:39:45.000Z</time>
      </trkpt>
      <trkpt lat="44.48495" lon="6.24369">
        <ele>1206</ele>
        <time>2023-04-21T10:39:46.000Z</time>
      </trkpt>
      <trkpt lat="44.485" lon="6.24369">
        <ele>1207</ele>
        <time>2023-04-21T10:39:47.000Z</time>
      </trkpt>
      <trkpt lat="44.48506" lon="6.24368">
        <ele>1208</ele>
        <time>2023-04-21T10:39:48.000Z</time>
      </trkpt>
      <trkpt lat="44.48511" lon="6.24367">
        <ele>1207</ele>
        <time>2023-04-21T10:39:49.000Z</time>
      </trkpt>
      <trkpt lat="44.48515" lon="6.24366">
        <ele>1207</ele>
        <time>2023-04-21T10:39:50.000Z</time>
      </trkpt>
      <trkpt lat="44.48519" lon="6.24365">
        <ele>1207</ele>
        <time>2023-04-21T10:39:51.000Z</time>
      </trkpt>
      <trkpt lat="44.48521" lon="6.24363">
        <ele>1208</ele>
        <time>2023-04-21T10:39:52.000Z</time>
      </trkpt>
      <trkpt lat="44.48524" lon="6.2436">
        <ele>1208</ele>
        <time>2023-04-21T10:39:53.000Z</time>
      </trkpt>
      <trkpt lat="44.48527" lon="6.24358">
        <ele>1206</ele>
        <time>2023-04-21T10:39:54.000Z</time>
      </trkpt>
      <trkpt lat="44.48529" lon="6.24354">
        <ele>1204</ele>
        <time>2023-04-21T10:39:55.000Z</time>
      </trkpt>
      <trkpt lat="44.48531" lon="6.24351">
        <ele>1203</ele>
        <time>2023-04-21T10:39:56.000Z</time>
      </trkpt>
      <trkpt lat="44.48534" lon="6.24347">
        <ele>1202</ele>
        <time>2023-04-21T10:39:57.000Z</time>
      </trkpt>
      <trkpt lat="44.48537" lon="6.24344">
        <ele>1201</ele>
        <time>2023-04-21T10:39:58.000Z</time>
      </trkpt>
      <trkpt lat="44.48539" lon="6.24342">
        <ele>1199</ele>
        <time>2023-04-21T10:39:59.000Z</time>
      </trkpt>
      <trkpt lat="44.48543" lon="6.2434">
        <ele>1198</ele>
        <time>2023-04-21T10:40:00.000Z</time>
      </trkpt>
      <trkpt lat="44.48546" lon="6.24339">
        <ele>1198</ele>
        <time>2023-04-21T10:40:01.000Z</time>
      </trkpt>
      <trkpt lat="44.48548" lon="6.24339">
        <ele>1200</ele>
        <time>2023-04-21T10:40:02.000Z</time>
      </trkpt>
      <trkpt lat="44.48551" lon="6.24341">
        <ele>1201</ele>
        <time>2023-04-21T10:40:03.000Z</time>
      </trkpt>
      <trkpt lat="44.48553" lon="6.24343">
        <ele>1200</ele>
        <time>2023-04-21T10:40:04.000Z</time>
      </trkpt>
      <trkpt lat="44.48556" lon="6.24345">
        <ele>1200</ele>
        <time>2023-04-21T10:40:05.000Z</time>
      </trkpt>
      <trkpt lat="44.48558" lon="6.24347">
        <ele>1200</ele>
        <time>2023-04-21T10:40:06.000Z</time>
      </trkpt>
      <trkpt lat="44.48561" lon="6.24349">
        <ele>1199</ele>
        <time>2023-04-21T10:40:07.000Z</time>
      </trkpt>
      <trkpt lat="44.48564" lon="6.24351">
        <ele>1199</ele>
        <time>2023-04-21T10:40:08.000Z</time>
      </trkpt>
      <trkpt lat="44.48567" lon="6.24352">
        <ele>1198</ele>
        <time>2023-04-21T10:40:09.000Z</time>
      </trkpt>
      <trkpt lat="44.48569" lon="6.24353">
        <ele>1199</ele>
        <time>2023-04-21T10:40:10.000Z</time>
      </trkpt>
      <trkpt lat="44.48571" lon="6.24352">
        <ele>1199</ele>
        <time>2023-04-21T10:40:11.000Z</time>
      </trkpt>
      <trkpt lat="44.48573" lon="6.24352">
        <ele>1200</ele>
        <time>2023-04-21T10:40:12.000Z</time>
      </trkpt>
      <trkpt lat="44.48574" lon="6.2435">
        <ele>1200</ele>
        <time>2023-04-21T10:40:13.000Z</time>
      </trkpt>
      <trkpt lat="44.48576" lon="6.24348">
        <ele>1200</ele>
        <time>2023-04-21T10:40:14.000Z</time>
      </trkpt>
      <trkpt lat="44.48577" lon="6.24344">
        <ele>1202</ele>
        <time>2023-04-21T10:40:15.000Z</time>
      </trkpt>
      <trkpt lat="44.48578" lon="6.24341">
        <ele>1201</ele>
        <time>2023-04-21T10:40:16.000Z</time>
      </trkpt>
      <trkpt lat="44.4858" lon="6.24339">
        <ele>1200</ele>
        <time>2023-04-21T10:40:17.000Z</time>
      </trkpt>
      <trkpt lat="44.48582" lon="6.24336">
        <ele>1200</ele>
        <time>2023-04-21T10:40:18.000Z</time>
      </trkpt>
      <trkpt lat="44.48584" lon="6.24333">
        <ele>1200</ele>
        <time>2023-04-21T10:40:19.000Z</time>
      </trkpt>
      <trkpt lat="44.48586" lon="6.2433">
        <ele>1200</ele>
        <time>2023-04-21T10:40:20.000Z</time>
      </trkpt>
      <trkpt lat="44.48588" lon="6.24328">
        <ele>1199</ele>
        <time>2023-04-21T10:40:21.000Z</time>
      </trkpt>
      <trkpt lat="44.48591" lon="6.24325">
        <ele>1199</ele>
        <time>2023-04-21T10:40:22.000Z</time>
      </trkpt>
      <trkpt lat="44.48594" lon="6.24323">
        <ele>1198</ele>
        <time>2023-04-21T10:40:23.000Z</time>
      </trkpt>
      <trkpt lat="44.48596" lon="6.24321">
        <ele>1199</ele>
        <time>2023-04-21T10:40:24.000Z</time>
      </trkpt>
      <trkpt lat="44.48598" lon="6.24319">
        <ele>1199</ele>
        <time>2023-04-21T10:40:25.000Z</time>
      </trkpt>
      <trkpt lat="44.48601" lon="6.24317">
        <ele>1199</ele>
        <time>2023-04-21T10:40:26.000Z</time>
      </trkpt>
      <trkpt lat="44.48604" lon="6.24315">
        <ele>1200</ele>
        <time>2023-04-21T10:40:27.000Z</time>
      </trkpt>
      <trkpt lat="44.48606" lon="6.24313">
        <ele>1200</ele>
        <time>2023-04-21T10:40:28.000Z</time>
      </trkpt>
      <trkpt lat="44.48608" lon="6.24312">
        <ele>1200</ele>
        <time>2023-04-21T10:40:29.000Z</time>
      </trkpt>
      <trkpt lat="44.48611" lon="6.24311">
        <ele>1200</ele>
        <time>2023-04-21T10:40:30.000Z</time>
      </trkpt>
      <trkpt lat="44.48614" lon="6.2431">
        <ele>1200</ele>
        <time>2023-04-21T10:40:31.000Z</time>
      </trkpt>
      <trkpt lat="44.48616" lon="6.24311">
        <ele>1200</ele>
        <time>2023-04-21T10:40:32.000Z</time>
      </trkpt>
      <trkpt lat="44.48619" lon="6.24312">
        <ele>1201</ele>
        <time>2023-04-21T10:40:33.000Z</time>
      </trkpt>
      <trkpt lat="44.48621" lon="6.24313">
        <ele>1201</ele>
        <time>2023-04-21T10:40:34.000Z</time>
      </trkpt>
      <trkpt lat="44.48623" lon="6.24314">
        <ele>1201</ele>
        <time>2023-04-21T10:40:35.000Z</time>
      </trkpt>
      <trkpt lat="44.48626" lon="6.24316">
        <ele>1201</ele>
        <time>2023-04-21T10:40:36.000Z</time>
      </trkpt>
      <trkpt lat="44.48629" lon="6.24317">
        <ele>1201</ele>
        <time>2023-04-21T10:40:37.000Z</time>
      </trkpt>
      <trkpt lat="44.48631" lon="6.24319">
        <ele>1200</ele>
        <time>2023-04-21T10:40:38.000Z</time>
      </trkpt>
      <trkpt lat="44.48634" lon="6.2432">
        <ele>1200</ele>
        <time>2023-04-21T10:40:39.000Z</time>
      </trkpt>
      <trkpt lat="44.48636" lon="6.24322">
        <ele>1200</ele>
        <time>2023-04-21T10:40:40.000Z</time>
      </trkpt>
      <trkpt lat="44.48638" lon="6.24324">
        <ele>1200</ele>
        <time>2023-04-21T10:40:41.000Z</time>
      </trkpt>
      <trkpt lat="44.48641" lon="6.24326">
        <ele>1200</ele>
        <time>2023-04-21T10:40:42.000Z</time>
      </trkpt>
      <trkpt lat="44.48643" lon="6.24329">
        <ele>1200</ele>
        <time>2023-04-21T10:40:43.000Z</time>
      </trkpt>
      <trkpt lat="44.48645" lon="6.24331">
        <ele>1200</ele>
        <time>2023-04-21T10:40:44.000Z</time>
      </trkpt>
      <trkpt lat="44.48647" lon="6.24333">
        <ele>1200</ele>
        <time>2023-04-21T10:40:45.000Z</time>
      </trkpt>
      <trkpt lat="44.48649" lon="6.24336">
        <ele>1200</ele>
        <time>2023-04-21T10:40:46.000Z</time>
      </trkpt>
      <trkpt lat="44.48651" lon="6.24338">
        <ele>1200</ele>
        <time>2023-04-21T10:40:47.000Z</time>
      </trkpt>
      <trkpt lat="44.48653" lon="6.24339">
        <ele>1200</ele>
        <time>2023-04-21T10:40:48.000Z</time>
      </trkpt>
      <trkpt lat="44.48656" lon="6.24341">
        <ele>1200</ele>
        <time>2023-04-21T10:40:49.000Z</time>
      </trkpt>
      <trkpt lat="44.48658" lon="6.24343">
        <ele>1199</ele>
        <time>2023-04-21T10:40:50.000Z</time>
      </trkpt>
      <trkpt lat="44.4866" lon="6.24345">
        <ele>1200</ele>
        <time>2023-04-21T10:40:51.000Z</time>
      </trkpt>
      <trkpt lat="44.48662" lon="6.24347">
        <ele>1200</ele>
        <time>2023-04-21T10:40:52.000Z</time>
      </trkpt>
      <trkpt lat="44.48664" lon="6.24349">
        <ele>1201</ele>
        <time>2023-04-21T10:40:53.000Z</time>
      </trkpt>
      <trkpt lat="44.48666" lon="6.24351">
        <ele>1201</ele>
        <time>2023-04-21T10:40:54.000Z</time>
      </trkpt>
      <trkpt lat="44.48669" lon="6.24354">
        <ele>1202</ele>
        <time>2023-04-21T10:40:55.000Z</time>
      </trkpt>
      <trkpt lat="44.48671" lon="6.24356">
        <ele>1202</ele>
        <time>2023-04-21T10:40:56.000Z</time>
      </trkpt>
      <trkpt lat="44.48674" lon="6.24358">
        <ele>1203</ele>
        <time>2023-04-21T10:40:57.000Z</time>
      </trkpt>
      <trkpt lat="44.48676" lon="6.2436">
        <ele>1203</ele>
        <time>2023-04-21T10:40:58.000Z</time>
      </trkpt>
      <trkpt lat="44.48678" lon="6.24362">
        <ele>1203</ele>
        <time>2023-04-21T10:40:59.000Z</time>
      </trkpt>
      <trkpt lat="44.4868" lon="6.24364">
        <ele>1204</ele>
        <time>2023-04-21T10:41:00.000Z</time>
      </trkpt>
      <trkpt lat="44.48681" lon="6.24365">
        <ele>1205</ele>
        <time>2023-04-21T10:41:01.000Z</time>
      </trkpt>
      <trkpt lat="44.48683" lon="6.24367">
        <ele>1205</ele>
        <time>2023-04-21T10:41:02.000Z</time>
      </trkpt>
      <trkpt lat="44.48686" lon="6.24368">
        <ele>1202</ele>
        <time>2023-04-21T10:41:03.000Z</time>
      </trkpt>
      <trkpt lat="44.48688" lon="6.24369">
        <ele>1202</ele>
        <time>2023-04-21T10:41:04.000Z</time>
      </trkpt>
      <trkpt lat="44.48689" lon="6.24371">
        <ele>1201</ele>
        <time>2023-04-21T10:41:05.000Z</time>
      </trkpt>
      <trkpt lat="44.48691" lon="6.24373">
        <ele>1201</ele>
        <time>2023-04-21T10:41:06.000Z</time>
      </trkpt>
      <trkpt lat="44.48693" lon="6.24374">
        <ele>1202</ele>
        <time>2023-04-21T10:41:07.000Z</time>
      </trkpt>
      <trkpt lat="44.48695" lon="6.24376">
        <ele>1202</ele>
        <time>2023-04-21T10:41:08.000Z</time>
      </trkpt>
      <trkpt lat="44.48697" lon="6.24378">
        <ele>1202</ele>
        <time>2023-04-21T10:41:09.000Z</time>
      </trkpt>
      <trkpt lat="44.48699" lon="6.2438">
        <ele>1202</ele>
        <time>2023-04-21T10:41:10.000Z</time>
      </trkpt>
      <trkpt lat="44.487" lon="6.24382">
        <ele>1202</ele>
        <time>2023-04-21T10:41:11.000Z</time>
      </trkpt>
      <trkpt lat="44.48703" lon="6.24384">
        <ele>1203</ele>
        <time>2023-04-21T10:41:12.000Z</time>
      </trkpt>
      <trkpt lat="44.48704" lon="6.24386">
        <ele>1202</ele>
        <time>2023-04-21T10:41:13.000Z</time>
      </trkpt>
      <trkpt lat="44.48706" lon="6.24387">
        <ele>1203</ele>
        <time>2023-04-21T10:41:14.000Z</time>
      </trkpt>
      <trkpt lat="44.48708" lon="6.24389">
        <ele>1203</ele>
        <time>2023-04-21T10:41:15.000Z</time>
      </trkpt>
      <trkpt lat="44.4871" lon="6.24391">
        <ele>1204</ele>
        <time>2023-04-21T10:41:16.000Z</time>
      </trkpt>
      <trkpt lat="44.48711" lon="6.24393">
        <ele>1204</ele>
        <time>2023-04-21T10:41:17.000Z</time>
      </trkpt>
      <trkpt lat="44.48713" lon="6.24395">
        <ele>1203</ele>
        <time>2023-04-21T10:41:18.000Z</time>
      </trkpt>
      <trkpt lat="44.48714" lon="6.24397">
        <ele>1203</ele>
        <time>2023-04-21T10:41:19.000Z</time>
      </trkpt>
      <trkpt lat="44.48716" lon="6.244">
        <ele>1203</ele>
        <time>2023-04-21T10:41:20.000Z</time>
      </trkpt>
      <trkpt lat="44.48718" lon="6.24401">
        <ele>1204</ele>
        <time>2023-04-21T10:41:21.000Z</time>
      </trkpt>
      <trkpt lat="44.48719" lon="6.24403">
        <ele>1204</ele>
        <time>2023-04-21T10:41:22.000Z</time>
      </trkpt>
      <trkpt lat="44.48721" lon="6.24406">
        <ele>1204</ele>
        <time>2023-04-21T10:41:23.000Z</time>
      </trkpt>
      <trkpt lat="44.48723" lon="6.24409">
        <ele>1204</ele>
        <time>2023-04-21T10:41:24.000Z</time>
      </trkpt>
      <trkpt lat="44.48725" lon="6.24411">
        <ele>1205</ele>
        <time>2023-04-21T10:41:25.000Z</time>
      </trkpt>
      <trkpt lat="44.48727" lon="6.24414">
        <ele>1205</ele>
        <time>2023-04-21T10:41:26.000Z</time>
      </trkpt>
      <trkpt lat="44.48729" lon="6.24416">
        <ele>1205</ele>
        <time>2023-04-21T10:41:27.000Z</time>
      </trkpt>
      <trkpt lat="44.48731" lon="6.24419">
        <ele>1206</ele>
        <time>2023-04-21T10:41:28.000Z</time>
      </trkpt>
      <trkpt lat="44.48732" lon="6.2442">
        <ele>1206</ele>
        <time>2023-04-21T10:41:29.000Z</time>
      </trkpt>
      <trkpt lat="44.48735" lon="6.24423">
        <ele>1207</ele>
        <time>2023-04-21T10:41:30.000Z</time>
      </trkpt>
      <trkpt lat="44.48737" lon="6.24425">
        <ele>1207</ele>
        <time>2023-04-21T10:41:31.000Z</time>
      </trkpt>
      <trkpt lat="44.48739" lon="6.24426">
        <ele>1208</ele>
        <time>2023-04-21T10:41:32.000Z</time>
      </trkpt>
      <trkpt lat="44.48741" lon="6.24428">
        <ele>1208</ele>
        <time>2023-04-21T10:41:33.000Z</time>
      </trkpt>
      <trkpt lat="44.48743" lon="6.2443">
        <ele>1208</ele>
        <time>2023-04-21T10:41:34.000Z</time>
      </trkpt>
      <trkpt lat="44.48744" lon="6.24432">
        <ele>1209</ele>
        <time>2023-04-21T10:41:35.000Z</time>
      </trkpt>
      <trkpt lat="44.48746" lon="6.24436">
        <ele>1211</ele>
        <time>2023-04-21T10:41:36.000Z</time>
      </trkpt>
      <trkpt lat="44.48748" lon="6.24438">
        <ele>1211</ele>
        <time>2023-04-21T10:41:37.000Z</time>
      </trkpt>
      <trkpt lat="44.4875" lon="6.24441">
        <ele>1212</ele>
        <time>2023-04-21T10:41:38.000Z</time>
      </trkpt>
      <trkpt lat="44.48751" lon="6.24443">
        <ele>1212</ele>
        <time>2023-04-21T10:41:39.000Z</time>
      </trkpt>
      <trkpt lat="44.48753" lon="6.24448">
        <ele>1214</ele>
        <time>2023-04-21T10:41:40.000Z</time>
      </trkpt>
      <trkpt lat="44.48755" lon="6.24451">
        <ele>1214</ele>
        <time>2023-04-21T10:41:41.000Z</time>
      </trkpt>
      <trkpt lat="44.48757" lon="6.24454">
        <ele>1215</ele>
        <time>2023-04-21T10:41:42.000Z</time>
      </trkpt>
      <trkpt lat="44.48758" lon="6.24457">
        <ele>1216</ele>
        <time>2023-04-21T10:41:43.000Z</time>
      </trkpt>
      <trkpt lat="44.4876" lon="6.2446">
        <ele>1217</ele>
        <time>2023-04-21T10:41:44.000Z</time>
      </trkpt>
      <trkpt lat="44.48762" lon="6.24463">
        <ele>1218</ele>
        <time>2023-04-21T10:41:45.000Z</time>
      </trkpt>
      <trkpt lat="44.48764" lon="6.24465">
        <ele>1218</ele>
        <time>2023-04-21T10:41:46.000Z</time>
      </trkpt>
      <trkpt lat="44.48765" lon="6.24468">
        <ele>1219</ele>
        <time>2023-04-21T10:41:47.000Z</time>
      </trkpt>
      <trkpt lat="44.48767" lon="6.2447">
        <ele>1219</ele>
        <time>2023-04-21T10:41:48.000Z</time>
      </trkpt>
      <trkpt lat="44.48769" lon="6.24472">
        <ele>1220</ele>
        <time>2023-04-21T10:41:49.000Z</time>
      </trkpt>
      <trkpt lat="44.48771" lon="6.24474">
        <ele>1221</ele>
        <time>2023-04-21T10:41:50.000Z</time>
      </trkpt>
      <trkpt lat="44.48773" lon="6.24476">
        <ele>1221</ele>
        <time>2023-04-21T10:41:51.000Z</time>
      </trkpt>
      <trkpt lat="44.48775" lon="6.24478">
        <ele>1221</ele>
        <time>2023-04-21T10:41:52.000Z</time>
      </trkpt>
      <trkpt lat="44.48777" lon="6.24481">
        <ele>1221</ele>
        <time>2023-04-21T10:41:53.000Z</time>
      </trkpt>
      <trkpt lat="44.48778" lon="6.24482">
        <ele>1221</ele>
        <time>2023-04-21T10:41:54.000Z</time>
      </trkpt>
      <trkpt lat="44.4878" lon="6.24483">
        <ele>1222</ele>
        <time>2023-04-21T10:41:55.000Z</time>
      </trkpt>
      <trkpt lat="44.48782" lon="6.24485">
        <ele>1223</ele>
        <time>2023-04-21T10:41:56.000Z</time>
      </trkpt>
      <trkpt lat="44.48784" lon="6.24487">
        <ele>1223</ele>
        <time>2023-04-21T10:41:57.000Z</time>
      </trkpt>
      <trkpt lat="44.48786" lon="6.24489">
        <ele>1223</ele>
        <time>2023-04-21T10:41:58.000Z</time>
      </trkpt>
      <trkpt lat="44.48788" lon="6.24491">
        <ele>1222</ele>
        <time>2023-04-21T10:41:59.000Z</time>
      </trkpt>
      <trkpt lat="44.4879" lon="6.24494">
        <ele>1223</ele>
        <time>2023-04-21T10:42:00.000Z</time>
      </trkpt>
      <trkpt lat="44.48792" lon="6.24496">
        <ele>1224</ele>
        <time>2023-04-21T10:42:01.000Z</time>
      </trkpt>
      <trkpt lat="44.48794" lon="6.24498">
        <ele>1224</ele>
        <time>2023-04-21T10:42:02.000Z</time>
      </trkpt>
      <trkpt lat="44.48795" lon="6.245">
        <ele>1224</ele>
        <time>2023-04-21T10:42:03.000Z</time>
      </trkpt>
      <trkpt lat="44.48797" lon="6.24502">
        <ele>1224</ele>
        <time>2023-04-21T10:42:04.000Z</time>
      </trkpt>
      <trkpt lat="44.48799" lon="6.24504">
        <ele>1224</ele>
        <time>2023-04-21T10:42:05.000Z</time>
      </trkpt>
      <trkpt lat="44.48801" lon="6.24506">
        <ele>1224</ele>
        <time>2023-04-21T10:42:06.000Z</time>
      </trkpt>
      <trkpt lat="44.48802" lon="6.24509">
        <ele>1224</ele>
        <time>2023-04-21T10:42:07.000Z</time>
      </trkpt>
      <trkpt lat="44.48804" lon="6.24511">
        <ele>1223</ele>
        <time>2023-04-21T10:42:08.000Z</time>
      </trkpt>
      <trkpt lat="44.48805" lon="6.24513">
        <ele>1223</ele>
        <time>2023-04-21T10:42:09.000Z</time>
      </trkpt>
      <trkpt lat="44.48807" lon="6.24517">
        <ele>1224</ele>
        <time>2023-04-21T10:42:10.000Z</time>
      </trkpt>
      <trkpt lat="44.48809" lon="6.2452">
        <ele>1224</ele>
        <time>2023-04-21T10:42:11.000Z</time>
      </trkpt>
      <trkpt lat="44.4881" lon="6.24524">
        <ele>1224</ele>
        <time>2023-04-21T10:42:12.000Z</time>
      </trkpt>
      <trkpt lat="44.48812" lon="6.24527">
        <ele>1224</ele>
        <time>2023-04-21T10:42:13.000Z</time>
      </trkpt>
      <trkpt lat="44.48814" lon="6.2453">
        <ele>1223</ele>
        <time>2023-04-21T10:42:14.000Z</time>
      </trkpt>
      <trkpt lat="44.48815" lon="6.24532">
        <ele>1223</ele>
        <time>2023-04-21T10:42:15.000Z</time>
      </trkpt>
      <trkpt lat="44.48817" lon="6.24535">
        <ele>1222</ele>
        <time>2023-04-21T10:42:16.000Z</time>
      </trkpt>
      <trkpt lat="44.48818" lon="6.24538">
        <ele>1223</ele>
        <time>2023-04-21T10:42:17.000Z</time>
      </trkpt>
      <trkpt lat="44.4882" lon="6.24541">
        <ele>1222</ele>
        <time>2023-04-21T10:42:18.000Z</time>
      </trkpt>
      <trkpt lat="44.48822" lon="6.24544">
        <ele>1222</ele>
        <time>2023-04-21T10:42:19.000Z</time>
      </trkpt>
      <trkpt lat="44.48824" lon="6.24548">
        <ele>1222</ele>
        <time>2023-04-21T10:42:20.000Z</time>
      </trkpt>
      <trkpt lat="44.48827" lon="6.24551">
        <ele>1223</ele>
        <time>2023-04-21T10:42:21.000Z</time>
      </trkpt>
      <trkpt lat="44.48829" lon="6.24554">
        <ele>1222</ele>
        <time>2023-04-21T10:42:22.000Z</time>
      </trkpt>
      <trkpt lat="44.48831" lon="6.24557">
        <ele>1221</ele>
        <time>2023-04-21T10:42:23.000Z</time>
      </trkpt>
      <trkpt lat="44.48834" lon="6.2456">
        <ele>1221</ele>
        <time>2023-04-21T10:42:24.000Z</time>
      </trkpt>
      <trkpt lat="44.48836" lon="6.24563">
        <ele>1220</ele>
        <time>2023-04-21T10:42:25.000Z</time>
      </trkpt>
      <trkpt lat="44.48838" lon="6.24566">
        <ele>1220</ele>
        <time>2023-04-21T10:42:26.000Z</time>
      </trkpt>
      <trkpt lat="44.48841" lon="6.24568">
        <ele>1220</ele>
        <time>2023-04-21T10:42:27.000Z</time>
      </trkpt>
      <trkpt lat="44.48844" lon="6.24571">
        <ele>1220</ele>
        <time>2023-04-21T10:42:28.000Z</time>
      </trkpt>
      <trkpt lat="44.48846" lon="6.24573">
        <ele>1221</ele>
        <time>2023-04-21T10:42:29.000Z</time>
      </trkpt>
      <trkpt lat="44.48849" lon="6.24575">
        <ele>1221</ele>
        <time>2023-04-21T10:42:30.000Z</time>
      </trkpt>
      <trkpt lat="44.48851" lon="6.24578">
        <ele>1221</ele>
        <time>2023-04-21T10:42:31.000Z</time>
      </trkpt>
      <trkpt lat="44.48853" lon="6.2458">
        <ele>1221</ele>
        <time>2023-04-21T10:42:32.000Z</time>
      </trkpt>
      <trkpt lat="44.48855" lon="6.24583">
        <ele>1221</ele>
        <time>2023-04-21T10:42:33.000Z</time>
      </trkpt>
      <trkpt lat="44.48857" lon="6.24586">
        <ele>1220</ele>
        <time>2023-04-21T10:42:34.000Z</time>
      </trkpt>
      <trkpt lat="44.48859" lon="6.24589">
        <ele>1220</ele>
        <time>2023-04-21T10:42:35.000Z</time>
      </trkpt>
      <trkpt lat="44.48861" lon="6.24593">
        <ele>1220</ele>
        <time>2023-04-21T10:42:36.000Z</time>
      </trkpt>
      <trkpt lat="44.48863" lon="6.24596">
        <ele>1220</ele>
        <time>2023-04-21T10:42:37.000Z</time>
      </trkpt>
      <trkpt lat="44.48865" lon="6.24598">
        <ele>1220</ele>
        <time>2023-04-21T10:42:38.000Z</time>
      </trkpt>
      <trkpt lat="44.48867" lon="6.24601">
        <ele>1220</ele>
        <time>2023-04-21T10:42:39.000Z</time>
      </trkpt>
      <trkpt lat="44.4887" lon="6.24604">
        <ele>1221</ele>
        <time>2023-04-21T10:42:40.000Z</time>
      </trkpt>
      <trkpt lat="44.48871" lon="6.24606">
        <ele>1221</ele>
        <time>2023-04-21T10:42:41.000Z</time>
      </trkpt>
      <trkpt lat="44.48874" lon="6.24609">
        <ele>1221</ele>
        <time>2023-04-21T10:42:42.000Z</time>
      </trkpt>
      <trkpt lat="44.48876" lon="6.24611">
        <ele>1221</ele>
        <time>2023-04-21T10:42:43.000Z</time>
      </trkpt>
      <trkpt lat="44.48879" lon="6.24614">
        <ele>1222</ele>
        <time>2023-04-21T10:42:44.000Z</time>
      </trkpt>
      <trkpt lat="44.48881" lon="6.24616">
        <ele>1222</ele>
        <time>2023-04-21T10:42:45.000Z</time>
      </trkpt>
      <trkpt lat="44.48883" lon="6.24618">
        <ele>1222</ele>
        <time>2023-04-21T10:42:46.000Z</time>
      </trkpt>
      <trkpt lat="44.48885" lon="6.2462">
        <ele>1222</ele>
        <time>2023-04-21T10:42:47.000Z</time>
      </trkpt>
      <trkpt lat="44.48888" lon="6.24622">
        <ele>1223</ele>
        <time>2023-04-21T10:42:48.000Z</time>
      </trkpt>
      <trkpt lat="44.4889" lon="6.24624">
        <ele>1224</ele>
        <time>2023-04-21T10:42:49.000Z</time>
      </trkpt>
      <trkpt lat="44.48892" lon="6.24625">
        <ele>1224</ele>
        <time>2023-04-21T10:42:50.000Z</time>
      </trkpt>
      <trkpt lat="44.48894" lon="6.24626">
        <ele>1225</ele>
        <time>2023-04-21T10:42:51.000Z</time>
      </trkpt>
      <trkpt lat="44.48896" lon="6.24627">
        <ele>1225</ele>
        <time>2023-04-21T10:42:52.000Z</time>
      </trkpt>
      <trkpt lat="44.48899" lon="6.24629">
        <ele>1225</ele>
        <time>2023-04-21T10:42:53.000Z</time>
      </trkpt>
      <trkpt lat="44.48901" lon="6.2463">
        <ele>1225</ele>
        <time>2023-04-21T10:42:54.000Z</time>
      </trkpt>
      <trkpt lat="44.48903" lon="6.24632">
        <ele>1225</ele>
        <time>2023-04-21T10:42:55.000Z</time>
      </trkpt>
      <trkpt lat="44.48905" lon="6.24635">
        <ele>1225</ele>
        <time>2023-04-21T10:42:56.000Z</time>
      </trkpt>
      <trkpt lat="44.48907" lon="6.24638">
        <ele>1226</ele>
        <time>2023-04-21T10:42:57.000Z</time>
      </trkpt>
      <trkpt lat="44.48909" lon="6.24642">
        <ele>1228</ele>
        <time>2023-04-21T10:42:58.000Z</time>
      </trkpt>
      <trkpt lat="44.48911" lon="6.24645">
        <ele>1228</ele>
        <time>2023-04-21T10:42:59.000Z</time>
      </trkpt>
      <trkpt lat="44.48913" lon="6.24649">
        <ele>1229</ele>
        <time>2023-04-21T10:43:00.000Z</time>
      </trkpt>
      <trkpt lat="44.48915" lon="6.24652">
        <ele>1229</ele>
        <time>2023-04-21T10:43:01.000Z</time>
      </trkpt>
      <trkpt lat="44.48917" lon="6.24655">
        <ele>1229</ele>
        <time>2023-04-21T10:43:02.000Z</time>
      </trkpt>
      <trkpt lat="44.48919" lon="6.24657">
        <ele>1230</ele>
        <time>2023-04-21T10:43:03.000Z</time>
      </trkpt>
      <trkpt lat="44.48921" lon="6.2466">
        <ele>1230</ele>
        <time>2023-04-21T10:43:04.000Z</time>
      </trkpt>
      <trkpt lat="44.48923" lon="6.24662">
        <ele>1229</ele>
        <time>2023-04-21T10:43:05.000Z</time>
      </trkpt>
      <trkpt lat="44.48925" lon="6.24664">
        <ele>1228</ele>
        <time>2023-04-21T10:43:06.000Z</time>
      </trkpt>
      <trkpt lat="44.48927" lon="6.24666">
        <ele>1229</ele>
        <time>2023-04-21T10:43:07.000Z</time>
      </trkpt>
      <trkpt lat="44.48929" lon="6.24668">
        <ele>1229</ele>
        <time>2023-04-21T10:43:08.000Z</time>
      </trkpt>
      <trkpt lat="44.48932" lon="6.2467">
        <ele>1230</ele>
        <time>2023-04-21T10:43:09.000Z</time>
      </trkpt>
      <trkpt lat="44.48934" lon="6.24672">
        <ele>1231</ele>
        <time>2023-04-21T10:43:10.000Z</time>
      </trkpt>
      <trkpt lat="44.48936" lon="6.24675">
        <ele>1230</ele>
        <time>2023-04-21T10:43:11.000Z</time>
      </trkpt>
      <trkpt lat="44.48938" lon="6.24677">
        <ele>1231</ele>
        <time>2023-04-21T10:43:12.000Z</time>
      </trkpt>
      <trkpt lat="44.48941" lon="6.24679">
        <ele>1231</ele>
        <time>2023-04-21T10:43:13.000Z</time>
      </trkpt>
      <trkpt lat="44.48943" lon="6.24681">
        <ele>1231</ele>
        <time>2023-04-21T10:43:14.000Z</time>
      </trkpt>
      <trkpt lat="44.48946" lon="6.24682">
        <ele>1230</ele>
        <time>2023-04-21T10:43:15.000Z</time>
      </trkpt>
      <trkpt lat="44.48948" lon="6.24683">
        <ele>1231</ele>
        <time>2023-04-21T10:43:16.000Z</time>
      </trkpt>
      <trkpt lat="44.48951" lon="6.24684">
        <ele>1232</ele>
        <time>2023-04-21T10:43:17.000Z</time>
      </trkpt>
      <trkpt lat="44.48953" lon="6.24685">
        <ele>1233</ele>
        <time>2023-04-21T10:43:18.000Z</time>
      </trkpt>
      <trkpt lat="44.48955" lon="6.24686">
        <ele>1233</ele>
        <time>2023-04-21T10:43:19.000Z</time>
      </trkpt>
      <trkpt lat="44.48958" lon="6.24688">
        <ele>1233</ele>
        <time>2023-04-21T10:43:20.000Z</time>
      </trkpt>
      <trkpt lat="44.4896" lon="6.24689">
        <ele>1233</ele>
        <time>2023-04-21T10:43:21.000Z</time>
      </trkpt>
      <trkpt lat="44.48963" lon="6.24691">
        <ele>1233</ele>
        <time>2023-04-21T10:43:22.000Z</time>
      </trkpt>
      <trkpt lat="44.48965" lon="6.24692">
        <ele>1233</ele>
        <time>2023-04-21T10:43:23.000Z</time>
      </trkpt>
      <trkpt lat="44.48967" lon="6.24694">
        <ele>1233</ele>
        <time>2023-04-21T10:43:24.000Z</time>
      </trkpt>
      <trkpt lat="44.48969" lon="6.24696">
        <ele>1232</ele>
        <time>2023-04-21T10:43:25.000Z</time>
      </trkpt>
      <trkpt lat="44.48971" lon="6.24698">
        <ele>1232</ele>
        <time>2023-04-21T10:43:26.000Z</time>
      </trkpt>
      <trkpt lat="44.48973" lon="6.24699">
        <ele>1232</ele>
        <time>2023-04-21T10:43:27.000Z</time>
      </trkpt>
      <trkpt lat="44.48975" lon="6.24701">
        <ele>1232</ele>
        <time>2023-04-21T10:43:28.000Z</time>
      </trkpt>
      <trkpt lat="44.48977" lon="6.24703">
        <ele>1232</ele>
        <time>2023-04-21T10:43:29.000Z</time>
      </trkpt>
      <trkpt lat="44.4898" lon="6.24705">
        <ele>1233</ele>
        <time>2023-04-21T10:43:30.000Z</time>
      </trkpt>
      <trkpt lat="44.48982" lon="6.24707">
        <ele>1233</ele>
        <time>2023-04-21T10:43:31.000Z</time>
      </trkpt>
      <trkpt lat="44.48984" lon="6.24709">
        <ele>1233</ele>
        <time>2023-04-21T10:43:32.000Z</time>
      </trkpt>
      <trkpt lat="44.48986" lon="6.24711">
        <ele>1233</ele>
        <time>2023-04-21T10:43:33.000Z</time>
      </trkpt>
      <trkpt lat="44.48988" lon="6.24714">
        <ele>1234</ele>
        <time>2023-04-21T10:43:34.000Z</time>
      </trkpt>
      <trkpt lat="44.48991" lon="6.24716">
        <ele>1234</ele>
        <time>2023-04-21T10:43:35.000Z</time>
      </trkpt>
      <trkpt lat="44.48993" lon="6.24719">
        <ele>1235</ele>
        <time>2023-04-21T10:43:36.000Z</time>
      </trkpt>
      <trkpt lat="44.48995" lon="6.24721">
        <ele>1235</ele>
        <time>2023-04-21T10:43:37.000Z</time>
      </trkpt>
      <trkpt lat="44.48997" lon="6.24723">
        <ele>1235</ele>
        <time>2023-04-21T10:43:38.000Z</time>
      </trkpt>
      <trkpt lat="44.48999" lon="6.24725">
        <ele>1236</ele>
        <time>2023-04-21T10:43:39.000Z</time>
      </trkpt>
      <trkpt lat="44.49001" lon="6.24728">
        <ele>1236</ele>
        <time>2023-04-21T10:43:40.000Z</time>
      </trkpt>
      <trkpt lat="44.49003" lon="6.2473">
        <ele>1236</ele>
        <time>2023-04-21T10:43:41.000Z</time>
      </trkpt>
      <trkpt lat="44.49005" lon="6.24733">
        <ele>1236</ele>
        <time>2023-04-21T10:43:42.000Z</time>
      </trkpt>
      <trkpt lat="44.49006" lon="6.24734">
        <ele>1236</ele>
        <time>2023-04-21T10:43:43.000Z</time>
      </trkpt>
      <trkpt lat="44.49009" lon="6.24736">
        <ele>1236</ele>
        <time>2023-04-21T10:43:44.000Z</time>
      </trkpt>
      <trkpt lat="44.49011" lon="6.24738">
        <ele>1235</ele>
        <time>2023-04-21T10:43:45.000Z</time>
      </trkpt>
      <trkpt lat="44.49013" lon="6.24739">
        <ele>1235</ele>
        <time>2023-04-21T10:43:46.000Z</time>
      </trkpt>
      <trkpt lat="44.49015" lon="6.24741">
        <ele>1236</ele>
        <time>2023-04-21T10:43:47.000Z</time>
      </trkpt>
      <trkpt lat="44.49017" lon="6.24741">
        <ele>1236</ele>
        <time>2023-04-21T10:43:48.000Z</time>
      </trkpt>
      <trkpt lat="44.4902" lon="6.24742">
        <ele>1236</ele>
        <time>2023-04-21T10:43:49.000Z</time>
      </trkpt>
      <trkpt lat="44.49022" lon="6.24742">
        <ele>1237</ele>
        <time>2023-04-21T10:43:50.000Z</time>
      </trkpt>
      <trkpt lat="44.49024" lon="6.24743">
        <ele>1237</ele>
        <time>2023-04-21T10:43:51.000Z</time>
      </trkpt>
      <trkpt lat="44.49026" lon="6.24744">
        <ele>1238</ele>
        <time>2023-04-21T10:43:52.000Z</time>
      </trkpt>
      <trkpt lat="44.49027" lon="6.24744">
        <ele>1239</ele>
        <time>2023-04-21T10:43:53.000Z</time>
      </trkpt>
      <trkpt lat="44.49028" lon="6.24745">
        <ele>1239</ele>
        <time>2023-04-21T10:43:54.000Z</time>
      </trkpt>
      <trkpt lat="44.49029" lon="6.24746">
        <ele>1239</ele>
        <time>2023-04-21T10:43:55.000Z</time>
      </trkpt>
      <trkpt lat="44.49028" lon="6.24747">
        <ele>1239</ele>
        <time>2023-04-21T10:43:56.000Z</time>
      </trkpt>
      <trkpt lat="44.49028" lon="6.24747">
        <ele>1239</ele>
        <time>2023-04-21T10:43:57.000Z</time>
      </trkpt>
      <trkpt lat="44.49029" lon="6.24747">
        <ele>1240</ele>
        <time>2023-04-21T10:43:58.000Z</time>
      </trkpt>
      <trkpt lat="44.49029" lon="6.24747">
        <ele>1240</ele>
        <time>2023-04-21T10:43:59.000Z</time>
      </trkpt>
      <trkpt lat="44.4903" lon="6.24747">
        <ele>1239</ele>
        <time>2023-04-21T10:44:00.000Z</time>
      </trkpt>
      <trkpt lat="44.4903" lon="6.24747">
        <ele>1241</ele>
        <time>2023-04-21T10:44:01.000Z</time>
      </trkpt>
      <trkpt lat="44.4903" lon="6.24747">
        <ele>1242</ele>
        <time>2023-04-21T10:44:02.000Z</time>
      </trkpt>
      <trkpt lat="44.49031" lon="6.24747">
        <ele>1241</ele>
        <time>2023-04-21T10:44:03.000Z</time>
      </trkpt>
      <trkpt lat="44.49031" lon="6.24747">
        <ele>1240</ele>
        <time>2023-04-21T10:44:04.000Z</time>
      </trkpt>
      <trkpt lat="44.49031" lon="6.24747">
        <ele>1239</ele>
        <time>2023-04-21T10:44:05.000Z</time>
      </trkpt>
      <trkpt lat="44.49031" lon="6.24747">
        <ele>1239</ele>
        <time>2023-04-21T10:44:06.000Z</time>
      </trkpt>
      <trkpt lat="44.49031" lon="6.24747">
        <ele>1238</ele>
        <time>2023-04-21T10:44:07.000Z</time>
      </trkpt>
      <trkpt lat="44.49031" lon="6.24746">
        <ele>1238</ele>
        <time>2023-04-21T10:44:08.000Z</time>
      </trkpt>
      <trkpt lat="44.49031" lon="6.24746">
        <ele>1238</ele>
        <time>2023-04-21T10:44:09.000Z</time>
      </trkpt>
      <trkpt lat="44.49031" lon="6.24746">
        <ele>1237</ele>
        <time>2023-04-21T10:44:10.000Z</time>
      </trkpt>
      <trkpt lat="44.49031" lon="6.24746">
        <ele>1237</ele>
        <time>2023-04-21T10:44:11.000Z</time>
      </trkpt>
      <trkpt lat="44.49032" lon="6.24746">
        <ele>1236</ele>
        <time>2023-04-21T10:44:12.000Z</time>
      </trkpt>
      <trkpt lat="44.49032" lon="6.24746">
        <ele>1236</ele>
        <time>2023-04-21T10:44:13.000Z</time>
      </trkpt>
      <trkpt lat="44.49032" lon="6.24746">
        <ele>1235</ele>
        <time>2023-04-21T10:44:14.000Z</time>
      </trkpt>
      <trkpt lat="44.49032" lon="6.24746">
        <ele>1235</ele>
        <time>2023-04-21T10:44:15.000Z</time>
      </trkpt>
      <trkpt lat="44.49032" lon="6.24746">
        <ele>1235</ele>
        <time>2023-04-21T10:44:16.000Z</time>
      </trkpt>
      <trkpt lat="44.49032" lon="6.24746">
        <ele>1234</ele>
        <time>2023-04-21T10:44:17.000Z</time>
      </trkpt>
      <trkpt lat="44.49032" lon="6.24746">
        <ele>1234</ele>
        <time>2023-04-21T10:44:18.000Z</time>
      </trkpt>
      <trkpt lat="44.49032" lon="6.24746">
        <ele>1233</ele>
        <time>2023-04-21T10:44:19.000Z</time>
      </trkpt>
      <trkpt lat="44.49032" lon="6.24745">
        <ele>1233</ele>
        <time>2023-04-21T10:44:20.000Z</time>
      </trkpt>
      <trkpt lat="44.49032" lon="6.24745">
        <ele>1233</ele>
        <time>2023-04-21T10:44:21.000Z</time>
      </trkpt>
      <trkpt lat="44.49032" lon="6.24745">
        <ele>1232</ele>
        <time>2023-04-21T10:44:22.000Z</time>
      </trkpt>
      <trkpt lat="44.49032" lon="6.24745">
        <ele>1232</ele>
        <time>2023-04-21T10:44:23.000Z</time>
      </trkpt>
      <trkpt lat="44.49032" lon="6.24745">
        <ele>1232</ele>
        <time>2023-04-21T10:44:24.000Z</time>
      </trkpt>
      <trkpt lat="44.49033" lon="6.24745">
        <ele>1231</ele>
        <time>2023-04-21T10:44:25.000Z</time>
      </trkpt>
      <trkpt lat="44.49033" lon="6.24745">
        <ele>1231</ele>
        <time>2023-04-21T10:44:26.000Z</time>
      </trkpt>
      <trkpt lat="44.49033" lon="6.24745">
        <ele>1230</ele>
        <time>2023-04-21T10:44:27.000Z</time>
      </trkpt>
      <trkpt lat="44.49033" lon="6.24745">
        <ele>1230</ele>
        <time>2023-04-21T10:44:28.000Z</time>
      </trkpt>
      <trkpt lat="44.49033" lon="6.24745">
        <ele>1229</ele>
        <time>2023-04-21T10:44:29.000Z</time>
      </trkpt>
      <trkpt lat="44.49033" lon="6.24746">
        <ele>1229</ele>
        <time>2023-04-21T10:44:30.000Z</time>
      </trkpt>
      <trkpt lat="44.49033" lon="6.24746">
        <ele>1229</ele>
        <time>2023-04-21T10:44:31.000Z</time>
      </trkpt>
      <trkpt lat="44.49033" lon="6.24746">
        <ele>1229</ele>
        <time>2023-04-21T10:44:32.000Z</time>
      </trkpt>
      <trkpt lat="44.49033" lon="6.24746">
        <ele>1229</ele>
        <time>2023-04-21T10:44:33.000Z</time>
      </trkpt>
      <trkpt lat="44.49033" lon="6.24746">
        <ele>1228</ele>
        <time>2023-04-21T10:44:34.000Z</time>
      </trkpt>
      <trkpt lat="44.49033" lon="6.24746">
        <ele>1228</ele>
        <time>2023-04-21T10:44:35.000Z</time>
      </trkpt>
      <trkpt lat="44.49033" lon="6.24746">
        <ele>1228</ele>
        <time>2023-04-21T10:44:36.000Z</time>
      </trkpt>
      <trkpt lat="44.49033" lon="6.24746">
        <ele>1228</ele>
        <time>2023-04-21T10:44:37.000Z</time>
      </trkpt>
      <trkpt lat="44.49033" lon="6.24746">
        <ele>1228</ele>
        <time>2023-04-21T10:44:38.000Z</time>
      </trkpt>
      <trkpt lat="44.49033" lon="6.24746">
        <ele>1228</ele>
        <time>2023-04-21T10:44:39.000Z</time>
      </trkpt>
      <trkpt lat="44.49033" lon="6.24746">
        <ele>1228</ele>
        <time>2023-04-21T10:44:40.000Z</time>
      </trkpt>
      <trkpt lat="44.49033" lon="6.24746">
        <ele>1228</ele>
        <time>2023-04-21T10:44:41.000Z</time>
      </trkpt>
      <trkpt lat="44.49033" lon="6.24746">
        <ele>1227</ele>
        <time>2023-04-21T10:44:42.000Z</time>
      </trkpt>
      <trkpt lat="44.49034" lon="6.24746">
        <ele>1227</ele>
        <time>2023-04-21T10:44:43.000Z</time>
      </trkpt>
      <trkpt lat="44.49034" lon="6.24746">
        <ele>1227</ele>
        <time>2023-04-21T10:44:44.000Z</time>
      </trkpt>
      <trkpt lat="44.49034" lon="6.24746">
        <ele>1226</ele>
        <time>2023-04-21T10:44:45.000Z</time>
      </trkpt>
      <trkpt lat="44.49034" lon="6.24746">
        <ele>1226</ele>
        <time>2023-04-21T10:44:46.000Z</time>
      </trkpt>
      <trkpt lat="44.49034" lon="6.24746">
        <ele>1226</ele>
        <time>2023-04-21T10:44:47.000Z</time>
      </trkpt>
      <trkpt lat="44.49034" lon="6.24746">
        <ele>1225</ele>
        <time>2023-04-21T10:44:48.000Z</time>
      </trkpt>
      <trkpt lat="44.49034" lon="6.24746">
        <ele>1225</ele>
        <time>2023-04-21T10:44:49.000Z</time>
      </trkpt>
      <trkpt lat="44.49034" lon="6.24746">
        <ele>1225</ele>
        <time>2023-04-21T10:44:50.000Z</time>
      </trkpt>
      <trkpt lat="44.49034" lon="6.24746">
        <ele>1224</ele>
        <time>2023-04-21T10:44:51.000Z</time>
      </trkpt>
      <trkpt lat="44.49034" lon="6.24746">
        <ele>1224</ele>
        <time>2023-04-21T10:44:52.000Z</time>
      </trkpt>
      <trkpt lat="44.49034" lon="6.24746">
        <ele>1224</ele>
        <time>2023-04-21T10:44:53.000Z</time>
      </trkpt>
      <trkpt lat="44.49034" lon="6.24746">
        <ele>1224</ele>
        <time>2023-04-21T10:44:54.000Z</time>
      </trkpt>
      <trkpt lat="44.49034" lon="6.24746">
        <ele>1223</ele>
        <time>2023-04-21T10:44:55.000Z</time>
      </trkpt>
      <trkpt lat="44.49034" lon="6.24746">
        <ele>1223</ele>
        <time>2023-04-21T10:44:56.000Z</time>
      </trkpt>
      <trkpt lat="44.49034" lon="6.24746">
        <ele>1223</ele>
        <time>2023-04-21T10:44:57.000Z</time>
      </trkpt>
      <trkpt lat="44.49034" lon="6.24746">
        <ele>1222</ele>
        <time>2023-04-21T10:44:58.000Z</time>
      </trkpt>
      <trkpt lat="44.49035" lon="6.24746">
        <ele>1222</ele>
        <time>2023-04-21T10:44:59.000Z</time>
      </trkpt>
      <trkpt lat="44.49035" lon="6.24746">
        <ele>1222</ele>
        <time>2023-04-21T10:45:00.000Z</time>
      </trkpt>
      <trkpt lat="44.49035" lon="6.24746">
        <ele>1222</ele>
        <time>2023-04-21T10:45:01.000Z</time>
      </trkpt>
      <trkpt lat="44.49035" lon="6.24746">
        <ele>1222</ele>
        <time>2023-04-21T10:45:02.000Z</time>
      </trkpt>
      <trkpt lat="44.49035" lon="6.24746">
        <ele>1222</ele>
        <time>2023-04-21T10:45:03.000Z</time>
      </trkpt>
      <trkpt lat="44.49035" lon="6.24746">
        <ele>1222</ele>
        <time>2023-04-21T10:45:04.000Z</time>
      </trkpt>
      <trkpt lat="44.49035" lon="6.24745">
        <ele>1222</ele>
        <time>2023-04-21T10:45:05.000Z</time>
      </trkpt>
      <trkpt lat="44.49035" lon="6.24745">
        <ele>1221</ele>
        <time>2023-04-21T10:45:06.000Z</time>
      </trkpt>
      <trkpt lat="44.49035" lon="6.24745">
        <ele>1222</ele>
        <time>2023-04-21T10:45:07.000Z</time>
      </trkpt>
      <trkpt lat="44.49035" lon="6.24745">
        <ele>1221</ele>
        <time>2023-04-21T10:45:08.000Z</time>
      </trkpt>
      <trkpt lat="44.49035" lon="6.24745">
        <ele>1221</ele>
        <time>2023-04-21T10:45:09.000Z</time>
      </trkpt>
      <trkpt lat="44.49035" lon="6.24745">
        <ele>1221</ele>
        <time>2023-04-21T10:45:10.000Z</time>
      </trkpt>
      <trkpt lat="44.49035" lon="6.24745">
        <ele>1221</ele>
        <time>2023-04-21T10:45:11.000Z</time>
      </trkpt>
      <trkpt lat="44.49035" lon="6.24745">
        <ele>1221</ele>
        <time>2023-04-21T10:45:12.000Z</time>
      </trkpt>
      <trkpt lat="44.49035" lon="6.24745">
        <ele>1220</ele>
        <time>2023-04-21T10:45:13.000Z</time>
      </trkpt>
      <trkpt lat="44.49035" lon="6.24745">
        <ele>1220</ele>
        <time>2023-04-21T10:45:14.000Z</time>
      </trkpt>
      <trkpt lat="44.49035" lon="6.24745">
        <ele>1220</ele>
        <time>2023-04-21T10:45:15.000Z</time>
      </trkpt>
      <trkpt lat="44.49036" lon="6.24745">
        <ele>1220</ele>
        <time>2023-04-21T10:45:16.000Z</time>
      </trkpt>
      <trkpt lat="44.49036" lon="6.24745">
        <ele>1219</ele>
        <time>2023-04-21T10:45:17.000Z</time>
      </trkpt>
      <trkpt lat="44.49036" lon="6.24745">
        <ele>1219</ele>
        <time>2023-04-21T10:45:18.000Z</time>
      </trkpt>
      <trkpt lat="44.49036" lon="6.24745">
        <ele>1219</ele>
        <time>2023-04-21T10:45:19.000Z</time>
      </trkpt>
      <trkpt lat="44.49036" lon="6.24745">
        <ele>1219</ele>
        <time>2023-04-21T10:45:20.000Z</time>
      </trkpt>
      <trkpt lat="44.49036" lon="6.24745">
        <ele>1219</ele>
        <time>2023-04-21T10:45:21.000Z</time>
      </trkpt>
      <trkpt lat="44.49036" lon="6.24745">
        <ele>1219</ele>
        <time>2023-04-21T10:45:22.000Z</time>
      </trkpt>
      <trkpt lat="44.49036" lon="6.24745">
        <ele>1219</ele>
        <time>2023-04-21T10:45:23.000Z</time>
      </trkpt>
      <trkpt lat="44.49036" lon="6.24745">
        <ele>1219</ele>
        <time>2023-04-21T10:45:24.000Z</time>
      </trkpt>
      <trkpt lat="44.49036" lon="6.24745">
        <ele>1219</ele>
        <time>2023-04-21T10:45:25.000Z</time>
      </trkpt>
      <trkpt lat="44.49036" lon="6.24746">
        <ele>1219</ele>
        <time>2023-04-21T10:45:26.000Z</time>
      </trkpt>
      <trkpt lat="44.49036" lon="6.24746">
        <ele>1218</ele>
        <time>2023-04-21T10:45:27.000Z</time>
      </trkpt>
      <trkpt lat="44.49036" lon="6.24746">
        <ele>1218</ele>
        <time>2023-04-21T10:45:28.000Z</time>
      </trkpt>
      <trkpt lat="44.49036" lon="6.24746">
        <ele>1218</ele>
        <time>2023-04-21T10:45:29.000Z</time>
      </trkpt>
      <trkpt lat="44.49036" lon="6.24746">
        <ele>1218</ele>
        <time>2023-04-21T10:45:30.000Z</time>
      </trkpt>
      <trkpt lat="44.49036" lon="6.24746">
        <ele>1218</ele>
        <time>2023-04-21T10:45:31.000Z</time>
      </trkpt>
      <trkpt lat="44.49036" lon="6.24746">
        <ele>1218</ele>
        <time>2023-04-21T10:45:32.000Z</time>
      </trkpt>
      <trkpt lat="44.49036" lon="6.24746">
        <ele>1218</ele>
        <time>2023-04-21T10:45:33.000Z</time>
      </trkpt>
      <trkpt lat="44.49036" lon="6.24746">
        <ele>1218</ele>
        <time>2023-04-21T10:45:34.000Z</time>
      </trkpt>
      <trkpt lat="44.49036" lon="6.24746">
        <ele>1219</ele>
        <time>2023-04-21T10:45:35.000Z</time>
      </trkpt>
      <trkpt lat="44.49036" lon="6.24746">
        <ele>1219</ele>
        <time>2023-04-21T10:45:36.000Z</time>
      </trkpt>
      <trkpt lat="44.49036" lon="6.24746">
        <ele>1219</ele>
        <time>2023-04-21T10:45:37.000Z</time>
      </trkpt>
      <trkpt lat="44.49036" lon="6.24746">
        <ele>1219</ele>
        <time>2023-04-21T10:45:38.000Z</time>
      </trkpt>
      <trkpt lat="44.49036" lon="6.24746">
        <ele>1220</ele>
        <time>2023-04-21T10:45:39.000Z</time>
      </trkpt>
      <trkpt lat="44.49036" lon="6.24746">
        <ele>1220</ele>
        <time>2023-04-21T10:45:40.000Z</time>
      </trkpt>
      <trkpt lat="44.49036" lon="6.24746">
        <ele>1220</ele>
        <time>2023-04-21T10:45:41.000Z</time>
      </trkpt>
      <trkpt lat="44.49036" lon="6.24747">
        <ele>1221</ele>
        <time>2023-04-21T10:45:42.000Z</time>
      </trkpt>
      <trkpt lat="44.49036" lon="6.24747">
        <ele>1221</ele>
        <time>2023-04-21T10:45:43.000Z</time>
      </trkpt>
      <trkpt lat="44.49036" lon="6.24747">
        <ele>1221</ele>
        <time>2023-04-21T10:45:44.000Z</time>
      </trkpt>
      <trkpt lat="44.49036" lon="6.24747">
        <ele>1221</ele>
        <time>2023-04-21T10:45:45.000Z</time>
      </trkpt>
      <trkpt lat="44.49037" lon="6.24748">
        <ele>1221</ele>
        <time>2023-04-21T10:45:46.000Z</time>
      </trkpt>
      <trkpt lat="44.49038" lon="6.24749">
        <ele>1221</ele>
        <time>2023-04-21T10:45:47.000Z</time>
      </trkpt>
      <trkpt lat="44.49039" lon="6.24749">
        <ele>1222</ele>
        <time>2023-04-21T10:45:48.000Z</time>
      </trkpt>
      <trkpt lat="44.49041" lon="6.2475">
        <ele>1222</ele>
        <time>2023-04-21T10:45:49.000Z</time>
      </trkpt>
      <trkpt lat="44.49042" lon="6.24751">
        <ele>1222</ele>
        <time>2023-04-21T10:45:50.000Z</time>
      </trkpt>
      <trkpt lat="44.49044" lon="6.24752">
        <ele>1223</ele>
        <time>2023-04-21T10:45:51.000Z</time>
      </trkpt>
      <trkpt lat="44.49046" lon="6.24753">
        <ele>1222</ele>
        <time>2023-04-21T10:45:52.000Z</time>
      </trkpt>
      <trkpt lat="44.49049" lon="6.24754">
        <ele>1221</ele>
        <time>2023-04-21T10:45:53.000Z</time>
      </trkpt>
      <trkpt lat="44.49051" lon="6.24756">
        <ele>1222</ele>
        <time>2023-04-21T10:45:54.000Z</time>
      </trkpt>
      <trkpt lat="44.49054" lon="6.24758">
        <ele>1223</ele>
        <time>2023-04-21T10:45:55.000Z</time>
      </trkpt>
      <trkpt lat="44.49057" lon="6.2476">
        <ele>1223</ele>
        <time>2023-04-21T10:45:56.000Z</time>
      </trkpt>
      <trkpt lat="44.49062" lon="6.24763">
        <ele>1224</ele>
        <time>2023-04-21T10:45:57.000Z</time>
      </trkpt>
      <trkpt lat="44.49066" lon="6.24766">
        <ele>1225</ele>
        <time>2023-04-21T10:45:58.000Z</time>
      </trkpt>
      <trkpt lat="44.4907" lon="6.24769">
        <ele>1226</ele>
        <time>2023-04-21T10:45:59.000Z</time>
      </trkpt>
      <trkpt lat="44.49074" lon="6.24775">
        <ele>1226</ele>
        <time>2023-04-21T10:46:00.000Z</time>
      </trkpt>
      <trkpt lat="44.49078" lon="6.2478">
        <ele>1227</ele>
        <time>2023-04-21T10:46:01.000Z</time>
      </trkpt>
      <trkpt lat="44.49081" lon="6.24786">
        <ele>1229</ele>
        <time>2023-04-21T10:46:02.000Z</time>
      </trkpt>
      <trkpt lat="44.49085" lon="6.24793">
        <ele>1231</ele>
        <time>2023-04-21T10:46:03.000Z</time>
      </trkpt>
      <trkpt lat="44.49086" lon="6.24798">
        <ele>1233</ele>
        <time>2023-04-21T10:46:04.000Z</time>
      </trkpt>
      <trkpt lat="44.49089" lon="6.24803">
        <ele>1236</ele>
        <time>2023-04-21T10:46:05.000Z</time>
      </trkpt>
      <trkpt lat="44.49091" lon="6.24807">
        <ele>1240</ele>
        <time>2023-04-21T10:46:06.000Z</time>
      </trkpt>
      <trkpt lat="44.49093" lon="6.24811">
        <ele>1243</ele>
        <time>2023-04-21T10:46:07.000Z</time>
      </trkpt>
      <trkpt lat="44.49094" lon="6.24815">
        <ele>1246</ele>
        <time>2023-04-21T10:46:08.000Z</time>
      </trkpt>
      <trkpt lat="44.49095" lon="6.24819">
        <ele>1247</ele>
        <time>2023-04-21T10:46:09.000Z</time>
      </trkpt>
      <trkpt lat="44.49095" lon="6.24821">
        <ele>1249</ele>
        <time>2023-04-21T10:46:10.000Z</time>
      </trkpt>
      <trkpt lat="44.49096" lon="6.24824">
        <ele>1251</ele>
        <time>2023-04-21T10:46:11.000Z</time>
      </trkpt>
      <trkpt lat="44.49097" lon="6.24827">
        <ele>1254</ele>
        <time>2023-04-21T10:46:12.000Z</time>
      </trkpt>
      <trkpt lat="44.49098" lon="6.24832">
        <ele>1256</ele>
        <time>2023-04-21T10:46:13.000Z</time>
      </trkpt>
      <trkpt lat="44.49099" lon="6.24835">
        <ele>1258</ele>
        <time>2023-04-21T10:46:14.000Z</time>
      </trkpt>
      <trkpt lat="44.491" lon="6.24839">
        <ele>1260</ele>
        <time>2023-04-21T10:46:15.000Z</time>
      </trkpt>
      <trkpt lat="44.49101" lon="6.24842">
        <ele>1261</ele>
        <time>2023-04-21T10:46:16.000Z</time>
      </trkpt>
      <trkpt lat="44.49102" lon="6.24847">
        <ele>1260</ele>
        <time>2023-04-21T10:46:17.000Z</time>
      </trkpt>
      <trkpt lat="44.49103" lon="6.24852">
        <ele>1259</ele>
        <time>2023-04-21T10:46:18.000Z</time>
      </trkpt>
      <trkpt lat="44.49104" lon="6.24856">
        <ele>1257</ele>
        <time>2023-04-21T10:46:19.000Z</time>
      </trkpt>
      <trkpt lat="44.49105" lon="6.24861">
        <ele>1253</ele>
        <time>2023-04-21T10:46:20.000Z</time>
      </trkpt>
      <trkpt lat="44.49107" lon="6.24867">
        <ele>1249</ele>
        <time>2023-04-21T10:46:21.000Z</time>
      </trkpt>
      <trkpt lat="44.49109" lon="6.24872">
        <ele>1247</ele>
        <time>2023-04-21T10:46:22.000Z</time>
      </trkpt>
      <trkpt lat="44.4911" lon="6.24879">
        <ele>1245</ele>
        <time>2023-04-21T10:46:23.000Z</time>
      </trkpt>
      <trkpt lat="44.49111" lon="6.24884">
        <ele>1242</ele>
        <time>2023-04-21T10:46:24.000Z</time>
      </trkpt>
      <trkpt lat="44.49112" lon="6.2489">
        <ele>1241</ele>
        <time>2023-04-21T10:46:25.000Z</time>
      </trkpt>
      <trkpt lat="44.49113" lon="6.24896">
        <ele>1238</ele>
        <time>2023-04-21T10:46:26.000Z</time>
      </trkpt>
      <trkpt lat="44.49113" lon="6.24902">
        <ele>1236</ele>
        <time>2023-04-21T10:46:27.000Z</time>
      </trkpt>
      <trkpt lat="44.49114" lon="6.24908">
        <ele>1236</ele>
        <time>2023-04-21T10:46:28.000Z</time>
      </trkpt>
      <trkpt lat="44.49114" lon="6.24915">
        <ele>1237</ele>
        <time>2023-04-21T10:46:29.000Z</time>
      </trkpt>
      <trkpt lat="44.49114" lon="6.24922">
        <ele>1235</ele>
        <time>2023-04-21T10:46:30.000Z</time>
      </trkpt>
      <trkpt lat="44.49114" lon="6.2493">
        <ele>1233</ele>
        <time>2023-04-21T10:46:31.000Z</time>
      </trkpt>
      <trkpt lat="44.49115" lon="6.24937">
        <ele>1232</ele>
        <time>2023-04-21T10:46:32.000Z</time>
      </trkpt>
      <trkpt lat="44.49115" lon="6.24944">
        <ele>1232</ele>
        <time>2023-04-21T10:46:33.000Z</time>
      </trkpt>
      <trkpt lat="44.49116" lon="6.24949">
        <ele>1231</ele>
        <time>2023-04-21T10:46:34.000Z</time>
      </trkpt>
      <trkpt lat="44.49117" lon="6.24954">
        <ele>1231</ele>
        <time>2023-04-21T10:46:35.000Z</time>
      </trkpt>
      <trkpt lat="44.49118" lon="6.24957">
        <ele>1231</ele>
        <time>2023-04-21T10:46:36.000Z</time>
      </trkpt>
      <trkpt lat="44.49119" lon="6.2496">
        <ele>1231</ele>
        <time>2023-04-21T10:46:37.000Z</time>
      </trkpt>
      <trkpt lat="44.4912" lon="6.24962">
        <ele>1231</ele>
        <time>2023-04-21T10:46:38.000Z</time>
      </trkpt>
      <trkpt lat="44.4912" lon="6.24964">
        <ele>1231</ele>
        <time>2023-04-21T10:46:39.000Z</time>
      </trkpt>
      <trkpt lat="44.4912" lon="6.24967">
        <ele>1231</ele>
        <time>2023-04-21T10:46:40.000Z</time>
      </trkpt>
      <trkpt lat="44.49121" lon="6.2497">
        <ele>1230</ele>
        <time>2023-04-21T10:46:41.000Z</time>
      </trkpt>
      <trkpt lat="44.4912" lon="6.24972">
        <ele>1230</ele>
        <time>2023-04-21T10:46:42.000Z</time>
      </trkpt>
      <trkpt lat="44.4912" lon="6.24975">
        <ele>1230</ele>
        <time>2023-04-21T10:46:43.000Z</time>
      </trkpt>
      <trkpt lat="44.4912" lon="6.24976">
        <ele>1230</ele>
        <time>2023-04-21T10:46:44.000Z</time>
      </trkpt>
      <trkpt lat="44.4912" lon="6.24978">
        <ele>1229</ele>
        <time>2023-04-21T10:46:45.000Z</time>
      </trkpt>
      <trkpt lat="44.4912" lon="6.24977">
        <ele>1228</ele>
        <time>2023-04-21T10:46:46.000Z</time>
      </trkpt>
      <trkpt lat="44.4912" lon="6.24978">
        <ele>1228</ele>
        <time>2023-04-21T10:46:47.000Z</time>
      </trkpt>
      <trkpt lat="44.4912" lon="6.24978">
        <ele>1228</ele>
        <time>2023-04-21T10:46:48.000Z</time>
      </trkpt>
      <trkpt lat="44.4912" lon="6.24978">
        <ele>1228</ele>
        <time>2023-04-21T10:46:49.000Z</time>
      </trkpt>
      <trkpt lat="44.4912" lon="6.24978">
        <ele>1228</ele>
        <time>2023-04-21T10:46:50.000Z</time>
      </trkpt>
      <trkpt lat="44.4912" lon="6.24978">
        <ele>1227</ele>
        <time>2023-04-21T10:46:51.000Z</time>
      </trkpt>
      <trkpt lat="44.4912" lon="6.24978">
        <ele>1227</ele>
        <time>2023-04-21T10:46:52.000Z</time>
      </trkpt>
      <trkpt lat="44.4912" lon="6.24978">
        <ele>1227</ele>
        <time>2023-04-21T10:46:53.000Z</time>
      </trkpt>
      <trkpt lat="44.4912" lon="6.24978">
        <ele>1227</ele>
        <time>2023-04-21T10:46:54.000Z</time>
      </trkpt>
      <trkpt lat="44.4912" lon="6.24978">
        <ele>1227</ele>
        <time>2023-04-21T10:46:55.000Z</time>
      </trkpt>
      <trkpt lat="44.4912" lon="6.24979">
        <ele>1227</ele>
        <time>2023-04-21T10:46:56.000Z</time>
      </trkpt>
      <trkpt lat="44.4912" lon="6.24979">
        <ele>1227</ele>
        <time>2023-04-21T10:46:57.000Z</time>
      </trkpt>
      <trkpt lat="44.4912" lon="6.24979">
        <ele>1227</ele>
        <time>2023-04-21T10:46:58.000Z</time>
      </trkpt>
      <trkpt lat="44.4912" lon="6.24979">
        <ele>1227</ele>
        <time>2023-04-21T10:46:59.000Z</time>
      </trkpt>
      <trkpt lat="44.4912" lon="6.24979">
        <ele>1227</ele>
        <time>2023-04-21T10:47:00.000Z</time>
      </trkpt>
      <trkpt lat="44.4912" lon="6.24979">
        <ele>1227</ele>
        <time>2023-04-21T10:47:01.000Z</time>
      </trkpt>
      <trkpt lat="44.49119" lon="6.24979">
        <ele>1227</ele>
        <time>2023-04-21T10:47:02.000Z</time>
      </trkpt>
      <trkpt lat="44.49119" lon="6.24979">
        <ele>1227</ele>
        <time>2023-04-21T10:47:03.000Z</time>
      </trkpt>
      <trkpt lat="44.49119" lon="6.24979">
        <ele>1226</ele>
        <time>2023-04-21T10:47:04.000Z</time>
      </trkpt>
      <trkpt lat="44.49119" lon="6.24979">
        <ele>1226</ele>
        <time>2023-04-21T10:47:05.000Z</time>
      </trkpt>
      <trkpt lat="44.49119" lon="6.24979">
        <ele>1226</ele>
        <time>2023-04-21T10:47:06.000Z</time>
      </trkpt>
      <trkpt lat="44.49119" lon="6.2498">
        <ele>1226</ele>
        <time>2023-04-21T10:47:07.000Z</time>
      </trkpt>
      <trkpt lat="44.49119" lon="6.2498">
        <ele>1226</ele>
        <time>2023-04-21T10:47:08.000Z</time>
      </trkpt>
      <trkpt lat="44.49119" lon="6.2498">
        <ele>1226</ele>
        <time>2023-04-21T10:47:09.000Z</time>
      </trkpt>
      <trkpt lat="44.49119" lon="6.2498">
        <ele>1226</ele>
        <time>2023-04-21T10:47:10.000Z</time>
      </trkpt>
      <trkpt lat="44.49119" lon="6.2498">
        <ele>1226</ele>
        <time>2023-04-21T10:47:11.000Z</time>
      </trkpt>
      <trkpt lat="44.49118" lon="6.2498">
        <ele>1225</ele>
        <time>2023-04-21T10:47:12.000Z</time>
      </trkpt>
      <trkpt lat="44.49118" lon="6.2498">
        <ele>1225</ele>
        <time>2023-04-21T10:47:13.000Z</time>
      </trkpt>
      <trkpt lat="44.49118" lon="6.2498">
        <ele>1225</ele>
        <time>2023-04-21T10:47:14.000Z</time>
      </trkpt>
      <trkpt lat="44.49118" lon="6.2498">
        <ele>1225</ele>
        <time>2023-04-21T10:47:15.000Z</time>
      </trkpt>
      <trkpt lat="44.49118" lon="6.2498">
        <ele>1226</ele>
        <time>2023-04-21T10:47:16.000Z</time>
      </trkpt>
      <trkpt lat="44.49118" lon="6.2498">
        <ele>1226</ele>
        <time>2023-04-21T10:47:17.000Z</time>
      </trkpt>
      <trkpt lat="44.49118" lon="6.2498">
        <ele>1226</ele>
        <time>2023-04-21T10:47:18.000Z</time>
      </trkpt>
      <trkpt lat="44.49118" lon="6.2498">
        <ele>1226</ele>
        <time>2023-04-21T10:47:19.000Z</time>
      </trkpt>
      <trkpt lat="44.49118" lon="6.2498">
        <ele>1226</ele>
        <time>2023-04-21T10:47:20.000Z</time>
      </trkpt>
      <trkpt lat="44.49118" lon="6.2498">
        <ele>1225</ele>
        <time>2023-04-21T10:47:21.000Z</time>
      </trkpt>
      <trkpt lat="44.49118" lon="6.2498">
        <ele>1225</ele>
        <time>2023-04-21T10:47:22.000Z</time>
      </trkpt>
      <trkpt lat="44.49118" lon="6.2498">
        <ele>1225</ele>
        <time>2023-04-21T10:47:23.000Z</time>
      </trkpt>
      <trkpt lat="44.49118" lon="6.2498">
        <ele>1225</ele>
        <time>2023-04-21T10:47:24.000Z</time>
      </trkpt>
      <trkpt lat="44.49118" lon="6.24981">
        <ele>1225</ele>
        <time>2023-04-21T10:47:25.000Z</time>
      </trkpt>
      <trkpt lat="44.49118" lon="6.24981">
        <ele>1225</ele>
        <time>2023-04-21T10:47:26.000Z</time>
      </trkpt>
      <trkpt lat="44.49118" lon="6.24981">
        <ele>1225</ele>
        <time>2023-04-21T10:47:27.000Z</time>
      </trkpt>
      <trkpt lat="44.49118" lon="6.24981">
        <ele>1224</ele>
        <time>2023-04-21T10:47:28.000Z</time>
      </trkpt>
      <trkpt lat="44.49118" lon="6.24981">
        <ele>1224</ele>
        <time>2023-04-21T10:47:29.000Z</time>
      </trkpt>
      <trkpt lat="44.49118" lon="6.24981">
        <ele>1224</ele>
        <time>2023-04-21T10:47:30.000Z</time>
      </trkpt>
      <trkpt lat="44.49118" lon="6.24981">
        <ele>1224</ele>
        <time>2023-04-21T10:47:31.000Z</time>
      </trkpt>
      <trkpt lat="44.49117" lon="6.24981">
        <ele>1224</ele>
        <time>2023-04-21T10:47:32.000Z</time>
      </trkpt>
      <trkpt lat="44.49117" lon="6.24981">
        <ele>1223</ele>
        <time>2023-04-21T10:47:33.000Z</time>
      </trkpt>
      <trkpt lat="44.49117" lon="6.24981">
        <ele>1223</ele>
        <time>2023-04-21T10:47:34.000Z</time>
      </trkpt>
      <trkpt lat="44.49117" lon="6.24981">
        <ele>1223</ele>
        <time>2023-04-21T10:47:35.000Z</time>
      </trkpt>
      <trkpt lat="44.49117" lon="6.2498">
        <ele>1222</ele>
        <time>2023-04-21T10:47:36.000Z</time>
      </trkpt>
      <trkpt lat="44.49117" lon="6.2498">
        <ele>1222</ele>
        <time>2023-04-21T10:47:37.000Z</time>
      </trkpt>
      <trkpt lat="44.49117" lon="6.2498">
        <ele>1222</ele>
        <time>2023-04-21T10:47:38.000Z</time>
      </trkpt>
      <trkpt lat="44.49117" lon="6.2498">
        <ele>1222</ele>
        <time>2023-04-21T10:47:39.000Z</time>
      </trkpt>
      <trkpt lat="44.49117" lon="6.2498">
        <ele>1222</ele>
        <time>2023-04-21T10:47:40.000Z</time>
      </trkpt>
      <trkpt lat="44.49117" lon="6.2498">
        <ele>1222</ele>
        <time>2023-04-21T10:47:41.000Z</time>
      </trkpt>
      <trkpt lat="44.49117" lon="6.2498">
        <ele>1222</ele>
        <time>2023-04-21T10:47:42.000Z</time>
      </trkpt>
      <trkpt lat="44.49117" lon="6.2498">
        <ele>1221</ele>
        <time>2023-04-21T10:47:43.000Z</time>
      </trkpt>
      <trkpt lat="44.49117" lon="6.2498">
        <ele>1221</ele>
        <time>2023-04-21T10:47:44.000Z</time>
      </trkpt>
      <trkpt lat="44.49117" lon="6.24979">
        <ele>1221</ele>
        <time>2023-04-21T10:47:45.000Z</time>
      </trkpt>
      <trkpt lat="44.49117" lon="6.24979">
        <ele>1221</ele>
        <time>2023-04-21T10:47:46.000Z</time>
      </trkpt>
      <trkpt lat="44.49117" lon="6.24979">
        <ele>1222</ele>
        <time>2023-04-21T10:47:47.000Z</time>
      </trkpt>
      <trkpt lat="44.49117" lon="6.24979">
        <ele>1222</ele>
        <time>2023-04-21T10:47:48.000Z</time>
      </trkpt>
      <trkpt lat="44.49118" lon="6.24979">
        <ele>1222</ele>
        <time>2023-04-21T10:47:49.000Z</time>
      </trkpt>
      <trkpt lat="44.49118" lon="6.24979">
        <ele>1222</ele>
        <time>2023-04-21T10:47:50.000Z</time>
      </trkpt>
      <trkpt lat="44.49118" lon="6.24979">
        <ele>1222</ele>
        <time>2023-04-21T10:47:51.000Z</time>
      </trkpt>
      <trkpt lat="44.49118" lon="6.24979">
        <ele>1223</ele>
        <time>2023-04-21T10:47:52.000Z</time>
      </trkpt>
      <trkpt lat="44.49118" lon="6.24979">
        <ele>1223</ele>
        <time>2023-04-21T10:47:53.000Z</time>
      </trkpt>
      <trkpt lat="44.49118" lon="6.2498">
        <ele>1224</ele>
        <time>2023-04-21T10:47:54.000Z</time>
      </trkpt>
      <trkpt lat="44.49118" lon="6.2498">
        <ele>1224</ele>
        <time>2023-04-21T10:47:55.000Z</time>
      </trkpt>
      <trkpt lat="44.49118" lon="6.2498">
        <ele>1224</ele>
        <time>2023-04-21T10:47:56.000Z</time>
      </trkpt>
      <trkpt lat="44.49118" lon="6.2498">
        <ele>1224</ele>
        <time>2023-04-21T10:47:57.000Z</time>
      </trkpt>
      <trkpt lat="44.49118" lon="6.2498">
        <ele>1224</ele>
        <time>2023-04-21T10:47:58.000Z</time>
      </trkpt>
      <trkpt lat="44.49118" lon="6.2498">
        <ele>1225</ele>
        <time>2023-04-21T10:47:59.000Z</time>
      </trkpt>
      <trkpt lat="44.49118" lon="6.2498">
        <ele>1225</ele>
        <time>2023-04-21T10:48:00.000Z</time>
      </trkpt>
      <trkpt lat="44.49118" lon="6.2498">
        <ele>1225</ele>
        <time>2023-04-21T10:48:01.000Z</time>
      </trkpt>
      <trkpt lat="44.49118" lon="6.2498">
        <ele>1225</ele>
        <time>2023-04-21T10:48:02.000Z</time>
      </trkpt>
      <trkpt lat="44.49118" lon="6.24981">
        <ele>1225</ele>
        <time>2023-04-21T10:48:03.000Z</time>
      </trkpt>
      <trkpt lat="44.49118" lon="6.24981">
        <ele>1226</ele>
        <time>2023-04-21T10:48:04.000Z</time>
      </trkpt>
      <trkpt lat="44.49118" lon="6.24981">
        <ele>1226</ele>
        <time>2023-04-21T10:48:05.000Z</time>
      </trkpt>
      <trkpt lat="44.49118" lon="6.24981">
        <ele>1226</ele>
        <time>2023-04-21T10:48:06.000Z</time>
      </trkpt>
      <trkpt lat="44.49118" lon="6.24981">
        <ele>1226</ele>
        <time>2023-04-21T10:48:07.000Z</time>
      </trkpt>
      <trkpt lat="44.49118" lon="6.24981">
        <ele>1226</ele>
        <time>2023-04-21T10:48:08.000Z</time>
      </trkpt>
      <trkpt lat="44.49118" lon="6.24981">
        <ele>1226</ele>
        <time>2023-04-21T10:48:09.000Z</time>
      </trkpt>
      <trkpt lat="44.49118" lon="6.24981">
        <ele>1226</ele>
        <time>2023-04-21T10:48:10.000Z</time>
      </trkpt>
      <trkpt lat="44.49118" lon="6.24981">
        <ele>1226</ele>
        <time>2023-04-21T10:48:11.000Z</time>
      </trkpt>
      <trkpt lat="44.49118" lon="6.24981">
        <ele>1226</ele>
        <time>2023-04-21T10:48:12.000Z</time>
      </trkpt>
      <trkpt lat="44.49118" lon="6.24981">
        <ele>1226</ele>
        <time>2023-04-21T10:48:13.000Z</time>
      </trkpt>
      <trkpt lat="44.49118" lon="6.24981">
        <ele>1226</ele>
        <time>2023-04-21T10:48:14.000Z</time>
      </trkpt>
      <trkpt lat="44.49118" lon="6.24981">
        <ele>1225</ele>
        <time>2023-04-21T10:48:15.000Z</time>
      </trkpt>
      <trkpt lat="44.49118" lon="6.24983">
        <ele>1225</ele>
        <time>2023-04-21T10:48:16.000Z</time>
      </trkpt>
      <trkpt lat="44.49119" lon="6.24984">
        <ele>1225</ele>
        <time>2023-04-21T10:48:17.000Z</time>
      </trkpt>
      <trkpt lat="44.49119" lon="6.24986">
        <ele>1226</ele>
        <time>2023-04-21T10:48:18.000Z</time>
      </trkpt>
      <trkpt lat="44.49121" lon="6.24989">
        <ele>1226</ele>
        <time>2023-04-21T10:48:19.000Z</time>
      </trkpt>
      <trkpt lat="44.49122" lon="6.24991">
        <ele>1227</ele>
        <time>2023-04-21T10:48:20.000Z</time>
      </trkpt>
      <trkpt lat="44.49122" lon="6.24994">
        <ele>1227</ele>
        <time>2023-04-21T10:48:21.000Z</time>
      </trkpt>
      <trkpt lat="44.49123" lon="6.24996">
        <ele>1228</ele>
        <time>2023-04-21T10:48:22.000Z</time>
      </trkpt>
      <trkpt lat="44.49123" lon="6.24999">
        <ele>1229</ele>
        <time>2023-04-21T10:48:23.000Z</time>
      </trkpt>
      <trkpt lat="44.49124" lon="6.25002">
        <ele>1230</ele>
        <time>2023-04-21T10:48:24.000Z</time>
      </trkpt>
      <trkpt lat="44.49124" lon="6.25005">
        <ele>1230</ele>
        <time>2023-04-21T10:48:25.000Z</time>
      </trkpt>
      <trkpt lat="44.49125" lon="6.25008">
        <ele>1232</ele>
        <time>2023-04-21T10:48:26.000Z</time>
      </trkpt>
      <trkpt lat="44.49125" lon="6.25011">
        <ele>1232</ele>
        <time>2023-04-21T10:48:27.000Z</time>
      </trkpt>
      <trkpt lat="44.49126" lon="6.25015">
        <ele>1232</ele>
        <time>2023-04-21T10:48:28.000Z</time>
      </trkpt>
      <trkpt lat="44.49127" lon="6.25019">
        <ele>1232</ele>
        <time>2023-04-21T10:48:29.000Z</time>
      </trkpt>
      <trkpt lat="44.49127" lon="6.25022">
        <ele>1233</ele>
        <time>2023-04-21T10:48:30.000Z</time>
      </trkpt>
      <trkpt lat="44.49127" lon="6.25026">
        <ele>1233</ele>
        <time>2023-04-21T10:48:31.000Z</time>
      </trkpt>
      <trkpt lat="44.49127" lon="6.2503">
        <ele>1234</ele>
        <time>2023-04-21T10:48:32.000Z</time>
      </trkpt>
      <trkpt lat="44.49128" lon="6.25034">
        <ele>1234</ele>
        <time>2023-04-21T10:48:33.000Z</time>
      </trkpt>
      <trkpt lat="44.49127" lon="6.25037">
        <ele>1235</ele>
        <time>2023-04-21T10:48:34.000Z</time>
      </trkpt>
      <trkpt lat="44.49127" lon="6.25041">
        <ele>1236</ele>
        <time>2023-04-21T10:48:35.000Z</time>
      </trkpt>
      <trkpt lat="44.49127" lon="6.25044">
        <ele>1236</ele>
        <time>2023-04-21T10:48:36.000Z</time>
      </trkpt>
      <trkpt lat="44.49126" lon="6.25047">
        <ele>1236</ele>
        <time>2023-04-21T10:48:37.000Z</time>
      </trkpt>
      <trkpt lat="44.49126" lon="6.25051">
        <ele>1236</ele>
        <time>2023-04-21T10:48:38.000Z</time>
      </trkpt>
      <trkpt lat="44.49125" lon="6.25055">
        <ele>1237</ele>
        <time>2023-04-21T10:48:39.000Z</time>
      </trkpt>
      <trkpt lat="44.49124" lon="6.25058">
        <ele>1236</ele>
        <time>2023-04-21T10:48:40.000Z</time>
      </trkpt>
      <trkpt lat="44.49123" lon="6.25062">
        <ele>1234</ele>
        <time>2023-04-21T10:48:41.000Z</time>
      </trkpt>
      <trkpt lat="44.49122" lon="6.25066">
        <ele>1233</ele>
        <time>2023-04-21T10:48:42.000Z</time>
      </trkpt>
      <trkpt lat="44.49121" lon="6.25069">
        <ele>1233</ele>
        <time>2023-04-21T10:48:43.000Z</time>
      </trkpt>
      <trkpt lat="44.49119" lon="6.25073">
        <ele>1232</ele>
        <time>2023-04-21T10:48:44.000Z</time>
      </trkpt>
      <trkpt lat="44.49118" lon="6.25077">
        <ele>1232</ele>
        <time>2023-04-21T10:48:45.000Z</time>
      </trkpt>
      <trkpt lat="44.49116" lon="6.25081">
        <ele>1231</ele>
        <time>2023-04-21T10:48:46.000Z</time>
      </trkpt>
      <trkpt lat="44.49115" lon="6.25084">
        <ele>1231</ele>
        <time>2023-04-21T10:48:47.000Z</time>
      </trkpt>
      <trkpt lat="44.49114" lon="6.25088">
        <ele>1231</ele>
        <time>2023-04-21T10:48:48.000Z</time>
      </trkpt>
      <trkpt lat="44.49112" lon="6.25092">
        <ele>1230</ele>
        <time>2023-04-21T10:48:49.000Z</time>
      </trkpt>
      <trkpt lat="44.49111" lon="6.25096">
        <ele>1230</ele>
        <time>2023-04-21T10:48:50.000Z</time>
      </trkpt>
      <trkpt lat="44.49109" lon="6.251">
        <ele>1230</ele>
        <time>2023-04-21T10:48:51.000Z</time>
      </trkpt>
      <trkpt lat="44.49108" lon="6.25104">
        <ele>1229</ele>
        <time>2023-04-21T10:48:52.000Z</time>
      </trkpt>
      <trkpt lat="44.49106" lon="6.25108">
        <ele>1229</ele>
        <time>2023-04-21T10:48:53.000Z</time>
      </trkpt>
      <trkpt lat="44.49105" lon="6.25112">
        <ele>1229</ele>
        <time>2023-04-21T10:48:54.000Z</time>
      </trkpt>
      <trkpt lat="44.49103" lon="6.25117">
        <ele>1229</ele>
        <time>2023-04-21T10:48:55.000Z</time>
      </trkpt>
      <trkpt lat="44.49102" lon="6.25121">
        <ele>1229</ele>
        <time>2023-04-21T10:48:56.000Z</time>
      </trkpt>
      <trkpt lat="44.49101" lon="6.25125">
        <ele>1229</ele>
        <time>2023-04-21T10:48:57.000Z</time>
      </trkpt>
      <trkpt lat="44.491" lon="6.25128">
        <ele>1230</ele>
        <time>2023-04-21T10:48:58.000Z</time>
      </trkpt>
      <trkpt lat="44.49099" lon="6.25132">
        <ele>1229</ele>
        <time>2023-04-21T10:48:59.000Z</time>
      </trkpt>
      <trkpt lat="44.49097" lon="6.25136">
        <ele>1230</ele>
        <time>2023-04-21T10:49:00.000Z</time>
      </trkpt>
      <trkpt lat="44.49096" lon="6.2514">
        <ele>1231</ele>
        <time>2023-04-21T10:49:01.000Z</time>
      </trkpt>
      <trkpt lat="44.49095" lon="6.25144">
        <ele>1231</ele>
        <time>2023-04-21T10:49:02.000Z</time>
      </trkpt>
      <trkpt lat="44.49093" lon="6.25148">
        <ele>1232</ele>
        <time>2023-04-21T10:49:03.000Z</time>
      </trkpt>
      <trkpt lat="44.49092" lon="6.25152">
        <ele>1232</ele>
        <time>2023-04-21T10:49:04.000Z</time>
      </trkpt>
      <trkpt lat="44.49092" lon="6.25155">
        <ele>1233</ele>
        <time>2023-04-21T10:49:05.000Z</time>
      </trkpt>
      <trkpt lat="44.4909" lon="6.25159">
        <ele>1233</ele>
        <time>2023-04-21T10:49:06.000Z</time>
      </trkpt>
      <trkpt lat="44.49089" lon="6.25162">
        <ele>1233</ele>
        <time>2023-04-21T10:49:07.000Z</time>
      </trkpt>
      <trkpt lat="44.49087" lon="6.25166">
        <ele>1234</ele>
        <time>2023-04-21T10:49:08.000Z</time>
      </trkpt>
      <trkpt lat="44.49085" lon="6.2517">
        <ele>1233</ele>
        <time>2023-04-21T10:49:09.000Z</time>
      </trkpt>
      <trkpt lat="44.49084" lon="6.25174">
        <ele>1234</ele>
        <time>2023-04-21T10:49:10.000Z</time>
      </trkpt>
      <trkpt lat="44.49082" lon="6.25178">
        <ele>1235</ele>
        <time>2023-04-21T10:49:11.000Z</time>
      </trkpt>
      <trkpt lat="44.4908" lon="6.25181">
        <ele>1235</ele>
        <time>2023-04-21T10:49:12.000Z</time>
      </trkpt>
      <trkpt lat="44.49078" lon="6.25185">
        <ele>1235</ele>
        <time>2023-04-21T10:49:13.000Z</time>
      </trkpt>
      <trkpt lat="44.49076" lon="6.25189">
        <ele>1235</ele>
        <time>2023-04-21T10:49:14.000Z</time>
      </trkpt>
      <trkpt lat="44.49075" lon="6.25193">
        <ele>1235</ele>
        <time>2023-04-21T10:49:15.000Z</time>
      </trkpt>
      <trkpt lat="44.49073" lon="6.25197">
        <ele>1235</ele>
        <time>2023-04-21T10:49:16.000Z</time>
      </trkpt>
      <trkpt lat="44.49071" lon="6.25201">
        <ele>1234</ele>
        <time>2023-04-21T10:49:17.000Z</time>
      </trkpt>
      <trkpt lat="44.49069" lon="6.25205">
        <ele>1234</ele>
        <time>2023-04-21T10:49:18.000Z</time>
      </trkpt>
      <trkpt lat="44.49068" lon="6.25208">
        <ele>1235</ele>
        <time>2023-04-21T10:49:19.000Z</time>
      </trkpt>
      <trkpt lat="44.49067" lon="6.25212">
        <ele>1234</ele>
        <time>2023-04-21T10:49:20.000Z</time>
      </trkpt>
      <trkpt lat="44.49065" lon="6.25215">
        <ele>1235</ele>
        <time>2023-04-21T10:49:21.000Z</time>
      </trkpt>
      <trkpt lat="44.49063" lon="6.25219">
        <ele>1236</ele>
        <time>2023-04-21T10:49:22.000Z</time>
      </trkpt>
      <trkpt lat="44.49062" lon="6.25222">
        <ele>1236</ele>
        <time>2023-04-21T10:49:23.000Z</time>
      </trkpt>
      <trkpt lat="44.4906" lon="6.25226">
        <ele>1237</ele>
        <time>2023-04-21T10:49:24.000Z</time>
      </trkpt>
      <trkpt lat="44.4906" lon="6.25229">
        <ele>1238</ele>
        <time>2023-04-21T10:49:25.000Z</time>
      </trkpt>
      <trkpt lat="44.49059" lon="6.25233">
        <ele>1240</ele>
        <time>2023-04-21T10:49:26.000Z</time>
      </trkpt>
      <trkpt lat="44.49059" lon="6.25236">
        <ele>1242</ele>
        <time>2023-04-21T10:49:27.000Z</time>
      </trkpt>
      <trkpt lat="44.49059" lon="6.2524">
        <ele>1244</ele>
        <time>2023-04-21T10:49:28.000Z</time>
      </trkpt>
      <trkpt lat="44.49059" lon="6.25242">
        <ele>1246</ele>
        <time>2023-04-21T10:49:29.000Z</time>
      </trkpt>
      <trkpt lat="44.4906" lon="6.25245">
        <ele>1247</ele>
        <time>2023-04-21T10:49:30.000Z</time>
      </trkpt>
      <trkpt lat="44.4906" lon="6.25249">
        <ele>1248</ele>
        <time>2023-04-21T10:49:31.000Z</time>
      </trkpt>
      <trkpt lat="44.4906" lon="6.25252">
        <ele>1249</ele>
        <time>2023-04-21T10:49:32.000Z</time>
      </trkpt>
      <trkpt lat="44.4906" lon="6.25256">
        <ele>1250</ele>
        <time>2023-04-21T10:49:33.000Z</time>
      </trkpt>
      <trkpt lat="44.49061" lon="6.25259">
        <ele>1252</ele>
        <time>2023-04-21T10:49:34.000Z</time>
      </trkpt>
      <trkpt lat="44.49061" lon="6.25263">
        <ele>1253</ele>
        <time>2023-04-21T10:49:35.000Z</time>
      </trkpt>
      <trkpt lat="44.49062" lon="6.25266">
        <ele>1253</ele>
        <time>2023-04-21T10:49:36.000Z</time>
      </trkpt>
      <trkpt lat="44.49063" lon="6.25269">
        <ele>1252</ele>
        <time>2023-04-21T10:49:37.000Z</time>
      </trkpt>
      <trkpt lat="44.49064" lon="6.25273">
        <ele>1251</ele>
        <time>2023-04-21T10:49:38.000Z</time>
      </trkpt>
      <trkpt lat="44.49064" lon="6.25276">
        <ele>1250</ele>
        <time>2023-04-21T10:49:39.000Z</time>
      </trkpt>
      <trkpt lat="44.49065" lon="6.25279">
        <ele>1250</ele>
        <time>2023-04-21T10:49:40.000Z</time>
      </trkpt>
      <trkpt lat="44.49066" lon="6.25282">
        <ele>1250</ele>
        <time>2023-04-21T10:49:41.000Z</time>
      </trkpt>
      <trkpt lat="44.49067" lon="6.25284">
        <ele>1250</ele>
        <time>2023-04-21T10:49:42.000Z</time>
      </trkpt>
      <trkpt lat="44.49068" lon="6.25286">
        <ele>1251</ele>
        <time>2023-04-21T10:49:43.000Z</time>
      </trkpt>
      <trkpt lat="44.4907" lon="6.2529">
        <ele>1250</ele>
        <time>2023-04-21T10:49:44.000Z</time>
      </trkpt>
      <trkpt lat="44.49071" lon="6.25294">
        <ele>1250</ele>
        <time>2023-04-21T10:49:45.000Z</time>
      </trkpt>
      <trkpt lat="44.49072" lon="6.25297">
        <ele>1249</ele>
        <time>2023-04-21T10:49:46.000Z</time>
      </trkpt>
      <trkpt lat="44.49074" lon="6.253">
        <ele>1249</ele>
        <time>2023-04-21T10:49:47.000Z</time>
      </trkpt>
      <trkpt lat="44.49075" lon="6.25304">
        <ele>1248</ele>
        <time>2023-04-21T10:49:48.000Z</time>
      </trkpt>
      <trkpt lat="44.49077" lon="6.25307">
        <ele>1248</ele>
        <time>2023-04-21T10:49:49.000Z</time>
      </trkpt>
      <trkpt lat="44.49078" lon="6.25311">
        <ele>1248</ele>
        <time>2023-04-21T10:49:50.000Z</time>
      </trkpt>
      <trkpt lat="44.49079" lon="6.25315">
        <ele>1248</ele>
        <time>2023-04-21T10:49:51.000Z</time>
      </trkpt>
      <trkpt lat="44.4908" lon="6.25318">
        <ele>1248</ele>
        <time>2023-04-21T10:49:52.000Z</time>
      </trkpt>
      <trkpt lat="44.49082" lon="6.25322">
        <ele>1247</ele>
        <time>2023-04-21T10:49:53.000Z</time>
      </trkpt>
      <trkpt lat="44.49082" lon="6.25326">
        <ele>1247</ele>
        <time>2023-04-21T10:49:54.000Z</time>
      </trkpt>
      <trkpt lat="44.49083" lon="6.2533">
        <ele>1247</ele>
        <time>2023-04-21T10:49:55.000Z</time>
      </trkpt>
      <trkpt lat="44.49083" lon="6.25334">
        <ele>1247</ele>
        <time>2023-04-21T10:49:56.000Z</time>
      </trkpt>
      <trkpt lat="44.49084" lon="6.25337">
        <ele>1247</ele>
        <time>2023-04-21T10:49:57.000Z</time>
      </trkpt>
      <trkpt lat="44.49085" lon="6.25342">
        <ele>1247</ele>
        <time>2023-04-21T10:49:58.000Z</time>
      </trkpt>
      <trkpt lat="44.49085" lon="6.25346">
        <ele>1247</ele>
        <time>2023-04-21T10:49:59.000Z</time>
      </trkpt>
      <trkpt lat="44.49086" lon="6.25349">
        <ele>1248</ele>
        <time>2023-04-21T10:50:00.000Z</time>
      </trkpt>
      <trkpt lat="44.49087" lon="6.25353">
        <ele>1248</ele>
        <time>2023-04-21T10:50:01.000Z</time>
      </trkpt>
      <trkpt lat="44.49087" lon="6.25357">
        <ele>1247</ele>
        <time>2023-04-21T10:50:02.000Z</time>
      </trkpt>
      <trkpt lat="44.49088" lon="6.25361">
        <ele>1247</ele>
        <time>2023-04-21T10:50:03.000Z</time>
      </trkpt>
      <trkpt lat="44.49089" lon="6.25365">
        <ele>1247</ele>
        <time>2023-04-21T10:50:04.000Z</time>
      </trkpt>
      <trkpt lat="44.4909" lon="6.25368">
        <ele>1247</ele>
        <time>2023-04-21T10:50:05.000Z</time>
      </trkpt>
      <trkpt lat="44.49092" lon="6.25371">
        <ele>1247</ele>
        <time>2023-04-21T10:50:06.000Z</time>
      </trkpt>
      <trkpt lat="44.49094" lon="6.25375">
        <ele>1247</ele>
        <time>2023-04-21T10:50:07.000Z</time>
      </trkpt>
      <trkpt lat="44.49095" lon="6.25378">
        <ele>1247</ele>
        <time>2023-04-21T10:50:08.000Z</time>
      </trkpt>
      <trkpt lat="44.49097" lon="6.25381">
        <ele>1247</ele>
        <time>2023-04-21T10:50:09.000Z</time>
      </trkpt>
      <trkpt lat="44.491" lon="6.25382">
        <ele>1246</ele>
        <time>2023-04-21T10:50:10.000Z</time>
      </trkpt>
      <trkpt lat="44.49102" lon="6.25384">
        <ele>1246</ele>
        <time>2023-04-21T10:50:11.000Z</time>
      </trkpt>
      <trkpt lat="44.49104" lon="6.25385">
        <ele>1246</ele>
        <time>2023-04-21T10:50:12.000Z</time>
      </trkpt>
      <trkpt lat="44.49107" lon="6.25387">
        <ele>1246</ele>
        <time>2023-04-21T10:50:13.000Z</time>
      </trkpt>
      <trkpt lat="44.49109" lon="6.25388">
        <ele>1246</ele>
        <time>2023-04-21T10:50:14.000Z</time>
      </trkpt>
      <trkpt lat="44.49112" lon="6.2539">
        <ele>1246</ele>
        <time>2023-04-21T10:50:15.000Z</time>
      </trkpt>
      <trkpt lat="44.49114" lon="6.25391">
        <ele>1246</ele>
        <time>2023-04-21T10:50:16.000Z</time>
      </trkpt>
      <trkpt lat="44.49117" lon="6.25393">
        <ele>1246</ele>
        <time>2023-04-21T10:50:17.000Z</time>
      </trkpt>
      <trkpt lat="44.49119" lon="6.25395">
        <ele>1245</ele>
        <time>2023-04-21T10:50:18.000Z</time>
      </trkpt>
      <trkpt lat="44.49122" lon="6.25397">
        <ele>1245</ele>
        <time>2023-04-21T10:50:19.000Z</time>
      </trkpt>
      <trkpt lat="44.49124" lon="6.25399">
        <ele>1245</ele>
        <time>2023-04-21T10:50:20.000Z</time>
      </trkpt>
      <trkpt lat="44.49126" lon="6.25401">
        <ele>1244</ele>
        <time>2023-04-21T10:50:21.000Z</time>
      </trkpt>
      <trkpt lat="44.49129" lon="6.25403">
        <ele>1244</ele>
        <time>2023-04-21T10:50:22.000Z</time>
      </trkpt>
      <trkpt lat="44.49131" lon="6.25405">
        <ele>1243</ele>
        <time>2023-04-21T10:50:23.000Z</time>
      </trkpt>
      <trkpt lat="44.49134" lon="6.25407">
        <ele>1243</ele>
        <time>2023-04-21T10:50:24.000Z</time>
      </trkpt>
      <trkpt lat="44.49136" lon="6.25408">
        <ele>1243</ele>
        <time>2023-04-21T10:50:25.000Z</time>
      </trkpt>
      <trkpt lat="44.49138" lon="6.2541">
        <ele>1242</ele>
        <time>2023-04-21T10:50:26.000Z</time>
      </trkpt>
      <trkpt lat="44.49141" lon="6.25411">
        <ele>1242</ele>
        <time>2023-04-21T10:50:27.000Z</time>
      </trkpt>
      <trkpt lat="44.49143" lon="6.25412">
        <ele>1242</ele>
        <time>2023-04-21T10:50:28.000Z</time>
      </trkpt>
      <trkpt lat="44.49146" lon="6.25413">
        <ele>1242</ele>
        <time>2023-04-21T10:50:29.000Z</time>
      </trkpt>
      <trkpt lat="44.49148" lon="6.25414">
        <ele>1242</ele>
        <time>2023-04-21T10:50:30.000Z</time>
      </trkpt>
      <trkpt lat="44.49151" lon="6.25414">
        <ele>1242</ele>
        <time>2023-04-21T10:50:31.000Z</time>
      </trkpt>
      <trkpt lat="44.49154" lon="6.25414">
        <ele>1242</ele>
        <time>2023-04-21T10:50:32.000Z</time>
      </trkpt>
      <trkpt lat="44.49159" lon="6.25413">
        <ele>1242</ele>
        <time>2023-04-21T10:50:33.000Z</time>
      </trkpt>
      <trkpt lat="44.49163" lon="6.25413">
        <ele>1240</ele>
        <time>2023-04-21T10:50:34.000Z</time>
      </trkpt>
      <trkpt lat="44.49168" lon="6.25412">
        <ele>1240</ele>
        <time>2023-04-21T10:50:35.000Z</time>
      </trkpt>
      <trkpt lat="44.49172" lon="6.2541">
        <ele>1239</ele>
        <time>2023-04-21T10:50:36.000Z</time>
      </trkpt>
      <trkpt lat="44.49176" lon="6.25408">
        <ele>1239</ele>
        <time>2023-04-21T10:50:37.000Z</time>
      </trkpt>
      <trkpt lat="44.4918" lon="6.25406">
        <ele>1239</ele>
        <time>2023-04-21T10:50:38.000Z</time>
      </trkpt>
      <trkpt lat="44.49183" lon="6.25403">
        <ele>1239</ele>
        <time>2023-04-21T10:50:39.000Z</time>
      </trkpt>
      <trkpt lat="44.49187" lon="6.25401">
        <ele>1240</ele>
        <time>2023-04-21T10:50:40.000Z</time>
      </trkpt>
      <trkpt lat="44.49188" lon="6.25399">
        <ele>1241</ele>
        <time>2023-04-21T10:50:41.000Z</time>
      </trkpt>
      <trkpt lat="44.49189" lon="6.25399">
        <ele>1239</ele>
        <time>2023-04-21T10:50:42.000Z</time>
      </trkpt>
      <trkpt lat="44.49188" lon="6.254">
        <ele>1237</ele>
        <time>2023-04-21T10:50:43.000Z</time>
      </trkpt>
      <trkpt lat="44.49188" lon="6.254">
        <ele>1237</ele>
        <time>2023-04-21T10:50:44.000Z</time>
      </trkpt>
      <trkpt lat="44.49188" lon="6.254">
        <ele>1237</ele>
        <time>2023-04-21T10:50:45.000Z</time>
      </trkpt>
      <trkpt lat="44.49188" lon="6.254">
        <ele>1237</ele>
        <time>2023-04-21T10:50:46.000Z</time>
      </trkpt>
      <trkpt lat="44.49189" lon="6.254">
        <ele>1237</ele>
        <time>2023-04-21T10:50:47.000Z</time>
      </trkpt>
      <trkpt lat="44.49189" lon="6.25398">
        <ele>1237</ele>
        <time>2023-04-21T10:50:48.000Z</time>
      </trkpt>
      <trkpt lat="44.4919" lon="6.25397">
        <ele>1237</ele>
        <time>2023-04-21T10:50:49.000Z</time>
      </trkpt>
      <trkpt lat="44.49192" lon="6.25394">
        <ele>1238</ele>
        <time>2023-04-21T10:50:50.000Z</time>
      </trkpt>
      <trkpt lat="44.49194" lon="6.25392">
        <ele>1238</ele>
        <time>2023-04-21T10:50:51.000Z</time>
      </trkpt>
      <trkpt lat="44.49196" lon="6.2539">
        <ele>1239</ele>
        <time>2023-04-21T10:50:52.000Z</time>
      </trkpt>
      <trkpt lat="44.49199" lon="6.25387">
        <ele>1239</ele>
        <time>2023-04-21T10:50:53.000Z</time>
      </trkpt>
      <trkpt lat="44.49201" lon="6.25385">
        <ele>1239</ele>
        <time>2023-04-21T10:50:54.000Z</time>
      </trkpt>
      <trkpt lat="44.49203" lon="6.25382">
        <ele>1239</ele>
        <time>2023-04-21T10:50:55.000Z</time>
      </trkpt>
      <trkpt lat="44.49206" lon="6.25379">
        <ele>1239</ele>
        <time>2023-04-21T10:50:56.000Z</time>
      </trkpt>
      <trkpt lat="44.49208" lon="6.25377">
        <ele>1239</ele>
        <time>2023-04-21T10:50:57.000Z</time>
      </trkpt>
      <trkpt lat="44.49211" lon="6.25375">
        <ele>1240</ele>
        <time>2023-04-21T10:50:58.000Z</time>
      </trkpt>
      <trkpt lat="44.49214" lon="6.25372">
        <ele>1239</ele>
        <time>2023-04-21T10:50:59.000Z</time>
      </trkpt>
      <trkpt lat="44.49217" lon="6.25371">
        <ele>1240</ele>
        <time>2023-04-21T10:51:00.000Z</time>
      </trkpt>
      <trkpt lat="44.4922" lon="6.2537">
        <ele>1240</ele>
        <time>2023-04-21T10:51:01.000Z</time>
      </trkpt>
      <trkpt lat="44.49223" lon="6.25368">
        <ele>1240</ele>
        <time>2023-04-21T10:51:02.000Z</time>
      </trkpt>
      <trkpt lat="44.49226" lon="6.25368">
        <ele>1239</ele>
        <time>2023-04-21T10:51:03.000Z</time>
      </trkpt>
      <trkpt lat="44.49229" lon="6.25367">
        <ele>1239</ele>
        <time>2023-04-21T10:51:04.000Z</time>
      </trkpt>
      <trkpt lat="44.49233" lon="6.25365">
        <ele>1239</ele>
        <time>2023-04-21T10:51:05.000Z</time>
      </trkpt>
      <trkpt lat="44.49235" lon="6.25363">
        <ele>1239</ele>
        <time>2023-04-21T10:51:06.000Z</time>
      </trkpt>
      <trkpt lat="44.49238" lon="6.25361">
        <ele>1238</ele>
        <time>2023-04-21T10:51:07.000Z</time>
      </trkpt>
      <trkpt lat="44.4924" lon="6.25359">
        <ele>1238</ele>
        <time>2023-04-21T10:51:08.000Z</time>
      </trkpt>
      <trkpt lat="44.49242" lon="6.25357">
        <ele>1238</ele>
        <time>2023-04-21T10:51:09.000Z</time>
      </trkpt>
      <trkpt lat="44.49244" lon="6.25355">
        <ele>1239</ele>
        <time>2023-04-21T10:51:10.000Z</time>
      </trkpt>
      <trkpt lat="44.49245" lon="6.25353">
        <ele>1239</ele>
        <time>2023-04-21T10:51:11.000Z</time>
      </trkpt>
      <trkpt lat="44.49246" lon="6.25352">
        <ele>1238</ele>
        <time>2023-04-21T10:51:12.000Z</time>
      </trkpt>
      <trkpt lat="44.49246" lon="6.25352">
        <ele>1239</ele>
        <time>2023-04-21T10:51:13.000Z</time>
      </trkpt>
      <trkpt lat="44.49246" lon="6.25352">
        <ele>1238</ele>
        <time>2023-04-21T10:51:14.000Z</time>
      </trkpt>
      <trkpt lat="44.49247" lon="6.25353">
        <ele>1238</ele>
        <time>2023-04-21T10:51:15.000Z</time>
      </trkpt>
      <trkpt lat="44.49247" lon="6.25352">
        <ele>1238</ele>
        <time>2023-04-21T10:51:16.000Z</time>
      </trkpt>
      <trkpt lat="44.49247" lon="6.25352">
        <ele>1238</ele>
        <time>2023-04-21T10:51:17.000Z</time>
      </trkpt>
      <trkpt lat="44.49247" lon="6.25352">
        <ele>1238</ele>
        <time>2023-04-21T10:51:18.000Z</time>
      </trkpt>
      <trkpt lat="44.49247" lon="6.25352">
        <ele>1238</ele>
        <time>2023-04-21T10:51:19.000Z</time>
      </trkpt>
      <trkpt lat="44.49247" lon="6.25352">
        <ele>1238</ele>
        <time>2023-04-21T10:51:20.000Z</time>
      </trkpt>
      <trkpt lat="44.49247" lon="6.25352">
        <ele>1237</ele>
        <time>2023-04-21T10:51:21.000Z</time>
      </trkpt>
      <trkpt lat="44.49246" lon="6.25352">
        <ele>1237</ele>
        <time>2023-04-21T10:51:22.000Z</time>
      </trkpt>
      <trkpt lat="44.49246" lon="6.25352">
        <ele>1237</ele>
        <time>2023-04-21T10:51:23.000Z</time>
      </trkpt>
      <trkpt lat="44.49246" lon="6.25352">
        <ele>1236</ele>
        <time>2023-04-21T10:51:24.000Z</time>
      </trkpt>
      <trkpt lat="44.49246" lon="6.25352">
        <ele>1236</ele>
        <time>2023-04-21T10:51:25.000Z</time>
      </trkpt>
      <trkpt lat="44.49246" lon="6.25352">
        <ele>1236</ele>
        <time>2023-04-21T10:51:26.000Z</time>
      </trkpt>
      <trkpt lat="44.49246" lon="6.25352">
        <ele>1236</ele>
        <time>2023-04-21T10:51:27.000Z</time>
      </trkpt>
      <trkpt lat="44.49246" lon="6.25352">
        <ele>1236</ele>
        <time>2023-04-21T10:51:28.000Z</time>
      </trkpt>
      <trkpt lat="44.49246" lon="6.25352">
        <ele>1236</ele>
        <time>2023-04-21T10:51:29.000Z</time>
      </trkpt>
      <trkpt lat="44.49246" lon="6.25351">
        <ele>1236</ele>
        <time>2023-04-21T10:51:30.000Z</time>
      </trkpt>
      <trkpt lat="44.49246" lon="6.25351">
        <ele>1236</ele>
        <time>2023-04-21T10:51:31.000Z</time>
      </trkpt>
      <trkpt lat="44.49246" lon="6.25351">
        <ele>1236</ele>
        <time>2023-04-21T10:51:32.000Z</time>
      </trkpt>
      <trkpt lat="44.49246" lon="6.25351">
        <ele>1236</ele>
        <time>2023-04-21T10:51:33.000Z</time>
      </trkpt>
      <trkpt lat="44.49245" lon="6.25351">
        <ele>1236</ele>
        <time>2023-04-21T10:51:34.000Z</time>
      </trkpt>
      <trkpt lat="44.49245" lon="6.25351">
        <ele>1236</ele>
        <time>2023-04-21T10:51:35.000Z</time>
      </trkpt>
      <trkpt lat="44.49245" lon="6.25351">
        <ele>1236</ele>
        <time>2023-04-21T10:51:36.000Z</time>
      </trkpt>
      <trkpt lat="44.49245" lon="6.25351">
        <ele>1236</ele>
        <time>2023-04-21T10:51:37.000Z</time>
      </trkpt>
      <trkpt lat="44.49245" lon="6.25351">
        <ele>1236</ele>
        <time>2023-04-21T10:51:38.000Z</time>
      </trkpt>
      <trkpt lat="44.49245" lon="6.25351">
        <ele>1236</ele>
        <time>2023-04-21T10:51:39.000Z</time>
      </trkpt>
      <trkpt lat="44.49245" lon="6.25351">
        <ele>1236</ele>
        <time>2023-04-21T10:51:40.000Z</time>
      </trkpt>
      <trkpt lat="44.49245" lon="6.25351">
        <ele>1236</ele>
        <time>2023-04-21T10:51:41.000Z</time>
      </trkpt>
      <trkpt lat="44.49245" lon="6.25351">
        <ele>1236</ele>
        <time>2023-04-21T10:51:42.000Z</time>
      </trkpt>
      <trkpt lat="44.49245" lon="6.25351">
        <ele>1236</ele>
        <time>2023-04-21T10:51:43.000Z</time>
      </trkpt>
      <trkpt lat="44.49245" lon="6.25351">
        <ele>1236</ele>
        <time>2023-04-21T10:51:44.000Z</time>
      </trkpt>
      <trkpt lat="44.49245" lon="6.25351">
        <ele>1236</ele>
        <time>2023-04-21T10:51:45.000Z</time>
      </trkpt>
      <trkpt lat="44.49245" lon="6.25351">
        <ele>1236</ele>
        <time>2023-04-21T10:51:46.000Z</time>
      </trkpt>
      <trkpt lat="44.49245" lon="6.25351">
        <ele>1236</ele>
        <time>2023-04-21T10:51:47.000Z</time>
      </trkpt>
      <trkpt lat="44.49245" lon="6.25351">
        <ele>1236</ele>
        <time>2023-04-21T10:51:48.000Z</time>
      </trkpt>
      <trkpt lat="44.49245" lon="6.25351">
        <ele>1236</ele>
        <time>2023-04-21T10:51:49.000Z</time>
      </trkpt>
      <trkpt lat="44.49245" lon="6.25351">
        <ele>1236</ele>
        <time>2023-04-21T10:51:50.000Z</time>
      </trkpt>
      <trkpt lat="44.49245" lon="6.25351">
        <ele>1235</ele>
        <time>2023-04-21T10:51:51.000Z</time>
      </trkpt>
      <trkpt lat="44.49245" lon="6.25351">
        <ele>1235</ele>
        <time>2023-04-21T10:51:52.000Z</time>
      </trkpt>
      <trkpt lat="44.49245" lon="6.25351">
        <ele>1235</ele>
        <time>2023-04-21T10:51:53.000Z</time>
      </trkpt>
      <trkpt lat="44.49245" lon="6.25351">
        <ele>1235</ele>
        <time>2023-04-21T10:51:54.000Z</time>
      </trkpt>
      <trkpt lat="44.49245" lon="6.25351">
        <ele>1235</ele>
        <time>2023-04-21T10:51:55.000Z</time>
      </trkpt>
      <trkpt lat="44.49245" lon="6.2535">
        <ele>1236</ele>
        <time>2023-04-21T10:51:56.000Z</time>
      </trkpt>
      <trkpt lat="44.49246" lon="6.25349">
        <ele>1236</ele>
        <time>2023-04-21T10:51:57.000Z</time>
      </trkpt>
      <trkpt lat="44.49247" lon="6.25347">
        <ele>1237</ele>
        <time>2023-04-21T10:51:58.000Z</time>
      </trkpt>
      <trkpt lat="44.49248" lon="6.25345">
        <ele>1238</ele>
        <time>2023-04-21T10:51:59.000Z</time>
      </trkpt>
      <trkpt lat="44.49249" lon="6.25343">
        <ele>1238</ele>
        <time>2023-04-21T10:52:00.000Z</time>
      </trkpt>
      <trkpt lat="44.49251" lon="6.2534">
        <ele>1239</ele>
        <time>2023-04-21T10:52:01.000Z</time>
      </trkpt>
      <trkpt lat="44.49252" lon="6.25337">
        <ele>1239</ele>
        <time>2023-04-21T10:52:02.000Z</time>
      </trkpt>
      <trkpt lat="44.49254" lon="6.25334">
        <ele>1239</ele>
        <time>2023-04-21T10:52:03.000Z</time>
      </trkpt>
      <trkpt lat="44.49256" lon="6.25331">
        <ele>1239</ele>
        <time>2023-04-21T10:52:04.000Z</time>
      </trkpt>
      <trkpt lat="44.49257" lon="6.25327">
        <ele>1240</ele>
        <time>2023-04-21T10:52:05.000Z</time>
      </trkpt>
      <trkpt lat="44.49259" lon="6.25324">
        <ele>1240</ele>
        <time>2023-04-21T10:52:06.000Z</time>
      </trkpt>
      <trkpt lat="44.4926" lon="6.2532">
        <ele>1240</ele>
        <time>2023-04-21T10:52:07.000Z</time>
      </trkpt>
      <trkpt lat="44.49262" lon="6.25317">
        <ele>1240</ele>
        <time>2023-04-21T10:52:08.000Z</time>
      </trkpt>
      <trkpt lat="44.49264" lon="6.25314">
        <ele>1240</ele>
        <time>2023-04-21T10:52:09.000Z</time>
      </trkpt>
      <trkpt lat="44.49265" lon="6.2531">
        <ele>1240</ele>
        <time>2023-04-21T10:52:10.000Z</time>
      </trkpt>
      <trkpt lat="44.49267" lon="6.25306">
        <ele>1241</ele>
        <time>2023-04-21T10:52:11.000Z</time>
      </trkpt>
      <trkpt lat="44.49269" lon="6.25302">
        <ele>1241</ele>
        <time>2023-04-21T10:52:12.000Z</time>
      </trkpt>
      <trkpt lat="44.4927" lon="6.25298">
        <ele>1241</ele>
        <time>2023-04-21T10:52:13.000Z</time>
      </trkpt>
      <trkpt lat="44.49272" lon="6.25294">
        <ele>1241</ele>
        <time>2023-04-21T10:52:14.000Z</time>
      </trkpt>
      <trkpt lat="44.49274" lon="6.2529">
        <ele>1242</ele>
        <time>2023-04-21T10:52:15.000Z</time>
      </trkpt>
      <trkpt lat="44.49276" lon="6.25286">
        <ele>1242</ele>
        <time>2023-04-21T10:52:16.000Z</time>
      </trkpt>
      <trkpt lat="44.49278" lon="6.25283">
        <ele>1242</ele>
        <time>2023-04-21T10:52:17.000Z</time>
      </trkpt>
      <trkpt lat="44.4928" lon="6.25279">
        <ele>1243</ele>
        <time>2023-04-21T10:52:18.000Z</time>
      </trkpt>
      <trkpt lat="44.49282" lon="6.25276">
        <ele>1243</ele>
        <time>2023-04-21T10:52:19.000Z</time>
      </trkpt>
      <trkpt lat="44.49284" lon="6.25273">
        <ele>1243</ele>
        <time>2023-04-21T10:52:20.000Z</time>
      </trkpt>
      <trkpt lat="44.49287" lon="6.2527">
        <ele>1243</ele>
        <time>2023-04-21T10:52:21.000Z</time>
      </trkpt>
      <trkpt lat="44.4929" lon="6.25267">
        <ele>1243</ele>
        <time>2023-04-21T10:52:22.000Z</time>
      </trkpt>
      <trkpt lat="44.49292" lon="6.25265">
        <ele>1242</ele>
        <time>2023-04-21T10:52:23.000Z</time>
      </trkpt>
      <trkpt lat="44.49295" lon="6.25262">
        <ele>1242</ele>
        <time>2023-04-21T10:52:24.000Z</time>
      </trkpt>
      <trkpt lat="44.49297" lon="6.25259">
        <ele>1242</ele>
        <time>2023-04-21T10:52:25.000Z</time>
      </trkpt>
      <trkpt lat="44.493" lon="6.25256">
        <ele>1242</ele>
        <time>2023-04-21T10:52:26.000Z</time>
      </trkpt>
      <trkpt lat="44.49303" lon="6.25253">
        <ele>1243</ele>
        <time>2023-04-21T10:52:27.000Z</time>
      </trkpt>
      <trkpt lat="44.49305" lon="6.2525">
        <ele>1243</ele>
        <time>2023-04-21T10:52:28.000Z</time>
      </trkpt>
      <trkpt lat="44.49308" lon="6.25247">
        <ele>1243</ele>
        <time>2023-04-21T10:52:29.000Z</time>
      </trkpt>
      <trkpt lat="44.4931" lon="6.25244">
        <ele>1244</ele>
        <time>2023-04-21T10:52:30.000Z</time>
      </trkpt>
      <trkpt lat="44.49312" lon="6.25241">
        <ele>1244</ele>
        <time>2023-04-21T10:52:31.000Z</time>
      </trkpt>
      <trkpt lat="44.49314" lon="6.25238">
        <ele>1244</ele>
        <time>2023-04-21T10:52:32.000Z</time>
      </trkpt>
      <trkpt lat="44.49317" lon="6.25235">
        <ele>1244</ele>
        <time>2023-04-21T10:52:33.000Z</time>
      </trkpt>
      <trkpt lat="44.49319" lon="6.25232">
        <ele>1245</ele>
        <time>2023-04-21T10:52:34.000Z</time>
      </trkpt>
      <trkpt lat="44.49321" lon="6.25228">
        <ele>1245</ele>
        <time>2023-04-21T10:52:35.000Z</time>
      </trkpt>
      <trkpt lat="44.49323" lon="6.25225">
        <ele>1245</ele>
        <time>2023-04-21T10:52:36.000Z</time>
      </trkpt>
      <trkpt lat="44.49325" lon="6.25221">
        <ele>1245</ele>
        <time>2023-04-21T10:52:37.000Z</time>
      </trkpt>
      <trkpt lat="44.49327" lon="6.25218">
        <ele>1245</ele>
        <time>2023-04-21T10:52:38.000Z</time>
      </trkpt>
      <trkpt lat="44.4933" lon="6.25216">
        <ele>1245</ele>
        <time>2023-04-21T10:52:39.000Z</time>
      </trkpt>
      <trkpt lat="44.49332" lon="6.25213">
        <ele>1245</ele>
        <time>2023-04-21T10:52:40.000Z</time>
      </trkpt>
      <trkpt lat="44.49334" lon="6.25211">
        <ele>1245</ele>
        <time>2023-04-21T10:52:41.000Z</time>
      </trkpt>
      <trkpt lat="44.49336" lon="6.25209">
        <ele>1245</ele>
        <time>2023-04-21T10:52:42.000Z</time>
      </trkpt>
      <trkpt lat="44.49338" lon="6.25207">
        <ele>1245</ele>
        <time>2023-04-21T10:52:43.000Z</time>
      </trkpt>
      <trkpt lat="44.49339" lon="6.25204">
        <ele>1245</ele>
        <time>2023-04-21T10:52:44.000Z</time>
      </trkpt>
      <trkpt lat="44.49341" lon="6.25201">
        <ele>1245</ele>
        <time>2023-04-21T10:52:45.000Z</time>
      </trkpt>
      <trkpt lat="44.49343" lon="6.25198">
        <ele>1245</ele>
        <time>2023-04-21T10:52:46.000Z</time>
      </trkpt>
      <trkpt lat="44.49344" lon="6.25195">
        <ele>1245</ele>
        <time>2023-04-21T10:52:47.000Z</time>
      </trkpt>
      <trkpt lat="44.49346" lon="6.25192">
        <ele>1246</ele>
        <time>2023-04-21T10:52:48.000Z</time>
      </trkpt>
      <trkpt lat="44.49347" lon="6.25189">
        <ele>1246</ele>
        <time>2023-04-21T10:52:49.000Z</time>
      </trkpt>
      <trkpt lat="44.49349" lon="6.25186">
        <ele>1246</ele>
        <time>2023-04-21T10:52:50.000Z</time>
      </trkpt>
      <trkpt lat="44.49351" lon="6.25183">
        <ele>1246</ele>
        <time>2023-04-21T10:52:51.000Z</time>
      </trkpt>
      <trkpt lat="44.49352" lon="6.2518">
        <ele>1246</ele>
        <time>2023-04-21T10:52:52.000Z</time>
      </trkpt>
      <trkpt lat="44.49354" lon="6.25177">
        <ele>1247</ele>
        <time>2023-04-21T10:52:53.000Z</time>
      </trkpt>
      <trkpt lat="44.49356" lon="6.25174">
        <ele>1247</ele>
        <time>2023-04-21T10:52:54.000Z</time>
      </trkpt>
      <trkpt lat="44.49357" lon="6.25171">
        <ele>1247</ele>
        <time>2023-04-21T10:52:55.000Z</time>
      </trkpt>
      <trkpt lat="44.49359" lon="6.25168">
        <ele>1249</ele>
        <time>2023-04-21T10:52:56.000Z</time>
      </trkpt>
      <trkpt lat="44.4936" lon="6.25166">
        <ele>1249</ele>
        <time>2023-04-21T10:52:57.000Z</time>
      </trkpt>
      <trkpt lat="44.49362" lon="6.25164">
        <ele>1248</ele>
        <time>2023-04-21T10:52:58.000Z</time>
      </trkpt>
      <trkpt lat="44.49364" lon="6.25162">
        <ele>1248</ele>
        <time>2023-04-21T10:52:59.000Z</time>
      </trkpt>
      <trkpt lat="44.49366" lon="6.25159">
        <ele>1249</ele>
        <time>2023-04-21T10:53:00.000Z</time>
      </trkpt>
      <trkpt lat="44.49368" lon="6.25157">
        <ele>1249</ele>
        <time>2023-04-21T10:53:01.000Z</time>
      </trkpt>
      <trkpt lat="44.4937" lon="6.25154">
        <ele>1250</ele>
        <time>2023-04-21T10:53:02.000Z</time>
      </trkpt>
      <trkpt lat="44.49372" lon="6.25152">
        <ele>1250</ele>
        <time>2023-04-21T10:53:03.000Z</time>
      </trkpt>
      <trkpt lat="44.49374" lon="6.25149">
        <ele>1250</ele>
        <time>2023-04-21T10:53:04.000Z</time>
      </trkpt>
      <trkpt lat="44.49376" lon="6.25146">
        <ele>1250</ele>
        <time>2023-04-21T10:53:05.000Z</time>
      </trkpt>
      <trkpt lat="44.49377" lon="6.25143">
        <ele>1250</ele>
        <time>2023-04-21T10:53:06.000Z</time>
      </trkpt>
      <trkpt lat="44.49379" lon="6.2514">
        <ele>1251</ele>
        <time>2023-04-21T10:53:07.000Z</time>
      </trkpt>
      <trkpt lat="44.49381" lon="6.25138">
        <ele>1252</ele>
        <time>2023-04-21T10:53:08.000Z</time>
      </trkpt>
      <trkpt lat="44.49383" lon="6.25135">
        <ele>1252</ele>
        <time>2023-04-21T10:53:09.000Z</time>
      </trkpt>
      <trkpt lat="44.49385" lon="6.25133">
        <ele>1252</ele>
        <time>2023-04-21T10:53:10.000Z</time>
      </trkpt>
      <trkpt lat="44.49387" lon="6.25131">
        <ele>1253</ele>
        <time>2023-04-21T10:53:11.000Z</time>
      </trkpt>
      <trkpt lat="44.4939" lon="6.2513">
        <ele>1253</ele>
        <time>2023-04-21T10:53:12.000Z</time>
      </trkpt>
      <trkpt lat="44.49392" lon="6.25129">
        <ele>1254</ele>
        <time>2023-04-21T10:53:13.000Z</time>
      </trkpt>
      <trkpt lat="44.49394" lon="6.25128">
        <ele>1254</ele>
        <time>2023-04-21T10:53:14.000Z</time>
      </trkpt>
      <trkpt lat="44.49396" lon="6.25128">
        <ele>1255</ele>
        <time>2023-04-21T10:53:15.000Z</time>
      </trkpt>
      <trkpt lat="44.49398" lon="6.25129">
        <ele>1256</ele>
        <time>2023-04-21T10:53:16.000Z</time>
      </trkpt>
      <trkpt lat="44.494" lon="6.25129">
        <ele>1256</ele>
        <time>2023-04-21T10:53:17.000Z</time>
      </trkpt>
      <trkpt lat="44.49402" lon="6.25129">
        <ele>1257</ele>
        <time>2023-04-21T10:53:18.000Z</time>
      </trkpt>
      <trkpt lat="44.49404" lon="6.2513">
        <ele>1258</ele>
        <time>2023-04-21T10:53:19.000Z</time>
      </trkpt>
      <trkpt lat="44.49406" lon="6.25131">
        <ele>1258</ele>
        <time>2023-04-21T10:53:20.000Z</time>
      </trkpt>
      <trkpt lat="44.49408" lon="6.25132">
        <ele>1259</ele>
        <time>2023-04-21T10:53:21.000Z</time>
      </trkpt>
      <trkpt lat="44.4941" lon="6.25133">
        <ele>1259</ele>
        <time>2023-04-21T10:53:22.000Z</time>
      </trkpt>
      <trkpt lat="44.49412" lon="6.25135">
        <ele>1260</ele>
        <time>2023-04-21T10:53:23.000Z</time>
      </trkpt>
      <trkpt lat="44.49414" lon="6.25136">
        <ele>1260</ele>
        <time>2023-04-21T10:53:24.000Z</time>
      </trkpt>
      <trkpt lat="44.49417" lon="6.25137">
        <ele>1260</ele>
        <time>2023-04-21T10:53:25.000Z</time>
      </trkpt>
      <trkpt lat="44.49419" lon="6.25137">
        <ele>1260</ele>
        <time>2023-04-21T10:53:26.000Z</time>
      </trkpt>
      <trkpt lat="44.49421" lon="6.25138">
        <ele>1260</ele>
        <time>2023-04-21T10:53:27.000Z</time>
      </trkpt>
      <trkpt lat="44.49424" lon="6.25139">
        <ele>1260</ele>
        <time>2023-04-21T10:53:28.000Z</time>
      </trkpt>
      <trkpt lat="44.49426" lon="6.2514">
        <ele>1261</ele>
        <time>2023-04-21T10:53:29.000Z</time>
      </trkpt>
      <trkpt lat="44.49428" lon="6.25141">
        <ele>1261</ele>
        <time>2023-04-21T10:53:30.000Z</time>
      </trkpt>
      <trkpt lat="44.4943" lon="6.25142">
        <ele>1261</ele>
        <time>2023-04-21T10:53:31.000Z</time>
      </trkpt>
      <trkpt lat="44.49432" lon="6.25143">
        <ele>1262</ele>
        <time>2023-04-21T10:53:32.000Z</time>
      </trkpt>
      <trkpt lat="44.49434" lon="6.25144">
        <ele>1262</ele>
        <time>2023-04-21T10:53:33.000Z</time>
      </trkpt>
      <trkpt lat="44.49436" lon="6.25144">
        <ele>1263</ele>
        <time>2023-04-21T10:53:34.000Z</time>
      </trkpt>
      <trkpt lat="44.49438" lon="6.25143">
        <ele>1263</ele>
        <time>2023-04-21T10:53:35.000Z</time>
      </trkpt>
      <trkpt lat="44.49439" lon="6.25143">
        <ele>1264</ele>
        <time>2023-04-21T10:53:36.000Z</time>
      </trkpt>
      <trkpt lat="44.49441" lon="6.25143">
        <ele>1265</ele>
        <time>2023-04-21T10:53:37.000Z</time>
      </trkpt>
      <trkpt lat="44.49443" lon="6.25143">
        <ele>1266</ele>
        <time>2023-04-21T10:53:38.000Z</time>
      </trkpt>
      <trkpt lat="44.49445" lon="6.25143">
        <ele>1267</ele>
        <time>2023-04-21T10:53:39.000Z</time>
      </trkpt>
      <trkpt lat="44.49448" lon="6.25142">
        <ele>1268</ele>
        <time>2023-04-21T10:53:40.000Z</time>
      </trkpt>
      <trkpt lat="44.4945" lon="6.25142">
        <ele>1268</ele>
        <time>2023-04-21T10:53:41.000Z</time>
      </trkpt>
      <trkpt lat="44.49452" lon="6.25142">
        <ele>1268</ele>
        <time>2023-04-21T10:53:42.000Z</time>
      </trkpt>
      <trkpt lat="44.49453" lon="6.25142">
        <ele>1269</ele>
        <time>2023-04-21T10:53:43.000Z</time>
      </trkpt>
      <trkpt lat="44.49455" lon="6.25143">
        <ele>1269</ele>
        <time>2023-04-21T10:53:44.000Z</time>
      </trkpt>
      <trkpt lat="44.49457" lon="6.25143">
        <ele>1269</ele>
        <time>2023-04-21T10:53:45.000Z</time>
      </trkpt>
      <trkpt lat="44.49459" lon="6.25143">
        <ele>1269</ele>
        <time>2023-04-21T10:53:46.000Z</time>
      </trkpt>
      <trkpt lat="44.4946" lon="6.25142">
        <ele>1269</ele>
        <time>2023-04-21T10:53:47.000Z</time>
      </trkpt>
      <trkpt lat="44.49462" lon="6.25142">
        <ele>1269</ele>
        <time>2023-04-21T10:53:48.000Z</time>
      </trkpt>
      <trkpt lat="44.49464" lon="6.25142">
        <ele>1269</ele>
        <time>2023-04-21T10:53:49.000Z</time>
      </trkpt>
      <trkpt lat="44.49465" lon="6.25142">
        <ele>1269</ele>
        <time>2023-04-21T10:53:50.000Z</time>
      </trkpt>
      <trkpt lat="44.49467" lon="6.25143">
        <ele>1269</ele>
        <time>2023-04-21T10:53:51.000Z</time>
      </trkpt>
      <trkpt lat="44.4947" lon="6.25143">
        <ele>1269</ele>
        <time>2023-04-21T10:53:52.000Z</time>
      </trkpt>
      <trkpt lat="44.49472" lon="6.25143">
        <ele>1269</ele>
        <time>2023-04-21T10:53:53.000Z</time>
      </trkpt>
      <trkpt lat="44.49475" lon="6.25144">
        <ele>1270</ele>
        <time>2023-04-21T10:53:54.000Z</time>
      </trkpt>
      <trkpt lat="44.49478" lon="6.25144">
        <ele>1270</ele>
        <time>2023-04-21T10:53:55.000Z</time>
      </trkpt>
      <trkpt lat="44.49481" lon="6.25143">
        <ele>1270</ele>
        <time>2023-04-21T10:53:56.000Z</time>
      </trkpt>
      <trkpt lat="44.49484" lon="6.25142">
        <ele>1270</ele>
        <time>2023-04-21T10:53:57.000Z</time>
      </trkpt>
      <trkpt lat="44.49488" lon="6.25142">
        <ele>1269</ele>
        <time>2023-04-21T10:53:58.000Z</time>
      </trkpt>
      <trkpt lat="44.49491" lon="6.25142">
        <ele>1268</ele>
        <time>2023-04-21T10:53:59.000Z</time>
      </trkpt>
      <trkpt lat="44.49496" lon="6.25144">
        <ele>1269</ele>
        <time>2023-04-21T10:54:00.000Z</time>
      </trkpt>
      <trkpt lat="44.49499" lon="6.25145">
        <ele>1269</ele>
        <time>2023-04-21T10:54:01.000Z</time>
      </trkpt>
      <trkpt lat="44.49504" lon="6.25147">
        <ele>1272</ele>
        <time>2023-04-21T10:54:02.000Z</time>
      </trkpt>
      <trkpt lat="44.49507" lon="6.25149">
        <ele>1274</ele>
        <time>2023-04-21T10:54:03.000Z</time>
      </trkpt>
      <trkpt lat="44.4951" lon="6.25151">
        <ele>1275</ele>
        <time>2023-04-21T10:54:04.000Z</time>
      </trkpt>
      <trkpt lat="44.49512" lon="6.25154">
        <ele>1276</ele>
        <time>2023-04-21T10:54:05.000Z</time>
      </trkpt>
      <trkpt lat="44.49513" lon="6.25157">
        <ele>1276</ele>
        <time>2023-04-21T10:54:06.000Z</time>
      </trkpt>
      <trkpt lat="44.49514" lon="6.2516">
        <ele>1276</ele>
        <time>2023-04-21T10:54:07.000Z</time>
      </trkpt>
      <trkpt lat="44.49516" lon="6.25162">
        <ele>1277</ele>
        <time>2023-04-21T10:54:08.000Z</time>
      </trkpt>
      <trkpt lat="44.49517" lon="6.25165">
        <ele>1277</ele>
        <time>2023-04-21T10:54:09.000Z</time>
      </trkpt>
      <trkpt lat="44.49518" lon="6.25167">
        <ele>1279</ele>
        <time>2023-04-21T10:54:10.000Z</time>
      </trkpt>
      <trkpt lat="44.49521" lon="6.25173">
        <ele>1283</ele>
        <time>2023-04-21T10:54:11.000Z</time>
      </trkpt>
      <trkpt lat="44.49523" lon="6.25176">
        <ele>1287</ele>
        <time>2023-04-21T10:54:12.000Z</time>
      </trkpt>
      <trkpt lat="44.49526" lon="6.25178">
        <ele>1289</ele>
        <time>2023-04-21T10:54:13.000Z</time>
      </trkpt>
      <trkpt lat="44.49528" lon="6.25181">
        <ele>1289</ele>
        <time>2023-04-21T10:54:14.000Z</time>
      </trkpt>
      <trkpt lat="44.49529" lon="6.25184">
        <ele>1289</ele>
        <time>2023-04-21T10:54:15.000Z</time>
      </trkpt>
      <trkpt lat="44.49531" lon="6.25187">
        <ele>1291</ele>
        <time>2023-04-21T10:54:16.000Z</time>
      </trkpt>
      <trkpt lat="44.49533" lon="6.25191">
        <ele>1292</ele>
        <time>2023-04-21T10:54:17.000Z</time>
      </trkpt>
      <trkpt lat="44.49535" lon="6.25194">
        <ele>1292</ele>
        <time>2023-04-21T10:54:18.000Z</time>
      </trkpt>
      <trkpt lat="44.49537" lon="6.25198">
        <ele>1293</ele>
        <time>2023-04-21T10:54:19.000Z</time>
      </trkpt>
      <trkpt lat="44.49539" lon="6.25205">
        <ele>1288</ele>
        <time>2023-04-21T10:54:20.000Z</time>
      </trkpt>
      <trkpt lat="44.49543" lon="6.25216">
        <ele>1282</ele>
        <time>2023-04-21T10:54:21.000Z</time>
      </trkpt>
      <trkpt lat="44.49545" lon="6.25223">
        <ele>1281</ele>
        <time>2023-04-21T10:54:22.000Z</time>
      </trkpt>
      <trkpt lat="44.49547" lon="6.25229">
        <ele>1281</ele>
        <time>2023-04-21T10:54:23.000Z</time>
      </trkpt>
      <trkpt lat="44.49549" lon="6.25236">
        <ele>1279</ele>
        <time>2023-04-21T10:54:24.000Z</time>
      </trkpt>
      <trkpt lat="44.49552" lon="6.25243">
        <ele>1282</ele>
        <time>2023-04-21T10:54:25.000Z</time>
      </trkpt>
      <trkpt lat="44.49554" lon="6.25251">
        <ele>1285</ele>
        <time>2023-04-21T10:54:26.000Z</time>
      </trkpt>
      <trkpt lat="44.49557" lon="6.25258">
        <ele>1285</ele>
        <time>2023-04-21T10:54:27.000Z</time>
      </trkpt>
      <trkpt lat="44.49558" lon="6.25263">
        <ele>1286</ele>
        <time>2023-04-21T10:54:28.000Z</time>
      </trkpt>
      <trkpt lat="44.49561" lon="6.2527">
        <ele>1284</ele>
        <time>2023-04-21T10:54:29.000Z</time>
      </trkpt>
      <trkpt lat="44.49563" lon="6.25275">
        <ele>1284</ele>
        <time>2023-04-21T10:54:30.000Z</time>
      </trkpt>
      <trkpt lat="44.49566" lon="6.25282">
        <ele>1283</ele>
        <time>2023-04-21T10:54:31.000Z</time>
      </trkpt>
      <trkpt lat="44.49567" lon="6.25288">
        <ele>1282</ele>
        <time>2023-04-21T10:54:32.000Z</time>
      </trkpt>
      <trkpt lat="44.49568" lon="6.25296">
        <ele>1280</ele>
        <time>2023-04-21T10:54:33.000Z</time>
      </trkpt>
      <trkpt lat="44.49569" lon="6.25304">
        <ele>1281</ele>
        <time>2023-04-21T10:54:34.000Z</time>
      </trkpt>
      <trkpt lat="44.49571" lon="6.25311">
        <ele>1285</ele>
        <time>2023-04-21T10:54:35.000Z</time>
      </trkpt>
      <trkpt lat="44.49572" lon="6.25318">
        <ele>1286</ele>
        <time>2023-04-21T10:54:36.000Z</time>
      </trkpt>
      <trkpt lat="44.49572" lon="6.25325">
        <ele>1286</ele>
        <time>2023-04-21T10:54:37.000Z</time>
      </trkpt>
      <trkpt lat="44.49572" lon="6.25331">
        <ele>1287</ele>
        <time>2023-04-21T10:54:38.000Z</time>
      </trkpt>
      <trkpt lat="44.49573" lon="6.25337">
        <ele>1288</ele>
        <time>2023-04-21T10:54:39.000Z</time>
      </trkpt>
      <trkpt lat="44.49576" lon="6.25342">
        <ele>1289</ele>
        <time>2023-04-21T10:54:40.000Z</time>
      </trkpt>
      <trkpt lat="44.49582" lon="6.25342">
        <ele>1291</ele>
        <time>2023-04-21T10:54:41.000Z</time>
      </trkpt>
      <trkpt lat="44.49585" lon="6.25346">
        <ele>1291</ele>
        <time>2023-04-21T10:54:42.000Z</time>
      </trkpt>
      <trkpt lat="44.49588" lon="6.25349">
        <ele>1292</ele>
        <time>2023-04-21T10:54:43.000Z</time>
      </trkpt>
      <trkpt lat="44.4959" lon="6.2535">
        <ele>1291</ele>
        <time>2023-04-21T10:54:44.000Z</time>
      </trkpt>
      <trkpt lat="44.49592" lon="6.25351">
        <ele>1289</ele>
        <time>2023-04-21T10:54:45.000Z</time>
      </trkpt>
      <trkpt lat="44.49594" lon="6.2535">
        <ele>1288</ele>
        <time>2023-04-21T10:54:46.000Z</time>
      </trkpt>
      <trkpt lat="44.49596" lon="6.2535">
        <ele>1287</ele>
        <time>2023-04-21T10:54:47.000Z</time>
      </trkpt>
      <trkpt lat="44.49598" lon="6.25349">
        <ele>1287</ele>
        <time>2023-04-21T10:54:48.000Z</time>
      </trkpt>
      <trkpt lat="44.496" lon="6.25349">
        <ele>1287</ele>
        <time>2023-04-21T10:54:49.000Z</time>
      </trkpt>
      <trkpt lat="44.49603" lon="6.25349">
        <ele>1287</ele>
        <time>2023-04-21T10:54:50.000Z</time>
      </trkpt>
      <trkpt lat="44.49606" lon="6.2535">
        <ele>1286</ele>
        <time>2023-04-21T10:54:51.000Z</time>
      </trkpt>
      <trkpt lat="44.49609" lon="6.25351">
        <ele>1284</ele>
        <time>2023-04-21T10:54:52.000Z</time>
      </trkpt>
      <trkpt lat="44.49612" lon="6.25352">
        <ele>1283</ele>
        <time>2023-04-21T10:54:53.000Z</time>
      </trkpt>
      <trkpt lat="44.49615" lon="6.25352">
        <ele>1282</ele>
        <time>2023-04-21T10:54:54.000Z</time>
      </trkpt>
      <trkpt lat="44.49615" lon="6.25353">
        <ele>1280</ele>
        <time>2023-04-21T10:54:55.000Z</time>
      </trkpt>
      <trkpt lat="44.49615" lon="6.25354">
        <ele>1278</ele>
        <time>2023-04-21T10:54:56.000Z</time>
      </trkpt>
      <trkpt lat="44.49617" lon="6.25355">
        <ele>1277</ele>
        <time>2023-04-21T10:54:57.000Z</time>
      </trkpt>
      <trkpt lat="44.49618" lon="6.25355">
        <ele>1276</ele>
        <time>2023-04-21T10:54:58.000Z</time>
      </trkpt>
      <trkpt lat="44.4962" lon="6.25357">
        <ele>1276</ele>
        <time>2023-04-21T10:54:59.000Z</time>
      </trkpt>
      <trkpt lat="44.49622" lon="6.25358">
        <ele>1272</ele>
        <time>2023-04-21T10:55:00.000Z</time>
      </trkpt>
      <trkpt lat="44.49623" lon="6.25358">
        <ele>1272</ele>
        <time>2023-04-21T10:55:01.000Z</time>
      </trkpt>
      <trkpt lat="44.49626" lon="6.25361">
        <ele>1272</ele>
        <time>2023-04-21T10:55:02.000Z</time>
      </trkpt>
      <trkpt lat="44.49628" lon="6.25362">
        <ele>1272</ele>
        <time>2023-04-21T10:55:03.000Z</time>
      </trkpt>
      <trkpt lat="44.4963" lon="6.25365">
        <ele>1272</ele>
        <time>2023-04-21T10:55:04.000Z</time>
      </trkpt>
      <trkpt lat="44.49633" lon="6.25368">
        <ele>1272</ele>
        <time>2023-04-21T10:55:05.000Z</time>
      </trkpt>
      <trkpt lat="44.49635" lon="6.25373">
        <ele>1272</ele>
        <time>2023-04-21T10:55:06.000Z</time>
      </trkpt>
      <trkpt lat="44.49638" lon="6.25376">
        <ele>1272</ele>
        <time>2023-04-21T10:55:07.000Z</time>
      </trkpt>
      <trkpt lat="44.49642" lon="6.2538">
        <ele>1273</ele>
        <time>2023-04-21T10:55:08.000Z</time>
      </trkpt>
      <trkpt lat="44.49646" lon="6.25384">
        <ele>1272</ele>
        <time>2023-04-21T10:55:09.000Z</time>
      </trkpt>
      <trkpt lat="44.4965" lon="6.25388">
        <ele>1272</ele>
        <time>2023-04-21T10:55:10.000Z</time>
      </trkpt>
      <trkpt lat="44.49655" lon="6.25392">
        <ele>1272</ele>
        <time>2023-04-21T10:55:11.000Z</time>
      </trkpt>
      <trkpt lat="44.4966" lon="6.25397">
        <ele>1272</ele>
        <time>2023-04-21T10:55:12.000Z</time>
      </trkpt>
      <trkpt lat="44.49665" lon="6.25401">
        <ele>1272</ele>
        <time>2023-04-21T10:55:13.000Z</time>
      </trkpt>
      <trkpt lat="44.49669" lon="6.25405">
        <ele>1272</ele>
        <time>2023-04-21T10:55:14.000Z</time>
      </trkpt>
      <trkpt lat="44.49672" lon="6.25409">
        <ele>1273</ele>
        <time>2023-04-21T10:55:15.000Z</time>
      </trkpt>
      <trkpt lat="44.49675" lon="6.25412">
        <ele>1274</ele>
        <time>2023-04-21T10:55:16.000Z</time>
      </trkpt>
      <trkpt lat="44.49678" lon="6.25415">
        <ele>1275</ele>
        <time>2023-04-21T10:55:17.000Z</time>
      </trkpt>
      <trkpt lat="44.49681" lon="6.25418">
        <ele>1275</ele>
        <time>2023-04-21T10:55:18.000Z</time>
      </trkpt>
      <trkpt lat="44.49685" lon="6.25421">
        <ele>1275</ele>
        <time>2023-04-21T10:55:19.000Z</time>
      </trkpt>
      <trkpt lat="44.49688" lon="6.25424">
        <ele>1275</ele>
        <time>2023-04-21T10:55:20.000Z</time>
      </trkpt>
      <trkpt lat="44.49691" lon="6.25426">
        <ele>1274</ele>
        <time>2023-04-21T10:55:21.000Z</time>
      </trkpt>
      <trkpt lat="44.49694" lon="6.25427">
        <ele>1273</ele>
        <time>2023-04-21T10:55:22.000Z</time>
      </trkpt>
      <trkpt lat="44.49696" lon="6.25428">
        <ele>1273</ele>
        <time>2023-04-21T10:55:23.000Z</time>
      </trkpt>
      <trkpt lat="44.49699" lon="6.2543">
        <ele>1272</ele>
        <time>2023-04-21T10:55:24.000Z</time>
      </trkpt>
      <trkpt lat="44.49701" lon="6.25431">
        <ele>1271</ele>
        <time>2023-04-21T10:55:25.000Z</time>
      </trkpt>
      <trkpt lat="44.49703" lon="6.25433">
        <ele>1271</ele>
        <time>2023-04-21T10:55:26.000Z</time>
      </trkpt>
      <trkpt lat="44.49705" lon="6.25435">
        <ele>1269</ele>
        <time>2023-04-21T10:55:27.000Z</time>
      </trkpt>
      <trkpt lat="44.49707" lon="6.25438">
        <ele>1266</ele>
        <time>2023-04-21T10:55:28.000Z</time>
      </trkpt>
      <trkpt lat="44.49709" lon="6.2544">
        <ele>1264</ele>
        <time>2023-04-21T10:55:29.000Z</time>
      </trkpt>
      <trkpt lat="44.49712" lon="6.25442">
        <ele>1264</ele>
        <time>2023-04-21T10:55:30.000Z</time>
      </trkpt>
      <trkpt lat="44.49714" lon="6.25444">
        <ele>1264</ele>
        <time>2023-04-21T10:55:31.000Z</time>
      </trkpt>
      <trkpt lat="44.49716" lon="6.25446">
        <ele>1263</ele>
        <time>2023-04-21T10:55:32.000Z</time>
      </trkpt>
      <trkpt lat="44.49718" lon="6.25448">
        <ele>1262</ele>
        <time>2023-04-21T10:55:33.000Z</time>
      </trkpt>
      <trkpt lat="44.49719" lon="6.2545">
        <ele>1263</ele>
        <time>2023-04-21T10:55:34.000Z</time>
      </trkpt>
      <trkpt lat="44.49721" lon="6.25451">
        <ele>1263</ele>
        <time>2023-04-21T10:55:35.000Z</time>
      </trkpt>
      <trkpt lat="44.49722" lon="6.25454">
        <ele>1265</ele>
        <time>2023-04-21T10:55:36.000Z</time>
      </trkpt>
      <trkpt lat="44.49724" lon="6.25456">
        <ele>1265</ele>
        <time>2023-04-21T10:55:37.000Z</time>
      </trkpt>
      <trkpt lat="44.49726" lon="6.25458">
        <ele>1266</ele>
        <time>2023-04-21T10:55:38.000Z</time>
      </trkpt>
      <trkpt lat="44.49727" lon="6.2546">
        <ele>1266</ele>
        <time>2023-04-21T10:55:39.000Z</time>
      </trkpt>
      <trkpt lat="44.49728" lon="6.25461">
        <ele>1266</ele>
        <time>2023-04-21T10:55:40.000Z</time>
      </trkpt>
      <trkpt lat="44.49729" lon="6.25464">
        <ele>1267</ele>
        <time>2023-04-21T10:55:41.000Z</time>
      </trkpt>
      <trkpt lat="44.49731" lon="6.25467">
        <ele>1267</ele>
        <time>2023-04-21T10:55:42.000Z</time>
      </trkpt>
      <trkpt lat="44.49734" lon="6.25471">
        <ele>1268</ele>
        <time>2023-04-21T10:55:43.000Z</time>
      </trkpt>
      <trkpt lat="44.49736" lon="6.25474">
        <ele>1269</ele>
        <time>2023-04-21T10:55:44.000Z</time>
      </trkpt>
      <trkpt lat="44.49738" lon="6.25475">
        <ele>1269</ele>
        <time>2023-04-21T10:55:45.000Z</time>
      </trkpt>
      <trkpt lat="44.4974" lon="6.25478">
        <ele>1269</ele>
        <time>2023-04-21T10:55:46.000Z</time>
      </trkpt>
      <trkpt lat="44.49743" lon="6.25481">
        <ele>1270</ele>
        <time>2023-04-21T10:55:47.000Z</time>
      </trkpt>
      <trkpt lat="44.49745" lon="6.25483">
        <ele>1272</ele>
        <time>2023-04-21T10:55:48.000Z</time>
      </trkpt>
      <trkpt lat="44.49748" lon="6.25486">
        <ele>1272</ele>
        <time>2023-04-21T10:55:49.000Z</time>
      </trkpt>
      <trkpt lat="44.4975" lon="6.25488">
        <ele>1271</ele>
        <time>2023-04-21T10:55:50.000Z</time>
      </trkpt>
      <trkpt lat="44.49752" lon="6.2549">
        <ele>1271</ele>
        <time>2023-04-21T10:55:51.000Z</time>
      </trkpt>
      <trkpt lat="44.49754" lon="6.25493">
        <ele>1270</ele>
        <time>2023-04-21T10:55:52.000Z</time>
      </trkpt>
      <trkpt lat="44.49756" lon="6.25496">
        <ele>1269</ele>
        <time>2023-04-21T10:55:53.000Z</time>
      </trkpt>
      <trkpt lat="44.49759" lon="6.25497">
        <ele>1263</ele>
        <time>2023-04-21T10:55:54.000Z</time>
      </trkpt>
      <trkpt lat="44.49761" lon="6.255">
        <ele>1261</ele>
        <time>2023-04-21T10:55:55.000Z</time>
      </trkpt>
      <trkpt lat="44.49763" lon="6.25502">
        <ele>1259</ele>
        <time>2023-04-21T10:55:56.000Z</time>
      </trkpt>
      <trkpt lat="44.49765" lon="6.25505">
        <ele>1258</ele>
        <time>2023-04-21T10:55:57.000Z</time>
      </trkpt>
      <trkpt lat="44.49768" lon="6.25508">
        <ele>1258</ele>
        <time>2023-04-21T10:55:58.000Z</time>
      </trkpt>
      <trkpt lat="44.4977" lon="6.25511">
        <ele>1257</ele>
        <time>2023-04-21T10:55:59.000Z</time>
      </trkpt>
      <trkpt lat="44.49772" lon="6.25514">
        <ele>1257</ele>
        <time>2023-04-21T10:56:00.000Z</time>
      </trkpt>
      <trkpt lat="44.49774" lon="6.25516">
        <ele>1256</ele>
        <time>2023-04-21T10:56:01.000Z</time>
      </trkpt>
      <trkpt lat="44.49776" lon="6.25519">
        <ele>1256</ele>
        <time>2023-04-21T10:56:02.000Z</time>
      </trkpt>
      <trkpt lat="44.49778" lon="6.25522">
        <ele>1256</ele>
        <time>2023-04-21T10:56:03.000Z</time>
      </trkpt>
      <trkpt lat="44.4978" lon="6.25526">
        <ele>1256</ele>
        <time>2023-04-21T10:56:04.000Z</time>
      </trkpt>
      <trkpt lat="44.49782" lon="6.25529">
        <ele>1257</ele>
        <time>2023-04-21T10:56:05.000Z</time>
      </trkpt>
      <trkpt lat="44.49783" lon="6.25532">
        <ele>1258</ele>
        <time>2023-04-21T10:56:06.000Z</time>
      </trkpt>
      <trkpt lat="44.49785" lon="6.25534">
        <ele>1258</ele>
        <time>2023-04-21T10:56:07.000Z</time>
      </trkpt>
      <trkpt lat="44.49787" lon="6.25537">
        <ele>1259</ele>
        <time>2023-04-21T10:56:08.000Z</time>
      </trkpt>
      <trkpt lat="44.49788" lon="6.25539">
        <ele>1259</ele>
        <time>2023-04-21T10:56:09.000Z</time>
      </trkpt>
      <trkpt lat="44.49789" lon="6.25541">
        <ele>1259</ele>
        <time>2023-04-21T10:56:10.000Z</time>
      </trkpt>
      <trkpt lat="44.49791" lon="6.25542">
        <ele>1259</ele>
        <time>2023-04-21T10:56:11.000Z</time>
      </trkpt>
      <trkpt lat="44.49792" lon="6.25545">
        <ele>1260</ele>
        <time>2023-04-21T10:56:12.000Z</time>
      </trkpt>
      <trkpt lat="44.49794" lon="6.25547">
        <ele>1261</ele>
        <time>2023-04-21T10:56:13.000Z</time>
      </trkpt>
      <trkpt lat="44.49795" lon="6.25549">
        <ele>1261</ele>
        <time>2023-04-21T10:56:14.000Z</time>
      </trkpt>
      <trkpt lat="44.49797" lon="6.25551">
        <ele>1262</ele>
        <time>2023-04-21T10:56:15.000Z</time>
      </trkpt>
      <trkpt lat="44.498" lon="6.25554">
        <ele>1262</ele>
        <time>2023-04-21T10:56:16.000Z</time>
      </trkpt>
      <trkpt lat="44.49802" lon="6.25556">
        <ele>1263</ele>
        <time>2023-04-21T10:56:17.000Z</time>
      </trkpt>
      <trkpt lat="44.49805" lon="6.25559">
        <ele>1263</ele>
        <time>2023-04-21T10:56:18.000Z</time>
      </trkpt>
      <trkpt lat="44.49807" lon="6.25563">
        <ele>1264</ele>
        <time>2023-04-21T10:56:19.000Z</time>
      </trkpt>
      <trkpt lat="44.4981" lon="6.25565">
        <ele>1264</ele>
        <time>2023-04-21T10:56:20.000Z</time>
      </trkpt>
      <trkpt lat="44.49812" lon="6.25568">
        <ele>1265</ele>
        <time>2023-04-21T10:56:21.000Z</time>
      </trkpt>
      <trkpt lat="44.49815" lon="6.25573">
        <ele>1267</ele>
        <time>2023-04-21T10:56:22.000Z</time>
      </trkpt>
      <trkpt lat="44.49817" lon="6.25576">
        <ele>1268</ele>
        <time>2023-04-21T10:56:23.000Z</time>
      </trkpt>
      <trkpt lat="44.49821" lon="6.25581">
        <ele>1270</ele>
        <time>2023-04-21T10:56:24.000Z</time>
      </trkpt>
      <trkpt lat="44.49824" lon="6.25583">
        <ele>1271</ele>
        <time>2023-04-21T10:56:25.000Z</time>
      </trkpt>
      <trkpt lat="44.49826" lon="6.25585">
        <ele>1271</ele>
        <time>2023-04-21T10:56:26.000Z</time>
      </trkpt>
      <trkpt lat="44.49828" lon="6.25588">
        <ele>1270</ele>
        <time>2023-04-21T10:56:27.000Z</time>
      </trkpt>
      <trkpt lat="44.49829" lon="6.2559">
        <ele>1271</ele>
        <time>2023-04-21T10:56:28.000Z</time>
      </trkpt>
      <trkpt lat="44.49831" lon="6.25593">
        <ele>1271</ele>
        <time>2023-04-21T10:56:29.000Z</time>
      </trkpt>
      <trkpt lat="44.49833" lon="6.25595">
        <ele>1272</ele>
        <time>2023-04-21T10:56:30.000Z</time>
      </trkpt>
      <trkpt lat="44.49833" lon="6.25597">
        <ele>1272</ele>
        <time>2023-04-21T10:56:31.000Z</time>
      </trkpt>
      <trkpt lat="44.49835" lon="6.25598">
        <ele>1273</ele>
        <time>2023-04-21T10:56:32.000Z</time>
      </trkpt>
      <trkpt lat="44.49836" lon="6.25601">
        <ele>1274</ele>
        <time>2023-04-21T10:56:33.000Z</time>
      </trkpt>
      <trkpt lat="44.49837" lon="6.25602">
        <ele>1274</ele>
        <time>2023-04-21T10:56:34.000Z</time>
      </trkpt>
      <trkpt lat="44.49839" lon="6.25605">
        <ele>1275</ele>
        <time>2023-04-21T10:56:35.000Z</time>
      </trkpt>
      <trkpt lat="44.49841" lon="6.25609">
        <ele>1277</ele>
        <time>2023-04-21T10:56:36.000Z</time>
      </trkpt>
      <trkpt lat="44.49844" lon="6.25612">
        <ele>1278</ele>
        <time>2023-04-21T10:56:37.000Z</time>
      </trkpt>
      <trkpt lat="44.49845" lon="6.25616">
        <ele>1277</ele>
        <time>2023-04-21T10:56:38.000Z</time>
      </trkpt>
      <trkpt lat="44.49847" lon="6.25618">
        <ele>1277</ele>
        <time>2023-04-21T10:56:39.000Z</time>
      </trkpt>
      <trkpt lat="44.49848" lon="6.25619">
        <ele>1277</ele>
        <time>2023-04-21T10:56:40.000Z</time>
      </trkpt>
      <trkpt lat="44.4985" lon="6.25621">
        <ele>1276</ele>
        <time>2023-04-21T10:56:41.000Z</time>
      </trkpt>
      <trkpt lat="44.49851" lon="6.25622">
        <ele>1277</ele>
        <time>2023-04-21T10:56:42.000Z</time>
      </trkpt>
      <trkpt lat="44.49852" lon="6.25623">
        <ele>1277</ele>
        <time>2023-04-21T10:56:43.000Z</time>
      </trkpt>
      <trkpt lat="44.49854" lon="6.25624">
        <ele>1277</ele>
        <time>2023-04-21T10:56:44.000Z</time>
      </trkpt>
      <trkpt lat="44.49855" lon="6.25625">
        <ele>1276</ele>
        <time>2023-04-21T10:56:45.000Z</time>
      </trkpt>
      <trkpt lat="44.49856" lon="6.25625">
        <ele>1277</ele>
        <time>2023-04-21T10:56:46.000Z</time>
      </trkpt>
      <trkpt lat="44.49858" lon="6.25626">
        <ele>1278</ele>
        <time>2023-04-21T10:56:47.000Z</time>
      </trkpt>
      <trkpt lat="44.4986" lon="6.25627">
        <ele>1278</ele>
        <time>2023-04-21T10:56:48.000Z</time>
      </trkpt>
      <trkpt lat="44.49862" lon="6.2563">
        <ele>1279</ele>
        <time>2023-04-21T10:56:49.000Z</time>
      </trkpt>
      <trkpt lat="44.49864" lon="6.25632">
        <ele>1279</ele>
        <time>2023-04-21T10:56:50.000Z</time>
      </trkpt>
      <trkpt lat="44.49866" lon="6.25634">
        <ele>1279</ele>
        <time>2023-04-21T10:56:51.000Z</time>
      </trkpt>
      <trkpt lat="44.49868" lon="6.25636">
        <ele>1280</ele>
        <time>2023-04-21T10:56:52.000Z</time>
      </trkpt>
      <trkpt lat="44.49869" lon="6.25637">
        <ele>1281</ele>
        <time>2023-04-21T10:56:53.000Z</time>
      </trkpt>
      <trkpt lat="44.4987" lon="6.25639">
        <ele>1281</ele>
        <time>2023-04-21T10:56:54.000Z</time>
      </trkpt>
      <trkpt lat="44.49872" lon="6.2564">
        <ele>1280</ele>
        <time>2023-04-21T10:56:55.000Z</time>
      </trkpt>
      <trkpt lat="44.49873" lon="6.25642">
        <ele>1277</ele>
        <time>2023-04-21T10:56:56.000Z</time>
      </trkpt>
      <trkpt lat="44.49875" lon="6.25644">
        <ele>1277</ele>
        <time>2023-04-21T10:56:57.000Z</time>
      </trkpt>
      <trkpt lat="44.49876" lon="6.25645">
        <ele>1276</ele>
        <time>2023-04-21T10:56:58.000Z</time>
      </trkpt>
      <trkpt lat="44.49877" lon="6.25647">
        <ele>1276</ele>
        <time>2023-04-21T10:56:59.000Z</time>
      </trkpt>
      <trkpt lat="44.49878" lon="6.25648">
        <ele>1277</ele>
        <time>2023-04-21T10:57:00.000Z</time>
      </trkpt>
      <trkpt lat="44.49878" lon="6.25649">
        <ele>1276</ele>
        <time>2023-04-21T10:57:01.000Z</time>
      </trkpt>
      <trkpt lat="44.49879" lon="6.25651">
        <ele>1276</ele>
        <time>2023-04-21T10:57:02.000Z</time>
      </trkpt>
      <trkpt lat="44.4988" lon="6.25652">
        <ele>1275</ele>
        <time>2023-04-21T10:57:03.000Z</time>
      </trkpt>
      <trkpt lat="44.49881" lon="6.25652">
        <ele>1275</ele>
        <time>2023-04-21T10:57:04.000Z</time>
      </trkpt>
      <trkpt lat="44.49882" lon="6.25654">
        <ele>1274</ele>
        <time>2023-04-21T10:57:05.000Z</time>
      </trkpt>
      <trkpt lat="44.49883" lon="6.25656">
        <ele>1273</ele>
        <time>2023-04-21T10:57:06.000Z</time>
      </trkpt>
      <trkpt lat="44.49883" lon="6.25657">
        <ele>1271</ele>
        <time>2023-04-21T10:57:07.000Z</time>
      </trkpt>
      <trkpt lat="44.49884" lon="6.25658">
        <ele>1270</ele>
        <time>2023-04-21T10:57:08.000Z</time>
      </trkpt>
      <trkpt lat="44.49885" lon="6.2566">
        <ele>1269</ele>
        <time>2023-04-21T10:57:09.000Z</time>
      </trkpt>
      <trkpt lat="44.49886" lon="6.25662">
        <ele>1268</ele>
        <time>2023-04-21T10:57:10.000Z</time>
      </trkpt>
      <trkpt lat="44.49888" lon="6.25664">
        <ele>1268</ele>
        <time>2023-04-21T10:57:11.000Z</time>
      </trkpt>
      <trkpt lat="44.49888" lon="6.25666">
        <ele>1267</ele>
        <time>2023-04-21T10:57:12.000Z</time>
      </trkpt>
      <trkpt lat="44.4989" lon="6.25668">
        <ele>1267</ele>
        <time>2023-04-21T10:57:13.000Z</time>
      </trkpt>
      <trkpt lat="44.49892" lon="6.25673">
        <ele>1267</ele>
        <time>2023-04-21T10:57:14.000Z</time>
      </trkpt>
      <trkpt lat="44.49894" lon="6.25677">
        <ele>1268</ele>
        <time>2023-04-21T10:57:15.000Z</time>
      </trkpt>
      <trkpt lat="44.49895" lon="6.25679">
        <ele>1267</ele>
        <time>2023-04-21T10:57:16.000Z</time>
      </trkpt>
      <trkpt lat="44.49897" lon="6.25681">
        <ele>1266</ele>
        <time>2023-04-21T10:57:17.000Z</time>
      </trkpt>
      <trkpt lat="44.49898" lon="6.25682">
        <ele>1266</ele>
        <time>2023-04-21T10:57:18.000Z</time>
      </trkpt>
      <trkpt lat="44.49901" lon="6.25682">
        <ele>1267</ele>
        <time>2023-04-21T10:57:19.000Z</time>
      </trkpt>
      <trkpt lat="44.49903" lon="6.25682">
        <ele>1266</ele>
        <time>2023-04-21T10:57:20.000Z</time>
      </trkpt>
      <trkpt lat="44.49902" lon="6.25681">
        <ele>1265</ele>
        <time>2023-04-21T10:57:21.000Z</time>
      </trkpt>
      <trkpt lat="44.49904" lon="6.25679">
        <ele>1265</ele>
        <time>2023-04-21T10:57:22.000Z</time>
      </trkpt>
      <trkpt lat="44.49905" lon="6.25679">
        <ele>1265</ele>
        <time>2023-04-21T10:57:23.000Z</time>
      </trkpt>
      <trkpt lat="44.49906" lon="6.25677">
        <ele>1264</ele>
        <time>2023-04-21T10:57:24.000Z</time>
      </trkpt>
      <trkpt lat="44.49907" lon="6.25676">
        <ele>1264</ele>
        <time>2023-04-21T10:57:25.000Z</time>
      </trkpt>
      <trkpt lat="44.49909" lon="6.25675">
        <ele>1261</ele>
        <time>2023-04-21T10:57:26.000Z</time>
      </trkpt>
      <trkpt lat="44.49911" lon="6.25674">
        <ele>1259</ele>
        <time>2023-04-21T10:57:27.000Z</time>
      </trkpt>
      <trkpt lat="44.49912" lon="6.25673">
        <ele>1257</ele>
        <time>2023-04-21T10:57:28.000Z</time>
      </trkpt>
      <trkpt lat="44.49913" lon="6.25672">
        <ele>1255</ele>
        <time>2023-04-21T10:57:29.000Z</time>
      </trkpt>
      <trkpt lat="44.49915" lon="6.25671">
        <ele>1254</ele>
        <time>2023-04-21T10:57:30.000Z</time>
      </trkpt>
      <trkpt lat="44.49916" lon="6.25669">
        <ele>1254</ele>
        <time>2023-04-21T10:57:31.000Z</time>
      </trkpt>
      <trkpt lat="44.49918" lon="6.25668">
        <ele>1253</ele>
        <time>2023-04-21T10:57:32.000Z</time>
      </trkpt>
      <trkpt lat="44.49919" lon="6.25666">
        <ele>1252</ele>
        <time>2023-04-21T10:57:33.000Z</time>
      </trkpt>
      <trkpt lat="44.49921" lon="6.25665">
        <ele>1251</ele>
        <time>2023-04-21T10:57:34.000Z</time>
      </trkpt>
      <trkpt lat="44.49922" lon="6.25664">
        <ele>1251</ele>
        <time>2023-04-21T10:57:35.000Z</time>
      </trkpt>
      <trkpt lat="44.49924" lon="6.25663">
        <ele>1250</ele>
        <time>2023-04-21T10:57:36.000Z</time>
      </trkpt>
      <trkpt lat="44.49925" lon="6.25663">
        <ele>1250</ele>
        <time>2023-04-21T10:57:37.000Z</time>
      </trkpt>
      <trkpt lat="44.49927" lon="6.25662">
        <ele>1249</ele>
        <time>2023-04-21T10:57:38.000Z</time>
      </trkpt>
      <trkpt lat="44.49928" lon="6.25661">
        <ele>1249</ele>
        <time>2023-04-21T10:57:39.000Z</time>
      </trkpt>
      <trkpt lat="44.4993" lon="6.25661">
        <ele>1248</ele>
        <time>2023-04-21T10:57:40.000Z</time>
      </trkpt>
      <trkpt lat="44.49931" lon="6.2566">
        <ele>1249</ele>
        <time>2023-04-21T10:57:41.000Z</time>
      </trkpt>
      <trkpt lat="44.49933" lon="6.25659">
        <ele>1249</ele>
        <time>2023-04-21T10:57:42.000Z</time>
      </trkpt>
      <trkpt lat="44.49935" lon="6.25658">
        <ele>1249</ele>
        <time>2023-04-21T10:57:43.000Z</time>
      </trkpt>
      <trkpt lat="44.49937" lon="6.25658">
        <ele>1249</ele>
        <time>2023-04-21T10:57:44.000Z</time>
      </trkpt>
      <trkpt lat="44.49938" lon="6.25658">
        <ele>1248</ele>
        <time>2023-04-21T10:57:45.000Z</time>
      </trkpt>
      <trkpt lat="44.4994" lon="6.25658">
        <ele>1248</ele>
        <time>2023-04-21T10:57:46.000Z</time>
      </trkpt>
      <trkpt lat="44.49941" lon="6.25658">
        <ele>1248</ele>
        <time>2023-04-21T10:57:47.000Z</time>
      </trkpt>
      <trkpt lat="44.49943" lon="6.25658">
        <ele>1248</ele>
        <time>2023-04-21T10:57:48.000Z</time>
      </trkpt>
      <trkpt lat="44.49945" lon="6.25658">
        <ele>1248</ele>
        <time>2023-04-21T10:57:49.000Z</time>
      </trkpt>
      <trkpt lat="44.49947" lon="6.25658">
        <ele>1249</ele>
        <time>2023-04-21T10:57:50.000Z</time>
      </trkpt>
      <trkpt lat="44.49949" lon="6.25658">
        <ele>1249</ele>
        <time>2023-04-21T10:57:51.000Z</time>
      </trkpt>
      <trkpt lat="44.4995" lon="6.25658">
        <ele>1249</ele>
        <time>2023-04-21T10:57:52.000Z</time>
      </trkpt>
      <trkpt lat="44.49952" lon="6.25658">
        <ele>1249</ele>
        <time>2023-04-21T10:57:53.000Z</time>
      </trkpt>
      <trkpt lat="44.49954" lon="6.25658">
        <ele>1249</ele>
        <time>2023-04-21T10:57:54.000Z</time>
      </trkpt>
      <trkpt lat="44.49956" lon="6.25659">
        <ele>1249</ele>
        <time>2023-04-21T10:57:55.000Z</time>
      </trkpt>
      <trkpt lat="44.49958" lon="6.25658">
        <ele>1250</ele>
        <time>2023-04-21T10:57:56.000Z</time>
      </trkpt>
      <trkpt lat="44.4996" lon="6.25658">
        <ele>1251</ele>
        <time>2023-04-21T10:57:57.000Z</time>
      </trkpt>
      <trkpt lat="44.49961" lon="6.25657">
        <ele>1252</ele>
        <time>2023-04-21T10:57:58.000Z</time>
      </trkpt>
      <trkpt lat="44.49963" lon="6.25656">
        <ele>1252</ele>
        <time>2023-04-21T10:57:59.000Z</time>
      </trkpt>
      <trkpt lat="44.49965" lon="6.25655">
        <ele>1252</ele>
        <time>2023-04-21T10:58:00.000Z</time>
      </trkpt>
      <trkpt lat="44.49967" lon="6.25654">
        <ele>1253</ele>
        <time>2023-04-21T10:58:01.000Z</time>
      </trkpt>
      <trkpt lat="44.49969" lon="6.25654">
        <ele>1252</ele>
        <time>2023-04-21T10:58:02.000Z</time>
      </trkpt>
      <trkpt lat="44.49971" lon="6.25653">
        <ele>1252</ele>
        <time>2023-04-21T10:58:03.000Z</time>
      </trkpt>
      <trkpt lat="44.49973" lon="6.25653">
        <ele>1252</ele>
        <time>2023-04-21T10:58:04.000Z</time>
      </trkpt>
      <trkpt lat="44.49975" lon="6.25653">
        <ele>1252</ele>
        <time>2023-04-21T10:58:05.000Z</time>
      </trkpt>
      <trkpt lat="44.49977" lon="6.25653">
        <ele>1253</ele>
        <time>2023-04-21T10:58:06.000Z</time>
      </trkpt>
      <trkpt lat="44.49979" lon="6.25653">
        <ele>1253</ele>
        <time>2023-04-21T10:58:07.000Z</time>
      </trkpt>
      <trkpt lat="44.4998" lon="6.25653">
        <ele>1253</ele>
        <time>2023-04-21T10:58:08.000Z</time>
      </trkpt>
      <trkpt lat="44.49981" lon="6.25653">
        <ele>1252</ele>
        <time>2023-04-21T10:58:09.000Z</time>
      </trkpt>
      <trkpt lat="44.49982" lon="6.25654">
        <ele>1252</ele>
        <time>2023-04-21T10:58:10.000Z</time>
      </trkpt>
      <trkpt lat="44.49984" lon="6.25654">
        <ele>1252</ele>
        <time>2023-04-21T10:58:11.000Z</time>
      </trkpt>
      <trkpt lat="44.49987" lon="6.25655">
        <ele>1252</ele>
        <time>2023-04-21T10:58:12.000Z</time>
      </trkpt>
      <trkpt lat="44.49989" lon="6.25655">
        <ele>1252</ele>
        <time>2023-04-21T10:58:13.000Z</time>
      </trkpt>
      <trkpt lat="44.4999" lon="6.25654">
        <ele>1254</ele>
        <time>2023-04-21T10:58:14.000Z</time>
      </trkpt>
      <trkpt lat="44.4999" lon="6.25653">
        <ele>1255</ele>
        <time>2023-04-21T10:58:15.000Z</time>
      </trkpt>
      <trkpt lat="44.4999" lon="6.25652">
        <ele>1255</ele>
        <time>2023-04-21T10:58:16.000Z</time>
      </trkpt>
      <trkpt lat="44.4999" lon="6.25651">
        <ele>1255</ele>
        <time>2023-04-21T10:58:17.000Z</time>
      </trkpt>
      <trkpt lat="44.4999" lon="6.25651">
        <ele>1255</ele>
        <time>2023-04-21T10:58:18.000Z</time>
      </trkpt>
      <trkpt lat="44.4999" lon="6.25651">
        <ele>1255</ele>
        <time>2023-04-21T10:58:19.000Z</time>
      </trkpt>
      <trkpt lat="44.49991" lon="6.25651">
        <ele>1254</ele>
        <time>2023-04-21T10:58:20.000Z</time>
      </trkpt>
      <trkpt lat="44.4999" lon="6.25652">
        <ele>1255</ele>
        <time>2023-04-21T10:58:21.000Z</time>
      </trkpt>
      <trkpt lat="44.49991" lon="6.25651">
        <ele>1254</ele>
        <time>2023-04-21T10:58:22.000Z</time>
      </trkpt>
      <trkpt lat="44.49991" lon="6.25652">
        <ele>1255</ele>
        <time>2023-04-21T10:58:23.000Z</time>
      </trkpt>
      <trkpt lat="44.49991" lon="6.25651">
        <ele>1255</ele>
        <time>2023-04-21T10:58:24.000Z</time>
      </trkpt>
      <trkpt lat="44.49991" lon="6.2565">
        <ele>1254</ele>
        <time>2023-04-21T10:58:25.000Z</time>
      </trkpt>
      <trkpt lat="44.49992" lon="6.25648">
        <ele>1254</ele>
        <time>2023-04-21T10:58:26.000Z</time>
      </trkpt>
      <trkpt lat="44.49992" lon="6.25647">
        <ele>1254</ele>
        <time>2023-04-21T10:58:27.000Z</time>
      </trkpt>
      <trkpt lat="44.49994" lon="6.25647">
        <ele>1255</ele>
        <time>2023-04-21T10:58:28.000Z</time>
      </trkpt>
      <trkpt lat="44.49995" lon="6.25646">
        <ele>1255</ele>
        <time>2023-04-21T10:58:29.000Z</time>
      </trkpt>
      <trkpt lat="44.49996" lon="6.25645">
        <ele>1255</ele>
        <time>2023-04-21T10:58:30.000Z</time>
      </trkpt>
      <trkpt lat="44.49997" lon="6.25645">
        <ele>1256</ele>
        <time>2023-04-21T10:58:31.000Z</time>
      </trkpt>
      <trkpt lat="44.49999" lon="6.25644">
        <ele>1256</ele>
        <time>2023-04-21T10:58:32.000Z</time>
      </trkpt>
      <trkpt lat="44.5" lon="6.25644">
        <ele>1256</ele>
        <time>2023-04-21T10:58:33.000Z</time>
      </trkpt>
      <trkpt lat="44.50001" lon="6.25643">
        <ele>1257</ele>
        <time>2023-04-21T10:58:34.000Z</time>
      </trkpt>
      <trkpt lat="44.50002" lon="6.25643">
        <ele>1257</ele>
        <time>2023-04-21T10:58:35.000Z</time>
      </trkpt>
      <trkpt lat="44.50004" lon="6.25642">
        <ele>1257</ele>
        <time>2023-04-21T10:58:36.000Z</time>
      </trkpt>
      <trkpt lat="44.50005" lon="6.25641">
        <ele>1258</ele>
        <time>2023-04-21T10:58:37.000Z</time>
      </trkpt>
      <trkpt lat="44.50006" lon="6.2564">
        <ele>1259</ele>
        <time>2023-04-21T10:58:38.000Z</time>
      </trkpt>
      <trkpt lat="44.50008" lon="6.25638">
        <ele>1259</ele>
        <time>2023-04-21T10:58:39.000Z</time>
      </trkpt>
      <trkpt lat="44.50009" lon="6.25637">
        <ele>1258</ele>
        <time>2023-04-21T10:58:40.000Z</time>
      </trkpt>
      <trkpt lat="44.50011" lon="6.25636">
        <ele>1258</ele>
        <time>2023-04-21T10:58:41.000Z</time>
      </trkpt>
      <trkpt lat="44.50012" lon="6.25636">
        <ele>1258</ele>
        <time>2023-04-21T10:58:42.000Z</time>
      </trkpt>
      <trkpt lat="44.50014" lon="6.25635">
        <ele>1258</ele>
        <time>2023-04-21T10:58:43.000Z</time>
      </trkpt>
      <trkpt lat="44.50015" lon="6.25635">
        <ele>1258</ele>
        <time>2023-04-21T10:58:44.000Z</time>
      </trkpt>
      <trkpt lat="44.50017" lon="6.25634">
        <ele>1258</ele>
        <time>2023-04-21T10:58:45.000Z</time>
      </trkpt>
      <trkpt lat="44.50018" lon="6.25633">
        <ele>1258</ele>
        <time>2023-04-21T10:58:46.000Z</time>
      </trkpt>
      <trkpt lat="44.50019" lon="6.25633">
        <ele>1258</ele>
        <time>2023-04-21T10:58:47.000Z</time>
      </trkpt>
      <trkpt lat="44.50021" lon="6.25634">
        <ele>1257</ele>
        <time>2023-04-21T10:58:48.000Z</time>
      </trkpt>
      <trkpt lat="44.50022" lon="6.25633">
        <ele>1257</ele>
        <time>2023-04-21T10:58:49.000Z</time>
      </trkpt>
      <trkpt lat="44.50023" lon="6.25632">
        <ele>1256</ele>
        <time>2023-04-21T10:58:50.000Z</time>
      </trkpt>
      <trkpt lat="44.50025" lon="6.25632">
        <ele>1256</ele>
        <time>2023-04-21T10:58:51.000Z</time>
      </trkpt>
      <trkpt lat="44.50027" lon="6.25631">
        <ele>1255</ele>
        <time>2023-04-21T10:58:52.000Z</time>
      </trkpt>
      <trkpt lat="44.50028" lon="6.2563">
        <ele>1255</ele>
        <time>2023-04-21T10:58:53.000Z</time>
      </trkpt>
      <trkpt lat="44.5003" lon="6.2563">
        <ele>1255</ele>
        <time>2023-04-21T10:58:54.000Z</time>
      </trkpt>
      <trkpt lat="44.50031" lon="6.25629">
        <ele>1255</ele>
        <time>2023-04-21T10:58:55.000Z</time>
      </trkpt>
      <trkpt lat="44.50032" lon="6.2563">
        <ele>1256</ele>
        <time>2023-04-21T10:58:56.000Z</time>
      </trkpt>
      <trkpt lat="44.50033" lon="6.25631">
        <ele>1257</ele>
        <time>2023-04-21T10:58:57.000Z</time>
      </trkpt>
      <trkpt lat="44.50034" lon="6.25633">
        <ele>1259</ele>
        <time>2023-04-21T10:58:58.000Z</time>
      </trkpt>
      <trkpt lat="44.50036" lon="6.25633">
        <ele>1259</ele>
        <time>2023-04-21T10:58:59.000Z</time>
      </trkpt>
      <trkpt lat="44.50037" lon="6.25634">
        <ele>1259</ele>
        <time>2023-04-21T10:59:00.000Z</time>
      </trkpt>
      <trkpt lat="44.50039" lon="6.25635">
        <ele>1260</ele>
        <time>2023-04-21T10:59:01.000Z</time>
      </trkpt>
      <trkpt lat="44.5004" lon="6.25636">
        <ele>1260</ele>
        <time>2023-04-21T10:59:02.000Z</time>
      </trkpt>
      <trkpt lat="44.50042" lon="6.25637">
        <ele>1261</ele>
        <time>2023-04-21T10:59:03.000Z</time>
      </trkpt>
      <trkpt lat="44.50043" lon="6.25638">
        <ele>1261</ele>
        <time>2023-04-21T10:59:04.000Z</time>
      </trkpt>
      <trkpt lat="44.50044" lon="6.2564">
        <ele>1262</ele>
        <time>2023-04-21T10:59:05.000Z</time>
      </trkpt>
      <trkpt lat="44.50046" lon="6.25641">
        <ele>1262</ele>
        <time>2023-04-21T10:59:06.000Z</time>
      </trkpt>
      <trkpt lat="44.50047" lon="6.25642">
        <ele>1262</ele>
        <time>2023-04-21T10:59:07.000Z</time>
      </trkpt>
      <trkpt lat="44.50049" lon="6.25644">
        <ele>1263</ele>
        <time>2023-04-21T10:59:08.000Z</time>
      </trkpt>
      <trkpt lat="44.5005" lon="6.25645">
        <ele>1263</ele>
        <time>2023-04-21T10:59:09.000Z</time>
      </trkpt>
      <trkpt lat="44.50051" lon="6.25645">
        <ele>1262</ele>
        <time>2023-04-21T10:59:10.000Z</time>
      </trkpt>
      <trkpt lat="44.50053" lon="6.25647">
        <ele>1262</ele>
        <time>2023-04-21T10:59:11.000Z</time>
      </trkpt>
      <trkpt lat="44.50054" lon="6.25648">
        <ele>1262</ele>
        <time>2023-04-21T10:59:12.000Z</time>
      </trkpt>
      <trkpt lat="44.50056" lon="6.25649">
        <ele>1262</ele>
        <time>2023-04-21T10:59:13.000Z</time>
      </trkpt>
      <trkpt lat="44.50057" lon="6.2565">
        <ele>1262</ele>
        <time>2023-04-21T10:59:14.000Z</time>
      </trkpt>
      <trkpt lat="44.50057" lon="6.25651">
        <ele>1262</ele>
        <time>2023-04-21T10:59:15.000Z</time>
      </trkpt>
      <trkpt lat="44.50058" lon="6.25653">
        <ele>1262</ele>
        <time>2023-04-21T10:59:16.000Z</time>
      </trkpt>
      <trkpt lat="44.50059" lon="6.25655">
        <ele>1262</ele>
        <time>2023-04-21T10:59:17.000Z</time>
      </trkpt>
      <trkpt lat="44.5006" lon="6.25657">
        <ele>1263</ele>
        <time>2023-04-21T10:59:18.000Z</time>
      </trkpt>
      <trkpt lat="44.50061" lon="6.25659">
        <ele>1263</ele>
        <time>2023-04-21T10:59:19.000Z</time>
      </trkpt>
      <trkpt lat="44.50062" lon="6.25659">
        <ele>1264</ele>
        <time>2023-04-21T10:59:20.000Z</time>
      </trkpt>
      <trkpt lat="44.50064" lon="6.2566">
        <ele>1265</ele>
        <time>2023-04-21T10:59:21.000Z</time>
      </trkpt>
      <trkpt lat="44.50065" lon="6.25662">
        <ele>1265</ele>
        <time>2023-04-21T10:59:22.000Z</time>
      </trkpt>
      <trkpt lat="44.50067" lon="6.25664">
        <ele>1266</ele>
        <time>2023-04-21T10:59:23.000Z</time>
      </trkpt>
      <trkpt lat="44.50069" lon="6.25665">
        <ele>1266</ele>
        <time>2023-04-21T10:59:24.000Z</time>
      </trkpt>
      <trkpt lat="44.5007" lon="6.25667">
        <ele>1266</ele>
        <time>2023-04-21T10:59:25.000Z</time>
      </trkpt>
      <trkpt lat="44.50071" lon="6.25669">
        <ele>1266</ele>
        <time>2023-04-21T10:59:26.000Z</time>
      </trkpt>
      <trkpt lat="44.50073" lon="6.2567">
        <ele>1266</ele>
        <time>2023-04-21T10:59:27.000Z</time>
      </trkpt>
      <trkpt lat="44.50074" lon="6.25671">
        <ele>1267</ele>
        <time>2023-04-21T10:59:28.000Z</time>
      </trkpt>
      <trkpt lat="44.50076" lon="6.25672">
        <ele>1267</ele>
        <time>2023-04-21T10:59:29.000Z</time>
      </trkpt>
      <trkpt lat="44.50078" lon="6.25673">
        <ele>1267</ele>
        <time>2023-04-21T10:59:30.000Z</time>
      </trkpt>
      <trkpt lat="44.50079" lon="6.25675">
        <ele>1266</ele>
        <time>2023-04-21T10:59:31.000Z</time>
      </trkpt>
      <trkpt lat="44.5008" lon="6.25676">
        <ele>1266</ele>
        <time>2023-04-21T10:59:32.000Z</time>
      </trkpt>
      <trkpt lat="44.50081" lon="6.25677">
        <ele>1267</ele>
        <time>2023-04-21T10:59:33.000Z</time>
      </trkpt>
      <trkpt lat="44.50083" lon="6.25679">
        <ele>1267</ele>
        <time>2023-04-21T10:59:34.000Z</time>
      </trkpt>
      <trkpt lat="44.50084" lon="6.25681">
        <ele>1268</ele>
        <time>2023-04-21T10:59:35.000Z</time>
      </trkpt>
      <trkpt lat="44.50086" lon="6.25682">
        <ele>1268</ele>
        <time>2023-04-21T10:59:36.000Z</time>
      </trkpt>
      <trkpt lat="44.50088" lon="6.25683">
        <ele>1268</ele>
        <time>2023-04-21T10:59:37.000Z</time>
      </trkpt>
      <trkpt lat="44.50089" lon="6.25683">
        <ele>1268</ele>
        <time>2023-04-21T10:59:38.000Z</time>
      </trkpt>
      <trkpt lat="44.50091" lon="6.25686">
        <ele>1269</ele>
        <time>2023-04-21T10:59:39.000Z</time>
      </trkpt>
      <trkpt lat="44.50093" lon="6.25689">
        <ele>1270</ele>
        <time>2023-04-21T10:59:40.000Z</time>
      </trkpt>
      <trkpt lat="44.50095" lon="6.25691">
        <ele>1269</ele>
        <time>2023-04-21T10:59:41.000Z</time>
      </trkpt>
      <trkpt lat="44.50097" lon="6.25694">
        <ele>1270</ele>
        <time>2023-04-21T10:59:42.000Z</time>
      </trkpt>
      <trkpt lat="44.501" lon="6.25696">
        <ele>1271</ele>
        <time>2023-04-21T10:59:43.000Z</time>
      </trkpt>
      <trkpt lat="44.50102" lon="6.25698">
        <ele>1272</ele>
        <time>2023-04-21T10:59:44.000Z</time>
      </trkpt>
      <trkpt lat="44.50106" lon="6.257">
        <ele>1272</ele>
        <time>2023-04-21T10:59:45.000Z</time>
      </trkpt>
      <trkpt lat="44.50109" lon="6.25701">
        <ele>1272</ele>
        <time>2023-04-21T10:59:46.000Z</time>
      </trkpt>
      <trkpt lat="44.50112" lon="6.25702">
        <ele>1272</ele>
        <time>2023-04-21T10:59:47.000Z</time>
      </trkpt>
      <trkpt lat="44.50114" lon="6.25703">
        <ele>1272</ele>
        <time>2023-04-21T10:59:48.000Z</time>
      </trkpt>
      <trkpt lat="44.50117" lon="6.25705">
        <ele>1272</ele>
        <time>2023-04-21T10:59:49.000Z</time>
      </trkpt>
      <trkpt lat="44.50119" lon="6.25706">
        <ele>1273</ele>
        <time>2023-04-21T10:59:50.000Z</time>
      </trkpt>
      <trkpt lat="44.50122" lon="6.25706">
        <ele>1273</ele>
        <time>2023-04-21T10:59:51.000Z</time>
      </trkpt>
      <trkpt lat="44.50124" lon="6.25706">
        <ele>1274</ele>
        <time>2023-04-21T10:59:52.000Z</time>
      </trkpt>
      <trkpt lat="44.50125" lon="6.25705">
        <ele>1274</ele>
        <time>2023-04-21T10:59:53.000Z</time>
      </trkpt>
      <trkpt lat="44.50126" lon="6.25703">
        <ele>1273</ele>
        <time>2023-04-21T10:59:54.000Z</time>
      </trkpt>
      <trkpt lat="44.50126" lon="6.257">
        <ele>1274</ele>
        <time>2023-04-21T10:59:55.000Z</time>
      </trkpt>
      <trkpt lat="44.50127" lon="6.25699">
        <ele>1274</ele>
        <time>2023-04-21T10:59:56.000Z</time>
      </trkpt>
      <trkpt lat="44.50128" lon="6.25697">
        <ele>1274</ele>
        <time>2023-04-21T10:59:57.000Z</time>
      </trkpt>
      <trkpt lat="44.50129" lon="6.25696">
        <ele>1273</ele>
        <time>2023-04-21T10:59:58.000Z</time>
      </trkpt>
      <trkpt lat="44.5013" lon="6.25696">
        <ele>1272</ele>
        <time>2023-04-21T10:59:59.000Z</time>
      </trkpt>
      <trkpt lat="44.5013" lon="6.25696">
        <ele>1273</ele>
        <time>2023-04-21T11:00:00.000Z</time>
      </trkpt>
      <trkpt lat="44.5013" lon="6.25696">
        <ele>1274</ele>
        <time>2023-04-21T11:00:01.000Z</time>
      </trkpt>
      <trkpt lat="44.50131" lon="6.25695">
        <ele>1273</ele>
        <time>2023-04-21T11:00:02.000Z</time>
      </trkpt>
      <trkpt lat="44.50131" lon="6.25695">
        <ele>1272</ele>
        <time>2023-04-21T11:00:03.000Z</time>
      </trkpt>
      <trkpt lat="44.50132" lon="6.25695">
        <ele>1272</ele>
        <time>2023-04-21T11:00:04.000Z</time>
      </trkpt>
      <trkpt lat="44.50132" lon="6.25694">
        <ele>1273</ele>
        <time>2023-04-21T11:00:05.000Z</time>
      </trkpt>
      <trkpt lat="44.50132" lon="6.25695">
        <ele>1274</ele>
        <time>2023-04-21T11:00:06.000Z</time>
      </trkpt>
      <trkpt lat="44.50132" lon="6.25695">
        <ele>1275</ele>
        <time>2023-04-21T11:00:07.000Z</time>
      </trkpt>
      <trkpt lat="44.50132" lon="6.25695">
        <ele>1274</ele>
        <time>2023-04-21T11:00:08.000Z</time>
      </trkpt>
      <trkpt lat="44.50132" lon="6.25695">
        <ele>1274</ele>
        <time>2023-04-21T11:00:09.000Z</time>
      </trkpt>
      <trkpt lat="44.50132" lon="6.25695">
        <ele>1274</ele>
        <time>2023-04-21T11:00:10.000Z</time>
      </trkpt>
      <trkpt lat="44.50132" lon="6.25695">
        <ele>1275</ele>
        <time>2023-04-21T11:00:11.000Z</time>
      </trkpt>
      <trkpt lat="44.50133" lon="6.25694">
        <ele>1275</ele>
        <time>2023-04-21T11:00:12.000Z</time>
      </trkpt>
      <trkpt lat="44.50133" lon="6.25694">
        <ele>1275</ele>
        <time>2023-04-21T11:00:13.000Z</time>
      </trkpt>
      <trkpt lat="44.50133" lon="6.25693">
        <ele>1275</ele>
        <time>2023-04-21T11:00:14.000Z</time>
      </trkpt>
      <trkpt lat="44.50133" lon="6.25691">
        <ele>1275</ele>
        <time>2023-04-21T11:00:15.000Z</time>
      </trkpt>
      <trkpt lat="44.50133" lon="6.2569">
        <ele>1275</ele>
        <time>2023-04-21T11:00:16.000Z</time>
      </trkpt>
      <trkpt lat="44.50132" lon="6.25687">
        <ele>1275</ele>
        <time>2023-04-21T11:00:17.000Z</time>
      </trkpt>
      <trkpt lat="44.50132" lon="6.25685">
        <ele>1276</ele>
        <time>2023-04-21T11:00:18.000Z</time>
      </trkpt>
      <trkpt lat="44.50132" lon="6.25684">
        <ele>1276</ele>
        <time>2023-04-21T11:00:19.000Z</time>
      </trkpt>
      <trkpt lat="44.50132" lon="6.25682">
        <ele>1276</ele>
        <time>2023-04-21T11:00:20.000Z</time>
      </trkpt>
      <trkpt lat="44.50132" lon="6.25681">
        <ele>1275</ele>
        <time>2023-04-21T11:00:21.000Z</time>
      </trkpt>
      <trkpt lat="44.50134" lon="6.25677">
        <ele>1273</ele>
        <time>2023-04-21T11:00:22.000Z</time>
      </trkpt>
      <trkpt lat="44.50135" lon="6.25675">
        <ele>1272</ele>
        <time>2023-04-21T11:00:23.000Z</time>
      </trkpt>
      <trkpt lat="44.50136" lon="6.25672">
        <ele>1271</ele>
        <time>2023-04-21T11:00:24.000Z</time>
      </trkpt>
      <trkpt lat="44.50137" lon="6.2567">
        <ele>1270</ele>
        <time>2023-04-21T11:00:25.000Z</time>
      </trkpt>
      <trkpt lat="44.50137" lon="6.25668">
        <ele>1270</ele>
        <time>2023-04-21T11:00:26.000Z</time>
      </trkpt>
      <trkpt lat="44.50138" lon="6.25666">
        <ele>1271</ele>
        <time>2023-04-21T11:00:27.000Z</time>
      </trkpt>
      <trkpt lat="44.50138" lon="6.25664">
        <ele>1270</ele>
        <time>2023-04-21T11:00:28.000Z</time>
      </trkpt>
      <trkpt lat="44.50139" lon="6.25662">
        <ele>1270</ele>
        <time>2023-04-21T11:00:29.000Z</time>
      </trkpt>
      <trkpt lat="44.50139" lon="6.2566">
        <ele>1270</ele>
        <time>2023-04-21T11:00:30.000Z</time>
      </trkpt>
      <trkpt lat="44.5014" lon="6.25657">
        <ele>1269</ele>
        <time>2023-04-21T11:00:31.000Z</time>
      </trkpt>
      <trkpt lat="44.50141" lon="6.25655">
        <ele>1269</ele>
        <time>2023-04-21T11:00:32.000Z</time>
      </trkpt>
      <trkpt lat="44.50141" lon="6.25654">
        <ele>1268</ele>
        <time>2023-04-21T11:00:33.000Z</time>
      </trkpt>
      <trkpt lat="44.50142" lon="6.25652">
        <ele>1268</ele>
        <time>2023-04-21T11:00:34.000Z</time>
      </trkpt>
      <trkpt lat="44.50142" lon="6.25651">
        <ele>1267</ele>
        <time>2023-04-21T11:00:35.000Z</time>
      </trkpt>
      <trkpt lat="44.50143" lon="6.25649">
        <ele>1268</ele>
        <time>2023-04-21T11:00:36.000Z</time>
      </trkpt>
      <trkpt lat="44.50143" lon="6.25647">
        <ele>1268</ele>
        <time>2023-04-21T11:00:37.000Z</time>
      </trkpt>
      <trkpt lat="44.50143" lon="6.25645">
        <ele>1267</ele>
        <time>2023-04-21T11:00:38.000Z</time>
      </trkpt>
      <trkpt lat="44.50143" lon="6.25642">
        <ele>1266</ele>
        <time>2023-04-21T11:00:39.000Z</time>
      </trkpt>
      <trkpt lat="44.50145" lon="6.25638">
        <ele>1265</ele>
        <time>2023-04-21T11:00:40.000Z</time>
      </trkpt>
      <trkpt lat="44.50147" lon="6.25635">
        <ele>1264</ele>
        <time>2023-04-21T11:00:41.000Z</time>
      </trkpt>
      <trkpt lat="44.50148" lon="6.25633">
        <ele>1262</ele>
        <time>2023-04-21T11:00:42.000Z</time>
      </trkpt>
      <trkpt lat="44.5015" lon="6.25631">
        <ele>1261</ele>
        <time>2023-04-21T11:00:43.000Z</time>
      </trkpt>
      <trkpt lat="44.50152" lon="6.25628">
        <ele>1260</ele>
        <time>2023-04-21T11:00:44.000Z</time>
      </trkpt>
      <trkpt lat="44.50153" lon="6.25627">
        <ele>1258</ele>
        <time>2023-04-21T11:00:45.000Z</time>
      </trkpt>
      <trkpt lat="44.50154" lon="6.25625">
        <ele>1257</ele>
        <time>2023-04-21T11:00:46.000Z</time>
      </trkpt>
      <trkpt lat="44.50155" lon="6.25624">
        <ele>1256</ele>
        <time>2023-04-21T11:00:47.000Z</time>
      </trkpt>
      <trkpt lat="44.50156" lon="6.25622">
        <ele>1255</ele>
        <time>2023-04-21T11:00:48.000Z</time>
      </trkpt>
      <trkpt lat="44.50157" lon="6.2562">
        <ele>1255</ele>
        <time>2023-04-21T11:00:49.000Z</time>
      </trkpt>
      <trkpt lat="44.50157" lon="6.2562">
        <ele>1255</ele>
        <time>2023-04-21T11:00:50.000Z</time>
      </trkpt>
      <trkpt lat="44.50157" lon="6.2562">
        <ele>1255</ele>
        <time>2023-04-21T11:00:51.000Z</time>
      </trkpt>
      <trkpt lat="44.50157" lon="6.25619">
        <ele>1254</ele>
        <time>2023-04-21T11:00:52.000Z</time>
      </trkpt>
      <trkpt lat="44.50157" lon="6.25619">
        <ele>1254</ele>
        <time>2023-04-21T11:00:53.000Z</time>
      </trkpt>
      <trkpt lat="44.50157" lon="6.25619">
        <ele>1254</ele>
        <time>2023-04-21T11:00:54.000Z</time>
      </trkpt>
      <trkpt lat="44.50157" lon="6.25619">
        <ele>1255</ele>
        <time>2023-04-21T11:00:55.000Z</time>
      </trkpt>
      <trkpt lat="44.50157" lon="6.25619">
        <ele>1256</ele>
        <time>2023-04-21T11:00:56.000Z</time>
      </trkpt>
      <trkpt lat="44.50157" lon="6.25619">
        <ele>1256</ele>
        <time>2023-04-21T11:00:57.000Z</time>
      </trkpt>
      <trkpt lat="44.50157" lon="6.25618">
        <ele>1255</ele>
        <time>2023-04-21T11:00:58.000Z</time>
      </trkpt>
      <trkpt lat="44.50156" lon="6.25617">
        <ele>1256</ele>
        <time>2023-04-21T11:00:59.000Z</time>
      </trkpt>
      <trkpt lat="44.50156" lon="6.25616">
        <ele>1256</ele>
        <time>2023-04-21T11:01:00.000Z</time>
      </trkpt>
      <trkpt lat="44.50155" lon="6.25615">
        <ele>1257</ele>
        <time>2023-04-21T11:01:01.000Z</time>
      </trkpt>
      <trkpt lat="44.50155" lon="6.25614">
        <ele>1257</ele>
        <time>2023-04-21T11:01:02.000Z</time>
      </trkpt>
      <trkpt lat="44.50154" lon="6.25612">
        <ele>1257</ele>
        <time>2023-04-21T11:01:03.000Z</time>
      </trkpt>
      <trkpt lat="44.50154" lon="6.25611">
        <ele>1257</ele>
        <time>2023-04-21T11:01:04.000Z</time>
      </trkpt>
      <trkpt lat="44.50154" lon="6.2561">
        <ele>1258</ele>
        <time>2023-04-21T11:01:05.000Z</time>
      </trkpt>
      <trkpt lat="44.50154" lon="6.2561">
        <ele>1257</ele>
        <time>2023-04-21T11:01:06.000Z</time>
      </trkpt>
      <trkpt lat="44.50154" lon="6.2561">
        <ele>1257</ele>
        <time>2023-04-21T11:01:07.000Z</time>
      </trkpt>
      <trkpt lat="44.50154" lon="6.2561">
        <ele>1257</ele>
        <time>2023-04-21T11:01:08.000Z</time>
      </trkpt>
      <trkpt lat="44.50154" lon="6.2561">
        <ele>1257</ele>
        <time>2023-04-21T11:01:09.000Z</time>
      </trkpt>
      <trkpt lat="44.50154" lon="6.25608">
        <ele>1257</ele>
        <time>2023-04-21T11:01:10.000Z</time>
      </trkpt>
      <trkpt lat="44.50154" lon="6.25606">
        <ele>1258</ele>
        <time>2023-04-21T11:01:11.000Z</time>
      </trkpt>
      <trkpt lat="44.50155" lon="6.25603">
        <ele>1257</ele>
        <time>2023-04-21T11:01:12.000Z</time>
      </trkpt>
      <trkpt lat="44.50155" lon="6.25601">
        <ele>1257</ele>
        <time>2023-04-21T11:01:13.000Z</time>
      </trkpt>
      <trkpt lat="44.50156" lon="6.25599">
        <ele>1258</ele>
        <time>2023-04-21T11:01:14.000Z</time>
      </trkpt>
      <trkpt lat="44.50157" lon="6.25597">
        <ele>1258</ele>
        <time>2023-04-21T11:01:15.000Z</time>
      </trkpt>
      <trkpt lat="44.50158" lon="6.25595">
        <ele>1259</ele>
        <time>2023-04-21T11:01:16.000Z</time>
      </trkpt>
      <trkpt lat="44.50159" lon="6.25594">
        <ele>1260</ele>
        <time>2023-04-21T11:01:17.000Z</time>
      </trkpt>
      <trkpt lat="44.5016" lon="6.25593">
        <ele>1260</ele>
        <time>2023-04-21T11:01:18.000Z</time>
      </trkpt>
      <trkpt lat="44.50161" lon="6.25591">
        <ele>1261</ele>
        <time>2023-04-21T11:01:19.000Z</time>
      </trkpt>
      <trkpt lat="44.50162" lon="6.25589">
        <ele>1260</ele>
        <time>2023-04-21T11:01:20.000Z</time>
      </trkpt>
      <trkpt lat="44.50164" lon="6.25587">
        <ele>1260</ele>
        <time>2023-04-21T11:01:21.000Z</time>
      </trkpt>
      <trkpt lat="44.50165" lon="6.25586">
        <ele>1260</ele>
        <time>2023-04-21T11:01:22.000Z</time>
      </trkpt>
      <trkpt lat="44.50167" lon="6.25584">
        <ele>1260</ele>
        <time>2023-04-21T11:01:23.000Z</time>
      </trkpt>
      <trkpt lat="44.50169" lon="6.25583">
        <ele>1260</ele>
        <time>2023-04-21T11:01:24.000Z</time>
      </trkpt>
      <trkpt lat="44.50171" lon="6.25581">
        <ele>1260</ele>
        <time>2023-04-21T11:01:25.000Z</time>
      </trkpt>
      <trkpt lat="44.50173" lon="6.2558">
        <ele>1260</ele>
        <time>2023-04-21T11:01:26.000Z</time>
      </trkpt>
      <trkpt lat="44.50174" lon="6.25577">
        <ele>1260</ele>
        <time>2023-04-21T11:01:27.000Z</time>
      </trkpt>
      <trkpt lat="44.50175" lon="6.25575">
        <ele>1260</ele>
        <time>2023-04-21T11:01:28.000Z</time>
      </trkpt>
      <trkpt lat="44.50176" lon="6.25573">
        <ele>1259</ele>
        <time>2023-04-21T11:01:29.000Z</time>
      </trkpt>
      <trkpt lat="44.50177" lon="6.25571">
        <ele>1259</ele>
        <time>2023-04-21T11:01:30.000Z</time>
      </trkpt>
      <trkpt lat="44.50179" lon="6.25568">
        <ele>1259</ele>
        <time>2023-04-21T11:01:31.000Z</time>
      </trkpt>
      <trkpt lat="44.5018" lon="6.25566">
        <ele>1259</ele>
        <time>2023-04-21T11:01:32.000Z</time>
      </trkpt>
      <trkpt lat="44.50181" lon="6.25564">
        <ele>1259</ele>
        <time>2023-04-21T11:01:33.000Z</time>
      </trkpt>
      <trkpt lat="44.50182" lon="6.25562">
        <ele>1259</ele>
        <time>2023-04-21T11:01:34.000Z</time>
      </trkpt>
      <trkpt lat="44.50183" lon="6.25561">
        <ele>1259</ele>
        <time>2023-04-21T11:01:35.000Z</time>
      </trkpt>
      <trkpt lat="44.50184" lon="6.25559">
        <ele>1259</ele>
        <time>2023-04-21T11:01:36.000Z</time>
      </trkpt>
      <trkpt lat="44.50185" lon="6.25557">
        <ele>1258</ele>
        <time>2023-04-21T11:01:37.000Z</time>
      </trkpt>
      <trkpt lat="44.50186" lon="6.25556">
        <ele>1258</ele>
        <time>2023-04-21T11:01:38.000Z</time>
      </trkpt>
      <trkpt lat="44.50186" lon="6.25553">
        <ele>1257</ele>
        <time>2023-04-21T11:01:39.000Z</time>
      </trkpt>
      <trkpt lat="44.50186" lon="6.25552">
        <ele>1258</ele>
        <time>2023-04-21T11:01:40.000Z</time>
      </trkpt>
      <trkpt lat="44.50186" lon="6.2555">
        <ele>1259</ele>
        <time>2023-04-21T11:01:41.000Z</time>
      </trkpt>
      <trkpt lat="44.50185" lon="6.25549">
        <ele>1257</ele>
        <time>2023-04-21T11:01:42.000Z</time>
      </trkpt>
      <trkpt lat="44.50184" lon="6.25548">
        <ele>1256</ele>
        <time>2023-04-21T11:01:43.000Z</time>
      </trkpt>
      <trkpt lat="44.50183" lon="6.25549">
        <ele>1258</ele>
        <time>2023-04-21T11:01:44.000Z</time>
      </trkpt>
      <trkpt lat="44.50182" lon="6.25549">
        <ele>1259</ele>
        <time>2023-04-21T11:01:45.000Z</time>
      </trkpt>
      <trkpt lat="44.5018" lon="6.25549">
        <ele>1260</ele>
        <time>2023-04-21T11:01:46.000Z</time>
      </trkpt>
      <trkpt lat="44.50179" lon="6.25548">
        <ele>1261</ele>
        <time>2023-04-21T11:01:47.000Z</time>
      </trkpt>
      <trkpt lat="44.50177" lon="6.25548">
        <ele>1262</ele>
        <time>2023-04-21T11:01:48.000Z</time>
      </trkpt>
      <trkpt lat="44.50176" lon="6.25546">
        <ele>1263</ele>
        <time>2023-04-21T11:01:49.000Z</time>
      </trkpt>
      <trkpt lat="44.50175" lon="6.25545">
        <ele>1264</ele>
        <time>2023-04-21T11:01:50.000Z</time>
      </trkpt>
      <trkpt lat="44.50175" lon="6.25543">
        <ele>1264</ele>
        <time>2023-04-21T11:01:51.000Z</time>
      </trkpt>
      <trkpt lat="44.50174" lon="6.2554">
        <ele>1265</ele>
        <time>2023-04-21T11:01:52.000Z</time>
      </trkpt>
      <trkpt lat="44.50174" lon="6.25538">
        <ele>1265</ele>
        <time>2023-04-21T11:01:53.000Z</time>
      </trkpt>
      <trkpt lat="44.50173" lon="6.25536">
        <ele>1266</ele>
        <time>2023-04-21T11:01:54.000Z</time>
      </trkpt>
      <trkpt lat="44.50173" lon="6.25534">
        <ele>1266</ele>
        <time>2023-04-21T11:01:55.000Z</time>
      </trkpt>
      <trkpt lat="44.50174" lon="6.25532">
        <ele>1266</ele>
        <time>2023-04-21T11:01:56.000Z</time>
      </trkpt>
      <trkpt lat="44.50173" lon="6.2553">
        <ele>1266</ele>
        <time>2023-04-21T11:01:57.000Z</time>
      </trkpt>
      <trkpt lat="44.50172" lon="6.25529">
        <ele>1267</ele>
        <time>2023-04-21T11:01:58.000Z</time>
      </trkpt>
      <trkpt lat="44.50171" lon="6.25528">
        <ele>1267</ele>
        <time>2023-04-21T11:01:59.000Z</time>
      </trkpt>
      <trkpt lat="44.5017" lon="6.25527">
        <ele>1267</ele>
        <time>2023-04-21T11:02:00.000Z</time>
      </trkpt>
      <trkpt lat="44.50169" lon="6.25526">
        <ele>1268</ele>
        <time>2023-04-21T11:02:01.000Z</time>
      </trkpt>
      <trkpt lat="44.50167" lon="6.25526">
        <ele>1268</ele>
        <time>2023-04-21T11:02:02.000Z</time>
      </trkpt>
      <trkpt lat="44.50166" lon="6.25525">
        <ele>1269</ele>
        <time>2023-04-21T11:02:03.000Z</time>
      </trkpt>
      <trkpt lat="44.50164" lon="6.25523">
        <ele>1270</ele>
        <time>2023-04-21T11:02:04.000Z</time>
      </trkpt>
      <trkpt lat="44.50163" lon="6.25523">
        <ele>1270</ele>
        <time>2023-04-21T11:02:05.000Z</time>
      </trkpt>
      <trkpt lat="44.50161" lon="6.25522">
        <ele>1270</ele>
        <time>2023-04-21T11:02:06.000Z</time>
      </trkpt>
      <trkpt lat="44.50159" lon="6.25521">
        <ele>1270</ele>
        <time>2023-04-21T11:02:07.000Z</time>
      </trkpt>
      <trkpt lat="44.50158" lon="6.2552">
        <ele>1270</ele>
        <time>2023-04-21T11:02:08.000Z</time>
      </trkpt>
      <trkpt lat="44.50156" lon="6.25519">
        <ele>1270</ele>
        <time>2023-04-21T11:02:09.000Z</time>
      </trkpt>
      <trkpt lat="44.50154" lon="6.25518">
        <ele>1271</ele>
        <time>2023-04-21T11:02:10.000Z</time>
      </trkpt>
      <trkpt lat="44.50153" lon="6.25517">
        <ele>1272</ele>
        <time>2023-04-21T11:02:11.000Z</time>
      </trkpt>
      <trkpt lat="44.50152" lon="6.25515">
        <ele>1273</ele>
        <time>2023-04-21T11:02:12.000Z</time>
      </trkpt>
      <trkpt lat="44.50151" lon="6.25513">
        <ele>1273</ele>
        <time>2023-04-21T11:02:13.000Z</time>
      </trkpt>
      <trkpt lat="44.5015" lon="6.25512">
        <ele>1273</ele>
        <time>2023-04-21T11:02:14.000Z</time>
      </trkpt>
      <trkpt lat="44.50147" lon="6.25509">
        <ele>1273</ele>
        <time>2023-04-21T11:02:15.000Z</time>
      </trkpt>
      <trkpt lat="44.50144" lon="6.25507">
        <ele>1274</ele>
        <time>2023-04-21T11:02:16.000Z</time>
      </trkpt>
      <trkpt lat="44.50142" lon="6.25504">
        <ele>1274</ele>
        <time>2023-04-21T11:02:17.000Z</time>
      </trkpt>
      <trkpt lat="44.50141" lon="6.25502">
        <ele>1274</ele>
        <time>2023-04-21T11:02:18.000Z</time>
      </trkpt>
      <trkpt lat="44.50139" lon="6.25501">
        <ele>1274</ele>
        <time>2023-04-21T11:02:19.000Z</time>
      </trkpt>
      <trkpt lat="44.50138" lon="6.25499">
        <ele>1274</ele>
        <time>2023-04-21T11:02:20.000Z</time>
      </trkpt>
      <trkpt lat="44.50137" lon="6.25497">
        <ele>1274</ele>
        <time>2023-04-21T11:02:21.000Z</time>
      </trkpt>
      <trkpt lat="44.50135" lon="6.25495">
        <ele>1274</ele>
        <time>2023-04-21T11:02:22.000Z</time>
      </trkpt>
      <trkpt lat="44.50134" lon="6.25493">
        <ele>1274</ele>
        <time>2023-04-21T11:02:23.000Z</time>
      </trkpt>
      <trkpt lat="44.50134" lon="6.25491">
        <ele>1275</ele>
        <time>2023-04-21T11:02:24.000Z</time>
      </trkpt>
      <trkpt lat="44.50133" lon="6.25489">
        <ele>1274</ele>
        <time>2023-04-21T11:02:25.000Z</time>
      </trkpt>
      <trkpt lat="44.50133" lon="6.25487">
        <ele>1274</ele>
        <time>2023-04-21T11:02:26.000Z</time>
      </trkpt>
      <trkpt lat="44.50132" lon="6.25485">
        <ele>1274</ele>
        <time>2023-04-21T11:02:27.000Z</time>
      </trkpt>
      <trkpt lat="44.50131" lon="6.25483">
        <ele>1274</ele>
        <time>2023-04-21T11:02:28.000Z</time>
      </trkpt>
      <trkpt lat="44.50131" lon="6.25481">
        <ele>1273</ele>
        <time>2023-04-21T11:02:29.000Z</time>
      </trkpt>
      <trkpt lat="44.5013" lon="6.25479">
        <ele>1274</ele>
        <time>2023-04-21T11:02:30.000Z</time>
      </trkpt>
      <trkpt lat="44.50129" lon="6.25477">
        <ele>1273</ele>
        <time>2023-04-21T11:02:31.000Z</time>
      </trkpt>
      <trkpt lat="44.50127" lon="6.25476">
        <ele>1274</ele>
        <time>2023-04-21T11:02:32.000Z</time>
      </trkpt>
      <trkpt lat="44.50126" lon="6.25475">
        <ele>1274</ele>
        <time>2023-04-21T11:02:33.000Z</time>
      </trkpt>
      <trkpt lat="44.50125" lon="6.25474">
        <ele>1275</ele>
        <time>2023-04-21T11:02:34.000Z</time>
      </trkpt>
      <trkpt lat="44.50123" lon="6.25472">
        <ele>1274</ele>
        <time>2023-04-21T11:02:35.000Z</time>
      </trkpt>
      <trkpt lat="44.50122" lon="6.2547">
        <ele>1275</ele>
        <time>2023-04-21T11:02:36.000Z</time>
      </trkpt>
      <trkpt lat="44.50121" lon="6.25469">
        <ele>1275</ele>
        <time>2023-04-21T11:02:37.000Z</time>
      </trkpt>
      <trkpt lat="44.5012" lon="6.25467">
        <ele>1275</ele>
        <time>2023-04-21T11:02:38.000Z</time>
      </trkpt>
      <trkpt lat="44.50119" lon="6.25465">
        <ele>1275</ele>
        <time>2023-04-21T11:02:39.000Z</time>
      </trkpt>
      <trkpt lat="44.50119" lon="6.25463">
        <ele>1275</ele>
        <time>2023-04-21T11:02:40.000Z</time>
      </trkpt>
      <trkpt lat="44.50118" lon="6.25461">
        <ele>1275</ele>
        <time>2023-04-21T11:02:41.000Z</time>
      </trkpt>
      <trkpt lat="44.50117" lon="6.25459">
        <ele>1275</ele>
        <time>2023-04-21T11:02:42.000Z</time>
      </trkpt>
      <trkpt lat="44.50116" lon="6.25458">
        <ele>1276</ele>
        <time>2023-04-21T11:02:43.000Z</time>
      </trkpt>
      <trkpt lat="44.50115" lon="6.25457">
        <ele>1276</ele>
        <time>2023-04-21T11:02:44.000Z</time>
      </trkpt>
      <trkpt lat="44.50113" lon="6.25456">
        <ele>1276</ele>
        <time>2023-04-21T11:02:45.000Z</time>
      </trkpt>
      <trkpt lat="44.50112" lon="6.25454">
        <ele>1276</ele>
        <time>2023-04-21T11:02:46.000Z</time>
      </trkpt>
      <trkpt lat="44.50111" lon="6.25452">
        <ele>1276</ele>
        <time>2023-04-21T11:02:47.000Z</time>
      </trkpt>
      <trkpt lat="44.5011" lon="6.2545">
        <ele>1277</ele>
        <time>2023-04-21T11:02:48.000Z</time>
      </trkpt>
      <trkpt lat="44.50109" lon="6.25448">
        <ele>1277</ele>
        <time>2023-04-21T11:02:49.000Z</time>
      </trkpt>
      <trkpt lat="44.50108" lon="6.25446">
        <ele>1277</ele>
        <time>2023-04-21T11:02:50.000Z</time>
      </trkpt>
      <trkpt lat="44.50107" lon="6.25445">
        <ele>1278</ele>
        <time>2023-04-21T11:02:51.000Z</time>
      </trkpt>
      <trkpt lat="44.50106" lon="6.25443">
        <ele>1278</ele>
        <time>2023-04-21T11:02:52.000Z</time>
      </trkpt>
      <trkpt lat="44.50105" lon="6.25442">
        <ele>1279</ele>
        <time>2023-04-21T11:02:53.000Z</time>
      </trkpt>
      <trkpt lat="44.50104" lon="6.2544">
        <ele>1279</ele>
        <time>2023-04-21T11:02:54.000Z</time>
      </trkpt>
      <trkpt lat="44.50103" lon="6.25438">
        <ele>1279</ele>
        <time>2023-04-21T11:02:55.000Z</time>
      </trkpt>
      <trkpt lat="44.50102" lon="6.25437">
        <ele>1280</ele>
        <time>2023-04-21T11:02:56.000Z</time>
      </trkpt>
      <trkpt lat="44.50101" lon="6.25435">
        <ele>1280</ele>
        <time>2023-04-21T11:02:57.000Z</time>
      </trkpt>
      <trkpt lat="44.501" lon="6.25433">
        <ele>1280</ele>
        <time>2023-04-21T11:02:58.000Z</time>
      </trkpt>
      <trkpt lat="44.50099" lon="6.25432">
        <ele>1280</ele>
        <time>2023-04-21T11:02:59.000Z</time>
      </trkpt>
      <trkpt lat="44.50098" lon="6.2543">
        <ele>1280</ele>
        <time>2023-04-21T11:03:00.000Z</time>
      </trkpt>
      <trkpt lat="44.50097" lon="6.25428">
        <ele>1281</ele>
        <time>2023-04-21T11:03:01.000Z</time>
      </trkpt>
      <trkpt lat="44.50096" lon="6.25426">
        <ele>1281</ele>
        <time>2023-04-21T11:03:02.000Z</time>
      </trkpt>
      <trkpt lat="44.50095" lon="6.25424">
        <ele>1282</ele>
        <time>2023-04-21T11:03:03.000Z</time>
      </trkpt>
      <trkpt lat="44.50094" lon="6.25422">
        <ele>1282</ele>
        <time>2023-04-21T11:03:04.000Z</time>
      </trkpt>
      <trkpt lat="44.50094" lon="6.2542">
        <ele>1282</ele>
        <time>2023-04-21T11:03:05.000Z</time>
      </trkpt>
      <trkpt lat="44.50093" lon="6.25418">
        <ele>1281</ele>
        <time>2023-04-21T11:03:06.000Z</time>
      </trkpt>
      <trkpt lat="44.50093" lon="6.25417">
        <ele>1281</ele>
        <time>2023-04-21T11:03:07.000Z</time>
      </trkpt>
      <trkpt lat="44.50093" lon="6.25415">
        <ele>1281</ele>
        <time>2023-04-21T11:03:08.000Z</time>
      </trkpt>
      <trkpt lat="44.50092" lon="6.25414">
        <ele>1282</ele>
        <time>2023-04-21T11:03:09.000Z</time>
      </trkpt>
      <trkpt lat="44.50091" lon="6.25412">
        <ele>1281</ele>
        <time>2023-04-21T11:03:10.000Z</time>
      </trkpt>
      <trkpt lat="44.5009" lon="6.25411">
        <ele>1281</ele>
        <time>2023-04-21T11:03:11.000Z</time>
      </trkpt>
      <trkpt lat="44.5009" lon="6.2541">
        <ele>1281</ele>
        <time>2023-04-21T11:03:12.000Z</time>
      </trkpt>
      <trkpt lat="44.50089" lon="6.25408">
        <ele>1281</ele>
        <time>2023-04-21T11:03:13.000Z</time>
      </trkpt>
      <trkpt lat="44.50088" lon="6.25407">
        <ele>1281</ele>
        <time>2023-04-21T11:03:14.000Z</time>
      </trkpt>
      <trkpt lat="44.50086" lon="6.25406">
        <ele>1281</ele>
        <time>2023-04-21T11:03:15.000Z</time>
      </trkpt>
      <trkpt lat="44.50084" lon="6.25404">
        <ele>1280</ele>
        <time>2023-04-21T11:03:16.000Z</time>
      </trkpt>
      <trkpt lat="44.50083" lon="6.25403">
        <ele>1280</ele>
        <time>2023-04-21T11:03:17.000Z</time>
      </trkpt>
      <trkpt lat="44.50082" lon="6.25401">
        <ele>1280</ele>
        <time>2023-04-21T11:03:18.000Z</time>
      </trkpt>
      <trkpt lat="44.50081" lon="6.25399">
        <ele>1280</ele>
        <time>2023-04-21T11:03:19.000Z</time>
      </trkpt>
      <trkpt lat="44.50081" lon="6.25397">
        <ele>1280</ele>
        <time>2023-04-21T11:03:20.000Z</time>
      </trkpt>
      <trkpt lat="44.5008" lon="6.25394">
        <ele>1281</ele>
        <time>2023-04-21T11:03:21.000Z</time>
      </trkpt>
      <trkpt lat="44.5008" lon="6.25392">
        <ele>1281</ele>
        <time>2023-04-21T11:03:22.000Z</time>
      </trkpt>
      <trkpt lat="44.50079" lon="6.2539">
        <ele>1281</ele>
        <time>2023-04-21T11:03:23.000Z</time>
      </trkpt>
      <trkpt lat="44.5008" lon="6.25387">
        <ele>1281</ele>
        <time>2023-04-21T11:03:24.000Z</time>
      </trkpt>
      <trkpt lat="44.5008" lon="6.25385">
        <ele>1281</ele>
        <time>2023-04-21T11:03:25.000Z</time>
      </trkpt>
      <trkpt lat="44.5008" lon="6.25382">
        <ele>1282</ele>
        <time>2023-04-21T11:03:26.000Z</time>
      </trkpt>
      <trkpt lat="44.5008" lon="6.25379">
        <ele>1281</ele>
        <time>2023-04-21T11:03:27.000Z</time>
      </trkpt>
      <trkpt lat="44.5008" lon="6.25375">
        <ele>1281</ele>
        <time>2023-04-21T11:03:28.000Z</time>
      </trkpt>
      <trkpt lat="44.50081" lon="6.25372">
        <ele>1281</ele>
        <time>2023-04-21T11:03:29.000Z</time>
      </trkpt>
      <trkpt lat="44.50082" lon="6.25369">
        <ele>1282</ele>
        <time>2023-04-21T11:03:30.000Z</time>
      </trkpt>
      <trkpt lat="44.50083" lon="6.25367">
        <ele>1281</ele>
        <time>2023-04-21T11:03:31.000Z</time>
      </trkpt>
      <trkpt lat="44.50084" lon="6.25365">
        <ele>1281</ele>
        <time>2023-04-21T11:03:32.000Z</time>
      </trkpt>
      <trkpt lat="44.50085" lon="6.25362">
        <ele>1281</ele>
        <time>2023-04-21T11:03:33.000Z</time>
      </trkpt>
      <trkpt lat="44.50086" lon="6.25359">
        <ele>1281</ele>
        <time>2023-04-21T11:03:34.000Z</time>
      </trkpt>
      <trkpt lat="44.50087" lon="6.25356">
        <ele>1281</ele>
        <time>2023-04-21T11:03:35.000Z</time>
      </trkpt>
      <trkpt lat="44.50088" lon="6.25354">
        <ele>1280</ele>
        <time>2023-04-21T11:03:36.000Z</time>
      </trkpt>
      <trkpt lat="44.50088" lon="6.25351">
        <ele>1279</ele>
        <time>2023-04-21T11:03:37.000Z</time>
      </trkpt>
      <trkpt lat="44.50089" lon="6.25348">
        <ele>1280</ele>
        <time>2023-04-21T11:03:38.000Z</time>
      </trkpt>
      <trkpt lat="44.50091" lon="6.25345">
        <ele>1281</ele>
        <time>2023-04-21T11:03:39.000Z</time>
      </trkpt>
      <trkpt lat="44.50092" lon="6.25342">
        <ele>1280</ele>
        <time>2023-04-21T11:03:40.000Z</time>
      </trkpt>
      <trkpt lat="44.50092" lon="6.25339">
        <ele>1280</ele>
        <time>2023-04-21T11:03:41.000Z</time>
      </trkpt>
      <trkpt lat="44.50094" lon="6.25337">
        <ele>1280</ele>
        <time>2023-04-21T11:03:42.000Z</time>
      </trkpt>
      <trkpt lat="44.50095" lon="6.25334">
        <ele>1280</ele>
        <time>2023-04-21T11:03:43.000Z</time>
      </trkpt>
      <trkpt lat="44.50096" lon="6.25331">
        <ele>1279</ele>
        <time>2023-04-21T11:03:44.000Z</time>
      </trkpt>
      <trkpt lat="44.50098" lon="6.25329">
        <ele>1279</ele>
        <time>2023-04-21T11:03:45.000Z</time>
      </trkpt>
      <trkpt lat="44.50099" lon="6.25325">
        <ele>1280</ele>
        <time>2023-04-21T11:03:46.000Z</time>
      </trkpt>
      <trkpt lat="44.50101" lon="6.25322">
        <ele>1281</ele>
        <time>2023-04-21T11:03:47.000Z</time>
      </trkpt>
      <trkpt lat="44.50102" lon="6.25319">
        <ele>1281</ele>
        <time>2023-04-21T11:03:48.000Z</time>
      </trkpt>
      <trkpt lat="44.50103" lon="6.25315">
        <ele>1281</ele>
        <time>2023-04-21T11:03:49.000Z</time>
      </trkpt>
      <trkpt lat="44.50104" lon="6.25312">
        <ele>1282</ele>
        <time>2023-04-21T11:03:50.000Z</time>
      </trkpt>
      <trkpt lat="44.50106" lon="6.25309">
        <ele>1282</ele>
        <time>2023-04-21T11:03:51.000Z</time>
      </trkpt>
      <trkpt lat="44.50108" lon="6.25307">
        <ele>1282</ele>
        <time>2023-04-21T11:03:52.000Z</time>
      </trkpt>
      <trkpt lat="44.50109" lon="6.25303">
        <ele>1282</ele>
        <time>2023-04-21T11:03:53.000Z</time>
      </trkpt>
      <trkpt lat="44.5011" lon="6.253">
        <ele>1283</ele>
        <time>2023-04-21T11:03:54.000Z</time>
      </trkpt>
      <trkpt lat="44.50111" lon="6.25297">
        <ele>1284</ele>
        <time>2023-04-21T11:03:55.000Z</time>
      </trkpt>
      <trkpt lat="44.50112" lon="6.25293">
        <ele>1284</ele>
        <time>2023-04-21T11:03:56.000Z</time>
      </trkpt>
      <trkpt lat="44.50113" lon="6.25289">
        <ele>1284</ele>
        <time>2023-04-21T11:03:57.000Z</time>
      </trkpt>
      <trkpt lat="44.50114" lon="6.25286">
        <ele>1285</ele>
        <time>2023-04-21T11:03:58.000Z</time>
      </trkpt>
      <trkpt lat="44.50115" lon="6.25283">
        <ele>1285</ele>
        <time>2023-04-21T11:03:59.000Z</time>
      </trkpt>
      <trkpt lat="44.50116" lon="6.25281">
        <ele>1285</ele>
        <time>2023-04-21T11:04:00.000Z</time>
      </trkpt>
      <trkpt lat="44.50117" lon="6.2528">
        <ele>1285</ele>
        <time>2023-04-21T11:04:01.000Z</time>
      </trkpt>
      <trkpt lat="44.50118" lon="6.25279">
        <ele>1284</ele>
        <time>2023-04-21T11:04:02.000Z</time>
      </trkpt>
      <trkpt lat="44.50118" lon="6.25279">
        <ele>1284</ele>
        <time>2023-04-21T11:04:03.000Z</time>
      </trkpt>
      <trkpt lat="44.50118" lon="6.25279">
        <ele>1284</ele>
        <time>2023-04-21T11:04:04.000Z</time>
      </trkpt>
      <trkpt lat="44.50118" lon="6.25279">
        <ele>1284</ele>
        <time>2023-04-21T11:04:05.000Z</time>
      </trkpt>
      <trkpt lat="44.50118" lon="6.25278">
        <ele>1283</ele>
        <time>2023-04-21T11:04:06.000Z</time>
      </trkpt>
      <trkpt lat="44.50118" lon="6.25278">
        <ele>1283</ele>
        <time>2023-04-21T11:04:07.000Z</time>
      </trkpt>
      <trkpt lat="44.50118" lon="6.25278">
        <ele>1283</ele>
        <time>2023-04-21T11:04:08.000Z</time>
      </trkpt>
      <trkpt lat="44.50118" lon="6.25278">
        <ele>1283</ele>
        <time>2023-04-21T11:04:09.000Z</time>
      </trkpt>
      <trkpt lat="44.50118" lon="6.25278">
        <ele>1283</ele>
        <time>2023-04-21T11:04:10.000Z</time>
      </trkpt>
      <trkpt lat="44.50118" lon="6.25277">
        <ele>1283</ele>
        <time>2023-04-21T11:04:11.000Z</time>
      </trkpt>
      <trkpt lat="44.50118" lon="6.25277">
        <ele>1283</ele>
        <time>2023-04-21T11:04:12.000Z</time>
      </trkpt>
      <trkpt lat="44.50118" lon="6.25277">
        <ele>1283</ele>
        <time>2023-04-21T11:04:13.000Z</time>
      </trkpt>
      <trkpt lat="44.50118" lon="6.25277">
        <ele>1283</ele>
        <time>2023-04-21T11:04:14.000Z</time>
      </trkpt>
      <trkpt lat="44.50118" lon="6.25277">
        <ele>1283</ele>
        <time>2023-04-21T11:04:15.000Z</time>
      </trkpt>
      <trkpt lat="44.50118" lon="6.25277">
        <ele>1283</ele>
        <time>2023-04-21T11:04:16.000Z</time>
      </trkpt>
      <trkpt lat="44.50118" lon="6.25277">
        <ele>1283</ele>
        <time>2023-04-21T11:04:17.000Z</time>
      </trkpt>
      <trkpt lat="44.50118" lon="6.25277">
        <ele>1283</ele>
        <time>2023-04-21T11:04:18.000Z</time>
      </trkpt>
      <trkpt lat="44.50118" lon="6.25277">
        <ele>1283</ele>
        <time>2023-04-21T11:04:19.000Z</time>
      </trkpt>
      <trkpt lat="44.50118" lon="6.25277">
        <ele>1282</ele>
        <time>2023-04-21T11:04:20.000Z</time>
      </trkpt>
      <trkpt lat="44.50118" lon="6.25277">
        <ele>1282</ele>
        <time>2023-04-21T11:04:21.000Z</time>
      </trkpt>
      <trkpt lat="44.50118" lon="6.25277">
        <ele>1282</ele>
        <time>2023-04-21T11:04:22.000Z</time>
      </trkpt>
      <trkpt lat="44.50118" lon="6.25277">
        <ele>1282</ele>
        <time>2023-04-21T11:04:23.000Z</time>
      </trkpt>
      <trkpt lat="44.50118" lon="6.25277">
        <ele>1282</ele>
        <time>2023-04-21T11:04:24.000Z</time>
      </trkpt>
      <trkpt lat="44.50118" lon="6.25277">
        <ele>1282</ele>
        <time>2023-04-21T11:04:25.000Z</time>
      </trkpt>
      <trkpt lat="44.50118" lon="6.25277">
        <ele>1282</ele>
        <time>2023-04-21T11:04:26.000Z</time>
      </trkpt>
      <trkpt lat="44.50118" lon="6.25277">
        <ele>1282</ele>
        <time>2023-04-21T11:04:27.000Z</time>
      </trkpt>
      <trkpt lat="44.50118" lon="6.25276">
        <ele>1282</ele>
        <time>2023-04-21T11:04:28.000Z</time>
      </trkpt>
      <trkpt lat="44.50118" lon="6.25276">
        <ele>1282</ele>
        <time>2023-04-21T11:04:29.000Z</time>
      </trkpt>
      <trkpt lat="44.50118" lon="6.25276">
        <ele>1282</ele>
        <time>2023-04-21T11:04:30.000Z</time>
      </trkpt>
      <trkpt lat="44.50118" lon="6.25276">
        <ele>1282</ele>
        <time>2023-04-21T11:04:31.000Z</time>
      </trkpt>
      <trkpt lat="44.50118" lon="6.25276">
        <ele>1282</ele>
        <time>2023-04-21T11:04:32.000Z</time>
      </trkpt>
      <trkpt lat="44.50118" lon="6.25276">
        <ele>1282</ele>
        <time>2023-04-21T11:04:33.000Z</time>
      </trkpt>
      <trkpt lat="44.50118" lon="6.25276">
        <ele>1282</ele>
        <time>2023-04-21T11:04:34.000Z</time>
      </trkpt>
      <trkpt lat="44.50118" lon="6.25276">
        <ele>1282</ele>
        <time>2023-04-21T11:04:35.000Z</time>
      </trkpt>
      <trkpt lat="44.50118" lon="6.25276">
        <ele>1282</ele>
        <time>2023-04-21T11:04:36.000Z</time>
      </trkpt>
      <trkpt lat="44.50118" lon="6.25276">
        <ele>1282</ele>
        <time>2023-04-21T11:04:37.000Z</time>
      </trkpt>
      <trkpt lat="44.50118" lon="6.25276">
        <ele>1282</ele>
        <time>2023-04-21T11:04:38.000Z</time>
      </trkpt>
      <trkpt lat="44.50118" lon="6.25276">
        <ele>1282</ele>
        <time>2023-04-21T11:04:39.000Z</time>
      </trkpt>
      <trkpt lat="44.50118" lon="6.25276">
        <ele>1282</ele>
        <time>2023-04-21T11:04:40.000Z</time>
      </trkpt>
      <trkpt lat="44.50118" lon="6.25276">
        <ele>1282</ele>
        <time>2023-04-21T11:04:41.000Z</time>
      </trkpt>
      <trkpt lat="44.50118" lon="6.25276">
        <ele>1282</ele>
        <time>2023-04-21T11:04:42.000Z</time>
      </trkpt>
      <trkpt lat="44.50117" lon="6.25276">
        <ele>1282</ele>
        <time>2023-04-21T11:04:43.000Z</time>
      </trkpt>
      <trkpt lat="44.50117" lon="6.25276">
        <ele>1282</ele>
        <time>2023-04-21T11:04:44.000Z</time>
      </trkpt>
      <trkpt lat="44.50117" lon="6.25276">
        <ele>1282</ele>
        <time>2023-04-21T11:04:45.000Z</time>
      </trkpt>
      <trkpt lat="44.50117" lon="6.25276">
        <ele>1283</ele>
        <time>2023-04-21T11:04:46.000Z</time>
      </trkpt>
      <trkpt lat="44.50117" lon="6.25276">
        <ele>1283</ele>
        <time>2023-04-21T11:04:47.000Z</time>
      </trkpt>
      <trkpt lat="44.50117" lon="6.25276">
        <ele>1283</ele>
        <time>2023-04-21T11:04:48.000Z</time>
      </trkpt>
      <trkpt lat="44.50117" lon="6.25276">
        <ele>1283</ele>
        <time>2023-04-21T11:04:49.000Z</time>
      </trkpt>
      <trkpt lat="44.50117" lon="6.25276">
        <ele>1283</ele>
        <time>2023-04-21T11:04:50.000Z</time>
      </trkpt>
      <trkpt lat="44.50117" lon="6.25276">
        <ele>1283</ele>
        <time>2023-04-21T11:04:51.000Z</time>
      </trkpt>
      <trkpt lat="44.50117" lon="6.25276">
        <ele>1283</ele>
        <time>2023-04-21T11:04:52.000Z</time>
      </trkpt>
      <trkpt lat="44.50117" lon="6.25276">
        <ele>1283</ele>
        <time>2023-04-21T11:04:53.000Z</time>
      </trkpt>
      <trkpt lat="44.50117" lon="6.25276">
        <ele>1283</ele>
        <time>2023-04-21T11:04:54.000Z</time>
      </trkpt>
      <trkpt lat="44.50117" lon="6.25276">
        <ele>1284</ele>
        <time>2023-04-21T11:04:55.000Z</time>
      </trkpt>
      <trkpt lat="44.50117" lon="6.25276">
        <ele>1284</ele>
        <time>2023-04-21T11:04:56.000Z</time>
      </trkpt>
      <trkpt lat="44.50117" lon="6.25276">
        <ele>1284</ele>
        <time>2023-04-21T11:04:57.000Z</time>
      </trkpt>
      <trkpt lat="44.50117" lon="6.25276">
        <ele>1284</ele>
        <time>2023-04-21T11:04:58.000Z</time>
      </trkpt>
      <trkpt lat="44.50117" lon="6.25276">
        <ele>1284</ele>
        <time>2023-04-21T11:04:59.000Z</time>
      </trkpt>
      <trkpt lat="44.50117" lon="6.25276">
        <ele>1284</ele>
        <time>2023-04-21T11:05:00.000Z</time>
      </trkpt>
      <trkpt lat="44.50117" lon="6.25276">
        <ele>1284</ele>
        <time>2023-04-21T11:05:01.000Z</time>
      </trkpt>
      <trkpt lat="44.50117" lon="6.25276">
        <ele>1284</ele>
        <time>2023-04-21T11:05:02.000Z</time>
      </trkpt>
      <trkpt lat="44.50117" lon="6.25276">
        <ele>1285</ele>
        <time>2023-04-21T11:05:03.000Z</time>
      </trkpt>
      <trkpt lat="44.50117" lon="6.25276">
        <ele>1285</ele>
        <time>2023-04-21T11:05:04.000Z</time>
      </trkpt>
      <trkpt lat="44.50117" lon="6.25276">
        <ele>1285</ele>
        <time>2023-04-21T11:05:05.000Z</time>
      </trkpt>
      <trkpt lat="44.50117" lon="6.25276">
        <ele>1285</ele>
        <time>2023-04-21T11:05:06.000Z</time>
      </trkpt>
      <trkpt lat="44.50117" lon="6.25276">
        <ele>1285</ele>
        <time>2023-04-21T11:05:07.000Z</time>
      </trkpt>
      <trkpt lat="44.50117" lon="6.25276">
        <ele>1285</ele>
        <time>2023-04-21T11:05:08.000Z</time>
      </trkpt>
      <trkpt lat="44.50117" lon="6.25276">
        <ele>1286</ele>
        <time>2023-04-21T11:05:09.000Z</time>
      </trkpt>
      <trkpt lat="44.50117" lon="6.25276">
        <ele>1286</ele>
        <time>2023-04-21T11:05:10.000Z</time>
      </trkpt>
      <trkpt lat="44.50116" lon="6.25276">
        <ele>1286</ele>
        <time>2023-04-21T11:05:11.000Z</time>
      </trkpt>
      <trkpt lat="44.50116" lon="6.25276">
        <ele>1286</ele>
        <time>2023-04-21T11:05:12.000Z</time>
      </trkpt>
      <trkpt lat="44.50117" lon="6.25276">
        <ele>1286</ele>
        <time>2023-04-21T11:05:13.000Z</time>
      </trkpt>
      <trkpt lat="44.50117" lon="6.25274">
        <ele>1287</ele>
        <time>2023-04-21T11:05:14.000Z</time>
      </trkpt>
      <trkpt lat="44.50117" lon="6.25273">
        <ele>1286</ele>
        <time>2023-04-21T11:05:15.000Z</time>
      </trkpt>
      <trkpt lat="44.50119" lon="6.2527">
        <ele>1284</ele>
        <time>2023-04-21T11:05:16.000Z</time>
      </trkpt>
      <trkpt lat="44.50121" lon="6.25269">
        <ele>1283</ele>
        <time>2023-04-21T11:05:17.000Z</time>
      </trkpt>
      <trkpt lat="44.50125" lon="6.2527">
        <ele>1282</ele>
        <time>2023-04-21T11:05:18.000Z</time>
      </trkpt>
      <trkpt lat="44.50128" lon="6.25272">
        <ele>1283</ele>
        <time>2023-04-21T11:05:19.000Z</time>
      </trkpt>
      <trkpt lat="44.50132" lon="6.25273">
        <ele>1283</ele>
        <time>2023-04-21T11:05:20.000Z</time>
      </trkpt>
      <trkpt lat="44.50137" lon="6.25274">
        <ele>1282</ele>
        <time>2023-04-21T11:05:21.000Z</time>
      </trkpt>
      <trkpt lat="44.50141" lon="6.25275">
        <ele>1281</ele>
        <time>2023-04-21T11:05:22.000Z</time>
      </trkpt>
      <trkpt lat="44.50145" lon="6.25276">
        <ele>1281</ele>
        <time>2023-04-21T11:05:23.000Z</time>
      </trkpt>
      <trkpt lat="44.50149" lon="6.25275">
        <ele>1282</ele>
        <time>2023-04-21T11:05:24.000Z</time>
      </trkpt>
      <trkpt lat="44.50151" lon="6.25272">
        <ele>1282</ele>
        <time>2023-04-21T11:05:25.000Z</time>
      </trkpt>
      <trkpt lat="44.50152" lon="6.25266">
        <ele>1282</ele>
        <time>2023-04-21T11:05:26.000Z</time>
      </trkpt>
      <trkpt lat="44.50152" lon="6.25259">
        <ele>1280</ele>
        <time>2023-04-21T11:05:27.000Z</time>
      </trkpt>
      <trkpt lat="44.50152" lon="6.25254">
        <ele>1283</ele>
        <time>2023-04-21T11:05:28.000Z</time>
      </trkpt>
      <trkpt lat="44.50151" lon="6.25249">
        <ele>1284</ele>
        <time>2023-04-21T11:05:29.000Z</time>
      </trkpt>
      <trkpt lat="44.5015" lon="6.25243">
        <ele>1285</ele>
        <time>2023-04-21T11:05:30.000Z</time>
      </trkpt>
      <trkpt lat="44.50148" lon="6.25239">
        <ele>1286</ele>
        <time>2023-04-21T11:05:31.000Z</time>
      </trkpt>
      <trkpt lat="44.50146" lon="6.25234">
        <ele>1287</ele>
        <time>2023-04-21T11:05:32.000Z</time>
      </trkpt>
      <trkpt lat="44.50144" lon="6.25229">
        <ele>1287</ele>
        <time>2023-04-21T11:05:33.000Z</time>
      </trkpt>
      <trkpt lat="44.50142" lon="6.25224">
        <ele>1287</ele>
        <time>2023-04-21T11:05:34.000Z</time>
      </trkpt>
      <trkpt lat="44.5014" lon="6.25219">
        <ele>1288</ele>
        <time>2023-04-21T11:05:35.000Z</time>
      </trkpt>
      <trkpt lat="44.50137" lon="6.25213">
        <ele>1288</ele>
        <time>2023-04-21T11:05:36.000Z</time>
      </trkpt>
      <trkpt lat="44.50133" lon="6.25208">
        <ele>1288</ele>
        <time>2023-04-21T11:05:37.000Z</time>
      </trkpt>
      <trkpt lat="44.50131" lon="6.25203">
        <ele>1288</ele>
        <time>2023-04-21T11:05:38.000Z</time>
      </trkpt>
      <trkpt lat="44.50128" lon="6.25197">
        <ele>1287</ele>
        <time>2023-04-21T11:05:39.000Z</time>
      </trkpt>
      <trkpt lat="44.50126" lon="6.25193">
        <ele>1285</ele>
        <time>2023-04-21T11:05:40.000Z</time>
      </trkpt>
      <trkpt lat="44.50126" lon="6.25188">
        <ele>1283</ele>
        <time>2023-04-21T11:05:41.000Z</time>
      </trkpt>
      <trkpt lat="44.50127" lon="6.25183">
        <ele>1282</ele>
        <time>2023-04-21T11:05:42.000Z</time>
      </trkpt>
      <trkpt lat="44.50131" lon="6.25181">
        <ele>1285</ele>
        <time>2023-04-21T11:05:43.000Z</time>
      </trkpt>
      <trkpt lat="44.50134" lon="6.25177">
        <ele>1284</ele>
        <time>2023-04-21T11:05:44.000Z</time>
      </trkpt>
      <trkpt lat="44.50137" lon="6.25173">
        <ele>1282</ele>
        <time>2023-04-21T11:05:45.000Z</time>
      </trkpt>
      <trkpt lat="44.50141" lon="6.2517">
        <ele>1281</ele>
        <time>2023-04-21T11:05:46.000Z</time>
      </trkpt>
      <trkpt lat="44.50144" lon="6.25167">
        <ele>1279</ele>
        <time>2023-04-21T11:05:47.000Z</time>
      </trkpt>
      <trkpt lat="44.50147" lon="6.25161">
        <ele>1277</ele>
        <time>2023-04-21T11:05:48.000Z</time>
      </trkpt>
      <trkpt lat="44.5015" lon="6.25155">
        <ele>1276</ele>
        <time>2023-04-21T11:05:49.000Z</time>
      </trkpt>
      <trkpt lat="44.50153" lon="6.25149">
        <ele>1276</ele>
        <time>2023-04-21T11:05:50.000Z</time>
      </trkpt>
      <trkpt lat="44.50157" lon="6.25142">
        <ele>1276</ele>
        <time>2023-04-21T11:05:51.000Z</time>
      </trkpt>
      <trkpt lat="44.50161" lon="6.25136">
        <ele>1274</ele>
        <time>2023-04-21T11:05:52.000Z</time>
      </trkpt>
      <trkpt lat="44.50164" lon="6.2513">
        <ele>1273</ele>
        <time>2023-04-21T11:05:53.000Z</time>
      </trkpt>
      <trkpt lat="44.50165" lon="6.25123">
        <ele>1273</ele>
        <time>2023-04-21T11:05:54.000Z</time>
      </trkpt>
      <trkpt lat="44.50164" lon="6.25117">
        <ele>1272</ele>
        <time>2023-04-21T11:05:55.000Z</time>
      </trkpt>
      <trkpt lat="44.50163" lon="6.25112">
        <ele>1273</ele>
        <time>2023-04-21T11:05:56.000Z</time>
      </trkpt>
      <trkpt lat="44.50162" lon="6.25107">
        <ele>1273</ele>
        <time>2023-04-21T11:05:57.000Z</time>
      </trkpt>
      <trkpt lat="44.5016" lon="6.25103">
        <ele>1275</ele>
        <time>2023-04-21T11:05:58.000Z</time>
      </trkpt>
      <trkpt lat="44.50158" lon="6.251">
        <ele>1273</ele>
        <time>2023-04-21T11:05:59.000Z</time>
      </trkpt>
      <trkpt lat="44.50156" lon="6.25095">
        <ele>1272</ele>
        <time>2023-04-21T11:06:00.000Z</time>
      </trkpt>
      <trkpt lat="44.50154" lon="6.25091">
        <ele>1271</ele>
        <time>2023-04-21T11:06:01.000Z</time>
      </trkpt>
      <trkpt lat="44.50153" lon="6.25086">
        <ele>1269</ele>
        <time>2023-04-21T11:06:02.000Z</time>
      </trkpt>
      <trkpt lat="44.50153" lon="6.25079">
        <ele>1269</ele>
        <time>2023-04-21T11:06:03.000Z</time>
      </trkpt>
      <trkpt lat="44.50153" lon="6.25072">
        <ele>1269</ele>
        <time>2023-04-21T11:06:04.000Z</time>
      </trkpt>
      <trkpt lat="44.50152" lon="6.25065">
        <ele>1268</ele>
        <time>2023-04-21T11:06:05.000Z</time>
      </trkpt>
      <trkpt lat="44.50152" lon="6.25058">
        <ele>1268</ele>
        <time>2023-04-21T11:06:06.000Z</time>
      </trkpt>
      <trkpt lat="44.50153" lon="6.25051">
        <ele>1267</ele>
        <time>2023-04-21T11:06:07.000Z</time>
      </trkpt>
      <trkpt lat="44.50153" lon="6.25044">
        <ele>1267</ele>
        <time>2023-04-21T11:06:08.000Z</time>
      </trkpt>
      <trkpt lat="44.50154" lon="6.25037">
        <ele>1267</ele>
        <time>2023-04-21T11:06:09.000Z</time>
      </trkpt>
      <trkpt lat="44.50154" lon="6.25029">
        <ele>1267</ele>
        <time>2023-04-21T11:06:10.000Z</time>
      </trkpt>
      <trkpt lat="44.50155" lon="6.25022">
        <ele>1266</ele>
        <time>2023-04-21T11:06:11.000Z</time>
      </trkpt>
      <trkpt lat="44.50156" lon="6.25017">
        <ele>1266</ele>
        <time>2023-04-21T11:06:12.000Z</time>
      </trkpt>
      <trkpt lat="44.50159" lon="6.25014">
        <ele>1268</ele>
        <time>2023-04-21T11:06:13.000Z</time>
      </trkpt>
      <trkpt lat="44.50161" lon="6.25013">
        <ele>1263</ele>
        <time>2023-04-21T11:06:14.000Z</time>
      </trkpt>
      <trkpt lat="44.50165" lon="6.25013">
        <ele>1262</ele>
        <time>2023-04-21T11:06:15.000Z</time>
      </trkpt>
      <trkpt lat="44.50168" lon="6.25015">
        <ele>1264</ele>
        <time>2023-04-21T11:06:16.000Z</time>
      </trkpt>
      <trkpt lat="44.50171" lon="6.25017">
        <ele>1263</ele>
        <time>2023-04-21T11:06:17.000Z</time>
      </trkpt>
      <trkpt lat="44.50175" lon="6.25019">
        <ele>1262</ele>
        <time>2023-04-21T11:06:18.000Z</time>
      </trkpt>
      <trkpt lat="44.50179" lon="6.25021">
        <ele>1262</ele>
        <time>2023-04-21T11:06:19.000Z</time>
      </trkpt>
      <trkpt lat="44.50184" lon="6.25022">
        <ele>1261</ele>
        <time>2023-04-21T11:06:20.000Z</time>
      </trkpt>
      <trkpt lat="44.50188" lon="6.25022">
        <ele>1262</ele>
        <time>2023-04-21T11:06:21.000Z</time>
      </trkpt>
      <trkpt lat="44.50192" lon="6.25024">
        <ele>1262</ele>
        <time>2023-04-21T11:06:22.000Z</time>
      </trkpt>
      <trkpt lat="44.50195" lon="6.25027">
        <ele>1263</ele>
        <time>2023-04-21T11:06:23.000Z</time>
      </trkpt>
      <trkpt lat="44.50197" lon="6.25029">
        <ele>1263</ele>
        <time>2023-04-21T11:06:24.000Z</time>
      </trkpt>
      <trkpt lat="44.502" lon="6.25031">
        <ele>1264</ele>
        <time>2023-04-21T11:06:25.000Z</time>
      </trkpt>
      <trkpt lat="44.50204" lon="6.25032">
        <ele>1265</ele>
        <time>2023-04-21T11:06:26.000Z</time>
      </trkpt>
      <trkpt lat="44.50207" lon="6.25032">
        <ele>1267</ele>
        <time>2023-04-21T11:06:27.000Z</time>
      </trkpt>
      <trkpt lat="44.50212" lon="6.25033">
        <ele>1269</ele>
        <time>2023-04-21T11:06:28.000Z</time>
      </trkpt>
      <trkpt lat="44.50215" lon="6.25031">
        <ele>1271</ele>
        <time>2023-04-21T11:06:29.000Z</time>
      </trkpt>
      <trkpt lat="44.50214" lon="6.25019">
        <ele>1270</ele>
        <time>2023-04-21T11:06:30.000Z</time>
      </trkpt>
      <trkpt lat="44.50217" lon="6.25011">
        <ele>1272</ele>
        <time>2023-04-21T11:06:31.000Z</time>
      </trkpt>
      <trkpt lat="44.50213" lon="6.25004">
        <ele>1271</ele>
        <time>2023-04-21T11:06:32.000Z</time>
      </trkpt>
      <trkpt lat="44.50211" lon="6.24999">
        <ele>1273</ele>
        <time>2023-04-21T11:06:33.000Z</time>
      </trkpt>
      <trkpt lat="44.50209" lon="6.24994">
        <ele>1274</ele>
        <time>2023-04-21T11:06:34.000Z</time>
      </trkpt>
      <trkpt lat="44.50207" lon="6.24988">
        <ele>1273</ele>
        <time>2023-04-21T11:06:35.000Z</time>
      </trkpt>
      <trkpt lat="44.50205" lon="6.24982">
        <ele>1273</ele>
        <time>2023-04-21T11:06:36.000Z</time>
      </trkpt>
      <trkpt lat="44.50203" lon="6.24975">
        <ele>1274</ele>
        <time>2023-04-21T11:06:37.000Z</time>
      </trkpt>
      <trkpt lat="44.502" lon="6.24969">
        <ele>1275</ele>
        <time>2023-04-21T11:06:38.000Z</time>
      </trkpt>
      <trkpt lat="44.50197" lon="6.24962">
        <ele>1274</ele>
        <time>2023-04-21T11:06:39.000Z</time>
      </trkpt>
      <trkpt lat="44.50194" lon="6.24955">
        <ele>1272</ele>
        <time>2023-04-21T11:06:40.000Z</time>
      </trkpt>
      <trkpt lat="44.50191" lon="6.24947">
        <ele>1273</ele>
        <time>2023-04-21T11:06:41.000Z</time>
      </trkpt>
      <trkpt lat="44.50189" lon="6.2494">
        <ele>1271</ele>
        <time>2023-04-21T11:06:42.000Z</time>
      </trkpt>
      <trkpt lat="44.50187" lon="6.24935">
        <ele>1268</ele>
        <time>2023-04-21T11:06:43.000Z</time>
      </trkpt>
      <trkpt lat="44.5019" lon="6.24928">
        <ele>1266</ele>
        <time>2023-04-21T11:06:44.000Z</time>
      </trkpt>
      <trkpt lat="44.50189" lon="6.24921">
        <ele>1266</ele>
        <time>2023-04-21T11:06:45.000Z</time>
      </trkpt>
      <trkpt lat="44.50189" lon="6.24913">
        <ele>1263</ele>
        <time>2023-04-21T11:06:46.000Z</time>
      </trkpt>
      <trkpt lat="44.50192" lon="6.24906">
        <ele>1262</ele>
        <time>2023-04-21T11:06:47.000Z</time>
      </trkpt>
      <trkpt lat="44.50194" lon="6.24899">
        <ele>1262</ele>
        <time>2023-04-21T11:06:48.000Z</time>
      </trkpt>
      <trkpt lat="44.50198" lon="6.24893">
        <ele>1263</ele>
        <time>2023-04-21T11:06:49.000Z</time>
      </trkpt>
      <trkpt lat="44.50201" lon="6.24886">
        <ele>1262</ele>
        <time>2023-04-21T11:06:50.000Z</time>
      </trkpt>
      <trkpt lat="44.50204" lon="6.24879">
        <ele>1259</ele>
        <time>2023-04-21T11:06:51.000Z</time>
      </trkpt>
      <trkpt lat="44.50208" lon="6.24871">
        <ele>1257</ele>
        <time>2023-04-21T11:06:52.000Z</time>
      </trkpt>
      <trkpt lat="44.50213" lon="6.24864">
        <ele>1253</ele>
        <time>2023-04-21T11:06:53.000Z</time>
      </trkpt>
      <trkpt lat="44.50218" lon="6.24858">
        <ele>1251</ele>
        <time>2023-04-21T11:06:54.000Z</time>
      </trkpt>
      <trkpt lat="44.50223" lon="6.24853">
        <ele>1248</ele>
        <time>2023-04-21T11:06:55.000Z</time>
      </trkpt>
      <trkpt lat="44.50228" lon="6.24848">
        <ele>1246</ele>
        <time>2023-04-21T11:06:56.000Z</time>
      </trkpt>
      <trkpt lat="44.50232" lon="6.24842">
        <ele>1245</ele>
        <time>2023-04-21T11:06:57.000Z</time>
      </trkpt>
      <trkpt lat="44.50234" lon="6.24836">
        <ele>1245</ele>
        <time>2023-04-21T11:06:58.000Z</time>
      </trkpt>
      <trkpt lat="44.50237" lon="6.24833">
        <ele>1243</ele>
        <time>2023-04-21T11:06:59.000Z</time>
      </trkpt>
      <trkpt lat="44.50239" lon="6.2483">
        <ele>1242</ele>
        <time>2023-04-21T11:07:00.000Z</time>
      </trkpt>
      <trkpt lat="44.50241" lon="6.24826">
        <ele>1241</ele>
        <time>2023-04-21T11:07:01.000Z</time>
      </trkpt>
      <trkpt lat="44.50244" lon="6.24824">
        <ele>1241</ele>
        <time>2023-04-21T11:07:02.000Z</time>
      </trkpt>
      <trkpt lat="44.50246" lon="6.24822">
        <ele>1240</ele>
        <time>2023-04-21T11:07:03.000Z</time>
      </trkpt>
      <trkpt lat="44.50248" lon="6.24822">
        <ele>1238</ele>
        <time>2023-04-21T11:07:04.000Z</time>
      </trkpt>
      <trkpt lat="44.5025" lon="6.24822">
        <ele>1237</ele>
        <time>2023-04-21T11:07:05.000Z</time>
      </trkpt>
      <trkpt lat="44.50253" lon="6.24821">
        <ele>1236</ele>
        <time>2023-04-21T11:07:06.000Z</time>
      </trkpt>
      <trkpt lat="44.50256" lon="6.2482">
        <ele>1235</ele>
        <time>2023-04-21T11:07:07.000Z</time>
      </trkpt>
      <trkpt lat="44.50258" lon="6.24818">
        <ele>1234</ele>
        <time>2023-04-21T11:07:08.000Z</time>
      </trkpt>
      <trkpt lat="44.50259" lon="6.24813">
        <ele>1233</ele>
        <time>2023-04-21T11:07:09.000Z</time>
      </trkpt>
      <trkpt lat="44.5026" lon="6.2481">
        <ele>1233</ele>
        <time>2023-04-21T11:07:10.000Z</time>
      </trkpt>
      <trkpt lat="44.50261" lon="6.24809">
        <ele>1233</ele>
        <time>2023-04-21T11:07:11.000Z</time>
      </trkpt>
      <trkpt lat="44.50261" lon="6.24809">
        <ele>1233</ele>
        <time>2023-04-21T11:07:12.000Z</time>
      </trkpt>
      <trkpt lat="44.50261" lon="6.24809">
        <ele>1232</ele>
        <time>2023-04-21T11:07:13.000Z</time>
      </trkpt>
      <trkpt lat="44.50261" lon="6.24809">
        <ele>1232</ele>
        <time>2023-04-21T11:07:14.000Z</time>
      </trkpt>
      <trkpt lat="44.50261" lon="6.24809">
        <ele>1233</ele>
        <time>2023-04-21T11:07:15.000Z</time>
      </trkpt>
      <trkpt lat="44.50261" lon="6.24809">
        <ele>1233</ele>
        <time>2023-04-21T11:07:16.000Z</time>
      </trkpt>
      <trkpt lat="44.50261" lon="6.24809">
        <ele>1233</ele>
        <time>2023-04-21T11:07:17.000Z</time>
      </trkpt>
      <trkpt lat="44.50261" lon="6.24809">
        <ele>1233</ele>
        <time>2023-04-21T11:07:18.000Z</time>
      </trkpt>
      <trkpt lat="44.50261" lon="6.24809">
        <ele>1233</ele>
        <time>2023-04-21T11:07:19.000Z</time>
      </trkpt>
      <trkpt lat="44.50261" lon="6.24809">
        <ele>1234</ele>
        <time>2023-04-21T11:07:20.000Z</time>
      </trkpt>
      <trkpt lat="44.50261" lon="6.24809">
        <ele>1234</ele>
        <time>2023-04-21T11:07:21.000Z</time>
      </trkpt>
      <trkpt lat="44.5026" lon="6.24809">
        <ele>1234</ele>
        <time>2023-04-21T11:07:22.000Z</time>
      </trkpt>
      <trkpt lat="44.5026" lon="6.24809">
        <ele>1234</ele>
        <time>2023-04-21T11:07:23.000Z</time>
      </trkpt>
      <trkpt lat="44.5026" lon="6.24809">
        <ele>1234</ele>
        <time>2023-04-21T11:07:24.000Z</time>
      </trkpt>
      <trkpt lat="44.5026" lon="6.24809">
        <ele>1234</ele>
        <time>2023-04-21T11:07:25.000Z</time>
      </trkpt>
      <trkpt lat="44.5026" lon="6.24809">
        <ele>1234</ele>
        <time>2023-04-21T11:07:26.000Z</time>
      </trkpt>
      <trkpt lat="44.5026" lon="6.24808">
        <ele>1234</ele>
        <time>2023-04-21T11:07:27.000Z</time>
      </trkpt>
      <trkpt lat="44.5026" lon="6.24808">
        <ele>1234</ele>
        <time>2023-04-21T11:07:28.000Z</time>
      </trkpt>
      <trkpt lat="44.5026" lon="6.24808">
        <ele>1234</ele>
        <time>2023-04-21T11:07:29.000Z</time>
      </trkpt>
      <trkpt lat="44.5026" lon="6.24808">
        <ele>1234</ele>
        <time>2023-04-21T11:07:30.000Z</time>
      </trkpt>
      <trkpt lat="44.5026" lon="6.24808">
        <ele>1234</ele>
        <time>2023-04-21T11:07:31.000Z</time>
      </trkpt>
      <trkpt lat="44.5026" lon="6.24807">
        <ele>1234</ele>
        <time>2023-04-21T11:07:32.000Z</time>
      </trkpt>
      <trkpt lat="44.5026" lon="6.24807">
        <ele>1234</ele>
        <time>2023-04-21T11:07:33.000Z</time>
      </trkpt>
      <trkpt lat="44.5026" lon="6.24807">
        <ele>1234</ele>
        <time>2023-04-21T11:07:34.000Z</time>
      </trkpt>
      <trkpt lat="44.5026" lon="6.24807">
        <ele>1234</ele>
        <time>2023-04-21T11:07:35.000Z</time>
      </trkpt>
      <trkpt lat="44.5026" lon="6.24807">
        <ele>1234</ele>
        <time>2023-04-21T11:07:36.000Z</time>
      </trkpt>
      <trkpt lat="44.5026" lon="6.24807">
        <ele>1234</ele>
        <time>2023-04-21T11:07:37.000Z</time>
      </trkpt>
      <trkpt lat="44.5026" lon="6.24806">
        <ele>1234</ele>
        <time>2023-04-21T11:07:38.000Z</time>
      </trkpt>
      <trkpt lat="44.5026" lon="6.24806">
        <ele>1233</ele>
        <time>2023-04-21T11:07:39.000Z</time>
      </trkpt>
      <trkpt lat="44.50259" lon="6.24806">
        <ele>1233</ele>
        <time>2023-04-21T11:07:40.000Z</time>
      </trkpt>
      <trkpt lat="44.50259" lon="6.24806">
        <ele>1233</ele>
        <time>2023-04-21T11:07:41.000Z</time>
      </trkpt>
      <trkpt lat="44.50259" lon="6.24806">
        <ele>1233</ele>
        <time>2023-04-21T11:07:42.000Z</time>
      </trkpt>
      <trkpt lat="44.50259" lon="6.24805">
        <ele>1232</ele>
        <time>2023-04-21T11:07:43.000Z</time>
      </trkpt>
      <trkpt lat="44.50259" lon="6.24805">
        <ele>1232</ele>
        <time>2023-04-21T11:07:44.000Z</time>
      </trkpt>
      <trkpt lat="44.50259" lon="6.24805">
        <ele>1231</ele>
        <time>2023-04-21T11:07:45.000Z</time>
      </trkpt>
      <trkpt lat="44.5026" lon="6.24805">
        <ele>1231</ele>
        <time>2023-04-21T11:07:46.000Z</time>
      </trkpt>
      <trkpt lat="44.5026" lon="6.24805">
        <ele>1231</ele>
        <time>2023-04-21T11:07:47.000Z</time>
      </trkpt>
      <trkpt lat="44.5026" lon="6.24805">
        <ele>1230</ele>
        <time>2023-04-21T11:07:48.000Z</time>
      </trkpt>
      <trkpt lat="44.5026" lon="6.24805">
        <ele>1230</ele>
        <time>2023-04-21T11:07:49.000Z</time>
      </trkpt>
      <trkpt lat="44.5026" lon="6.24805">
        <ele>1230</ele>
        <time>2023-04-21T11:07:50.000Z</time>
      </trkpt>
      <trkpt lat="44.5026" lon="6.24805">
        <ele>1230</ele>
        <time>2023-04-21T11:07:51.000Z</time>
      </trkpt>
      <trkpt lat="44.5026" lon="6.24805">
        <ele>1230</ele>
        <time>2023-04-21T11:07:52.000Z</time>
      </trkpt>
      <trkpt lat="44.5026" lon="6.24805">
        <ele>1230</ele>
        <time>2023-04-21T11:07:53.000Z</time>
      </trkpt>
      <trkpt lat="44.50261" lon="6.24805">
        <ele>1230</ele>
        <time>2023-04-21T11:07:54.000Z</time>
      </trkpt>
      <trkpt lat="44.50262" lon="6.24805">
        <ele>1229</ele>
        <time>2023-04-21T11:07:55.000Z</time>
      </trkpt>
      <trkpt lat="44.50263" lon="6.24806">
        <ele>1230</ele>
        <time>2023-04-21T11:07:56.000Z</time>
      </trkpt>
      <trkpt lat="44.50263" lon="6.24806">
        <ele>1229</ele>
        <time>2023-04-21T11:07:57.000Z</time>
      </trkpt>
      <trkpt lat="44.50264" lon="6.24808">
        <ele>1230</ele>
        <time>2023-04-21T11:07:58.000Z</time>
      </trkpt>
      <trkpt lat="44.50263" lon="6.24809">
        <ele>1230</ele>
        <time>2023-04-21T11:07:59.000Z</time>
      </trkpt>
      <trkpt lat="44.50263" lon="6.2481">
        <ele>1231</ele>
        <time>2023-04-21T11:08:00.000Z</time>
      </trkpt>
      <trkpt lat="44.50262" lon="6.24811">
        <ele>1231</ele>
        <time>2023-04-21T11:08:01.000Z</time>
      </trkpt>
      <trkpt lat="44.50261" lon="6.24811">
        <ele>1231</ele>
        <time>2023-04-21T11:08:02.000Z</time>
      </trkpt>
      <trkpt lat="44.50261" lon="6.2481">
        <ele>1231</ele>
        <time>2023-04-21T11:08:03.000Z</time>
      </trkpt>
      <trkpt lat="44.50261" lon="6.24809">
        <ele>1232</ele>
        <time>2023-04-21T11:08:04.000Z</time>
      </trkpt>
      <trkpt lat="44.50261" lon="6.24806">
        <ele>1233</ele>
        <time>2023-04-21T11:08:05.000Z</time>
      </trkpt>
      <trkpt lat="44.50262" lon="6.24805">
        <ele>1233</ele>
        <time>2023-04-21T11:08:06.000Z</time>
      </trkpt>
      <trkpt lat="44.50263" lon="6.24804">
        <ele>1233</ele>
        <time>2023-04-21T11:08:07.000Z</time>
      </trkpt>
      <trkpt lat="44.50264" lon="6.24803">
        <ele>1233</ele>
        <time>2023-04-21T11:08:08.000Z</time>
      </trkpt>
      <trkpt lat="44.50264" lon="6.24802">
        <ele>1233</ele>
        <time>2023-04-21T11:08:09.000Z</time>
      </trkpt>
      <trkpt lat="44.50265" lon="6.248">
        <ele>1232</ele>
        <time>2023-04-21T11:08:10.000Z</time>
      </trkpt>
      <trkpt lat="44.50267" lon="6.24798">
        <ele>1230</ele>
        <time>2023-04-21T11:08:11.000Z</time>
      </trkpt>
      <trkpt lat="44.50269" lon="6.24796">
        <ele>1229</ele>
        <time>2023-04-21T11:08:12.000Z</time>
      </trkpt>
      <trkpt lat="44.50272" lon="6.24795">
        <ele>1227</ele>
        <time>2023-04-21T11:08:13.000Z</time>
      </trkpt>
      <trkpt lat="44.50275" lon="6.24792">
        <ele>1226</ele>
        <time>2023-04-21T11:08:14.000Z</time>
      </trkpt>
      <trkpt lat="44.50278" lon="6.2479">
        <ele>1225</ele>
        <time>2023-04-21T11:08:15.000Z</time>
      </trkpt>
      <trkpt lat="44.5028" lon="6.24787">
        <ele>1224</ele>
        <time>2023-04-21T11:08:16.000Z</time>
      </trkpt>
      <trkpt lat="44.50282" lon="6.24784">
        <ele>1223</ele>
        <time>2023-04-21T11:08:17.000Z</time>
      </trkpt>
      <trkpt lat="44.50283" lon="6.2478">
        <ele>1222</ele>
        <time>2023-04-21T11:08:18.000Z</time>
      </trkpt>
      <trkpt lat="44.50286" lon="6.24776">
        <ele>1220</ele>
        <time>2023-04-21T11:08:19.000Z</time>
      </trkpt>
      <trkpt lat="44.50289" lon="6.24773">
        <ele>1219</ele>
        <time>2023-04-21T11:08:20.000Z</time>
      </trkpt>
      <trkpt lat="44.50291" lon="6.24771">
        <ele>1219</ele>
        <time>2023-04-21T11:08:21.000Z</time>
      </trkpt>
      <trkpt lat="44.50293" lon="6.24769">
        <ele>1218</ele>
        <time>2023-04-21T11:08:22.000Z</time>
      </trkpt>
      <trkpt lat="44.50296" lon="6.24769">
        <ele>1217</ele>
        <time>2023-04-21T11:08:23.000Z</time>
      </trkpt>
      <trkpt lat="44.50298" lon="6.24769">
        <ele>1216</ele>
        <time>2023-04-21T11:08:24.000Z</time>
      </trkpt>
      <trkpt lat="44.50299" lon="6.24769">
        <ele>1216</ele>
        <time>2023-04-21T11:08:25.000Z</time>
      </trkpt>
      <trkpt lat="44.50301" lon="6.24768">
        <ele>1216</ele>
        <time>2023-04-21T11:08:26.000Z</time>
      </trkpt>
      <trkpt lat="44.50303" lon="6.24769">
        <ele>1216</ele>
        <time>2023-04-21T11:08:27.000Z</time>
      </trkpt>
      <trkpt lat="44.50304" lon="6.24769">
        <ele>1216</ele>
        <time>2023-04-21T11:08:28.000Z</time>
      </trkpt>
      <trkpt lat="44.50306" lon="6.24768">
        <ele>1217</ele>
        <time>2023-04-21T11:08:29.000Z</time>
      </trkpt>
      <trkpt lat="44.50309" lon="6.24767">
        <ele>1216</ele>
        <time>2023-04-21T11:08:30.000Z</time>
      </trkpt>
      <trkpt lat="44.5031" lon="6.24764">
        <ele>1217</ele>
        <time>2023-04-21T11:08:31.000Z</time>
      </trkpt>
      <trkpt lat="44.50311" lon="6.24762">
        <ele>1219</ele>
        <time>2023-04-21T11:08:32.000Z</time>
      </trkpt>
      <trkpt lat="44.50312" lon="6.24759">
        <ele>1221</ele>
        <time>2023-04-21T11:08:33.000Z</time>
      </trkpt>
      <trkpt lat="44.50312" lon="6.24755">
        <ele>1222</ele>
        <time>2023-04-21T11:08:34.000Z</time>
      </trkpt>
      <trkpt lat="44.50312" lon="6.24752">
        <ele>1221</ele>
        <time>2023-04-21T11:08:35.000Z</time>
      </trkpt>
      <trkpt lat="44.50312" lon="6.24748">
        <ele>1221</ele>
        <time>2023-04-21T11:08:36.000Z</time>
      </trkpt>
      <trkpt lat="44.50311" lon="6.24744">
        <ele>1221</ele>
        <time>2023-04-21T11:08:37.000Z</time>
      </trkpt>
      <trkpt lat="44.50311" lon="6.24742">
        <ele>1221</ele>
        <time>2023-04-21T11:08:38.000Z</time>
      </trkpt>
      <trkpt lat="44.5031" lon="6.24738">
        <ele>1220</ele>
        <time>2023-04-21T11:08:39.000Z</time>
      </trkpt>
      <trkpt lat="44.50309" lon="6.24736">
        <ele>1220</ele>
        <time>2023-04-21T11:08:40.000Z</time>
      </trkpt>
      <trkpt lat="44.50308" lon="6.24733">
        <ele>1220</ele>
        <time>2023-04-21T11:08:41.000Z</time>
      </trkpt>
      <trkpt lat="44.50307" lon="6.2473">
        <ele>1220</ele>
        <time>2023-04-21T11:08:42.000Z</time>
      </trkpt>
      <trkpt lat="44.50306" lon="6.24727">
        <ele>1220</ele>
        <time>2023-04-21T11:08:43.000Z</time>
      </trkpt>
      <trkpt lat="44.50305" lon="6.24724">
        <ele>1220</ele>
        <time>2023-04-21T11:08:44.000Z</time>
      </trkpt>
      <trkpt lat="44.50304" lon="6.24721">
        <ele>1221</ele>
        <time>2023-04-21T11:08:45.000Z</time>
      </trkpt>
      <trkpt lat="44.50303" lon="6.24718">
        <ele>1222</ele>
        <time>2023-04-21T11:08:46.000Z</time>
      </trkpt>
      <trkpt lat="44.50303" lon="6.24714">
        <ele>1222</ele>
        <time>2023-04-21T11:08:47.000Z</time>
      </trkpt>
      <trkpt lat="44.50302" lon="6.24709">
        <ele>1223</ele>
        <time>2023-04-21T11:08:48.000Z</time>
      </trkpt>
      <trkpt lat="44.50302" lon="6.24702">
        <ele>1223</ele>
        <time>2023-04-21T11:08:49.000Z</time>
      </trkpt>
      <trkpt lat="44.50304" lon="6.24698">
        <ele>1224</ele>
        <time>2023-04-21T11:08:50.000Z</time>
      </trkpt>
      <trkpt lat="44.50305" lon="6.24692">
        <ele>1224</ele>
        <time>2023-04-21T11:08:51.000Z</time>
      </trkpt>
      <trkpt lat="44.50306" lon="6.24687">
        <ele>1223</ele>
        <time>2023-04-21T11:08:52.000Z</time>
      </trkpt>
      <trkpt lat="44.50307" lon="6.24683">
        <ele>1222</ele>
        <time>2023-04-21T11:08:53.000Z</time>
      </trkpt>
      <trkpt lat="44.50308" lon="6.24678">
        <ele>1222</ele>
        <time>2023-04-21T11:08:54.000Z</time>
      </trkpt>
      <trkpt lat="44.5031" lon="6.24675">
        <ele>1222</ele>
        <time>2023-04-21T11:08:55.000Z</time>
      </trkpt>
      <trkpt lat="44.50311" lon="6.24672">
        <ele>1221</ele>
        <time>2023-04-21T11:08:56.000Z</time>
      </trkpt>
      <trkpt lat="44.50313" lon="6.24669">
        <ele>1221</ele>
        <time>2023-04-21T11:08:57.000Z</time>
      </trkpt>
      <trkpt lat="44.50314" lon="6.24666">
        <ele>1221</ele>
        <time>2023-04-21T11:08:58.000Z</time>
      </trkpt>
      <trkpt lat="44.50314" lon="6.24664">
        <ele>1221</ele>
        <time>2023-04-21T11:08:59.000Z</time>
      </trkpt>
      <trkpt lat="44.50315" lon="6.24661">
        <ele>1221</ele>
        <time>2023-04-21T11:09:00.000Z</time>
      </trkpt>
      <trkpt lat="44.50317" lon="6.24658">
        <ele>1221</ele>
        <time>2023-04-21T11:09:01.000Z</time>
      </trkpt>
      <trkpt lat="44.50318" lon="6.24654">
        <ele>1219</ele>
        <time>2023-04-21T11:09:02.000Z</time>
      </trkpt>
      <trkpt lat="44.5032" lon="6.24651">
        <ele>1218</ele>
        <time>2023-04-21T11:09:03.000Z</time>
      </trkpt>
      <trkpt lat="44.50322" lon="6.24648">
        <ele>1217</ele>
        <time>2023-04-21T11:09:04.000Z</time>
      </trkpt>
      <trkpt lat="44.50324" lon="6.24645">
        <ele>1216</ele>
        <time>2023-04-21T11:09:05.000Z</time>
      </trkpt>
      <trkpt lat="44.50326" lon="6.24642">
        <ele>1216</ele>
        <time>2023-04-21T11:09:06.000Z</time>
      </trkpt>
      <trkpt lat="44.50328" lon="6.24639">
        <ele>1215</ele>
        <time>2023-04-21T11:09:07.000Z</time>
      </trkpt>
      <trkpt lat="44.5033" lon="6.24635">
        <ele>1215</ele>
        <time>2023-04-21T11:09:08.000Z</time>
      </trkpt>
      <trkpt lat="44.50331" lon="6.24631">
        <ele>1216</ele>
        <time>2023-04-21T11:09:09.000Z</time>
      </trkpt>
      <trkpt lat="44.50331" lon="6.24627">
        <ele>1216</ele>
        <time>2023-04-21T11:09:10.000Z</time>
      </trkpt>
      <trkpt lat="44.50332" lon="6.24622">
        <ele>1215</ele>
        <time>2023-04-21T11:09:11.000Z</time>
      </trkpt>
      <trkpt lat="44.50332" lon="6.24616">
        <ele>1215</ele>
        <time>2023-04-21T11:09:12.000Z</time>
      </trkpt>
      <trkpt lat="44.50332" lon="6.24611">
        <ele>1213</ele>
        <time>2023-04-21T11:09:13.000Z</time>
      </trkpt>
      <trkpt lat="44.50332" lon="6.24605">
        <ele>1214</ele>
        <time>2023-04-21T11:09:14.000Z</time>
      </trkpt>
      <trkpt lat="44.50332" lon="6.24599">
        <ele>1214</ele>
        <time>2023-04-21T11:09:15.000Z</time>
      </trkpt>
      <trkpt lat="44.50331" lon="6.24593">
        <ele>1213</ele>
        <time>2023-04-21T11:09:16.000Z</time>
      </trkpt>
      <trkpt lat="44.50328" lon="6.24589">
        <ele>1213</ele>
        <time>2023-04-21T11:09:17.000Z</time>
      </trkpt>
      <trkpt lat="44.50326" lon="6.24584">
        <ele>1212</ele>
        <time>2023-04-21T11:09:18.000Z</time>
      </trkpt>
      <trkpt lat="44.5032" lon="6.24581">
        <ele>1210</ele>
        <time>2023-04-21T11:09:19.000Z</time>
      </trkpt>
      <trkpt lat="44.50317" lon="6.24578">
        <ele>1209</ele>
        <time>2023-04-21T11:09:20.000Z</time>
      </trkpt>
      <trkpt lat="44.50313" lon="6.24576">
        <ele>1208</ele>
        <time>2023-04-21T11:09:21.000Z</time>
      </trkpt>
      <trkpt lat="44.50311" lon="6.24577">
        <ele>1207</ele>
        <time>2023-04-21T11:09:22.000Z</time>
      </trkpt>
      <trkpt lat="44.50308" lon="6.24577">
        <ele>1206</ele>
        <time>2023-04-21T11:09:23.000Z</time>
      </trkpt>
      <trkpt lat="44.50305" lon="6.24579">
        <ele>1205</ele>
        <time>2023-04-21T11:09:24.000Z</time>
      </trkpt>
      <trkpt lat="44.50303" lon="6.24579">
        <ele>1204</ele>
        <time>2023-04-21T11:09:25.000Z</time>
      </trkpt>
      <trkpt lat="44.50302" lon="6.24579">
        <ele>1203</ele>
        <time>2023-04-21T11:09:26.000Z</time>
      </trkpt>
      <trkpt lat="44.50301" lon="6.24578">
        <ele>1204</ele>
        <time>2023-04-21T11:09:27.000Z</time>
      </trkpt>
      <trkpt lat="44.503" lon="6.24577">
        <ele>1204</ele>
        <time>2023-04-21T11:09:28.000Z</time>
      </trkpt>
      <trkpt lat="44.50299" lon="6.24575">
        <ele>1204</ele>
        <time>2023-04-21T11:09:29.000Z</time>
      </trkpt>
      <trkpt lat="44.50301" lon="6.24575">
        <ele>1205</ele>
        <time>2023-04-21T11:09:30.000Z</time>
      </trkpt>
      <trkpt lat="44.50302" lon="6.24574">
        <ele>1205</ele>
        <time>2023-04-21T11:09:31.000Z</time>
      </trkpt>
      <trkpt lat="44.50304" lon="6.24572">
        <ele>1206</ele>
        <time>2023-04-21T11:09:32.000Z</time>
      </trkpt>
      <trkpt lat="44.50306" lon="6.2457">
        <ele>1204</ele>
        <time>2023-04-21T11:09:33.000Z</time>
      </trkpt>
      <trkpt lat="44.5031" lon="6.24568">
        <ele>1205</ele>
        <time>2023-04-21T11:09:34.000Z</time>
      </trkpt>
      <trkpt lat="44.50313" lon="6.24566">
        <ele>1205</ele>
        <time>2023-04-21T11:09:35.000Z</time>
      </trkpt>
      <trkpt lat="44.50316" lon="6.24567">
        <ele>1203</ele>
        <time>2023-04-21T11:09:36.000Z</time>
      </trkpt>
      <trkpt lat="44.5032" lon="6.24567">
        <ele>1203</ele>
        <time>2023-04-21T11:09:37.000Z</time>
      </trkpt>
      <trkpt lat="44.50325" lon="6.24571">
        <ele>1204</ele>
        <time>2023-04-21T11:09:38.000Z</time>
      </trkpt>
      <trkpt lat="44.50331" lon="6.24575">
        <ele>1205</ele>
        <time>2023-04-21T11:09:39.000Z</time>
      </trkpt>
      <trkpt lat="44.50335" lon="6.24578">
        <ele>1205</ele>
        <time>2023-04-21T11:09:40.000Z</time>
      </trkpt>
      <trkpt lat="44.50338" lon="6.24583">
        <ele>1206</ele>
        <time>2023-04-21T11:09:41.000Z</time>
      </trkpt>
      <trkpt lat="44.50338" lon="6.2459">
        <ele>1207</ele>
        <time>2023-04-21T11:09:42.000Z</time>
      </trkpt>
      <trkpt lat="44.50339" lon="6.24593">
        <ele>1207</ele>
        <time>2023-04-21T11:09:43.000Z</time>
      </trkpt>
      <trkpt lat="44.50341" lon="6.24597">
        <ele>1208</ele>
        <time>2023-04-21T11:09:44.000Z</time>
      </trkpt>
      <trkpt lat="44.50342" lon="6.24601">
        <ele>1208</ele>
        <time>2023-04-21T11:09:45.000Z</time>
      </trkpt>
      <trkpt lat="44.50344" lon="6.24603">
        <ele>1209</ele>
        <time>2023-04-21T11:09:46.000Z</time>
      </trkpt>
      <trkpt lat="44.50346" lon="6.24605">
        <ele>1209</ele>
        <time>2023-04-21T11:09:47.000Z</time>
      </trkpt>
      <trkpt lat="44.50348" lon="6.24607">
        <ele>1210</ele>
        <time>2023-04-21T11:09:48.000Z</time>
      </trkpt>
      <trkpt lat="44.5035" lon="6.24608">
        <ele>1211</ele>
        <time>2023-04-21T11:09:49.000Z</time>
      </trkpt>
      <trkpt lat="44.50352" lon="6.24608">
        <ele>1213</ele>
        <time>2023-04-21T11:09:50.000Z</time>
      </trkpt>
      <trkpt lat="44.50354" lon="6.24609">
        <ele>1213</ele>
        <time>2023-04-21T11:09:51.000Z</time>
      </trkpt>
      <trkpt lat="44.50354" lon="6.24604">
        <ele>1212</ele>
        <time>2023-04-21T11:09:52.000Z</time>
      </trkpt>
      <trkpt lat="44.50355" lon="6.24601">
        <ele>1213</ele>
        <time>2023-04-21T11:09:53.000Z</time>
      </trkpt>
      <trkpt lat="44.50357" lon="6.24597">
        <ele>1212</ele>
        <time>2023-04-21T11:09:54.000Z</time>
      </trkpt>
      <trkpt lat="44.50359" lon="6.24593">
        <ele>1210</ele>
        <time>2023-04-21T11:09:55.000Z</time>
      </trkpt>
      <trkpt lat="44.5036" lon="6.24589">
        <ele>1210</ele>
        <time>2023-04-21T11:09:56.000Z</time>
      </trkpt>
      <trkpt lat="44.50361" lon="6.24585">
        <ele>1210</ele>
        <time>2023-04-21T11:09:57.000Z</time>
      </trkpt>
      <trkpt lat="44.50362" lon="6.24582">
        <ele>1208</ele>
        <time>2023-04-21T11:09:58.000Z</time>
      </trkpt>
      <trkpt lat="44.50362" lon="6.24578">
        <ele>1208</ele>
        <time>2023-04-21T11:09:59.000Z</time>
      </trkpt>
      <trkpt lat="44.50363" lon="6.24574">
        <ele>1208</ele>
        <time>2023-04-21T11:10:00.000Z</time>
      </trkpt>
      <trkpt lat="44.50363" lon="6.24571">
        <ele>1208</ele>
        <time>2023-04-21T11:10:01.000Z</time>
      </trkpt>
      <trkpt lat="44.50363" lon="6.24567">
        <ele>1208</ele>
        <time>2023-04-21T11:10:02.000Z</time>
      </trkpt>
      <trkpt lat="44.50363" lon="6.24564">
        <ele>1206</ele>
        <time>2023-04-21T11:10:03.000Z</time>
      </trkpt>
      <trkpt lat="44.50363" lon="6.24562">
        <ele>1206</ele>
        <time>2023-04-21T11:10:04.000Z</time>
      </trkpt>
      <trkpt lat="44.50362" lon="6.24559">
        <ele>1207</ele>
        <time>2023-04-21T11:10:05.000Z</time>
      </trkpt>
      <trkpt lat="44.50361" lon="6.24556">
        <ele>1206</ele>
        <time>2023-04-21T11:10:06.000Z</time>
      </trkpt>
      <trkpt lat="44.5036" lon="6.24552">
        <ele>1205</ele>
        <time>2023-04-21T11:10:07.000Z</time>
      </trkpt>
      <trkpt lat="44.50359" lon="6.24549">
        <ele>1204</ele>
        <time>2023-04-21T11:10:08.000Z</time>
      </trkpt>
      <trkpt lat="44.50358" lon="6.24546">
        <ele>1203</ele>
        <time>2023-04-21T11:10:09.000Z</time>
      </trkpt>
      <trkpt lat="44.50357" lon="6.24542">
        <ele>1203</ele>
        <time>2023-04-21T11:10:10.000Z</time>
      </trkpt>
      <trkpt lat="44.50356" lon="6.24539">
        <ele>1202</ele>
        <time>2023-04-21T11:10:11.000Z</time>
      </trkpt>
      <trkpt lat="44.50355" lon="6.24536">
        <ele>1202</ele>
        <time>2023-04-21T11:10:12.000Z</time>
      </trkpt>
      <trkpt lat="44.50355" lon="6.24533">
        <ele>1202</ele>
        <time>2023-04-21T11:10:13.000Z</time>
      </trkpt>
      <trkpt lat="44.50354" lon="6.2453">
        <ele>1201</ele>
        <time>2023-04-21T11:10:14.000Z</time>
      </trkpt>
      <trkpt lat="44.50353" lon="6.24527">
        <ele>1200</ele>
        <time>2023-04-21T11:10:15.000Z</time>
      </trkpt>
      <trkpt lat="44.50352" lon="6.24524">
        <ele>1200</ele>
        <time>2023-04-21T11:10:16.000Z</time>
      </trkpt>
      <trkpt lat="44.50351" lon="6.24521">
        <ele>1199</ele>
        <time>2023-04-21T11:10:17.000Z</time>
      </trkpt>
      <trkpt lat="44.5035" lon="6.24519">
        <ele>1198</ele>
        <time>2023-04-21T11:10:18.000Z</time>
      </trkpt>
      <trkpt lat="44.50351" lon="6.24517">
        <ele>1198</ele>
        <time>2023-04-21T11:10:19.000Z</time>
      </trkpt>
      <trkpt lat="44.50351" lon="6.24515">
        <ele>1198</ele>
        <time>2023-04-21T11:10:20.000Z</time>
      </trkpt>
      <trkpt lat="44.50351" lon="6.24512">
        <ele>1198</ele>
        <time>2023-04-21T11:10:21.000Z</time>
      </trkpt>
      <trkpt lat="44.50351" lon="6.2451">
        <ele>1198</ele>
        <time>2023-04-21T11:10:22.000Z</time>
      </trkpt>
      <trkpt lat="44.50352" lon="6.24506">
        <ele>1197</ele>
        <time>2023-04-21T11:10:23.000Z</time>
      </trkpt>
      <trkpt lat="44.50352" lon="6.24503">
        <ele>1197</ele>
        <time>2023-04-21T11:10:24.000Z</time>
      </trkpt>
      <trkpt lat="44.50353" lon="6.245">
        <ele>1197</ele>
        <time>2023-04-21T11:10:25.000Z</time>
      </trkpt>
      <trkpt lat="44.50353" lon="6.24497">
        <ele>1197</ele>
        <time>2023-04-21T11:10:26.000Z</time>
      </trkpt>
      <trkpt lat="44.50354" lon="6.24495">
        <ele>1198</ele>
        <time>2023-04-21T11:10:27.000Z</time>
      </trkpt>
      <trkpt lat="44.50354" lon="6.24492">
        <ele>1197</ele>
        <time>2023-04-21T11:10:28.000Z</time>
      </trkpt>
      <trkpt lat="44.50355" lon="6.24489">
        <ele>1197</ele>
        <time>2023-04-21T11:10:29.000Z</time>
      </trkpt>
      <trkpt lat="44.50356" lon="6.24486">
        <ele>1197</ele>
        <time>2023-04-21T11:10:30.000Z</time>
      </trkpt>
      <trkpt lat="44.50356" lon="6.24483">
        <ele>1197</ele>
        <time>2023-04-21T11:10:31.000Z</time>
      </trkpt>
      <trkpt lat="44.50356" lon="6.24481">
        <ele>1196</ele>
        <time>2023-04-21T11:10:32.000Z</time>
      </trkpt>
      <trkpt lat="44.50357" lon="6.24478">
        <ele>1197</ele>
        <time>2023-04-21T11:10:33.000Z</time>
      </trkpt>
      <trkpt lat="44.50357" lon="6.24476">
        <ele>1197</ele>
        <time>2023-04-21T11:10:34.000Z</time>
      </trkpt>
      <trkpt lat="44.50358" lon="6.24474">
        <ele>1197</ele>
        <time>2023-04-21T11:10:35.000Z</time>
      </trkpt>
      <trkpt lat="44.50359" lon="6.24472">
        <ele>1197</ele>
        <time>2023-04-21T11:10:36.000Z</time>
      </trkpt>
      <trkpt lat="44.50359" lon="6.2447">
        <ele>1198</ele>
        <time>2023-04-21T11:10:37.000Z</time>
      </trkpt>
      <trkpt lat="44.5036" lon="6.24467">
        <ele>1197</ele>
        <time>2023-04-21T11:10:38.000Z</time>
      </trkpt>
      <trkpt lat="44.50361" lon="6.24465">
        <ele>1197</ele>
        <time>2023-04-21T11:10:39.000Z</time>
      </trkpt>
      <trkpt lat="44.50361" lon="6.24462">
        <ele>1198</ele>
        <time>2023-04-21T11:10:40.000Z</time>
      </trkpt>
      <trkpt lat="44.50362" lon="6.2446">
        <ele>1198</ele>
        <time>2023-04-21T11:10:41.000Z</time>
      </trkpt>
      <trkpt lat="44.50362" lon="6.24457">
        <ele>1199</ele>
        <time>2023-04-21T11:10:42.000Z</time>
      </trkpt>
      <trkpt lat="44.50363" lon="6.24455">
        <ele>1198</ele>
        <time>2023-04-21T11:10:43.000Z</time>
      </trkpt>
      <trkpt lat="44.50364" lon="6.24453">
        <ele>1198</ele>
        <time>2023-04-21T11:10:44.000Z</time>
      </trkpt>
      <trkpt lat="44.50365" lon="6.24451">
        <ele>1199</ele>
        <time>2023-04-21T11:10:45.000Z</time>
      </trkpt>
      <trkpt lat="44.50366" lon="6.24449">
        <ele>1199</ele>
        <time>2023-04-21T11:10:46.000Z</time>
      </trkpt>
      <trkpt lat="44.50367" lon="6.24446">
        <ele>1199</ele>
        <time>2023-04-21T11:10:47.000Z</time>
      </trkpt>
      <trkpt lat="44.50368" lon="6.24444">
        <ele>1199</ele>
        <time>2023-04-21T11:10:48.000Z</time>
      </trkpt>
      <trkpt lat="44.50369" lon="6.24442">
        <ele>1200</ele>
        <time>2023-04-21T11:10:49.000Z</time>
      </trkpt>
      <trkpt lat="44.5037" lon="6.24441">
        <ele>1200</ele>
        <time>2023-04-21T11:10:50.000Z</time>
      </trkpt>
      <trkpt lat="44.50371" lon="6.24439">
        <ele>1199</ele>
        <time>2023-04-21T11:10:51.000Z</time>
      </trkpt>
      <trkpt lat="44.50372" lon="6.24437">
        <ele>1199</ele>
        <time>2023-04-21T11:10:52.000Z</time>
      </trkpt>
      <trkpt lat="44.50373" lon="6.24435">
        <ele>1200</ele>
        <time>2023-04-21T11:10:53.000Z</time>
      </trkpt>
      <trkpt lat="44.50375" lon="6.24434">
        <ele>1200</ele>
        <time>2023-04-21T11:10:54.000Z</time>
      </trkpt>
      <trkpt lat="44.50376" lon="6.24433">
        <ele>1199</ele>
        <time>2023-04-21T11:10:55.000Z</time>
      </trkpt>
      <trkpt lat="44.50377" lon="6.24432">
        <ele>1199</ele>
        <time>2023-04-21T11:10:56.000Z</time>
      </trkpt>
      <trkpt lat="44.50378" lon="6.24431">
        <ele>1199</ele>
        <time>2023-04-21T11:10:57.000Z</time>
      </trkpt>
      <trkpt lat="44.50379" lon="6.2443">
        <ele>1200</ele>
        <time>2023-04-21T11:10:58.000Z</time>
      </trkpt>
      <trkpt lat="44.5038" lon="6.24428">
        <ele>1200</ele>
        <time>2023-04-21T11:10:59.000Z</time>
      </trkpt>
      <trkpt lat="44.50381" lon="6.24427">
        <ele>1200</ele>
        <time>2023-04-21T11:11:00.000Z</time>
      </trkpt>
      <trkpt lat="44.50382" lon="6.24425">
        <ele>1201</ele>
        <time>2023-04-21T11:11:01.000Z</time>
      </trkpt>
      <trkpt lat="44.50383" lon="6.24424">
        <ele>1201</ele>
        <time>2023-04-21T11:11:02.000Z</time>
      </trkpt>
      <trkpt lat="44.50384" lon="6.24422">
        <ele>1202</ele>
        <time>2023-04-21T11:11:03.000Z</time>
      </trkpt>
      <trkpt lat="44.50386" lon="6.24421">
        <ele>1202</ele>
        <time>2023-04-21T11:11:04.000Z</time>
      </trkpt>
      <trkpt lat="44.50387" lon="6.24419">
        <ele>1202</ele>
        <time>2023-04-21T11:11:05.000Z</time>
      </trkpt>
      <trkpt lat="44.50388" lon="6.24417">
        <ele>1201</ele>
        <time>2023-04-21T11:11:06.000Z</time>
      </trkpt>
      <trkpt lat="44.5039" lon="6.24416">
        <ele>1201</ele>
        <time>2023-04-21T11:11:07.000Z</time>
      </trkpt>
      <trkpt lat="44.50391" lon="6.24414">
        <ele>1202</ele>
        <time>2023-04-21T11:11:08.000Z</time>
      </trkpt>
      <trkpt lat="44.50393" lon="6.24412">
        <ele>1203</ele>
        <time>2023-04-21T11:11:09.000Z</time>
      </trkpt>
      <trkpt lat="44.50394" lon="6.24411">
        <ele>1203</ele>
        <time>2023-04-21T11:11:10.000Z</time>
      </trkpt>
      <trkpt lat="44.50396" lon="6.24409">
        <ele>1203</ele>
        <time>2023-04-21T11:11:11.000Z</time>
      </trkpt>
      <trkpt lat="44.50397" lon="6.24408">
        <ele>1204</ele>
        <time>2023-04-21T11:11:12.000Z</time>
      </trkpt>
      <trkpt lat="44.50398" lon="6.24407">
        <ele>1204</ele>
        <time>2023-04-21T11:11:13.000Z</time>
      </trkpt>
      <trkpt lat="44.504" lon="6.24405">
        <ele>1204</ele>
        <time>2023-04-21T11:11:14.000Z</time>
      </trkpt>
      <trkpt lat="44.50401" lon="6.24404">
        <ele>1204</ele>
        <time>2023-04-21T11:11:15.000Z</time>
      </trkpt>
      <trkpt lat="44.50402" lon="6.24402">
        <ele>1205</ele>
        <time>2023-04-21T11:11:16.000Z</time>
      </trkpt>
      <trkpt lat="44.50403" lon="6.24401">
        <ele>1205</ele>
        <time>2023-04-21T11:11:17.000Z</time>
      </trkpt>
      <trkpt lat="44.50405" lon="6.24399">
        <ele>1205</ele>
        <time>2023-04-21T11:11:18.000Z</time>
      </trkpt>
      <trkpt lat="44.50406" lon="6.24398">
        <ele>1205</ele>
        <time>2023-04-21T11:11:19.000Z</time>
      </trkpt>
      <trkpt lat="44.50407" lon="6.24396">
        <ele>1205</ele>
        <time>2023-04-21T11:11:20.000Z</time>
      </trkpt>
      <trkpt lat="44.50409" lon="6.24395">
        <ele>1205</ele>
        <time>2023-04-21T11:11:21.000Z</time>
      </trkpt>
      <trkpt lat="44.5041" lon="6.24393">
        <ele>1206</ele>
        <time>2023-04-21T11:11:22.000Z</time>
      </trkpt>
      <trkpt lat="44.50412" lon="6.24392">
        <ele>1206</ele>
        <time>2023-04-21T11:11:23.000Z</time>
      </trkpt>
      <trkpt lat="44.50413" lon="6.2439">
        <ele>1207</ele>
        <time>2023-04-21T11:11:24.000Z</time>
      </trkpt>
      <trkpt lat="44.50415" lon="6.24389">
        <ele>1208</ele>
        <time>2023-04-21T11:11:25.000Z</time>
      </trkpt>
      <trkpt lat="44.50416" lon="6.24387">
        <ele>1208</ele>
        <time>2023-04-21T11:11:26.000Z</time>
      </trkpt>
      <trkpt lat="44.50418" lon="6.24386">
        <ele>1207</ele>
        <time>2023-04-21T11:11:27.000Z</time>
      </trkpt>
      <trkpt lat="44.5042" lon="6.24385">
        <ele>1206</ele>
        <time>2023-04-21T11:11:28.000Z</time>
      </trkpt>
      <trkpt lat="44.50421" lon="6.24384">
        <ele>1207</ele>
        <time>2023-04-21T11:11:29.000Z</time>
      </trkpt>
      <trkpt lat="44.50423" lon="6.24383">
        <ele>1206</ele>
        <time>2023-04-21T11:11:30.000Z</time>
      </trkpt>
      <trkpt lat="44.50425" lon="6.24381">
        <ele>1206</ele>
        <time>2023-04-21T11:11:31.000Z</time>
      </trkpt>
      <trkpt lat="44.50426" lon="6.24379">
        <ele>1207</ele>
        <time>2023-04-21T11:11:32.000Z</time>
      </trkpt>
      <trkpt lat="44.50428" lon="6.24377">
        <ele>1207</ele>
        <time>2023-04-21T11:11:33.000Z</time>
      </trkpt>
      <trkpt lat="44.5043" lon="6.24376">
        <ele>1207</ele>
        <time>2023-04-21T11:11:34.000Z</time>
      </trkpt>
      <trkpt lat="44.50431" lon="6.24375">
        <ele>1207</ele>
        <time>2023-04-21T11:11:35.000Z</time>
      </trkpt>
      <trkpt lat="44.50433" lon="6.24373">
        <ele>1207</ele>
        <time>2023-04-21T11:11:36.000Z</time>
      </trkpt>
      <trkpt lat="44.50435" lon="6.24372">
        <ele>1207</ele>
        <time>2023-04-21T11:11:37.000Z</time>
      </trkpt>
      <trkpt lat="44.50436" lon="6.24371">
        <ele>1207</ele>
        <time>2023-04-21T11:11:38.000Z</time>
      </trkpt>
      <trkpt lat="44.50438" lon="6.24369">
        <ele>1208</ele>
        <time>2023-04-21T11:11:39.000Z</time>
      </trkpt>
      <trkpt lat="44.5044" lon="6.24368">
        <ele>1210</ele>
        <time>2023-04-21T11:11:40.000Z</time>
      </trkpt>
      <trkpt lat="44.50442" lon="6.24366">
        <ele>1210</ele>
        <time>2023-04-21T11:11:41.000Z</time>
      </trkpt>
      <trkpt lat="44.50443" lon="6.24365">
        <ele>1211</ele>
        <time>2023-04-21T11:11:42.000Z</time>
      </trkpt>
      <trkpt lat="44.50445" lon="6.24364">
        <ele>1211</ele>
        <time>2023-04-21T11:11:43.000Z</time>
      </trkpt>
      <trkpt lat="44.50447" lon="6.24363">
        <ele>1212</ele>
        <time>2023-04-21T11:11:44.000Z</time>
      </trkpt>
      <trkpt lat="44.50449" lon="6.24362">
        <ele>1213</ele>
        <time>2023-04-21T11:11:45.000Z</time>
      </trkpt>
      <trkpt lat="44.50451" lon="6.2436">
        <ele>1214</ele>
        <time>2023-04-21T11:11:46.000Z</time>
      </trkpt>
      <trkpt lat="44.50452" lon="6.24358">
        <ele>1215</ele>
        <time>2023-04-21T11:11:47.000Z</time>
      </trkpt>
      <trkpt lat="44.50454" lon="6.24355">
        <ele>1215</ele>
        <time>2023-04-21T11:11:48.000Z</time>
      </trkpt>
      <trkpt lat="44.50455" lon="6.24353">
        <ele>1215</ele>
        <time>2023-04-21T11:11:49.000Z</time>
      </trkpt>
      <trkpt lat="44.50457" lon="6.24351">
        <ele>1216</ele>
        <time>2023-04-21T11:11:50.000Z</time>
      </trkpt>
      <trkpt lat="44.50458" lon="6.2435">
        <ele>1216</ele>
        <time>2023-04-21T11:11:51.000Z</time>
      </trkpt>
      <trkpt lat="44.5046" lon="6.24348">
        <ele>1216</ele>
        <time>2023-04-21T11:11:52.000Z</time>
      </trkpt>
      <trkpt lat="44.50463" lon="6.24346">
        <ele>1216</ele>
        <time>2023-04-21T11:11:53.000Z</time>
      </trkpt>
      <trkpt lat="44.50465" lon="6.24345">
        <ele>1216</ele>
        <time>2023-04-21T11:11:54.000Z</time>
      </trkpt>
      <trkpt lat="44.50467" lon="6.24344">
        <ele>1216</ele>
        <time>2023-04-21T11:11:55.000Z</time>
      </trkpt>
      <trkpt lat="44.50469" lon="6.24342">
        <ele>1216</ele>
        <time>2023-04-21T11:11:56.000Z</time>
      </trkpt>
      <trkpt lat="44.50471" lon="6.24341">
        <ele>1217</ele>
        <time>2023-04-21T11:11:57.000Z</time>
      </trkpt>
      <trkpt lat="44.50473" lon="6.2434">
        <ele>1219</ele>
        <time>2023-04-21T11:11:58.000Z</time>
      </trkpt>
      <trkpt lat="44.50475" lon="6.24339">
        <ele>1220</ele>
        <time>2023-04-21T11:11:59.000Z</time>
      </trkpt>
      <trkpt lat="44.50477" lon="6.24337">
        <ele>1221</ele>
        <time>2023-04-21T11:12:00.000Z</time>
      </trkpt>
      <trkpt lat="44.50478" lon="6.24335">
        <ele>1222</ele>
        <time>2023-04-21T11:12:01.000Z</time>
      </trkpt>
      <trkpt lat="44.5048" lon="6.24333">
        <ele>1222</ele>
        <time>2023-04-21T11:12:02.000Z</time>
      </trkpt>
      <trkpt lat="44.50481" lon="6.24331">
        <ele>1223</ele>
        <time>2023-04-21T11:12:03.000Z</time>
      </trkpt>
      <trkpt lat="44.50483" lon="6.24329">
        <ele>1222</ele>
        <time>2023-04-21T11:12:04.000Z</time>
      </trkpt>
      <trkpt lat="44.50484" lon="6.24326">
        <ele>1222</ele>
        <time>2023-04-21T11:12:05.000Z</time>
      </trkpt>
      <trkpt lat="44.50486" lon="6.24324">
        <ele>1222</ele>
        <time>2023-04-21T11:12:06.000Z</time>
      </trkpt>
      <trkpt lat="44.50488" lon="6.24322">
        <ele>1222</ele>
        <time>2023-04-21T11:12:07.000Z</time>
      </trkpt>
      <trkpt lat="44.50489" lon="6.2432">
        <ele>1222</ele>
        <time>2023-04-21T11:12:08.000Z</time>
      </trkpt>
      <trkpt lat="44.50491" lon="6.24318">
        <ele>1222</ele>
        <time>2023-04-21T11:12:09.000Z</time>
      </trkpt>
      <trkpt lat="44.50491" lon="6.24314">
        <ele>1223</ele>
        <time>2023-04-21T11:12:10.000Z</time>
      </trkpt>
      <trkpt lat="44.50493" lon="6.24312">
        <ele>1224</ele>
        <time>2023-04-21T11:12:11.000Z</time>
      </trkpt>
      <trkpt lat="44.50494" lon="6.2431">
        <ele>1223</ele>
        <time>2023-04-21T11:12:12.000Z</time>
      </trkpt>
      <trkpt lat="44.50495" lon="6.24307">
        <ele>1223</ele>
        <time>2023-04-21T11:12:13.000Z</time>
      </trkpt>
      <trkpt lat="44.50496" lon="6.24304">
        <ele>1223</ele>
        <time>2023-04-21T11:12:14.000Z</time>
      </trkpt>
      <trkpt lat="44.50498" lon="6.24302">
        <ele>1224</ele>
        <time>2023-04-21T11:12:15.000Z</time>
      </trkpt>
      <trkpt lat="44.50499" lon="6.243">
        <ele>1225</ele>
        <time>2023-04-21T11:12:16.000Z</time>
      </trkpt>
      <trkpt lat="44.50501" lon="6.24298">
        <ele>1225</ele>
        <time>2023-04-21T11:12:17.000Z</time>
      </trkpt>
      <trkpt lat="44.50501" lon="6.24296">
        <ele>1224</ele>
        <time>2023-04-21T11:12:18.000Z</time>
      </trkpt>
      <trkpt lat="44.50503" lon="6.24295">
        <ele>1226</ele>
        <time>2023-04-21T11:12:19.000Z</time>
      </trkpt>
      <trkpt lat="44.50504" lon="6.24294">
        <ele>1226</ele>
        <time>2023-04-21T11:12:20.000Z</time>
      </trkpt>
      <trkpt lat="44.50506" lon="6.24291">
        <ele>1229</ele>
        <time>2023-04-21T11:12:21.000Z</time>
      </trkpt>
      <trkpt lat="44.50508" lon="6.24289">
        <ele>1231</ele>
        <time>2023-04-21T11:12:22.000Z</time>
      </trkpt>
      <trkpt lat="44.50511" lon="6.24286">
        <ele>1233</ele>
        <time>2023-04-21T11:12:23.000Z</time>
      </trkpt>
      <trkpt lat="44.50513" lon="6.24284">
        <ele>1235</ele>
        <time>2023-04-21T11:12:24.000Z</time>
      </trkpt>
      <trkpt lat="44.50516" lon="6.24282">
        <ele>1237</ele>
        <time>2023-04-21T11:12:25.000Z</time>
      </trkpt>
      <trkpt lat="44.50519" lon="6.24281">
        <ele>1238</ele>
        <time>2023-04-21T11:12:26.000Z</time>
      </trkpt>
      <trkpt lat="44.50521" lon="6.24278">
        <ele>1238</ele>
        <time>2023-04-21T11:12:27.000Z</time>
      </trkpt>
      <trkpt lat="44.50524" lon="6.24276">
        <ele>1236</ele>
        <time>2023-04-21T11:12:28.000Z</time>
      </trkpt>
      <trkpt lat="44.50526" lon="6.24275">
        <ele>1237</ele>
        <time>2023-04-21T11:12:29.000Z</time>
      </trkpt>
      <trkpt lat="44.50529" lon="6.24275">
        <ele>1238</ele>
        <time>2023-04-21T11:12:30.000Z</time>
      </trkpt>
      <trkpt lat="44.50532" lon="6.24274">
        <ele>1238</ele>
        <time>2023-04-21T11:12:31.000Z</time>
      </trkpt>
      <trkpt lat="44.50536" lon="6.24273">
        <ele>1239</ele>
        <time>2023-04-21T11:12:32.000Z</time>
      </trkpt>
      <trkpt lat="44.50538" lon="6.24272">
        <ele>1239</ele>
        <time>2023-04-21T11:12:33.000Z</time>
      </trkpt>
      <trkpt lat="44.5054" lon="6.2427">
        <ele>1240</ele>
        <time>2023-04-21T11:12:34.000Z</time>
      </trkpt>
      <trkpt lat="44.50542" lon="6.24268">
        <ele>1242</ele>
        <time>2023-04-21T11:12:35.000Z</time>
      </trkpt>
      <trkpt lat="44.50544" lon="6.24265">
        <ele>1243</ele>
        <time>2023-04-21T11:12:36.000Z</time>
      </trkpt>
      <trkpt lat="44.50546" lon="6.24263">
        <ele>1242</ele>
        <time>2023-04-21T11:12:37.000Z</time>
      </trkpt>
      <trkpt lat="44.50548" lon="6.24259">
        <ele>1243</ele>
        <time>2023-04-21T11:12:38.000Z</time>
      </trkpt>
      <trkpt lat="44.5055" lon="6.24256">
        <ele>1243</ele>
        <time>2023-04-21T11:12:39.000Z</time>
      </trkpt>
      <trkpt lat="44.5055" lon="6.24253">
        <ele>1243</ele>
        <time>2023-04-21T11:12:40.000Z</time>
      </trkpt>
      <trkpt lat="44.50552" lon="6.2425">
        <ele>1242</ele>
        <time>2023-04-21T11:12:41.000Z</time>
      </trkpt>
      <trkpt lat="44.50554" lon="6.24248">
        <ele>1242</ele>
        <time>2023-04-21T11:12:42.000Z</time>
      </trkpt>
      <trkpt lat="44.50555" lon="6.24246">
        <ele>1242</ele>
        <time>2023-04-21T11:12:43.000Z</time>
      </trkpt>
      <trkpt lat="44.50557" lon="6.24243">
        <ele>1242</ele>
        <time>2023-04-21T11:12:44.000Z</time>
      </trkpt>
      <trkpt lat="44.50558" lon="6.24241">
        <ele>1242</ele>
        <time>2023-04-21T11:12:45.000Z</time>
      </trkpt>
      <trkpt lat="44.50561" lon="6.24239">
        <ele>1244</ele>
        <time>2023-04-21T11:12:46.000Z</time>
      </trkpt>
      <trkpt lat="44.50564" lon="6.24239">
        <ele>1242</ele>
        <time>2023-04-21T11:12:47.000Z</time>
      </trkpt>
      <trkpt lat="44.50566" lon="6.24238">
        <ele>1243</ele>
        <time>2023-04-21T11:12:48.000Z</time>
      </trkpt>
      <trkpt lat="44.50568" lon="6.24238">
        <ele>1244</ele>
        <time>2023-04-21T11:12:49.000Z</time>
      </trkpt>
      <trkpt lat="44.50571" lon="6.24237">
        <ele>1245</ele>
        <time>2023-04-21T11:12:50.000Z</time>
      </trkpt>
      <trkpt lat="44.50573" lon="6.24237">
        <ele>1246</ele>
        <time>2023-04-21T11:12:51.000Z</time>
      </trkpt>
      <trkpt lat="44.50575" lon="6.24237">
        <ele>1246</ele>
        <time>2023-04-21T11:12:52.000Z</time>
      </trkpt>
      <trkpt lat="44.50577" lon="6.24237">
        <ele>1246</ele>
        <time>2023-04-21T11:12:53.000Z</time>
      </trkpt>
      <trkpt lat="44.50579" lon="6.24236">
        <ele>1247</ele>
        <time>2023-04-21T11:12:54.000Z</time>
      </trkpt>
      <trkpt lat="44.50581" lon="6.24237">
        <ele>1246</ele>
        <time>2023-04-21T11:12:55.000Z</time>
      </trkpt>
      <trkpt lat="44.50583" lon="6.24236">
        <ele>1247</ele>
        <time>2023-04-21T11:12:56.000Z</time>
      </trkpt>
      <trkpt lat="44.50584" lon="6.24235">
        <ele>1247</ele>
        <time>2023-04-21T11:12:57.000Z</time>
      </trkpt>
      <trkpt lat="44.50587" lon="6.24234">
        <ele>1248</ele>
        <time>2023-04-21T11:12:58.000Z</time>
      </trkpt>
      <trkpt lat="44.50589" lon="6.24233">
        <ele>1249</ele>
        <time>2023-04-21T11:12:59.000Z</time>
      </trkpt>
      <trkpt lat="44.50591" lon="6.24233">
        <ele>1250</ele>
        <time>2023-04-21T11:13:00.000Z</time>
      </trkpt>
      <trkpt lat="44.50593" lon="6.24231">
        <ele>1250</ele>
        <time>2023-04-21T11:13:01.000Z</time>
      </trkpt>
      <trkpt lat="44.50594" lon="6.24229">
        <ele>1249</ele>
        <time>2023-04-21T11:13:02.000Z</time>
      </trkpt>
      <trkpt lat="44.50595" lon="6.24226">
        <ele>1249</ele>
        <time>2023-04-21T11:13:03.000Z</time>
      </trkpt>
      <trkpt lat="44.50596" lon="6.24225">
        <ele>1250</ele>
        <time>2023-04-21T11:13:04.000Z</time>
      </trkpt>
      <trkpt lat="44.50598" lon="6.24223">
        <ele>1251</ele>
        <time>2023-04-21T11:13:05.000Z</time>
      </trkpt>
      <trkpt lat="44.50599" lon="6.24221">
        <ele>1252</ele>
        <time>2023-04-21T11:13:06.000Z</time>
      </trkpt>
      <trkpt lat="44.50601" lon="6.24221">
        <ele>1253</ele>
        <time>2023-04-21T11:13:07.000Z</time>
      </trkpt>
      <trkpt lat="44.50602" lon="6.2422">
        <ele>1254</ele>
        <time>2023-04-21T11:13:08.000Z</time>
      </trkpt>
      <trkpt lat="44.50603" lon="6.24218">
        <ele>1253</ele>
        <time>2023-04-21T11:13:09.000Z</time>
      </trkpt>
      <trkpt lat="44.50604" lon="6.24215">
        <ele>1253</ele>
        <time>2023-04-21T11:13:10.000Z</time>
      </trkpt>
      <trkpt lat="44.50605" lon="6.24213">
        <ele>1255</ele>
        <time>2023-04-21T11:13:11.000Z</time>
      </trkpt>
      <trkpt lat="44.50605" lon="6.24211">
        <ele>1256</ele>
        <time>2023-04-21T11:13:12.000Z</time>
      </trkpt>
      <trkpt lat="44.50605" lon="6.24209">
        <ele>1254</ele>
        <time>2023-04-21T11:13:13.000Z</time>
      </trkpt>
      <trkpt lat="44.50604" lon="6.24207">
        <ele>1253</ele>
        <time>2023-04-21T11:13:14.000Z</time>
      </trkpt>
      <trkpt lat="44.50604" lon="6.24205">
        <ele>1251</ele>
        <time>2023-04-21T11:13:15.000Z</time>
      </trkpt>
      <trkpt lat="44.50604" lon="6.24203">
        <ele>1251</ele>
        <time>2023-04-21T11:13:16.000Z</time>
      </trkpt>
      <trkpt lat="44.50604" lon="6.242">
        <ele>1251</ele>
        <time>2023-04-21T11:13:17.000Z</time>
      </trkpt>
      <trkpt lat="44.50605" lon="6.24197">
        <ele>1250</ele>
        <time>2023-04-21T11:13:18.000Z</time>
      </trkpt>
      <trkpt lat="44.50606" lon="6.24195">
        <ele>1250</ele>
        <time>2023-04-21T11:13:19.000Z</time>
      </trkpt>
      <trkpt lat="44.50607" lon="6.24192">
        <ele>1250</ele>
        <time>2023-04-21T11:13:20.000Z</time>
      </trkpt>
      <trkpt lat="44.50608" lon="6.2419">
        <ele>1250</ele>
        <time>2023-04-21T11:13:21.000Z</time>
      </trkpt>
      <trkpt lat="44.50609" lon="6.24189">
        <ele>1249</ele>
        <time>2023-04-21T11:13:22.000Z</time>
      </trkpt>
      <trkpt lat="44.50609" lon="6.24187">
        <ele>1249</ele>
        <time>2023-04-21T11:13:23.000Z</time>
      </trkpt>
      <trkpt lat="44.5061" lon="6.24184">
        <ele>1248</ele>
        <time>2023-04-21T11:13:24.000Z</time>
      </trkpt>
      <trkpt lat="44.50611" lon="6.24183">
        <ele>1247</ele>
        <time>2023-04-21T11:13:25.000Z</time>
      </trkpt>
      <trkpt lat="44.50612" lon="6.24181">
        <ele>1247</ele>
        <time>2023-04-21T11:13:26.000Z</time>
      </trkpt>
      <trkpt lat="44.50613" lon="6.24179">
        <ele>1246</ele>
        <time>2023-04-21T11:13:27.000Z</time>
      </trkpt>
      <trkpt lat="44.50614" lon="6.24178">
        <ele>1246</ele>
        <time>2023-04-21T11:13:28.000Z</time>
      </trkpt>
      <trkpt lat="44.50615" lon="6.24176">
        <ele>1245</ele>
        <time>2023-04-21T11:13:29.000Z</time>
      </trkpt>
      <trkpt lat="44.50617" lon="6.24175">
        <ele>1244</ele>
        <time>2023-04-21T11:13:30.000Z</time>
      </trkpt>
      <trkpt lat="44.5062" lon="6.24171">
        <ele>1240</ele>
        <time>2023-04-21T11:13:31.000Z</time>
      </trkpt>
      <trkpt lat="44.50621" lon="6.24169">
        <ele>1239</ele>
        <time>2023-04-21T11:13:32.000Z</time>
      </trkpt>
      <trkpt lat="44.50622" lon="6.24167">
        <ele>1238</ele>
        <time>2023-04-21T11:13:33.000Z</time>
      </trkpt>
      <trkpt lat="44.50624" lon="6.24166">
        <ele>1238</ele>
        <time>2023-04-21T11:13:34.000Z</time>
      </trkpt>
      <trkpt lat="44.50626" lon="6.24164">
        <ele>1238</ele>
        <time>2023-04-21T11:13:35.000Z</time>
      </trkpt>
      <trkpt lat="44.50627" lon="6.24162">
        <ele>1237</ele>
        <time>2023-04-21T11:13:36.000Z</time>
      </trkpt>
      <trkpt lat="44.50628" lon="6.2416">
        <ele>1237</ele>
        <time>2023-04-21T11:13:37.000Z</time>
      </trkpt>
      <trkpt lat="44.5063" lon="6.24158">
        <ele>1236</ele>
        <time>2023-04-21T11:13:38.000Z</time>
      </trkpt>
      <trkpt lat="44.50632" lon="6.24155">
        <ele>1237</ele>
        <time>2023-04-21T11:13:39.000Z</time>
      </trkpt>
      <trkpt lat="44.50634" lon="6.24153">
        <ele>1237</ele>
        <time>2023-04-21T11:13:40.000Z</time>
      </trkpt>
      <trkpt lat="44.50636" lon="6.24152">
        <ele>1237</ele>
        <time>2023-04-21T11:13:41.000Z</time>
      </trkpt>
      <trkpt lat="44.50638" lon="6.2415">
        <ele>1237</ele>
        <time>2023-04-21T11:13:42.000Z</time>
      </trkpt>
      <trkpt lat="44.50641" lon="6.24149">
        <ele>1237</ele>
        <time>2023-04-21T11:13:43.000Z</time>
      </trkpt>
      <trkpt lat="44.50643" lon="6.24148">
        <ele>1237</ele>
        <time>2023-04-21T11:13:44.000Z</time>
      </trkpt>
      <trkpt lat="44.50645" lon="6.24147">
        <ele>1237</ele>
        <time>2023-04-21T11:13:45.000Z</time>
      </trkpt>
      <trkpt lat="44.50647" lon="6.24147">
        <ele>1237</ele>
        <time>2023-04-21T11:13:46.000Z</time>
      </trkpt>
      <trkpt lat="44.50649" lon="6.24146">
        <ele>1237</ele>
        <time>2023-04-21T11:13:47.000Z</time>
      </trkpt>
      <trkpt lat="44.50652" lon="6.24146">
        <ele>1238</ele>
        <time>2023-04-21T11:13:48.000Z</time>
      </trkpt>
      <trkpt lat="44.50654" lon="6.24146">
        <ele>1238</ele>
        <time>2023-04-21T11:13:49.000Z</time>
      </trkpt>
      <trkpt lat="44.50656" lon="6.24145">
        <ele>1239</ele>
        <time>2023-04-21T11:13:50.000Z</time>
      </trkpt>
      <trkpt lat="44.50658" lon="6.24144">
        <ele>1239</ele>
        <time>2023-04-21T11:13:51.000Z</time>
      </trkpt>
      <trkpt lat="44.5066" lon="6.24143">
        <ele>1239</ele>
        <time>2023-04-21T11:13:52.000Z</time>
      </trkpt>
      <trkpt lat="44.50663" lon="6.24141">
        <ele>1239</ele>
        <time>2023-04-21T11:13:53.000Z</time>
      </trkpt>
      <trkpt lat="44.50665" lon="6.24139">
        <ele>1239</ele>
        <time>2023-04-21T11:13:54.000Z</time>
      </trkpt>
      <trkpt lat="44.50667" lon="6.24137">
        <ele>1239</ele>
        <time>2023-04-21T11:13:55.000Z</time>
      </trkpt>
      <trkpt lat="44.50669" lon="6.24135">
        <ele>1239</ele>
        <time>2023-04-21T11:13:56.000Z</time>
      </trkpt>
      <trkpt lat="44.5067" lon="6.24132">
        <ele>1239</ele>
        <time>2023-04-21T11:13:57.000Z</time>
      </trkpt>
      <trkpt lat="44.50671" lon="6.24129">
        <ele>1239</ele>
        <time>2023-04-21T11:13:58.000Z</time>
      </trkpt>
      <trkpt lat="44.50672" lon="6.24127">
        <ele>1240</ele>
        <time>2023-04-21T11:13:59.000Z</time>
      </trkpt>
      <trkpt lat="44.50673" lon="6.24124">
        <ele>1240</ele>
        <time>2023-04-21T11:14:00.000Z</time>
      </trkpt>
      <trkpt lat="44.50674" lon="6.24122">
        <ele>1241</ele>
        <time>2023-04-21T11:14:01.000Z</time>
      </trkpt>
      <trkpt lat="44.50675" lon="6.2412">
        <ele>1241</ele>
        <time>2023-04-21T11:14:02.000Z</time>
      </trkpt>
      <trkpt lat="44.50676" lon="6.24117">
        <ele>1241</ele>
        <time>2023-04-21T11:14:03.000Z</time>
      </trkpt>
      <trkpt lat="44.50678" lon="6.24115">
        <ele>1242</ele>
        <time>2023-04-21T11:14:04.000Z</time>
      </trkpt>
      <trkpt lat="44.50679" lon="6.24113">
        <ele>1242</ele>
        <time>2023-04-21T11:14:05.000Z</time>
      </trkpt>
      <trkpt lat="44.5068" lon="6.24111">
        <ele>1243</ele>
        <time>2023-04-21T11:14:06.000Z</time>
      </trkpt>
      <trkpt lat="44.50681" lon="6.24109">
        <ele>1243</ele>
        <time>2023-04-21T11:14:07.000Z</time>
      </trkpt>
      <trkpt lat="44.50682" lon="6.24107">
        <ele>1244</ele>
        <time>2023-04-21T11:14:08.000Z</time>
      </trkpt>
      <trkpt lat="44.50684" lon="6.24105">
        <ele>1245</ele>
        <time>2023-04-21T11:14:09.000Z</time>
      </trkpt>
      <trkpt lat="44.50685" lon="6.24102">
        <ele>1245</ele>
        <time>2023-04-21T11:14:10.000Z</time>
      </trkpt>
      <trkpt lat="44.50687" lon="6.241">
        <ele>1245</ele>
        <time>2023-04-21T11:14:11.000Z</time>
      </trkpt>
      <trkpt lat="44.50688" lon="6.24097">
        <ele>1246</ele>
        <time>2023-04-21T11:14:12.000Z</time>
      </trkpt>
      <trkpt lat="44.5069" lon="6.24095">
        <ele>1245</ele>
        <time>2023-04-21T11:14:13.000Z</time>
      </trkpt>
      <trkpt lat="44.50691" lon="6.24093">
        <ele>1244</ele>
        <time>2023-04-21T11:14:14.000Z</time>
      </trkpt>
      <trkpt lat="44.50693" lon="6.24091">
        <ele>1244</ele>
        <time>2023-04-21T11:14:15.000Z</time>
      </trkpt>
      <trkpt lat="44.50694" lon="6.24089">
        <ele>1244</ele>
        <time>2023-04-21T11:14:16.000Z</time>
      </trkpt>
      <trkpt lat="44.50695" lon="6.24087">
        <ele>1244</ele>
        <time>2023-04-21T11:14:17.000Z</time>
      </trkpt>
      <trkpt lat="44.50697" lon="6.24085">
        <ele>1244</ele>
        <time>2023-04-21T11:14:18.000Z</time>
      </trkpt>
      <trkpt lat="44.50698" lon="6.24082">
        <ele>1245</ele>
        <time>2023-04-21T11:14:19.000Z</time>
      </trkpt>
      <trkpt lat="44.507" lon="6.2408">
        <ele>1246</ele>
        <time>2023-04-21T11:14:20.000Z</time>
      </trkpt>
      <trkpt lat="44.50701" lon="6.24077">
        <ele>1246</ele>
        <time>2023-04-21T11:14:21.000Z</time>
      </trkpt>
      <trkpt lat="44.50703" lon="6.24075">
        <ele>1246</ele>
        <time>2023-04-21T11:14:22.000Z</time>
      </trkpt>
      <trkpt lat="44.50704" lon="6.24072">
        <ele>1247</ele>
        <time>2023-04-21T11:14:23.000Z</time>
      </trkpt>
      <trkpt lat="44.50705" lon="6.2407">
        <ele>1247</ele>
        <time>2023-04-21T11:14:24.000Z</time>
      </trkpt>
      <trkpt lat="44.50706" lon="6.24069">
        <ele>1248</ele>
        <time>2023-04-21T11:14:25.000Z</time>
      </trkpt>
      <trkpt lat="44.50708" lon="6.24066">
        <ele>1248</ele>
        <time>2023-04-21T11:14:26.000Z</time>
      </trkpt>
      <trkpt lat="44.5071" lon="6.24064">
        <ele>1247</ele>
        <time>2023-04-21T11:14:27.000Z</time>
      </trkpt>
      <trkpt lat="44.50713" lon="6.24061">
        <ele>1246</ele>
        <time>2023-04-21T11:14:28.000Z</time>
      </trkpt>
      <trkpt lat="44.50716" lon="6.24059">
        <ele>1247</ele>
        <time>2023-04-21T11:14:29.000Z</time>
      </trkpt>
      <trkpt lat="44.50718" lon="6.24058">
        <ele>1247</ele>
        <time>2023-04-21T11:14:30.000Z</time>
      </trkpt>
      <trkpt lat="44.5072" lon="6.24057">
        <ele>1246</ele>
        <time>2023-04-21T11:14:31.000Z</time>
      </trkpt>
      <trkpt lat="44.50722" lon="6.24056">
        <ele>1247</ele>
        <time>2023-04-21T11:14:32.000Z</time>
      </trkpt>
      <trkpt lat="44.50725" lon="6.24056">
        <ele>1247</ele>
        <time>2023-04-21T11:14:33.000Z</time>
      </trkpt>
      <trkpt lat="44.50727" lon="6.24055">
        <ele>1247</ele>
        <time>2023-04-21T11:14:34.000Z</time>
      </trkpt>
      <trkpt lat="44.50729" lon="6.24055">
        <ele>1248</ele>
        <time>2023-04-21T11:14:35.000Z</time>
      </trkpt>
      <trkpt lat="44.50731" lon="6.24055">
        <ele>1248</ele>
        <time>2023-04-21T11:14:36.000Z</time>
      </trkpt>
      <trkpt lat="44.50734" lon="6.24055">
        <ele>1249</ele>
        <time>2023-04-21T11:14:37.000Z</time>
      </trkpt>
      <trkpt lat="44.50736" lon="6.24054">
        <ele>1249</ele>
        <time>2023-04-21T11:14:38.000Z</time>
      </trkpt>
      <trkpt lat="44.50738" lon="6.24055">
        <ele>1250</ele>
        <time>2023-04-21T11:14:39.000Z</time>
      </trkpt>
      <trkpt lat="44.5074" lon="6.24055">
        <ele>1250</ele>
        <time>2023-04-21T11:14:40.000Z</time>
      </trkpt>
      <trkpt lat="44.50742" lon="6.24055">
        <ele>1251</ele>
        <time>2023-04-21T11:14:41.000Z</time>
      </trkpt>
      <trkpt lat="44.50744" lon="6.24055">
        <ele>1251</ele>
        <time>2023-04-21T11:14:42.000Z</time>
      </trkpt>
      <trkpt lat="44.50746" lon="6.24056">
        <ele>1251</ele>
        <time>2023-04-21T11:14:43.000Z</time>
      </trkpt>
      <trkpt lat="44.50748" lon="6.24057">
        <ele>1251</ele>
        <time>2023-04-21T11:14:44.000Z</time>
      </trkpt>
      <trkpt lat="44.5075" lon="6.24057">
        <ele>1251</ele>
        <time>2023-04-21T11:14:45.000Z</time>
      </trkpt>
      <trkpt lat="44.50752" lon="6.24057">
        <ele>1253</ele>
        <time>2023-04-21T11:14:46.000Z</time>
      </trkpt>
      <trkpt lat="44.50754" lon="6.24058">
        <ele>1253</ele>
        <time>2023-04-21T11:14:47.000Z</time>
      </trkpt>
      <trkpt lat="44.50756" lon="6.24058">
        <ele>1254</ele>
        <time>2023-04-21T11:14:48.000Z</time>
      </trkpt>
      <trkpt lat="44.50758" lon="6.24059">
        <ele>1254</ele>
        <time>2023-04-21T11:14:49.000Z</time>
      </trkpt>
      <trkpt lat="44.5076" lon="6.2406">
        <ele>1254</ele>
        <time>2023-04-21T11:14:50.000Z</time>
      </trkpt>
      <trkpt lat="44.50762" lon="6.24061">
        <ele>1255</ele>
        <time>2023-04-21T11:14:51.000Z</time>
      </trkpt>
      <trkpt lat="44.50764" lon="6.24063">
        <ele>1256</ele>
        <time>2023-04-21T11:14:52.000Z</time>
      </trkpt>
      <trkpt lat="44.50766" lon="6.24064">
        <ele>1257</ele>
        <time>2023-04-21T11:14:53.000Z</time>
      </trkpt>
      <trkpt lat="44.50769" lon="6.24065">
        <ele>1259</ele>
        <time>2023-04-21T11:14:54.000Z</time>
      </trkpt>
      <trkpt lat="44.50771" lon="6.24066">
        <ele>1259</ele>
        <time>2023-04-21T11:14:55.000Z</time>
      </trkpt>
      <trkpt lat="44.50774" lon="6.24065">
        <ele>1260</ele>
        <time>2023-04-21T11:14:56.000Z</time>
      </trkpt>
      <trkpt lat="44.50778" lon="6.24065">
        <ele>1261</ele>
        <time>2023-04-21T11:14:57.000Z</time>
      </trkpt>
      <trkpt lat="44.50781" lon="6.24064">
        <ele>1263</ele>
        <time>2023-04-21T11:14:58.000Z</time>
      </trkpt>
      <trkpt lat="44.50783" lon="6.24063">
        <ele>1266</ele>
        <time>2023-04-21T11:14:59.000Z</time>
      </trkpt>
      <trkpt lat="44.50785" lon="6.24063">
        <ele>1268</ele>
        <time>2023-04-21T11:15:00.000Z</time>
      </trkpt>
      <trkpt lat="44.50787" lon="6.24063">
        <ele>1270</ele>
        <time>2023-04-21T11:15:01.000Z</time>
      </trkpt>
      <trkpt lat="44.50789" lon="6.24063">
        <ele>1273</ele>
        <time>2023-04-21T11:15:02.000Z</time>
      </trkpt>
      <trkpt lat="44.50791" lon="6.24062">
        <ele>1274</ele>
        <time>2023-04-21T11:15:03.000Z</time>
      </trkpt>
      <trkpt lat="44.50793" lon="6.2406">
        <ele>1272</ele>
        <time>2023-04-21T11:15:04.000Z</time>
      </trkpt>
      <trkpt lat="44.50794" lon="6.24059">
        <ele>1271</ele>
        <time>2023-04-21T11:15:05.000Z</time>
      </trkpt>
      <trkpt lat="44.50795" lon="6.24057">
        <ele>1273</ele>
        <time>2023-04-21T11:15:06.000Z</time>
      </trkpt>
      <trkpt lat="44.50797" lon="6.24055">
        <ele>1271</ele>
        <time>2023-04-21T11:15:07.000Z</time>
      </trkpt>
      <trkpt lat="44.50798" lon="6.24053">
        <ele>1273</ele>
        <time>2023-04-21T11:15:08.000Z</time>
      </trkpt>
      <trkpt lat="44.508" lon="6.24051">
        <ele>1273</ele>
        <time>2023-04-21T11:15:09.000Z</time>
      </trkpt>
      <trkpt lat="44.50801" lon="6.24048">
        <ele>1275</ele>
        <time>2023-04-21T11:15:10.000Z</time>
      </trkpt>
      <trkpt lat="44.50801" lon="6.24046">
        <ele>1275</ele>
        <time>2023-04-21T11:15:11.000Z</time>
      </trkpt>
      <trkpt lat="44.50801" lon="6.24044">
        <ele>1275</ele>
        <time>2023-04-21T11:15:12.000Z</time>
      </trkpt>
      <trkpt lat="44.50801" lon="6.24042">
        <ele>1273</ele>
        <time>2023-04-21T11:15:13.000Z</time>
      </trkpt>
      <trkpt lat="44.50801" lon="6.2404">
        <ele>1272</ele>
        <time>2023-04-21T11:15:14.000Z</time>
      </trkpt>
      <trkpt lat="44.508" lon="6.24038">
        <ele>1272</ele>
        <time>2023-04-21T11:15:15.000Z</time>
      </trkpt>
      <trkpt lat="44.50799" lon="6.24036">
        <ele>1272</ele>
        <time>2023-04-21T11:15:16.000Z</time>
      </trkpt>
      <trkpt lat="44.50798" lon="6.24034">
        <ele>1272</ele>
        <time>2023-04-21T11:15:17.000Z</time>
      </trkpt>
      <trkpt lat="44.50797" lon="6.24032">
        <ele>1272</ele>
        <time>2023-04-21T11:15:18.000Z</time>
      </trkpt>
      <trkpt lat="44.50797" lon="6.24029">
        <ele>1272</ele>
        <time>2023-04-21T11:15:19.000Z</time>
      </trkpt>
      <trkpt lat="44.50796" lon="6.24027">
        <ele>1272</ele>
        <time>2023-04-21T11:15:20.000Z</time>
      </trkpt>
      <trkpt lat="44.50795" lon="6.24025">
        <ele>1272</ele>
        <time>2023-04-21T11:15:21.000Z</time>
      </trkpt>
      <trkpt lat="44.50795" lon="6.24022">
        <ele>1273</ele>
        <time>2023-04-21T11:15:22.000Z</time>
      </trkpt>
      <trkpt lat="44.50794" lon="6.2402">
        <ele>1274</ele>
        <time>2023-04-21T11:15:23.000Z</time>
      </trkpt>
      <trkpt lat="44.50794" lon="6.24018">
        <ele>1274</ele>
        <time>2023-04-21T11:15:24.000Z</time>
      </trkpt>
      <trkpt lat="44.50793" lon="6.24015">
        <ele>1274</ele>
        <time>2023-04-21T11:15:25.000Z</time>
      </trkpt>
      <trkpt lat="44.50793" lon="6.24013">
        <ele>1275</ele>
        <time>2023-04-21T11:15:26.000Z</time>
      </trkpt>
      <trkpt lat="44.50793" lon="6.24011">
        <ele>1275</ele>
        <time>2023-04-21T11:15:27.000Z</time>
      </trkpt>
      <trkpt lat="44.50793" lon="6.24007">
        <ele>1274</ele>
        <time>2023-04-21T11:15:28.000Z</time>
      </trkpt>
      <trkpt lat="44.50794" lon="6.24004">
        <ele>1273</ele>
        <time>2023-04-21T11:15:29.000Z</time>
      </trkpt>
      <trkpt lat="44.50795" lon="6.24001">
        <ele>1271</ele>
        <time>2023-04-21T11:15:30.000Z</time>
      </trkpt>
      <trkpt lat="44.50797" lon="6.23999">
        <ele>1271</ele>
        <time>2023-04-21T11:15:31.000Z</time>
      </trkpt>
      <trkpt lat="44.50798" lon="6.23997">
        <ele>1270</ele>
        <time>2023-04-21T11:15:32.000Z</time>
      </trkpt>
      <trkpt lat="44.508" lon="6.23995">
        <ele>1270</ele>
        <time>2023-04-21T11:15:33.000Z</time>
      </trkpt>
      <trkpt lat="44.50801" lon="6.23993">
        <ele>1270</ele>
        <time>2023-04-21T11:15:34.000Z</time>
      </trkpt>
      <trkpt lat="44.50803" lon="6.23991">
        <ele>1269</ele>
        <time>2023-04-21T11:15:35.000Z</time>
      </trkpt>
      <trkpt lat="44.50805" lon="6.2399">
        <ele>1268</ele>
        <time>2023-04-21T11:15:36.000Z</time>
      </trkpt>
      <trkpt lat="44.50807" lon="6.2399">
        <ele>1266</ele>
        <time>2023-04-21T11:15:37.000Z</time>
      </trkpt>
      <trkpt lat="44.50809" lon="6.23989">
        <ele>1266</ele>
        <time>2023-04-21T11:15:38.000Z</time>
      </trkpt>
      <trkpt lat="44.5081" lon="6.23989">
        <ele>1266</ele>
        <time>2023-04-21T11:15:39.000Z</time>
      </trkpt>
      <trkpt lat="44.50813" lon="6.23989">
        <ele>1266</ele>
        <time>2023-04-21T11:15:40.000Z</time>
      </trkpt>
      <trkpt lat="44.50815" lon="6.23989">
        <ele>1267</ele>
        <time>2023-04-21T11:15:41.000Z</time>
      </trkpt>
      <trkpt lat="44.50817" lon="6.23989">
        <ele>1268</ele>
        <time>2023-04-21T11:15:42.000Z</time>
      </trkpt>
      <trkpt lat="44.50819" lon="6.23989">
        <ele>1268</ele>
        <time>2023-04-21T11:15:43.000Z</time>
      </trkpt>
      <trkpt lat="44.50822" lon="6.23989">
        <ele>1269</ele>
        <time>2023-04-21T11:15:44.000Z</time>
      </trkpt>
      <trkpt lat="44.50824" lon="6.23989">
        <ele>1270</ele>
        <time>2023-04-21T11:15:45.000Z</time>
      </trkpt>
      <trkpt lat="44.50827" lon="6.23987">
        <ele>1270</ele>
        <time>2023-04-21T11:15:46.000Z</time>
      </trkpt>
      <trkpt lat="44.50829" lon="6.23987">
        <ele>1270</ele>
        <time>2023-04-21T11:15:47.000Z</time>
      </trkpt>
      <trkpt lat="44.50831" lon="6.23985">
        <ele>1270</ele>
        <time>2023-04-21T11:15:48.000Z</time>
      </trkpt>
      <trkpt lat="44.50833" lon="6.23983">
        <ele>1269</ele>
        <time>2023-04-21T11:15:49.000Z</time>
      </trkpt>
      <trkpt lat="44.50834" lon="6.2398">
        <ele>1269</ele>
        <time>2023-04-21T11:15:50.000Z</time>
      </trkpt>
      <trkpt lat="44.50835" lon="6.23978">
        <ele>1269</ele>
        <time>2023-04-21T11:15:51.000Z</time>
      </trkpt>
      <trkpt lat="44.50835" lon="6.23974">
        <ele>1271</ele>
        <time>2023-04-21T11:15:52.000Z</time>
      </trkpt>
      <trkpt lat="44.50836" lon="6.23971">
        <ele>1272</ele>
        <time>2023-04-21T11:15:53.000Z</time>
      </trkpt>
      <trkpt lat="44.50837" lon="6.23968">
        <ele>1273</ele>
        <time>2023-04-21T11:15:54.000Z</time>
      </trkpt>
      <trkpt lat="44.50837" lon="6.23965">
        <ele>1272</ele>
        <time>2023-04-21T11:15:55.000Z</time>
      </trkpt>
      <trkpt lat="44.50838" lon="6.23962">
        <ele>1272</ele>
        <time>2023-04-21T11:15:56.000Z</time>
      </trkpt>
      <trkpt lat="44.50837" lon="6.2396">
        <ele>1273</ele>
        <time>2023-04-21T11:15:57.000Z</time>
      </trkpt>
      <trkpt lat="44.50837" lon="6.23958">
        <ele>1273</ele>
        <time>2023-04-21T11:15:58.000Z</time>
      </trkpt>
      <trkpt lat="44.50837" lon="6.23956">
        <ele>1273</ele>
        <time>2023-04-21T11:15:59.000Z</time>
      </trkpt>
      <trkpt lat="44.50837" lon="6.23954">
        <ele>1273</ele>
        <time>2023-04-21T11:16:00.000Z</time>
      </trkpt>
      <trkpt lat="44.50837" lon="6.23952">
        <ele>1274</ele>
        <time>2023-04-21T11:16:01.000Z</time>
      </trkpt>
      <trkpt lat="44.50837" lon="6.23949">
        <ele>1274</ele>
        <time>2023-04-21T11:16:02.000Z</time>
      </trkpt>
      <trkpt lat="44.50837" lon="6.23946">
        <ele>1275</ele>
        <time>2023-04-21T11:16:03.000Z</time>
      </trkpt>
      <trkpt lat="44.50837" lon="6.23944">
        <ele>1275</ele>
        <time>2023-04-21T11:16:04.000Z</time>
      </trkpt>
      <trkpt lat="44.50838" lon="6.23941">
        <ele>1275</ele>
        <time>2023-04-21T11:16:05.000Z</time>
      </trkpt>
      <trkpt lat="44.50838" lon="6.23939">
        <ele>1276</ele>
        <time>2023-04-21T11:16:06.000Z</time>
      </trkpt>
      <trkpt lat="44.50838" lon="6.23936">
        <ele>1276</ele>
        <time>2023-04-21T11:16:07.000Z</time>
      </trkpt>
      <trkpt lat="44.50839" lon="6.23934">
        <ele>1275</ele>
        <time>2023-04-21T11:16:08.000Z</time>
      </trkpt>
      <trkpt lat="44.5084" lon="6.23932">
        <ele>1275</ele>
        <time>2023-04-21T11:16:09.000Z</time>
      </trkpt>
      <trkpt lat="44.50841" lon="6.2393">
        <ele>1274</ele>
        <time>2023-04-21T11:16:10.000Z</time>
      </trkpt>
      <trkpt lat="44.50842" lon="6.23928">
        <ele>1274</ele>
        <time>2023-04-21T11:16:11.000Z</time>
      </trkpt>
      <trkpt lat="44.50843" lon="6.23927">
        <ele>1274</ele>
        <time>2023-04-21T11:16:12.000Z</time>
      </trkpt>
      <trkpt lat="44.50845" lon="6.23925">
        <ele>1275</ele>
        <time>2023-04-21T11:16:13.000Z</time>
      </trkpt>
      <trkpt lat="44.50847" lon="6.23924">
        <ele>1275</ele>
        <time>2023-04-21T11:16:14.000Z</time>
      </trkpt>
      <trkpt lat="44.50849" lon="6.23923">
        <ele>1275</ele>
        <time>2023-04-21T11:16:15.000Z</time>
      </trkpt>
      <trkpt lat="44.50851" lon="6.23922">
        <ele>1273</ele>
        <time>2023-04-21T11:16:16.000Z</time>
      </trkpt>
      <trkpt lat="44.50854" lon="6.23921">
        <ele>1272</ele>
        <time>2023-04-21T11:16:17.000Z</time>
      </trkpt>
      <trkpt lat="44.50856" lon="6.2392">
        <ele>1270</ele>
        <time>2023-04-21T11:16:18.000Z</time>
      </trkpt>
      <trkpt lat="44.50858" lon="6.23918">
        <ele>1270</ele>
        <time>2023-04-21T11:16:19.000Z</time>
      </trkpt>
      <trkpt lat="44.5086" lon="6.23917">
        <ele>1270</ele>
        <time>2023-04-21T11:16:20.000Z</time>
      </trkpt>
      <trkpt lat="44.50863" lon="6.23916">
        <ele>1269</ele>
        <time>2023-04-21T11:16:21.000Z</time>
      </trkpt>
      <trkpt lat="44.50864" lon="6.23914">
        <ele>1269</ele>
        <time>2023-04-21T11:16:22.000Z</time>
      </trkpt>
      <trkpt lat="44.50867" lon="6.23913">
        <ele>1269</ele>
        <time>2023-04-21T11:16:23.000Z</time>
      </trkpt>
      <trkpt lat="44.50868" lon="6.23912">
        <ele>1269</ele>
        <time>2023-04-21T11:16:24.000Z</time>
      </trkpt>
      <trkpt lat="44.5087" lon="6.2391">
        <ele>1269</ele>
        <time>2023-04-21T11:16:25.000Z</time>
      </trkpt>
      <trkpt lat="44.50872" lon="6.23909">
        <ele>1269</ele>
        <time>2023-04-21T11:16:26.000Z</time>
      </trkpt>
      <trkpt lat="44.50874" lon="6.23908">
        <ele>1269</ele>
        <time>2023-04-21T11:16:27.000Z</time>
      </trkpt>
      <trkpt lat="44.50876" lon="6.23907">
        <ele>1269</ele>
        <time>2023-04-21T11:16:28.000Z</time>
      </trkpt>
      <trkpt lat="44.50878" lon="6.23905">
        <ele>1269</ele>
        <time>2023-04-21T11:16:29.000Z</time>
      </trkpt>
      <trkpt lat="44.5088" lon="6.23903">
        <ele>1270</ele>
        <time>2023-04-21T11:16:30.000Z</time>
      </trkpt>
      <trkpt lat="44.50882" lon="6.23902">
        <ele>1270</ele>
        <time>2023-04-21T11:16:31.000Z</time>
      </trkpt>
      <trkpt lat="44.50885" lon="6.23901">
        <ele>1271</ele>
        <time>2023-04-21T11:16:32.000Z</time>
      </trkpt>
      <trkpt lat="44.50887" lon="6.239">
        <ele>1272</ele>
        <time>2023-04-21T11:16:33.000Z</time>
      </trkpt>
      <trkpt lat="44.5089" lon="6.23899">
        <ele>1272</ele>
        <time>2023-04-21T11:16:34.000Z</time>
      </trkpt>
      <trkpt lat="44.50892" lon="6.23898">
        <ele>1272</ele>
        <time>2023-04-21T11:16:35.000Z</time>
      </trkpt>
      <trkpt lat="44.50894" lon="6.23895">
        <ele>1271</ele>
        <time>2023-04-21T11:16:36.000Z</time>
      </trkpt>
      <trkpt lat="44.50896" lon="6.23892">
        <ele>1272</ele>
        <time>2023-04-21T11:16:37.000Z</time>
      </trkpt>
      <trkpt lat="44.50895" lon="6.23888">
        <ele>1276</ele>
        <time>2023-04-21T11:16:38.000Z</time>
      </trkpt>
      <trkpt lat="44.50896" lon="6.23884">
        <ele>1276</ele>
        <time>2023-04-21T11:16:39.000Z</time>
      </trkpt>
      <trkpt lat="44.50896" lon="6.23881">
        <ele>1277</ele>
        <time>2023-04-21T11:16:40.000Z</time>
      </trkpt>
      <trkpt lat="44.50896" lon="6.23879">
        <ele>1278</ele>
        <time>2023-04-21T11:16:41.000Z</time>
      </trkpt>
      <trkpt lat="44.50895" lon="6.23876">
        <ele>1277</ele>
        <time>2023-04-21T11:16:42.000Z</time>
      </trkpt>
      <trkpt lat="44.50894" lon="6.23874">
        <ele>1277</ele>
        <time>2023-04-21T11:16:43.000Z</time>
      </trkpt>
      <trkpt lat="44.50893" lon="6.23871">
        <ele>1278</ele>
        <time>2023-04-21T11:16:44.000Z</time>
      </trkpt>
      <trkpt lat="44.50892" lon="6.23869">
        <ele>1279</ele>
        <time>2023-04-21T11:16:45.000Z</time>
      </trkpt>
      <trkpt lat="44.50892" lon="6.23866">
        <ele>1279</ele>
        <time>2023-04-21T11:16:46.000Z</time>
      </trkpt>
      <trkpt lat="44.5089" lon="6.23863">
        <ele>1279</ele>
        <time>2023-04-21T11:16:47.000Z</time>
      </trkpt>
      <trkpt lat="44.50889" lon="6.2386">
        <ele>1279</ele>
        <time>2023-04-21T11:16:48.000Z</time>
      </trkpt>
      <trkpt lat="44.50888" lon="6.23858">
        <ele>1280</ele>
        <time>2023-04-21T11:16:49.000Z</time>
      </trkpt>
      <trkpt lat="44.50888" lon="6.23856">
        <ele>1282</ele>
        <time>2023-04-21T11:16:50.000Z</time>
      </trkpt>
      <trkpt lat="44.50887" lon="6.23853">
        <ele>1282</ele>
        <time>2023-04-21T11:16:51.000Z</time>
      </trkpt>
      <trkpt lat="44.50887" lon="6.23851">
        <ele>1283</ele>
        <time>2023-04-21T11:16:52.000Z</time>
      </trkpt>
      <trkpt lat="44.50887" lon="6.23848">
        <ele>1283</ele>
        <time>2023-04-21T11:16:53.000Z</time>
      </trkpt>
      <trkpt lat="44.50887" lon="6.23845">
        <ele>1283</ele>
        <time>2023-04-21T11:16:54.000Z</time>
      </trkpt>
      <trkpt lat="44.50887" lon="6.23842">
        <ele>1283</ele>
        <time>2023-04-21T11:16:55.000Z</time>
      </trkpt>
      <trkpt lat="44.50887" lon="6.23839">
        <ele>1283</ele>
        <time>2023-04-21T11:16:56.000Z</time>
      </trkpt>
      <trkpt lat="44.50888" lon="6.23835">
        <ele>1283</ele>
        <time>2023-04-21T11:16:57.000Z</time>
      </trkpt>
      <trkpt lat="44.50888" lon="6.23831">
        <ele>1283</ele>
        <time>2023-04-21T11:16:58.000Z</time>
      </trkpt>
      <trkpt lat="44.50889" lon="6.23829">
        <ele>1284</ele>
        <time>2023-04-21T11:16:59.000Z</time>
      </trkpt>
      <trkpt lat="44.5089" lon="6.23826">
        <ele>1283</ele>
        <time>2023-04-21T11:17:00.000Z</time>
      </trkpt>
      <trkpt lat="44.5089" lon="6.23823">
        <ele>1282</ele>
        <time>2023-04-21T11:17:01.000Z</time>
      </trkpt>
      <trkpt lat="44.50891" lon="6.2382">
        <ele>1282</ele>
        <time>2023-04-21T11:17:02.000Z</time>
      </trkpt>
      <trkpt lat="44.50892" lon="6.23818">
        <ele>1282</ele>
        <time>2023-04-21T11:17:03.000Z</time>
      </trkpt>
      <trkpt lat="44.50892" lon="6.23815">
        <ele>1282</ele>
        <time>2023-04-21T11:17:04.000Z</time>
      </trkpt>
      <trkpt lat="44.50893" lon="6.23813">
        <ele>1281</ele>
        <time>2023-04-21T11:17:05.000Z</time>
      </trkpt>
      <trkpt lat="44.50894" lon="6.2381">
        <ele>1280</ele>
        <time>2023-04-21T11:17:06.000Z</time>
      </trkpt>
      <trkpt lat="44.50895" lon="6.23808">
        <ele>1280</ele>
        <time>2023-04-21T11:17:07.000Z</time>
      </trkpt>
      <trkpt lat="44.50896" lon="6.23806">
        <ele>1279</ele>
        <time>2023-04-21T11:17:08.000Z</time>
      </trkpt>
      <trkpt lat="44.50897" lon="6.23803">
        <ele>1279</ele>
        <time>2023-04-21T11:17:09.000Z</time>
      </trkpt>
      <trkpt lat="44.50898" lon="6.23801">
        <ele>1279</ele>
        <time>2023-04-21T11:17:10.000Z</time>
      </trkpt>
      <trkpt lat="44.50899" lon="6.23799">
        <ele>1278</ele>
        <time>2023-04-21T11:17:11.000Z</time>
      </trkpt>
      <trkpt lat="44.509" lon="6.23797">
        <ele>1278</ele>
        <time>2023-04-21T11:17:12.000Z</time>
      </trkpt>
      <trkpt lat="44.50901" lon="6.23795">
        <ele>1277</ele>
        <time>2023-04-21T11:17:13.000Z</time>
      </trkpt>
      <trkpt lat="44.50902" lon="6.23793">
        <ele>1276</ele>
        <time>2023-04-21T11:17:14.000Z</time>
      </trkpt>
      <trkpt lat="44.50903" lon="6.2379">
        <ele>1276</ele>
        <time>2023-04-21T11:17:15.000Z</time>
      </trkpt>
      <trkpt lat="44.50904" lon="6.23788">
        <ele>1276</ele>
        <time>2023-04-21T11:17:16.000Z</time>
      </trkpt>
      <trkpt lat="44.50905" lon="6.23785">
        <ele>1276</ele>
        <time>2023-04-21T11:17:17.000Z</time>
      </trkpt>
      <trkpt lat="44.50906" lon="6.23783">
        <ele>1276</ele>
        <time>2023-04-21T11:17:18.000Z</time>
      </trkpt>
      <trkpt lat="44.50907" lon="6.23781">
        <ele>1275</ele>
        <time>2023-04-21T11:17:19.000Z</time>
      </trkpt>
      <trkpt lat="44.50908" lon="6.23778">
        <ele>1276</ele>
        <time>2023-04-21T11:17:20.000Z</time>
      </trkpt>
      <trkpt lat="44.50909" lon="6.23775">
        <ele>1275</ele>
        <time>2023-04-21T11:17:21.000Z</time>
      </trkpt>
      <trkpt lat="44.5091" lon="6.23773">
        <ele>1275</ele>
        <time>2023-04-21T11:17:22.000Z</time>
      </trkpt>
      <trkpt lat="44.50911" lon="6.2377">
        <ele>1275</ele>
        <time>2023-04-21T11:17:23.000Z</time>
      </trkpt>
      <trkpt lat="44.50912" lon="6.23768">
        <ele>1275</ele>
        <time>2023-04-21T11:17:24.000Z</time>
      </trkpt>
      <trkpt lat="44.50913" lon="6.23766">
        <ele>1275</ele>
        <time>2023-04-21T11:17:25.000Z</time>
      </trkpt>
      <trkpt lat="44.50914" lon="6.23764">
        <ele>1276</ele>
        <time>2023-04-21T11:17:26.000Z</time>
      </trkpt>
      <trkpt lat="44.50915" lon="6.23762">
        <ele>1276</ele>
        <time>2023-04-21T11:17:27.000Z</time>
      </trkpt>
      <trkpt lat="44.50916" lon="6.23759">
        <ele>1276</ele>
        <time>2023-04-21T11:17:28.000Z</time>
      </trkpt>
      <trkpt lat="44.50916" lon="6.23756">
        <ele>1277</ele>
        <time>2023-04-21T11:17:29.000Z</time>
      </trkpt>
      <trkpt lat="44.50917" lon="6.23754">
        <ele>1278</ele>
        <time>2023-04-21T11:17:30.000Z</time>
      </trkpt>
      <trkpt lat="44.50918" lon="6.23751">
        <ele>1278</ele>
        <time>2023-04-21T11:17:31.000Z</time>
      </trkpt>
      <trkpt lat="44.50918" lon="6.23749">
        <ele>1278</ele>
        <time>2023-04-21T11:17:32.000Z</time>
      </trkpt>
      <trkpt lat="44.50919" lon="6.23746">
        <ele>1278</ele>
        <time>2023-04-21T11:17:33.000Z</time>
      </trkpt>
      <trkpt lat="44.5092" lon="6.23744">
        <ele>1278</ele>
        <time>2023-04-21T11:17:34.000Z</time>
      </trkpt>
      <trkpt lat="44.50921" lon="6.23742">
        <ele>1278</ele>
        <time>2023-04-21T11:17:35.000Z</time>
      </trkpt>
      <trkpt lat="44.50921" lon="6.23739">
        <ele>1277</ele>
        <time>2023-04-21T11:17:36.000Z</time>
      </trkpt>
      <trkpt lat="44.50922" lon="6.23737">
        <ele>1278</ele>
        <time>2023-04-21T11:17:37.000Z</time>
      </trkpt>
      <trkpt lat="44.50923" lon="6.23736">
        <ele>1278</ele>
        <time>2023-04-21T11:17:38.000Z</time>
      </trkpt>
      <trkpt lat="44.50924" lon="6.23734">
        <ele>1278</ele>
        <time>2023-04-21T11:17:39.000Z</time>
      </trkpt>
      <trkpt lat="44.50925" lon="6.23732">
        <ele>1279</ele>
        <time>2023-04-21T11:17:40.000Z</time>
      </trkpt>
      <trkpt lat="44.50927" lon="6.2373">
        <ele>1279</ele>
        <time>2023-04-21T11:17:41.000Z</time>
      </trkpt>
      <trkpt lat="44.50928" lon="6.23727">
        <ele>1279</ele>
        <time>2023-04-21T11:17:42.000Z</time>
      </trkpt>
      <trkpt lat="44.5093" lon="6.23725">
        <ele>1279</ele>
        <time>2023-04-21T11:17:43.000Z</time>
      </trkpt>
      <trkpt lat="44.50932" lon="6.23723">
        <ele>1279</ele>
        <time>2023-04-21T11:17:44.000Z</time>
      </trkpt>
      <trkpt lat="44.50933" lon="6.23721">
        <ele>1279</ele>
        <time>2023-04-21T11:17:45.000Z</time>
      </trkpt>
      <trkpt lat="44.50935" lon="6.23718">
        <ele>1279</ele>
        <time>2023-04-21T11:17:46.000Z</time>
      </trkpt>
      <trkpt lat="44.50937" lon="6.23716">
        <ele>1280</ele>
        <time>2023-04-21T11:17:47.000Z</time>
      </trkpt>
      <trkpt lat="44.50938" lon="6.23715">
        <ele>1280</ele>
        <time>2023-04-21T11:17:48.000Z</time>
      </trkpt>
      <trkpt lat="44.5094" lon="6.23713">
        <ele>1281</ele>
        <time>2023-04-21T11:17:49.000Z</time>
      </trkpt>
      <trkpt lat="44.50942" lon="6.23712">
        <ele>1281</ele>
        <time>2023-04-21T11:17:50.000Z</time>
      </trkpt>
      <trkpt lat="44.50944" lon="6.2371">
        <ele>1281</ele>
        <time>2023-04-21T11:17:51.000Z</time>
      </trkpt>
      <trkpt lat="44.50947" lon="6.23709">
        <ele>1281</ele>
        <time>2023-04-21T11:17:52.000Z</time>
      </trkpt>
      <trkpt lat="44.50949" lon="6.23708">
        <ele>1282</ele>
        <time>2023-04-21T11:17:53.000Z</time>
      </trkpt>
      <trkpt lat="44.50951" lon="6.23707">
        <ele>1281</ele>
        <time>2023-04-21T11:17:54.000Z</time>
      </trkpt>
      <trkpt lat="44.50953" lon="6.23706">
        <ele>1282</ele>
        <time>2023-04-21T11:17:55.000Z</time>
      </trkpt>
      <trkpt lat="44.50955" lon="6.23704">
        <ele>1282</ele>
        <time>2023-04-21T11:17:56.000Z</time>
      </trkpt>
      <trkpt lat="44.50957" lon="6.23703">
        <ele>1283</ele>
        <time>2023-04-21T11:17:57.000Z</time>
      </trkpt>
      <trkpt lat="44.50956" lon="6.23698">
        <ele>1286</ele>
        <time>2023-04-21T11:17:58.000Z</time>
      </trkpt>
      <trkpt lat="44.50956" lon="6.23695">
        <ele>1286</ele>
        <time>2023-04-21T11:17:59.000Z</time>
      </trkpt>
      <trkpt lat="44.50957" lon="6.23691">
        <ele>1287</ele>
        <time>2023-04-21T11:18:00.000Z</time>
      </trkpt>
      <trkpt lat="44.50957" lon="6.23688">
        <ele>1289</ele>
        <time>2023-04-21T11:18:01.000Z</time>
      </trkpt>
      <trkpt lat="44.50957" lon="6.23685">
        <ele>1290</ele>
        <time>2023-04-21T11:18:02.000Z</time>
      </trkpt>
      <trkpt lat="44.50956" lon="6.23682">
        <ele>1290</ele>
        <time>2023-04-21T11:18:03.000Z</time>
      </trkpt>
      <trkpt lat="44.50955" lon="6.23679">
        <ele>1290</ele>
        <time>2023-04-21T11:18:04.000Z</time>
      </trkpt>
      <trkpt lat="44.50955" lon="6.23677">
        <ele>1291</ele>
        <time>2023-04-21T11:18:05.000Z</time>
      </trkpt>
      <trkpt lat="44.50954" lon="6.23675">
        <ele>1293</ele>
        <time>2023-04-21T11:18:06.000Z</time>
      </trkpt>
      <trkpt lat="44.50954" lon="6.23673">
        <ele>1294</ele>
        <time>2023-04-21T11:18:07.000Z</time>
      </trkpt>
      <trkpt lat="44.50953" lon="6.23671">
        <ele>1296</ele>
        <time>2023-04-21T11:18:08.000Z</time>
      </trkpt>
      <trkpt lat="44.50954" lon="6.23668">
        <ele>1298</ele>
        <time>2023-04-21T11:18:09.000Z</time>
      </trkpt>
      <trkpt lat="44.50954" lon="6.23665">
        <ele>1300</ele>
        <time>2023-04-21T11:18:10.000Z</time>
      </trkpt>
      <trkpt lat="44.50954" lon="6.23662">
        <ele>1302</ele>
        <time>2023-04-21T11:18:11.000Z</time>
      </trkpt>
      <trkpt lat="44.50955" lon="6.23659">
        <ele>1302</ele>
        <time>2023-04-21T11:18:12.000Z</time>
      </trkpt>
      <trkpt lat="44.50956" lon="6.23655">
        <ele>1302</ele>
        <time>2023-04-21T11:18:13.000Z</time>
      </trkpt>
      <trkpt lat="44.50957" lon="6.23652">
        <ele>1303</ele>
        <time>2023-04-21T11:18:14.000Z</time>
      </trkpt>
      <trkpt lat="44.50958" lon="6.2365">
        <ele>1303</ele>
        <time>2023-04-21T11:18:15.000Z</time>
      </trkpt>
      <trkpt lat="44.5096" lon="6.23648">
        <ele>1304</ele>
        <time>2023-04-21T11:18:16.000Z</time>
      </trkpt>
      <trkpt lat="44.50961" lon="6.23647">
        <ele>1304</ele>
        <time>2023-04-21T11:18:17.000Z</time>
      </trkpt>
      <trkpt lat="44.50963" lon="6.23647">
        <ele>1304</ele>
        <time>2023-04-21T11:18:18.000Z</time>
      </trkpt>
      <trkpt lat="44.50965" lon="6.23647">
        <ele>1305</ele>
        <time>2023-04-21T11:18:19.000Z</time>
      </trkpt>
      <trkpt lat="44.50967" lon="6.23646">
        <ele>1305</ele>
        <time>2023-04-21T11:18:20.000Z</time>
      </trkpt>
      <trkpt lat="44.50969" lon="6.23646">
        <ele>1306</ele>
        <time>2023-04-21T11:18:21.000Z</time>
      </trkpt>
      <trkpt lat="44.50972" lon="6.23646">
        <ele>1306</ele>
        <time>2023-04-21T11:18:22.000Z</time>
      </trkpt>
      <trkpt lat="44.50975" lon="6.23646">
        <ele>1307</ele>
        <time>2023-04-21T11:18:23.000Z</time>
      </trkpt>
      <trkpt lat="44.50978" lon="6.23646">
        <ele>1308</ele>
        <time>2023-04-21T11:18:24.000Z</time>
      </trkpt>
      <trkpt lat="44.5098" lon="6.23646">
        <ele>1309</ele>
        <time>2023-04-21T11:18:25.000Z</time>
      </trkpt>
      <trkpt lat="44.50982" lon="6.23645">
        <ele>1309</ele>
        <time>2023-04-21T11:18:26.000Z</time>
      </trkpt>
      <trkpt lat="44.50984" lon="6.23643">
        <ele>1309</ele>
        <time>2023-04-21T11:18:27.000Z</time>
      </trkpt>
      <trkpt lat="44.50986" lon="6.2364">
        <ele>1306</ele>
        <time>2023-04-21T11:18:28.000Z</time>
      </trkpt>
      <trkpt lat="44.50987" lon="6.23637">
        <ele>1306</ele>
        <time>2023-04-21T11:18:29.000Z</time>
      </trkpt>
      <trkpt lat="44.50988" lon="6.23634">
        <ele>1307</ele>
        <time>2023-04-21T11:18:30.000Z</time>
      </trkpt>
      <trkpt lat="44.50988" lon="6.2363">
        <ele>1312</ele>
        <time>2023-04-21T11:18:31.000Z</time>
      </trkpt>
      <trkpt lat="44.50988" lon="6.23627">
        <ele>1313</ele>
        <time>2023-04-21T11:18:32.000Z</time>
      </trkpt>
      <trkpt lat="44.50988" lon="6.23624">
        <ele>1313</ele>
        <time>2023-04-21T11:18:33.000Z</time>
      </trkpt>
      <trkpt lat="44.50987" lon="6.23622">
        <ele>1313</ele>
        <time>2023-04-21T11:18:34.000Z</time>
      </trkpt>
      <trkpt lat="44.50987" lon="6.23619">
        <ele>1313</ele>
        <time>2023-04-21T11:18:35.000Z</time>
      </trkpt>
      <trkpt lat="44.50988" lon="6.23616">
        <ele>1312</ele>
        <time>2023-04-21T11:18:36.000Z</time>
      </trkpt>
      <trkpt lat="44.50989" lon="6.23613">
        <ele>1312</ele>
        <time>2023-04-21T11:18:37.000Z</time>
      </trkpt>
      <trkpt lat="44.5099" lon="6.23611">
        <ele>1312</ele>
        <time>2023-04-21T11:18:38.000Z</time>
      </trkpt>
      <trkpt lat="44.50991" lon="6.23609">
        <ele>1313</ele>
        <time>2023-04-21T11:18:39.000Z</time>
      </trkpt>
      <trkpt lat="44.50991" lon="6.23607">
        <ele>1312</ele>
        <time>2023-04-21T11:18:40.000Z</time>
      </trkpt>
      <trkpt lat="44.50992" lon="6.23604">
        <ele>1312</ele>
        <time>2023-04-21T11:18:41.000Z</time>
      </trkpt>
      <trkpt lat="44.50993" lon="6.236">
        <ele>1311</ele>
        <time>2023-04-21T11:18:42.000Z</time>
      </trkpt>
      <trkpt lat="44.50993" lon="6.23597">
        <ele>1311</ele>
        <time>2023-04-21T11:18:43.000Z</time>
      </trkpt>
      <trkpt lat="44.50994" lon="6.23594">
        <ele>1312</ele>
        <time>2023-04-21T11:18:44.000Z</time>
      </trkpt>
      <trkpt lat="44.50995" lon="6.23591">
        <ele>1312</ele>
        <time>2023-04-21T11:18:45.000Z</time>
      </trkpt>
      <trkpt lat="44.50996" lon="6.23588">
        <ele>1311</ele>
        <time>2023-04-21T11:18:46.000Z</time>
      </trkpt>
      <trkpt lat="44.50996" lon="6.23585">
        <ele>1311</ele>
        <time>2023-04-21T11:18:47.000Z</time>
      </trkpt>
      <trkpt lat="44.50997" lon="6.23583">
        <ele>1312</ele>
        <time>2023-04-21T11:18:48.000Z</time>
      </trkpt>
      <trkpt lat="44.50997" lon="6.2358">
        <ele>1312</ele>
        <time>2023-04-21T11:18:49.000Z</time>
      </trkpt>
      <trkpt lat="44.50997" lon="6.23578">
        <ele>1313</ele>
        <time>2023-04-21T11:18:50.000Z</time>
      </trkpt>
      <trkpt lat="44.50997" lon="6.23576">
        <ele>1314</ele>
        <time>2023-04-21T11:18:51.000Z</time>
      </trkpt>
      <trkpt lat="44.50996" lon="6.23574">
        <ele>1315</ele>
        <time>2023-04-21T11:18:52.000Z</time>
      </trkpt>
      <trkpt lat="44.50995" lon="6.23571">
        <ele>1314</ele>
        <time>2023-04-21T11:18:53.000Z</time>
      </trkpt>
      <trkpt lat="44.50994" lon="6.23569">
        <ele>1313</ele>
        <time>2023-04-21T11:18:54.000Z</time>
      </trkpt>
      <trkpt lat="44.50992" lon="6.23566">
        <ele>1313</ele>
        <time>2023-04-21T11:18:55.000Z</time>
      </trkpt>
      <trkpt lat="44.50991" lon="6.23564">
        <ele>1313</ele>
        <time>2023-04-21T11:18:56.000Z</time>
      </trkpt>
      <trkpt lat="44.5099" lon="6.23561">
        <ele>1313</ele>
        <time>2023-04-21T11:18:57.000Z</time>
      </trkpt>
      <trkpt lat="44.50988" lon="6.2356">
        <ele>1314</ele>
        <time>2023-04-21T11:18:58.000Z</time>
      </trkpt>
      <trkpt lat="44.50987" lon="6.23557">
        <ele>1313</ele>
        <time>2023-04-21T11:18:59.000Z</time>
      </trkpt>
      <trkpt lat="44.50985" lon="6.23555">
        <ele>1313</ele>
        <time>2023-04-21T11:19:00.000Z</time>
      </trkpt>
      <trkpt lat="44.50984" lon="6.23553">
        <ele>1314</ele>
        <time>2023-04-21T11:19:01.000Z</time>
      </trkpt>
      <trkpt lat="44.50982" lon="6.23551">
        <ele>1314</ele>
        <time>2023-04-21T11:19:02.000Z</time>
      </trkpt>
      <trkpt lat="44.50981" lon="6.23548">
        <ele>1315</ele>
        <time>2023-04-21T11:19:03.000Z</time>
      </trkpt>
      <trkpt lat="44.5098" lon="6.23545">
        <ele>1315</ele>
        <time>2023-04-21T11:19:04.000Z</time>
      </trkpt>
      <trkpt lat="44.50979" lon="6.23543">
        <ele>1315</ele>
        <time>2023-04-21T11:19:05.000Z</time>
      </trkpt>
      <trkpt lat="44.50979" lon="6.2354">
        <ele>1316</ele>
        <time>2023-04-21T11:19:06.000Z</time>
      </trkpt>
      <trkpt lat="44.50978" lon="6.23537">
        <ele>1316</ele>
        <time>2023-04-21T11:19:07.000Z</time>
      </trkpt>
      <trkpt lat="44.50978" lon="6.23535">
        <ele>1316</ele>
        <time>2023-04-21T11:19:08.000Z</time>
      </trkpt>
      <trkpt lat="44.50977" lon="6.23532">
        <ele>1317</ele>
        <time>2023-04-21T11:19:09.000Z</time>
      </trkpt>
      <trkpt lat="44.50979" lon="6.2353">
        <ele>1318</ele>
        <time>2023-04-21T11:19:10.000Z</time>
      </trkpt>
      <trkpt lat="44.50979" lon="6.23528">
        <ele>1318</ele>
        <time>2023-04-21T11:19:11.000Z</time>
      </trkpt>
      <trkpt lat="44.5098" lon="6.23526">
        <ele>1318</ele>
        <time>2023-04-21T11:19:12.000Z</time>
      </trkpt>
      <trkpt lat="44.50981" lon="6.23524">
        <ele>1317</ele>
        <time>2023-04-21T11:19:13.000Z</time>
      </trkpt>
      <trkpt lat="44.50983" lon="6.23522">
        <ele>1317</ele>
        <time>2023-04-21T11:19:14.000Z</time>
      </trkpt>
      <trkpt lat="44.50985" lon="6.23522">
        <ele>1316</ele>
        <time>2023-04-21T11:19:15.000Z</time>
      </trkpt>
      <trkpt lat="44.50987" lon="6.23522">
        <ele>1315</ele>
        <time>2023-04-21T11:19:16.000Z</time>
      </trkpt>
      <trkpt lat="44.50988" lon="6.23524">
        <ele>1316</ele>
        <time>2023-04-21T11:19:17.000Z</time>
      </trkpt>
      <trkpt lat="44.50989" lon="6.23525">
        <ele>1316</ele>
        <time>2023-04-21T11:19:18.000Z</time>
      </trkpt>
      <trkpt lat="44.50991" lon="6.23527">
        <ele>1316</ele>
        <time>2023-04-21T11:19:19.000Z</time>
      </trkpt>
      <trkpt lat="44.50992" lon="6.23528">
        <ele>1316</ele>
        <time>2023-04-21T11:19:20.000Z</time>
      </trkpt>
      <trkpt lat="44.50992" lon="6.2353">
        <ele>1316</ele>
        <time>2023-04-21T11:19:21.000Z</time>
      </trkpt>
      <trkpt lat="44.50993" lon="6.23532">
        <ele>1316</ele>
        <time>2023-04-21T11:19:22.000Z</time>
      </trkpt>
      <trkpt lat="44.50993" lon="6.23534">
        <ele>1316</ele>
        <time>2023-04-21T11:19:23.000Z</time>
      </trkpt>
      <trkpt lat="44.50994" lon="6.23536">
        <ele>1316</ele>
        <time>2023-04-21T11:19:24.000Z</time>
      </trkpt>
      <trkpt lat="44.50994" lon="6.23538">
        <ele>1316</ele>
        <time>2023-04-21T11:19:25.000Z</time>
      </trkpt>
      <trkpt lat="44.50995" lon="6.2354">
        <ele>1316</ele>
        <time>2023-04-21T11:19:26.000Z</time>
      </trkpt>
      <trkpt lat="44.50996" lon="6.23542">
        <ele>1316</ele>
        <time>2023-04-21T11:19:27.000Z</time>
      </trkpt>
      <trkpt lat="44.50998" lon="6.23543">
        <ele>1317</ele>
        <time>2023-04-21T11:19:28.000Z</time>
      </trkpt>
      <trkpt lat="44.50999" lon="6.23544">
        <ele>1317</ele>
        <time>2023-04-21T11:19:29.000Z</time>
      </trkpt>
      <trkpt lat="44.51" lon="6.23544">
        <ele>1320</ele>
        <time>2023-04-21T11:19:30.000Z</time>
      </trkpt>
      <trkpt lat="44.51002" lon="6.23544">
        <ele>1322</ele>
        <time>2023-04-21T11:19:31.000Z</time>
      </trkpt>
      <trkpt lat="44.51004" lon="6.23543">
        <ele>1321</ele>
        <time>2023-04-21T11:19:32.000Z</time>
      </trkpt>
      <trkpt lat="44.51006" lon="6.23543">
        <ele>1321</ele>
        <time>2023-04-21T11:19:33.000Z</time>
      </trkpt>
      <trkpt lat="44.51007" lon="6.23541">
        <ele>1320</ele>
        <time>2023-04-21T11:19:34.000Z</time>
      </trkpt>
      <trkpt lat="44.51009" lon="6.23539">
        <ele>1319</ele>
        <time>2023-04-21T11:19:35.000Z</time>
      </trkpt>
      <trkpt lat="44.51009" lon="6.23537">
        <ele>1320</ele>
        <time>2023-04-21T11:19:36.000Z</time>
      </trkpt>
      <trkpt lat="44.51009" lon="6.23534">
        <ele>1321</ele>
        <time>2023-04-21T11:19:37.000Z</time>
      </trkpt>
      <trkpt lat="44.51009" lon="6.23532">
        <ele>1321</ele>
        <time>2023-04-21T11:19:38.000Z</time>
      </trkpt>
      <trkpt lat="44.5101" lon="6.23529">
        <ele>1322</ele>
        <time>2023-04-21T11:19:39.000Z</time>
      </trkpt>
      <trkpt lat="44.5101" lon="6.23527">
        <ele>1322</ele>
        <time>2023-04-21T11:19:40.000Z</time>
      </trkpt>
      <trkpt lat="44.5101" lon="6.23524">
        <ele>1322</ele>
        <time>2023-04-21T11:19:41.000Z</time>
      </trkpt>
      <trkpt lat="44.5101" lon="6.23522">
        <ele>1321</ele>
        <time>2023-04-21T11:19:42.000Z</time>
      </trkpt>
      <trkpt lat="44.51011" lon="6.23519">
        <ele>1321</ele>
        <time>2023-04-21T11:19:43.000Z</time>
      </trkpt>
      <trkpt lat="44.51012" lon="6.23517">
        <ele>1321</ele>
        <time>2023-04-21T11:19:44.000Z</time>
      </trkpt>
      <trkpt lat="44.51013" lon="6.23515">
        <ele>1321</ele>
        <time>2023-04-21T11:19:45.000Z</time>
      </trkpt>
      <trkpt lat="44.51013" lon="6.23513">
        <ele>1320</ele>
        <time>2023-04-21T11:19:46.000Z</time>
      </trkpt>
      <trkpt lat="44.51014" lon="6.2351">
        <ele>1320</ele>
        <time>2023-04-21T11:19:47.000Z</time>
      </trkpt>
      <trkpt lat="44.51015" lon="6.23508">
        <ele>1320</ele>
        <time>2023-04-21T11:19:48.000Z</time>
      </trkpt>
      <trkpt lat="44.51016" lon="6.23507">
        <ele>1320</ele>
        <time>2023-04-21T11:19:49.000Z</time>
      </trkpt>
      <trkpt lat="44.51017" lon="6.23505">
        <ele>1320</ele>
        <time>2023-04-21T11:19:50.000Z</time>
      </trkpt>
      <trkpt lat="44.51018" lon="6.23502">
        <ele>1320</ele>
        <time>2023-04-21T11:19:51.000Z</time>
      </trkpt>
      <trkpt lat="44.51019" lon="6.235">
        <ele>1320</ele>
        <time>2023-04-21T11:19:52.000Z</time>
      </trkpt>
      <trkpt lat="44.5102" lon="6.23498">
        <ele>1320</ele>
        <time>2023-04-21T11:19:53.000Z</time>
      </trkpt>
      <trkpt lat="44.51021" lon="6.23495">
        <ele>1320</ele>
        <time>2023-04-21T11:19:54.000Z</time>
      </trkpt>
      <trkpt lat="44.51022" lon="6.23492">
        <ele>1320</ele>
        <time>2023-04-21T11:19:55.000Z</time>
      </trkpt>
      <trkpt lat="44.51022" lon="6.23489">
        <ele>1320</ele>
        <time>2023-04-21T11:19:56.000Z</time>
      </trkpt>
      <trkpt lat="44.51023" lon="6.23486">
        <ele>1320</ele>
        <time>2023-04-21T11:19:57.000Z</time>
      </trkpt>
      <trkpt lat="44.51023" lon="6.23483">
        <ele>1320</ele>
        <time>2023-04-21T11:19:58.000Z</time>
      </trkpt>
      <trkpt lat="44.51023" lon="6.2348">
        <ele>1320</ele>
        <time>2023-04-21T11:19:59.000Z</time>
      </trkpt>
      <trkpt lat="44.51023" lon="6.23478">
        <ele>1320</ele>
        <time>2023-04-21T11:20:00.000Z</time>
      </trkpt>
      <trkpt lat="44.51024" lon="6.23475">
        <ele>1320</ele>
        <time>2023-04-21T11:20:01.000Z</time>
      </trkpt>
      <trkpt lat="44.51024" lon="6.23472">
        <ele>1320</ele>
        <time>2023-04-21T11:20:02.000Z</time>
      </trkpt>
      <trkpt lat="44.51024" lon="6.23469">
        <ele>1321</ele>
        <time>2023-04-21T11:20:03.000Z</time>
      </trkpt>
      <trkpt lat="44.51024" lon="6.23466">
        <ele>1321</ele>
        <time>2023-04-21T11:20:04.000Z</time>
      </trkpt>
      <trkpt lat="44.51023" lon="6.23464">
        <ele>1321</ele>
        <time>2023-04-21T11:20:05.000Z</time>
      </trkpt>
      <trkpt lat="44.51023" lon="6.23461">
        <ele>1321</ele>
        <time>2023-04-21T11:20:06.000Z</time>
      </trkpt>
      <trkpt lat="44.51024" lon="6.23458">
        <ele>1321</ele>
        <time>2023-04-21T11:20:07.000Z</time>
      </trkpt>
      <trkpt lat="44.51024" lon="6.23456">
        <ele>1322</ele>
        <time>2023-04-21T11:20:08.000Z</time>
      </trkpt>
      <trkpt lat="44.51025" lon="6.23454">
        <ele>1322</ele>
        <time>2023-04-21T11:20:09.000Z</time>
      </trkpt>
      <trkpt lat="44.51025" lon="6.23451">
        <ele>1321</ele>
        <time>2023-04-21T11:20:10.000Z</time>
      </trkpt>
      <trkpt lat="44.51026" lon="6.23449">
        <ele>1322</ele>
        <time>2023-04-21T11:20:11.000Z</time>
      </trkpt>
      <trkpt lat="44.51026" lon="6.23446">
        <ele>1321</ele>
        <time>2023-04-21T11:20:12.000Z</time>
      </trkpt>
      <trkpt lat="44.51027" lon="6.23443">
        <ele>1321</ele>
        <time>2023-04-21T11:20:13.000Z</time>
      </trkpt>
      <trkpt lat="44.51028" lon="6.23441">
        <ele>1322</ele>
        <time>2023-04-21T11:20:14.000Z</time>
      </trkpt>
      <trkpt lat="44.51028" lon="6.23438">
        <ele>1322</ele>
        <time>2023-04-21T11:20:15.000Z</time>
      </trkpt>
      <trkpt lat="44.51029" lon="6.23436">
        <ele>1322</ele>
        <time>2023-04-21T11:20:16.000Z</time>
      </trkpt>
      <trkpt lat="44.5103" lon="6.23433">
        <ele>1323</ele>
        <time>2023-04-21T11:20:17.000Z</time>
      </trkpt>
      <trkpt lat="44.5103" lon="6.23431">
        <ele>1322</ele>
        <time>2023-04-21T11:20:18.000Z</time>
      </trkpt>
      <trkpt lat="44.51031" lon="6.23428">
        <ele>1322</ele>
        <time>2023-04-21T11:20:19.000Z</time>
      </trkpt>
      <trkpt lat="44.51031" lon="6.23426">
        <ele>1323</ele>
        <time>2023-04-21T11:20:20.000Z</time>
      </trkpt>
      <trkpt lat="44.51032" lon="6.23424">
        <ele>1322</ele>
        <time>2023-04-21T11:20:21.000Z</time>
      </trkpt>
      <trkpt lat="44.51032" lon="6.23421">
        <ele>1322</ele>
        <time>2023-04-21T11:20:22.000Z</time>
      </trkpt>
      <trkpt lat="44.51032" lon="6.23419">
        <ele>1323</ele>
        <time>2023-04-21T11:20:23.000Z</time>
      </trkpt>
      <trkpt lat="44.51032" lon="6.23416">
        <ele>1323</ele>
        <time>2023-04-21T11:20:24.000Z</time>
      </trkpt>
      <trkpt lat="44.51031" lon="6.23414">
        <ele>1324</ele>
        <time>2023-04-21T11:20:25.000Z</time>
      </trkpt>
      <trkpt lat="44.51031" lon="6.23411">
        <ele>1324</ele>
        <time>2023-04-21T11:20:26.000Z</time>
      </trkpt>
      <trkpt lat="44.51031" lon="6.23408">
        <ele>1325</ele>
        <time>2023-04-21T11:20:27.000Z</time>
      </trkpt>
      <trkpt lat="44.5103" lon="6.23406">
        <ele>1325</ele>
        <time>2023-04-21T11:20:28.000Z</time>
      </trkpt>
      <trkpt lat="44.5103" lon="6.23403">
        <ele>1326</ele>
        <time>2023-04-21T11:20:29.000Z</time>
      </trkpt>
      <trkpt lat="44.5103" lon="6.23401">
        <ele>1326</ele>
        <time>2023-04-21T11:20:30.000Z</time>
      </trkpt>
      <trkpt lat="44.51029" lon="6.23398">
        <ele>1327</ele>
        <time>2023-04-21T11:20:31.000Z</time>
      </trkpt>
      <trkpt lat="44.51029" lon="6.23396">
        <ele>1327</ele>
        <time>2023-04-21T11:20:32.000Z</time>
      </trkpt>
      <trkpt lat="44.51029" lon="6.23393">
        <ele>1328</ele>
        <time>2023-04-21T11:20:33.000Z</time>
      </trkpt>
      <trkpt lat="44.51028" lon="6.23391">
        <ele>1329</ele>
        <time>2023-04-21T11:20:34.000Z</time>
      </trkpt>
      <trkpt lat="44.51028" lon="6.23389">
        <ele>1329</ele>
        <time>2023-04-21T11:20:35.000Z</time>
      </trkpt>
      <trkpt lat="44.51027" lon="6.23386">
        <ele>1329</ele>
        <time>2023-04-21T11:20:36.000Z</time>
      </trkpt>
      <trkpt lat="44.51026" lon="6.23383">
        <ele>1329</ele>
        <time>2023-04-21T11:20:37.000Z</time>
      </trkpt>
      <trkpt lat="44.51025" lon="6.2338">
        <ele>1329</ele>
        <time>2023-04-21T11:20:38.000Z</time>
      </trkpt>
      <trkpt lat="44.51024" lon="6.23378">
        <ele>1329</ele>
        <time>2023-04-21T11:20:39.000Z</time>
      </trkpt>
      <trkpt lat="44.51024" lon="6.23375">
        <ele>1329</ele>
        <time>2023-04-21T11:20:40.000Z</time>
      </trkpt>
      <trkpt lat="44.51023" lon="6.23372">
        <ele>1330</ele>
        <time>2023-04-21T11:20:41.000Z</time>
      </trkpt>
      <trkpt lat="44.51022" lon="6.2337">
        <ele>1330</ele>
        <time>2023-04-21T11:20:42.000Z</time>
      </trkpt>
      <trkpt lat="44.51022" lon="6.23367">
        <ele>1330</ele>
        <time>2023-04-21T11:20:43.000Z</time>
      </trkpt>
      <trkpt lat="44.51022" lon="6.23364">
        <ele>1330</ele>
        <time>2023-04-21T11:20:44.000Z</time>
      </trkpt>
      <trkpt lat="44.51022" lon="6.23361">
        <ele>1331</ele>
        <time>2023-04-21T11:20:45.000Z</time>
      </trkpt>
      <trkpt lat="44.51021" lon="6.23358">
        <ele>1331</ele>
        <time>2023-04-21T11:20:46.000Z</time>
      </trkpt>
      <trkpt lat="44.51021" lon="6.23355">
        <ele>1331</ele>
        <time>2023-04-21T11:20:47.000Z</time>
      </trkpt>
      <trkpt lat="44.51021" lon="6.23352">
        <ele>1331</ele>
        <time>2023-04-21T11:20:48.000Z</time>
      </trkpt>
      <trkpt lat="44.51021" lon="6.2335">
        <ele>1332</ele>
        <time>2023-04-21T11:20:49.000Z</time>
      </trkpt>
      <trkpt lat="44.5102" lon="6.23347">
        <ele>1332</ele>
        <time>2023-04-21T11:20:50.000Z</time>
      </trkpt>
      <trkpt lat="44.5102" lon="6.23344">
        <ele>1333</ele>
        <time>2023-04-21T11:20:51.000Z</time>
      </trkpt>
      <trkpt lat="44.51019" lon="6.23342">
        <ele>1333</ele>
        <time>2023-04-21T11:20:52.000Z</time>
      </trkpt>
      <trkpt lat="44.51019" lon="6.23339">
        <ele>1334</ele>
        <time>2023-04-21T11:20:53.000Z</time>
      </trkpt>
      <trkpt lat="44.51019" lon="6.23336">
        <ele>1334</ele>
        <time>2023-04-21T11:20:54.000Z</time>
      </trkpt>
      <trkpt lat="44.51018" lon="6.23334">
        <ele>1334</ele>
        <time>2023-04-21T11:20:55.000Z</time>
      </trkpt>
      <trkpt lat="44.51018" lon="6.23331">
        <ele>1335</ele>
        <time>2023-04-21T11:20:56.000Z</time>
      </trkpt>
      <trkpt lat="44.51017" lon="6.23329">
        <ele>1335</ele>
        <time>2023-04-21T11:20:57.000Z</time>
      </trkpt>
      <trkpt lat="44.51017" lon="6.23327">
        <ele>1335</ele>
        <time>2023-04-21T11:20:58.000Z</time>
      </trkpt>
      <trkpt lat="44.51018" lon="6.23324">
        <ele>1335</ele>
        <time>2023-04-21T11:20:59.000Z</time>
      </trkpt>
      <trkpt lat="44.51018" lon="6.23321">
        <ele>1335</ele>
        <time>2023-04-21T11:21:00.000Z</time>
      </trkpt>
      <trkpt lat="44.51018" lon="6.23318">
        <ele>1335</ele>
        <time>2023-04-21T11:21:01.000Z</time>
      </trkpt>
      <trkpt lat="44.51019" lon="6.23316">
        <ele>1335</ele>
        <time>2023-04-21T11:21:02.000Z</time>
      </trkpt>
      <trkpt lat="44.5102" lon="6.23314">
        <ele>1335</ele>
        <time>2023-04-21T11:21:03.000Z</time>
      </trkpt>
      <trkpt lat="44.51021" lon="6.23311">
        <ele>1335</ele>
        <time>2023-04-21T11:21:04.000Z</time>
      </trkpt>
      <trkpt lat="44.51022" lon="6.23309">
        <ele>1335</ele>
        <time>2023-04-21T11:21:05.000Z</time>
      </trkpt>
      <trkpt lat="44.51023" lon="6.23307">
        <ele>1336</ele>
        <time>2023-04-21T11:21:06.000Z</time>
      </trkpt>
      <trkpt lat="44.51024" lon="6.23305">
        <ele>1336</ele>
        <time>2023-04-21T11:21:07.000Z</time>
      </trkpt>
      <trkpt lat="44.51025" lon="6.23303">
        <ele>1336</ele>
        <time>2023-04-21T11:21:08.000Z</time>
      </trkpt>
      <trkpt lat="44.51026" lon="6.23301">
        <ele>1336</ele>
        <time>2023-04-21T11:21:09.000Z</time>
      </trkpt>
      <trkpt lat="44.51027" lon="6.23299">
        <ele>1337</ele>
        <time>2023-04-21T11:21:10.000Z</time>
      </trkpt>
      <trkpt lat="44.51027" lon="6.23297">
        <ele>1337</ele>
        <time>2023-04-21T11:21:11.000Z</time>
      </trkpt>
      <trkpt lat="44.51028" lon="6.23294">
        <ele>1337</ele>
        <time>2023-04-21T11:21:12.000Z</time>
      </trkpt>
      <trkpt lat="44.51029" lon="6.23291">
        <ele>1337</ele>
        <time>2023-04-21T11:21:13.000Z</time>
      </trkpt>
      <trkpt lat="44.5103" lon="6.23288">
        <ele>1338</ele>
        <time>2023-04-21T11:21:14.000Z</time>
      </trkpt>
      <trkpt lat="44.51031" lon="6.23285">
        <ele>1338</ele>
        <time>2023-04-21T11:21:15.000Z</time>
      </trkpt>
      <trkpt lat="44.51032" lon="6.23283">
        <ele>1339</ele>
        <time>2023-04-21T11:21:16.000Z</time>
      </trkpt>
      <trkpt lat="44.51033" lon="6.2328">
        <ele>1339</ele>
        <time>2023-04-21T11:21:17.000Z</time>
      </trkpt>
      <trkpt lat="44.51034" lon="6.23277">
        <ele>1340</ele>
        <time>2023-04-21T11:21:18.000Z</time>
      </trkpt>
      <trkpt lat="44.51034" lon="6.23274">
        <ele>1341</ele>
        <time>2023-04-21T11:21:19.000Z</time>
      </trkpt>
      <trkpt lat="44.51035" lon="6.23272">
        <ele>1341</ele>
        <time>2023-04-21T11:21:20.000Z</time>
      </trkpt>
      <trkpt lat="44.51036" lon="6.23269">
        <ele>1341</ele>
        <time>2023-04-21T11:21:21.000Z</time>
      </trkpt>
      <trkpt lat="44.51036" lon="6.23267">
        <ele>1341</ele>
        <time>2023-04-21T11:21:22.000Z</time>
      </trkpt>
      <trkpt lat="44.51037" lon="6.23264">
        <ele>1342</ele>
        <time>2023-04-21T11:21:23.000Z</time>
      </trkpt>
      <trkpt lat="44.51038" lon="6.23261">
        <ele>1342</ele>
        <time>2023-04-21T11:21:24.000Z</time>
      </trkpt>
      <trkpt lat="44.51038" lon="6.23259">
        <ele>1343</ele>
        <time>2023-04-21T11:21:25.000Z</time>
      </trkpt>
      <trkpt lat="44.51038" lon="6.23257">
        <ele>1343</ele>
        <time>2023-04-21T11:21:26.000Z</time>
      </trkpt>
      <trkpt lat="44.51038" lon="6.23255">
        <ele>1344</ele>
        <time>2023-04-21T11:21:27.000Z</time>
      </trkpt>
      <trkpt lat="44.51038" lon="6.23253">
        <ele>1345</ele>
        <time>2023-04-21T11:21:28.000Z</time>
      </trkpt>
      <trkpt lat="44.51038" lon="6.23252">
        <ele>1345</ele>
        <time>2023-04-21T11:21:29.000Z</time>
      </trkpt>
      <trkpt lat="44.51038" lon="6.2325">
        <ele>1346</ele>
        <time>2023-04-21T11:21:30.000Z</time>
      </trkpt>
      <trkpt lat="44.51039" lon="6.23247">
        <ele>1345</ele>
        <time>2023-04-21T11:21:31.000Z</time>
      </trkpt>
      <trkpt lat="44.51039" lon="6.23244">
        <ele>1344</ele>
        <time>2023-04-21T11:21:32.000Z</time>
      </trkpt>
      <trkpt lat="44.51039" lon="6.23241">
        <ele>1344</ele>
        <time>2023-04-21T11:21:33.000Z</time>
      </trkpt>
      <trkpt lat="44.5104" lon="6.23239">
        <ele>1344</ele>
        <time>2023-04-21T11:21:34.000Z</time>
      </trkpt>
      <trkpt lat="44.51041" lon="6.23236">
        <ele>1344</ele>
        <time>2023-04-21T11:21:35.000Z</time>
      </trkpt>
      <trkpt lat="44.51042" lon="6.23233">
        <ele>1344</ele>
        <time>2023-04-21T11:21:36.000Z</time>
      </trkpt>
      <trkpt lat="44.51043" lon="6.23229">
        <ele>1344</ele>
        <time>2023-04-21T11:21:37.000Z</time>
      </trkpt>
      <trkpt lat="44.51044" lon="6.23226">
        <ele>1344</ele>
        <time>2023-04-21T11:21:38.000Z</time>
      </trkpt>
      <trkpt lat="44.51045" lon="6.23222">
        <ele>1344</ele>
        <time>2023-04-21T11:21:39.000Z</time>
      </trkpt>
      <trkpt lat="44.51046" lon="6.23218">
        <ele>1345</ele>
        <time>2023-04-21T11:21:40.000Z</time>
      </trkpt>
      <trkpt lat="44.51046" lon="6.23215">
        <ele>1345</ele>
        <time>2023-04-21T11:21:41.000Z</time>
      </trkpt>
      <trkpt lat="44.51047" lon="6.23211">
        <ele>1346</ele>
        <time>2023-04-21T11:21:42.000Z</time>
      </trkpt>
      <trkpt lat="44.51047" lon="6.23207">
        <ele>1346</ele>
        <time>2023-04-21T11:21:43.000Z</time>
      </trkpt>
      <trkpt lat="44.51048" lon="6.23204">
        <ele>1346</ele>
        <time>2023-04-21T11:21:44.000Z</time>
      </trkpt>
      <trkpt lat="44.51048" lon="6.23201">
        <ele>1346</ele>
        <time>2023-04-21T11:21:45.000Z</time>
      </trkpt>
      <trkpt lat="44.51049" lon="6.23198">
        <ele>1347</ele>
        <time>2023-04-21T11:21:46.000Z</time>
      </trkpt>
      <trkpt lat="44.51049" lon="6.23194">
        <ele>1346</ele>
        <time>2023-04-21T11:21:47.000Z</time>
      </trkpt>
      <trkpt lat="44.5105" lon="6.23191">
        <ele>1346</ele>
        <time>2023-04-21T11:21:48.000Z</time>
      </trkpt>
      <trkpt lat="44.51051" lon="6.23188">
        <ele>1348</ele>
        <time>2023-04-21T11:21:49.000Z</time>
      </trkpt>
      <trkpt lat="44.51052" lon="6.23186">
        <ele>1349</ele>
        <time>2023-04-21T11:21:50.000Z</time>
      </trkpt>
      <trkpt lat="44.51053" lon="6.23185">
        <ele>1349</ele>
        <time>2023-04-21T11:21:51.000Z</time>
      </trkpt>
      <trkpt lat="44.51055" lon="6.23185">
        <ele>1349</ele>
        <time>2023-04-21T11:21:52.000Z</time>
      </trkpt>
      <trkpt lat="44.51057" lon="6.23186">
        <ele>1349</ele>
        <time>2023-04-21T11:21:53.000Z</time>
      </trkpt>
      <trkpt lat="44.51058" lon="6.23187">
        <ele>1350</ele>
        <time>2023-04-21T11:21:54.000Z</time>
      </trkpt>
      <trkpt lat="44.51059" lon="6.23189">
        <ele>1351</ele>
        <time>2023-04-21T11:21:55.000Z</time>
      </trkpt>
      <trkpt lat="44.5106" lon="6.2319">
        <ele>1352</ele>
        <time>2023-04-21T11:21:56.000Z</time>
      </trkpt>
      <trkpt lat="44.51061" lon="6.23192">
        <ele>1354</ele>
        <time>2023-04-21T11:21:57.000Z</time>
      </trkpt>
      <trkpt lat="44.51061" lon="6.23194">
        <ele>1356</ele>
        <time>2023-04-21T11:21:58.000Z</time>
      </trkpt>
      <trkpt lat="44.51062" lon="6.23197">
        <ele>1357</ele>
        <time>2023-04-21T11:21:59.000Z</time>
      </trkpt>
      <trkpt lat="44.51062" lon="6.23199">
        <ele>1358</ele>
        <time>2023-04-21T11:22:00.000Z</time>
      </trkpt>
      <trkpt lat="44.51062" lon="6.232">
        <ele>1360</ele>
        <time>2023-04-21T11:22:01.000Z</time>
      </trkpt>
      <trkpt lat="44.51062" lon="6.23203">
        <ele>1361</ele>
        <time>2023-04-21T11:22:02.000Z</time>
      </trkpt>
      <trkpt lat="44.51062" lon="6.23205">
        <ele>1361</ele>
        <time>2023-04-21T11:22:03.000Z</time>
      </trkpt>
      <trkpt lat="44.51062" lon="6.23207">
        <ele>1362</ele>
        <time>2023-04-21T11:22:04.000Z</time>
      </trkpt>
      <trkpt lat="44.51062" lon="6.23209">
        <ele>1364</ele>
        <time>2023-04-21T11:22:05.000Z</time>
      </trkpt>
      <trkpt lat="44.51062" lon="6.23211">
        <ele>1366</ele>
        <time>2023-04-21T11:22:06.000Z</time>
      </trkpt>
      <trkpt lat="44.51062" lon="6.23214">
        <ele>1365</ele>
        <time>2023-04-21T11:22:07.000Z</time>
      </trkpt>
      <trkpt lat="44.51062" lon="6.23216">
        <ele>1366</ele>
        <time>2023-04-21T11:22:08.000Z</time>
      </trkpt>
      <trkpt lat="44.51062" lon="6.23218">
        <ele>1366</ele>
        <time>2023-04-21T11:22:09.000Z</time>
      </trkpt>
      <trkpt lat="44.51062" lon="6.23221">
        <ele>1367</ele>
        <time>2023-04-21T11:22:10.000Z</time>
      </trkpt>
      <trkpt lat="44.51063" lon="6.23224">
        <ele>1367</ele>
        <time>2023-04-21T11:22:11.000Z</time>
      </trkpt>
      <trkpt lat="44.51064" lon="6.23226">
        <ele>1366</ele>
        <time>2023-04-21T11:22:12.000Z</time>
      </trkpt>
      <trkpt lat="44.51064" lon="6.23229">
        <ele>1366</ele>
        <time>2023-04-21T11:22:13.000Z</time>
      </trkpt>
      <trkpt lat="44.51064" lon="6.23231">
        <ele>1367</ele>
        <time>2023-04-21T11:22:14.000Z</time>
      </trkpt>
      <trkpt lat="44.51065" lon="6.23233">
        <ele>1367</ele>
        <time>2023-04-21T11:22:15.000Z</time>
      </trkpt>
      <trkpt lat="44.51066" lon="6.23235">
        <ele>1367</ele>
        <time>2023-04-21T11:22:16.000Z</time>
      </trkpt>
      <trkpt lat="44.51067" lon="6.23237">
        <ele>1367</ele>
        <time>2023-04-21T11:22:17.000Z</time>
      </trkpt>
      <trkpt lat="44.51068" lon="6.23238">
        <ele>1367</ele>
        <time>2023-04-21T11:22:18.000Z</time>
      </trkpt>
      <trkpt lat="44.51069" lon="6.2324">
        <ele>1367</ele>
        <time>2023-04-21T11:22:19.000Z</time>
      </trkpt>
      <trkpt lat="44.5107" lon="6.23241">
        <ele>1368</ele>
        <time>2023-04-21T11:22:20.000Z</time>
      </trkpt>
      <trkpt lat="44.51072" lon="6.23244">
        <ele>1369</ele>
        <time>2023-04-21T11:22:21.000Z</time>
      </trkpt>
      <trkpt lat="44.51073" lon="6.23246">
        <ele>1369</ele>
        <time>2023-04-21T11:22:22.000Z</time>
      </trkpt>
      <trkpt lat="44.51073" lon="6.23249">
        <ele>1371</ele>
        <time>2023-04-21T11:22:23.000Z</time>
      </trkpt>
      <trkpt lat="44.51074" lon="6.23251">
        <ele>1372</ele>
        <time>2023-04-21T11:22:24.000Z</time>
      </trkpt>
      <trkpt lat="44.51074" lon="6.23254">
        <ele>1373</ele>
        <time>2023-04-21T11:22:25.000Z</time>
      </trkpt>
      <trkpt lat="44.51074" lon="6.23257">
        <ele>1374</ele>
        <time>2023-04-21T11:22:26.000Z</time>
      </trkpt>
      <trkpt lat="44.51075" lon="6.2326">
        <ele>1375</ele>
        <time>2023-04-21T11:22:27.000Z</time>
      </trkpt>
      <trkpt lat="44.51074" lon="6.23263">
        <ele>1376</ele>
        <time>2023-04-21T11:22:28.000Z</time>
      </trkpt>
      <trkpt lat="44.51073" lon="6.23266">
        <ele>1377</ele>
        <time>2023-04-21T11:22:29.000Z</time>
      </trkpt>
      <trkpt lat="44.51072" lon="6.23268">
        <ele>1378</ele>
        <time>2023-04-21T11:22:30.000Z</time>
      </trkpt>
      <trkpt lat="44.51071" lon="6.23271">
        <ele>1380</ele>
        <time>2023-04-21T11:22:31.000Z</time>
      </trkpt>
      <trkpt lat="44.5107" lon="6.23274">
        <ele>1382</ele>
        <time>2023-04-21T11:22:32.000Z</time>
      </trkpt>
      <trkpt lat="44.5107" lon="6.23277">
        <ele>1383</ele>
        <time>2023-04-21T11:22:33.000Z</time>
      </trkpt>
      <trkpt lat="44.51069" lon="6.23279">
        <ele>1383</ele>
        <time>2023-04-21T11:22:34.000Z</time>
      </trkpt>
      <trkpt lat="44.51069" lon="6.23283">
        <ele>1383</ele>
        <time>2023-04-21T11:22:35.000Z</time>
      </trkpt>
      <trkpt lat="44.51069" lon="6.23286">
        <ele>1383</ele>
        <time>2023-04-21T11:22:36.000Z</time>
      </trkpt>
      <trkpt lat="44.51069" lon="6.23288">
        <ele>1385</ele>
        <time>2023-04-21T11:22:37.000Z</time>
      </trkpt>
      <trkpt lat="44.51069" lon="6.23291">
        <ele>1386</ele>
        <time>2023-04-21T11:22:38.000Z</time>
      </trkpt>
      <trkpt lat="44.51069" lon="6.23295">
        <ele>1385</ele>
        <time>2023-04-21T11:22:39.000Z</time>
      </trkpt>
      <trkpt lat="44.51069" lon="6.23299">
        <ele>1384</ele>
        <time>2023-04-21T11:22:40.000Z</time>
      </trkpt>
      <trkpt lat="44.51069" lon="6.23302">
        <ele>1384</ele>
        <time>2023-04-21T11:22:41.000Z</time>
      </trkpt>
      <trkpt lat="44.51069" lon="6.23305">
        <ele>1383</ele>
        <time>2023-04-21T11:22:42.000Z</time>
      </trkpt>
      <trkpt lat="44.51069" lon="6.23308">
        <ele>1382</ele>
        <time>2023-04-21T11:22:43.000Z</time>
      </trkpt>
      <trkpt lat="44.51069" lon="6.2331">
        <ele>1382</ele>
        <time>2023-04-21T11:22:44.000Z</time>
      </trkpt>
      <trkpt lat="44.5107" lon="6.23312">
        <ele>1381</ele>
        <time>2023-04-21T11:22:45.000Z</time>
      </trkpt>
      <trkpt lat="44.5107" lon="6.23314">
        <ele>1381</ele>
        <time>2023-04-21T11:22:46.000Z</time>
      </trkpt>
      <trkpt lat="44.51071" lon="6.23317">
        <ele>1381</ele>
        <time>2023-04-21T11:22:47.000Z</time>
      </trkpt>
      <trkpt lat="44.51073" lon="6.23319">
        <ele>1381</ele>
        <time>2023-04-21T11:22:48.000Z</time>
      </trkpt>
      <trkpt lat="44.51074" lon="6.23321">
        <ele>1380</ele>
        <time>2023-04-21T11:22:49.000Z</time>
      </trkpt>
      <trkpt lat="44.51076" lon="6.23321">
        <ele>1380</ele>
        <time>2023-04-21T11:22:50.000Z</time>
      </trkpt>
      <trkpt lat="44.51078" lon="6.23321">
        <ele>1380</ele>
        <time>2023-04-21T11:22:51.000Z</time>
      </trkpt>
      <trkpt lat="44.51079" lon="6.23321">
        <ele>1378</ele>
        <time>2023-04-21T11:22:52.000Z</time>
      </trkpt>
      <trkpt lat="44.5108" lon="6.23319">
        <ele>1378</ele>
        <time>2023-04-21T11:22:53.000Z</time>
      </trkpt>
      <trkpt lat="44.51081" lon="6.23317">
        <ele>1379</ele>
        <time>2023-04-21T11:22:54.000Z</time>
      </trkpt>
      <trkpt lat="44.51083" lon="6.23315">
        <ele>1379</ele>
        <time>2023-04-21T11:22:55.000Z</time>
      </trkpt>
      <trkpt lat="44.51083" lon="6.23312">
        <ele>1378</ele>
        <time>2023-04-21T11:22:56.000Z</time>
      </trkpt>
      <trkpt lat="44.51084" lon="6.23309">
        <ele>1378</ele>
        <time>2023-04-21T11:22:57.000Z</time>
      </trkpt>
      <trkpt lat="44.51084" lon="6.23307">
        <ele>1378</ele>
        <time>2023-04-21T11:22:58.000Z</time>
      </trkpt>
      <trkpt lat="44.51084" lon="6.23304">
        <ele>1377</ele>
        <time>2023-04-21T11:22:59.000Z</time>
      </trkpt>
      <trkpt lat="44.51084" lon="6.23301">
        <ele>1377</ele>
        <time>2023-04-21T11:23:00.000Z</time>
      </trkpt>
      <trkpt lat="44.51085" lon="6.23298">
        <ele>1377</ele>
        <time>2023-04-21T11:23:01.000Z</time>
      </trkpt>
      <trkpt lat="44.51085" lon="6.23295">
        <ele>1378</ele>
        <time>2023-04-21T11:23:02.000Z</time>
      </trkpt>
      <trkpt lat="44.51086" lon="6.23293">
        <ele>1378</ele>
        <time>2023-04-21T11:23:03.000Z</time>
      </trkpt>
      <trkpt lat="44.51087" lon="6.2329">
        <ele>1378</ele>
        <time>2023-04-21T11:23:04.000Z</time>
      </trkpt>
      <trkpt lat="44.51088" lon="6.23287">
        <ele>1378</ele>
        <time>2023-04-21T11:23:05.000Z</time>
      </trkpt>
      <trkpt lat="44.51089" lon="6.23285">
        <ele>1378</ele>
        <time>2023-04-21T11:23:06.000Z</time>
      </trkpt>
      <trkpt lat="44.5109" lon="6.23283">
        <ele>1379</ele>
        <time>2023-04-21T11:23:07.000Z</time>
      </trkpt>
      <trkpt lat="44.51091" lon="6.23281">
        <ele>1379</ele>
        <time>2023-04-21T11:23:08.000Z</time>
      </trkpt>
      <trkpt lat="44.51093" lon="6.2328">
        <ele>1378</ele>
        <time>2023-04-21T11:23:09.000Z</time>
      </trkpt>
      <trkpt lat="44.51094" lon="6.23277">
        <ele>1379</ele>
        <time>2023-04-21T11:23:10.000Z</time>
      </trkpt>
      <trkpt lat="44.51096" lon="6.23275">
        <ele>1379</ele>
        <time>2023-04-21T11:23:11.000Z</time>
      </trkpt>
      <trkpt lat="44.51098" lon="6.23273">
        <ele>1379</ele>
        <time>2023-04-21T11:23:12.000Z</time>
      </trkpt>
      <trkpt lat="44.51099" lon="6.23271">
        <ele>1379</ele>
        <time>2023-04-21T11:23:13.000Z</time>
      </trkpt>
      <trkpt lat="44.511" lon="6.23268">
        <ele>1380</ele>
        <time>2023-04-21T11:23:14.000Z</time>
      </trkpt>
      <trkpt lat="44.51101" lon="6.23265">
        <ele>1380</ele>
        <time>2023-04-21T11:23:15.000Z</time>
      </trkpt>
      <trkpt lat="44.51102" lon="6.23262">
        <ele>1380</ele>
        <time>2023-04-21T11:23:16.000Z</time>
      </trkpt>
      <trkpt lat="44.51103" lon="6.23259">
        <ele>1380</ele>
        <time>2023-04-21T11:23:17.000Z</time>
      </trkpt>
      <trkpt lat="44.51104" lon="6.23256">
        <ele>1381</ele>
        <time>2023-04-21T11:23:18.000Z</time>
      </trkpt>
      <trkpt lat="44.51105" lon="6.23253">
        <ele>1381</ele>
        <time>2023-04-21T11:23:19.000Z</time>
      </trkpt>
      <trkpt lat="44.51105" lon="6.23249">
        <ele>1382</ele>
        <time>2023-04-21T11:23:20.000Z</time>
      </trkpt>
      <trkpt lat="44.51106" lon="6.23246">
        <ele>1382</ele>
        <time>2023-04-21T11:23:21.000Z</time>
      </trkpt>
      <trkpt lat="44.51107" lon="6.23243">
        <ele>1383</ele>
        <time>2023-04-21T11:23:22.000Z</time>
      </trkpt>
      <trkpt lat="44.51107" lon="6.23239">
        <ele>1383</ele>
        <time>2023-04-21T11:23:23.000Z</time>
      </trkpt>
      <trkpt lat="44.51108" lon="6.23236">
        <ele>1383</ele>
        <time>2023-04-21T11:23:24.000Z</time>
      </trkpt>
      <trkpt lat="44.51108" lon="6.23234">
        <ele>1383</ele>
        <time>2023-04-21T11:23:25.000Z</time>
      </trkpt>
      <trkpt lat="44.51109" lon="6.23231">
        <ele>1383</ele>
        <time>2023-04-21T11:23:26.000Z</time>
      </trkpt>
      <trkpt lat="44.5111" lon="6.23228">
        <ele>1384</ele>
        <time>2023-04-21T11:23:27.000Z</time>
      </trkpt>
      <trkpt lat="44.51111" lon="6.23226">
        <ele>1384</ele>
        <time>2023-04-21T11:23:28.000Z</time>
      </trkpt>
      <trkpt lat="44.51113" lon="6.23224">
        <ele>1385</ele>
        <time>2023-04-21T11:23:29.000Z</time>
      </trkpt>
      <trkpt lat="44.51114" lon="6.23222">
        <ele>1385</ele>
        <time>2023-04-21T11:23:30.000Z</time>
      </trkpt>
      <trkpt lat="44.51116" lon="6.23221">
        <ele>1385</ele>
        <time>2023-04-21T11:23:31.000Z</time>
      </trkpt>
      <trkpt lat="44.51119" lon="6.23219">
        <ele>1385</ele>
        <time>2023-04-21T11:23:32.000Z</time>
      </trkpt>
      <trkpt lat="44.51121" lon="6.23217">
        <ele>1386</ele>
        <time>2023-04-21T11:23:33.000Z</time>
      </trkpt>
      <trkpt lat="44.51123" lon="6.23216">
        <ele>1385</ele>
        <time>2023-04-21T11:23:34.000Z</time>
      </trkpt>
      <trkpt lat="44.51126" lon="6.23214">
        <ele>1385</ele>
        <time>2023-04-21T11:23:35.000Z</time>
      </trkpt>
      <trkpt lat="44.51128" lon="6.23213">
        <ele>1386</ele>
        <time>2023-04-21T11:23:36.000Z</time>
      </trkpt>
      <trkpt lat="44.51131" lon="6.23212">
        <ele>1386</ele>
        <time>2023-04-21T11:23:37.000Z</time>
      </trkpt>
      <trkpt lat="44.51133" lon="6.2321">
        <ele>1386</ele>
        <time>2023-04-21T11:23:38.000Z</time>
      </trkpt>
      <trkpt lat="44.51136" lon="6.23209">
        <ele>1386</ele>
        <time>2023-04-21T11:23:39.000Z</time>
      </trkpt>
      <trkpt lat="44.51138" lon="6.23208">
        <ele>1386</ele>
        <time>2023-04-21T11:23:40.000Z</time>
      </trkpt>
      <trkpt lat="44.51141" lon="6.23207">
        <ele>1386</ele>
        <time>2023-04-21T11:23:41.000Z</time>
      </trkpt>
      <trkpt lat="44.51144" lon="6.23206">
        <ele>1386</ele>
        <time>2023-04-21T11:23:42.000Z</time>
      </trkpt>
      <trkpt lat="44.51147" lon="6.23205">
        <ele>1386</ele>
        <time>2023-04-21T11:23:43.000Z</time>
      </trkpt>
      <trkpt lat="44.51149" lon="6.23204">
        <ele>1386</ele>
        <time>2023-04-21T11:23:44.000Z</time>
      </trkpt>
      <trkpt lat="44.51152" lon="6.23203">
        <ele>1387</ele>
        <time>2023-04-21T11:23:45.000Z</time>
      </trkpt>
      <trkpt lat="44.51155" lon="6.23202">
        <ele>1387</ele>
        <time>2023-04-21T11:23:46.000Z</time>
      </trkpt>
      <trkpt lat="44.51158" lon="6.23201">
        <ele>1387</ele>
        <time>2023-04-21T11:23:47.000Z</time>
      </trkpt>
      <trkpt lat="44.5116" lon="6.23199">
        <ele>1387</ele>
        <time>2023-04-21T11:23:48.000Z</time>
      </trkpt>
      <trkpt lat="44.51163" lon="6.23198">
        <ele>1388</ele>
        <time>2023-04-21T11:23:49.000Z</time>
      </trkpt>
      <trkpt lat="44.51165" lon="6.23196">
        <ele>1388</ele>
        <time>2023-04-21T11:23:50.000Z</time>
      </trkpt>
      <trkpt lat="44.51168" lon="6.23195">
        <ele>1388</ele>
        <time>2023-04-21T11:23:51.000Z</time>
      </trkpt>
      <trkpt lat="44.51171" lon="6.23194">
        <ele>1388</ele>
        <time>2023-04-21T11:23:52.000Z</time>
      </trkpt>
      <trkpt lat="44.51174" lon="6.23193">
        <ele>1388</ele>
        <time>2023-04-21T11:23:53.000Z</time>
      </trkpt>
      <trkpt lat="44.51176" lon="6.23191">
        <ele>1389</ele>
        <time>2023-04-21T11:23:54.000Z</time>
      </trkpt>
      <trkpt lat="44.51179" lon="6.2319">
        <ele>1389</ele>
        <time>2023-04-21T11:23:55.000Z</time>
      </trkpt>
      <trkpt lat="44.51181" lon="6.23188">
        <ele>1389</ele>
        <time>2023-04-21T11:23:56.000Z</time>
      </trkpt>
      <trkpt lat="44.51184" lon="6.23187">
        <ele>1390</ele>
        <time>2023-04-21T11:23:57.000Z</time>
      </trkpt>
      <trkpt lat="44.51186" lon="6.23185">
        <ele>1390</ele>
        <time>2023-04-21T11:23:58.000Z</time>
      </trkpt>
      <trkpt lat="44.51189" lon="6.23184">
        <ele>1390</ele>
        <time>2023-04-21T11:23:59.000Z</time>
      </trkpt>
      <trkpt lat="44.51191" lon="6.23182">
        <ele>1390</ele>
        <time>2023-04-21T11:24:00.000Z</time>
      </trkpt>
      <trkpt lat="44.51194" lon="6.23181">
        <ele>1390</ele>
        <time>2023-04-21T11:24:01.000Z</time>
      </trkpt>
      <trkpt lat="44.51196" lon="6.2318">
        <ele>1390</ele>
        <time>2023-04-21T11:24:02.000Z</time>
      </trkpt>
      <trkpt lat="44.51199" lon="6.23179">
        <ele>1390</ele>
        <time>2023-04-21T11:24:03.000Z</time>
      </trkpt>
      <trkpt lat="44.51202" lon="6.23178">
        <ele>1390</ele>
        <time>2023-04-21T11:24:04.000Z</time>
      </trkpt>
      <trkpt lat="44.51204" lon="6.23177">
        <ele>1390</ele>
        <time>2023-04-21T11:24:05.000Z</time>
      </trkpt>
      <trkpt lat="44.51207" lon="6.23176">
        <ele>1391</ele>
        <time>2023-04-21T11:24:06.000Z</time>
      </trkpt>
      <trkpt lat="44.51209" lon="6.23174">
        <ele>1391</ele>
        <time>2023-04-21T11:24:07.000Z</time>
      </trkpt>
      <trkpt lat="44.51212" lon="6.23173">
        <ele>1391</ele>
        <time>2023-04-21T11:24:08.000Z</time>
      </trkpt>
      <trkpt lat="44.51215" lon="6.23172">
        <ele>1392</ele>
        <time>2023-04-21T11:24:09.000Z</time>
      </trkpt>
      <trkpt lat="44.51218" lon="6.23171">
        <ele>1392</ele>
        <time>2023-04-21T11:24:10.000Z</time>
      </trkpt>
      <trkpt lat="44.5122" lon="6.23169">
        <ele>1392</ele>
        <time>2023-04-21T11:24:11.000Z</time>
      </trkpt>
      <trkpt lat="44.51223" lon="6.23168">
        <ele>1393</ele>
        <time>2023-04-21T11:24:12.000Z</time>
      </trkpt>
      <trkpt lat="44.51226" lon="6.23167">
        <ele>1393</ele>
        <time>2023-04-21T11:24:13.000Z</time>
      </trkpt>
      <trkpt lat="44.51228" lon="6.23166">
        <ele>1393</ele>
        <time>2023-04-21T11:24:14.000Z</time>
      </trkpt>
      <trkpt lat="44.51231" lon="6.23165">
        <ele>1393</ele>
        <time>2023-04-21T11:24:15.000Z</time>
      </trkpt>
      <trkpt lat="44.51233" lon="6.23164">
        <ele>1394</ele>
        <time>2023-04-21T11:24:16.000Z</time>
      </trkpt>
      <trkpt lat="44.51235" lon="6.23163">
        <ele>1394</ele>
        <time>2023-04-21T11:24:17.000Z</time>
      </trkpt>
      <trkpt lat="44.51237" lon="6.23161">
        <ele>1394</ele>
        <time>2023-04-21T11:24:18.000Z</time>
      </trkpt>
      <trkpt lat="44.51239" lon="6.2316">
        <ele>1394</ele>
        <time>2023-04-21T11:24:19.000Z</time>
      </trkpt>
      <trkpt lat="44.5124" lon="6.23159">
        <ele>1394</ele>
        <time>2023-04-21T11:24:20.000Z</time>
      </trkpt>
      <trkpt lat="44.51242" lon="6.23157">
        <ele>1394</ele>
        <time>2023-04-21T11:24:21.000Z</time>
      </trkpt>
      <trkpt lat="44.51244" lon="6.23155">
        <ele>1394</ele>
        <time>2023-04-21T11:24:22.000Z</time>
      </trkpt>
      <trkpt lat="44.51246" lon="6.23153">
        <ele>1394</ele>
        <time>2023-04-21T11:24:23.000Z</time>
      </trkpt>
      <trkpt lat="44.51247" lon="6.2315">
        <ele>1394</ele>
        <time>2023-04-21T11:24:24.000Z</time>
      </trkpt>
      <trkpt lat="44.51249" lon="6.23147">
        <ele>1394</ele>
        <time>2023-04-21T11:24:25.000Z</time>
      </trkpt>
      <trkpt lat="44.5125" lon="6.23144">
        <ele>1395</ele>
        <time>2023-04-21T11:24:26.000Z</time>
      </trkpt>
      <trkpt lat="44.51252" lon="6.23141">
        <ele>1395</ele>
        <time>2023-04-21T11:24:27.000Z</time>
      </trkpt>
      <trkpt lat="44.51253" lon="6.23137">
        <ele>1395</ele>
        <time>2023-04-21T11:24:28.000Z</time>
      </trkpt>
      <trkpt lat="44.51254" lon="6.23133">
        <ele>1394</ele>
        <time>2023-04-21T11:24:29.000Z</time>
      </trkpt>
      <trkpt lat="44.51255" lon="6.23129">
        <ele>1395</ele>
        <time>2023-04-21T11:24:30.000Z</time>
      </trkpt>
      <trkpt lat="44.51256" lon="6.23125">
        <ele>1394</ele>
        <time>2023-04-21T11:24:31.000Z</time>
      </trkpt>
      <trkpt lat="44.51256" lon="6.2312">
        <ele>1394</ele>
        <time>2023-04-21T11:24:32.000Z</time>
      </trkpt>
      <trkpt lat="44.51256" lon="6.23117">
        <ele>1394</ele>
        <time>2023-04-21T11:24:33.000Z</time>
      </trkpt>
      <trkpt lat="44.51257" lon="6.23113">
        <ele>1394</ele>
        <time>2023-04-21T11:24:34.000Z</time>
      </trkpt>
      <trkpt lat="44.51257" lon="6.23109">
        <ele>1394</ele>
        <time>2023-04-21T11:24:35.000Z</time>
      </trkpt>
      <trkpt lat="44.51258" lon="6.23105">
        <ele>1394</ele>
        <time>2023-04-21T11:24:36.000Z</time>
      </trkpt>
      <trkpt lat="44.51258" lon="6.23101">
        <ele>1394</ele>
        <time>2023-04-21T11:24:37.000Z</time>
      </trkpt>
      <trkpt lat="44.51259" lon="6.23097">
        <ele>1394</ele>
        <time>2023-04-21T11:24:38.000Z</time>
      </trkpt>
      <trkpt lat="44.51259" lon="6.23094">
        <ele>1394</ele>
        <time>2023-04-21T11:24:39.000Z</time>
      </trkpt>
      <trkpt lat="44.5126" lon="6.2309">
        <ele>1394</ele>
        <time>2023-04-21T11:24:40.000Z</time>
      </trkpt>
      <trkpt lat="44.51261" lon="6.23086">
        <ele>1394</ele>
        <time>2023-04-21T11:24:41.000Z</time>
      </trkpt>
      <trkpt lat="44.51262" lon="6.23083">
        <ele>1394</ele>
        <time>2023-04-21T11:24:42.000Z</time>
      </trkpt>
      <trkpt lat="44.51264" lon="6.2308">
        <ele>1394</ele>
        <time>2023-04-21T11:24:43.000Z</time>
      </trkpt>
      <trkpt lat="44.51266" lon="6.23077">
        <ele>1393</ele>
        <time>2023-04-21T11:24:44.000Z</time>
      </trkpt>
      <trkpt lat="44.51268" lon="6.23074">
        <ele>1394</ele>
        <time>2023-04-21T11:24:45.000Z</time>
      </trkpt>
      <trkpt lat="44.5127" lon="6.23071">
        <ele>1395</ele>
        <time>2023-04-21T11:24:46.000Z</time>
      </trkpt>
      <trkpt lat="44.51272" lon="6.23069">
        <ele>1395</ele>
        <time>2023-04-21T11:24:47.000Z</time>
      </trkpt>
      <trkpt lat="44.51274" lon="6.23067">
        <ele>1396</ele>
        <time>2023-04-21T11:24:48.000Z</time>
      </trkpt>
      <trkpt lat="44.51276" lon="6.23065">
        <ele>1396</ele>
        <time>2023-04-21T11:24:49.000Z</time>
      </trkpt>
      <trkpt lat="44.51279" lon="6.23063">
        <ele>1396</ele>
        <time>2023-04-21T11:24:50.000Z</time>
      </trkpt>
      <trkpt lat="44.51281" lon="6.23061">
        <ele>1396</ele>
        <time>2023-04-21T11:24:51.000Z</time>
      </trkpt>
      <trkpt lat="44.51283" lon="6.23059">
        <ele>1397</ele>
        <time>2023-04-21T11:24:52.000Z</time>
      </trkpt>
      <trkpt lat="44.51286" lon="6.23059">
        <ele>1397</ele>
        <time>2023-04-21T11:24:53.000Z</time>
      </trkpt>
      <trkpt lat="44.51288" lon="6.23058">
        <ele>1397</ele>
        <time>2023-04-21T11:24:54.000Z</time>
      </trkpt>
      <trkpt lat="44.51291" lon="6.23057">
        <ele>1397</ele>
        <time>2023-04-21T11:24:55.000Z</time>
      </trkpt>
      <trkpt lat="44.51293" lon="6.23056">
        <ele>1397</ele>
        <time>2023-04-21T11:24:56.000Z</time>
      </trkpt>
      <trkpt lat="44.51295" lon="6.23055">
        <ele>1397</ele>
        <time>2023-04-21T11:24:57.000Z</time>
      </trkpt>
      <trkpt lat="44.51298" lon="6.23055">
        <ele>1397</ele>
        <time>2023-04-21T11:24:58.000Z</time>
      </trkpt>
      <trkpt lat="44.513" lon="6.23055">
        <ele>1397</ele>
        <time>2023-04-21T11:24:59.000Z</time>
      </trkpt>
      <trkpt lat="44.51301" lon="6.23055">
        <ele>1397</ele>
        <time>2023-04-21T11:25:00.000Z</time>
      </trkpt>
      <trkpt lat="44.51303" lon="6.23055">
        <ele>1397</ele>
        <time>2023-04-21T11:25:01.000Z</time>
      </trkpt>
      <trkpt lat="44.51304" lon="6.23055">
        <ele>1397</ele>
        <time>2023-04-21T11:25:02.000Z</time>
      </trkpt>
      <trkpt lat="44.51306" lon="6.23055">
        <ele>1397</ele>
        <time>2023-04-21T11:25:03.000Z</time>
      </trkpt>
      <trkpt lat="44.51307" lon="6.23056">
        <ele>1398</ele>
        <time>2023-04-21T11:25:04.000Z</time>
      </trkpt>
      <trkpt lat="44.51307" lon="6.23057">
        <ele>1398</ele>
        <time>2023-04-21T11:25:05.000Z</time>
      </trkpt>
      <trkpt lat="44.51308" lon="6.23058">
        <ele>1398</ele>
        <time>2023-04-21T11:25:06.000Z</time>
      </trkpt>
      <trkpt lat="44.51308" lon="6.23059">
        <ele>1398</ele>
        <time>2023-04-21T11:25:07.000Z</time>
      </trkpt>
      <trkpt lat="44.51308" lon="6.23058">
        <ele>1398</ele>
        <time>2023-04-21T11:25:08.000Z</time>
      </trkpt>
      <trkpt lat="44.51308" lon="6.23058">
        <ele>1398</ele>
        <time>2023-04-21T11:25:09.000Z</time>
      </trkpt>
      <trkpt lat="44.51308" lon="6.23058">
        <ele>1398</ele>
        <time>2023-04-21T11:25:10.000Z</time>
      </trkpt>
      <trkpt lat="44.51309" lon="6.23059">
        <ele>1398</ele>
        <time>2023-04-21T11:25:11.000Z</time>
      </trkpt>
      <trkpt lat="44.51309" lon="6.2306">
        <ele>1398</ele>
        <time>2023-04-21T11:25:12.000Z</time>
      </trkpt>
      <trkpt lat="44.51309" lon="6.23061">
        <ele>1398</ele>
        <time>2023-04-21T11:25:13.000Z</time>
      </trkpt>
      <trkpt lat="44.51309" lon="6.23061">
        <ele>1398</ele>
        <time>2023-04-21T11:25:14.000Z</time>
      </trkpt>
      <trkpt lat="44.51309" lon="6.23061">
        <ele>1398</ele>
        <time>2023-04-21T11:25:15.000Z</time>
      </trkpt>
      <trkpt lat="44.51309" lon="6.23061">
        <ele>1398</ele>
        <time>2023-04-21T11:25:16.000Z</time>
      </trkpt>
      <trkpt lat="44.51309" lon="6.23061">
        <ele>1397</ele>
        <time>2023-04-21T11:25:17.000Z</time>
      </trkpt>
      <trkpt lat="44.51309" lon="6.23061">
        <ele>1397</ele>
        <time>2023-04-21T11:25:18.000Z</time>
      </trkpt>
      <trkpt lat="44.51309" lon="6.23061">
        <ele>1397</ele>
        <time>2023-04-21T11:25:19.000Z</time>
      </trkpt>
      <trkpt lat="44.51309" lon="6.2306">
        <ele>1397</ele>
        <time>2023-04-21T11:25:20.000Z</time>
      </trkpt>
      <trkpt lat="44.51309" lon="6.2306">
        <ele>1397</ele>
        <time>2023-04-21T11:25:21.000Z</time>
      </trkpt>
      <trkpt lat="44.51309" lon="6.2306">
        <ele>1397</ele>
        <time>2023-04-21T11:25:22.000Z</time>
      </trkpt>
      <trkpt lat="44.51309" lon="6.2306">
        <ele>1396</ele>
        <time>2023-04-21T11:25:23.000Z</time>
      </trkpt>
      <trkpt lat="44.5131" lon="6.2306">
        <ele>1396</ele>
        <time>2023-04-21T11:25:24.000Z</time>
      </trkpt>
      <trkpt lat="44.5131" lon="6.2306">
        <ele>1396</ele>
        <time>2023-04-21T11:25:25.000Z</time>
      </trkpt>
      <trkpt lat="44.5131" lon="6.2306">
        <ele>1396</ele>
        <time>2023-04-21T11:25:26.000Z</time>
      </trkpt>
      <trkpt lat="44.5131" lon="6.2306">
        <ele>1396</ele>
        <time>2023-04-21T11:25:27.000Z</time>
      </trkpt>
      <trkpt lat="44.5131" lon="6.2306">
        <ele>1396</ele>
        <time>2023-04-21T11:25:28.000Z</time>
      </trkpt>
      <trkpt lat="44.5131" lon="6.2306">
        <ele>1396</ele>
        <time>2023-04-21T11:25:29.000Z</time>
      </trkpt>
      <trkpt lat="44.5131" lon="6.2306">
        <ele>1396</ele>
        <time>2023-04-21T11:25:30.000Z</time>
      </trkpt>
      <trkpt lat="44.5131" lon="6.2306">
        <ele>1396</ele>
        <time>2023-04-21T11:25:31.000Z</time>
      </trkpt>
      <trkpt lat="44.5131" lon="6.2306">
        <ele>1396</ele>
        <time>2023-04-21T11:25:32.000Z</time>
      </trkpt>
      <trkpt lat="44.5131" lon="6.2306">
        <ele>1396</ele>
        <time>2023-04-21T11:25:33.000Z</time>
      </trkpt>
      <trkpt lat="44.5131" lon="6.2306">
        <ele>1396</ele>
        <time>2023-04-21T11:25:34.000Z</time>
      </trkpt>
      <trkpt lat="44.5131" lon="6.2306">
        <ele>1396</ele>
        <time>2023-04-21T11:25:35.000Z</time>
      </trkpt>
      <trkpt lat="44.5131" lon="6.2306">
        <ele>1396</ele>
        <time>2023-04-21T11:25:36.000Z</time>
      </trkpt>
      <trkpt lat="44.5131" lon="6.2306">
        <ele>1397</ele>
        <time>2023-04-21T11:25:37.000Z</time>
      </trkpt>
      <trkpt lat="44.5131" lon="6.2306">
        <ele>1397</ele>
        <time>2023-04-21T11:25:38.000Z</time>
      </trkpt>
      <trkpt lat="44.51311" lon="6.2306">
        <ele>1397</ele>
        <time>2023-04-21T11:25:39.000Z</time>
      </trkpt>
      <trkpt lat="44.51311" lon="6.2306">
        <ele>1397</ele>
        <time>2023-04-21T11:25:40.000Z</time>
      </trkpt>
      <trkpt lat="44.5131" lon="6.2306">
        <ele>1397</ele>
        <time>2023-04-21T11:25:41.000Z</time>
      </trkpt>
      <trkpt lat="44.5131" lon="6.2306">
        <ele>1397</ele>
        <time>2023-04-21T11:25:42.000Z</time>
      </trkpt>
      <trkpt lat="44.5131" lon="6.2306">
        <ele>1397</ele>
        <time>2023-04-21T11:25:43.000Z</time>
      </trkpt>
      <trkpt lat="44.5131" lon="6.2306">
        <ele>1397</ele>
        <time>2023-04-21T11:25:44.000Z</time>
      </trkpt>
      <trkpt lat="44.5131" lon="6.2306">
        <ele>1397</ele>
        <time>2023-04-21T11:25:45.000Z</time>
      </trkpt>
      <trkpt lat="44.5131" lon="6.2306">
        <ele>1397</ele>
        <time>2023-04-21T11:25:46.000Z</time>
      </trkpt>
      <trkpt lat="44.5131" lon="6.2306">
        <ele>1397</ele>
        <time>2023-04-21T11:25:47.000Z</time>
      </trkpt>
      <trkpt lat="44.5131" lon="6.2306">
        <ele>1397</ele>
        <time>2023-04-21T11:25:48.000Z</time>
      </trkpt>
      <trkpt lat="44.5131" lon="6.2306">
        <ele>1397</ele>
        <time>2023-04-21T11:25:49.000Z</time>
      </trkpt>
      <trkpt lat="44.5131" lon="6.2306">
        <ele>1397</ele>
        <time>2023-04-21T11:25:50.000Z</time>
      </trkpt>
      <trkpt lat="44.5131" lon="6.2306">
        <ele>1397</ele>
        <time>2023-04-21T11:25:51.000Z</time>
      </trkpt>
      <trkpt lat="44.5131" lon="6.2306">
        <ele>1397</ele>
        <time>2023-04-21T11:25:52.000Z</time>
      </trkpt>
      <trkpt lat="44.5131" lon="6.23059">
        <ele>1398</ele>
        <time>2023-04-21T11:25:53.000Z</time>
      </trkpt>
      <trkpt lat="44.51309" lon="6.23059">
        <ele>1398</ele>
        <time>2023-04-21T11:25:54.000Z</time>
      </trkpt>
      <trkpt lat="44.51309" lon="6.2306">
        <ele>1398</ele>
        <time>2023-04-21T11:25:55.000Z</time>
      </trkpt>
      <trkpt lat="44.51309" lon="6.2306">
        <ele>1398</ele>
        <time>2023-04-21T11:25:56.000Z</time>
      </trkpt>
      <trkpt lat="44.51309" lon="6.2306">
        <ele>1398</ele>
        <time>2023-04-21T11:25:57.000Z</time>
      </trkpt>
      <trkpt lat="44.51309" lon="6.2306">
        <ele>1398</ele>
        <time>2023-04-21T11:25:58.000Z</time>
      </trkpt>
      <trkpt lat="44.51309" lon="6.2306">
        <ele>1398</ele>
        <time>2023-04-21T11:25:59.000Z</time>
      </trkpt>
      <trkpt lat="44.51309" lon="6.2306">
        <ele>1398</ele>
        <time>2023-04-21T11:26:00.000Z</time>
      </trkpt>
      <trkpt lat="44.51309" lon="6.2306">
        <ele>1398</ele>
        <time>2023-04-21T11:26:01.000Z</time>
      </trkpt>
      <trkpt lat="44.51309" lon="6.2306">
        <ele>1398</ele>
        <time>2023-04-21T11:26:02.000Z</time>
      </trkpt>
      <trkpt lat="44.51309" lon="6.2306">
        <ele>1398</ele>
        <time>2023-04-21T11:26:03.000Z</time>
      </trkpt>
      <trkpt lat="44.51309" lon="6.2306">
        <ele>1398</ele>
        <time>2023-04-21T11:26:04.000Z</time>
      </trkpt>
      <trkpt lat="44.51309" lon="6.2306">
        <ele>1398</ele>
        <time>2023-04-21T11:26:05.000Z</time>
      </trkpt>
      <trkpt lat="44.51308" lon="6.2306">
        <ele>1397</ele>
        <time>2023-04-21T11:26:06.000Z</time>
      </trkpt>
      <trkpt lat="44.51308" lon="6.2306">
        <ele>1397</ele>
        <time>2023-04-21T11:26:07.000Z</time>
      </trkpt>
      <trkpt lat="44.51308" lon="6.2306">
        <ele>1397</ele>
        <time>2023-04-21T11:26:08.000Z</time>
      </trkpt>
      <trkpt lat="44.51308" lon="6.2306">
        <ele>1397</ele>
        <time>2023-04-21T11:26:09.000Z</time>
      </trkpt>
      <trkpt lat="44.51308" lon="6.2306">
        <ele>1397</ele>
        <time>2023-04-21T11:26:10.000Z</time>
      </trkpt>
      <trkpt lat="44.51308" lon="6.2306">
        <ele>1397</ele>
        <time>2023-04-21T11:26:11.000Z</time>
      </trkpt>
      <trkpt lat="44.51308" lon="6.2306">
        <ele>1397</ele>
        <time>2023-04-21T11:26:12.000Z</time>
      </trkpt>
      <trkpt lat="44.51308" lon="6.2306">
        <ele>1396</ele>
        <time>2023-04-21T11:26:13.000Z</time>
      </trkpt>
      <trkpt lat="44.51308" lon="6.2306">
        <ele>1396</ele>
        <time>2023-04-21T11:26:14.000Z</time>
      </trkpt>
      <trkpt lat="44.51308" lon="6.23061">
        <ele>1396</ele>
        <time>2023-04-21T11:26:15.000Z</time>
      </trkpt>
      <trkpt lat="44.51308" lon="6.23061">
        <ele>1396</ele>
        <time>2023-04-21T11:26:16.000Z</time>
      </trkpt>
      <trkpt lat="44.51307" lon="6.23061">
        <ele>1396</ele>
        <time>2023-04-21T11:26:17.000Z</time>
      </trkpt>
      <trkpt lat="44.51307" lon="6.23061">
        <ele>1395</ele>
        <time>2023-04-21T11:26:18.000Z</time>
      </trkpt>
      <trkpt lat="44.51307" lon="6.23061">
        <ele>1395</ele>
        <time>2023-04-21T11:26:19.000Z</time>
      </trkpt>
      <trkpt lat="44.51307" lon="6.23061">
        <ele>1395</ele>
        <time>2023-04-21T11:26:20.000Z</time>
      </trkpt>
      <trkpt lat="44.51307" lon="6.23061">
        <ele>1395</ele>
        <time>2023-04-21T11:26:21.000Z</time>
      </trkpt>
      <trkpt lat="44.51307" lon="6.23061">
        <ele>1395</ele>
        <time>2023-04-21T11:26:22.000Z</time>
      </trkpt>
      <trkpt lat="44.51307" lon="6.23061">
        <ele>1395</ele>
        <time>2023-04-21T11:26:23.000Z</time>
      </trkpt>
      <trkpt lat="44.51307" lon="6.23061">
        <ele>1395</ele>
        <time>2023-04-21T11:26:24.000Z</time>
      </trkpt>
      <trkpt lat="44.51308" lon="6.23061">
        <ele>1395</ele>
        <time>2023-04-21T11:26:25.000Z</time>
      </trkpt>
      <trkpt lat="44.51308" lon="6.23061">
        <ele>1395</ele>
        <time>2023-04-21T11:26:26.000Z</time>
      </trkpt>
      <trkpt lat="44.51308" lon="6.23061">
        <ele>1395</ele>
        <time>2023-04-21T11:26:27.000Z</time>
      </trkpt>
      <trkpt lat="44.51308" lon="6.23061">
        <ele>1395</ele>
        <time>2023-04-21T11:26:28.000Z</time>
      </trkpt>
      <trkpt lat="44.51308" lon="6.23061">
        <ele>1395</ele>
        <time>2023-04-21T11:26:29.000Z</time>
      </trkpt>
      <trkpt lat="44.51308" lon="6.23061">
        <ele>1395</ele>
        <time>2023-04-21T11:26:30.000Z</time>
      </trkpt>
      <trkpt lat="44.51308" lon="6.23062">
        <ele>1394</ele>
        <time>2023-04-21T11:26:31.000Z</time>
      </trkpt>
      <trkpt lat="44.51308" lon="6.23062">
        <ele>1394</ele>
        <time>2023-04-21T11:26:32.000Z</time>
      </trkpt>
      <trkpt lat="44.51307" lon="6.23062">
        <ele>1394</ele>
        <time>2023-04-21T11:26:33.000Z</time>
      </trkpt>
      <trkpt lat="44.51307" lon="6.23062">
        <ele>1394</ele>
        <time>2023-04-21T11:26:34.000Z</time>
      </trkpt>
      <trkpt lat="44.51307" lon="6.23062">
        <ele>1394</ele>
        <time>2023-04-21T11:26:35.000Z</time>
      </trkpt>
      <trkpt lat="44.51307" lon="6.23062">
        <ele>1394</ele>
        <time>2023-04-21T11:26:36.000Z</time>
      </trkpt>
      <trkpt lat="44.51307" lon="6.23062">
        <ele>1394</ele>
        <time>2023-04-21T11:26:37.000Z</time>
      </trkpt>
      <trkpt lat="44.51307" lon="6.23062">
        <ele>1395</ele>
        <time>2023-04-21T11:26:38.000Z</time>
      </trkpt>
      <trkpt lat="44.51307" lon="6.23061">
        <ele>1395</ele>
        <time>2023-04-21T11:26:39.000Z</time>
      </trkpt>
      <trkpt lat="44.51307" lon="6.23061">
        <ele>1395</ele>
        <time>2023-04-21T11:26:40.000Z</time>
      </trkpt>
      <trkpt lat="44.51308" lon="6.23061">
        <ele>1395</ele>
        <time>2023-04-21T11:26:41.000Z</time>
      </trkpt>
      <trkpt lat="44.51308" lon="6.23061">
        <ele>1395</ele>
        <time>2023-04-21T11:26:42.000Z</time>
      </trkpt>
      <trkpt lat="44.51308" lon="6.23061">
        <ele>1395</ele>
        <time>2023-04-21T11:26:43.000Z</time>
      </trkpt>
      <trkpt lat="44.51308" lon="6.23061">
        <ele>1395</ele>
        <time>2023-04-21T11:26:44.000Z</time>
      </trkpt>
      <trkpt lat="44.51308" lon="6.23062">
        <ele>1395</ele>
        <time>2023-04-21T11:26:45.000Z</time>
      </trkpt>
      <trkpt lat="44.51307" lon="6.23062">
        <ele>1395</ele>
        <time>2023-04-21T11:26:46.000Z</time>
      </trkpt>
      <trkpt lat="44.51307" lon="6.23062">
        <ele>1395</ele>
        <time>2023-04-21T11:26:47.000Z</time>
      </trkpt>
      <trkpt lat="44.51307" lon="6.23062">
        <ele>1395</ele>
        <time>2023-04-21T11:26:48.000Z</time>
      </trkpt>
      <trkpt lat="44.51307" lon="6.23062">
        <ele>1395</ele>
        <time>2023-04-21T11:26:49.000Z</time>
      </trkpt>
      <trkpt lat="44.51307" lon="6.23062">
        <ele>1395</ele>
        <time>2023-04-21T11:26:50.000Z</time>
      </trkpt>
      <trkpt lat="44.51307" lon="6.23061">
        <ele>1395</ele>
        <time>2023-04-21T11:26:51.000Z</time>
      </trkpt>
      <trkpt lat="44.51307" lon="6.23061">
        <ele>1395</ele>
        <time>2023-04-21T11:26:52.000Z</time>
      </trkpt>
      <trkpt lat="44.51307" lon="6.23061">
        <ele>1395</ele>
        <time>2023-04-21T11:26:53.000Z</time>
      </trkpt>
      <trkpt lat="44.51307" lon="6.23061">
        <ele>1395</ele>
        <time>2023-04-21T11:26:54.000Z</time>
      </trkpt>
      <trkpt lat="44.51307" lon="6.23061">
        <ele>1395</ele>
        <time>2023-04-21T11:26:55.000Z</time>
      </trkpt>
      <trkpt lat="44.51307" lon="6.23061">
        <ele>1395</ele>
        <time>2023-04-21T11:26:56.000Z</time>
      </trkpt>
      <trkpt lat="44.51307" lon="6.23061">
        <ele>1396</ele>
        <time>2023-04-21T11:26:57.000Z</time>
      </trkpt>
      <trkpt lat="44.51307" lon="6.23061">
        <ele>1396</ele>
        <time>2023-04-21T11:26:58.000Z</time>
      </trkpt>
      <trkpt lat="44.51307" lon="6.23061">
        <ele>1396</ele>
        <time>2023-04-21T11:26:59.000Z</time>
      </trkpt>
      <trkpt lat="44.51308" lon="6.23061">
        <ele>1396</ele>
        <time>2023-04-21T11:27:00.000Z</time>
      </trkpt>
      <trkpt lat="44.51308" lon="6.23061">
        <ele>1397</ele>
        <time>2023-04-21T11:27:01.000Z</time>
      </trkpt>
      <trkpt lat="44.51308" lon="6.23061">
        <ele>1397</ele>
        <time>2023-04-21T11:27:02.000Z</time>
      </trkpt>
      <trkpt lat="44.51308" lon="6.23061">
        <ele>1397</ele>
        <time>2023-04-21T11:27:03.000Z</time>
      </trkpt>
      <trkpt lat="44.51308" lon="6.23061">
        <ele>1397</ele>
        <time>2023-04-21T11:27:04.000Z</time>
      </trkpt>
      <trkpt lat="44.51308" lon="6.23061">
        <ele>1397</ele>
        <time>2023-04-21T11:27:05.000Z</time>
      </trkpt>
      <trkpt lat="44.51308" lon="6.23061">
        <ele>1397</ele>
        <time>2023-04-21T11:27:06.000Z</time>
      </trkpt>
      <trkpt lat="44.51308" lon="6.23061">
        <ele>1397</ele>
        <time>2023-04-21T11:27:07.000Z</time>
      </trkpt>
      <trkpt lat="44.51308" lon="6.23061">
        <ele>1397</ele>
        <time>2023-04-21T11:27:08.000Z</time>
      </trkpt>
      <trkpt lat="44.51308" lon="6.23061">
        <ele>1398</ele>
        <time>2023-04-21T11:27:09.000Z</time>
      </trkpt>
      <trkpt lat="44.51308" lon="6.23061">
        <ele>1398</ele>
        <time>2023-04-21T11:27:10.000Z</time>
      </trkpt>
      <trkpt lat="44.51308" lon="6.23061">
        <ele>1398</ele>
        <time>2023-04-21T11:27:11.000Z</time>
      </trkpt>
      <trkpt lat="44.51308" lon="6.23061">
        <ele>1398</ele>
        <time>2023-04-21T11:27:12.000Z</time>
      </trkpt>
      <trkpt lat="44.51308" lon="6.23061">
        <ele>1398</ele>
        <time>2023-04-21T11:27:13.000Z</time>
      </trkpt>
      <trkpt lat="44.51308" lon="6.23061">
        <ele>1398</ele>
        <time>2023-04-21T11:27:14.000Z</time>
      </trkpt>
      <trkpt lat="44.51308" lon="6.23061">
        <ele>1398</ele>
        <time>2023-04-21T11:27:15.000Z</time>
      </trkpt>
      <trkpt lat="44.51308" lon="6.23061">
        <ele>1398</ele>
        <time>2023-04-21T11:27:16.000Z</time>
      </trkpt>
      <trkpt lat="44.51308" lon="6.23061">
        <ele>1399</ele>
        <time>2023-04-21T11:27:17.000Z</time>
      </trkpt>
      <trkpt lat="44.51308" lon="6.23061">
        <ele>1399</ele>
        <time>2023-04-21T11:27:18.000Z</time>
      </trkpt>
      <trkpt lat="44.51308" lon="6.23061">
        <ele>1399</ele>
        <time>2023-04-21T11:27:19.000Z</time>
      </trkpt>
      <trkpt lat="44.51308" lon="6.2306">
        <ele>1399</ele>
        <time>2023-04-21T11:27:20.000Z</time>
      </trkpt>
      <trkpt lat="44.51308" lon="6.2306">
        <ele>1399</ele>
        <time>2023-04-21T11:27:21.000Z</time>
      </trkpt>
      <trkpt lat="44.51308" lon="6.2306">
        <ele>1399</ele>
        <time>2023-04-21T11:27:22.000Z</time>
      </trkpt>
      <trkpt lat="44.51308" lon="6.2306">
        <ele>1399</ele>
        <time>2023-04-21T11:27:23.000Z</time>
      </trkpt>
      <trkpt lat="44.51308" lon="6.2306">
        <ele>1399</ele>
        <time>2023-04-21T11:27:24.000Z</time>
      </trkpt>
      <trkpt lat="44.51308" lon="6.2306">
        <ele>1399</ele>
        <time>2023-04-21T11:27:25.000Z</time>
      </trkpt>
      <trkpt lat="44.51308" lon="6.2306">
        <ele>1398</ele>
        <time>2023-04-21T11:27:26.000Z</time>
      </trkpt>
      <trkpt lat="44.51308" lon="6.2306">
        <ele>1398</ele>
        <time>2023-04-21T11:27:27.000Z</time>
      </trkpt>
      <trkpt lat="44.51308" lon="6.2306">
        <ele>1398</ele>
        <time>2023-04-21T11:27:28.000Z</time>
      </trkpt>
      <trkpt lat="44.51308" lon="6.2306">
        <ele>1397</ele>
        <time>2023-04-21T11:27:29.000Z</time>
      </trkpt>
      <trkpt lat="44.51308" lon="6.2306">
        <ele>1397</ele>
        <time>2023-04-21T11:27:30.000Z</time>
      </trkpt>
      <trkpt lat="44.51308" lon="6.2306">
        <ele>1397</ele>
        <time>2023-04-21T11:27:31.000Z</time>
      </trkpt>
      <trkpt lat="44.51308" lon="6.2306">
        <ele>1397</ele>
        <time>2023-04-21T11:27:32.000Z</time>
      </trkpt>
      <trkpt lat="44.51308" lon="6.2306">
        <ele>1397</ele>
        <time>2023-04-21T11:27:33.000Z</time>
      </trkpt>
      <trkpt lat="44.51308" lon="6.2306">
        <ele>1397</ele>
        <time>2023-04-21T11:27:34.000Z</time>
      </trkpt>
      <trkpt lat="44.51308" lon="6.2306">
        <ele>1397</ele>
        <time>2023-04-21T11:27:35.000Z</time>
      </trkpt>
      <trkpt lat="44.51308" lon="6.2306">
        <ele>1396</ele>
        <time>2023-04-21T11:27:36.000Z</time>
      </trkpt>
      <trkpt lat="44.51308" lon="6.2306">
        <ele>1396</ele>
        <time>2023-04-21T11:27:37.000Z</time>
      </trkpt>
      <trkpt lat="44.51308" lon="6.2306">
        <ele>1396</ele>
        <time>2023-04-21T11:27:38.000Z</time>
      </trkpt>
      <trkpt lat="44.51308" lon="6.2306">
        <ele>1396</ele>
        <time>2023-04-21T11:27:39.000Z</time>
      </trkpt>
      <trkpt lat="44.51308" lon="6.2306">
        <ele>1396</ele>
        <time>2023-04-21T11:27:40.000Z</time>
      </trkpt>
      <trkpt lat="44.51308" lon="6.2306">
        <ele>1396</ele>
        <time>2023-04-21T11:27:41.000Z</time>
      </trkpt>
      <trkpt lat="44.51308" lon="6.2306">
        <ele>1396</ele>
        <time>2023-04-21T11:27:42.000Z</time>
      </trkpt>
      <trkpt lat="44.51308" lon="6.23061">
        <ele>1396</ele>
        <time>2023-04-21T11:27:43.000Z</time>
      </trkpt>
      <trkpt lat="44.51308" lon="6.23061">
        <ele>1396</ele>
        <time>2023-04-21T11:27:44.000Z</time>
      </trkpt>
      <trkpt lat="44.51308" lon="6.23061">
        <ele>1395</ele>
        <time>2023-04-21T11:27:45.000Z</time>
      </trkpt>
      <trkpt lat="44.51308" lon="6.2306">
        <ele>1395</ele>
        <time>2023-04-21T11:27:46.000Z</time>
      </trkpt>
      <trkpt lat="44.51308" lon="6.2306">
        <ele>1395</ele>
        <time>2023-04-21T11:27:47.000Z</time>
      </trkpt>
      <trkpt lat="44.51308" lon="6.2306">
        <ele>1395</ele>
        <time>2023-04-21T11:27:48.000Z</time>
      </trkpt>
      <trkpt lat="44.51308" lon="6.2306">
        <ele>1395</ele>
        <time>2023-04-21T11:27:49.000Z</time>
      </trkpt>
      <trkpt lat="44.51307" lon="6.2306">
        <ele>1395</ele>
        <time>2023-04-21T11:27:50.000Z</time>
      </trkpt>
      <trkpt lat="44.51307" lon="6.2306">
        <ele>1395</ele>
        <time>2023-04-21T11:27:51.000Z</time>
      </trkpt>
      <trkpt lat="44.51307" lon="6.2306">
        <ele>1395</ele>
        <time>2023-04-21T11:27:52.000Z</time>
      </trkpt>
      <trkpt lat="44.51307" lon="6.2306">
        <ele>1395</ele>
        <time>2023-04-21T11:27:53.000Z</time>
      </trkpt>
      <trkpt lat="44.51308" lon="6.2306">
        <ele>1395</ele>
        <time>2023-04-21T11:27:54.000Z</time>
      </trkpt>
      <trkpt lat="44.51308" lon="6.23061">
        <ele>1395</ele>
        <time>2023-04-21T11:27:55.000Z</time>
      </trkpt>
      <trkpt lat="44.51308" lon="6.23061">
        <ele>1395</ele>
        <time>2023-04-21T11:27:56.000Z</time>
      </trkpt>
      <trkpt lat="44.51308" lon="6.23061">
        <ele>1395</ele>
        <time>2023-04-21T11:27:57.000Z</time>
      </trkpt>
      <trkpt lat="44.51308" lon="6.23061">
        <ele>1395</ele>
        <time>2023-04-21T11:27:58.000Z</time>
      </trkpt>
      <trkpt lat="44.51308" lon="6.23061">
        <ele>1395</ele>
        <time>2023-04-21T11:27:59.000Z</time>
      </trkpt>
      <trkpt lat="44.51308" lon="6.23061">
        <ele>1395</ele>
        <time>2023-04-21T11:28:00.000Z</time>
      </trkpt>
      <trkpt lat="44.51308" lon="6.23061">
        <ele>1395</ele>
        <time>2023-04-21T11:28:01.000Z</time>
      </trkpt>
      <trkpt lat="44.51308" lon="6.23061">
        <ele>1395</ele>
        <time>2023-04-21T11:28:02.000Z</time>
      </trkpt>
      <trkpt lat="44.51308" lon="6.23061">
        <ele>1395</ele>
        <time>2023-04-21T11:28:03.000Z</time>
      </trkpt>
      <trkpt lat="44.51308" lon="6.23061">
        <ele>1395</ele>
        <time>2023-04-21T11:28:04.000Z</time>
      </trkpt>
      <trkpt lat="44.51308" lon="6.23061">
        <ele>1395</ele>
        <time>2023-04-21T11:28:05.000Z</time>
      </trkpt>
      <trkpt lat="44.51308" lon="6.23061">
        <ele>1394</ele>
        <time>2023-04-21T11:28:06.000Z</time>
      </trkpt>
      <trkpt lat="44.51308" lon="6.23061">
        <ele>1394</ele>
        <time>2023-04-21T11:28:07.000Z</time>
      </trkpt>
      <trkpt lat="44.51308" lon="6.23061">
        <ele>1394</ele>
        <time>2023-04-21T11:28:08.000Z</time>
      </trkpt>
      <trkpt lat="44.51308" lon="6.23061">
        <ele>1394</ele>
        <time>2023-04-21T11:28:09.000Z</time>
      </trkpt>
      <trkpt lat="44.51308" lon="6.23061">
        <ele>1394</ele>
        <time>2023-04-21T11:28:10.000Z</time>
      </trkpt>
      <trkpt lat="44.51308" lon="6.23061">
        <ele>1394</ele>
        <time>2023-04-21T11:28:11.000Z</time>
      </trkpt>
      <trkpt lat="44.51308" lon="6.23061">
        <ele>1394</ele>
        <time>2023-04-21T11:28:12.000Z</time>
      </trkpt>
      <trkpt lat="44.51308" lon="6.23062">
        <ele>1394</ele>
        <time>2023-04-21T11:28:13.000Z</time>
      </trkpt>
      <trkpt lat="44.51308" lon="6.23062">
        <ele>1394</ele>
        <time>2023-04-21T11:28:14.000Z</time>
      </trkpt>
      <trkpt lat="44.51308" lon="6.23062">
        <ele>1394</ele>
        <time>2023-04-21T11:28:15.000Z</time>
      </trkpt>
      <trkpt lat="44.51308" lon="6.23062">
        <ele>1394</ele>
        <time>2023-04-21T11:28:16.000Z</time>
      </trkpt>
      <trkpt lat="44.51308" lon="6.23062">
        <ele>1394</ele>
        <time>2023-04-21T11:28:17.000Z</time>
      </trkpt>
      <trkpt lat="44.51308" lon="6.23062">
        <ele>1394</ele>
        <time>2023-04-21T11:28:18.000Z</time>
      </trkpt>
      <trkpt lat="44.51308" lon="6.23062">
        <ele>1394</ele>
        <time>2023-04-21T11:28:19.000Z</time>
      </trkpt>
      <trkpt lat="44.51308" lon="6.23062">
        <ele>1394</ele>
        <time>2023-04-21T11:28:20.000Z</time>
      </trkpt>
      <trkpt lat="44.51308" lon="6.23062">
        <ele>1394</ele>
        <time>2023-04-21T11:28:21.000Z</time>
      </trkpt>
      <trkpt lat="44.51308" lon="6.23062">
        <ele>1394</ele>
        <time>2023-04-21T11:28:22.000Z</time>
      </trkpt>
      <trkpt lat="44.51308" lon="6.23062">
        <ele>1394</ele>
        <time>2023-04-21T11:28:23.000Z</time>
      </trkpt>
      <trkpt lat="44.51308" lon="6.23063">
        <ele>1394</ele>
        <time>2023-04-21T11:28:24.000Z</time>
      </trkpt>
      <trkpt lat="44.51308" lon="6.23063">
        <ele>1394</ele>
        <time>2023-04-21T11:28:25.000Z</time>
      </trkpt>
      <trkpt lat="44.51308" lon="6.23063">
        <ele>1395</ele>
        <time>2023-04-21T11:28:26.000Z</time>
      </trkpt>
      <trkpt lat="44.51308" lon="6.23063">
        <ele>1395</ele>
        <time>2023-04-21T11:28:27.000Z</time>
      </trkpt>
      <trkpt lat="44.51308" lon="6.23063">
        <ele>1395</ele>
        <time>2023-04-21T11:28:28.000Z</time>
      </trkpt>
      <trkpt lat="44.51308" lon="6.23063">
        <ele>1395</ele>
        <time>2023-04-21T11:28:29.000Z</time>
      </trkpt>
      <trkpt lat="44.51308" lon="6.23063">
        <ele>1395</ele>
        <time>2023-04-21T11:28:30.000Z</time>
      </trkpt>
      <trkpt lat="44.51308" lon="6.23063">
        <ele>1395</ele>
        <time>2023-04-21T11:28:31.000Z</time>
      </trkpt>
      <trkpt lat="44.51308" lon="6.23063">
        <ele>1395</ele>
        <time>2023-04-21T11:28:32.000Z</time>
      </trkpt>
      <trkpt lat="44.51308" lon="6.23063">
        <ele>1394</ele>
        <time>2023-04-21T11:28:33.000Z</time>
      </trkpt>
      <trkpt lat="44.51308" lon="6.23063">
        <ele>1394</ele>
        <time>2023-04-21T11:28:34.000Z</time>
      </trkpt>
      <trkpt lat="44.51308" lon="6.23063">
        <ele>1394</ele>
        <time>2023-04-21T11:28:35.000Z</time>
      </trkpt>
      <trkpt lat="44.51308" lon="6.23063">
        <ele>1394</ele>
        <time>2023-04-21T11:28:36.000Z</time>
      </trkpt>
      <trkpt lat="44.51308" lon="6.23063">
        <ele>1394</ele>
        <time>2023-04-21T11:28:37.000Z</time>
      </trkpt>
      <trkpt lat="44.51308" lon="6.23063">
        <ele>1394</ele>
        <time>2023-04-21T11:28:38.000Z</time>
      </trkpt>
      <trkpt lat="44.51308" lon="6.23063">
        <ele>1394</ele>
        <time>2023-04-21T11:28:39.000Z</time>
      </trkpt>
      <trkpt lat="44.51308" lon="6.23063">
        <ele>1394</ele>
        <time>2023-04-21T11:28:40.000Z</time>
      </trkpt>
      <trkpt lat="44.51308" lon="6.23063">
        <ele>1393</ele>
        <time>2023-04-21T11:28:41.000Z</time>
      </trkpt>
      <trkpt lat="44.51308" lon="6.23063">
        <ele>1393</ele>
        <time>2023-04-21T11:28:42.000Z</time>
      </trkpt>
      <trkpt lat="44.51308" lon="6.23062">
        <ele>1393</ele>
        <time>2023-04-21T11:28:43.000Z</time>
      </trkpt>
      <trkpt lat="44.51308" lon="6.23062">
        <ele>1393</ele>
        <time>2023-04-21T11:28:44.000Z</time>
      </trkpt>
      <trkpt lat="44.51308" lon="6.23062">
        <ele>1393</ele>
        <time>2023-04-21T11:28:45.000Z</time>
      </trkpt>
      <trkpt lat="44.51308" lon="6.23062">
        <ele>1393</ele>
        <time>2023-04-21T11:28:46.000Z</time>
      </trkpt>
      <trkpt lat="44.51308" lon="6.23062">
        <ele>1393</ele>
        <time>2023-04-21T11:28:47.000Z</time>
      </trkpt>
      <trkpt lat="44.51308" lon="6.23062">
        <ele>1393</ele>
        <time>2023-04-21T11:28:48.000Z</time>
      </trkpt>
      <trkpt lat="44.51308" lon="6.23062">
        <ele>1393</ele>
        <time>2023-04-21T11:28:49.000Z</time>
      </trkpt>
      <trkpt lat="44.51308" lon="6.23062">
        <ele>1393</ele>
        <time>2023-04-21T11:28:50.000Z</time>
      </trkpt>
      <trkpt lat="44.51308" lon="6.23062">
        <ele>1393</ele>
        <time>2023-04-21T11:28:51.000Z</time>
      </trkpt>
      <trkpt lat="44.51308" lon="6.23062">
        <ele>1393</ele>
        <time>2023-04-21T11:28:52.000Z</time>
      </trkpt>
      <trkpt lat="44.51308" lon="6.23062">
        <ele>1393</ele>
        <time>2023-04-21T11:28:53.000Z</time>
      </trkpt>
      <trkpt lat="44.51308" lon="6.23061">
        <ele>1394</ele>
        <time>2023-04-21T11:28:54.000Z</time>
      </trkpt>
      <trkpt lat="44.51308" lon="6.23061">
        <ele>1394</ele>
        <time>2023-04-21T11:28:55.000Z</time>
      </trkpt>
      <trkpt lat="44.51308" lon="6.23061">
        <ele>1394</ele>
        <time>2023-04-21T11:28:56.000Z</time>
      </trkpt>
      <trkpt lat="44.51308" lon="6.23061">
        <ele>1394</ele>
        <time>2023-04-21T11:28:57.000Z</time>
      </trkpt>
      <trkpt lat="44.51308" lon="6.23061">
        <ele>1395</ele>
        <time>2023-04-21T11:28:58.000Z</time>
      </trkpt>
      <trkpt lat="44.51308" lon="6.23061">
        <ele>1395</ele>
        <time>2023-04-21T11:28:59.000Z</time>
      </trkpt>
      <trkpt lat="44.51308" lon="6.23061">
        <ele>1395</ele>
        <time>2023-04-21T11:29:00.000Z</time>
      </trkpt>
      <trkpt lat="44.51308" lon="6.2306">
        <ele>1395</ele>
        <time>2023-04-21T11:29:01.000Z</time>
      </trkpt>
      <trkpt lat="44.51308" lon="6.2306">
        <ele>1395</ele>
        <time>2023-04-21T11:29:02.000Z</time>
      </trkpt>
      <trkpt lat="44.51308" lon="6.2306">
        <ele>1396</ele>
        <time>2023-04-21T11:29:03.000Z</time>
      </trkpt>
      <trkpt lat="44.51308" lon="6.2306">
        <ele>1396</ele>
        <time>2023-04-21T11:29:04.000Z</time>
      </trkpt>
      <trkpt lat="44.51308" lon="6.2306">
        <ele>1396</ele>
        <time>2023-04-21T11:29:05.000Z</time>
      </trkpt>
      <trkpt lat="44.51308" lon="6.2306">
        <ele>1396</ele>
        <time>2023-04-21T11:29:06.000Z</time>
      </trkpt>
      <trkpt lat="44.51308" lon="6.2306">
        <ele>1396</ele>
        <time>2023-04-21T11:29:07.000Z</time>
      </trkpt>
      <trkpt lat="44.51308" lon="6.2306">
        <ele>1397</ele>
        <time>2023-04-21T11:29:08.000Z</time>
      </trkpt>
      <trkpt lat="44.51308" lon="6.2306">
        <ele>1397</ele>
        <time>2023-04-21T11:29:09.000Z</time>
      </trkpt>
      <trkpt lat="44.51308" lon="6.2306">
        <ele>1397</ele>
        <time>2023-04-21T11:29:10.000Z</time>
      </trkpt>
      <trkpt lat="44.51308" lon="6.2306">
        <ele>1398</ele>
        <time>2023-04-21T11:29:11.000Z</time>
      </trkpt>
      <trkpt lat="44.51308" lon="6.2306">
        <ele>1398</ele>
        <time>2023-04-21T11:29:12.000Z</time>
      </trkpt>
      <trkpt lat="44.51308" lon="6.2306">
        <ele>1398</ele>
        <time>2023-04-21T11:29:13.000Z</time>
      </trkpt>
      <trkpt lat="44.51308" lon="6.2306">
        <ele>1398</ele>
        <time>2023-04-21T11:29:14.000Z</time>
      </trkpt>
      <trkpt lat="44.51308" lon="6.2306">
        <ele>1398</ele>
        <time>2023-04-21T11:29:15.000Z</time>
      </trkpt>
      <trkpt lat="44.51308" lon="6.2306">
        <ele>1398</ele>
        <time>2023-04-21T11:29:16.000Z</time>
      </trkpt>
      <trkpt lat="44.51308" lon="6.2306">
        <ele>1399</ele>
        <time>2023-04-21T11:29:17.000Z</time>
      </trkpt>
      <trkpt lat="44.51308" lon="6.2306">
        <ele>1399</ele>
        <time>2023-04-21T11:29:18.000Z</time>
      </trkpt>
      <trkpt lat="44.51308" lon="6.23059">
        <ele>1399</ele>
        <time>2023-04-21T11:29:19.000Z</time>
      </trkpt>
      <trkpt lat="44.51308" lon="6.23059">
        <ele>1400</ele>
        <time>2023-04-21T11:29:20.000Z</time>
      </trkpt>
      <trkpt lat="44.51308" lon="6.23059">
        <ele>1400</ele>
        <time>2023-04-21T11:29:21.000Z</time>
      </trkpt>
      <trkpt lat="44.51308" lon="6.23059">
        <ele>1401</ele>
        <time>2023-04-21T11:29:22.000Z</time>
      </trkpt>
      <trkpt lat="44.51308" lon="6.23059">
        <ele>1401</ele>
        <time>2023-04-21T11:29:23.000Z</time>
      </trkpt>
      <trkpt lat="44.51308" lon="6.23058">
        <ele>1401</ele>
        <time>2023-04-21T11:29:24.000Z</time>
      </trkpt>
      <trkpt lat="44.51308" lon="6.23058">
        <ele>1401</ele>
        <time>2023-04-21T11:29:25.000Z</time>
      </trkpt>
      <trkpt lat="44.51308" lon="6.23058">
        <ele>1402</ele>
        <time>2023-04-21T11:29:26.000Z</time>
      </trkpt>
      <trkpt lat="44.51308" lon="6.23058">
        <ele>1402</ele>
        <time>2023-04-21T11:29:27.000Z</time>
      </trkpt>
      <trkpt lat="44.51308" lon="6.23058">
        <ele>1402</ele>
        <time>2023-04-21T11:29:28.000Z</time>
      </trkpt>
      <trkpt lat="44.51308" lon="6.23058">
        <ele>1402</ele>
        <time>2023-04-21T11:29:29.000Z</time>
      </trkpt>
      <trkpt lat="44.51308" lon="6.23058">
        <ele>1402</ele>
        <time>2023-04-21T11:29:30.000Z</time>
      </trkpt>
      <trkpt lat="44.51309" lon="6.23058">
        <ele>1402</ele>
        <time>2023-04-21T11:29:31.000Z</time>
      </trkpt>
      <trkpt lat="44.51309" lon="6.23058">
        <ele>1402</ele>
        <time>2023-04-21T11:29:32.000Z</time>
      </trkpt>
      <trkpt lat="44.51309" lon="6.23058">
        <ele>1402</ele>
        <time>2023-04-21T11:29:33.000Z</time>
      </trkpt>
      <trkpt lat="44.51309" lon="6.23058">
        <ele>1402</ele>
        <time>2023-04-21T11:29:34.000Z</time>
      </trkpt>
      <trkpt lat="44.51309" lon="6.23058">
        <ele>1402</ele>
        <time>2023-04-21T11:29:35.000Z</time>
      </trkpt>
      <trkpt lat="44.51309" lon="6.23058">
        <ele>1402</ele>
        <time>2023-04-21T11:29:36.000Z</time>
      </trkpt>
      <trkpt lat="44.51309" lon="6.23058">
        <ele>1402</ele>
        <time>2023-04-21T11:29:37.000Z</time>
      </trkpt>
      <trkpt lat="44.51309" lon="6.23058">
        <ele>1402</ele>
        <time>2023-04-21T11:29:38.000Z</time>
      </trkpt>
      <trkpt lat="44.51309" lon="6.23058">
        <ele>1402</ele>
        <time>2023-04-21T11:29:39.000Z</time>
      </trkpt>
      <trkpt lat="44.51309" lon="6.23058">
        <ele>1401</ele>
        <time>2023-04-21T11:29:40.000Z</time>
      </trkpt>
      <trkpt lat="44.51309" lon="6.23058">
        <ele>1401</ele>
        <time>2023-04-21T11:29:41.000Z</time>
      </trkpt>
      <trkpt lat="44.51309" lon="6.23058">
        <ele>1401</ele>
        <time>2023-04-21T11:29:42.000Z</time>
      </trkpt>
      <trkpt lat="44.51309" lon="6.23058">
        <ele>1401</ele>
        <time>2023-04-21T11:29:43.000Z</time>
      </trkpt>
      <trkpt lat="44.51309" lon="6.23058">
        <ele>1401</ele>
        <time>2023-04-21T11:29:44.000Z</time>
      </trkpt>
      <trkpt lat="44.51309" lon="6.23058">
        <ele>1401</ele>
        <time>2023-04-21T11:29:45.000Z</time>
      </trkpt>
      <trkpt lat="44.51309" lon="6.23058">
        <ele>1401</ele>
        <time>2023-04-21T11:29:46.000Z</time>
      </trkpt>
      <trkpt lat="44.51309" lon="6.23058">
        <ele>1401</ele>
        <time>2023-04-21T11:29:47.000Z</time>
      </trkpt>
      <trkpt lat="44.51309" lon="6.23058">
        <ele>1400</ele>
        <time>2023-04-21T11:29:48.000Z</time>
      </trkpt>
      <trkpt lat="44.51309" lon="6.23058">
        <ele>1400</ele>
        <time>2023-04-21T11:29:49.000Z</time>
      </trkpt>
      <trkpt lat="44.51309" lon="6.23058">
        <ele>1400</ele>
        <time>2023-04-21T11:29:50.000Z</time>
      </trkpt>
      <trkpt lat="44.51309" lon="6.23058">
        <ele>1400</ele>
        <time>2023-04-21T11:29:51.000Z</time>
      </trkpt>
      <trkpt lat="44.51309" lon="6.23058">
        <ele>1399</ele>
        <time>2023-04-21T11:29:52.000Z</time>
      </trkpt>
      <trkpt lat="44.51309" lon="6.23058">
        <ele>1399</ele>
        <time>2023-04-21T11:29:53.000Z</time>
      </trkpt>
      <trkpt lat="44.51309" lon="6.23058">
        <ele>1399</ele>
        <time>2023-04-21T11:29:54.000Z</time>
      </trkpt>
      <trkpt lat="44.51308" lon="6.23058">
        <ele>1398</ele>
        <time>2023-04-21T11:29:55.000Z</time>
      </trkpt>
      <trkpt lat="44.51308" lon="6.23058">
        <ele>1398</ele>
        <time>2023-04-21T11:29:56.000Z</time>
      </trkpt>
      <trkpt lat="44.51308" lon="6.23058">
        <ele>1397</ele>
        <time>2023-04-21T11:29:57.000Z</time>
      </trkpt>
      <trkpt lat="44.51308" lon="6.23058">
        <ele>1397</ele>
        <time>2023-04-21T11:29:58.000Z</time>
      </trkpt>
      <trkpt lat="44.51308" lon="6.23058">
        <ele>1397</ele>
        <time>2023-04-21T11:29:59.000Z</time>
      </trkpt>
      <trkpt lat="44.51308" lon="6.23058">
        <ele>1396</ele>
        <time>2023-04-21T11:30:00.000Z</time>
      </trkpt>
      <trkpt lat="44.51308" lon="6.23058">
        <ele>1396</ele>
        <time>2023-04-21T11:30:01.000Z</time>
      </trkpt>
      <trkpt lat="44.51308" lon="6.23058">
        <ele>1396</ele>
        <time>2023-04-21T11:30:02.000Z</time>
      </trkpt>
      <trkpt lat="44.51308" lon="6.23059">
        <ele>1396</ele>
        <time>2023-04-21T11:30:03.000Z</time>
      </trkpt>
      <trkpt lat="44.51308" lon="6.23058">
        <ele>1396</ele>
        <time>2023-04-21T11:30:04.000Z</time>
      </trkpt>
      <trkpt lat="44.51309" lon="6.23058">
        <ele>1396</ele>
        <time>2023-04-21T11:30:05.000Z</time>
      </trkpt>
      <trkpt lat="44.51309" lon="6.23058">
        <ele>1396</ele>
        <time>2023-04-21T11:30:06.000Z</time>
      </trkpt>
      <trkpt lat="44.51309" lon="6.23059">
        <ele>1396</ele>
        <time>2023-04-21T11:30:07.000Z</time>
      </trkpt>
      <trkpt lat="44.51309" lon="6.23059">
        <ele>1395</ele>
        <time>2023-04-21T11:30:08.000Z</time>
      </trkpt>
      <trkpt lat="44.51309" lon="6.23059">
        <ele>1396</ele>
        <time>2023-04-21T11:30:09.000Z</time>
      </trkpt>
      <trkpt lat="44.51309" lon="6.23059">
        <ele>1395</ele>
        <time>2023-04-21T11:30:10.000Z</time>
      </trkpt>
      <trkpt lat="44.51309" lon="6.23059">
        <ele>1395</ele>
        <time>2023-04-21T11:30:11.000Z</time>
      </trkpt>
      <trkpt lat="44.51309" lon="6.23059">
        <ele>1395</ele>
        <time>2023-04-21T11:30:12.000Z</time>
      </trkpt>
      <trkpt lat="44.51309" lon="6.23059">
        <ele>1395</ele>
        <time>2023-04-21T11:30:13.000Z</time>
      </trkpt>
      <trkpt lat="44.51309" lon="6.23059">
        <ele>1395</ele>
        <time>2023-04-21T11:30:14.000Z</time>
      </trkpt>
      <trkpt lat="44.51309" lon="6.23059">
        <ele>1395</ele>
        <time>2023-04-21T11:30:15.000Z</time>
      </trkpt>
      <trkpt lat="44.51309" lon="6.23059">
        <ele>1395</ele>
        <time>2023-04-21T11:30:16.000Z</time>
      </trkpt>
      <trkpt lat="44.51309" lon="6.23059">
        <ele>1395</ele>
        <time>2023-04-21T11:30:17.000Z</time>
      </trkpt>
      <trkpt lat="44.5131" lon="6.23059">
        <ele>1395</ele>
        <time>2023-04-21T11:30:18.000Z</time>
      </trkpt>
      <trkpt lat="44.5131" lon="6.23059">
        <ele>1395</ele>
        <time>2023-04-21T11:30:19.000Z</time>
      </trkpt>
      <trkpt lat="44.5131" lon="6.23059">
        <ele>1396</ele>
        <time>2023-04-21T11:30:20.000Z</time>
      </trkpt>
      <trkpt lat="44.5131" lon="6.23059">
        <ele>1396</ele>
        <time>2023-04-21T11:30:21.000Z</time>
      </trkpt>
      <trkpt lat="44.5131" lon="6.23059">
        <ele>1396</ele>
        <time>2023-04-21T11:30:22.000Z</time>
      </trkpt>
      <trkpt lat="44.5131" lon="6.23059">
        <ele>1396</ele>
        <time>2023-04-21T11:30:23.000Z</time>
      </trkpt>
      <trkpt lat="44.5131" lon="6.23059">
        <ele>1396</ele>
        <time>2023-04-21T11:30:24.000Z</time>
      </trkpt>
      <trkpt lat="44.5131" lon="6.23059">
        <ele>1396</ele>
        <time>2023-04-21T11:30:25.000Z</time>
      </trkpt>
      <trkpt lat="44.5131" lon="6.23059">
        <ele>1397</ele>
        <time>2023-04-21T11:30:26.000Z</time>
      </trkpt>
      <trkpt lat="44.5131" lon="6.23059">
        <ele>1397</ele>
        <time>2023-04-21T11:30:27.000Z</time>
      </trkpt>
      <trkpt lat="44.5131" lon="6.23059">
        <ele>1397</ele>
        <time>2023-04-21T11:30:28.000Z</time>
      </trkpt>
      <trkpt lat="44.5131" lon="6.23059">
        <ele>1397</ele>
        <time>2023-04-21T11:30:29.000Z</time>
      </trkpt>
      <trkpt lat="44.5131" lon="6.23059">
        <ele>1398</ele>
        <time>2023-04-21T11:30:30.000Z</time>
      </trkpt>
      <trkpt lat="44.5131" lon="6.23059">
        <ele>1398</ele>
        <time>2023-04-21T11:30:31.000Z</time>
      </trkpt>
      <trkpt lat="44.5131" lon="6.23059">
        <ele>1398</ele>
        <time>2023-04-21T11:30:32.000Z</time>
      </trkpt>
      <trkpt lat="44.5131" lon="6.23059">
        <ele>1398</ele>
        <time>2023-04-21T11:30:33.000Z</time>
      </trkpt>
      <trkpt lat="44.5131" lon="6.23059">
        <ele>1398</ele>
        <time>2023-04-21T11:30:34.000Z</time>
      </trkpt>
      <trkpt lat="44.5131" lon="6.23059">
        <ele>1398</ele>
        <time>2023-04-21T11:30:35.000Z</time>
      </trkpt>
      <trkpt lat="44.5131" lon="6.23059">
        <ele>1398</ele>
        <time>2023-04-21T11:30:36.000Z</time>
      </trkpt>
      <trkpt lat="44.5131" lon="6.23059">
        <ele>1398</ele>
        <time>2023-04-21T11:30:37.000Z</time>
      </trkpt>
      <trkpt lat="44.5131" lon="6.23059">
        <ele>1398</ele>
        <time>2023-04-21T11:30:38.000Z</time>
      </trkpt>
      <trkpt lat="44.51309" lon="6.23059">
        <ele>1398</ele>
        <time>2023-04-21T11:30:39.000Z</time>
      </trkpt>
      <trkpt lat="44.51309" lon="6.23059">
        <ele>1398</ele>
        <time>2023-04-21T11:30:40.000Z</time>
      </trkpt>
      <trkpt lat="44.51309" lon="6.23059">
        <ele>1398</ele>
        <time>2023-04-21T11:30:41.000Z</time>
      </trkpt>
      <trkpt lat="44.51309" lon="6.23059">
        <ele>1398</ele>
        <time>2023-04-21T11:30:42.000Z</time>
      </trkpt>
      <trkpt lat="44.51309" lon="6.23059">
        <ele>1398</ele>
        <time>2023-04-21T11:30:43.000Z</time>
      </trkpt>
      <trkpt lat="44.51309" lon="6.23059">
        <ele>1398</ele>
        <time>2023-04-21T11:30:44.000Z</time>
      </trkpt>
      <trkpt lat="44.51309" lon="6.23059">
        <ele>1398</ele>
        <time>2023-04-21T11:30:45.000Z</time>
      </trkpt>
      <trkpt lat="44.51309" lon="6.23059">
        <ele>1398</ele>
        <time>2023-04-21T11:30:46.000Z</time>
      </trkpt>
      <trkpt lat="44.51309" lon="6.23059">
        <ele>1398</ele>
        <time>2023-04-21T11:30:47.000Z</time>
      </trkpt>
      <trkpt lat="44.51309" lon="6.23059">
        <ele>1398</ele>
        <time>2023-04-21T11:30:48.000Z</time>
      </trkpt>
      <trkpt lat="44.51309" lon="6.23059">
        <ele>1398</ele>
        <time>2023-04-21T11:30:49.000Z</time>
      </trkpt>
      <trkpt lat="44.51309" lon="6.23059">
        <ele>1398</ele>
        <time>2023-04-21T11:30:50.000Z</time>
      </trkpt>
      <trkpt lat="44.51309" lon="6.23059">
        <ele>1398</ele>
        <time>2023-04-21T11:30:51.000Z</time>
      </trkpt>
      <trkpt lat="44.51308" lon="6.23059">
        <ele>1398</ele>
        <time>2023-04-21T11:30:52.000Z</time>
      </trkpt>
      <trkpt lat="44.51308" lon="6.23059">
        <ele>1398</ele>
        <time>2023-04-21T11:30:53.000Z</time>
      </trkpt>
      <trkpt lat="44.51308" lon="6.23059">
        <ele>1398</ele>
        <time>2023-04-21T11:30:54.000Z</time>
      </trkpt>
      <trkpt lat="44.51308" lon="6.23059">
        <ele>1398</ele>
        <time>2023-04-21T11:30:55.000Z</time>
      </trkpt>
      <trkpt lat="44.51308" lon="6.23059">
        <ele>1398</ele>
        <time>2023-04-21T11:30:56.000Z</time>
      </trkpt>
      <trkpt lat="44.51308" lon="6.23059">
        <ele>1398</ele>
        <time>2023-04-21T11:30:57.000Z</time>
      </trkpt>
      <trkpt lat="44.51308" lon="6.23059">
        <ele>1398</ele>
        <time>2023-04-21T11:30:58.000Z</time>
      </trkpt>
      <trkpt lat="44.51308" lon="6.23059">
        <ele>1398</ele>
        <time>2023-04-21T11:30:59.000Z</time>
      </trkpt>
      <trkpt lat="44.51308" lon="6.23059">
        <ele>1398</ele>
        <time>2023-04-21T11:31:00.000Z</time>
      </trkpt>
      <trkpt lat="44.51308" lon="6.23059">
        <ele>1398</ele>
        <time>2023-04-21T11:31:01.000Z</time>
      </trkpt>
      <trkpt lat="44.51308" lon="6.2306">
        <ele>1398</ele>
        <time>2023-04-21T11:31:02.000Z</time>
      </trkpt>
      <trkpt lat="44.51308" lon="6.2306">
        <ele>1399</ele>
        <time>2023-04-21T11:31:03.000Z</time>
      </trkpt>
      <trkpt lat="44.51308" lon="6.2306">
        <ele>1399</ele>
        <time>2023-04-21T11:31:04.000Z</time>
      </trkpt>
      <trkpt lat="44.51308" lon="6.2306">
        <ele>1399</ele>
        <time>2023-04-21T11:31:05.000Z</time>
      </trkpt>
      <trkpt lat="44.51308" lon="6.2306">
        <ele>1399</ele>
        <time>2023-04-21T11:31:06.000Z</time>
      </trkpt>
      <trkpt lat="44.51308" lon="6.2306">
        <ele>1399</ele>
        <time>2023-04-21T11:31:07.000Z</time>
      </trkpt>
      <trkpt lat="44.51308" lon="6.2306">
        <ele>1399</ele>
        <time>2023-04-21T11:31:08.000Z</time>
      </trkpt>
      <trkpt lat="44.51308" lon="6.2306">
        <ele>1399</ele>
        <time>2023-04-21T11:31:09.000Z</time>
      </trkpt>
      <trkpt lat="44.51308" lon="6.2306">
        <ele>1399</ele>
        <time>2023-04-21T11:31:10.000Z</time>
      </trkpt>
      <trkpt lat="44.51308" lon="6.2306">
        <ele>1399</ele>
        <time>2023-04-21T11:31:11.000Z</time>
      </trkpt>
      <trkpt lat="44.51308" lon="6.2306">
        <ele>1400</ele>
        <time>2023-04-21T11:31:12.000Z</time>
      </trkpt>
      <trkpt lat="44.51308" lon="6.2306">
        <ele>1400</ele>
        <time>2023-04-21T11:31:13.000Z</time>
      </trkpt>
      <trkpt lat="44.51308" lon="6.2306">
        <ele>1400</ele>
        <time>2023-04-21T11:31:14.000Z</time>
      </trkpt>
      <trkpt lat="44.51308" lon="6.2306">
        <ele>1400</ele>
        <time>2023-04-21T11:31:15.000Z</time>
      </trkpt>
      <trkpt lat="44.51308" lon="6.2306">
        <ele>1400</ele>
        <time>2023-04-21T11:31:16.000Z</time>
      </trkpt>
      <trkpt lat="44.51308" lon="6.2306">
        <ele>1400</ele>
        <time>2023-04-21T11:31:17.000Z</time>
      </trkpt>
      <trkpt lat="44.51308" lon="6.23059">
        <ele>1401</ele>
        <time>2023-04-21T11:31:18.000Z</time>
      </trkpt>
      <trkpt lat="44.51308" lon="6.23059">
        <ele>1401</ele>
        <time>2023-04-21T11:31:19.000Z</time>
      </trkpt>
      <trkpt lat="44.51308" lon="6.23059">
        <ele>1401</ele>
        <time>2023-04-21T11:31:20.000Z</time>
      </trkpt>
      <trkpt lat="44.51308" lon="6.23059">
        <ele>1401</ele>
        <time>2023-04-21T11:31:21.000Z</time>
      </trkpt>
      <trkpt lat="44.51308" lon="6.23059">
        <ele>1401</ele>
        <time>2023-04-21T11:31:22.000Z</time>
      </trkpt>
      <trkpt lat="44.51309" lon="6.23059">
        <ele>1402</ele>
        <time>2023-04-21T11:31:23.000Z</time>
      </trkpt>
      <trkpt lat="44.51309" lon="6.23059">
        <ele>1402</ele>
        <time>2023-04-21T11:31:24.000Z</time>
      </trkpt>
      <trkpt lat="44.51309" lon="6.23059">
        <ele>1402</ele>
        <time>2023-04-21T11:31:25.000Z</time>
      </trkpt>
      <trkpt lat="44.51309" lon="6.23059">
        <ele>1402</ele>
        <time>2023-04-21T11:31:26.000Z</time>
      </trkpt>
      <trkpt lat="44.51309" lon="6.23059">
        <ele>1402</ele>
        <time>2023-04-21T11:31:27.000Z</time>
      </trkpt>
      <trkpt lat="44.51309" lon="6.23059">
        <ele>1402</ele>
        <time>2023-04-21T11:31:28.000Z</time>
      </trkpt>
      <trkpt lat="44.51309" lon="6.23058">
        <ele>1403</ele>
        <time>2023-04-21T11:31:29.000Z</time>
      </trkpt>
      <trkpt lat="44.51309" lon="6.23058">
        <ele>1403</ele>
        <time>2023-04-21T11:31:30.000Z</time>
      </trkpt>
      <trkpt lat="44.51309" lon="6.23058">
        <ele>1403</ele>
        <time>2023-04-21T11:31:31.000Z</time>
      </trkpt>
      <trkpt lat="44.51309" lon="6.23058">
        <ele>1402</ele>
        <time>2023-04-21T11:31:32.000Z</time>
      </trkpt>
      <trkpt lat="44.51309" lon="6.23058">
        <ele>1402</ele>
        <time>2023-04-21T11:31:33.000Z</time>
      </trkpt>
      <trkpt lat="44.51309" lon="6.23058">
        <ele>1402</ele>
        <time>2023-04-21T11:31:34.000Z</time>
      </trkpt>
      <trkpt lat="44.51309" lon="6.23058">
        <ele>1402</ele>
        <time>2023-04-21T11:31:35.000Z</time>
      </trkpt>
      <trkpt lat="44.51309" lon="6.23058">
        <ele>1401</ele>
        <time>2023-04-21T11:31:36.000Z</time>
      </trkpt>
      <trkpt lat="44.51309" lon="6.23058">
        <ele>1401</ele>
        <time>2023-04-21T11:31:37.000Z</time>
      </trkpt>
      <trkpt lat="44.51309" lon="6.23058">
        <ele>1401</ele>
        <time>2023-04-21T11:31:38.000Z</time>
      </trkpt>
      <trkpt lat="44.51309" lon="6.23058">
        <ele>1401</ele>
        <time>2023-04-21T11:31:39.000Z</time>
      </trkpt>
      <trkpt lat="44.51309" lon="6.23058">
        <ele>1401</ele>
        <time>2023-04-21T11:31:40.000Z</time>
      </trkpt>
      <trkpt lat="44.51309" lon="6.23058">
        <ele>1401</ele>
        <time>2023-04-21T11:31:41.000Z</time>
      </trkpt>
      <trkpt lat="44.51309" lon="6.23058">
        <ele>1401</ele>
        <time>2023-04-21T11:31:42.000Z</time>
      </trkpt>
      <trkpt lat="44.51309" lon="6.23058">
        <ele>1401</ele>
        <time>2023-04-21T11:31:43.000Z</time>
      </trkpt>
      <trkpt lat="44.51309" lon="6.23058">
        <ele>1402</ele>
        <time>2023-04-21T11:31:44.000Z</time>
      </trkpt>
      <trkpt lat="44.51309" lon="6.23058">
        <ele>1402</ele>
        <time>2023-04-21T11:31:45.000Z</time>
      </trkpt>
      <trkpt lat="44.51309" lon="6.23058">
        <ele>1402</ele>
        <time>2023-04-21T11:31:46.000Z</time>
      </trkpt>
      <trkpt lat="44.51308" lon="6.23058">
        <ele>1402</ele>
        <time>2023-04-21T11:31:47.000Z</time>
      </trkpt>
      <trkpt lat="44.51308" lon="6.23058">
        <ele>1402</ele>
        <time>2023-04-21T11:31:48.000Z</time>
      </trkpt>
      <trkpt lat="44.51308" lon="6.23058">
        <ele>1402</ele>
        <time>2023-04-21T11:31:49.000Z</time>
      </trkpt>
      <trkpt lat="44.51308" lon="6.23058">
        <ele>1402</ele>
        <time>2023-04-21T11:31:50.000Z</time>
      </trkpt>
      <trkpt lat="44.51308" lon="6.23058">
        <ele>1402</ele>
        <time>2023-04-21T11:31:51.000Z</time>
      </trkpt>
      <trkpt lat="44.51308" lon="6.23058">
        <ele>1402</ele>
        <time>2023-04-21T11:31:52.000Z</time>
      </trkpt>
      <trkpt lat="44.51308" lon="6.23058">
        <ele>1402</ele>
        <time>2023-04-21T11:31:53.000Z</time>
      </trkpt>
      <trkpt lat="44.51308" lon="6.23058">
        <ele>1402</ele>
        <time>2023-04-21T11:31:54.000Z</time>
      </trkpt>
      <trkpt lat="44.51308" lon="6.23058">
        <ele>1402</ele>
        <time>2023-04-21T11:31:55.000Z</time>
      </trkpt>
      <trkpt lat="44.51308" lon="6.23058">
        <ele>1402</ele>
        <time>2023-04-21T11:31:56.000Z</time>
      </trkpt>
      <trkpt lat="44.51308" lon="6.23059">
        <ele>1402</ele>
        <time>2023-04-21T11:31:57.000Z</time>
      </trkpt>
      <trkpt lat="44.51308" lon="6.23059">
        <ele>1402</ele>
        <time>2023-04-21T11:31:58.000Z</time>
      </trkpt>
      <trkpt lat="44.51308" lon="6.23059">
        <ele>1401</ele>
        <time>2023-04-21T11:31:59.000Z</time>
      </trkpt>
      <trkpt lat="44.51308" lon="6.23059">
        <ele>1401</ele>
        <time>2023-04-21T11:32:00.000Z</time>
      </trkpt>
      <trkpt lat="44.51308" lon="6.23059">
        <ele>1401</ele>
        <time>2023-04-21T11:32:01.000Z</time>
      </trkpt>
      <trkpt lat="44.51308" lon="6.23059">
        <ele>1401</ele>
        <time>2023-04-21T11:32:02.000Z</time>
      </trkpt>
      <trkpt lat="44.51308" lon="6.23059">
        <ele>1401</ele>
        <time>2023-04-21T11:32:03.000Z</time>
      </trkpt>
      <trkpt lat="44.51308" lon="6.23059">
        <ele>1401</ele>
        <time>2023-04-21T11:32:04.000Z</time>
      </trkpt>
      <trkpt lat="44.51308" lon="6.23059">
        <ele>1402</ele>
        <time>2023-04-21T11:32:05.000Z</time>
      </trkpt>
      <trkpt lat="44.51308" lon="6.23059">
        <ele>1402</ele>
        <time>2023-04-21T11:32:06.000Z</time>
      </trkpt>
      <trkpt lat="44.51308" lon="6.23059">
        <ele>1402</ele>
        <time>2023-04-21T11:32:07.000Z</time>
      </trkpt>
      <trkpt lat="44.51308" lon="6.23059">
        <ele>1402</ele>
        <time>2023-04-21T11:32:08.000Z</time>
      </trkpt>
      <trkpt lat="44.51308" lon="6.23059">
        <ele>1402</ele>
        <time>2023-04-21T11:32:09.000Z</time>
      </trkpt>
      <trkpt lat="44.51308" lon="6.23059">
        <ele>1402</ele>
        <time>2023-04-21T11:32:10.000Z</time>
      </trkpt>
      <trkpt lat="44.51308" lon="6.23059">
        <ele>1402</ele>
        <time>2023-04-21T11:32:11.000Z</time>
      </trkpt>
      <trkpt lat="44.51307" lon="6.23059">
        <ele>1402</ele>
        <time>2023-04-21T11:32:12.000Z</time>
      </trkpt>
      <trkpt lat="44.51307" lon="6.23059">
        <ele>1402</ele>
        <time>2023-04-21T11:32:13.000Z</time>
      </trkpt>
      <trkpt lat="44.51307" lon="6.23059">
        <ele>1402</ele>
        <time>2023-04-21T11:32:14.000Z</time>
      </trkpt>
      <trkpt lat="44.51307" lon="6.23059">
        <ele>1402</ele>
        <time>2023-04-21T11:32:15.000Z</time>
      </trkpt>
      <trkpt lat="44.51307" lon="6.23059">
        <ele>1402</ele>
        <time>2023-04-21T11:32:16.000Z</time>
      </trkpt>
      <trkpt lat="44.51307" lon="6.23059">
        <ele>1402</ele>
        <time>2023-04-21T11:32:17.000Z</time>
      </trkpt>
      <trkpt lat="44.51307" lon="6.23058">
        <ele>1402</ele>
        <time>2023-04-21T11:32:18.000Z</time>
      </trkpt>
      <trkpt lat="44.51307" lon="6.23058">
        <ele>1402</ele>
        <time>2023-04-21T11:32:19.000Z</time>
      </trkpt>
      <trkpt lat="44.51307" lon="6.23058">
        <ele>1403</ele>
        <time>2023-04-21T11:32:20.000Z</time>
      </trkpt>
      <trkpt lat="44.51307" lon="6.23058">
        <ele>1403</ele>
        <time>2023-04-21T11:32:21.000Z</time>
      </trkpt>
      <trkpt lat="44.51307" lon="6.23058">
        <ele>1403</ele>
        <time>2023-04-21T11:32:22.000Z</time>
      </trkpt>
      <trkpt lat="44.51307" lon="6.23058">
        <ele>1403</ele>
        <time>2023-04-21T11:32:23.000Z</time>
      </trkpt>
      <trkpt lat="44.51307" lon="6.23058">
        <ele>1403</ele>
        <time>2023-04-21T11:32:24.000Z</time>
      </trkpt>
      <trkpt lat="44.51307" lon="6.23058">
        <ele>1402</ele>
        <time>2023-04-21T11:32:25.000Z</time>
      </trkpt>
      <trkpt lat="44.51307" lon="6.23058">
        <ele>1402</ele>
        <time>2023-04-21T11:32:26.000Z</time>
      </trkpt>
      <trkpt lat="44.51307" lon="6.23058">
        <ele>1402</ele>
        <time>2023-04-21T11:32:27.000Z</time>
      </trkpt>
      <trkpt lat="44.51307" lon="6.23058">
        <ele>1402</ele>
        <time>2023-04-21T11:32:28.000Z</time>
      </trkpt>
      <trkpt lat="44.51307" lon="6.23058">
        <ele>1402</ele>
        <time>2023-04-21T11:32:29.000Z</time>
      </trkpt>
      <trkpt lat="44.51307" lon="6.23058">
        <ele>1402</ele>
        <time>2023-04-21T11:32:30.000Z</time>
      </trkpt>
      <trkpt lat="44.51307" lon="6.23058">
        <ele>1402</ele>
        <time>2023-04-21T11:32:31.000Z</time>
      </trkpt>
      <trkpt lat="44.51307" lon="6.23058">
        <ele>1402</ele>
        <time>2023-04-21T11:32:32.000Z</time>
      </trkpt>
      <trkpt lat="44.51308" lon="6.23058">
        <ele>1402</ele>
        <time>2023-04-21T11:32:33.000Z</time>
      </trkpt>
      <trkpt lat="44.51308" lon="6.23058">
        <ele>1402</ele>
        <time>2023-04-21T11:32:34.000Z</time>
      </trkpt>
      <trkpt lat="44.51308" lon="6.23058">
        <ele>1402</ele>
        <time>2023-04-21T11:32:35.000Z</time>
      </trkpt>
      <trkpt lat="44.51308" lon="6.23058">
        <ele>1402</ele>
        <time>2023-04-21T11:32:36.000Z</time>
      </trkpt>
      <trkpt lat="44.51308" lon="6.23058">
        <ele>1402</ele>
        <time>2023-04-21T11:32:37.000Z</time>
      </trkpt>
      <trkpt lat="44.51308" lon="6.23058">
        <ele>1401</ele>
        <time>2023-04-21T11:32:38.000Z</time>
      </trkpt>
      <trkpt lat="44.51307" lon="6.23058">
        <ele>1401</ele>
        <time>2023-04-21T11:32:39.000Z</time>
      </trkpt>
      <trkpt lat="44.51307" lon="6.23058">
        <ele>1401</ele>
        <time>2023-04-21T11:32:40.000Z</time>
      </trkpt>
      <trkpt lat="44.51307" lon="6.23058">
        <ele>1401</ele>
        <time>2023-04-21T11:32:41.000Z</time>
      </trkpt>
      <trkpt lat="44.51307" lon="6.23058">
        <ele>1401</ele>
        <time>2023-04-21T11:32:42.000Z</time>
      </trkpt>
      <trkpt lat="44.51307" lon="6.23058">
        <ele>1401</ele>
        <time>2023-04-21T11:32:43.000Z</time>
      </trkpt>
      <trkpt lat="44.51307" lon="6.23058">
        <ele>1401</ele>
        <time>2023-04-21T11:32:44.000Z</time>
      </trkpt>
      <trkpt lat="44.51307" lon="6.23058">
        <ele>1401</ele>
        <time>2023-04-21T11:32:45.000Z</time>
      </trkpt>
      <trkpt lat="44.51308" lon="6.23058">
        <ele>1400</ele>
        <time>2023-04-21T11:32:46.000Z</time>
      </trkpt>
      <trkpt lat="44.51308" lon="6.23058">
        <ele>1400</ele>
        <time>2023-04-21T11:32:47.000Z</time>
      </trkpt>
      <trkpt lat="44.51308" lon="6.23058">
        <ele>1400</ele>
        <time>2023-04-21T11:32:48.000Z</time>
      </trkpt>
      <trkpt lat="44.51308" lon="6.23058">
        <ele>1400</ele>
        <time>2023-04-21T11:32:49.000Z</time>
      </trkpt>
      <trkpt lat="44.51308" lon="6.23058">
        <ele>1400</ele>
        <time>2023-04-21T11:32:50.000Z</time>
      </trkpt>
      <trkpt lat="44.51308" lon="6.23058">
        <ele>1400</ele>
        <time>2023-04-21T11:32:51.000Z</time>
      </trkpt>
      <trkpt lat="44.51308" lon="6.23058">
        <ele>1399</ele>
        <time>2023-04-21T11:32:52.000Z</time>
      </trkpt>
      <trkpt lat="44.51308" lon="6.23058">
        <ele>1399</ele>
        <time>2023-04-21T11:32:53.000Z</time>
      </trkpt>
      <trkpt lat="44.51308" lon="6.23058">
        <ele>1399</ele>
        <time>2023-04-21T11:32:54.000Z</time>
      </trkpt>
      <trkpt lat="44.51308" lon="6.23058">
        <ele>1399</ele>
        <time>2023-04-21T11:32:55.000Z</time>
      </trkpt>
      <trkpt lat="44.51308" lon="6.23058">
        <ele>1399</ele>
        <time>2023-04-21T11:32:56.000Z</time>
      </trkpt>
      <trkpt lat="44.51308" lon="6.23058">
        <ele>1399</ele>
        <time>2023-04-21T11:32:57.000Z</time>
      </trkpt>
      <trkpt lat="44.51308" lon="6.23058">
        <ele>1399</ele>
        <time>2023-04-21T11:32:58.000Z</time>
      </trkpt>
      <trkpt lat="44.51308" lon="6.23058">
        <ele>1399</ele>
        <time>2023-04-21T11:32:59.000Z</time>
      </trkpt>
      <trkpt lat="44.51308" lon="6.23058">
        <ele>1399</ele>
        <time>2023-04-21T11:33:00.000Z</time>
      </trkpt>
      <trkpt lat="44.51308" lon="6.23058">
        <ele>1399</ele>
        <time>2023-04-21T11:33:01.000Z</time>
      </trkpt>
      <trkpt lat="44.51308" lon="6.23058">
        <ele>1399</ele>
        <time>2023-04-21T11:33:02.000Z</time>
      </trkpt>
      <trkpt lat="44.51308" lon="6.23058">
        <ele>1399</ele>
        <time>2023-04-21T11:33:03.000Z</time>
      </trkpt>
      <trkpt lat="44.51308" lon="6.23058">
        <ele>1399</ele>
        <time>2023-04-21T11:33:04.000Z</time>
      </trkpt>
      <trkpt lat="44.51308" lon="6.23058">
        <ele>1400</ele>
        <time>2023-04-21T11:33:05.000Z</time>
      </trkpt>
      <trkpt lat="44.51308" lon="6.23058">
        <ele>1400</ele>
        <time>2023-04-21T11:33:06.000Z</time>
      </trkpt>
      <trkpt lat="44.51308" lon="6.23058">
        <ele>1400</ele>
        <time>2023-04-21T11:33:07.000Z</time>
      </trkpt>
      <trkpt lat="44.51308" lon="6.23058">
        <ele>1400</ele>
        <time>2023-04-21T11:33:08.000Z</time>
      </trkpt>
      <trkpt lat="44.51308" lon="6.23058">
        <ele>1400</ele>
        <time>2023-04-21T11:33:09.000Z</time>
      </trkpt>
      <trkpt lat="44.51308" lon="6.23058">
        <ele>1400</ele>
        <time>2023-04-21T11:33:10.000Z</time>
      </trkpt>
      <trkpt lat="44.51308" lon="6.23058">
        <ele>1400</ele>
        <time>2023-04-21T11:33:11.000Z</time>
      </trkpt>
      <trkpt lat="44.51308" lon="6.23058">
        <ele>1400</ele>
        <time>2023-04-21T11:33:12.000Z</time>
      </trkpt>
      <trkpt lat="44.51308" lon="6.23058">
        <ele>1400</ele>
        <time>2023-04-21T11:33:13.000Z</time>
      </trkpt>
      <trkpt lat="44.51308" lon="6.23058">
        <ele>1401</ele>
        <time>2023-04-21T11:33:14.000Z</time>
      </trkpt>
      <trkpt lat="44.51308" lon="6.23058">
        <ele>1401</ele>
        <time>2023-04-21T11:33:15.000Z</time>
      </trkpt>
      <trkpt lat="44.51308" lon="6.23058">
        <ele>1401</ele>
        <time>2023-04-21T11:33:16.000Z</time>
      </trkpt>
      <trkpt lat="44.51308" lon="6.23058">
        <ele>1401</ele>
        <time>2023-04-21T11:33:17.000Z</time>
      </trkpt>
      <trkpt lat="44.51309" lon="6.23058">
        <ele>1401</ele>
        <time>2023-04-21T11:33:18.000Z</time>
      </trkpt>
      <trkpt lat="44.51309" lon="6.23058">
        <ele>1401</ele>
        <time>2023-04-21T11:33:19.000Z</time>
      </trkpt>
      <trkpt lat="44.51309" lon="6.23058">
        <ele>1401</ele>
        <time>2023-04-21T11:33:20.000Z</time>
      </trkpt>
      <trkpt lat="44.51309" lon="6.23058">
        <ele>1401</ele>
        <time>2023-04-21T11:33:21.000Z</time>
      </trkpt>
      <trkpt lat="44.51309" lon="6.23058">
        <ele>1401</ele>
        <time>2023-04-21T11:33:22.000Z</time>
      </trkpt>
      <trkpt lat="44.51309" lon="6.23058">
        <ele>1401</ele>
        <time>2023-04-21T11:33:23.000Z</time>
      </trkpt>
      <trkpt lat="44.51308" lon="6.23058">
        <ele>1401</ele>
        <time>2023-04-21T11:33:24.000Z</time>
      </trkpt>
      <trkpt lat="44.51308" lon="6.23058">
        <ele>1401</ele>
        <time>2023-04-21T11:33:25.000Z</time>
      </trkpt>
      <trkpt lat="44.51308" lon="6.23058">
        <ele>1401</ele>
        <time>2023-04-21T11:33:26.000Z</time>
      </trkpt>
      <trkpt lat="44.51308" lon="6.23058">
        <ele>1401</ele>
        <time>2023-04-21T11:33:27.000Z</time>
      </trkpt>
      <trkpt lat="44.51308" lon="6.23058">
        <ele>1400</ele>
        <time>2023-04-21T11:33:28.000Z</time>
      </trkpt>
      <trkpt lat="44.51308" lon="6.23058">
        <ele>1400</ele>
        <time>2023-04-21T11:33:29.000Z</time>
      </trkpt>
      <trkpt lat="44.51308" lon="6.23059">
        <ele>1400</ele>
        <time>2023-04-21T11:33:30.000Z</time>
      </trkpt>
      <trkpt lat="44.51308" lon="6.23059">
        <ele>1400</ele>
        <time>2023-04-21T11:33:31.000Z</time>
      </trkpt>
      <trkpt lat="44.51308" lon="6.23059">
        <ele>1400</ele>
        <time>2023-04-21T11:33:32.000Z</time>
      </trkpt>
      <trkpt lat="44.51308" lon="6.23059">
        <ele>1400</ele>
        <time>2023-04-21T11:33:33.000Z</time>
      </trkpt>
      <trkpt lat="44.51308" lon="6.23059">
        <ele>1400</ele>
        <time>2023-04-21T11:33:34.000Z</time>
      </trkpt>
      <trkpt lat="44.51308" lon="6.23059">
        <ele>1400</ele>
        <time>2023-04-21T11:33:35.000Z</time>
      </trkpt>
      <trkpt lat="44.51308" lon="6.23059">
        <ele>1400</ele>
        <time>2023-04-21T11:33:36.000Z</time>
      </trkpt>
      <trkpt lat="44.51308" lon="6.23059">
        <ele>1400</ele>
        <time>2023-04-21T11:33:37.000Z</time>
      </trkpt>
      <trkpt lat="44.51308" lon="6.23059">
        <ele>1400</ele>
        <time>2023-04-21T11:33:38.000Z</time>
      </trkpt>
      <trkpt lat="44.51308" lon="6.23059">
        <ele>1400</ele>
        <time>2023-04-21T11:33:39.000Z</time>
      </trkpt>
      <trkpt lat="44.51308" lon="6.23059">
        <ele>1400</ele>
        <time>2023-04-21T11:33:40.000Z</time>
      </trkpt>
      <trkpt lat="44.51308" lon="6.23059">
        <ele>1400</ele>
        <time>2023-04-21T11:33:41.000Z</time>
      </trkpt>
      <trkpt lat="44.51307" lon="6.23059">
        <ele>1400</ele>
        <time>2023-04-21T11:33:42.000Z</time>
      </trkpt>
      <trkpt lat="44.51307" lon="6.23059">
        <ele>1400</ele>
        <time>2023-04-21T11:33:43.000Z</time>
      </trkpt>
      <trkpt lat="44.51307" lon="6.23058">
        <ele>1400</ele>
        <time>2023-04-21T11:33:44.000Z</time>
      </trkpt>
      <trkpt lat="44.51307" lon="6.23058">
        <ele>1400</ele>
        <time>2023-04-21T11:33:45.000Z</time>
      </trkpt>
      <trkpt lat="44.51307" lon="6.23058">
        <ele>1400</ele>
        <time>2023-04-21T11:33:46.000Z</time>
      </trkpt>
      <trkpt lat="44.51307" lon="6.23058">
        <ele>1400</ele>
        <time>2023-04-21T11:33:47.000Z</time>
      </trkpt>
      <trkpt lat="44.51307" lon="6.23058">
        <ele>1400</ele>
        <time>2023-04-21T11:33:48.000Z</time>
      </trkpt>
      <trkpt lat="44.51307" lon="6.23058">
        <ele>1401</ele>
        <time>2023-04-21T11:33:49.000Z</time>
      </trkpt>
      <trkpt lat="44.51307" lon="6.23058">
        <ele>1401</ele>
        <time>2023-04-21T11:33:50.000Z</time>
      </trkpt>
      <trkpt lat="44.51307" lon="6.23058">
        <ele>1401</ele>
        <time>2023-04-21T11:33:51.000Z</time>
      </trkpt>
      <trkpt lat="44.51307" lon="6.23058">
        <ele>1401</ele>
        <time>2023-04-21T11:33:52.000Z</time>
      </trkpt>
      <trkpt lat="44.51307" lon="6.23058">
        <ele>1401</ele>
        <time>2023-04-21T11:33:53.000Z</time>
      </trkpt>
      <trkpt lat="44.51307" lon="6.23058">
        <ele>1401</ele>
        <time>2023-04-21T11:33:54.000Z</time>
      </trkpt>
      <trkpt lat="44.51307" lon="6.23058">
        <ele>1401</ele>
        <time>2023-04-21T11:33:55.000Z</time>
      </trkpt>
      <trkpt lat="44.51307" lon="6.23058">
        <ele>1401</ele>
        <time>2023-04-21T11:33:56.000Z</time>
      </trkpt>
      <trkpt lat="44.51307" lon="6.23057">
        <ele>1401</ele>
        <time>2023-04-21T11:33:57.000Z</time>
      </trkpt>
      <trkpt lat="44.51307" lon="6.23057">
        <ele>1401</ele>
        <time>2023-04-21T11:33:58.000Z</time>
      </trkpt>
      <trkpt lat="44.51307" lon="6.23057">
        <ele>1401</ele>
        <time>2023-04-21T11:33:59.000Z</time>
      </trkpt>
      <trkpt lat="44.51307" lon="6.23057">
        <ele>1401</ele>
        <time>2023-04-21T11:34:00.000Z</time>
      </trkpt>
      <trkpt lat="44.51307" lon="6.23057">
        <ele>1402</ele>
        <time>2023-04-21T11:34:01.000Z</time>
      </trkpt>
      <trkpt lat="44.51306" lon="6.23057">
        <ele>1402</ele>
        <time>2023-04-21T11:34:02.000Z</time>
      </trkpt>
      <trkpt lat="44.51306" lon="6.23057">
        <ele>1402</ele>
        <time>2023-04-21T11:34:03.000Z</time>
      </trkpt>
      <trkpt lat="44.51306" lon="6.23057">
        <ele>1402</ele>
        <time>2023-04-21T11:34:04.000Z</time>
      </trkpt>
      <trkpt lat="44.51306" lon="6.23056">
        <ele>1402</ele>
        <time>2023-04-21T11:34:05.000Z</time>
      </trkpt>
      <trkpt lat="44.51307" lon="6.23056">
        <ele>1402</ele>
        <time>2023-04-21T11:34:06.000Z</time>
      </trkpt>
      <trkpt lat="44.51307" lon="6.23056">
        <ele>1403</ele>
        <time>2023-04-21T11:34:07.000Z</time>
      </trkpt>
      <trkpt lat="44.51307" lon="6.23056">
        <ele>1403</ele>
        <time>2023-04-21T11:34:08.000Z</time>
      </trkpt>
      <trkpt lat="44.51307" lon="6.23056">
        <ele>1403</ele>
        <time>2023-04-21T11:34:09.000Z</time>
      </trkpt>
      <trkpt lat="44.51307" lon="6.23056">
        <ele>1403</ele>
        <time>2023-04-21T11:34:10.000Z</time>
      </trkpt>
      <trkpt lat="44.51307" lon="6.23056">
        <ele>1404</ele>
        <time>2023-04-21T11:34:11.000Z</time>
      </trkpt>
      <trkpt lat="44.51307" lon="6.23056">
        <ele>1404</ele>
        <time>2023-04-21T11:34:12.000Z</time>
      </trkpt>
      <trkpt lat="44.51307" lon="6.23055">
        <ele>1404</ele>
        <time>2023-04-21T11:34:13.000Z</time>
      </trkpt>
      <trkpt lat="44.51307" lon="6.23055">
        <ele>1404</ele>
        <time>2023-04-21T11:34:14.000Z</time>
      </trkpt>
      <trkpt lat="44.51307" lon="6.23055">
        <ele>1404</ele>
        <time>2023-04-21T11:34:15.000Z</time>
      </trkpt>
      <trkpt lat="44.51307" lon="6.23055">
        <ele>1403</ele>
        <time>2023-04-21T11:34:16.000Z</time>
      </trkpt>
      <trkpt lat="44.51307" lon="6.23055">
        <ele>1403</ele>
        <time>2023-04-21T11:34:17.000Z</time>
      </trkpt>
      <trkpt lat="44.51307" lon="6.23055">
        <ele>1403</ele>
        <time>2023-04-21T11:34:18.000Z</time>
      </trkpt>
      <trkpt lat="44.51307" lon="6.23055">
        <ele>1403</ele>
        <time>2023-04-21T11:34:19.000Z</time>
      </trkpt>
      <trkpt lat="44.51307" lon="6.23055">
        <ele>1403</ele>
        <time>2023-04-21T11:34:20.000Z</time>
      </trkpt>
      <trkpt lat="44.51307" lon="6.23055">
        <ele>1403</ele>
        <time>2023-04-21T11:34:21.000Z</time>
      </trkpt>
      <trkpt lat="44.51307" lon="6.23055">
        <ele>1403</ele>
        <time>2023-04-21T11:34:22.000Z</time>
      </trkpt>
      <trkpt lat="44.51307" lon="6.23055">
        <ele>1403</ele>
        <time>2023-04-21T11:34:23.000Z</time>
      </trkpt>
      <trkpt lat="44.51307" lon="6.23055">
        <ele>1403</ele>
        <time>2023-04-21T11:34:24.000Z</time>
      </trkpt>
      <trkpt lat="44.51307" lon="6.23055">
        <ele>1403</ele>
        <time>2023-04-21T11:34:25.000Z</time>
      </trkpt>
      <trkpt lat="44.51307" lon="6.23055">
        <ele>1402</ele>
        <time>2023-04-21T11:34:26.000Z</time>
      </trkpt>
      <trkpt lat="44.51307" lon="6.23055">
        <ele>1402</ele>
        <time>2023-04-21T11:34:27.000Z</time>
      </trkpt>
      <trkpt lat="44.51307" lon="6.23055">
        <ele>1402</ele>
        <time>2023-04-21T11:34:28.000Z</time>
      </trkpt>
      <trkpt lat="44.51307" lon="6.23055">
        <ele>1402</ele>
        <time>2023-04-21T11:34:29.000Z</time>
      </trkpt>
      <trkpt lat="44.51307" lon="6.23055">
        <ele>1402</ele>
        <time>2023-04-21T11:34:30.000Z</time>
      </trkpt>
      <trkpt lat="44.51307" lon="6.23056">
        <ele>1402</ele>
        <time>2023-04-21T11:34:31.000Z</time>
      </trkpt>
      <trkpt lat="44.51307" lon="6.23056">
        <ele>1402</ele>
        <time>2023-04-21T11:34:32.000Z</time>
      </trkpt>
      <trkpt lat="44.51307" lon="6.23056">
        <ele>1401</ele>
        <time>2023-04-21T11:34:33.000Z</time>
      </trkpt>
      <trkpt lat="44.51307" lon="6.23056">
        <ele>1401</ele>
        <time>2023-04-21T11:34:34.000Z</time>
      </trkpt>
      <trkpt lat="44.51307" lon="6.23056">
        <ele>1401</ele>
        <time>2023-04-21T11:34:35.000Z</time>
      </trkpt>
      <trkpt lat="44.51307" lon="6.23056">
        <ele>1401</ele>
        <time>2023-04-21T11:34:36.000Z</time>
      </trkpt>
      <trkpt lat="44.51307" lon="6.23056">
        <ele>1401</ele>
        <time>2023-04-21T11:34:37.000Z</time>
      </trkpt>
      <trkpt lat="44.51307" lon="6.23056">
        <ele>1401</ele>
        <time>2023-04-21T11:34:38.000Z</time>
      </trkpt>
      <trkpt lat="44.51307" lon="6.23056">
        <ele>1401</ele>
        <time>2023-04-21T11:34:39.000Z</time>
      </trkpt>
      <trkpt lat="44.51307" lon="6.23056">
        <ele>1401</ele>
        <time>2023-04-21T11:34:40.000Z</time>
      </trkpt>
      <trkpt lat="44.51307" lon="6.23056">
        <ele>1401</ele>
        <time>2023-04-21T11:34:41.000Z</time>
      </trkpt>
      <trkpt lat="44.51307" lon="6.23056">
        <ele>1401</ele>
        <time>2023-04-21T11:34:42.000Z</time>
      </trkpt>
      <trkpt lat="44.51307" lon="6.23056">
        <ele>1401</ele>
        <time>2023-04-21T11:34:43.000Z</time>
      </trkpt>
      <trkpt lat="44.51307" lon="6.23056">
        <ele>1400</ele>
        <time>2023-04-21T11:34:44.000Z</time>
      </trkpt>
      <trkpt lat="44.51307" lon="6.23056">
        <ele>1400</ele>
        <time>2023-04-21T11:34:45.000Z</time>
      </trkpt>
      <trkpt lat="44.51307" lon="6.23056">
        <ele>1400</ele>
        <time>2023-04-21T11:34:46.000Z</time>
      </trkpt>
      <trkpt lat="44.51307" lon="6.23057">
        <ele>1400</ele>
        <time>2023-04-21T11:34:47.000Z</time>
      </trkpt>
      <trkpt lat="44.51307" lon="6.23057">
        <ele>1400</ele>
        <time>2023-04-21T11:34:48.000Z</time>
      </trkpt>
      <trkpt lat="44.51307" lon="6.23057">
        <ele>1400</ele>
        <time>2023-04-21T11:34:49.000Z</time>
      </trkpt>
      <trkpt lat="44.51307" lon="6.23057">
        <ele>1400</ele>
        <time>2023-04-21T11:34:50.000Z</time>
      </trkpt>
      <trkpt lat="44.51307" lon="6.23057">
        <ele>1400</ele>
        <time>2023-04-21T11:34:51.000Z</time>
      </trkpt>
      <trkpt lat="44.51307" lon="6.23057">
        <ele>1400</ele>
        <time>2023-04-21T11:34:52.000Z</time>
      </trkpt>
      <trkpt lat="44.51307" lon="6.23057">
        <ele>1400</ele>
        <time>2023-04-21T11:34:53.000Z</time>
      </trkpt>
      <trkpt lat="44.51307" lon="6.23057">
        <ele>1400</ele>
        <time>2023-04-21T11:34:54.000Z</time>
      </trkpt>
      <trkpt lat="44.51307" lon="6.23057">
        <ele>1400</ele>
        <time>2023-04-21T11:34:55.000Z</time>
      </trkpt>
      <trkpt lat="44.51307" lon="6.23057">
        <ele>1400</ele>
        <time>2023-04-21T11:34:56.000Z</time>
      </trkpt>
      <trkpt lat="44.51307" lon="6.23057">
        <ele>1400</ele>
        <time>2023-04-21T11:34:57.000Z</time>
      </trkpt>
      <trkpt lat="44.51307" lon="6.23058">
        <ele>1400</ele>
        <time>2023-04-21T11:34:58.000Z</time>
      </trkpt>
      <trkpt lat="44.51307" lon="6.23058">
        <ele>1400</ele>
        <time>2023-04-21T11:34:59.000Z</time>
      </trkpt>
      <trkpt lat="44.51307" lon="6.23058">
        <ele>1400</ele>
        <time>2023-04-21T11:35:00.000Z</time>
      </trkpt>
      <trkpt lat="44.51308" lon="6.23058">
        <ele>1400</ele>
        <time>2023-04-21T11:35:01.000Z</time>
      </trkpt>
      <trkpt lat="44.51308" lon="6.23058">
        <ele>1400</ele>
        <time>2023-04-21T11:35:02.000Z</time>
      </trkpt>
      <trkpt lat="44.51308" lon="6.23058">
        <ele>1400</ele>
        <time>2023-04-21T11:35:03.000Z</time>
      </trkpt>
      <trkpt lat="44.51308" lon="6.23058">
        <ele>1400</ele>
        <time>2023-04-21T11:35:04.000Z</time>
      </trkpt>
      <trkpt lat="44.51308" lon="6.23058">
        <ele>1400</ele>
        <time>2023-04-21T11:35:05.000Z</time>
      </trkpt>
      <trkpt lat="44.51308" lon="6.23058">
        <ele>1400</ele>
        <time>2023-04-21T11:35:06.000Z</time>
      </trkpt>
      <trkpt lat="44.51308" lon="6.23058">
        <ele>1400</ele>
        <time>2023-04-21T11:35:07.000Z</time>
      </trkpt>
      <trkpt lat="44.51308" lon="6.23058">
        <ele>1400</ele>
        <time>2023-04-21T11:35:08.000Z</time>
      </trkpt>
      <trkpt lat="44.51308" lon="6.23058">
        <ele>1400</ele>
        <time>2023-04-21T11:35:09.000Z</time>
      </trkpt>
      <trkpt lat="44.51308" lon="6.23058">
        <ele>1400</ele>
        <time>2023-04-21T11:35:10.000Z</time>
      </trkpt>
      <trkpt lat="44.51308" lon="6.23058">
        <ele>1399</ele>
        <time>2023-04-21T11:35:11.000Z</time>
      </trkpt>
      <trkpt lat="44.51308" lon="6.23058">
        <ele>1399</ele>
        <time>2023-04-21T11:35:12.000Z</time>
      </trkpt>
      <trkpt lat="44.51308" lon="6.23058">
        <ele>1399</ele>
        <time>2023-04-21T11:35:13.000Z</time>
      </trkpt>
      <trkpt lat="44.51308" lon="6.23058">
        <ele>1399</ele>
        <time>2023-04-21T11:35:14.000Z</time>
      </trkpt>
      <trkpt lat="44.51308" lon="6.23058">
        <ele>1399</ele>
        <time>2023-04-21T11:35:15.000Z</time>
      </trkpt>
      <trkpt lat="44.51308" lon="6.23058">
        <ele>1399</ele>
        <time>2023-04-21T11:35:16.000Z</time>
      </trkpt>
      <trkpt lat="44.51308" lon="6.23058">
        <ele>1399</ele>
        <time>2023-04-21T11:35:17.000Z</time>
      </trkpt>
      <trkpt lat="44.51308" lon="6.23058">
        <ele>1399</ele>
        <time>2023-04-21T11:35:18.000Z</time>
      </trkpt>
      <trkpt lat="44.51308" lon="6.23058">
        <ele>1399</ele>
        <time>2023-04-21T11:35:19.000Z</time>
      </trkpt>
      <trkpt lat="44.51308" lon="6.23058">
        <ele>1399</ele>
        <time>2023-04-21T11:35:20.000Z</time>
      </trkpt>
      <trkpt lat="44.51308" lon="6.23058">
        <ele>1399</ele>
        <time>2023-04-21T11:35:21.000Z</time>
      </trkpt>
      <trkpt lat="44.51308" lon="6.23058">
        <ele>1399</ele>
        <time>2023-04-21T11:35:22.000Z</time>
      </trkpt>
      <trkpt lat="44.51308" lon="6.23058">
        <ele>1399</ele>
        <time>2023-04-21T11:35:23.000Z</time>
      </trkpt>
      <trkpt lat="44.51308" lon="6.23058">
        <ele>1399</ele>
        <time>2023-04-21T11:35:24.000Z</time>
      </trkpt>
      <trkpt lat="44.51308" lon="6.23058">
        <ele>1399</ele>
        <time>2023-04-21T11:35:25.000Z</time>
      </trkpt>
      <trkpt lat="44.51308" lon="6.23058">
        <ele>1399</ele>
        <time>2023-04-21T11:35:26.000Z</time>
      </trkpt>
      <trkpt lat="44.51308" lon="6.23058">
        <ele>1399</ele>
        <time>2023-04-21T11:35:27.000Z</time>
      </trkpt>
      <trkpt lat="44.51308" lon="6.23058">
        <ele>1399</ele>
        <time>2023-04-21T11:35:28.000Z</time>
      </trkpt>
      <trkpt lat="44.51308" lon="6.23058">
        <ele>1399</ele>
        <time>2023-04-21T11:35:29.000Z</time>
      </trkpt>
      <trkpt lat="44.51308" lon="6.23058">
        <ele>1399</ele>
        <time>2023-04-21T11:35:30.000Z</time>
      </trkpt>
      <trkpt lat="44.51308" lon="6.23058">
        <ele>1399</ele>
        <time>2023-04-21T11:35:31.000Z</time>
      </trkpt>
      <trkpt lat="44.51308" lon="6.23058">
        <ele>1399</ele>
        <time>2023-04-21T11:35:32.000Z</time>
      </trkpt>
      <trkpt lat="44.51308" lon="6.23058">
        <ele>1399</ele>
        <time>2023-04-21T11:35:33.000Z</time>
      </trkpt>
      <trkpt lat="44.51308" lon="6.23058">
        <ele>1399</ele>
        <time>2023-04-21T11:35:34.000Z</time>
      </trkpt>
      <trkpt lat="44.51308" lon="6.23058">
        <ele>1399</ele>
        <time>2023-04-21T11:35:35.000Z</time>
      </trkpt>
      <trkpt lat="44.51308" lon="6.23058">
        <ele>1398</ele>
        <time>2023-04-21T11:35:36.000Z</time>
      </trkpt>
      <trkpt lat="44.51308" lon="6.23058">
        <ele>1398</ele>
        <time>2023-04-21T11:35:37.000Z</time>
      </trkpt>
      <trkpt lat="44.51308" lon="6.23058">
        <ele>1398</ele>
        <time>2023-04-21T11:35:38.000Z</time>
      </trkpt>
      <trkpt lat="44.51308" lon="6.23058">
        <ele>1398</ele>
        <time>2023-04-21T11:35:39.000Z</time>
      </trkpt>
      <trkpt lat="44.51308" lon="6.23058">
        <ele>1398</ele>
        <time>2023-04-21T11:35:40.000Z</time>
      </trkpt>
      <trkpt lat="44.51308" lon="6.23059">
        <ele>1398</ele>
        <time>2023-04-21T11:35:41.000Z</time>
      </trkpt>
      <trkpt lat="44.51308" lon="6.23059">
        <ele>1398</ele>
        <time>2023-04-21T11:35:42.000Z</time>
      </trkpt>
      <trkpt lat="44.51308" lon="6.23059">
        <ele>1398</ele>
        <time>2023-04-21T11:35:43.000Z</time>
      </trkpt>
      <trkpt lat="44.51308" lon="6.23059">
        <ele>1398</ele>
        <time>2023-04-21T11:35:44.000Z</time>
      </trkpt>
      <trkpt lat="44.51308" lon="6.23059">
        <ele>1398</ele>
        <time>2023-04-21T11:35:45.000Z</time>
      </trkpt>
      <trkpt lat="44.51308" lon="6.23059">
        <ele>1398</ele>
        <time>2023-04-21T11:35:46.000Z</time>
      </trkpt>
      <trkpt lat="44.51308" lon="6.2306">
        <ele>1398</ele>
        <time>2023-04-21T11:35:47.000Z</time>
      </trkpt>
      <trkpt lat="44.51308" lon="6.2306">
        <ele>1397</ele>
        <time>2023-04-21T11:35:48.000Z</time>
      </trkpt>
      <trkpt lat="44.51309" lon="6.2306">
        <ele>1397</ele>
        <time>2023-04-21T11:35:49.000Z</time>
      </trkpt>
      <trkpt lat="44.51309" lon="6.2306">
        <ele>1397</ele>
        <time>2023-04-21T11:35:50.000Z</time>
      </trkpt>
      <trkpt lat="44.51309" lon="6.2306">
        <ele>1397</ele>
        <time>2023-04-21T11:35:51.000Z</time>
      </trkpt>
      <trkpt lat="44.51309" lon="6.2306">
        <ele>1397</ele>
        <time>2023-04-21T11:35:52.000Z</time>
      </trkpt>
      <trkpt lat="44.51309" lon="6.23061">
        <ele>1397</ele>
        <time>2023-04-21T11:35:53.000Z</time>
      </trkpt>
      <trkpt lat="44.51309" lon="6.23061">
        <ele>1397</ele>
        <time>2023-04-21T11:35:54.000Z</time>
      </trkpt>
      <trkpt lat="44.51309" lon="6.23061">
        <ele>1397</ele>
        <time>2023-04-21T11:35:55.000Z</time>
      </trkpt>
      <trkpt lat="44.51309" lon="6.23061">
        <ele>1397</ele>
        <time>2023-04-21T11:35:56.000Z</time>
      </trkpt>
      <trkpt lat="44.51309" lon="6.23061">
        <ele>1397</ele>
        <time>2023-04-21T11:35:57.000Z</time>
      </trkpt>
      <trkpt lat="44.51309" lon="6.23061">
        <ele>1397</ele>
        <time>2023-04-21T11:35:58.000Z</time>
      </trkpt>
      <trkpt lat="44.51309" lon="6.23061">
        <ele>1397</ele>
        <time>2023-04-21T11:35:59.000Z</time>
      </trkpt>
      <trkpt lat="44.51309" lon="6.23061">
        <ele>1396</ele>
        <time>2023-04-21T11:36:00.000Z</time>
      </trkpt>
      <trkpt lat="44.51309" lon="6.23061">
        <ele>1396</ele>
        <time>2023-04-21T11:36:01.000Z</time>
      </trkpt>
      <trkpt lat="44.51308" lon="6.23061">
        <ele>1396</ele>
        <time>2023-04-21T11:36:02.000Z</time>
      </trkpt>
      <trkpt lat="44.51308" lon="6.23061">
        <ele>1396</ele>
        <time>2023-04-21T11:36:03.000Z</time>
      </trkpt>
      <trkpt lat="44.51308" lon="6.23062">
        <ele>1395</ele>
        <time>2023-04-21T11:36:04.000Z</time>
      </trkpt>
      <trkpt lat="44.51308" lon="6.23062">
        <ele>1395</ele>
        <time>2023-04-21T11:36:05.000Z</time>
      </trkpt>
      <trkpt lat="44.51308" lon="6.23062">
        <ele>1395</ele>
        <time>2023-04-21T11:36:06.000Z</time>
      </trkpt>
      <trkpt lat="44.51308" lon="6.23062">
        <ele>1395</ele>
        <time>2023-04-21T11:36:07.000Z</time>
      </trkpt>
      <trkpt lat="44.51308" lon="6.23062">
        <ele>1395</ele>
        <time>2023-04-21T11:36:08.000Z</time>
      </trkpt>
      <trkpt lat="44.51308" lon="6.23062">
        <ele>1395</ele>
        <time>2023-04-21T11:36:09.000Z</time>
      </trkpt>
      <trkpt lat="44.51308" lon="6.23062">
        <ele>1395</ele>
        <time>2023-04-21T11:36:10.000Z</time>
      </trkpt>
      <trkpt lat="44.51308" lon="6.23062">
        <ele>1395</ele>
        <time>2023-04-21T11:36:11.000Z</time>
      </trkpt>
      <trkpt lat="44.51308" lon="6.23062">
        <ele>1395</ele>
        <time>2023-04-21T11:36:12.000Z</time>
      </trkpt>
      <trkpt lat="44.51308" lon="6.23062">
        <ele>1395</ele>
        <time>2023-04-21T11:36:13.000Z</time>
      </trkpt>
      <trkpt lat="44.51308" lon="6.23062">
        <ele>1395</ele>
        <time>2023-04-21T11:36:14.000Z</time>
      </trkpt>
      <trkpt lat="44.51308" lon="6.23062">
        <ele>1395</ele>
        <time>2023-04-21T11:36:15.000Z</time>
      </trkpt>
      <trkpt lat="44.51308" lon="6.23062">
        <ele>1395</ele>
        <time>2023-04-21T11:36:16.000Z</time>
      </trkpt>
      <trkpt lat="44.51308" lon="6.23062">
        <ele>1395</ele>
        <time>2023-04-21T11:36:17.000Z</time>
      </trkpt>
      <trkpt lat="44.51308" lon="6.23062">
        <ele>1395</ele>
        <time>2023-04-21T11:36:18.000Z</time>
      </trkpt>
      <trkpt lat="44.51308" lon="6.23063">
        <ele>1395</ele>
        <time>2023-04-21T11:36:19.000Z</time>
      </trkpt>
      <trkpt lat="44.51308" lon="6.23063">
        <ele>1395</ele>
        <time>2023-04-21T11:36:20.000Z</time>
      </trkpt>
      <trkpt lat="44.51308" lon="6.23063">
        <ele>1395</ele>
        <time>2023-04-21T11:36:21.000Z</time>
      </trkpt>
      <trkpt lat="44.51308" lon="6.23062">
        <ele>1395</ele>
        <time>2023-04-21T11:36:22.000Z</time>
      </trkpt>
      <trkpt lat="44.51308" lon="6.23062">
        <ele>1395</ele>
        <time>2023-04-21T11:36:23.000Z</time>
      </trkpt>
      <trkpt lat="44.51308" lon="6.23062">
        <ele>1396</ele>
        <time>2023-04-21T11:36:24.000Z</time>
      </trkpt>
      <trkpt lat="44.51308" lon="6.23062">
        <ele>1396</ele>
        <time>2023-04-21T11:36:25.000Z</time>
      </trkpt>
      <trkpt lat="44.51308" lon="6.23062">
        <ele>1396</ele>
        <time>2023-04-21T11:36:26.000Z</time>
      </trkpt>
      <trkpt lat="44.51308" lon="6.23062">
        <ele>1396</ele>
        <time>2023-04-21T11:36:27.000Z</time>
      </trkpt>
      <trkpt lat="44.51308" lon="6.23062">
        <ele>1396</ele>
        <time>2023-04-21T11:36:28.000Z</time>
      </trkpt>
      <trkpt lat="44.51308" lon="6.23062">
        <ele>1396</ele>
        <time>2023-04-21T11:36:29.000Z</time>
      </trkpt>
      <trkpt lat="44.51308" lon="6.23062">
        <ele>1396</ele>
        <time>2023-04-21T11:36:30.000Z</time>
      </trkpt>
      <trkpt lat="44.51308" lon="6.23062">
        <ele>1396</ele>
        <time>2023-04-21T11:36:31.000Z</time>
      </trkpt>
      <trkpt lat="44.51308" lon="6.23062">
        <ele>1396</ele>
        <time>2023-04-21T11:36:32.000Z</time>
      </trkpt>
      <trkpt lat="44.51308" lon="6.23062">
        <ele>1396</ele>
        <time>2023-04-21T11:36:33.000Z</time>
      </trkpt>
      <trkpt lat="44.51308" lon="6.23062">
        <ele>1396</ele>
        <time>2023-04-21T11:36:34.000Z</time>
      </trkpt>
      <trkpt lat="44.51308" lon="6.23062">
        <ele>1396</ele>
        <time>2023-04-21T11:36:35.000Z</time>
      </trkpt>
      <trkpt lat="44.51308" lon="6.23062">
        <ele>1396</ele>
        <time>2023-04-21T11:36:36.000Z</time>
      </trkpt>
      <trkpt lat="44.51308" lon="6.23062">
        <ele>1397</ele>
        <time>2023-04-21T11:36:37.000Z</time>
      </trkpt>
      <trkpt lat="44.51308" lon="6.23062">
        <ele>1397</ele>
        <time>2023-04-21T11:36:38.000Z</time>
      </trkpt>
      <trkpt lat="44.51308" lon="6.23062">
        <ele>1397</ele>
        <time>2023-04-21T11:36:39.000Z</time>
      </trkpt>
      <trkpt lat="44.51308" lon="6.23061">
        <ele>1397</ele>
        <time>2023-04-21T11:36:40.000Z</time>
      </trkpt>
      <trkpt lat="44.51308" lon="6.23061">
        <ele>1397</ele>
        <time>2023-04-21T11:36:41.000Z</time>
      </trkpt>
      <trkpt lat="44.51308" lon="6.23061">
        <ele>1397</ele>
        <time>2023-04-21T11:36:42.000Z</time>
      </trkpt>
      <trkpt lat="44.51308" lon="6.23061">
        <ele>1397</ele>
        <time>2023-04-21T11:36:43.000Z</time>
      </trkpt>
      <trkpt lat="44.51308" lon="6.23061">
        <ele>1397</ele>
        <time>2023-04-21T11:36:44.000Z</time>
      </trkpt>
      <trkpt lat="44.51308" lon="6.23061">
        <ele>1397</ele>
        <time>2023-04-21T11:36:45.000Z</time>
      </trkpt>
      <trkpt lat="44.51308" lon="6.23061">
        <ele>1397</ele>
        <time>2023-04-21T11:36:46.000Z</time>
      </trkpt>
      <trkpt lat="44.51308" lon="6.23061">
        <ele>1397</ele>
        <time>2023-04-21T11:36:47.000Z</time>
      </trkpt>
      <trkpt lat="44.51308" lon="6.23061">
        <ele>1397</ele>
        <time>2023-04-21T11:36:48.000Z</time>
      </trkpt>
      <trkpt lat="44.51308" lon="6.23061">
        <ele>1397</ele>
        <time>2023-04-21T11:36:49.000Z</time>
      </trkpt>
      <trkpt lat="44.51308" lon="6.23061">
        <ele>1397</ele>
        <time>2023-04-21T11:36:50.000Z</time>
      </trkpt>
      <trkpt lat="44.51308" lon="6.23061">
        <ele>1397</ele>
        <time>2023-04-21T11:36:51.000Z</time>
      </trkpt>
      <trkpt lat="44.51308" lon="6.23061">
        <ele>1397</ele>
        <time>2023-04-21T11:36:52.000Z</time>
      </trkpt>
      <trkpt lat="44.51308" lon="6.23061">
        <ele>1397</ele>
        <time>2023-04-21T11:36:53.000Z</time>
      </trkpt>
      <trkpt lat="44.51308" lon="6.23061">
        <ele>1397</ele>
        <time>2023-04-21T11:36:54.000Z</time>
      </trkpt>
      <trkpt lat="44.51308" lon="6.23061">
        <ele>1397</ele>
        <time>2023-04-21T11:36:55.000Z</time>
      </trkpt>
      <trkpt lat="44.51308" lon="6.23061">
        <ele>1398</ele>
        <time>2023-04-21T11:36:56.000Z</time>
      </trkpt>
      <trkpt lat="44.51308" lon="6.23061">
        <ele>1398</ele>
        <time>2023-04-21T11:36:57.000Z</time>
      </trkpt>
      <trkpt lat="44.51308" lon="6.23061">
        <ele>1398</ele>
        <time>2023-04-21T11:36:58.000Z</time>
      </trkpt>
      <trkpt lat="44.51308" lon="6.23061">
        <ele>1398</ele>
        <time>2023-04-21T11:36:59.000Z</time>
      </trkpt>
      <trkpt lat="44.51308" lon="6.23061">
        <ele>1398</ele>
        <time>2023-04-21T11:37:00.000Z</time>
      </trkpt>
      <trkpt lat="44.51308" lon="6.23061">
        <ele>1398</ele>
        <time>2023-04-21T11:37:01.000Z</time>
      </trkpt>
      <trkpt lat="44.51308" lon="6.23061">
        <ele>1398</ele>
        <time>2023-04-21T11:37:02.000Z</time>
      </trkpt>
      <trkpt lat="44.51308" lon="6.23061">
        <ele>1398</ele>
        <time>2023-04-21T11:37:03.000Z</time>
      </trkpt>
      <trkpt lat="44.51308" lon="6.23061">
        <ele>1398</ele>
        <time>2023-04-21T11:37:04.000Z</time>
      </trkpt>
      <trkpt lat="44.51308" lon="6.23061">
        <ele>1399</ele>
        <time>2023-04-21T11:37:05.000Z</time>
      </trkpt>
      <trkpt lat="44.51308" lon="6.23061">
        <ele>1399</ele>
        <time>2023-04-21T11:37:06.000Z</time>
      </trkpt>
      <trkpt lat="44.51308" lon="6.23061">
        <ele>1399</ele>
        <time>2023-04-21T11:37:07.000Z</time>
      </trkpt>
      <trkpt lat="44.51308" lon="6.2306">
        <ele>1399</ele>
        <time>2023-04-21T11:37:08.000Z</time>
      </trkpt>
      <trkpt lat="44.51308" lon="6.2306">
        <ele>1399</ele>
        <time>2023-04-21T11:37:09.000Z</time>
      </trkpt>
      <trkpt lat="44.51308" lon="6.2306">
        <ele>1399</ele>
        <time>2023-04-21T11:37:10.000Z</time>
      </trkpt>
      <trkpt lat="44.51308" lon="6.2306">
        <ele>1399</ele>
        <time>2023-04-21T11:37:11.000Z</time>
      </trkpt>
      <trkpt lat="44.51308" lon="6.2306">
        <ele>1399</ele>
        <time>2023-04-21T11:37:12.000Z</time>
      </trkpt>
      <trkpt lat="44.51308" lon="6.2306">
        <ele>1399</ele>
        <time>2023-04-21T11:37:13.000Z</time>
      </trkpt>
      <trkpt lat="44.51308" lon="6.2306">
        <ele>1399</ele>
        <time>2023-04-21T11:37:14.000Z</time>
      </trkpt>
      <trkpt lat="44.51308" lon="6.2306">
        <ele>1399</ele>
        <time>2023-04-21T11:37:15.000Z</time>
      </trkpt>
      <trkpt lat="44.51308" lon="6.2306">
        <ele>1400</ele>
        <time>2023-04-21T11:37:16.000Z</time>
      </trkpt>
      <trkpt lat="44.51309" lon="6.2306">
        <ele>1400</ele>
        <time>2023-04-21T11:37:17.000Z</time>
      </trkpt>
      <trkpt lat="44.51309" lon="6.2306">
        <ele>1400</ele>
        <time>2023-04-21T11:37:18.000Z</time>
      </trkpt>
      <trkpt lat="44.51309" lon="6.2306">
        <ele>1400</ele>
        <time>2023-04-21T11:37:19.000Z</time>
      </trkpt>
      <trkpt lat="44.51309" lon="6.2306">
        <ele>1400</ele>
        <time>2023-04-21T11:37:20.000Z</time>
      </trkpt>
      <trkpt lat="44.51309" lon="6.2306">
        <ele>1400</ele>
        <time>2023-04-21T11:37:21.000Z</time>
      </trkpt>
      <trkpt lat="44.51309" lon="6.2306">
        <ele>1400</ele>
        <time>2023-04-21T11:37:22.000Z</time>
      </trkpt>
      <trkpt lat="44.51309" lon="6.2306">
        <ele>1400</ele>
        <time>2023-04-21T11:37:23.000Z</time>
      </trkpt>
      <trkpt lat="44.51309" lon="6.2306">
        <ele>1400</ele>
        <time>2023-04-21T11:37:24.000Z</time>
      </trkpt>
      <trkpt lat="44.51309" lon="6.2306">
        <ele>1400</ele>
        <time>2023-04-21T11:37:25.000Z</time>
      </trkpt>
      <trkpt lat="44.51309" lon="6.2306">
        <ele>1399</ele>
        <time>2023-04-21T11:37:26.000Z</time>
      </trkpt>
      <trkpt lat="44.51309" lon="6.2306">
        <ele>1399</ele>
        <time>2023-04-21T11:37:27.000Z</time>
      </trkpt>
      <trkpt lat="44.51309" lon="6.2306">
        <ele>1399</ele>
        <time>2023-04-21T11:37:28.000Z</time>
      </trkpt>
      <trkpt lat="44.51309" lon="6.2306">
        <ele>1399</ele>
        <time>2023-04-21T11:37:29.000Z</time>
      </trkpt>
      <trkpt lat="44.51309" lon="6.2306">
        <ele>1399</ele>
        <time>2023-04-21T11:37:30.000Z</time>
      </trkpt>
      <trkpt lat="44.51309" lon="6.2306">
        <ele>1399</ele>
        <time>2023-04-21T11:37:31.000Z</time>
      </trkpt>
      <trkpt lat="44.51309" lon="6.2306">
        <ele>1399</ele>
        <time>2023-04-21T11:37:32.000Z</time>
      </trkpt>
      <trkpt lat="44.51309" lon="6.2306">
        <ele>1399</ele>
        <time>2023-04-21T11:37:33.000Z</time>
      </trkpt>
      <trkpt lat="44.51309" lon="6.2306">
        <ele>1399</ele>
        <time>2023-04-21T11:37:34.000Z</time>
      </trkpt>
      <trkpt lat="44.51309" lon="6.23061">
        <ele>1399</ele>
        <time>2023-04-21T11:37:35.000Z</time>
      </trkpt>
      <trkpt lat="44.51309" lon="6.23061">
        <ele>1399</ele>
        <time>2023-04-21T11:37:36.000Z</time>
      </trkpt>
      <trkpt lat="44.51309" lon="6.23061">
        <ele>1398</ele>
        <time>2023-04-21T11:37:37.000Z</time>
      </trkpt>
      <trkpt lat="44.51309" lon="6.23061">
        <ele>1398</ele>
        <time>2023-04-21T11:37:38.000Z</time>
      </trkpt>
      <trkpt lat="44.51309" lon="6.23061">
        <ele>1398</ele>
        <time>2023-04-21T11:37:39.000Z</time>
      </trkpt>
      <trkpt lat="44.51309" lon="6.23061">
        <ele>1398</ele>
        <time>2023-04-21T11:37:40.000Z</time>
      </trkpt>
      <trkpt lat="44.51309" lon="6.23061">
        <ele>1398</ele>
        <time>2023-04-21T11:37:41.000Z</time>
      </trkpt>
      <trkpt lat="44.51309" lon="6.23061">
        <ele>1398</ele>
        <time>2023-04-21T11:37:42.000Z</time>
      </trkpt>
      <trkpt lat="44.51309" lon="6.23061">
        <ele>1398</ele>
        <time>2023-04-21T11:37:43.000Z</time>
      </trkpt>
      <trkpt lat="44.51309" lon="6.23061">
        <ele>1398</ele>
        <time>2023-04-21T11:37:44.000Z</time>
      </trkpt>
      <trkpt lat="44.51309" lon="6.23061">
        <ele>1398</ele>
        <time>2023-04-21T11:37:45.000Z</time>
      </trkpt>
      <trkpt lat="44.51309" lon="6.23061">
        <ele>1398</ele>
        <time>2023-04-21T11:37:46.000Z</time>
      </trkpt>
      <trkpt lat="44.51309" lon="6.23061">
        <ele>1398</ele>
        <time>2023-04-21T11:37:47.000Z</time>
      </trkpt>
      <trkpt lat="44.51309" lon="6.23061">
        <ele>1398</ele>
        <time>2023-04-21T11:37:48.000Z</time>
      </trkpt>
      <trkpt lat="44.51309" lon="6.23061">
        <ele>1398</ele>
        <time>2023-04-21T11:37:49.000Z</time>
      </trkpt>
      <trkpt lat="44.51309" lon="6.23061">
        <ele>1398</ele>
        <time>2023-04-21T11:37:50.000Z</time>
      </trkpt>
      <trkpt lat="44.51309" lon="6.23061">
        <ele>1398</ele>
        <time>2023-04-21T11:37:51.000Z</time>
      </trkpt>
      <trkpt lat="44.51309" lon="6.23061">
        <ele>1397</ele>
        <time>2023-04-21T11:37:52.000Z</time>
      </trkpt>
      <trkpt lat="44.51309" lon="6.23061">
        <ele>1398</ele>
        <time>2023-04-21T11:37:53.000Z</time>
      </trkpt>
      <trkpt lat="44.51309" lon="6.23061">
        <ele>1398</ele>
        <time>2023-04-21T11:37:54.000Z</time>
      </trkpt>
      <trkpt lat="44.51309" lon="6.23061">
        <ele>1398</ele>
        <time>2023-04-21T11:37:55.000Z</time>
      </trkpt>
      <trkpt lat="44.51309" lon="6.23061">
        <ele>1398</ele>
        <time>2023-04-21T11:37:56.000Z</time>
      </trkpt>
      <trkpt lat="44.51309" lon="6.23061">
        <ele>1398</ele>
        <time>2023-04-21T11:37:57.000Z</time>
      </trkpt>
      <trkpt lat="44.51309" lon="6.23061">
        <ele>1398</ele>
        <time>2023-04-21T11:37:58.000Z</time>
      </trkpt>
      <trkpt lat="44.51309" lon="6.23061">
        <ele>1398</ele>
        <time>2023-04-21T11:37:59.000Z</time>
      </trkpt>
      <trkpt lat="44.51309" lon="6.23061">
        <ele>1398</ele>
        <time>2023-04-21T11:38:00.000Z</time>
      </trkpt>
      <trkpt lat="44.51309" lon="6.23061">
        <ele>1398</ele>
        <time>2023-04-21T11:38:01.000Z</time>
      </trkpt>
      <trkpt lat="44.51309" lon="6.23061">
        <ele>1398</ele>
        <time>2023-04-21T11:38:02.000Z</time>
      </trkpt>
      <trkpt lat="44.51309" lon="6.23061">
        <ele>1398</ele>
        <time>2023-04-21T11:38:03.000Z</time>
      </trkpt>
      <trkpt lat="44.51309" lon="6.23061">
        <ele>1398</ele>
        <time>2023-04-21T11:38:04.000Z</time>
      </trkpt>
      <trkpt lat="44.51309" lon="6.23061">
        <ele>1398</ele>
        <time>2023-04-21T11:38:05.000Z</time>
      </trkpt>
      <trkpt lat="44.51309" lon="6.23061">
        <ele>1398</ele>
        <time>2023-04-21T11:38:06.000Z</time>
      </trkpt>
      <trkpt lat="44.51309" lon="6.2306">
        <ele>1398</ele>
        <time>2023-04-21T11:38:07.000Z</time>
      </trkpt>
      <trkpt lat="44.51309" lon="6.2306">
        <ele>1398</ele>
        <time>2023-04-21T11:38:08.000Z</time>
      </trkpt>
      <trkpt lat="44.51309" lon="6.2306">
        <ele>1398</ele>
        <time>2023-04-21T11:38:09.000Z</time>
      </trkpt>
      <trkpt lat="44.51309" lon="6.2306">
        <ele>1398</ele>
        <time>2023-04-21T11:38:10.000Z</time>
      </trkpt>
      <trkpt lat="44.51309" lon="6.2306">
        <ele>1398</ele>
        <time>2023-04-21T11:38:11.000Z</time>
      </trkpt>
      <trkpt lat="44.51309" lon="6.2306">
        <ele>1398</ele>
        <time>2023-04-21T11:38:12.000Z</time>
      </trkpt>
      <trkpt lat="44.51309" lon="6.2306">
        <ele>1398</ele>
        <time>2023-04-21T11:38:13.000Z</time>
      </trkpt>
      <trkpt lat="44.51308" lon="6.2306">
        <ele>1398</ele>
        <time>2023-04-21T11:38:14.000Z</time>
      </trkpt>
      <trkpt lat="44.51308" lon="6.2306">
        <ele>1399</ele>
        <time>2023-04-21T11:38:15.000Z</time>
      </trkpt>
      <trkpt lat="44.51308" lon="6.2306">
        <ele>1399</ele>
        <time>2023-04-21T11:38:16.000Z</time>
      </trkpt>
      <trkpt lat="44.51308" lon="6.23059">
        <ele>1399</ele>
        <time>2023-04-21T11:38:17.000Z</time>
      </trkpt>
      <trkpt lat="44.51308" lon="6.23059">
        <ele>1399</ele>
        <time>2023-04-21T11:38:18.000Z</time>
      </trkpt>
      <trkpt lat="44.51308" lon="6.23059">
        <ele>1399</ele>
        <time>2023-04-21T11:38:19.000Z</time>
      </trkpt>
      <trkpt lat="44.51308" lon="6.23059">
        <ele>1399</ele>
        <time>2023-04-21T11:38:20.000Z</time>
      </trkpt>
      <trkpt lat="44.51308" lon="6.23059">
        <ele>1399</ele>
        <time>2023-04-21T11:38:21.000Z</time>
      </trkpt>
      <trkpt lat="44.51308" lon="6.23059">
        <ele>1399</ele>
        <time>2023-04-21T11:38:22.000Z</time>
      </trkpt>
      <trkpt lat="44.51308" lon="6.23059">
        <ele>1399</ele>
        <time>2023-04-21T11:38:23.000Z</time>
      </trkpt>
      <trkpt lat="44.51308" lon="6.23059">
        <ele>1399</ele>
        <time>2023-04-21T11:38:24.000Z</time>
      </trkpt>
      <trkpt lat="44.51308" lon="6.23059">
        <ele>1399</ele>
        <time>2023-04-21T11:38:25.000Z</time>
      </trkpt>
      <trkpt lat="44.51308" lon="6.23059">
        <ele>1399</ele>
        <time>2023-04-21T11:38:26.000Z</time>
      </trkpt>
      <trkpt lat="44.51307" lon="6.23059">
        <ele>1399</ele>
        <time>2023-04-21T11:38:27.000Z</time>
      </trkpt>
      <trkpt lat="44.51307" lon="6.23058">
        <ele>1399</ele>
        <time>2023-04-21T11:38:28.000Z</time>
      </trkpt>
      <trkpt lat="44.51307" lon="6.23058">
        <ele>1399</ele>
        <time>2023-04-21T11:38:29.000Z</time>
      </trkpt>
      <trkpt lat="44.51307" lon="6.23058">
        <ele>1399</ele>
        <time>2023-04-21T11:38:30.000Z</time>
      </trkpt>
      <trkpt lat="44.51307" lon="6.23058">
        <ele>1399</ele>
        <time>2023-04-21T11:38:31.000Z</time>
      </trkpt>
      <trkpt lat="44.51307" lon="6.23058">
        <ele>1399</ele>
        <time>2023-04-21T11:38:32.000Z</time>
      </trkpt>
      <trkpt lat="44.51307" lon="6.23058">
        <ele>1399</ele>
        <time>2023-04-21T11:38:33.000Z</time>
      </trkpt>
      <trkpt lat="44.51307" lon="6.23058">
        <ele>1399</ele>
        <time>2023-04-21T11:38:34.000Z</time>
      </trkpt>
      <trkpt lat="44.51307" lon="6.23059">
        <ele>1399</ele>
        <time>2023-04-21T11:38:35.000Z</time>
      </trkpt>
      <trkpt lat="44.51307" lon="6.23059">
        <ele>1399</ele>
        <time>2023-04-21T11:38:36.000Z</time>
      </trkpt>
      <trkpt lat="44.51307" lon="6.23059">
        <ele>1399</ele>
        <time>2023-04-21T11:38:37.000Z</time>
      </trkpt>
      <trkpt lat="44.51307" lon="6.23059">
        <ele>1399</ele>
        <time>2023-04-21T11:38:38.000Z</time>
      </trkpt>
      <trkpt lat="44.51307" lon="6.23059">
        <ele>1399</ele>
        <time>2023-04-21T11:38:39.000Z</time>
      </trkpt>
      <trkpt lat="44.51307" lon="6.23059">
        <ele>1399</ele>
        <time>2023-04-21T11:38:40.000Z</time>
      </trkpt>
      <trkpt lat="44.51307" lon="6.23059">
        <ele>1399</ele>
        <time>2023-04-21T11:38:41.000Z</time>
      </trkpt>
      <trkpt lat="44.51307" lon="6.23059">
        <ele>1399</ele>
        <time>2023-04-21T11:38:42.000Z</time>
      </trkpt>
      <trkpt lat="44.51307" lon="6.23059">
        <ele>1399</ele>
        <time>2023-04-21T11:38:43.000Z</time>
      </trkpt>
      <trkpt lat="44.51307" lon="6.23059">
        <ele>1399</ele>
        <time>2023-04-21T11:38:44.000Z</time>
      </trkpt>
      <trkpt lat="44.51307" lon="6.23059">
        <ele>1399</ele>
        <time>2023-04-21T11:38:45.000Z</time>
      </trkpt>
      <trkpt lat="44.51307" lon="6.23059">
        <ele>1399</ele>
        <time>2023-04-21T11:38:46.000Z</time>
      </trkpt>
      <trkpt lat="44.51308" lon="6.23059">
        <ele>1399</ele>
        <time>2023-04-21T11:38:47.000Z</time>
      </trkpt>
      <trkpt lat="44.51308" lon="6.23059">
        <ele>1399</ele>
        <time>2023-04-21T11:38:48.000Z</time>
      </trkpt>
      <trkpt lat="44.51308" lon="6.23059">
        <ele>1399</ele>
        <time>2023-04-21T11:38:49.000Z</time>
      </trkpt>
      <trkpt lat="44.51308" lon="6.23059">
        <ele>1399</ele>
        <time>2023-04-21T11:38:50.000Z</time>
      </trkpt>
      <trkpt lat="44.51308" lon="6.23059">
        <ele>1399</ele>
        <time>2023-04-21T11:38:51.000Z</time>
      </trkpt>
      <trkpt lat="44.51308" lon="6.23059">
        <ele>1399</ele>
        <time>2023-04-21T11:38:52.000Z</time>
      </trkpt>
      <trkpt lat="44.51308" lon="6.23059">
        <ele>1399</ele>
        <time>2023-04-21T11:38:53.000Z</time>
      </trkpt>
      <trkpt lat="44.51308" lon="6.23059">
        <ele>1399</ele>
        <time>2023-04-21T11:38:54.000Z</time>
      </trkpt>
      <trkpt lat="44.51308" lon="6.23059">
        <ele>1399</ele>
        <time>2023-04-21T11:38:55.000Z</time>
      </trkpt>
      <trkpt lat="44.51308" lon="6.23059">
        <ele>1399</ele>
        <time>2023-04-21T11:38:56.000Z</time>
      </trkpt>
      <trkpt lat="44.51308" lon="6.23059">
        <ele>1399</ele>
        <time>2023-04-21T11:38:57.000Z</time>
      </trkpt>
      <trkpt lat="44.51308" lon="6.23059">
        <ele>1399</ele>
        <time>2023-04-21T11:38:58.000Z</time>
      </trkpt>
      <trkpt lat="44.51308" lon="6.23059">
        <ele>1399</ele>
        <time>2023-04-21T11:38:59.000Z</time>
      </trkpt>
      <trkpt lat="44.51308" lon="6.2306">
        <ele>1399</ele>
        <time>2023-04-21T11:39:00.000Z</time>
      </trkpt>
      <trkpt lat="44.51308" lon="6.2306">
        <ele>1399</ele>
        <time>2023-04-21T11:39:01.000Z</time>
      </trkpt>
      <trkpt lat="44.51308" lon="6.2306">
        <ele>1399</ele>
        <time>2023-04-21T11:39:02.000Z</time>
      </trkpt>
      <trkpt lat="44.51308" lon="6.2306">
        <ele>1399</ele>
        <time>2023-04-21T11:39:03.000Z</time>
      </trkpt>
      <trkpt lat="44.51308" lon="6.2306">
        <ele>1399</ele>
        <time>2023-04-21T11:39:04.000Z</time>
      </trkpt>
      <trkpt lat="44.51308" lon="6.2306">
        <ele>1399</ele>
        <time>2023-04-21T11:39:05.000Z</time>
      </trkpt>
      <trkpt lat="44.51308" lon="6.2306">
        <ele>1399</ele>
        <time>2023-04-21T11:39:06.000Z</time>
      </trkpt>
      <trkpt lat="44.51308" lon="6.2306">
        <ele>1399</ele>
        <time>2023-04-21T11:39:07.000Z</time>
      </trkpt>
      <trkpt lat="44.51308" lon="6.2306">
        <ele>1399</ele>
        <time>2023-04-21T11:39:08.000Z</time>
      </trkpt>
      <trkpt lat="44.51308" lon="6.2306">
        <ele>1399</ele>
        <time>2023-04-21T11:39:09.000Z</time>
      </trkpt>
      <trkpt lat="44.51308" lon="6.23059">
        <ele>1399</ele>
        <time>2023-04-21T11:39:10.000Z</time>
      </trkpt>
      <trkpt lat="44.51308" lon="6.23059">
        <ele>1399</ele>
        <time>2023-04-21T11:39:11.000Z</time>
      </trkpt>
      <trkpt lat="44.51308" lon="6.23059">
        <ele>1399</ele>
        <time>2023-04-21T11:39:12.000Z</time>
      </trkpt>
      <trkpt lat="44.51308" lon="6.23059">
        <ele>1398</ele>
        <time>2023-04-21T11:39:13.000Z</time>
      </trkpt>
      <trkpt lat="44.51308" lon="6.23059">
        <ele>1398</ele>
        <time>2023-04-21T11:39:14.000Z</time>
      </trkpt>
      <trkpt lat="44.51308" lon="6.23059">
        <ele>1398</ele>
        <time>2023-04-21T11:39:15.000Z</time>
      </trkpt>
      <trkpt lat="44.51308" lon="6.23059">
        <ele>1398</ele>
        <time>2023-04-21T11:39:16.000Z</time>
      </trkpt>
      <trkpt lat="44.51308" lon="6.23059">
        <ele>1398</ele>
        <time>2023-04-21T11:39:17.000Z</time>
      </trkpt>
      <trkpt lat="44.51308" lon="6.23059">
        <ele>1398</ele>
        <time>2023-04-21T11:39:18.000Z</time>
      </trkpt>
      <trkpt lat="44.51308" lon="6.23059">
        <ele>1398</ele>
        <time>2023-04-21T11:39:19.000Z</time>
      </trkpt>
      <trkpt lat="44.51308" lon="6.23059">
        <ele>1398</ele>
        <time>2023-04-21T11:39:20.000Z</time>
      </trkpt>
      <trkpt lat="44.51308" lon="6.23059">
        <ele>1398</ele>
        <time>2023-04-21T11:39:21.000Z</time>
      </trkpt>
      <trkpt lat="44.51308" lon="6.23058">
        <ele>1398</ele>
        <time>2023-04-21T11:39:22.000Z</time>
      </trkpt>
      <trkpt lat="44.51308" lon="6.23058">
        <ele>1398</ele>
        <time>2023-04-21T11:39:23.000Z</time>
      </trkpt>
      <trkpt lat="44.51308" lon="6.23058">
        <ele>1397</ele>
        <time>2023-04-21T11:39:24.000Z</time>
      </trkpt>
      <trkpt lat="44.51308" lon="6.23058">
        <ele>1397</ele>
        <time>2023-04-21T11:39:25.000Z</time>
      </trkpt>
      <trkpt lat="44.51308" lon="6.23058">
        <ele>1397</ele>
        <time>2023-04-21T11:39:26.000Z</time>
      </trkpt>
      <trkpt lat="44.51308" lon="6.23058">
        <ele>1397</ele>
        <time>2023-04-21T11:39:27.000Z</time>
      </trkpt>
      <trkpt lat="44.51308" lon="6.23058">
        <ele>1397</ele>
        <time>2023-04-21T11:39:28.000Z</time>
      </trkpt>
      <trkpt lat="44.51308" lon="6.23058">
        <ele>1397</ele>
        <time>2023-04-21T11:39:29.000Z</time>
      </trkpt>
      <trkpt lat="44.51308" lon="6.23058">
        <ele>1397</ele>
        <time>2023-04-21T11:39:30.000Z</time>
      </trkpt>
      <trkpt lat="44.51308" lon="6.23058">
        <ele>1397</ele>
        <time>2023-04-21T11:39:31.000Z</time>
      </trkpt>
      <trkpt lat="44.51308" lon="6.23058">
        <ele>1397</ele>
        <time>2023-04-21T11:39:32.000Z</time>
      </trkpt>
      <trkpt lat="44.51308" lon="6.23058">
        <ele>1397</ele>
        <time>2023-04-21T11:39:33.000Z</time>
      </trkpt>
      <trkpt lat="44.51308" lon="6.23058">
        <ele>1397</ele>
        <time>2023-04-21T11:39:34.000Z</time>
      </trkpt>
      <trkpt lat="44.51308" lon="6.23058">
        <ele>1397</ele>
        <time>2023-04-21T11:39:35.000Z</time>
      </trkpt>
      <trkpt lat="44.51308" lon="6.23058">
        <ele>1397</ele>
        <time>2023-04-21T11:39:36.000Z</time>
      </trkpt>
      <trkpt lat="44.51308" lon="6.23058">
        <ele>1397</ele>
        <time>2023-04-21T11:39:37.000Z</time>
      </trkpt>
      <trkpt lat="44.51308" lon="6.23058">
        <ele>1397</ele>
        <time>2023-04-21T11:39:38.000Z</time>
      </trkpt>
      <trkpt lat="44.51308" lon="6.23058">
        <ele>1397</ele>
        <time>2023-04-21T11:39:39.000Z</time>
      </trkpt>
      <trkpt lat="44.51309" lon="6.23058">
        <ele>1397</ele>
        <time>2023-04-21T11:39:40.000Z</time>
      </trkpt>
      <trkpt lat="44.51309" lon="6.23058">
        <ele>1397</ele>
        <time>2023-04-21T11:39:41.000Z</time>
      </trkpt>
      <trkpt lat="44.51309" lon="6.23058">
        <ele>1397</ele>
        <time>2023-04-21T11:39:42.000Z</time>
      </trkpt>
      <trkpt lat="44.51309" lon="6.23058">
        <ele>1397</ele>
        <time>2023-04-21T11:39:43.000Z</time>
      </trkpt>
      <trkpt lat="44.51308" lon="6.23058">
        <ele>1396</ele>
        <time>2023-04-21T11:39:44.000Z</time>
      </trkpt>
      <trkpt lat="44.51308" lon="6.23058">
        <ele>1396</ele>
        <time>2023-04-21T11:39:45.000Z</time>
      </trkpt>
      <trkpt lat="44.51308" lon="6.23058">
        <ele>1396</ele>
        <time>2023-04-21T11:39:46.000Z</time>
      </trkpt>
      <trkpt lat="44.51308" lon="6.23058">
        <ele>1396</ele>
        <time>2023-04-21T11:39:47.000Z</time>
      </trkpt>
      <trkpt lat="44.51308" lon="6.23058">
        <ele>1396</ele>
        <time>2023-04-21T11:39:48.000Z</time>
      </trkpt>
      <trkpt lat="44.51308" lon="6.23058">
        <ele>1396</ele>
        <time>2023-04-21T11:39:49.000Z</time>
      </trkpt>
      <trkpt lat="44.51308" lon="6.23058">
        <ele>1396</ele>
        <time>2023-04-21T11:39:50.000Z</time>
      </trkpt>
      <trkpt lat="44.51308" lon="6.23058">
        <ele>1396</ele>
        <time>2023-04-21T11:39:51.000Z</time>
      </trkpt>
      <trkpt lat="44.51308" lon="6.23058">
        <ele>1396</ele>
        <time>2023-04-21T11:39:52.000Z</time>
      </trkpt>
      <trkpt lat="44.51308" lon="6.23058">
        <ele>1396</ele>
        <time>2023-04-21T11:39:53.000Z</time>
      </trkpt>
      <trkpt lat="44.51308" lon="6.23058">
        <ele>1396</ele>
        <time>2023-04-21T11:39:54.000Z</time>
      </trkpt>
      <trkpt lat="44.51308" lon="6.23058">
        <ele>1397</ele>
        <time>2023-04-21T11:39:55.000Z</time>
      </trkpt>
      <trkpt lat="44.51308" lon="6.23058">
        <ele>1397</ele>
        <time>2023-04-21T11:39:56.000Z</time>
      </trkpt>
      <trkpt lat="44.51308" lon="6.23058">
        <ele>1397</ele>
        <time>2023-04-21T11:39:57.000Z</time>
      </trkpt>
      <trkpt lat="44.51308" lon="6.23058">
        <ele>1397</ele>
        <time>2023-04-21T11:39:58.000Z</time>
      </trkpt>
      <trkpt lat="44.51308" lon="6.23059">
        <ele>1397</ele>
        <time>2023-04-21T11:39:59.000Z</time>
      </trkpt>
      <trkpt lat="44.51308" lon="6.23059">
        <ele>1397</ele>
        <time>2023-04-21T11:40:00.000Z</time>
      </trkpt>
      <trkpt lat="44.51308" lon="6.23059">
        <ele>1397</ele>
        <time>2023-04-21T11:40:01.000Z</time>
      </trkpt>
      <trkpt lat="44.51308" lon="6.23059">
        <ele>1397</ele>
        <time>2023-04-21T11:40:02.000Z</time>
      </trkpt>
      <trkpt lat="44.51308" lon="6.23059">
        <ele>1397</ele>
        <time>2023-04-21T11:40:03.000Z</time>
      </trkpt>
      <trkpt lat="44.51308" lon="6.23059">
        <ele>1397</ele>
        <time>2023-04-21T11:40:04.000Z</time>
      </trkpt>
      <trkpt lat="44.51309" lon="6.23059">
        <ele>1398</ele>
        <time>2023-04-21T11:40:05.000Z</time>
      </trkpt>
      <trkpt lat="44.51309" lon="6.23059">
        <ele>1398</ele>
        <time>2023-04-21T11:40:06.000Z</time>
      </trkpt>
      <trkpt lat="44.51309" lon="6.23059">
        <ele>1398</ele>
        <time>2023-04-21T11:40:07.000Z</time>
      </trkpt>
      <trkpt lat="44.51309" lon="6.23059">
        <ele>1398</ele>
        <time>2023-04-21T11:40:08.000Z</time>
      </trkpt>
      <trkpt lat="44.51309" lon="6.23059">
        <ele>1398</ele>
        <time>2023-04-21T11:40:09.000Z</time>
      </trkpt>
      <trkpt lat="44.51309" lon="6.23059">
        <ele>1398</ele>
        <time>2023-04-21T11:40:10.000Z</time>
      </trkpt>
      <trkpt lat="44.51309" lon="6.23059">
        <ele>1398</ele>
        <time>2023-04-21T11:40:11.000Z</time>
      </trkpt>
      <trkpt lat="44.51309" lon="6.23059">
        <ele>1399</ele>
        <time>2023-04-21T11:40:12.000Z</time>
      </trkpt>
      <trkpt lat="44.51309" lon="6.23059">
        <ele>1399</ele>
        <time>2023-04-21T11:40:13.000Z</time>
      </trkpt>
      <trkpt lat="44.51309" lon="6.23059">
        <ele>1399</ele>
        <time>2023-04-21T11:40:14.000Z</time>
      </trkpt>
      <trkpt lat="44.51309" lon="6.23059">
        <ele>1399</ele>
        <time>2023-04-21T11:40:15.000Z</time>
      </trkpt>
      <trkpt lat="44.51309" lon="6.23059">
        <ele>1399</ele>
        <time>2023-04-21T11:40:16.000Z</time>
      </trkpt>
      <trkpt lat="44.51309" lon="6.23059">
        <ele>1399</ele>
        <time>2023-04-21T11:40:17.000Z</time>
      </trkpt>
      <trkpt lat="44.51309" lon="6.23059">
        <ele>1399</ele>
        <time>2023-04-21T11:40:18.000Z</time>
      </trkpt>
      <trkpt lat="44.51309" lon="6.23059">
        <ele>1399</ele>
        <time>2023-04-21T11:40:19.000Z</time>
      </trkpt>
      <trkpt lat="44.51309" lon="6.23059">
        <ele>1399</ele>
        <time>2023-04-21T11:40:20.000Z</time>
      </trkpt>
      <trkpt lat="44.51309" lon="6.23059">
        <ele>1399</ele>
        <time>2023-04-21T11:40:21.000Z</time>
      </trkpt>
      <trkpt lat="44.51309" lon="6.23059">
        <ele>1399</ele>
        <time>2023-04-21T11:40:22.000Z</time>
      </trkpt>
      <trkpt lat="44.51309" lon="6.23059">
        <ele>1399</ele>
        <time>2023-04-21T11:40:23.000Z</time>
      </trkpt>
      <trkpt lat="44.51309" lon="6.23059">
        <ele>1399</ele>
        <time>2023-04-21T11:40:24.000Z</time>
      </trkpt>
      <trkpt lat="44.51309" lon="6.23059">
        <ele>1398</ele>
        <time>2023-04-21T11:40:25.000Z</time>
      </trkpt>
      <trkpt lat="44.51309" lon="6.23059">
        <ele>1398</ele>
        <time>2023-04-21T11:40:26.000Z</time>
      </trkpt>
      <trkpt lat="44.51309" lon="6.23059">
        <ele>1398</ele>
        <time>2023-04-21T11:40:27.000Z</time>
      </trkpt>
      <trkpt lat="44.51309" lon="6.23059">
        <ele>1398</ele>
        <time>2023-04-21T11:40:28.000Z</time>
      </trkpt>
      <trkpt lat="44.51309" lon="6.23059">
        <ele>1398</ele>
        <time>2023-04-21T11:40:29.000Z</time>
      </trkpt>
      <trkpt lat="44.51309" lon="6.23059">
        <ele>1398</ele>
        <time>2023-04-21T11:40:30.000Z</time>
      </trkpt>
      <trkpt lat="44.51309" lon="6.23059">
        <ele>1398</ele>
        <time>2023-04-21T11:40:31.000Z</time>
      </trkpt>
      <trkpt lat="44.51309" lon="6.23059">
        <ele>1398</ele>
        <time>2023-04-21T11:40:32.000Z</time>
      </trkpt>
      <trkpt lat="44.51309" lon="6.23059">
        <ele>1398</ele>
        <time>2023-04-21T11:40:33.000Z</time>
      </trkpt>
      <trkpt lat="44.51309" lon="6.23059">
        <ele>1398</ele>
        <time>2023-04-21T11:40:34.000Z</time>
      </trkpt>
      <trkpt lat="44.51309" lon="6.23059">
        <ele>1398</ele>
        <time>2023-04-21T11:40:35.000Z</time>
      </trkpt>
      <trkpt lat="44.51309" lon="6.23059">
        <ele>1398</ele>
        <time>2023-04-21T11:40:36.000Z</time>
      </trkpt>
      <trkpt lat="44.51309" lon="6.23059">
        <ele>1398</ele>
        <time>2023-04-21T11:40:37.000Z</time>
      </trkpt>
      <trkpt lat="44.51309" lon="6.23059">
        <ele>1398</ele>
        <time>2023-04-21T11:40:38.000Z</time>
      </trkpt>
      <trkpt lat="44.51309" lon="6.23059">
        <ele>1398</ele>
        <time>2023-04-21T11:40:39.000Z</time>
      </trkpt>
      <trkpt lat="44.51309" lon="6.23059">
        <ele>1398</ele>
        <time>2023-04-21T11:40:40.000Z</time>
      </trkpt>
      <trkpt lat="44.51309" lon="6.23059">
        <ele>1397</ele>
        <time>2023-04-21T11:40:41.000Z</time>
      </trkpt>
      <trkpt lat="44.51309" lon="6.23059">
        <ele>1397</ele>
        <time>2023-04-21T11:40:42.000Z</time>
      </trkpt>
      <trkpt lat="44.51309" lon="6.23059">
        <ele>1397</ele>
        <time>2023-04-21T11:40:43.000Z</time>
      </trkpt>
      <trkpt lat="44.51309" lon="6.23059">
        <ele>1397</ele>
        <time>2023-04-21T11:40:44.000Z</time>
      </trkpt>
      <trkpt lat="44.51309" lon="6.23059">
        <ele>1397</ele>
        <time>2023-04-21T11:40:45.000Z</time>
      </trkpt>
      <trkpt lat="44.51309" lon="6.23059">
        <ele>1397</ele>
        <time>2023-04-21T11:40:46.000Z</time>
      </trkpt>
      <trkpt lat="44.51309" lon="6.23059">
        <ele>1397</ele>
        <time>2023-04-21T11:40:47.000Z</time>
      </trkpt>
      <trkpt lat="44.51309" lon="6.23059">
        <ele>1398</ele>
        <time>2023-04-21T11:40:48.000Z</time>
      </trkpt>
      <trkpt lat="44.51309" lon="6.23059">
        <ele>1398</ele>
        <time>2023-04-21T11:40:49.000Z</time>
      </trkpt>
      <trkpt lat="44.51309" lon="6.23059">
        <ele>1398</ele>
        <time>2023-04-21T11:40:50.000Z</time>
      </trkpt>
      <trkpt lat="44.5131" lon="6.23059">
        <ele>1398</ele>
        <time>2023-04-21T11:40:51.000Z</time>
      </trkpt>
      <trkpt lat="44.5131" lon="6.23059">
        <ele>1398</ele>
        <time>2023-04-21T11:40:52.000Z</time>
      </trkpt>
      <trkpt lat="44.5131" lon="6.23059">
        <ele>1398</ele>
        <time>2023-04-21T11:40:53.000Z</time>
      </trkpt>
      <trkpt lat="44.5131" lon="6.23059">
        <ele>1398</ele>
        <time>2023-04-21T11:40:54.000Z</time>
      </trkpt>
      <trkpt lat="44.5131" lon="6.23059">
        <ele>1398</ele>
        <time>2023-04-21T11:40:55.000Z</time>
      </trkpt>
      <trkpt lat="44.5131" lon="6.23059">
        <ele>1398</ele>
        <time>2023-04-21T11:40:56.000Z</time>
      </trkpt>
      <trkpt lat="44.5131" lon="6.23059">
        <ele>1398</ele>
        <time>2023-04-21T11:40:57.000Z</time>
      </trkpt>
      <trkpt lat="44.5131" lon="6.23059">
        <ele>1398</ele>
        <time>2023-04-21T11:40:58.000Z</time>
      </trkpt>
      <trkpt lat="44.5131" lon="6.23059">
        <ele>1398</ele>
        <time>2023-04-21T11:40:59.000Z</time>
      </trkpt>
      <trkpt lat="44.5131" lon="6.23059">
        <ele>1398</ele>
        <time>2023-04-21T11:41:00.000Z</time>
      </trkpt>
      <trkpt lat="44.5131" lon="6.23059">
        <ele>1399</ele>
        <time>2023-04-21T11:41:01.000Z</time>
      </trkpt>
      <trkpt lat="44.51309" lon="6.23059">
        <ele>1399</ele>
        <time>2023-04-21T11:41:02.000Z</time>
      </trkpt>
      <trkpt lat="44.51309" lon="6.23059">
        <ele>1399</ele>
        <time>2023-04-21T11:41:03.000Z</time>
      </trkpt>
      <trkpt lat="44.5131" lon="6.23059">
        <ele>1399</ele>
        <time>2023-04-21T11:41:04.000Z</time>
      </trkpt>
      <trkpt lat="44.5131" lon="6.23059">
        <ele>1399</ele>
        <time>2023-04-21T11:41:05.000Z</time>
      </trkpt>
      <trkpt lat="44.5131" lon="6.23058">
        <ele>1399</ele>
        <time>2023-04-21T11:41:06.000Z</time>
      </trkpt>
      <trkpt lat="44.5131" lon="6.23057">
        <ele>1399</ele>
        <time>2023-04-21T11:41:07.000Z</time>
      </trkpt>
      <trkpt lat="44.5131" lon="6.23057">
        <ele>1399</ele>
        <time>2023-04-21T11:41:08.000Z</time>
      </trkpt>
      <trkpt lat="44.5131" lon="6.23057">
        <ele>1399</ele>
        <time>2023-04-21T11:41:09.000Z</time>
      </trkpt>
      <trkpt lat="44.5131" lon="6.23057">
        <ele>1399</ele>
        <time>2023-04-21T11:41:10.000Z</time>
      </trkpt>
      <trkpt lat="44.5131" lon="6.23057">
        <ele>1399</ele>
        <time>2023-04-21T11:41:11.000Z</time>
      </trkpt>
      <trkpt lat="44.5131" lon="6.23058">
        <ele>1399</ele>
        <time>2023-04-21T11:41:12.000Z</time>
      </trkpt>
      <trkpt lat="44.5131" lon="6.23058">
        <ele>1399</ele>
        <time>2023-04-21T11:41:13.000Z</time>
      </trkpt>
      <trkpt lat="44.5131" lon="6.23058">
        <ele>1399</ele>
        <time>2023-04-21T11:41:14.000Z</time>
      </trkpt>
      <trkpt lat="44.51311" lon="6.23058">
        <ele>1399</ele>
        <time>2023-04-21T11:41:15.000Z</time>
      </trkpt>
      <trkpt lat="44.51312" lon="6.23058">
        <ele>1399</ele>
        <time>2023-04-21T11:41:16.000Z</time>
      </trkpt>
      <trkpt lat="44.51313" lon="6.23057">
        <ele>1399</ele>
        <time>2023-04-21T11:41:17.000Z</time>
      </trkpt>
      <trkpt lat="44.51313" lon="6.23055">
        <ele>1400</ele>
        <time>2023-04-21T11:41:18.000Z</time>
      </trkpt>
      <trkpt lat="44.51314" lon="6.23053">
        <ele>1400</ele>
        <time>2023-04-21T11:41:19.000Z</time>
      </trkpt>
      <trkpt lat="44.51313" lon="6.23052">
        <ele>1400</ele>
        <time>2023-04-21T11:41:20.000Z</time>
      </trkpt>
      <trkpt lat="44.51312" lon="6.23051">
        <ele>1400</ele>
        <time>2023-04-21T11:41:21.000Z</time>
      </trkpt>
      <trkpt lat="44.51311" lon="6.23049">
        <ele>1400</ele>
        <time>2023-04-21T11:41:22.000Z</time>
      </trkpt>
      <trkpt lat="44.5131" lon="6.23048">
        <ele>1400</ele>
        <time>2023-04-21T11:41:23.000Z</time>
      </trkpt>
      <trkpt lat="44.51309" lon="6.23047">
        <ele>1401</ele>
        <time>2023-04-21T11:41:24.000Z</time>
      </trkpt>
      <trkpt lat="44.51309" lon="6.23046">
        <ele>1401</ele>
        <time>2023-04-21T11:41:25.000Z</time>
      </trkpt>
      <trkpt lat="44.51308" lon="6.23045">
        <ele>1401</ele>
        <time>2023-04-21T11:41:26.000Z</time>
      </trkpt>
      <trkpt lat="44.51307" lon="6.23043">
        <ele>1401</ele>
        <time>2023-04-21T11:41:27.000Z</time>
      </trkpt>
      <trkpt lat="44.51307" lon="6.23042">
        <ele>1401</ele>
        <time>2023-04-21T11:41:28.000Z</time>
      </trkpt>
      <trkpt lat="44.51306" lon="6.23039">
        <ele>1400</ele>
        <time>2023-04-21T11:41:29.000Z</time>
      </trkpt>
      <trkpt lat="44.51305" lon="6.23037">
        <ele>1400</ele>
        <time>2023-04-21T11:41:30.000Z</time>
      </trkpt>
      <trkpt lat="44.51304" lon="6.23033">
        <ele>1400</ele>
        <time>2023-04-21T11:41:31.000Z</time>
      </trkpt>
      <trkpt lat="44.51304" lon="6.2303">
        <ele>1400</ele>
        <time>2023-04-21T11:41:32.000Z</time>
      </trkpt>
      <trkpt lat="44.51303" lon="6.23027">
        <ele>1400</ele>
        <time>2023-04-21T11:41:33.000Z</time>
      </trkpt>
      <trkpt lat="44.51301" lon="6.23024">
        <ele>1400</ele>
        <time>2023-04-21T11:41:34.000Z</time>
      </trkpt>
      <trkpt lat="44.51299" lon="6.2302">
        <ele>1400</ele>
        <time>2023-04-21T11:41:35.000Z</time>
      </trkpt>
      <trkpt lat="44.51297" lon="6.23016">
        <ele>1400</ele>
        <time>2023-04-21T11:41:36.000Z</time>
      </trkpt>
      <trkpt lat="44.51295" lon="6.23012">
        <ele>1400</ele>
        <time>2023-04-21T11:41:37.000Z</time>
      </trkpt>
      <trkpt lat="44.51293" lon="6.23008">
        <ele>1400</ele>
        <time>2023-04-21T11:41:38.000Z</time>
      </trkpt>
      <trkpt lat="44.5129" lon="6.23005">
        <ele>1400</ele>
        <time>2023-04-21T11:41:39.000Z</time>
      </trkpt>
      <trkpt lat="44.51288" lon="6.23001">
        <ele>1400</ele>
        <time>2023-04-21T11:41:40.000Z</time>
      </trkpt>
      <trkpt lat="44.51286" lon="6.22998">
        <ele>1400</ele>
        <time>2023-04-21T11:41:41.000Z</time>
      </trkpt>
      <trkpt lat="44.51284" lon="6.22995">
        <ele>1400</ele>
        <time>2023-04-21T11:41:42.000Z</time>
      </trkpt>
      <trkpt lat="44.51282" lon="6.22992">
        <ele>1400</ele>
        <time>2023-04-21T11:41:43.000Z</time>
      </trkpt>
      <trkpt lat="44.5128" lon="6.22989">
        <ele>1400</ele>
        <time>2023-04-21T11:41:44.000Z</time>
      </trkpt>
      <trkpt lat="44.51278" lon="6.22986">
        <ele>1400</ele>
        <time>2023-04-21T11:41:45.000Z</time>
      </trkpt>
      <trkpt lat="44.51277" lon="6.22983">
        <ele>1400</ele>
        <time>2023-04-21T11:41:46.000Z</time>
      </trkpt>
      <trkpt lat="44.51275" lon="6.22981">
        <ele>1400</ele>
        <time>2023-04-21T11:41:47.000Z</time>
      </trkpt>
      <trkpt lat="44.51273" lon="6.22978">
        <ele>1400</ele>
        <time>2023-04-21T11:41:48.000Z</time>
      </trkpt>
      <trkpt lat="44.51271" lon="6.22975">
        <ele>1400</ele>
        <time>2023-04-21T11:41:49.000Z</time>
      </trkpt>
      <trkpt lat="44.51269" lon="6.22973">
        <ele>1400</ele>
        <time>2023-04-21T11:41:50.000Z</time>
      </trkpt>
      <trkpt lat="44.51267" lon="6.2297">
        <ele>1400</ele>
        <time>2023-04-21T11:41:51.000Z</time>
      </trkpt>
      <trkpt lat="44.51265" lon="6.22967">
        <ele>1400</ele>
        <time>2023-04-21T11:41:52.000Z</time>
      </trkpt>
      <trkpt lat="44.51264" lon="6.22964">
        <ele>1400</ele>
        <time>2023-04-21T11:41:53.000Z</time>
      </trkpt>
      <trkpt lat="44.51262" lon="6.22961">
        <ele>1400</ele>
        <time>2023-04-21T11:41:54.000Z</time>
      </trkpt>
      <trkpt lat="44.51259" lon="6.22959">
        <ele>1400</ele>
        <time>2023-04-21T11:41:55.000Z</time>
      </trkpt>
      <trkpt lat="44.51257" lon="6.22956">
        <ele>1400</ele>
        <time>2023-04-21T11:41:56.000Z</time>
      </trkpt>
      <trkpt lat="44.51255" lon="6.22954">
        <ele>1400</ele>
        <time>2023-04-21T11:41:57.000Z</time>
      </trkpt>
      <trkpt lat="44.51253" lon="6.22952">
        <ele>1401</ele>
        <time>2023-04-21T11:41:58.000Z</time>
      </trkpt>
      <trkpt lat="44.51251" lon="6.22949">
        <ele>1401</ele>
        <time>2023-04-21T11:41:59.000Z</time>
      </trkpt>
      <trkpt lat="44.51249" lon="6.22947">
        <ele>1401</ele>
        <time>2023-04-21T11:42:00.000Z</time>
      </trkpt>
      <trkpt lat="44.51247" lon="6.22945">
        <ele>1402</ele>
        <time>2023-04-21T11:42:01.000Z</time>
      </trkpt>
      <trkpt lat="44.51245" lon="6.22942">
        <ele>1402</ele>
        <time>2023-04-21T11:42:02.000Z</time>
      </trkpt>
      <trkpt lat="44.51243" lon="6.2294">
        <ele>1402</ele>
        <time>2023-04-21T11:42:03.000Z</time>
      </trkpt>
      <trkpt lat="44.51241" lon="6.22938">
        <ele>1402</ele>
        <time>2023-04-21T11:42:04.000Z</time>
      </trkpt>
      <trkpt lat="44.51239" lon="6.22936">
        <ele>1402</ele>
        <time>2023-04-21T11:42:05.000Z</time>
      </trkpt>
      <trkpt lat="44.51238" lon="6.22934">
        <ele>1402</ele>
        <time>2023-04-21T11:42:06.000Z</time>
      </trkpt>
      <trkpt lat="44.51236" lon="6.22932">
        <ele>1402</ele>
        <time>2023-04-21T11:42:07.000Z</time>
      </trkpt>
      <trkpt lat="44.51234" lon="6.22931">
        <ele>1402</ele>
        <time>2023-04-21T11:42:08.000Z</time>
      </trkpt>
      <trkpt lat="44.51232" lon="6.2293">
        <ele>1403</ele>
        <time>2023-04-21T11:42:09.000Z</time>
      </trkpt>
      <trkpt lat="44.5123" lon="6.22928">
        <ele>1403</ele>
        <time>2023-04-21T11:42:10.000Z</time>
      </trkpt>
      <trkpt lat="44.51228" lon="6.22927">
        <ele>1403</ele>
        <time>2023-04-21T11:42:11.000Z</time>
      </trkpt>
      <trkpt lat="44.51226" lon="6.22926">
        <ele>1403</ele>
        <time>2023-04-21T11:42:12.000Z</time>
      </trkpt>
      <trkpt lat="44.51224" lon="6.22926">
        <ele>1404</ele>
        <time>2023-04-21T11:42:13.000Z</time>
      </trkpt>
      <trkpt lat="44.51222" lon="6.22925">
        <ele>1404</ele>
        <time>2023-04-21T11:42:14.000Z</time>
      </trkpt>
      <trkpt lat="44.5122" lon="6.22924">
        <ele>1404</ele>
        <time>2023-04-21T11:42:15.000Z</time>
      </trkpt>
      <trkpt lat="44.51218" lon="6.22924">
        <ele>1405</ele>
        <time>2023-04-21T11:42:16.000Z</time>
      </trkpt>
      <trkpt lat="44.51216" lon="6.22923">
        <ele>1405</ele>
        <time>2023-04-21T11:42:17.000Z</time>
      </trkpt>
      <trkpt lat="44.51214" lon="6.22924">
        <ele>1405</ele>
        <time>2023-04-21T11:42:18.000Z</time>
      </trkpt>
      <trkpt lat="44.51212" lon="6.22924">
        <ele>1406</ele>
        <time>2023-04-21T11:42:19.000Z</time>
      </trkpt>
      <trkpt lat="44.5121" lon="6.22925">
        <ele>1406</ele>
        <time>2023-04-21T11:42:20.000Z</time>
      </trkpt>
      <trkpt lat="44.51208" lon="6.22925">
        <ele>1406</ele>
        <time>2023-04-21T11:42:21.000Z</time>
      </trkpt>
      <trkpt lat="44.51206" lon="6.22926">
        <ele>1407</ele>
        <time>2023-04-21T11:42:22.000Z</time>
      </trkpt>
      <trkpt lat="44.51204" lon="6.22927">
        <ele>1407</ele>
        <time>2023-04-21T11:42:23.000Z</time>
      </trkpt>
      <trkpt lat="44.51203" lon="6.22928">
        <ele>1408</ele>
        <time>2023-04-21T11:42:24.000Z</time>
      </trkpt>
      <trkpt lat="44.51201" lon="6.2293">
        <ele>1408</ele>
        <time>2023-04-21T11:42:25.000Z</time>
      </trkpt>
      <trkpt lat="44.51199" lon="6.22931">
        <ele>1409</ele>
        <time>2023-04-21T11:42:26.000Z</time>
      </trkpt>
      <trkpt lat="44.51198" lon="6.22933">
        <ele>1410</ele>
        <time>2023-04-21T11:42:27.000Z</time>
      </trkpt>
      <trkpt lat="44.51196" lon="6.22934">
        <ele>1411</ele>
        <time>2023-04-21T11:42:28.000Z</time>
      </trkpt>
      <trkpt lat="44.51195" lon="6.22935">
        <ele>1411</ele>
        <time>2023-04-21T11:42:29.000Z</time>
      </trkpt>
      <trkpt lat="44.51193" lon="6.22937">
        <ele>1412</ele>
        <time>2023-04-21T11:42:30.000Z</time>
      </trkpt>
      <trkpt lat="44.51192" lon="6.22938">
        <ele>1413</ele>
        <time>2023-04-21T11:42:31.000Z</time>
      </trkpt>
      <trkpt lat="44.5119" lon="6.2294">
        <ele>1414</ele>
        <time>2023-04-21T11:42:32.000Z</time>
      </trkpt>
      <trkpt lat="44.51189" lon="6.22942">
        <ele>1414</ele>
        <time>2023-04-21T11:42:33.000Z</time>
      </trkpt>
      <trkpt lat="44.51187" lon="6.22944">
        <ele>1415</ele>
        <time>2023-04-21T11:42:34.000Z</time>
      </trkpt>
      <trkpt lat="44.51186" lon="6.22945">
        <ele>1416</ele>
        <time>2023-04-21T11:42:35.000Z</time>
      </trkpt>
      <trkpt lat="44.51184" lon="6.22947">
        <ele>1417</ele>
        <time>2023-04-21T11:42:36.000Z</time>
      </trkpt>
      <trkpt lat="44.51183" lon="6.22949">
        <ele>1418</ele>
        <time>2023-04-21T11:42:37.000Z</time>
      </trkpt>
      <trkpt lat="44.51182" lon="6.2295">
        <ele>1420</ele>
        <time>2023-04-21T11:42:38.000Z</time>
      </trkpt>
      <trkpt lat="44.51182" lon="6.22951">
        <ele>1421</ele>
        <time>2023-04-21T11:42:39.000Z</time>
      </trkpt>
      <trkpt lat="44.5118" lon="6.22952">
        <ele>1422</ele>
        <time>2023-04-21T11:42:40.000Z</time>
      </trkpt>
      <trkpt lat="44.51179" lon="6.22954">
        <ele>1424</ele>
        <time>2023-04-21T11:42:41.000Z</time>
      </trkpt>
      <trkpt lat="44.51178" lon="6.22955">
        <ele>1425</ele>
        <time>2023-04-21T11:42:42.000Z</time>
      </trkpt>
      <trkpt lat="44.51177" lon="6.22957">
        <ele>1426</ele>
        <time>2023-04-21T11:42:43.000Z</time>
      </trkpt>
      <trkpt lat="44.51176" lon="6.22959">
        <ele>1427</ele>
        <time>2023-04-21T11:42:44.000Z</time>
      </trkpt>
      <trkpt lat="44.51174" lon="6.22961">
        <ele>1428</ele>
        <time>2023-04-21T11:42:45.000Z</time>
      </trkpt>
      <trkpt lat="44.51172" lon="6.22963">
        <ele>1429</ele>
        <time>2023-04-21T11:42:46.000Z</time>
      </trkpt>
      <trkpt lat="44.51171" lon="6.22966">
        <ele>1430</ele>
        <time>2023-04-21T11:42:47.000Z</time>
      </trkpt>
      <trkpt lat="44.51169" lon="6.22968">
        <ele>1428</ele>
        <time>2023-04-21T11:42:48.000Z</time>
      </trkpt>
      <trkpt lat="44.51167" lon="6.2297">
        <ele>1428</ele>
        <time>2023-04-21T11:42:49.000Z</time>
      </trkpt>
      <trkpt lat="44.51166" lon="6.22972">
        <ele>1428</ele>
        <time>2023-04-21T11:42:50.000Z</time>
      </trkpt>
      <trkpt lat="44.51164" lon="6.22975">
        <ele>1428</ele>
        <time>2023-04-21T11:42:51.000Z</time>
      </trkpt>
      <trkpt lat="44.51163" lon="6.22977">
        <ele>1429</ele>
        <time>2023-04-21T11:42:52.000Z</time>
      </trkpt>
      <trkpt lat="44.51162" lon="6.22979">
        <ele>1429</ele>
        <time>2023-04-21T11:42:53.000Z</time>
      </trkpt>
      <trkpt lat="44.5116" lon="6.2298">
        <ele>1430</ele>
        <time>2023-04-21T11:42:54.000Z</time>
      </trkpt>
      <trkpt lat="44.51159" lon="6.22982">
        <ele>1431</ele>
        <time>2023-04-21T11:42:55.000Z</time>
      </trkpt>
      <trkpt lat="44.51158" lon="6.22984">
        <ele>1432</ele>
        <time>2023-04-21T11:42:56.000Z</time>
      </trkpt>
      <trkpt lat="44.51156" lon="6.22985">
        <ele>1432</ele>
        <time>2023-04-21T11:42:57.000Z</time>
      </trkpt>
      <trkpt lat="44.51154" lon="6.22987">
        <ele>1432</ele>
        <time>2023-04-21T11:42:58.000Z</time>
      </trkpt>
      <trkpt lat="44.51153" lon="6.22988">
        <ele>1432</ele>
        <time>2023-04-21T11:42:59.000Z</time>
      </trkpt>
      <trkpt lat="44.51152" lon="6.22989">
        <ele>1432</ele>
        <time>2023-04-21T11:43:00.000Z</time>
      </trkpt>
      <trkpt lat="44.5115" lon="6.22989">
        <ele>1433</ele>
        <time>2023-04-21T11:43:01.000Z</time>
      </trkpt>
      <trkpt lat="44.51149" lon="6.2299">
        <ele>1434</ele>
        <time>2023-04-21T11:43:02.000Z</time>
      </trkpt>
      <trkpt lat="44.51148" lon="6.22991">
        <ele>1435</ele>
        <time>2023-04-21T11:43:03.000Z</time>
      </trkpt>
      <trkpt lat="44.51146" lon="6.22993">
        <ele>1436</ele>
        <time>2023-04-21T11:43:04.000Z</time>
      </trkpt>
      <trkpt lat="44.51145" lon="6.22994">
        <ele>1437</ele>
        <time>2023-04-21T11:43:05.000Z</time>
      </trkpt>
      <trkpt lat="44.51144" lon="6.22996">
        <ele>1438</ele>
        <time>2023-04-21T11:43:06.000Z</time>
      </trkpt>
      <trkpt lat="44.51143" lon="6.22998">
        <ele>1439</ele>
        <time>2023-04-21T11:43:07.000Z</time>
      </trkpt>
      <trkpt lat="44.51142" lon="6.23">
        <ele>1440</ele>
        <time>2023-04-21T11:43:08.000Z</time>
      </trkpt>
      <trkpt lat="44.51141" lon="6.23">
        <ele>1441</ele>
        <time>2023-04-21T11:43:09.000Z</time>
      </trkpt>
      <trkpt lat="44.51141" lon="6.23001">
        <ele>1442</ele>
        <time>2023-04-21T11:43:10.000Z</time>
      </trkpt>
      <trkpt lat="44.51139" lon="6.23003">
        <ele>1442</ele>
        <time>2023-04-21T11:43:11.000Z</time>
      </trkpt>
      <trkpt lat="44.51138" lon="6.23004">
        <ele>1443</ele>
        <time>2023-04-21T11:43:12.000Z</time>
      </trkpt>
      <trkpt lat="44.51136" lon="6.23006">
        <ele>1444</ele>
        <time>2023-04-21T11:43:13.000Z</time>
      </trkpt>
      <trkpt lat="44.51135" lon="6.23007">
        <ele>1445</ele>
        <time>2023-04-21T11:43:14.000Z</time>
      </trkpt>
      <trkpt lat="44.51134" lon="6.23008">
        <ele>1446</ele>
        <time>2023-04-21T11:43:15.000Z</time>
      </trkpt>
      <trkpt lat="44.51133" lon="6.23009">
        <ele>1446</ele>
        <time>2023-04-21T11:43:16.000Z</time>
      </trkpt>
      <trkpt lat="44.51132" lon="6.2301">
        <ele>1447</ele>
        <time>2023-04-21T11:43:17.000Z</time>
      </trkpt>
      <trkpt lat="44.5113" lon="6.23011">
        <ele>1448</ele>
        <time>2023-04-21T11:43:18.000Z</time>
      </trkpt>
      <trkpt lat="44.51129" lon="6.23012">
        <ele>1448</ele>
        <time>2023-04-21T11:43:19.000Z</time>
      </trkpt>
      <trkpt lat="44.51128" lon="6.23012">
        <ele>1449</ele>
        <time>2023-04-21T11:43:20.000Z</time>
      </trkpt>
      <trkpt lat="44.51127" lon="6.23013">
        <ele>1449</ele>
        <time>2023-04-21T11:43:21.000Z</time>
      </trkpt>
      <trkpt lat="44.51126" lon="6.23013">
        <ele>1449</ele>
        <time>2023-04-21T11:43:22.000Z</time>
      </trkpt>
      <trkpt lat="44.51125" lon="6.23014">
        <ele>1450</ele>
        <time>2023-04-21T11:43:23.000Z</time>
      </trkpt>
      <trkpt lat="44.51123" lon="6.23015">
        <ele>1450</ele>
        <time>2023-04-21T11:43:24.000Z</time>
      </trkpt>
      <trkpt lat="44.51121" lon="6.23015">
        <ele>1450</ele>
        <time>2023-04-21T11:43:25.000Z</time>
      </trkpt>
      <trkpt lat="44.51118" lon="6.23016">
        <ele>1451</ele>
        <time>2023-04-21T11:43:26.000Z</time>
      </trkpt>
      <trkpt lat="44.51117" lon="6.23017">
        <ele>1451</ele>
        <time>2023-04-21T11:43:27.000Z</time>
      </trkpt>
      <trkpt lat="44.51114" lon="6.23018">
        <ele>1450</ele>
        <time>2023-04-21T11:43:28.000Z</time>
      </trkpt>
      <trkpt lat="44.51112" lon="6.23019">
        <ele>1451</ele>
        <time>2023-04-21T11:43:29.000Z</time>
      </trkpt>
      <trkpt lat="44.5111" lon="6.23019">
        <ele>1451</ele>
        <time>2023-04-21T11:43:30.000Z</time>
      </trkpt>
      <trkpt lat="44.51108" lon="6.23019">
        <ele>1450</ele>
        <time>2023-04-21T11:43:31.000Z</time>
      </trkpt>
      <trkpt lat="44.51105" lon="6.2302">
        <ele>1448</ele>
        <time>2023-04-21T11:43:32.000Z</time>
      </trkpt>
      <trkpt lat="44.51103" lon="6.2302">
        <ele>1447</ele>
        <time>2023-04-21T11:43:33.000Z</time>
      </trkpt>
      <trkpt lat="44.51101" lon="6.2302">
        <ele>1448</ele>
        <time>2023-04-21T11:43:34.000Z</time>
      </trkpt>
      <trkpt lat="44.51099" lon="6.23021">
        <ele>1449</ele>
        <time>2023-04-21T11:43:35.000Z</time>
      </trkpt>
      <trkpt lat="44.51098" lon="6.23021">
        <ele>1449</ele>
        <time>2023-04-21T11:43:36.000Z</time>
      </trkpt>
      <trkpt lat="44.51096" lon="6.23021">
        <ele>1450</ele>
        <time>2023-04-21T11:43:37.000Z</time>
      </trkpt>
      <trkpt lat="44.51094" lon="6.23022">
        <ele>1451</ele>
        <time>2023-04-21T11:43:38.000Z</time>
      </trkpt>
      <trkpt lat="44.51093" lon="6.23022">
        <ele>1451</ele>
        <time>2023-04-21T11:43:39.000Z</time>
      </trkpt>
      <trkpt lat="44.51091" lon="6.23023">
        <ele>1452</ele>
        <time>2023-04-21T11:43:40.000Z</time>
      </trkpt>
      <trkpt lat="44.51089" lon="6.23023">
        <ele>1452</ele>
        <time>2023-04-21T11:43:41.000Z</time>
      </trkpt>
      <trkpt lat="44.51086" lon="6.23024">
        <ele>1452</ele>
        <time>2023-04-21T11:43:42.000Z</time>
      </trkpt>
      <trkpt lat="44.51084" lon="6.23024">
        <ele>1451</ele>
        <time>2023-04-21T11:43:43.000Z</time>
      </trkpt>
      <trkpt lat="44.51081" lon="6.23024">
        <ele>1451</ele>
        <time>2023-04-21T11:43:44.000Z</time>
      </trkpt>
      <trkpt lat="44.5108" lon="6.23024">
        <ele>1451</ele>
        <time>2023-04-21T11:43:45.000Z</time>
      </trkpt>
      <trkpt lat="44.51077" lon="6.23024">
        <ele>1451</ele>
        <time>2023-04-21T11:43:46.000Z</time>
      </trkpt>
      <trkpt lat="44.51076" lon="6.23025">
        <ele>1452</ele>
        <time>2023-04-21T11:43:47.000Z</time>
      </trkpt>
      <trkpt lat="44.51073" lon="6.23025">
        <ele>1451</ele>
        <time>2023-04-21T11:43:48.000Z</time>
      </trkpt>
      <trkpt lat="44.5107" lon="6.23026">
        <ele>1451</ele>
        <time>2023-04-21T11:43:49.000Z</time>
      </trkpt>
      <trkpt lat="44.51068" lon="6.23026">
        <ele>1451</ele>
        <time>2023-04-21T11:43:50.000Z</time>
      </trkpt>
      <trkpt lat="44.51067" lon="6.23027">
        <ele>1451</ele>
        <time>2023-04-21T11:43:51.000Z</time>
      </trkpt>
      <trkpt lat="44.51065" lon="6.23027">
        <ele>1451</ele>
        <time>2023-04-21T11:43:52.000Z</time>
      </trkpt>
      <trkpt lat="44.51063" lon="6.23028">
        <ele>1451</ele>
        <time>2023-04-21T11:43:53.000Z</time>
      </trkpt>
      <trkpt lat="44.51061" lon="6.23028">
        <ele>1451</ele>
        <time>2023-04-21T11:43:54.000Z</time>
      </trkpt>
      <trkpt lat="44.51059" lon="6.23028">
        <ele>1451</ele>
        <time>2023-04-21T11:43:55.000Z</time>
      </trkpt>
      <trkpt lat="44.51057" lon="6.23028">
        <ele>1451</ele>
        <time>2023-04-21T11:43:56.000Z</time>
      </trkpt>
      <trkpt lat="44.51055" lon="6.23028">
        <ele>1451</ele>
        <time>2023-04-21T11:43:57.000Z</time>
      </trkpt>
      <trkpt lat="44.51054" lon="6.23028">
        <ele>1451</ele>
        <time>2023-04-21T11:43:58.000Z</time>
      </trkpt>
      <trkpt lat="44.51051" lon="6.23028">
        <ele>1450</ele>
        <time>2023-04-21T11:43:59.000Z</time>
      </trkpt>
      <trkpt lat="44.51048" lon="6.23029">
        <ele>1449</ele>
        <time>2023-04-21T11:44:00.000Z</time>
      </trkpt>
      <trkpt lat="44.51046" lon="6.23029">
        <ele>1448</ele>
        <time>2023-04-21T11:44:01.000Z</time>
      </trkpt>
      <trkpt lat="44.51044" lon="6.23029">
        <ele>1448</ele>
        <time>2023-04-21T11:44:02.000Z</time>
      </trkpt>
      <trkpt lat="44.51042" lon="6.23029">
        <ele>1448</ele>
        <time>2023-04-21T11:44:03.000Z</time>
      </trkpt>
      <trkpt lat="44.5104" lon="6.23029">
        <ele>1447</ele>
        <time>2023-04-21T11:44:04.000Z</time>
      </trkpt>
      <trkpt lat="44.51038" lon="6.2303">
        <ele>1447</ele>
        <time>2023-04-21T11:44:05.000Z</time>
      </trkpt>
      <trkpt lat="44.51035" lon="6.2303">
        <ele>1447</ele>
        <time>2023-04-21T11:44:06.000Z</time>
      </trkpt>
      <trkpt lat="44.51033" lon="6.2303">
        <ele>1447</ele>
        <time>2023-04-21T11:44:07.000Z</time>
      </trkpt>
      <trkpt lat="44.51032" lon="6.2303">
        <ele>1448</ele>
        <time>2023-04-21T11:44:08.000Z</time>
      </trkpt>
      <trkpt lat="44.5103" lon="6.2303">
        <ele>1448</ele>
        <time>2023-04-21T11:44:09.000Z</time>
      </trkpt>
      <trkpt lat="44.51028" lon="6.2303">
        <ele>1447</ele>
        <time>2023-04-21T11:44:10.000Z</time>
      </trkpt>
      <trkpt lat="44.51026" lon="6.2303">
        <ele>1448</ele>
        <time>2023-04-21T11:44:11.000Z</time>
      </trkpt>
      <trkpt lat="44.51024" lon="6.2303">
        <ele>1447</ele>
        <time>2023-04-21T11:44:12.000Z</time>
      </trkpt>
      <trkpt lat="44.51021" lon="6.23029">
        <ele>1447</ele>
        <time>2023-04-21T11:44:13.000Z</time>
      </trkpt>
      <trkpt lat="44.51019" lon="6.23029">
        <ele>1448</ele>
        <time>2023-04-21T11:44:14.000Z</time>
      </trkpt>
      <trkpt lat="44.51017" lon="6.23029">
        <ele>1448</ele>
        <time>2023-04-21T11:44:15.000Z</time>
      </trkpt>
      <trkpt lat="44.51015" lon="6.23028">
        <ele>1448</ele>
        <time>2023-04-21T11:44:16.000Z</time>
      </trkpt>
      <trkpt lat="44.51013" lon="6.23028">
        <ele>1448</ele>
        <time>2023-04-21T11:44:17.000Z</time>
      </trkpt>
      <trkpt lat="44.51011" lon="6.23027">
        <ele>1448</ele>
        <time>2023-04-21T11:44:18.000Z</time>
      </trkpt>
      <trkpt lat="44.51009" lon="6.23027">
        <ele>1448</ele>
        <time>2023-04-21T11:44:19.000Z</time>
      </trkpt>
      <trkpt lat="44.51007" lon="6.23026">
        <ele>1449</ele>
        <time>2023-04-21T11:44:20.000Z</time>
      </trkpt>
      <trkpt lat="44.51005" lon="6.23026">
        <ele>1449</ele>
        <time>2023-04-21T11:44:21.000Z</time>
      </trkpt>
      <trkpt lat="44.51003" lon="6.23025">
        <ele>1450</ele>
        <time>2023-04-21T11:44:22.000Z</time>
      </trkpt>
      <trkpt lat="44.51001" lon="6.23025">
        <ele>1450</ele>
        <time>2023-04-21T11:44:23.000Z</time>
      </trkpt>
      <trkpt lat="44.50999" lon="6.23024">
        <ele>1451</ele>
        <time>2023-04-21T11:44:24.000Z</time>
      </trkpt>
      <trkpt lat="44.50997" lon="6.23024">
        <ele>1451</ele>
        <time>2023-04-21T11:44:25.000Z</time>
      </trkpt>
      <trkpt lat="44.50996" lon="6.23024">
        <ele>1452</ele>
        <time>2023-04-21T11:44:26.000Z</time>
      </trkpt>
      <trkpt lat="44.50994" lon="6.23024">
        <ele>1453</ele>
        <time>2023-04-21T11:44:27.000Z</time>
      </trkpt>
      <trkpt lat="44.50992" lon="6.23024">
        <ele>1454</ele>
        <time>2023-04-21T11:44:28.000Z</time>
      </trkpt>
      <trkpt lat="44.50991" lon="6.23024">
        <ele>1454</ele>
        <time>2023-04-21T11:44:29.000Z</time>
      </trkpt>
      <trkpt lat="44.50989" lon="6.23024">
        <ele>1455</ele>
        <time>2023-04-21T11:44:30.000Z</time>
      </trkpt>
      <trkpt lat="44.50987" lon="6.23024">
        <ele>1456</ele>
        <time>2023-04-21T11:44:31.000Z</time>
      </trkpt>
      <trkpt lat="44.50985" lon="6.23024">
        <ele>1457</ele>
        <time>2023-04-21T11:44:32.000Z</time>
      </trkpt>
      <trkpt lat="44.50983" lon="6.23024">
        <ele>1457</ele>
        <time>2023-04-21T11:44:33.000Z</time>
      </trkpt>
      <trkpt lat="44.50982" lon="6.23024">
        <ele>1458</ele>
        <time>2023-04-21T11:44:34.000Z</time>
      </trkpt>
      <trkpt lat="44.5098" lon="6.23024">
        <ele>1458</ele>
        <time>2023-04-21T11:44:35.000Z</time>
      </trkpt>
      <trkpt lat="44.50978" lon="6.23025">
        <ele>1459</ele>
        <time>2023-04-21T11:44:36.000Z</time>
      </trkpt>
      <trkpt lat="44.50977" lon="6.23026">
        <ele>1461</ele>
        <time>2023-04-21T11:44:37.000Z</time>
      </trkpt>
      <trkpt lat="44.50975" lon="6.23027">
        <ele>1463</ele>
        <time>2023-04-21T11:44:38.000Z</time>
      </trkpt>
      <trkpt lat="44.50974" lon="6.23027">
        <ele>1464</ele>
        <time>2023-04-21T11:44:39.000Z</time>
      </trkpt>
      <trkpt lat="44.50973" lon="6.23027">
        <ele>1465</ele>
        <time>2023-04-21T11:44:40.000Z</time>
      </trkpt>
      <trkpt lat="44.50971" lon="6.23028">
        <ele>1466</ele>
        <time>2023-04-21T11:44:41.000Z</time>
      </trkpt>
      <trkpt lat="44.50969" lon="6.23029">
        <ele>1466</ele>
        <time>2023-04-21T11:44:42.000Z</time>
      </trkpt>
      <trkpt lat="44.50968" lon="6.2303">
        <ele>1467</ele>
        <time>2023-04-21T11:44:43.000Z</time>
      </trkpt>
      <trkpt lat="44.50967" lon="6.2303">
        <ele>1467</ele>
        <time>2023-04-21T11:44:44.000Z</time>
      </trkpt>
      <trkpt lat="44.50965" lon="6.23031">
        <ele>1468</ele>
        <time>2023-04-21T11:44:45.000Z</time>
      </trkpt>
      <trkpt lat="44.50964" lon="6.23032">
        <ele>1469</ele>
        <time>2023-04-21T11:44:46.000Z</time>
      </trkpt>
      <trkpt lat="44.50962" lon="6.23032">
        <ele>1470</ele>
        <time>2023-04-21T11:44:47.000Z</time>
      </trkpt>
      <trkpt lat="44.5096" lon="6.23031">
        <ele>1469</ele>
        <time>2023-04-21T11:44:48.000Z</time>
      </trkpt>
      <trkpt lat="44.50959" lon="6.23032">
        <ele>1469</ele>
        <time>2023-04-21T11:44:49.000Z</time>
      </trkpt>
      <trkpt lat="44.50957" lon="6.23033">
        <ele>1470</ele>
        <time>2023-04-21T11:44:50.000Z</time>
      </trkpt>
      <trkpt lat="44.50955" lon="6.23034">
        <ele>1470</ele>
        <time>2023-04-21T11:44:51.000Z</time>
      </trkpt>
      <trkpt lat="44.50953" lon="6.23034">
        <ele>1470</ele>
        <time>2023-04-21T11:44:52.000Z</time>
      </trkpt>
      <trkpt lat="44.50951" lon="6.23034">
        <ele>1469</ele>
        <time>2023-04-21T11:44:53.000Z</time>
      </trkpt>
      <trkpt lat="44.5095" lon="6.23034">
        <ele>1469</ele>
        <time>2023-04-21T11:44:54.000Z</time>
      </trkpt>
      <trkpt lat="44.50947" lon="6.23034">
        <ele>1469</ele>
        <time>2023-04-21T11:44:55.000Z</time>
      </trkpt>
      <trkpt lat="44.50945" lon="6.23035">
        <ele>1468</ele>
        <time>2023-04-21T11:44:56.000Z</time>
      </trkpt>
      <trkpt lat="44.50943" lon="6.23035">
        <ele>1469</ele>
        <time>2023-04-21T11:44:57.000Z</time>
      </trkpt>
      <trkpt lat="44.50941" lon="6.23036">
        <ele>1469</ele>
        <time>2023-04-21T11:44:58.000Z</time>
      </trkpt>
      <trkpt lat="44.50939" lon="6.23037">
        <ele>1469</ele>
        <time>2023-04-21T11:44:59.000Z</time>
      </trkpt>
      <trkpt lat="44.50936" lon="6.23037">
        <ele>1468</ele>
        <time>2023-04-21T11:45:00.000Z</time>
      </trkpt>
      <trkpt lat="44.50934" lon="6.23037">
        <ele>1469</ele>
        <time>2023-04-21T11:45:01.000Z</time>
      </trkpt>
      <trkpt lat="44.50933" lon="6.23038">
        <ele>1469</ele>
        <time>2023-04-21T11:45:02.000Z</time>
      </trkpt>
      <trkpt lat="44.50931" lon="6.23038">
        <ele>1469</ele>
        <time>2023-04-21T11:45:03.000Z</time>
      </trkpt>
      <trkpt lat="44.50928" lon="6.23039">
        <ele>1469</ele>
        <time>2023-04-21T11:45:04.000Z</time>
      </trkpt>
      <trkpt lat="44.50926" lon="6.23039">
        <ele>1468</ele>
        <time>2023-04-21T11:45:05.000Z</time>
      </trkpt>
      <trkpt lat="44.50923" lon="6.2304">
        <ele>1466</ele>
        <time>2023-04-21T11:45:06.000Z</time>
      </trkpt>
      <trkpt lat="44.5092" lon="6.2304">
        <ele>1465</ele>
        <time>2023-04-21T11:45:07.000Z</time>
      </trkpt>
      <trkpt lat="44.50918" lon="6.2304">
        <ele>1465</ele>
        <time>2023-04-21T11:45:08.000Z</time>
      </trkpt>
      <trkpt lat="44.50916" lon="6.2304">
        <ele>1465</ele>
        <time>2023-04-21T11:45:09.000Z</time>
      </trkpt>
      <trkpt lat="44.50914" lon="6.2304">
        <ele>1465</ele>
        <time>2023-04-21T11:45:10.000Z</time>
      </trkpt>
      <trkpt lat="44.50912" lon="6.2304">
        <ele>1464</ele>
        <time>2023-04-21T11:45:11.000Z</time>
      </trkpt>
      <trkpt lat="44.50909" lon="6.2304">
        <ele>1463</ele>
        <time>2023-04-21T11:45:12.000Z</time>
      </trkpt>
      <trkpt lat="44.50907" lon="6.2304">
        <ele>1463</ele>
        <time>2023-04-21T11:45:13.000Z</time>
      </trkpt>
      <trkpt lat="44.50905" lon="6.23038">
        <ele>1462</ele>
        <time>2023-04-21T11:45:14.000Z</time>
      </trkpt>
      <trkpt lat="44.50903" lon="6.23037">
        <ele>1462</ele>
        <time>2023-04-21T11:45:15.000Z</time>
      </trkpt>
      <trkpt lat="44.50902" lon="6.23035">
        <ele>1462</ele>
        <time>2023-04-21T11:45:16.000Z</time>
      </trkpt>
      <trkpt lat="44.50902" lon="6.23033">
        <ele>1462</ele>
        <time>2023-04-21T11:45:17.000Z</time>
      </trkpt>
      <trkpt lat="44.50901" lon="6.2303">
        <ele>1460</ele>
        <time>2023-04-21T11:45:18.000Z</time>
      </trkpt>
      <trkpt lat="44.50901" lon="6.23028">
        <ele>1458</ele>
        <time>2023-04-21T11:45:19.000Z</time>
      </trkpt>
      <trkpt lat="44.50901" lon="6.23026">
        <ele>1457</ele>
        <time>2023-04-21T11:45:20.000Z</time>
      </trkpt>
      <trkpt lat="44.50902" lon="6.23024">
        <ele>1456</ele>
        <time>2023-04-21T11:45:21.000Z</time>
      </trkpt>
      <trkpt lat="44.50903" lon="6.23023">
        <ele>1455</ele>
        <time>2023-04-21T11:45:22.000Z</time>
      </trkpt>
      <trkpt lat="44.50904" lon="6.23022">
        <ele>1455</ele>
        <time>2023-04-21T11:45:23.000Z</time>
      </trkpt>
      <trkpt lat="44.50906" lon="6.23021">
        <ele>1454</ele>
        <time>2023-04-21T11:45:24.000Z</time>
      </trkpt>
      <trkpt lat="44.50907" lon="6.2302">
        <ele>1454</ele>
        <time>2023-04-21T11:45:25.000Z</time>
      </trkpt>
      <trkpt lat="44.50909" lon="6.23018">
        <ele>1453</ele>
        <time>2023-04-21T11:45:26.000Z</time>
      </trkpt>
      <trkpt lat="44.5091" lon="6.23017">
        <ele>1453</ele>
        <time>2023-04-21T11:45:27.000Z</time>
      </trkpt>
      <trkpt lat="44.50912" lon="6.23016">
        <ele>1453</ele>
        <time>2023-04-21T11:45:28.000Z</time>
      </trkpt>
      <trkpt lat="44.50913" lon="6.23016">
        <ele>1453</ele>
        <time>2023-04-21T11:45:29.000Z</time>
      </trkpt>
      <trkpt lat="44.50914" lon="6.23014">
        <ele>1453</ele>
        <time>2023-04-21T11:45:30.000Z</time>
      </trkpt>
      <trkpt lat="44.50916" lon="6.23013">
        <ele>1452</ele>
        <time>2023-04-21T11:45:31.000Z</time>
      </trkpt>
      <trkpt lat="44.50917" lon="6.23012">
        <ele>1453</ele>
        <time>2023-04-21T11:45:32.000Z</time>
      </trkpt>
      <trkpt lat="44.50919" lon="6.23011">
        <ele>1453</ele>
        <time>2023-04-21T11:45:33.000Z</time>
      </trkpt>
      <trkpt lat="44.5092" lon="6.23009">
        <ele>1453</ele>
        <time>2023-04-21T11:45:34.000Z</time>
      </trkpt>
      <trkpt lat="44.50922" lon="6.23008">
        <ele>1453</ele>
        <time>2023-04-21T11:45:35.000Z</time>
      </trkpt>
      <trkpt lat="44.50923" lon="6.23006">
        <ele>1453</ele>
        <time>2023-04-21T11:45:36.000Z</time>
      </trkpt>
      <trkpt lat="44.50925" lon="6.23005">
        <ele>1453</ele>
        <time>2023-04-21T11:45:37.000Z</time>
      </trkpt>
      <trkpt lat="44.50927" lon="6.23003">
        <ele>1453</ele>
        <time>2023-04-21T11:45:38.000Z</time>
      </trkpt>
      <trkpt lat="44.50928" lon="6.23002">
        <ele>1453</ele>
        <time>2023-04-21T11:45:39.000Z</time>
      </trkpt>
      <trkpt lat="44.50929" lon="6.23">
        <ele>1453</ele>
        <time>2023-04-21T11:45:40.000Z</time>
      </trkpt>
      <trkpt lat="44.50931" lon="6.22999">
        <ele>1453</ele>
        <time>2023-04-21T11:45:41.000Z</time>
      </trkpt>
      <trkpt lat="44.50932" lon="6.22997">
        <ele>1454</ele>
        <time>2023-04-21T11:45:42.000Z</time>
      </trkpt>
      <trkpt lat="44.50934" lon="6.22996">
        <ele>1454</ele>
        <time>2023-04-21T11:45:43.000Z</time>
      </trkpt>
      <trkpt lat="44.50935" lon="6.22994">
        <ele>1455</ele>
        <time>2023-04-21T11:45:44.000Z</time>
      </trkpt>
      <trkpt lat="44.50937" lon="6.22992">
        <ele>1455</ele>
        <time>2023-04-21T11:45:45.000Z</time>
      </trkpt>
      <trkpt lat="44.50939" lon="6.22991">
        <ele>1455</ele>
        <time>2023-04-21T11:45:46.000Z</time>
      </trkpt>
      <trkpt lat="44.5094" lon="6.22989">
        <ele>1456</ele>
        <time>2023-04-21T11:45:47.000Z</time>
      </trkpt>
      <trkpt lat="44.50942" lon="6.22988">
        <ele>1456</ele>
        <time>2023-04-21T11:45:48.000Z</time>
      </trkpt>
      <trkpt lat="44.50944" lon="6.22986">
        <ele>1456</ele>
        <time>2023-04-21T11:45:49.000Z</time>
      </trkpt>
      <trkpt lat="44.50946" lon="6.22985">
        <ele>1456</ele>
        <time>2023-04-21T11:45:50.000Z</time>
      </trkpt>
      <trkpt lat="44.50948" lon="6.22984">
        <ele>1457</ele>
        <time>2023-04-21T11:45:51.000Z</time>
      </trkpt>
      <trkpt lat="44.5095" lon="6.22982">
        <ele>1457</ele>
        <time>2023-04-21T11:45:52.000Z</time>
      </trkpt>
      <trkpt lat="44.50952" lon="6.22981">
        <ele>1458</ele>
        <time>2023-04-21T11:45:53.000Z</time>
      </trkpt>
      <trkpt lat="44.50953" lon="6.22979">
        <ele>1458</ele>
        <time>2023-04-21T11:45:54.000Z</time>
      </trkpt>
      <trkpt lat="44.50955" lon="6.22978">
        <ele>1458</ele>
        <time>2023-04-21T11:45:55.000Z</time>
      </trkpt>
      <trkpt lat="44.50957" lon="6.22977">
        <ele>1458</ele>
        <time>2023-04-21T11:45:56.000Z</time>
      </trkpt>
      <trkpt lat="44.50959" lon="6.22976">
        <ele>1458</ele>
        <time>2023-04-21T11:45:57.000Z</time>
      </trkpt>
      <trkpt lat="44.50961" lon="6.22975">
        <ele>1458</ele>
        <time>2023-04-21T11:45:58.000Z</time>
      </trkpt>
      <trkpt lat="44.50963" lon="6.22974">
        <ele>1458</ele>
        <time>2023-04-21T11:45:59.000Z</time>
      </trkpt>
      <trkpt lat="44.50965" lon="6.22973">
        <ele>1459</ele>
        <time>2023-04-21T11:46:00.000Z</time>
      </trkpt>
      <trkpt lat="44.50968" lon="6.22973">
        <ele>1459</ele>
        <time>2023-04-21T11:46:01.000Z</time>
      </trkpt>
      <trkpt lat="44.5097" lon="6.22972">
        <ele>1459</ele>
        <time>2023-04-21T11:46:02.000Z</time>
      </trkpt>
      <trkpt lat="44.50972" lon="6.22971">
        <ele>1459</ele>
        <time>2023-04-21T11:46:03.000Z</time>
      </trkpt>
      <trkpt lat="44.50974" lon="6.22971">
        <ele>1459</ele>
        <time>2023-04-21T11:46:04.000Z</time>
      </trkpt>
      <trkpt lat="44.50977" lon="6.2297">
        <ele>1460</ele>
        <time>2023-04-21T11:46:05.000Z</time>
      </trkpt>
      <trkpt lat="44.50979" lon="6.22969">
        <ele>1460</ele>
        <time>2023-04-21T11:46:06.000Z</time>
      </trkpt>
      <trkpt lat="44.50981" lon="6.22969">
        <ele>1460</ele>
        <time>2023-04-21T11:46:07.000Z</time>
      </trkpt>
      <trkpt lat="44.50983" lon="6.22969">
        <ele>1460</ele>
        <time>2023-04-21T11:46:08.000Z</time>
      </trkpt>
      <trkpt lat="44.50985" lon="6.22969">
        <ele>1460</ele>
        <time>2023-04-21T11:46:09.000Z</time>
      </trkpt>
      <trkpt lat="44.50987" lon="6.22969">
        <ele>1461</ele>
        <time>2023-04-21T11:46:10.000Z</time>
      </trkpt>
      <trkpt lat="44.50989" lon="6.22969">
        <ele>1461</ele>
        <time>2023-04-21T11:46:11.000Z</time>
      </trkpt>
      <trkpt lat="44.50992" lon="6.22969">
        <ele>1461</ele>
        <time>2023-04-21T11:46:12.000Z</time>
      </trkpt>
      <trkpt lat="44.50994" lon="6.22968">
        <ele>1461</ele>
        <time>2023-04-21T11:46:13.000Z</time>
      </trkpt>
      <trkpt lat="44.50996" lon="6.22968">
        <ele>1461</ele>
        <time>2023-04-21T11:46:14.000Z</time>
      </trkpt>
      <trkpt lat="44.50999" lon="6.22967">
        <ele>1461</ele>
        <time>2023-04-21T11:46:15.000Z</time>
      </trkpt>
      <trkpt lat="44.51001" lon="6.22966">
        <ele>1461</ele>
        <time>2023-04-21T11:46:16.000Z</time>
      </trkpt>
      <trkpt lat="44.51003" lon="6.22965">
        <ele>1462</ele>
        <time>2023-04-21T11:46:17.000Z</time>
      </trkpt>
      <trkpt lat="44.51005" lon="6.22963">
        <ele>1462</ele>
        <time>2023-04-21T11:46:18.000Z</time>
      </trkpt>
      <trkpt lat="44.51007" lon="6.22961">
        <ele>1462</ele>
        <time>2023-04-21T11:46:19.000Z</time>
      </trkpt>
      <trkpt lat="44.51009" lon="6.22959">
        <ele>1462</ele>
        <time>2023-04-21T11:46:20.000Z</time>
      </trkpt>
      <trkpt lat="44.51011" lon="6.22957">
        <ele>1462</ele>
        <time>2023-04-21T11:46:21.000Z</time>
      </trkpt>
      <trkpt lat="44.51012" lon="6.22955">
        <ele>1461</ele>
        <time>2023-04-21T11:46:22.000Z</time>
      </trkpt>
      <trkpt lat="44.51014" lon="6.22953">
        <ele>1462</ele>
        <time>2023-04-21T11:46:23.000Z</time>
      </trkpt>
      <trkpt lat="44.51015" lon="6.22951">
        <ele>1462</ele>
        <time>2023-04-21T11:46:24.000Z</time>
      </trkpt>
      <trkpt lat="44.51017" lon="6.22948">
        <ele>1462</ele>
        <time>2023-04-21T11:46:25.000Z</time>
      </trkpt>
      <trkpt lat="44.51019" lon="6.22946">
        <ele>1463</ele>
        <time>2023-04-21T11:46:26.000Z</time>
      </trkpt>
      <trkpt lat="44.5102" lon="6.22944">
        <ele>1463</ele>
        <time>2023-04-21T11:46:27.000Z</time>
      </trkpt>
      <trkpt lat="44.51022" lon="6.22942">
        <ele>1463</ele>
        <time>2023-04-21T11:46:28.000Z</time>
      </trkpt>
      <trkpt lat="44.51023" lon="6.2294">
        <ele>1463</ele>
        <time>2023-04-21T11:46:29.000Z</time>
      </trkpt>
      <trkpt lat="44.51024" lon="6.22937">
        <ele>1464</ele>
        <time>2023-04-21T11:46:30.000Z</time>
      </trkpt>
      <trkpt lat="44.51025" lon="6.22935">
        <ele>1465</ele>
        <time>2023-04-21T11:46:31.000Z</time>
      </trkpt>
      <trkpt lat="44.51025" lon="6.22932">
        <ele>1466</ele>
        <time>2023-04-21T11:46:32.000Z</time>
      </trkpt>
      <trkpt lat="44.51026" lon="6.2293">
        <ele>1466</ele>
        <time>2023-04-21T11:46:33.000Z</time>
      </trkpt>
      <trkpt lat="44.51026" lon="6.22926">
        <ele>1467</ele>
        <time>2023-04-21T11:46:34.000Z</time>
      </trkpt>
      <trkpt lat="44.51026" lon="6.22923">
        <ele>1467</ele>
        <time>2023-04-21T11:46:35.000Z</time>
      </trkpt>
      <trkpt lat="44.51027" lon="6.2292">
        <ele>1468</ele>
        <time>2023-04-21T11:46:36.000Z</time>
      </trkpt>
      <trkpt lat="44.51027" lon="6.22918">
        <ele>1469</ele>
        <time>2023-04-21T11:46:37.000Z</time>
      </trkpt>
      <trkpt lat="44.51027" lon="6.22915">
        <ele>1470</ele>
        <time>2023-04-21T11:46:38.000Z</time>
      </trkpt>
      <trkpt lat="44.51028" lon="6.22911">
        <ele>1469</ele>
        <time>2023-04-21T11:46:39.000Z</time>
      </trkpt>
      <trkpt lat="44.51028" lon="6.22908">
        <ele>1470</ele>
        <time>2023-04-21T11:46:40.000Z</time>
      </trkpt>
      <trkpt lat="44.51028" lon="6.22905">
        <ele>1471</ele>
        <time>2023-04-21T11:46:41.000Z</time>
      </trkpt>
      <trkpt lat="44.51028" lon="6.22902">
        <ele>1471</ele>
        <time>2023-04-21T11:46:42.000Z</time>
      </trkpt>
      <trkpt lat="44.51028" lon="6.22899">
        <ele>1472</ele>
        <time>2023-04-21T11:46:43.000Z</time>
      </trkpt>
      <trkpt lat="44.51029" lon="6.22896">
        <ele>1472</ele>
        <time>2023-04-21T11:46:44.000Z</time>
      </trkpt>
      <trkpt lat="44.51029" lon="6.22893">
        <ele>1473</ele>
        <time>2023-04-21T11:46:45.000Z</time>
      </trkpt>
      <trkpt lat="44.5103" lon="6.2289">
        <ele>1473</ele>
        <time>2023-04-21T11:46:46.000Z</time>
      </trkpt>
      <trkpt lat="44.5103" lon="6.22887">
        <ele>1473</ele>
        <time>2023-04-21T11:46:47.000Z</time>
      </trkpt>
      <trkpt lat="44.5103" lon="6.22883">
        <ele>1473</ele>
        <time>2023-04-21T11:46:48.000Z</time>
      </trkpt>
      <trkpt lat="44.5103" lon="6.2288">
        <ele>1473</ele>
        <time>2023-04-21T11:46:49.000Z</time>
      </trkpt>
      <trkpt lat="44.5103" lon="6.22877">
        <ele>1473</ele>
        <time>2023-04-21T11:46:50.000Z</time>
      </trkpt>
      <trkpt lat="44.5103" lon="6.22874">
        <ele>1474</ele>
        <time>2023-04-21T11:46:51.000Z</time>
      </trkpt>
      <trkpt lat="44.51031" lon="6.22871">
        <ele>1474</ele>
        <time>2023-04-21T11:46:52.000Z</time>
      </trkpt>
      <trkpt lat="44.5103" lon="6.22868">
        <ele>1475</ele>
        <time>2023-04-21T11:46:53.000Z</time>
      </trkpt>
      <trkpt lat="44.5103" lon="6.22864">
        <ele>1475</ele>
        <time>2023-04-21T11:46:54.000Z</time>
      </trkpt>
      <trkpt lat="44.5103" lon="6.22861">
        <ele>1475</ele>
        <time>2023-04-21T11:46:55.000Z</time>
      </trkpt>
      <trkpt lat="44.51031" lon="6.22858">
        <ele>1475</ele>
        <time>2023-04-21T11:46:56.000Z</time>
      </trkpt>
      <trkpt lat="44.51031" lon="6.22855">
        <ele>1476</ele>
        <time>2023-04-21T11:46:57.000Z</time>
      </trkpt>
      <trkpt lat="44.5103" lon="6.2285">
        <ele>1475</ele>
        <time>2023-04-21T11:46:58.000Z</time>
      </trkpt>
      <trkpt lat="44.5103" lon="6.22847">
        <ele>1476</ele>
        <time>2023-04-21T11:46:59.000Z</time>
      </trkpt>
      <trkpt lat="44.5103" lon="6.22844">
        <ele>1477</ele>
        <time>2023-04-21T11:47:00.000Z</time>
      </trkpt>
      <trkpt lat="44.5103" lon="6.22841">
        <ele>1477</ele>
        <time>2023-04-21T11:47:01.000Z</time>
      </trkpt>
      <trkpt lat="44.5103" lon="6.22838">
        <ele>1478</ele>
        <time>2023-04-21T11:47:02.000Z</time>
      </trkpt>
      <trkpt lat="44.5103" lon="6.22835">
        <ele>1478</ele>
        <time>2023-04-21T11:47:03.000Z</time>
      </trkpt>
      <trkpt lat="44.5103" lon="6.22833">
        <ele>1479</ele>
        <time>2023-04-21T11:47:04.000Z</time>
      </trkpt>
      <trkpt lat="44.5103" lon="6.22831">
        <ele>1480</ele>
        <time>2023-04-21T11:47:05.000Z</time>
      </trkpt>
      <trkpt lat="44.5103" lon="6.22828">
        <ele>1481</ele>
        <time>2023-04-21T11:47:06.000Z</time>
      </trkpt>
      <trkpt lat="44.51031" lon="6.22825">
        <ele>1482</ele>
        <time>2023-04-21T11:47:07.000Z</time>
      </trkpt>
      <trkpt lat="44.51031" lon="6.22822">
        <ele>1482</ele>
        <time>2023-04-21T11:47:08.000Z</time>
      </trkpt>
      <trkpt lat="44.51031" lon="6.22818">
        <ele>1483</ele>
        <time>2023-04-21T11:47:09.000Z</time>
      </trkpt>
      <trkpt lat="44.5103" lon="6.22814">
        <ele>1483</ele>
        <time>2023-04-21T11:47:10.000Z</time>
      </trkpt>
      <trkpt lat="44.51029" lon="6.22812">
        <ele>1484</ele>
        <time>2023-04-21T11:47:11.000Z</time>
      </trkpt>
      <trkpt lat="44.51029" lon="6.22808">
        <ele>1483</ele>
        <time>2023-04-21T11:47:12.000Z</time>
      </trkpt>
      <trkpt lat="44.51029" lon="6.22804">
        <ele>1484</ele>
        <time>2023-04-21T11:47:13.000Z</time>
      </trkpt>
      <trkpt lat="44.51029" lon="6.22801">
        <ele>1485</ele>
        <time>2023-04-21T11:47:14.000Z</time>
      </trkpt>
      <trkpt lat="44.51028" lon="6.22798">
        <ele>1485</ele>
        <time>2023-04-21T11:47:15.000Z</time>
      </trkpt>
      <trkpt lat="44.51029" lon="6.22795">
        <ele>1486</ele>
        <time>2023-04-21T11:47:16.000Z</time>
      </trkpt>
      <trkpt lat="44.51028" lon="6.22791">
        <ele>1485</ele>
        <time>2023-04-21T11:47:17.000Z</time>
      </trkpt>
      <trkpt lat="44.51027" lon="6.22787">
        <ele>1485</ele>
        <time>2023-04-21T11:47:18.000Z</time>
      </trkpt>
      <trkpt lat="44.51027" lon="6.22783">
        <ele>1484</ele>
        <time>2023-04-21T11:47:19.000Z</time>
      </trkpt>
      <trkpt lat="44.51027" lon="6.2278">
        <ele>1484</ele>
        <time>2023-04-21T11:47:20.000Z</time>
      </trkpt>
      <trkpt lat="44.51027" lon="6.22776">
        <ele>1484</ele>
        <time>2023-04-21T11:47:21.000Z</time>
      </trkpt>
      <trkpt lat="44.51027" lon="6.22772">
        <ele>1484</ele>
        <time>2023-04-21T11:47:22.000Z</time>
      </trkpt>
      <trkpt lat="44.51027" lon="6.22769">
        <ele>1484</ele>
        <time>2023-04-21T11:47:23.000Z</time>
      </trkpt>
      <trkpt lat="44.51027" lon="6.22765">
        <ele>1483</ele>
        <time>2023-04-21T11:47:24.000Z</time>
      </trkpt>
      <trkpt lat="44.51028" lon="6.22761">
        <ele>1483</ele>
        <time>2023-04-21T11:47:25.000Z</time>
      </trkpt>
      <trkpt lat="44.51028" lon="6.22757">
        <ele>1483</ele>
        <time>2023-04-21T11:47:26.000Z</time>
      </trkpt>
      <trkpt lat="44.51029" lon="6.22754">
        <ele>1483</ele>
        <time>2023-04-21T11:47:27.000Z</time>
      </trkpt>
      <trkpt lat="44.5103" lon="6.2275">
        <ele>1483</ele>
        <time>2023-04-21T11:47:28.000Z</time>
      </trkpt>
      <trkpt lat="44.5103" lon="6.22746">
        <ele>1483</ele>
        <time>2023-04-21T11:47:29.000Z</time>
      </trkpt>
      <trkpt lat="44.51031" lon="6.22743">
        <ele>1483</ele>
        <time>2023-04-21T11:47:30.000Z</time>
      </trkpt>
      <trkpt lat="44.51031" lon="6.22739">
        <ele>1483</ele>
        <time>2023-04-21T11:47:31.000Z</time>
      </trkpt>
      <trkpt lat="44.51032" lon="6.22736">
        <ele>1484</ele>
        <time>2023-04-21T11:47:32.000Z</time>
      </trkpt>
      <trkpt lat="44.51032" lon="6.22733">
        <ele>1484</ele>
        <time>2023-04-21T11:47:33.000Z</time>
      </trkpt>
      <trkpt lat="44.51033" lon="6.22729">
        <ele>1484</ele>
        <time>2023-04-21T11:47:34.000Z</time>
      </trkpt>
      <trkpt lat="44.51033" lon="6.22726">
        <ele>1484</ele>
        <time>2023-04-21T11:47:35.000Z</time>
      </trkpt>
      <trkpt lat="44.51033" lon="6.22723">
        <ele>1484</ele>
        <time>2023-04-21T11:47:36.000Z</time>
      </trkpt>
      <trkpt lat="44.51033" lon="6.2272">
        <ele>1485</ele>
        <time>2023-04-21T11:47:37.000Z</time>
      </trkpt>
      <trkpt lat="44.51033" lon="6.22717">
        <ele>1485</ele>
        <time>2023-04-21T11:47:38.000Z</time>
      </trkpt>
      <trkpt lat="44.51032" lon="6.22713">
        <ele>1485</ele>
        <time>2023-04-21T11:47:39.000Z</time>
      </trkpt>
      <trkpt lat="44.51032" lon="6.22709">
        <ele>1485</ele>
        <time>2023-04-21T11:47:40.000Z</time>
      </trkpt>
      <trkpt lat="44.51031" lon="6.22706">
        <ele>1486</ele>
        <time>2023-04-21T11:47:41.000Z</time>
      </trkpt>
      <trkpt lat="44.51031" lon="6.22702">
        <ele>1486</ele>
        <time>2023-04-21T11:47:42.000Z</time>
      </trkpt>
      <trkpt lat="44.5103" lon="6.22699">
        <ele>1486</ele>
        <time>2023-04-21T11:47:43.000Z</time>
      </trkpt>
      <trkpt lat="44.5103" lon="6.22696">
        <ele>1486</ele>
        <time>2023-04-21T11:47:44.000Z</time>
      </trkpt>
      <trkpt lat="44.51029" lon="6.22693">
        <ele>1486</ele>
        <time>2023-04-21T11:47:45.000Z</time>
      </trkpt>
      <trkpt lat="44.51028" lon="6.2269">
        <ele>1486</ele>
        <time>2023-04-21T11:47:46.000Z</time>
      </trkpt>
      <trkpt lat="44.51028" lon="6.22688">
        <ele>1486</ele>
        <time>2023-04-21T11:47:47.000Z</time>
      </trkpt>
      <trkpt lat="44.51027" lon="6.22685">
        <ele>1486</ele>
        <time>2023-04-21T11:47:48.000Z</time>
      </trkpt>
      <trkpt lat="44.51027" lon="6.22683">
        <ele>1486</ele>
        <time>2023-04-21T11:47:49.000Z</time>
      </trkpt>
      <trkpt lat="44.51027" lon="6.22682">
        <ele>1486</ele>
        <time>2023-04-21T11:47:50.000Z</time>
      </trkpt>
      <trkpt lat="44.51027" lon="6.22681">
        <ele>1486</ele>
        <time>2023-04-21T11:47:51.000Z</time>
      </trkpt>
      <trkpt lat="44.51026" lon="6.2268">
        <ele>1486</ele>
        <time>2023-04-21T11:47:52.000Z</time>
      </trkpt>
      <trkpt lat="44.51025" lon="6.22679">
        <ele>1486</ele>
        <time>2023-04-21T11:47:53.000Z</time>
      </trkpt>
      <trkpt lat="44.51024" lon="6.22679">
        <ele>1486</ele>
        <time>2023-04-21T11:47:54.000Z</time>
      </trkpt>
      <trkpt lat="44.51023" lon="6.22678">
        <ele>1486</ele>
        <time>2023-04-21T11:47:55.000Z</time>
      </trkpt>
      <trkpt lat="44.51022" lon="6.22678">
        <ele>1486</ele>
        <time>2023-04-21T11:47:56.000Z</time>
      </trkpt>
      <trkpt lat="44.51021" lon="6.22679">
        <ele>1486</ele>
        <time>2023-04-21T11:47:57.000Z</time>
      </trkpt>
      <trkpt lat="44.5102" lon="6.22679">
        <ele>1487</ele>
        <time>2023-04-21T11:47:58.000Z</time>
      </trkpt>
      <trkpt lat="44.51018" lon="6.22679">
        <ele>1487</ele>
        <time>2023-04-21T11:47:59.000Z</time>
      </trkpt>
      <trkpt lat="44.51017" lon="6.22678">
        <ele>1488</ele>
        <time>2023-04-21T11:48:00.000Z</time>
      </trkpt>
      <trkpt lat="44.51016" lon="6.22677">
        <ele>1488</ele>
        <time>2023-04-21T11:48:01.000Z</time>
      </trkpt>
      <trkpt lat="44.51015" lon="6.22676">
        <ele>1489</ele>
        <time>2023-04-21T11:48:02.000Z</time>
      </trkpt>
      <trkpt lat="44.51014" lon="6.22675">
        <ele>1489</ele>
        <time>2023-04-21T11:48:03.000Z</time>
      </trkpt>
      <trkpt lat="44.51013" lon="6.22674">
        <ele>1490</ele>
        <time>2023-04-21T11:48:04.000Z</time>
      </trkpt>
      <trkpt lat="44.51012" lon="6.22672">
        <ele>1490</ele>
        <time>2023-04-21T11:48:05.000Z</time>
      </trkpt>
      <trkpt lat="44.51011" lon="6.22671">
        <ele>1490</ele>
        <time>2023-04-21T11:48:06.000Z</time>
      </trkpt>
      <trkpt lat="44.5101" lon="6.22669">
        <ele>1491</ele>
        <time>2023-04-21T11:48:07.000Z</time>
      </trkpt>
      <trkpt lat="44.51008" lon="6.22668">
        <ele>1491</ele>
        <time>2023-04-21T11:48:08.000Z</time>
      </trkpt>
      <trkpt lat="44.51007" lon="6.22667">
        <ele>1492</ele>
        <time>2023-04-21T11:48:09.000Z</time>
      </trkpt>
      <trkpt lat="44.51006" lon="6.22666">
        <ele>1492</ele>
        <time>2023-04-21T11:48:10.000Z</time>
      </trkpt>
      <trkpt lat="44.51005" lon="6.22665">
        <ele>1493</ele>
        <time>2023-04-21T11:48:11.000Z</time>
      </trkpt>
      <trkpt lat="44.51004" lon="6.22663">
        <ele>1494</ele>
        <time>2023-04-21T11:48:12.000Z</time>
      </trkpt>
      <trkpt lat="44.51002" lon="6.22663">
        <ele>1495</ele>
        <time>2023-04-21T11:48:13.000Z</time>
      </trkpt>
      <trkpt lat="44.51001" lon="6.22662">
        <ele>1495</ele>
        <time>2023-04-21T11:48:14.000Z</time>
      </trkpt>
      <trkpt lat="44.51" lon="6.22661">
        <ele>1496</ele>
        <time>2023-04-21T11:48:15.000Z</time>
      </trkpt>
      <trkpt lat="44.51" lon="6.22659">
        <ele>1497</ele>
        <time>2023-04-21T11:48:16.000Z</time>
      </trkpt>
      <trkpt lat="44.51" lon="6.22657">
        <ele>1497</ele>
        <time>2023-04-21T11:48:17.000Z</time>
      </trkpt>
      <trkpt lat="44.50999" lon="6.22656">
        <ele>1498</ele>
        <time>2023-04-21T11:48:18.000Z</time>
      </trkpt>
      <trkpt lat="44.50999" lon="6.22654">
        <ele>1498</ele>
        <time>2023-04-21T11:48:19.000Z</time>
      </trkpt>
      <trkpt lat="44.50998" lon="6.22652">
        <ele>1499</ele>
        <time>2023-04-21T11:48:20.000Z</time>
      </trkpt>
      <trkpt lat="44.50998" lon="6.2265">
        <ele>1499</ele>
        <time>2023-04-21T11:48:21.000Z</time>
      </trkpt>
      <trkpt lat="44.50998" lon="6.22649">
        <ele>1500</ele>
        <time>2023-04-21T11:48:22.000Z</time>
      </trkpt>
      <trkpt lat="44.50997" lon="6.22648">
        <ele>1500</ele>
        <time>2023-04-21T11:48:23.000Z</time>
      </trkpt>
      <trkpt lat="44.50996" lon="6.22647">
        <ele>1501</ele>
        <time>2023-04-21T11:48:24.000Z</time>
      </trkpt>
      <trkpt lat="44.50996" lon="6.22646">
        <ele>1502</ele>
        <time>2023-04-21T11:48:25.000Z</time>
      </trkpt>
      <trkpt lat="44.50995" lon="6.22644">
        <ele>1502</ele>
        <time>2023-04-21T11:48:26.000Z</time>
      </trkpt>
      <trkpt lat="44.50994" lon="6.22643">
        <ele>1503</ele>
        <time>2023-04-21T11:48:27.000Z</time>
      </trkpt>
      <trkpt lat="44.50993" lon="6.22641">
        <ele>1503</ele>
        <time>2023-04-21T11:48:28.000Z</time>
      </trkpt>
      <trkpt lat="44.50992" lon="6.22639">
        <ele>1504</ele>
        <time>2023-04-21T11:48:29.000Z</time>
      </trkpt>
      <trkpt lat="44.50991" lon="6.22638">
        <ele>1505</ele>
        <time>2023-04-21T11:48:30.000Z</time>
      </trkpt>
      <trkpt lat="44.50991" lon="6.22636">
        <ele>1506</ele>
        <time>2023-04-21T11:48:31.000Z</time>
      </trkpt>
      <trkpt lat="44.5099" lon="6.22635">
        <ele>1507</ele>
        <time>2023-04-21T11:48:32.000Z</time>
      </trkpt>
      <trkpt lat="44.50989" lon="6.22633">
        <ele>1507</ele>
        <time>2023-04-21T11:48:33.000Z</time>
      </trkpt>
      <trkpt lat="44.50988" lon="6.22629">
        <ele>1507</ele>
        <time>2023-04-21T11:48:34.000Z</time>
      </trkpt>
      <trkpt lat="44.50987" lon="6.22628">
        <ele>1508</ele>
        <time>2023-04-21T11:48:35.000Z</time>
      </trkpt>
      <trkpt lat="44.50986" lon="6.22626">
        <ele>1508</ele>
        <time>2023-04-21T11:48:36.000Z</time>
      </trkpt>
      <trkpt lat="44.50984" lon="6.22625">
        <ele>1509</ele>
        <time>2023-04-21T11:48:37.000Z</time>
      </trkpt>
      <trkpt lat="44.50983" lon="6.22623">
        <ele>1510</ele>
        <time>2023-04-21T11:48:38.000Z</time>
      </trkpt>
      <trkpt lat="44.50982" lon="6.22622">
        <ele>1511</ele>
        <time>2023-04-21T11:48:39.000Z</time>
      </trkpt>
      <trkpt lat="44.50981" lon="6.22621">
        <ele>1512</ele>
        <time>2023-04-21T11:48:40.000Z</time>
      </trkpt>
      <trkpt lat="44.50979" lon="6.22621">
        <ele>1513</ele>
        <time>2023-04-21T11:48:41.000Z</time>
      </trkpt>
      <trkpt lat="44.50978" lon="6.22619">
        <ele>1514</ele>
        <time>2023-04-21T11:48:42.000Z</time>
      </trkpt>
      <trkpt lat="44.50978" lon="6.22618">
        <ele>1515</ele>
        <time>2023-04-21T11:48:43.000Z</time>
      </trkpt>
      <trkpt lat="44.50977" lon="6.22617">
        <ele>1516</ele>
        <time>2023-04-21T11:48:44.000Z</time>
      </trkpt>
      <trkpt lat="44.50976" lon="6.22615">
        <ele>1517</ele>
        <time>2023-04-21T11:48:45.000Z</time>
      </trkpt>
      <trkpt lat="44.50975" lon="6.22613">
        <ele>1518</ele>
        <time>2023-04-21T11:48:46.000Z</time>
      </trkpt>
      <trkpt lat="44.50974" lon="6.22612">
        <ele>1518</ele>
        <time>2023-04-21T11:48:47.000Z</time>
      </trkpt>
      <trkpt lat="44.50973" lon="6.22611">
        <ele>1519</ele>
        <time>2023-04-21T11:48:48.000Z</time>
      </trkpt>
      <trkpt lat="44.50972" lon="6.22609">
        <ele>1520</ele>
        <time>2023-04-21T11:48:49.000Z</time>
      </trkpt>
      <trkpt lat="44.50971" lon="6.22608">
        <ele>1521</ele>
        <time>2023-04-21T11:48:50.000Z</time>
      </trkpt>
      <trkpt lat="44.5097" lon="6.22606">
        <ele>1521</ele>
        <time>2023-04-21T11:48:51.000Z</time>
      </trkpt>
      <trkpt lat="44.5097" lon="6.22605">
        <ele>1521</ele>
        <time>2023-04-21T11:48:52.000Z</time>
      </trkpt>
      <trkpt lat="44.50969" lon="6.22603">
        <ele>1522</ele>
        <time>2023-04-21T11:48:53.000Z</time>
      </trkpt>
      <trkpt lat="44.50968" lon="6.22602">
        <ele>1523</ele>
        <time>2023-04-21T11:48:54.000Z</time>
      </trkpt>
      <trkpt lat="44.50968" lon="6.22601">
        <ele>1523</ele>
        <time>2023-04-21T11:48:55.000Z</time>
      </trkpt>
      <trkpt lat="44.50966" lon="6.22599">
        <ele>1524</ele>
        <time>2023-04-21T11:48:56.000Z</time>
      </trkpt>
      <trkpt lat="44.50966" lon="6.22598">
        <ele>1524</ele>
        <time>2023-04-21T11:48:57.000Z</time>
      </trkpt>
      <trkpt lat="44.50965" lon="6.22596">
        <ele>1525</ele>
        <time>2023-04-21T11:48:58.000Z</time>
      </trkpt>
      <trkpt lat="44.50963" lon="6.22595">
        <ele>1526</ele>
        <time>2023-04-21T11:48:59.000Z</time>
      </trkpt>
      <trkpt lat="44.50963" lon="6.22594">
        <ele>1526</ele>
        <time>2023-04-21T11:49:00.000Z</time>
      </trkpt>
      <trkpt lat="44.50962" lon="6.22592">
        <ele>1527</ele>
        <time>2023-04-21T11:49:01.000Z</time>
      </trkpt>
      <trkpt lat="44.50962" lon="6.22591">
        <ele>1527</ele>
        <time>2023-04-21T11:49:02.000Z</time>
      </trkpt>
      <trkpt lat="44.50961" lon="6.2259">
        <ele>1527</ele>
        <time>2023-04-21T11:49:03.000Z</time>
      </trkpt>
      <trkpt lat="44.5096" lon="6.22588">
        <ele>1528</ele>
        <time>2023-04-21T11:49:04.000Z</time>
      </trkpt>
      <trkpt lat="44.50959" lon="6.22587">
        <ele>1528</ele>
        <time>2023-04-21T11:49:05.000Z</time>
      </trkpt>
      <trkpt lat="44.50958" lon="6.22585">
        <ele>1529</ele>
        <time>2023-04-21T11:49:06.000Z</time>
      </trkpt>
      <trkpt lat="44.50958" lon="6.22583">
        <ele>1529</ele>
        <time>2023-04-21T11:49:07.000Z</time>
      </trkpt>
      <trkpt lat="44.50957" lon="6.22581">
        <ele>1530</ele>
        <time>2023-04-21T11:49:08.000Z</time>
      </trkpt>
      <trkpt lat="44.50956" lon="6.2258">
        <ele>1530</ele>
        <time>2023-04-21T11:49:09.000Z</time>
      </trkpt>
      <trkpt lat="44.50955" lon="6.22578">
        <ele>1530</ele>
        <time>2023-04-21T11:49:10.000Z</time>
      </trkpt>
      <trkpt lat="44.50954" lon="6.22576">
        <ele>1530</ele>
        <time>2023-04-21T11:49:11.000Z</time>
      </trkpt>
      <trkpt lat="44.50953" lon="6.22575">
        <ele>1531</ele>
        <time>2023-04-21T11:49:12.000Z</time>
      </trkpt>
      <trkpt lat="44.50952" lon="6.22574">
        <ele>1532</ele>
        <time>2023-04-21T11:49:13.000Z</time>
      </trkpt>
      <trkpt lat="44.50951" lon="6.22573">
        <ele>1532</ele>
        <time>2023-04-21T11:49:14.000Z</time>
      </trkpt>
      <trkpt lat="44.5095" lon="6.22573">
        <ele>1533</ele>
        <time>2023-04-21T11:49:15.000Z</time>
      </trkpt>
      <trkpt lat="44.50949" lon="6.22572">
        <ele>1533</ele>
        <time>2023-04-21T11:49:16.000Z</time>
      </trkpt>
      <trkpt lat="44.50948" lon="6.22571">
        <ele>1533</ele>
        <time>2023-04-21T11:49:17.000Z</time>
      </trkpt>
      <trkpt lat="44.50946" lon="6.22571">
        <ele>1533</ele>
        <time>2023-04-21T11:49:18.000Z</time>
      </trkpt>
      <trkpt lat="44.50945" lon="6.2257">
        <ele>1534</ele>
        <time>2023-04-21T11:49:19.000Z</time>
      </trkpt>
      <trkpt lat="44.50944" lon="6.2257">
        <ele>1533</ele>
        <time>2023-04-21T11:49:20.000Z</time>
      </trkpt>
      <trkpt lat="44.50942" lon="6.2257">
        <ele>1533</ele>
        <time>2023-04-21T11:49:21.000Z</time>
      </trkpt>
      <trkpt lat="44.5094" lon="6.22569">
        <ele>1534</ele>
        <time>2023-04-21T11:49:22.000Z</time>
      </trkpt>
      <trkpt lat="44.50939" lon="6.22568">
        <ele>1535</ele>
        <time>2023-04-21T11:49:23.000Z</time>
      </trkpt>
      <trkpt lat="44.50937" lon="6.22567">
        <ele>1535</ele>
        <time>2023-04-21T11:49:24.000Z</time>
      </trkpt>
      <trkpt lat="44.50936" lon="6.22565">
        <ele>1535</ele>
        <time>2023-04-21T11:49:25.000Z</time>
      </trkpt>
      <trkpt lat="44.50935" lon="6.22563">
        <ele>1536</ele>
        <time>2023-04-21T11:49:26.000Z</time>
      </trkpt>
      <trkpt lat="44.50933" lon="6.22561">
        <ele>1536</ele>
        <time>2023-04-21T11:49:27.000Z</time>
      </trkpt>
      <trkpt lat="44.50932" lon="6.2256">
        <ele>1536</ele>
        <time>2023-04-21T11:49:28.000Z</time>
      </trkpt>
      <trkpt lat="44.50931" lon="6.22558">
        <ele>1536</ele>
        <time>2023-04-21T11:49:29.000Z</time>
      </trkpt>
      <trkpt lat="44.5093" lon="6.22556">
        <ele>1537</ele>
        <time>2023-04-21T11:49:30.000Z</time>
      </trkpt>
      <trkpt lat="44.50929" lon="6.22555">
        <ele>1537</ele>
        <time>2023-04-21T11:49:31.000Z</time>
      </trkpt>
      <trkpt lat="44.50928" lon="6.22553">
        <ele>1538</ele>
        <time>2023-04-21T11:49:32.000Z</time>
      </trkpt>
      <trkpt lat="44.50927" lon="6.22552">
        <ele>1539</ele>
        <time>2023-04-21T11:49:33.000Z</time>
      </trkpt>
      <trkpt lat="44.50927" lon="6.22551">
        <ele>1540</ele>
        <time>2023-04-21T11:49:34.000Z</time>
      </trkpt>
      <trkpt lat="44.50926" lon="6.22549">
        <ele>1540</ele>
        <time>2023-04-21T11:49:35.000Z</time>
      </trkpt>
      <trkpt lat="44.50926" lon="6.22548">
        <ele>1541</ele>
        <time>2023-04-21T11:49:36.000Z</time>
      </trkpt>
      <trkpt lat="44.50925" lon="6.22546">
        <ele>1541</ele>
        <time>2023-04-21T11:49:37.000Z</time>
      </trkpt>
      <trkpt lat="44.50924" lon="6.22545">
        <ele>1542</ele>
        <time>2023-04-21T11:49:38.000Z</time>
      </trkpt>
      <trkpt lat="44.50924" lon="6.22544">
        <ele>1542</ele>
        <time>2023-04-21T11:49:39.000Z</time>
      </trkpt>
      <trkpt lat="44.50924" lon="6.22542">
        <ele>1543</ele>
        <time>2023-04-21T11:49:40.000Z</time>
      </trkpt>
      <trkpt lat="44.50923" lon="6.22541">
        <ele>1544</ele>
        <time>2023-04-21T11:49:41.000Z</time>
      </trkpt>
      <trkpt lat="44.50923" lon="6.2254">
        <ele>1544</ele>
        <time>2023-04-21T11:49:42.000Z</time>
      </trkpt>
      <trkpt lat="44.50923" lon="6.22538">
        <ele>1545</ele>
        <time>2023-04-21T11:49:43.000Z</time>
      </trkpt>
      <trkpt lat="44.50922" lon="6.22536">
        <ele>1545</ele>
        <time>2023-04-21T11:49:44.000Z</time>
      </trkpt>
      <trkpt lat="44.50922" lon="6.22534">
        <ele>1546</ele>
        <time>2023-04-21T11:49:45.000Z</time>
      </trkpt>
      <trkpt lat="44.50921" lon="6.22533">
        <ele>1546</ele>
        <time>2023-04-21T11:49:46.000Z</time>
      </trkpt>
      <trkpt lat="44.50921" lon="6.22531">
        <ele>1547</ele>
        <time>2023-04-21T11:49:47.000Z</time>
      </trkpt>
      <trkpt lat="44.5092" lon="6.2253">
        <ele>1547</ele>
        <time>2023-04-21T11:49:48.000Z</time>
      </trkpt>
      <trkpt lat="44.50919" lon="6.22528">
        <ele>1548</ele>
        <time>2023-04-21T11:49:49.000Z</time>
      </trkpt>
      <trkpt lat="44.50919" lon="6.22526">
        <ele>1549</ele>
        <time>2023-04-21T11:49:50.000Z</time>
      </trkpt>
      <trkpt lat="44.50919" lon="6.22524">
        <ele>1549</ele>
        <time>2023-04-21T11:49:51.000Z</time>
      </trkpt>
      <trkpt lat="44.50919" lon="6.22522">
        <ele>1549</ele>
        <time>2023-04-21T11:49:52.000Z</time>
      </trkpt>
      <trkpt lat="44.50919" lon="6.22519">
        <ele>1549</ele>
        <time>2023-04-21T11:49:53.000Z</time>
      </trkpt>
      <trkpt lat="44.50919" lon="6.22517">
        <ele>1549</ele>
        <time>2023-04-21T11:49:54.000Z</time>
      </trkpt>
      <trkpt lat="44.50918" lon="6.22515">
        <ele>1550</ele>
        <time>2023-04-21T11:49:55.000Z</time>
      </trkpt>
      <trkpt lat="44.50918" lon="6.22513">
        <ele>1550</ele>
        <time>2023-04-21T11:49:56.000Z</time>
      </trkpt>
      <trkpt lat="44.50916" lon="6.22509">
        <ele>1549</ele>
        <time>2023-04-21T11:49:57.000Z</time>
      </trkpt>
      <trkpt lat="44.50916" lon="6.22506">
        <ele>1549</ele>
        <time>2023-04-21T11:49:58.000Z</time>
      </trkpt>
      <trkpt lat="44.50916" lon="6.22503">
        <ele>1549</ele>
        <time>2023-04-21T11:49:59.000Z</time>
      </trkpt>
      <trkpt lat="44.50915" lon="6.225">
        <ele>1548</ele>
        <time>2023-04-21T11:50:00.000Z</time>
      </trkpt>
      <trkpt lat="44.50914" lon="6.22497">
        <ele>1548</ele>
        <time>2023-04-21T11:50:01.000Z</time>
      </trkpt>
      <trkpt lat="44.50913" lon="6.22494">
        <ele>1548</ele>
        <time>2023-04-21T11:50:02.000Z</time>
      </trkpt>
      <trkpt lat="44.50912" lon="6.22491">
        <ele>1548</ele>
        <time>2023-04-21T11:50:03.000Z</time>
      </trkpt>
      <trkpt lat="44.50912" lon="6.22489">
        <ele>1548</ele>
        <time>2023-04-21T11:50:04.000Z</time>
      </trkpt>
      <trkpt lat="44.50911" lon="6.22487">
        <ele>1548</ele>
        <time>2023-04-21T11:50:05.000Z</time>
      </trkpt>
      <trkpt lat="44.5091" lon="6.22485">
        <ele>1548</ele>
        <time>2023-04-21T11:50:06.000Z</time>
      </trkpt>
      <trkpt lat="44.50909" lon="6.22483">
        <ele>1549</ele>
        <time>2023-04-21T11:50:07.000Z</time>
      </trkpt>
      <trkpt lat="44.50909" lon="6.2248">
        <ele>1549</ele>
        <time>2023-04-21T11:50:08.000Z</time>
      </trkpt>
      <trkpt lat="44.50908" lon="6.22479">
        <ele>1549</ele>
        <time>2023-04-21T11:50:09.000Z</time>
      </trkpt>
      <trkpt lat="44.50907" lon="6.22476">
        <ele>1549</ele>
        <time>2023-04-21T11:50:10.000Z</time>
      </trkpt>
      <trkpt lat="44.50907" lon="6.22474">
        <ele>1549</ele>
        <time>2023-04-21T11:50:11.000Z</time>
      </trkpt>
      <trkpt lat="44.50906" lon="6.22472">
        <ele>1550</ele>
        <time>2023-04-21T11:50:12.000Z</time>
      </trkpt>
      <trkpt lat="44.50906" lon="6.22469">
        <ele>1549</ele>
        <time>2023-04-21T11:50:13.000Z</time>
      </trkpt>
      <trkpt lat="44.50905" lon="6.22467">
        <ele>1549</ele>
        <time>2023-04-21T11:50:14.000Z</time>
      </trkpt>
      <trkpt lat="44.50905" lon="6.22466">
        <ele>1548</ele>
        <time>2023-04-21T11:50:15.000Z</time>
      </trkpt>
      <trkpt lat="44.50905" lon="6.22466">
        <ele>1548</ele>
        <time>2023-04-21T11:50:16.000Z</time>
      </trkpt>
      <trkpt lat="44.50904" lon="6.22465">
        <ele>1547</ele>
        <time>2023-04-21T11:50:17.000Z</time>
      </trkpt>
      <trkpt lat="44.50904" lon="6.22464">
        <ele>1546</ele>
        <time>2023-04-21T11:50:18.000Z</time>
      </trkpt>
      <trkpt lat="44.50903" lon="6.22462">
        <ele>1545</ele>
        <time>2023-04-21T11:50:19.000Z</time>
      </trkpt>
      <trkpt lat="44.50903" lon="6.22461">
        <ele>1544</ele>
        <time>2023-04-21T11:50:20.000Z</time>
      </trkpt>
      <trkpt lat="44.50903" lon="6.2246">
        <ele>1543</ele>
        <time>2023-04-21T11:50:21.000Z</time>
      </trkpt>
      <trkpt lat="44.50903" lon="6.2246">
        <ele>1543</ele>
        <time>2023-04-21T11:50:22.000Z</time>
      </trkpt>
      <trkpt lat="44.50903" lon="6.22459">
        <ele>1542</ele>
        <time>2023-04-21T11:50:23.000Z</time>
      </trkpt>
      <trkpt lat="44.50903" lon="6.22458">
        <ele>1542</ele>
        <time>2023-04-21T11:50:24.000Z</time>
      </trkpt>
      <trkpt lat="44.50902" lon="6.22458">
        <ele>1542</ele>
        <time>2023-04-21T11:50:25.000Z</time>
      </trkpt>
      <trkpt lat="44.50903" lon="6.22457">
        <ele>1541</ele>
        <time>2023-04-21T11:50:26.000Z</time>
      </trkpt>
      <trkpt lat="44.50903" lon="6.22457">
        <ele>1541</ele>
        <time>2023-04-21T11:50:27.000Z</time>
      </trkpt>
      <trkpt lat="44.50903" lon="6.22457">
        <ele>1541</ele>
        <time>2023-04-21T11:50:28.000Z</time>
      </trkpt>
      <trkpt lat="44.50903" lon="6.22456">
        <ele>1541</ele>
        <time>2023-04-21T11:50:29.000Z</time>
      </trkpt>
      <trkpt lat="44.50903" lon="6.22456">
        <ele>1541</ele>
        <time>2023-04-21T11:50:30.000Z</time>
      </trkpt>
      <trkpt lat="44.50903" lon="6.22456">
        <ele>1541</ele>
        <time>2023-04-21T11:50:31.000Z</time>
      </trkpt>
      <trkpt lat="44.50903" lon="6.22456">
        <ele>1541</ele>
        <time>2023-04-21T11:50:32.000Z</time>
      </trkpt>
      <trkpt lat="44.50903" lon="6.22455">
        <ele>1541</ele>
        <time>2023-04-21T11:50:33.000Z</time>
      </trkpt>
      <trkpt lat="44.50903" lon="6.22455">
        <ele>1541</ele>
        <time>2023-04-21T11:50:34.000Z</time>
      </trkpt>
      <trkpt lat="44.50903" lon="6.22455">
        <ele>1541</ele>
        <time>2023-04-21T11:50:35.000Z</time>
      </trkpt>
      <trkpt lat="44.50903" lon="6.22455">
        <ele>1541</ele>
        <time>2023-04-21T11:50:36.000Z</time>
      </trkpt>
      <trkpt lat="44.50903" lon="6.22454">
        <ele>1540</ele>
        <time>2023-04-21T11:50:37.000Z</time>
      </trkpt>
      <trkpt lat="44.50903" lon="6.22454">
        <ele>1540</ele>
        <time>2023-04-21T11:50:38.000Z</time>
      </trkpt>
      <trkpt lat="44.50903" lon="6.22454">
        <ele>1540</ele>
        <time>2023-04-21T11:50:39.000Z</time>
      </trkpt>
      <trkpt lat="44.50903" lon="6.22454">
        <ele>1540</ele>
        <time>2023-04-21T11:50:40.000Z</time>
      </trkpt>
      <trkpt lat="44.50903" lon="6.22454">
        <ele>1540</ele>
        <time>2023-04-21T11:50:41.000Z</time>
      </trkpt>
      <trkpt lat="44.50902" lon="6.22453">
        <ele>1540</ele>
        <time>2023-04-21T11:50:42.000Z</time>
      </trkpt>
      <trkpt lat="44.50902" lon="6.22453">
        <ele>1540</ele>
        <time>2023-04-21T11:50:43.000Z</time>
      </trkpt>
      <trkpt lat="44.50902" lon="6.22453">
        <ele>1540</ele>
        <time>2023-04-21T11:50:44.000Z</time>
      </trkpt>
      <trkpt lat="44.50902" lon="6.22453">
        <ele>1540</ele>
        <time>2023-04-21T11:50:45.000Z</time>
      </trkpt>
      <trkpt lat="44.50902" lon="6.22453">
        <ele>1540</ele>
        <time>2023-04-21T11:50:46.000Z</time>
      </trkpt>
      <trkpt lat="44.50902" lon="6.22453">
        <ele>1540</ele>
        <time>2023-04-21T11:50:47.000Z</time>
      </trkpt>
      <trkpt lat="44.50902" lon="6.22453">
        <ele>1540</ele>
        <time>2023-04-21T11:50:48.000Z</time>
      </trkpt>
      <trkpt lat="44.50902" lon="6.22453">
        <ele>1539</ele>
        <time>2023-04-21T11:50:49.000Z</time>
      </trkpt>
      <trkpt lat="44.50902" lon="6.22453">
        <ele>1539</ele>
        <time>2023-04-21T11:50:50.000Z</time>
      </trkpt>
      <trkpt lat="44.50902" lon="6.22453">
        <ele>1539</ele>
        <time>2023-04-21T11:50:51.000Z</time>
      </trkpt>
      <trkpt lat="44.50902" lon="6.22452">
        <ele>1539</ele>
        <time>2023-04-21T11:50:52.000Z</time>
      </trkpt>
      <trkpt lat="44.50902" lon="6.22452">
        <ele>1539</ele>
        <time>2023-04-21T11:50:53.000Z</time>
      </trkpt>
      <trkpt lat="44.50902" lon="6.22452">
        <ele>1539</ele>
        <time>2023-04-21T11:50:54.000Z</time>
      </trkpt>
      <trkpt lat="44.50902" lon="6.22452">
        <ele>1539</ele>
        <time>2023-04-21T11:50:55.000Z</time>
      </trkpt>
      <trkpt lat="44.50902" lon="6.22452">
        <ele>1539</ele>
        <time>2023-04-21T11:50:56.000Z</time>
      </trkpt>
      <trkpt lat="44.50902" lon="6.22452">
        <ele>1539</ele>
        <time>2023-04-21T11:50:57.000Z</time>
      </trkpt>
      <trkpt lat="44.50902" lon="6.22452">
        <ele>1539</ele>
        <time>2023-04-21T11:50:58.000Z</time>
      </trkpt>
      <trkpt lat="44.50902" lon="6.22452">
        <ele>1539</ele>
        <time>2023-04-21T11:50:59.000Z</time>
      </trkpt>
      <trkpt lat="44.50902" lon="6.22452">
        <ele>1539</ele>
        <time>2023-04-21T11:51:00.000Z</time>
      </trkpt>
      <trkpt lat="44.50902" lon="6.22452">
        <ele>1539</ele>
        <time>2023-04-21T11:51:01.000Z</time>
      </trkpt>
      <trkpt lat="44.50902" lon="6.22452">
        <ele>1539</ele>
        <time>2023-04-21T11:51:02.000Z</time>
      </trkpt>
      <trkpt lat="44.50902" lon="6.22452">
        <ele>1539</ele>
        <time>2023-04-21T11:51:03.000Z</time>
      </trkpt>
      <trkpt lat="44.50902" lon="6.22452">
        <ele>1539</ele>
        <time>2023-04-21T11:51:04.000Z</time>
      </trkpt>
      <trkpt lat="44.50902" lon="6.22452">
        <ele>1539</ele>
        <time>2023-04-21T11:51:05.000Z</time>
      </trkpt>
      <trkpt lat="44.50902" lon="6.22452">
        <ele>1539</ele>
        <time>2023-04-21T11:51:06.000Z</time>
      </trkpt>
      <trkpt lat="44.50902" lon="6.22452">
        <ele>1538</ele>
        <time>2023-04-21T11:51:07.000Z</time>
      </trkpt>
      <trkpt lat="44.50902" lon="6.22452">
        <ele>1538</ele>
        <time>2023-04-21T11:51:08.000Z</time>
      </trkpt>
      <trkpt lat="44.50902" lon="6.22452">
        <ele>1538</ele>
        <time>2023-04-21T11:51:09.000Z</time>
      </trkpt>
      <trkpt lat="44.50902" lon="6.22452">
        <ele>1538</ele>
        <time>2023-04-21T11:51:10.000Z</time>
      </trkpt>
      <trkpt lat="44.50902" lon="6.22452">
        <ele>1538</ele>
        <time>2023-04-21T11:51:11.000Z</time>
      </trkpt>
      <trkpt lat="44.50902" lon="6.22452">
        <ele>1538</ele>
        <time>2023-04-21T11:51:12.000Z</time>
      </trkpt>
      <trkpt lat="44.50902" lon="6.22452">
        <ele>1538</ele>
        <time>2023-04-21T11:51:13.000Z</time>
      </trkpt>
      <trkpt lat="44.50902" lon="6.22452">
        <ele>1538</ele>
        <time>2023-04-21T11:51:14.000Z</time>
      </trkpt>
      <trkpt lat="44.50902" lon="6.22452">
        <ele>1538</ele>
        <time>2023-04-21T11:51:15.000Z</time>
      </trkpt>
      <trkpt lat="44.50902" lon="6.22452">
        <ele>1538</ele>
        <time>2023-04-21T11:51:16.000Z</time>
      </trkpt>
      <trkpt lat="44.50902" lon="6.22452">
        <ele>1538</ele>
        <time>2023-04-21T11:51:17.000Z</time>
      </trkpt>
      <trkpt lat="44.50902" lon="6.22452">
        <ele>1538</ele>
        <time>2023-04-21T11:51:18.000Z</time>
      </trkpt>
      <trkpt lat="44.50902" lon="6.22452">
        <ele>1538</ele>
        <time>2023-04-21T11:51:19.000Z</time>
      </trkpt>
      <trkpt lat="44.50902" lon="6.22452">
        <ele>1538</ele>
        <time>2023-04-21T11:51:20.000Z</time>
      </trkpt>
      <trkpt lat="44.50902" lon="6.22452">
        <ele>1538</ele>
        <time>2023-04-21T11:51:21.000Z</time>
      </trkpt>
      <trkpt lat="44.50902" lon="6.22452">
        <ele>1537</ele>
        <time>2023-04-21T11:51:22.000Z</time>
      </trkpt>
      <trkpt lat="44.50902" lon="6.22452">
        <ele>1537</ele>
        <time>2023-04-21T11:51:23.000Z</time>
      </trkpt>
      <trkpt lat="44.50902" lon="6.22452">
        <ele>1537</ele>
        <time>2023-04-21T11:51:24.000Z</time>
      </trkpt>
      <trkpt lat="44.50902" lon="6.22452">
        <ele>1537</ele>
        <time>2023-04-21T11:51:25.000Z</time>
      </trkpt>
      <trkpt lat="44.50902" lon="6.22452">
        <ele>1537</ele>
        <time>2023-04-21T11:51:26.000Z</time>
      </trkpt>
      <trkpt lat="44.50902" lon="6.22452">
        <ele>1537</ele>
        <time>2023-04-21T11:51:27.000Z</time>
      </trkpt>
      <trkpt lat="44.50902" lon="6.22452">
        <ele>1537</ele>
        <time>2023-04-21T11:51:28.000Z</time>
      </trkpt>
      <trkpt lat="44.50902" lon="6.22452">
        <ele>1537</ele>
        <time>2023-04-21T11:51:29.000Z</time>
      </trkpt>
      <trkpt lat="44.50902" lon="6.22452">
        <ele>1537</ele>
        <time>2023-04-21T11:51:30.000Z</time>
      </trkpt>
      <trkpt lat="44.50902" lon="6.22452">
        <ele>1537</ele>
        <time>2023-04-21T11:51:31.000Z</time>
      </trkpt>
      <trkpt lat="44.50902" lon="6.22452">
        <ele>1537</ele>
        <time>2023-04-21T11:51:32.000Z</time>
      </trkpt>
      <trkpt lat="44.50902" lon="6.22452">
        <ele>1537</ele>
        <time>2023-04-21T11:51:33.000Z</time>
      </trkpt>
      <trkpt lat="44.50902" lon="6.22452">
        <ele>1537</ele>
        <time>2023-04-21T11:51:34.000Z</time>
      </trkpt>
      <trkpt lat="44.50902" lon="6.22451">
        <ele>1537</ele>
        <time>2023-04-21T11:51:35.000Z</time>
      </trkpt>
      <trkpt lat="44.50902" lon="6.22451">
        <ele>1537</ele>
        <time>2023-04-21T11:51:36.000Z</time>
      </trkpt>
      <trkpt lat="44.50902" lon="6.22451">
        <ele>1537</ele>
        <time>2023-04-21T11:51:37.000Z</time>
      </trkpt>
      <trkpt lat="44.50902" lon="6.22451">
        <ele>1537</ele>
        <time>2023-04-21T11:51:38.000Z</time>
      </trkpt>
      <trkpt lat="44.50902" lon="6.22451">
        <ele>1537</ele>
        <time>2023-04-21T11:51:39.000Z</time>
      </trkpt>
      <trkpt lat="44.50902" lon="6.22451">
        <ele>1536</ele>
        <time>2023-04-21T11:51:40.000Z</time>
      </trkpt>
      <trkpt lat="44.50902" lon="6.22451">
        <ele>1536</ele>
        <time>2023-04-21T11:51:41.000Z</time>
      </trkpt>
      <trkpt lat="44.50902" lon="6.22451">
        <ele>1536</ele>
        <time>2023-04-21T11:51:42.000Z</time>
      </trkpt>
      <trkpt lat="44.50902" lon="6.22451">
        <ele>1536</ele>
        <time>2023-04-21T11:51:43.000Z</time>
      </trkpt>
      <trkpt lat="44.50902" lon="6.22451">
        <ele>1536</ele>
        <time>2023-04-21T11:51:44.000Z</time>
      </trkpt>
      <trkpt lat="44.50902" lon="6.22451">
        <ele>1536</ele>
        <time>2023-04-21T11:51:45.000Z</time>
      </trkpt>
      <trkpt lat="44.50902" lon="6.22451">
        <ele>1536</ele>
        <time>2023-04-21T11:51:46.000Z</time>
      </trkpt>
      <trkpt lat="44.50902" lon="6.22451">
        <ele>1536</ele>
        <time>2023-04-21T11:51:47.000Z</time>
      </trkpt>
      <trkpt lat="44.50902" lon="6.22451">
        <ele>1536</ele>
        <time>2023-04-21T11:51:48.000Z</time>
      </trkpt>
      <trkpt lat="44.50902" lon="6.22451">
        <ele>1535</ele>
        <time>2023-04-21T11:51:49.000Z</time>
      </trkpt>
      <trkpt lat="44.50902" lon="6.22451">
        <ele>1535</ele>
        <time>2023-04-21T11:51:50.000Z</time>
      </trkpt>
      <trkpt lat="44.50902" lon="6.22451">
        <ele>1535</ele>
        <time>2023-04-21T11:51:51.000Z</time>
      </trkpt>
      <trkpt lat="44.50902" lon="6.22451">
        <ele>1535</ele>
        <time>2023-04-21T11:51:52.000Z</time>
      </trkpt>
      <trkpt lat="44.50902" lon="6.22451">
        <ele>1535</ele>
        <time>2023-04-21T11:51:53.000Z</time>
      </trkpt>
      <trkpt lat="44.50902" lon="6.22451">
        <ele>1535</ele>
        <time>2023-04-21T11:51:54.000Z</time>
      </trkpt>
      <trkpt lat="44.50902" lon="6.2245">
        <ele>1535</ele>
        <time>2023-04-21T11:51:55.000Z</time>
      </trkpt>
      <trkpt lat="44.50902" lon="6.2245">
        <ele>1535</ele>
        <time>2023-04-21T11:51:56.000Z</time>
      </trkpt>
      <trkpt lat="44.50902" lon="6.2245">
        <ele>1535</ele>
        <time>2023-04-21T11:51:57.000Z</time>
      </trkpt>
      <trkpt lat="44.50902" lon="6.2245">
        <ele>1535</ele>
        <time>2023-04-21T11:51:58.000Z</time>
      </trkpt>
      <trkpt lat="44.50902" lon="6.2245">
        <ele>1535</ele>
        <time>2023-04-21T11:51:59.000Z</time>
      </trkpt>
      <trkpt lat="44.50902" lon="6.2245">
        <ele>1535</ele>
        <time>2023-04-21T11:52:00.000Z</time>
      </trkpt>
      <trkpt lat="44.50902" lon="6.2245">
        <ele>1535</ele>
        <time>2023-04-21T11:52:01.000Z</time>
      </trkpt>
      <trkpt lat="44.50902" lon="6.2245">
        <ele>1535</ele>
        <time>2023-04-21T11:52:02.000Z</time>
      </trkpt>
      <trkpt lat="44.50902" lon="6.2245">
        <ele>1535</ele>
        <time>2023-04-21T11:52:03.000Z</time>
      </trkpt>
      <trkpt lat="44.50902" lon="6.2245">
        <ele>1535</ele>
        <time>2023-04-21T11:52:04.000Z</time>
      </trkpt>
      <trkpt lat="44.50902" lon="6.2245">
        <ele>1535</ele>
        <time>2023-04-21T11:52:05.000Z</time>
      </trkpt>
      <trkpt lat="44.50902" lon="6.2245">
        <ele>1535</ele>
        <time>2023-04-21T11:52:06.000Z</time>
      </trkpt>
      <trkpt lat="44.50902" lon="6.2245">
        <ele>1535</ele>
        <time>2023-04-21T11:52:07.000Z</time>
      </trkpt>
      <trkpt lat="44.50902" lon="6.2245">
        <ele>1535</ele>
        <time>2023-04-21T11:52:08.000Z</time>
      </trkpt>
      <trkpt lat="44.50902" lon="6.2245">
        <ele>1535</ele>
        <time>2023-04-21T11:52:09.000Z</time>
      </trkpt>
      <trkpt lat="44.50902" lon="6.2245">
        <ele>1535</ele>
        <time>2023-04-21T11:52:10.000Z</time>
      </trkpt>
      <trkpt lat="44.50902" lon="6.2245">
        <ele>1535</ele>
        <time>2023-04-21T11:52:11.000Z</time>
      </trkpt>
      <trkpt lat="44.50902" lon="6.2245">
        <ele>1535</ele>
        <time>2023-04-21T11:52:12.000Z</time>
      </trkpt>
      <trkpt lat="44.50902" lon="6.2245">
        <ele>1535</ele>
        <time>2023-04-21T11:52:13.000Z</time>
      </trkpt>
      <trkpt lat="44.50902" lon="6.2245">
        <ele>1535</ele>
        <time>2023-04-21T11:52:14.000Z</time>
      </trkpt>
      <trkpt lat="44.50902" lon="6.2245">
        <ele>1535</ele>
        <time>2023-04-21T11:52:15.000Z</time>
      </trkpt>
      <trkpt lat="44.50902" lon="6.2245">
        <ele>1535</ele>
        <time>2023-04-21T11:52:16.000Z</time>
      </trkpt>
      <trkpt lat="44.50902" lon="6.22449">
        <ele>1535</ele>
        <time>2023-04-21T11:52:17.000Z</time>
      </trkpt>
      <trkpt lat="44.50902" lon="6.22449">
        <ele>1534</ele>
        <time>2023-04-21T11:52:18.000Z</time>
      </trkpt>
      <trkpt lat="44.50902" lon="6.22449">
        <ele>1534</ele>
        <time>2023-04-21T11:52:19.000Z</time>
      </trkpt>
      <trkpt lat="44.50902" lon="6.22449">
        <ele>1534</ele>
        <time>2023-04-21T11:52:20.000Z</time>
      </trkpt>
      <trkpt lat="44.50902" lon="6.22449">
        <ele>1534</ele>
        <time>2023-04-21T11:52:21.000Z</time>
      </trkpt>
      <trkpt lat="44.50902" lon="6.22449">
        <ele>1534</ele>
        <time>2023-04-21T11:52:22.000Z</time>
      </trkpt>
      <trkpt lat="44.50902" lon="6.22449">
        <ele>1534</ele>
        <time>2023-04-21T11:52:23.000Z</time>
      </trkpt>
      <trkpt lat="44.50902" lon="6.22449">
        <ele>1534</ele>
        <time>2023-04-21T11:52:24.000Z</time>
      </trkpt>
      <trkpt lat="44.50902" lon="6.22449">
        <ele>1534</ele>
        <time>2023-04-21T11:52:25.000Z</time>
      </trkpt>
      <trkpt lat="44.50902" lon="6.22449">
        <ele>1534</ele>
        <time>2023-04-21T11:52:26.000Z</time>
      </trkpt>
      <trkpt lat="44.50902" lon="6.22449">
        <ele>1534</ele>
        <time>2023-04-21T11:52:27.000Z</time>
      </trkpt>
      <trkpt lat="44.50902" lon="6.22449">
        <ele>1534</ele>
        <time>2023-04-21T11:52:28.000Z</time>
      </trkpt>
      <trkpt lat="44.50902" lon="6.22449">
        <ele>1534</ele>
        <time>2023-04-21T11:52:29.000Z</time>
      </trkpt>
      <trkpt lat="44.50902" lon="6.22449">
        <ele>1534</ele>
        <time>2023-04-21T11:52:30.000Z</time>
      </trkpt>
      <trkpt lat="44.50902" lon="6.22449">
        <ele>1534</ele>
        <time>2023-04-21T11:52:31.000Z</time>
      </trkpt>
      <trkpt lat="44.50902" lon="6.22449">
        <ele>1534</ele>
        <time>2023-04-21T11:52:32.000Z</time>
      </trkpt>
      <trkpt lat="44.50902" lon="6.2245">
        <ele>1535</ele>
        <time>2023-04-21T11:52:33.000Z</time>
      </trkpt>
      <trkpt lat="44.50902" lon="6.2245">
        <ele>1534</ele>
        <time>2023-04-21T11:52:34.000Z</time>
      </trkpt>
      <trkpt lat="44.50902" lon="6.2245">
        <ele>1535</ele>
        <time>2023-04-21T11:52:35.000Z</time>
      </trkpt>
      <trkpt lat="44.50902" lon="6.2245">
        <ele>1535</ele>
        <time>2023-04-21T11:52:36.000Z</time>
      </trkpt>
      <trkpt lat="44.50902" lon="6.2245">
        <ele>1535</ele>
        <time>2023-04-21T11:52:37.000Z</time>
      </trkpt>
      <trkpt lat="44.50902" lon="6.2245">
        <ele>1534</ele>
        <time>2023-04-21T11:52:38.000Z</time>
      </trkpt>
      <trkpt lat="44.50902" lon="6.2245">
        <ele>1534</ele>
        <time>2023-04-21T11:52:39.000Z</time>
      </trkpt>
      <trkpt lat="44.50902" lon="6.2245">
        <ele>1534</ele>
        <time>2023-04-21T11:52:40.000Z</time>
      </trkpt>
      <trkpt lat="44.50902" lon="6.2245">
        <ele>1534</ele>
        <time>2023-04-21T11:52:41.000Z</time>
      </trkpt>
      <trkpt lat="44.50902" lon="6.22449">
        <ele>1534</ele>
        <time>2023-04-21T11:52:42.000Z</time>
      </trkpt>
      <trkpt lat="44.50902" lon="6.22449">
        <ele>1534</ele>
        <time>2023-04-21T11:52:43.000Z</time>
      </trkpt>
      <trkpt lat="44.50902" lon="6.22449">
        <ele>1534</ele>
        <time>2023-04-21T11:52:44.000Z</time>
      </trkpt>
      <trkpt lat="44.50902" lon="6.22449">
        <ele>1534</ele>
        <time>2023-04-21T11:52:45.000Z</time>
      </trkpt>
      <trkpt lat="44.50902" lon="6.22449">
        <ele>1534</ele>
        <time>2023-04-21T11:52:46.000Z</time>
      </trkpt>
      <trkpt lat="44.50902" lon="6.22449">
        <ele>1534</ele>
        <time>2023-04-21T11:52:47.000Z</time>
      </trkpt>
      <trkpt lat="44.50902" lon="6.22449">
        <ele>1533</ele>
        <time>2023-04-21T11:52:48.000Z</time>
      </trkpt>
      <trkpt lat="44.50902" lon="6.22449">
        <ele>1533</ele>
        <time>2023-04-21T11:52:49.000Z</time>
      </trkpt>
      <trkpt lat="44.50902" lon="6.22449">
        <ele>1533</ele>
        <time>2023-04-21T11:52:50.000Z</time>
      </trkpt>
      <trkpt lat="44.50902" lon="6.22449">
        <ele>1533</ele>
        <time>2023-04-21T11:52:51.000Z</time>
      </trkpt>
      <trkpt lat="44.50902" lon="6.22449">
        <ele>1533</ele>
        <time>2023-04-21T11:52:52.000Z</time>
      </trkpt>
      <trkpt lat="44.50902" lon="6.22449">
        <ele>1533</ele>
        <time>2023-04-21T11:52:53.000Z</time>
      </trkpt>
      <trkpt lat="44.50902" lon="6.22449">
        <ele>1533</ele>
        <time>2023-04-21T11:52:54.000Z</time>
      </trkpt>
      <trkpt lat="44.50902" lon="6.22449">
        <ele>1533</ele>
        <time>2023-04-21T11:52:55.000Z</time>
      </trkpt>
      <trkpt lat="44.50902" lon="6.22449">
        <ele>1533</ele>
        <time>2023-04-21T11:52:56.000Z</time>
      </trkpt>
      <trkpt lat="44.50902" lon="6.22449">
        <ele>1533</ele>
        <time>2023-04-21T11:52:57.000Z</time>
      </trkpt>
      <trkpt lat="44.50902" lon="6.22448">
        <ele>1533</ele>
        <time>2023-04-21T11:52:58.000Z</time>
      </trkpt>
      <trkpt lat="44.50902" lon="6.22448">
        <ele>1533</ele>
        <time>2023-04-21T11:52:59.000Z</time>
      </trkpt>
      <trkpt lat="44.50902" lon="6.22448">
        <ele>1533</ele>
        <time>2023-04-21T11:53:00.000Z</time>
      </trkpt>
      <trkpt lat="44.50902" lon="6.22448">
        <ele>1533</ele>
        <time>2023-04-21T11:53:01.000Z</time>
      </trkpt>
      <trkpt lat="44.50902" lon="6.22448">
        <ele>1533</ele>
        <time>2023-04-21T11:53:02.000Z</time>
      </trkpt>
      <trkpt lat="44.50902" lon="6.22448">
        <ele>1533</ele>
        <time>2023-04-21T11:53:03.000Z</time>
      </trkpt>
      <trkpt lat="44.50902" lon="6.22448">
        <ele>1533</ele>
        <time>2023-04-21T11:53:04.000Z</time>
      </trkpt>
      <trkpt lat="44.50902" lon="6.22448">
        <ele>1533</ele>
        <time>2023-04-21T11:53:05.000Z</time>
      </trkpt>
      <trkpt lat="44.50902" lon="6.22448">
        <ele>1534</ele>
        <time>2023-04-21T11:53:06.000Z</time>
      </trkpt>
      <trkpt lat="44.50902" lon="6.22448">
        <ele>1534</ele>
        <time>2023-04-21T11:53:07.000Z</time>
      </trkpt>
      <trkpt lat="44.50902" lon="6.22448">
        <ele>1534</ele>
        <time>2023-04-21T11:53:08.000Z</time>
      </trkpt>
      <trkpt lat="44.50902" lon="6.22448">
        <ele>1534</ele>
        <time>2023-04-21T11:53:09.000Z</time>
      </trkpt>
      <trkpt lat="44.50902" lon="6.22448">
        <ele>1534</ele>
        <time>2023-04-21T11:53:10.000Z</time>
      </trkpt>
      <trkpt lat="44.50902" lon="6.22448">
        <ele>1534</ele>
        <time>2023-04-21T11:53:11.000Z</time>
      </trkpt>
      <trkpt lat="44.50902" lon="6.22448">
        <ele>1534</ele>
        <time>2023-04-21T11:53:12.000Z</time>
      </trkpt>
      <trkpt lat="44.50902" lon="6.22448">
        <ele>1535</ele>
        <time>2023-04-21T11:53:13.000Z</time>
      </trkpt>
      <trkpt lat="44.50902" lon="6.22448">
        <ele>1535</ele>
        <time>2023-04-21T11:53:14.000Z</time>
      </trkpt>
      <trkpt lat="44.50902" lon="6.22448">
        <ele>1535</ele>
        <time>2023-04-21T11:53:15.000Z</time>
      </trkpt>
      <trkpt lat="44.50902" lon="6.22448">
        <ele>1535</ele>
        <time>2023-04-21T11:53:16.000Z</time>
      </trkpt>
      <trkpt lat="44.50902" lon="6.22448">
        <ele>1535</ele>
        <time>2023-04-21T11:53:17.000Z</time>
      </trkpt>
      <trkpt lat="44.50902" lon="6.22448">
        <ele>1535</ele>
        <time>2023-04-21T11:53:18.000Z</time>
      </trkpt>
      <trkpt lat="44.50902" lon="6.22448">
        <ele>1534</ele>
        <time>2023-04-21T11:53:19.000Z</time>
      </trkpt>
      <trkpt lat="44.50902" lon="6.22448">
        <ele>1534</ele>
        <time>2023-04-21T11:53:20.000Z</time>
      </trkpt>
      <trkpt lat="44.50902" lon="6.22448">
        <ele>1534</ele>
        <time>2023-04-21T11:53:21.000Z</time>
      </trkpt>
      <trkpt lat="44.50902" lon="6.22448">
        <ele>1534</ele>
        <time>2023-04-21T11:53:22.000Z</time>
      </trkpt>
      <trkpt lat="44.50902" lon="6.22449">
        <ele>1534</ele>
        <time>2023-04-21T11:53:23.000Z</time>
      </trkpt>
      <trkpt lat="44.50902" lon="6.22449">
        <ele>1534</ele>
        <time>2023-04-21T11:53:24.000Z</time>
      </trkpt>
      <trkpt lat="44.50902" lon="6.22449">
        <ele>1534</ele>
        <time>2023-04-21T11:53:25.000Z</time>
      </trkpt>
      <trkpt lat="44.50902" lon="6.22449">
        <ele>1534</ele>
        <time>2023-04-21T11:53:26.000Z</time>
      </trkpt>
      <trkpt lat="44.50902" lon="6.22449">
        <ele>1534</ele>
        <time>2023-04-21T11:53:27.000Z</time>
      </trkpt>
      <trkpt lat="44.50901" lon="6.22449">
        <ele>1534</ele>
        <time>2023-04-21T11:53:28.000Z</time>
      </trkpt>
      <trkpt lat="44.50901" lon="6.22449">
        <ele>1534</ele>
        <time>2023-04-21T11:53:29.000Z</time>
      </trkpt>
      <trkpt lat="44.50901" lon="6.22449">
        <ele>1534</ele>
        <time>2023-04-21T11:53:30.000Z</time>
      </trkpt>
      <trkpt lat="44.50901" lon="6.22449">
        <ele>1534</ele>
        <time>2023-04-21T11:53:31.000Z</time>
      </trkpt>
      <trkpt lat="44.50901" lon="6.22449">
        <ele>1534</ele>
        <time>2023-04-21T11:53:32.000Z</time>
      </trkpt>
      <trkpt lat="44.50901" lon="6.22449">
        <ele>1534</ele>
        <time>2023-04-21T11:53:33.000Z</time>
      </trkpt>
      <trkpt lat="44.50901" lon="6.22449">
        <ele>1534</ele>
        <time>2023-04-21T11:53:34.000Z</time>
      </trkpt>
      <trkpt lat="44.50901" lon="6.22449">
        <ele>1534</ele>
        <time>2023-04-21T11:53:35.000Z</time>
      </trkpt>
      <trkpt lat="44.50901" lon="6.22449">
        <ele>1534</ele>
        <time>2023-04-21T11:53:36.000Z</time>
      </trkpt>
      <trkpt lat="44.50901" lon="6.22449">
        <ele>1534</ele>
        <time>2023-04-21T11:53:37.000Z</time>
      </trkpt>
      <trkpt lat="44.50901" lon="6.22449">
        <ele>1534</ele>
        <time>2023-04-21T11:53:38.000Z</time>
      </trkpt>
      <trkpt lat="44.50901" lon="6.22449">
        <ele>1533</ele>
        <time>2023-04-21T11:53:39.000Z</time>
      </trkpt>
      <trkpt lat="44.50901" lon="6.22449">
        <ele>1533</ele>
        <time>2023-04-21T11:53:40.000Z</time>
      </trkpt>
      <trkpt lat="44.50901" lon="6.22449">
        <ele>1533</ele>
        <time>2023-04-21T11:53:41.000Z</time>
      </trkpt>
      <trkpt lat="44.50901" lon="6.22449">
        <ele>1533</ele>
        <time>2023-04-21T11:53:42.000Z</time>
      </trkpt>
      <trkpt lat="44.50901" lon="6.22449">
        <ele>1533</ele>
        <time>2023-04-21T11:53:43.000Z</time>
      </trkpt>
      <trkpt lat="44.50901" lon="6.22449">
        <ele>1533</ele>
        <time>2023-04-21T11:53:44.000Z</time>
      </trkpt>
      <trkpt lat="44.50901" lon="6.22449">
        <ele>1533</ele>
        <time>2023-04-21T11:53:45.000Z</time>
      </trkpt>
      <trkpt lat="44.50901" lon="6.22449">
        <ele>1533</ele>
        <time>2023-04-21T11:53:46.000Z</time>
      </trkpt>
      <trkpt lat="44.50901" lon="6.22449">
        <ele>1533</ele>
        <time>2023-04-21T11:53:47.000Z</time>
      </trkpt>
      <trkpt lat="44.50901" lon="6.22449">
        <ele>1533</ele>
        <time>2023-04-21T11:53:48.000Z</time>
      </trkpt>
      <trkpt lat="44.50901" lon="6.22449">
        <ele>1533</ele>
        <time>2023-04-21T11:53:49.000Z</time>
      </trkpt>
      <trkpt lat="44.50901" lon="6.22449">
        <ele>1533</ele>
        <time>2023-04-21T11:53:50.000Z</time>
      </trkpt>
      <trkpt lat="44.50901" lon="6.22449">
        <ele>1533</ele>
        <time>2023-04-21T11:53:51.000Z</time>
      </trkpt>
      <trkpt lat="44.50901" lon="6.22449">
        <ele>1533</ele>
        <time>2023-04-21T11:53:52.000Z</time>
      </trkpt>
      <trkpt lat="44.50901" lon="6.22449">
        <ele>1533</ele>
        <time>2023-04-21T11:53:53.000Z</time>
      </trkpt>
      <trkpt lat="44.50901" lon="6.22449">
        <ele>1533</ele>
        <time>2023-04-21T11:53:54.000Z</time>
      </trkpt>
      <trkpt lat="44.50901" lon="6.22449">
        <ele>1533</ele>
        <time>2023-04-21T11:53:55.000Z</time>
      </trkpt>
      <trkpt lat="44.50901" lon="6.22449">
        <ele>1533</ele>
        <time>2023-04-21T11:53:56.000Z</time>
      </trkpt>
      <trkpt lat="44.50901" lon="6.22449">
        <ele>1533</ele>
        <time>2023-04-21T11:53:57.000Z</time>
      </trkpt>
      <trkpt lat="44.50901" lon="6.22449">
        <ele>1533</ele>
        <time>2023-04-21T11:53:58.000Z</time>
      </trkpt>
      <trkpt lat="44.50901" lon="6.22449">
        <ele>1533</ele>
        <time>2023-04-21T11:53:59.000Z</time>
      </trkpt>
      <trkpt lat="44.50901" lon="6.22449">
        <ele>1533</ele>
        <time>2023-04-21T11:54:00.000Z</time>
      </trkpt>
      <trkpt lat="44.50901" lon="6.22449">
        <ele>1533</ele>
        <time>2023-04-21T11:54:01.000Z</time>
      </trkpt>
      <trkpt lat="44.50901" lon="6.22449">
        <ele>1533</ele>
        <time>2023-04-21T11:54:02.000Z</time>
      </trkpt>
      <trkpt lat="44.50901" lon="6.22449">
        <ele>1533</ele>
        <time>2023-04-21T11:54:03.000Z</time>
      </trkpt>
      <trkpt lat="44.50901" lon="6.22449">
        <ele>1533</ele>
        <time>2023-04-21T11:54:04.000Z</time>
      </trkpt>
      <trkpt lat="44.50901" lon="6.22448">
        <ele>1533</ele>
        <time>2023-04-21T11:54:05.000Z</time>
      </trkpt>
      <trkpt lat="44.50901" lon="6.22448">
        <ele>1534</ele>
        <time>2023-04-21T11:54:06.000Z</time>
      </trkpt>
      <trkpt lat="44.50901" lon="6.22448">
        <ele>1534</ele>
        <time>2023-04-21T11:54:07.000Z</time>
      </trkpt>
      <trkpt lat="44.50901" lon="6.22448">
        <ele>1534</ele>
        <time>2023-04-21T11:54:08.000Z</time>
      </trkpt>
      <trkpt lat="44.50901" lon="6.22448">
        <ele>1534</ele>
        <time>2023-04-21T11:54:09.000Z</time>
      </trkpt>
      <trkpt lat="44.50901" lon="6.22448">
        <ele>1534</ele>
        <time>2023-04-21T11:54:10.000Z</time>
      </trkpt>
      <trkpt lat="44.50901" lon="6.22448">
        <ele>1534</ele>
        <time>2023-04-21T11:54:11.000Z</time>
      </trkpt>
      <trkpt lat="44.50901" lon="6.22448">
        <ele>1534</ele>
        <time>2023-04-21T11:54:12.000Z</time>
      </trkpt>
      <trkpt lat="44.50901" lon="6.22448">
        <ele>1534</ele>
        <time>2023-04-21T11:54:13.000Z</time>
      </trkpt>
      <trkpt lat="44.50901" lon="6.22448">
        <ele>1534</ele>
        <time>2023-04-21T11:54:14.000Z</time>
      </trkpt>
      <trkpt lat="44.509" lon="6.22448">
        <ele>1534</ele>
        <time>2023-04-21T11:54:15.000Z</time>
      </trkpt>
      <trkpt lat="44.509" lon="6.22448">
        <ele>1534</ele>
        <time>2023-04-21T11:54:16.000Z</time>
      </trkpt>
      <trkpt lat="44.509" lon="6.22448">
        <ele>1534</ele>
        <time>2023-04-21T11:54:17.000Z</time>
      </trkpt>
      <trkpt lat="44.509" lon="6.22448">
        <ele>1534</ele>
        <time>2023-04-21T11:54:18.000Z</time>
      </trkpt>
      <trkpt lat="44.509" lon="6.22448">
        <ele>1534</ele>
        <time>2023-04-21T11:54:19.000Z</time>
      </trkpt>
      <trkpt lat="44.509" lon="6.22448">
        <ele>1534</ele>
        <time>2023-04-21T11:54:20.000Z</time>
      </trkpt>
      <trkpt lat="44.509" lon="6.22448">
        <ele>1534</ele>
        <time>2023-04-21T11:54:21.000Z</time>
      </trkpt>
      <trkpt lat="44.509" lon="6.22448">
        <ele>1534</ele>
        <time>2023-04-21T11:54:22.000Z</time>
      </trkpt>
      <trkpt lat="44.509" lon="6.22448">
        <ele>1534</ele>
        <time>2023-04-21T11:54:23.000Z</time>
      </trkpt>
      <trkpt lat="44.509" lon="6.22449">
        <ele>1534</ele>
        <time>2023-04-21T11:54:24.000Z</time>
      </trkpt>
      <trkpt lat="44.509" lon="6.22449">
        <ele>1534</ele>
        <time>2023-04-21T11:54:25.000Z</time>
      </trkpt>
      <trkpt lat="44.50901" lon="6.22449">
        <ele>1534</ele>
        <time>2023-04-21T11:54:26.000Z</time>
      </trkpt>
      <trkpt lat="44.50901" lon="6.22449">
        <ele>1534</ele>
        <time>2023-04-21T11:54:27.000Z</time>
      </trkpt>
      <trkpt lat="44.50901" lon="6.22449">
        <ele>1534</ele>
        <time>2023-04-21T11:54:28.000Z</time>
      </trkpt>
      <trkpt lat="44.50901" lon="6.22449">
        <ele>1534</ele>
        <time>2023-04-21T11:54:29.000Z</time>
      </trkpt>
      <trkpt lat="44.50901" lon="6.22449">
        <ele>1534</ele>
        <time>2023-04-21T11:54:30.000Z</time>
      </trkpt>
      <trkpt lat="44.50901" lon="6.22449">
        <ele>1534</ele>
        <time>2023-04-21T11:54:31.000Z</time>
      </trkpt>
      <trkpt lat="44.50901" lon="6.22449">
        <ele>1534</ele>
        <time>2023-04-21T11:54:32.000Z</time>
      </trkpt>
      <trkpt lat="44.509" lon="6.22449">
        <ele>1534</ele>
        <time>2023-04-21T11:54:33.000Z</time>
      </trkpt>
      <trkpt lat="44.509" lon="6.22449">
        <ele>1534</ele>
        <time>2023-04-21T11:54:34.000Z</time>
      </trkpt>
      <trkpt lat="44.509" lon="6.22448">
        <ele>1534</ele>
        <time>2023-04-21T11:54:35.000Z</time>
      </trkpt>
      <trkpt lat="44.509" lon="6.22448">
        <ele>1534</ele>
        <time>2023-04-21T11:54:36.000Z</time>
      </trkpt>
      <trkpt lat="44.509" lon="6.22447">
        <ele>1534</ele>
        <time>2023-04-21T11:54:37.000Z</time>
      </trkpt>
      <trkpt lat="44.509" lon="6.22447">
        <ele>1534</ele>
        <time>2023-04-21T11:54:38.000Z</time>
      </trkpt>
      <trkpt lat="44.509" lon="6.22446">
        <ele>1534</ele>
        <time>2023-04-21T11:54:39.000Z</time>
      </trkpt>
      <trkpt lat="44.509" lon="6.22446">
        <ele>1534</ele>
        <time>2023-04-21T11:54:40.000Z</time>
      </trkpt>
      <trkpt lat="44.509" lon="6.22446">
        <ele>1534</ele>
        <time>2023-04-21T11:54:41.000Z</time>
      </trkpt>
      <trkpt lat="44.509" lon="6.22446">
        <ele>1534</ele>
        <time>2023-04-21T11:54:42.000Z</time>
      </trkpt>
      <trkpt lat="44.509" lon="6.22446">
        <ele>1533</ele>
        <time>2023-04-21T11:54:43.000Z</time>
      </trkpt>
      <trkpt lat="44.50899" lon="6.22445">
        <ele>1533</ele>
        <time>2023-04-21T11:54:44.000Z</time>
      </trkpt>
      <trkpt lat="44.50899" lon="6.22444">
        <ele>1534</ele>
        <time>2023-04-21T11:54:45.000Z</time>
      </trkpt>
      <trkpt lat="44.50898" lon="6.22443">
        <ele>1534</ele>
        <time>2023-04-21T11:54:46.000Z</time>
      </trkpt>
      <trkpt lat="44.50898" lon="6.22441">
        <ele>1534</ele>
        <time>2023-04-21T11:54:47.000Z</time>
      </trkpt>
      <trkpt lat="44.50899" lon="6.2244">
        <ele>1535</ele>
        <time>2023-04-21T11:54:48.000Z</time>
      </trkpt>
      <trkpt lat="44.50899" lon="6.22439">
        <ele>1535</ele>
        <time>2023-04-21T11:54:49.000Z</time>
      </trkpt>
      <trkpt lat="44.509" lon="6.22438">
        <ele>1535</ele>
        <time>2023-04-21T11:54:50.000Z</time>
      </trkpt>
      <trkpt lat="44.50901" lon="6.22437">
        <ele>1535</ele>
        <time>2023-04-21T11:54:51.000Z</time>
      </trkpt>
      <trkpt lat="44.50902" lon="6.22436">
        <ele>1535</ele>
        <time>2023-04-21T11:54:52.000Z</time>
      </trkpt>
      <trkpt lat="44.50903" lon="6.22435">
        <ele>1535</ele>
        <time>2023-04-21T11:54:53.000Z</time>
      </trkpt>
      <trkpt lat="44.50904" lon="6.22434">
        <ele>1535</ele>
        <time>2023-04-21T11:54:54.000Z</time>
      </trkpt>
      <trkpt lat="44.50905" lon="6.22432">
        <ele>1536</ele>
        <time>2023-04-21T11:54:55.000Z</time>
      </trkpt>
      <trkpt lat="44.50906" lon="6.2243">
        <ele>1536</ele>
        <time>2023-04-21T11:54:56.000Z</time>
      </trkpt>
      <trkpt lat="44.50906" lon="6.22428">
        <ele>1536</ele>
        <time>2023-04-21T11:54:57.000Z</time>
      </trkpt>
      <trkpt lat="44.50907" lon="6.22426">
        <ele>1537</ele>
        <time>2023-04-21T11:54:58.000Z</time>
      </trkpt>
      <trkpt lat="44.50907" lon="6.22424">
        <ele>1537</ele>
        <time>2023-04-21T11:54:59.000Z</time>
      </trkpt>
      <trkpt lat="44.50907" lon="6.22422">
        <ele>1537</ele>
        <time>2023-04-21T11:55:00.000Z</time>
      </trkpt>
      <trkpt lat="44.50907" lon="6.22419">
        <ele>1538</ele>
        <time>2023-04-21T11:55:01.000Z</time>
      </trkpt>
      <trkpt lat="44.50907" lon="6.22417">
        <ele>1538</ele>
        <time>2023-04-21T11:55:02.000Z</time>
      </trkpt>
      <trkpt lat="44.50908" lon="6.22415">
        <ele>1538</ele>
        <time>2023-04-21T11:55:03.000Z</time>
      </trkpt>
      <trkpt lat="44.50908" lon="6.22412">
        <ele>1538</ele>
        <time>2023-04-21T11:55:04.000Z</time>
      </trkpt>
      <trkpt lat="44.50908" lon="6.2241">
        <ele>1538</ele>
        <time>2023-04-21T11:55:05.000Z</time>
      </trkpt>
      <trkpt lat="44.50909" lon="6.22407">
        <ele>1538</ele>
        <time>2023-04-21T11:55:06.000Z</time>
      </trkpt>
      <trkpt lat="44.50909" lon="6.22404">
        <ele>1539</ele>
        <time>2023-04-21T11:55:07.000Z</time>
      </trkpt>
      <trkpt lat="44.5091" lon="6.22402">
        <ele>1539</ele>
        <time>2023-04-21T11:55:08.000Z</time>
      </trkpt>
      <trkpt lat="44.50911" lon="6.22399">
        <ele>1539</ele>
        <time>2023-04-21T11:55:09.000Z</time>
      </trkpt>
      <trkpt lat="44.50912" lon="6.22397">
        <ele>1539</ele>
        <time>2023-04-21T11:55:10.000Z</time>
      </trkpt>
      <trkpt lat="44.50913" lon="6.22396">
        <ele>1540</ele>
        <time>2023-04-21T11:55:11.000Z</time>
      </trkpt>
      <trkpt lat="44.50914" lon="6.22395">
        <ele>1540</ele>
        <time>2023-04-21T11:55:12.000Z</time>
      </trkpt>
      <trkpt lat="44.50915" lon="6.22393">
        <ele>1541</ele>
        <time>2023-04-21T11:55:13.000Z</time>
      </trkpt>
      <trkpt lat="44.50917" lon="6.22391">
        <ele>1541</ele>
        <time>2023-04-21T11:55:14.000Z</time>
      </trkpt>
      <trkpt lat="44.50919" lon="6.22389">
        <ele>1541</ele>
        <time>2023-04-21T11:55:15.000Z</time>
      </trkpt>
      <trkpt lat="44.5092" lon="6.22388">
        <ele>1541</ele>
        <time>2023-04-21T11:55:16.000Z</time>
      </trkpt>
      <trkpt lat="44.50922" lon="6.22386">
        <ele>1541</ele>
        <time>2023-04-21T11:55:17.000Z</time>
      </trkpt>
      <trkpt lat="44.50923" lon="6.22385">
        <ele>1541</ele>
        <time>2023-04-21T11:55:18.000Z</time>
      </trkpt>
      <trkpt lat="44.50925" lon="6.22383">
        <ele>1542</ele>
        <time>2023-04-21T11:55:19.000Z</time>
      </trkpt>
      <trkpt lat="44.50926" lon="6.22381">
        <ele>1542</ele>
        <time>2023-04-21T11:55:20.000Z</time>
      </trkpt>
      <trkpt lat="44.50927" lon="6.22379">
        <ele>1542</ele>
        <time>2023-04-21T11:55:21.000Z</time>
      </trkpt>
      <trkpt lat="44.50928" lon="6.22377">
        <ele>1542</ele>
        <time>2023-04-21T11:55:22.000Z</time>
      </trkpt>
      <trkpt lat="44.50929" lon="6.22375">
        <ele>1542</ele>
        <time>2023-04-21T11:55:23.000Z</time>
      </trkpt>
      <trkpt lat="44.50931" lon="6.22373">
        <ele>1543</ele>
        <time>2023-04-21T11:55:24.000Z</time>
      </trkpt>
      <trkpt lat="44.50932" lon="6.2237">
        <ele>1543</ele>
        <time>2023-04-21T11:55:25.000Z</time>
      </trkpt>
      <trkpt lat="44.50933" lon="6.22368">
        <ele>1543</ele>
        <time>2023-04-21T11:55:26.000Z</time>
      </trkpt>
      <trkpt lat="44.50935" lon="6.22365">
        <ele>1543</ele>
        <time>2023-04-21T11:55:27.000Z</time>
      </trkpt>
      <trkpt lat="44.50936" lon="6.22363">
        <ele>1543</ele>
        <time>2023-04-21T11:55:28.000Z</time>
      </trkpt>
      <trkpt lat="44.50937" lon="6.2236">
        <ele>1544</ele>
        <time>2023-04-21T11:55:29.000Z</time>
      </trkpt>
      <trkpt lat="44.50938" lon="6.22358">
        <ele>1544</ele>
        <time>2023-04-21T11:55:30.000Z</time>
      </trkpt>
      <trkpt lat="44.50939" lon="6.22356">
        <ele>1544</ele>
        <time>2023-04-21T11:55:31.000Z</time>
      </trkpt>
      <trkpt lat="44.5094" lon="6.22354">
        <ele>1545</ele>
        <time>2023-04-21T11:55:32.000Z</time>
      </trkpt>
      <trkpt lat="44.50942" lon="6.22352">
        <ele>1545</ele>
        <time>2023-04-21T11:55:33.000Z</time>
      </trkpt>
      <trkpt lat="44.50943" lon="6.22349">
        <ele>1545</ele>
        <time>2023-04-21T11:55:34.000Z</time>
      </trkpt>
      <trkpt lat="44.50944" lon="6.22347">
        <ele>1546</ele>
        <time>2023-04-21T11:55:35.000Z</time>
      </trkpt>
      <trkpt lat="44.50946" lon="6.22345">
        <ele>1546</ele>
        <time>2023-04-21T11:55:36.000Z</time>
      </trkpt>
      <trkpt lat="44.50947" lon="6.22342">
        <ele>1546</ele>
        <time>2023-04-21T11:55:37.000Z</time>
      </trkpt>
      <trkpt lat="44.50948" lon="6.22339">
        <ele>1547</ele>
        <time>2023-04-21T11:55:38.000Z</time>
      </trkpt>
      <trkpt lat="44.50949" lon="6.22337">
        <ele>1547</ele>
        <time>2023-04-21T11:55:39.000Z</time>
      </trkpt>
      <trkpt lat="44.5095" lon="6.22335">
        <ele>1547</ele>
        <time>2023-04-21T11:55:40.000Z</time>
      </trkpt>
      <trkpt lat="44.50951" lon="6.22332">
        <ele>1547</ele>
        <time>2023-04-21T11:55:41.000Z</time>
      </trkpt>
      <trkpt lat="44.50952" lon="6.22328">
        <ele>1547</ele>
        <time>2023-04-21T11:55:42.000Z</time>
      </trkpt>
      <trkpt lat="44.50954" lon="6.22326">
        <ele>1548</ele>
        <time>2023-04-21T11:55:43.000Z</time>
      </trkpt>
      <trkpt lat="44.50955" lon="6.22323">
        <ele>1548</ele>
        <time>2023-04-21T11:55:44.000Z</time>
      </trkpt>
      <trkpt lat="44.50956" lon="6.2232">
        <ele>1549</ele>
        <time>2023-04-21T11:55:45.000Z</time>
      </trkpt>
      <trkpt lat="44.50957" lon="6.22318">
        <ele>1549</ele>
        <time>2023-04-21T11:55:46.000Z</time>
      </trkpt>
      <trkpt lat="44.50958" lon="6.22315">
        <ele>1549</ele>
        <time>2023-04-21T11:55:47.000Z</time>
      </trkpt>
      <trkpt lat="44.50959" lon="6.22312">
        <ele>1550</ele>
        <time>2023-04-21T11:55:48.000Z</time>
      </trkpt>
      <trkpt lat="44.50959" lon="6.2231">
        <ele>1550</ele>
        <time>2023-04-21T11:55:49.000Z</time>
      </trkpt>
      <trkpt lat="44.5096" lon="6.22307">
        <ele>1550</ele>
        <time>2023-04-21T11:55:50.000Z</time>
      </trkpt>
      <trkpt lat="44.50961" lon="6.22304">
        <ele>1551</ele>
        <time>2023-04-21T11:55:51.000Z</time>
      </trkpt>
      <trkpt lat="44.50962" lon="6.22301">
        <ele>1551</ele>
        <time>2023-04-21T11:55:52.000Z</time>
      </trkpt>
      <trkpt lat="44.50963" lon="6.22298">
        <ele>1551</ele>
        <time>2023-04-21T11:55:53.000Z</time>
      </trkpt>
      <trkpt lat="44.50964" lon="6.22295">
        <ele>1551</ele>
        <time>2023-04-21T11:55:54.000Z</time>
      </trkpt>
      <trkpt lat="44.50965" lon="6.22292">
        <ele>1551</ele>
        <time>2023-04-21T11:55:55.000Z</time>
      </trkpt>
      <trkpt lat="44.50966" lon="6.22289">
        <ele>1552</ele>
        <time>2023-04-21T11:55:56.000Z</time>
      </trkpt>
      <trkpt lat="44.50966" lon="6.22285">
        <ele>1552</ele>
        <time>2023-04-21T11:55:57.000Z</time>
      </trkpt>
      <trkpt lat="44.50966" lon="6.22282">
        <ele>1552</ele>
        <time>2023-04-21T11:55:58.000Z</time>
      </trkpt>
      <trkpt lat="44.50967" lon="6.22278">
        <ele>1552</ele>
        <time>2023-04-21T11:55:59.000Z</time>
      </trkpt>
      <trkpt lat="44.50967" lon="6.22275">
        <ele>1552</ele>
        <time>2023-04-21T11:56:00.000Z</time>
      </trkpt>
      <trkpt lat="44.50967" lon="6.22271">
        <ele>1552</ele>
        <time>2023-04-21T11:56:01.000Z</time>
      </trkpt>
      <trkpt lat="44.50967" lon="6.22268">
        <ele>1552</ele>
        <time>2023-04-21T11:56:02.000Z</time>
      </trkpt>
      <trkpt lat="44.50968" lon="6.22265">
        <ele>1552</ele>
        <time>2023-04-21T11:56:03.000Z</time>
      </trkpt>
      <trkpt lat="44.50968" lon="6.22262">
        <ele>1552</ele>
        <time>2023-04-21T11:56:04.000Z</time>
      </trkpt>
      <trkpt lat="44.50968" lon="6.22258">
        <ele>1553</ele>
        <time>2023-04-21T11:56:05.000Z</time>
      </trkpt>
      <trkpt lat="44.50969" lon="6.22255">
        <ele>1553</ele>
        <time>2023-04-21T11:56:06.000Z</time>
      </trkpt>
      <trkpt lat="44.50969" lon="6.22252">
        <ele>1553</ele>
        <time>2023-04-21T11:56:07.000Z</time>
      </trkpt>
      <trkpt lat="44.50969" lon="6.22248">
        <ele>1553</ele>
        <time>2023-04-21T11:56:08.000Z</time>
      </trkpt>
      <trkpt lat="44.50969" lon="6.22245">
        <ele>1553</ele>
        <time>2023-04-21T11:56:09.000Z</time>
      </trkpt>
      <trkpt lat="44.50969" lon="6.22241">
        <ele>1554</ele>
        <time>2023-04-21T11:56:10.000Z</time>
      </trkpt>
      <trkpt lat="44.5097" lon="6.22238">
        <ele>1554</ele>
        <time>2023-04-21T11:56:11.000Z</time>
      </trkpt>
      <trkpt lat="44.5097" lon="6.22234">
        <ele>1554</ele>
        <time>2023-04-21T11:56:12.000Z</time>
      </trkpt>
      <trkpt lat="44.5097" lon="6.22231">
        <ele>1554</ele>
        <time>2023-04-21T11:56:13.000Z</time>
      </trkpt>
      <trkpt lat="44.5097" lon="6.22227">
        <ele>1555</ele>
        <time>2023-04-21T11:56:14.000Z</time>
      </trkpt>
      <trkpt lat="44.5097" lon="6.22224">
        <ele>1555</ele>
        <time>2023-04-21T11:56:15.000Z</time>
      </trkpt>
      <trkpt lat="44.5097" lon="6.22221">
        <ele>1556</ele>
        <time>2023-04-21T11:56:16.000Z</time>
      </trkpt>
      <trkpt lat="44.5097" lon="6.22218">
        <ele>1556</ele>
        <time>2023-04-21T11:56:17.000Z</time>
      </trkpt>
      <trkpt lat="44.5097" lon="6.22215">
        <ele>1557</ele>
        <time>2023-04-21T11:56:18.000Z</time>
      </trkpt>
      <trkpt lat="44.50971" lon="6.22212">
        <ele>1557</ele>
        <time>2023-04-21T11:56:19.000Z</time>
      </trkpt>
      <trkpt lat="44.50971" lon="6.22209">
        <ele>1558</ele>
        <time>2023-04-21T11:56:20.000Z</time>
      </trkpt>
      <trkpt lat="44.50972" lon="6.22206">
        <ele>1559</ele>
        <time>2023-04-21T11:56:21.000Z</time>
      </trkpt>
      <trkpt lat="44.50972" lon="6.22204">
        <ele>1560</ele>
        <time>2023-04-21T11:56:22.000Z</time>
      </trkpt>
      <trkpt lat="44.50973" lon="6.22201">
        <ele>1561</ele>
        <time>2023-04-21T11:56:23.000Z</time>
      </trkpt>
      <trkpt lat="44.50974" lon="6.22198">
        <ele>1561</ele>
        <time>2023-04-21T11:56:24.000Z</time>
      </trkpt>
      <trkpt lat="44.50974" lon="6.22194">
        <ele>1562</ele>
        <time>2023-04-21T11:56:25.000Z</time>
      </trkpt>
      <trkpt lat="44.50975" lon="6.22191">
        <ele>1562</ele>
        <time>2023-04-21T11:56:26.000Z</time>
      </trkpt>
      <trkpt lat="44.50976" lon="6.22187">
        <ele>1563</ele>
        <time>2023-04-21T11:56:27.000Z</time>
      </trkpt>
      <trkpt lat="44.50976" lon="6.22184">
        <ele>1563</ele>
        <time>2023-04-21T11:56:28.000Z</time>
      </trkpt>
      <trkpt lat="44.50977" lon="6.22181">
        <ele>1564</ele>
        <time>2023-04-21T11:56:29.000Z</time>
      </trkpt>
      <trkpt lat="44.50977" lon="6.22177">
        <ele>1564</ele>
        <time>2023-04-21T11:56:30.000Z</time>
      </trkpt>
      <trkpt lat="44.50978" lon="6.22174">
        <ele>1564</ele>
        <time>2023-04-21T11:56:31.000Z</time>
      </trkpt>
      <trkpt lat="44.50978" lon="6.22171">
        <ele>1565</ele>
        <time>2023-04-21T11:56:32.000Z</time>
      </trkpt>
      <trkpt lat="44.50979" lon="6.22167">
        <ele>1565</ele>
        <time>2023-04-21T11:56:33.000Z</time>
      </trkpt>
      <trkpt lat="44.50979" lon="6.22164">
        <ele>1565</ele>
        <time>2023-04-21T11:56:34.000Z</time>
      </trkpt>
      <trkpt lat="44.50981" lon="6.22161">
        <ele>1566</ele>
        <time>2023-04-21T11:56:35.000Z</time>
      </trkpt>
      <trkpt lat="44.50981" lon="6.22158">
        <ele>1567</ele>
        <time>2023-04-21T11:56:36.000Z</time>
      </trkpt>
      <trkpt lat="44.50982" lon="6.22155">
        <ele>1568</ele>
        <time>2023-04-21T11:56:37.000Z</time>
      </trkpt>
      <trkpt lat="44.50983" lon="6.22153">
        <ele>1569</ele>
        <time>2023-04-21T11:56:38.000Z</time>
      </trkpt>
      <trkpt lat="44.50983" lon="6.2215">
        <ele>1569</ele>
        <time>2023-04-21T11:56:39.000Z</time>
      </trkpt>
      <trkpt lat="44.50984" lon="6.22147">
        <ele>1571</ele>
        <time>2023-04-21T11:56:40.000Z</time>
      </trkpt>
      <trkpt lat="44.50985" lon="6.22144">
        <ele>1572</ele>
        <time>2023-04-21T11:56:41.000Z</time>
      </trkpt>
      <trkpt lat="44.50986" lon="6.22141">
        <ele>1573</ele>
        <time>2023-04-21T11:56:42.000Z</time>
      </trkpt>
      <trkpt lat="44.50987" lon="6.22138">
        <ele>1574</ele>
        <time>2023-04-21T11:56:43.000Z</time>
      </trkpt>
      <trkpt lat="44.50987" lon="6.22135">
        <ele>1575</ele>
        <time>2023-04-21T11:56:44.000Z</time>
      </trkpt>
      <trkpt lat="44.50988" lon="6.22131">
        <ele>1575</ele>
        <time>2023-04-21T11:56:45.000Z</time>
      </trkpt>
      <trkpt lat="44.50988" lon="6.22128">
        <ele>1576</ele>
        <time>2023-04-21T11:56:46.000Z</time>
      </trkpt>
      <trkpt lat="44.50989" lon="6.22125">
        <ele>1576</ele>
        <time>2023-04-21T11:56:47.000Z</time>
      </trkpt>
      <trkpt lat="44.5099" lon="6.22122">
        <ele>1577</ele>
        <time>2023-04-21T11:56:48.000Z</time>
      </trkpt>
      <trkpt lat="44.50991" lon="6.22119">
        <ele>1578</ele>
        <time>2023-04-21T11:56:49.000Z</time>
      </trkpt>
      <trkpt lat="44.50991" lon="6.22116">
        <ele>1579</ele>
        <time>2023-04-21T11:56:50.000Z</time>
      </trkpt>
      <trkpt lat="44.50992" lon="6.22112">
        <ele>1579</ele>
        <time>2023-04-21T11:56:51.000Z</time>
      </trkpt>
      <trkpt lat="44.50992" lon="6.22109">
        <ele>1580</ele>
        <time>2023-04-21T11:56:52.000Z</time>
      </trkpt>
      <trkpt lat="44.50993" lon="6.22106">
        <ele>1580</ele>
        <time>2023-04-21T11:56:53.000Z</time>
      </trkpt>
      <trkpt lat="44.50994" lon="6.22106">
        <ele>1584</ele>
        <time>2023-04-21T11:56:54.000Z</time>
      </trkpt>
      <trkpt lat="44.50995" lon="6.22103">
        <ele>1585</ele>
        <time>2023-04-21T11:56:55.000Z</time>
      </trkpt>
      <trkpt lat="44.50996" lon="6.22099">
        <ele>1586</ele>
        <time>2023-04-21T11:56:56.000Z</time>
      </trkpt>
      <trkpt lat="44.50997" lon="6.22096">
        <ele>1588</ele>
        <time>2023-04-21T11:56:57.000Z</time>
      </trkpt>
      <trkpt lat="44.50998" lon="6.22094">
        <ele>1589</ele>
        <time>2023-04-21T11:56:58.000Z</time>
      </trkpt>
      <trkpt lat="44.50998" lon="6.2209">
        <ele>1589</ele>
        <time>2023-04-21T11:56:59.000Z</time>
      </trkpt>
      <trkpt lat="44.50999" lon="6.22087">
        <ele>1590</ele>
        <time>2023-04-21T11:57:00.000Z</time>
      </trkpt>
      <trkpt lat="44.50999" lon="6.22084">
        <ele>1590</ele>
        <time>2023-04-21T11:57:01.000Z</time>
      </trkpt>
      <trkpt lat="44.50999" lon="6.2208">
        <ele>1589</ele>
        <time>2023-04-21T11:57:02.000Z</time>
      </trkpt>
      <trkpt lat="44.50999" lon="6.22077">
        <ele>1588</ele>
        <time>2023-04-21T11:57:03.000Z</time>
      </trkpt>
      <trkpt lat="44.51" lon="6.22073">
        <ele>1587</ele>
        <time>2023-04-21T11:57:04.000Z</time>
      </trkpt>
      <trkpt lat="44.51" lon="6.22069">
        <ele>1587</ele>
        <time>2023-04-21T11:57:05.000Z</time>
      </trkpt>
      <trkpt lat="44.51001" lon="6.22066">
        <ele>1587</ele>
        <time>2023-04-21T11:57:06.000Z</time>
      </trkpt>
      <trkpt lat="44.51001" lon="6.22063">
        <ele>1587</ele>
        <time>2023-04-21T11:57:07.000Z</time>
      </trkpt>
      <trkpt lat="44.51001" lon="6.22059">
        <ele>1586</ele>
        <time>2023-04-21T11:57:08.000Z</time>
      </trkpt>
      <trkpt lat="44.51001" lon="6.22056">
        <ele>1584</ele>
        <time>2023-04-21T11:57:09.000Z</time>
      </trkpt>
      <trkpt lat="44.51001" lon="6.22052">
        <ele>1584</ele>
        <time>2023-04-21T11:57:10.000Z</time>
      </trkpt>
      <trkpt lat="44.51001" lon="6.22048">
        <ele>1583</ele>
        <time>2023-04-21T11:57:11.000Z</time>
      </trkpt>
      <trkpt lat="44.51001" lon="6.22044">
        <ele>1581</ele>
        <time>2023-04-21T11:57:12.000Z</time>
      </trkpt>
      <trkpt lat="44.51" lon="6.22041">
        <ele>1579</ele>
        <time>2023-04-21T11:57:13.000Z</time>
      </trkpt>
      <trkpt lat="44.51" lon="6.22037">
        <ele>1578</ele>
        <time>2023-04-21T11:57:14.000Z</time>
      </trkpt>
      <trkpt lat="44.51001" lon="6.22034">
        <ele>1577</ele>
        <time>2023-04-21T11:57:15.000Z</time>
      </trkpt>
      <trkpt lat="44.51001" lon="6.2203">
        <ele>1576</ele>
        <time>2023-04-21T11:57:16.000Z</time>
      </trkpt>
      <trkpt lat="44.51002" lon="6.22027">
        <ele>1576</ele>
        <time>2023-04-21T11:57:17.000Z</time>
      </trkpt>
      <trkpt lat="44.51002" lon="6.22024">
        <ele>1575</ele>
        <time>2023-04-21T11:57:18.000Z</time>
      </trkpt>
      <trkpt lat="44.51003" lon="6.22021">
        <ele>1574</ele>
        <time>2023-04-21T11:57:19.000Z</time>
      </trkpt>
      <trkpt lat="44.51003" lon="6.22018">
        <ele>1573</ele>
        <time>2023-04-21T11:57:20.000Z</time>
      </trkpt>
      <trkpt lat="44.51004" lon="6.22014">
        <ele>1572</ele>
        <time>2023-04-21T11:57:21.000Z</time>
      </trkpt>
      <trkpt lat="44.51005" lon="6.22011">
        <ele>1572</ele>
        <time>2023-04-21T11:57:22.000Z</time>
      </trkpt>
      <trkpt lat="44.51005" lon="6.22008">
        <ele>1572</ele>
        <time>2023-04-21T11:57:23.000Z</time>
      </trkpt>
      <trkpt lat="44.51006" lon="6.22005">
        <ele>1572</ele>
        <time>2023-04-21T11:57:24.000Z</time>
      </trkpt>
      <trkpt lat="44.51006" lon="6.22002">
        <ele>1572</ele>
        <time>2023-04-21T11:57:25.000Z</time>
      </trkpt>
      <trkpt lat="44.51007" lon="6.21998">
        <ele>1573</ele>
        <time>2023-04-21T11:57:26.000Z</time>
      </trkpt>
      <trkpt lat="44.51007" lon="6.21995">
        <ele>1573</ele>
        <time>2023-04-21T11:57:27.000Z</time>
      </trkpt>
      <trkpt lat="44.51006" lon="6.21992">
        <ele>1573</ele>
        <time>2023-04-21T11:57:28.000Z</time>
      </trkpt>
      <trkpt lat="44.51006" lon="6.2199">
        <ele>1575</ele>
        <time>2023-04-21T11:57:29.000Z</time>
      </trkpt>
      <trkpt lat="44.51005" lon="6.21989">
        <ele>1577</ele>
        <time>2023-04-21T11:57:30.000Z</time>
      </trkpt>
      <trkpt lat="44.51004" lon="6.2199">
        <ele>1578</ele>
        <time>2023-04-21T11:57:31.000Z</time>
      </trkpt>
      <trkpt lat="44.51003" lon="6.2199">
        <ele>1579</ele>
        <time>2023-04-21T11:57:32.000Z</time>
      </trkpt>
      <trkpt lat="44.51002" lon="6.21992">
        <ele>1580</ele>
        <time>2023-04-21T11:57:33.000Z</time>
      </trkpt>
      <trkpt lat="44.51001" lon="6.21994">
        <ele>1581</ele>
        <time>2023-04-21T11:57:34.000Z</time>
      </trkpt>
      <trkpt lat="44.51" lon="6.21997">
        <ele>1582</ele>
        <time>2023-04-21T11:57:35.000Z</time>
      </trkpt>
      <trkpt lat="44.50998" lon="6.21999">
        <ele>1582</ele>
        <time>2023-04-21T11:57:36.000Z</time>
      </trkpt>
      <trkpt lat="44.50997" lon="6.22001">
        <ele>1583</ele>
        <time>2023-04-21T11:57:37.000Z</time>
      </trkpt>
      <trkpt lat="44.50996" lon="6.22004">
        <ele>1583</ele>
        <time>2023-04-21T11:57:38.000Z</time>
      </trkpt>
      <trkpt lat="44.50995" lon="6.22006">
        <ele>1583</ele>
        <time>2023-04-21T11:57:39.000Z</time>
      </trkpt>
      <trkpt lat="44.50993" lon="6.22008">
        <ele>1583</ele>
        <time>2023-04-21T11:57:40.000Z</time>
      </trkpt>
      <trkpt lat="44.50992" lon="6.22011">
        <ele>1584</ele>
        <time>2023-04-21T11:57:41.000Z</time>
      </trkpt>
      <trkpt lat="44.50991" lon="6.22014">
        <ele>1584</ele>
        <time>2023-04-21T11:57:42.000Z</time>
      </trkpt>
      <trkpt lat="44.50989" lon="6.22016">
        <ele>1584</ele>
        <time>2023-04-21T11:57:43.000Z</time>
      </trkpt>
      <trkpt lat="44.50988" lon="6.22019">
        <ele>1583</ele>
        <time>2023-04-21T11:57:44.000Z</time>
      </trkpt>
      <trkpt lat="44.50986" lon="6.22021">
        <ele>1583</ele>
        <time>2023-04-21T11:57:45.000Z</time>
      </trkpt>
      <trkpt lat="44.50985" lon="6.22024">
        <ele>1582</ele>
        <time>2023-04-21T11:57:46.000Z</time>
      </trkpt>
      <trkpt lat="44.50983" lon="6.22026">
        <ele>1582</ele>
        <time>2023-04-21T11:57:47.000Z</time>
      </trkpt>
      <trkpt lat="44.50982" lon="6.22029">
        <ele>1582</ele>
        <time>2023-04-21T11:57:48.000Z</time>
      </trkpt>
      <trkpt lat="44.50981" lon="6.22031">
        <ele>1582</ele>
        <time>2023-04-21T11:57:49.000Z</time>
      </trkpt>
      <trkpt lat="44.5098" lon="6.22034">
        <ele>1582</ele>
        <time>2023-04-21T11:57:50.000Z</time>
      </trkpt>
      <trkpt lat="44.50978" lon="6.22037">
        <ele>1582</ele>
        <time>2023-04-21T11:57:51.000Z</time>
      </trkpt>
      <trkpt lat="44.50977" lon="6.22039">
        <ele>1582</ele>
        <time>2023-04-21T11:57:52.000Z</time>
      </trkpt>
      <trkpt lat="44.50976" lon="6.22042">
        <ele>1583</ele>
        <time>2023-04-21T11:57:53.000Z</time>
      </trkpt>
      <trkpt lat="44.50975" lon="6.22044">
        <ele>1584</ele>
        <time>2023-04-21T11:57:54.000Z</time>
      </trkpt>
      <trkpt lat="44.50974" lon="6.22046">
        <ele>1584</ele>
        <time>2023-04-21T11:57:55.000Z</time>
      </trkpt>
      <trkpt lat="44.50973" lon="6.22049">
        <ele>1585</ele>
        <time>2023-04-21T11:57:56.000Z</time>
      </trkpt>
      <trkpt lat="44.50971" lon="6.22051">
        <ele>1585</ele>
        <time>2023-04-21T11:57:57.000Z</time>
      </trkpt>
      <trkpt lat="44.5097" lon="6.22054">
        <ele>1586</ele>
        <time>2023-04-21T11:57:58.000Z</time>
      </trkpt>
      <trkpt lat="44.50969" lon="6.22057">
        <ele>1587</ele>
        <time>2023-04-21T11:57:59.000Z</time>
      </trkpt>
      <trkpt lat="44.50968" lon="6.22061">
        <ele>1588</ele>
        <time>2023-04-21T11:58:00.000Z</time>
      </trkpt>
      <trkpt lat="44.50967" lon="6.22064">
        <ele>1589</ele>
        <time>2023-04-21T11:58:01.000Z</time>
      </trkpt>
      <trkpt lat="44.50966" lon="6.22067">
        <ele>1590</ele>
        <time>2023-04-21T11:58:02.000Z</time>
      </trkpt>
      <trkpt lat="44.50965" lon="6.2207">
        <ele>1590</ele>
        <time>2023-04-21T11:58:03.000Z</time>
      </trkpt>
      <trkpt lat="44.50964" lon="6.22073">
        <ele>1592</ele>
        <time>2023-04-21T11:58:04.000Z</time>
      </trkpt>
      <trkpt lat="44.50962" lon="6.22075">
        <ele>1591</ele>
        <time>2023-04-21T11:58:05.000Z</time>
      </trkpt>
      <trkpt lat="44.50961" lon="6.22079">
        <ele>1592</ele>
        <time>2023-04-21T11:58:06.000Z</time>
      </trkpt>
      <trkpt lat="44.5096" lon="6.22082">
        <ele>1593</ele>
        <time>2023-04-21T11:58:07.000Z</time>
      </trkpt>
      <trkpt lat="44.5096" lon="6.22086">
        <ele>1594</ele>
        <time>2023-04-21T11:58:08.000Z</time>
      </trkpt>
      <trkpt lat="44.50959" lon="6.22089">
        <ele>1595</ele>
        <time>2023-04-21T11:58:09.000Z</time>
      </trkpt>
      <trkpt lat="44.50958" lon="6.22092">
        <ele>1597</ele>
        <time>2023-04-21T11:58:10.000Z</time>
      </trkpt>
      <trkpt lat="44.50957" lon="6.22095">
        <ele>1597</ele>
        <time>2023-04-21T11:58:11.000Z</time>
      </trkpt>
      <trkpt lat="44.50956" lon="6.22099">
        <ele>1599</ele>
        <time>2023-04-21T11:58:12.000Z</time>
      </trkpt>
      <trkpt lat="44.50955" lon="6.22101">
        <ele>1599</ele>
        <time>2023-04-21T11:58:13.000Z</time>
      </trkpt>
      <trkpt lat="44.50954" lon="6.22104">
        <ele>1600</ele>
        <time>2023-04-21T11:58:14.000Z</time>
      </trkpt>
      <trkpt lat="44.50952" lon="6.22107">
        <ele>1600</ele>
        <time>2023-04-21T11:58:15.000Z</time>
      </trkpt>
      <trkpt lat="44.50951" lon="6.22109">
        <ele>1600</ele>
        <time>2023-04-21T11:58:16.000Z</time>
      </trkpt>
      <trkpt lat="44.5095" lon="6.22112">
        <ele>1601</ele>
        <time>2023-04-21T11:58:17.000Z</time>
      </trkpt>
      <trkpt lat="44.5095" lon="6.22116">
        <ele>1603</ele>
        <time>2023-04-21T11:58:18.000Z</time>
      </trkpt>
      <trkpt lat="44.50949" lon="6.22119">
        <ele>1604</ele>
        <time>2023-04-21T11:58:19.000Z</time>
      </trkpt>
      <trkpt lat="44.50948" lon="6.22122">
        <ele>1605</ele>
        <time>2023-04-21T11:58:20.000Z</time>
      </trkpt>
      <trkpt lat="44.50946" lon="6.22125">
        <ele>1606</ele>
        <time>2023-04-21T11:58:21.000Z</time>
      </trkpt>
      <trkpt lat="44.50945" lon="6.22128">
        <ele>1607</ele>
        <time>2023-04-21T11:58:22.000Z</time>
      </trkpt>
      <trkpt lat="44.50944" lon="6.22131">
        <ele>1607</ele>
        <time>2023-04-21T11:58:23.000Z</time>
      </trkpt>
      <trkpt lat="44.50943" lon="6.22133">
        <ele>1607</ele>
        <time>2023-04-21T11:58:24.000Z</time>
      </trkpt>
      <trkpt lat="44.50942" lon="6.22136">
        <ele>1607</ele>
        <time>2023-04-21T11:58:25.000Z</time>
      </trkpt>
      <trkpt lat="44.5094" lon="6.22138">
        <ele>1607</ele>
        <time>2023-04-21T11:58:26.000Z</time>
      </trkpt>
      <trkpt lat="44.50938" lon="6.22141">
        <ele>1606</ele>
        <time>2023-04-21T11:58:27.000Z</time>
      </trkpt>
      <trkpt lat="44.50937" lon="6.22144">
        <ele>1606</ele>
        <time>2023-04-21T11:58:28.000Z</time>
      </trkpt>
      <trkpt lat="44.50935" lon="6.22146">
        <ele>1605</ele>
        <time>2023-04-21T11:58:29.000Z</time>
      </trkpt>
      <trkpt lat="44.50933" lon="6.22149">
        <ele>1604</ele>
        <time>2023-04-21T11:58:30.000Z</time>
      </trkpt>
      <trkpt lat="44.50931" lon="6.22151">
        <ele>1604</ele>
        <time>2023-04-21T11:58:31.000Z</time>
      </trkpt>
      <trkpt lat="44.50929" lon="6.22153">
        <ele>1604</ele>
        <time>2023-04-21T11:58:32.000Z</time>
      </trkpt>
      <trkpt lat="44.50927" lon="6.22155">
        <ele>1604</ele>
        <time>2023-04-21T11:58:33.000Z</time>
      </trkpt>
      <trkpt lat="44.50926" lon="6.22157">
        <ele>1605</ele>
        <time>2023-04-21T11:58:34.000Z</time>
      </trkpt>
      <trkpt lat="44.50924" lon="6.22159">
        <ele>1605</ele>
        <time>2023-04-21T11:58:35.000Z</time>
      </trkpt>
      <trkpt lat="44.50922" lon="6.2216">
        <ele>1606</ele>
        <time>2023-04-21T11:58:36.000Z</time>
      </trkpt>
      <trkpt lat="44.5092" lon="6.22161">
        <ele>1606</ele>
        <time>2023-04-21T11:58:37.000Z</time>
      </trkpt>
      <trkpt lat="44.50916" lon="6.22159">
        <ele>1605</ele>
        <time>2023-04-21T11:58:38.000Z</time>
      </trkpt>
      <trkpt lat="44.50911" lon="6.22158">
        <ele>1601</ele>
        <time>2023-04-21T11:58:39.000Z</time>
      </trkpt>
      <trkpt lat="44.50907" lon="6.22157">
        <ele>1600</ele>
        <time>2023-04-21T11:58:40.000Z</time>
      </trkpt>
      <trkpt lat="44.50905" lon="6.22156">
        <ele>1600</ele>
        <time>2023-04-21T11:58:41.000Z</time>
      </trkpt>
      <trkpt lat="44.50902" lon="6.22155">
        <ele>1600</ele>
        <time>2023-04-21T11:58:42.000Z</time>
      </trkpt>
      <trkpt lat="44.509" lon="6.22154">
        <ele>1600</ele>
        <time>2023-04-21T11:58:43.000Z</time>
      </trkpt>
      <trkpt lat="44.50898" lon="6.22154">
        <ele>1600</ele>
        <time>2023-04-21T11:58:44.000Z</time>
      </trkpt>
      <trkpt lat="44.50895" lon="6.22153">
        <ele>1600</ele>
        <time>2023-04-21T11:58:45.000Z</time>
      </trkpt>
      <trkpt lat="44.50893" lon="6.22152">
        <ele>1600</ele>
        <time>2023-04-21T11:58:46.000Z</time>
      </trkpt>
      <trkpt lat="44.50889" lon="6.2215">
        <ele>1600</ele>
        <time>2023-04-21T11:58:47.000Z</time>
      </trkpt>
      <trkpt lat="44.50887" lon="6.22149">
        <ele>1600</ele>
        <time>2023-04-21T11:58:48.000Z</time>
      </trkpt>
      <trkpt lat="44.50884" lon="6.22148">
        <ele>1600</ele>
        <time>2023-04-21T11:58:49.000Z</time>
      </trkpt>
      <trkpt lat="44.50881" lon="6.22148">
        <ele>1600</ele>
        <time>2023-04-21T11:58:50.000Z</time>
      </trkpt>
      <trkpt lat="44.50879" lon="6.22147">
        <ele>1600</ele>
        <time>2023-04-21T11:58:51.000Z</time>
      </trkpt>
      <trkpt lat="44.50876" lon="6.22146">
        <ele>1601</ele>
        <time>2023-04-21T11:58:52.000Z</time>
      </trkpt>
      <trkpt lat="44.50874" lon="6.22145">
        <ele>1602</ele>
        <time>2023-04-21T11:58:53.000Z</time>
      </trkpt>
      <trkpt lat="44.50871" lon="6.22144">
        <ele>1602</ele>
        <time>2023-04-21T11:58:54.000Z</time>
      </trkpt>
      <trkpt lat="44.50869" lon="6.22144">
        <ele>1603</ele>
        <time>2023-04-21T11:58:55.000Z</time>
      </trkpt>
      <trkpt lat="44.50866" lon="6.22143">
        <ele>1603</ele>
        <time>2023-04-21T11:58:56.000Z</time>
      </trkpt>
      <trkpt lat="44.50864" lon="6.22142">
        <ele>1605</ele>
        <time>2023-04-21T11:58:57.000Z</time>
      </trkpt>
      <trkpt lat="44.50862" lon="6.22142">
        <ele>1606</ele>
        <time>2023-04-21T11:58:58.000Z</time>
      </trkpt>
      <trkpt lat="44.5086" lon="6.22141">
        <ele>1607</ele>
        <time>2023-04-21T11:58:59.000Z</time>
      </trkpt>
      <trkpt lat="44.50858" lon="6.22141">
        <ele>1609</ele>
        <time>2023-04-21T11:59:00.000Z</time>
      </trkpt>
      <trkpt lat="44.50855" lon="6.22141">
        <ele>1609</ele>
        <time>2023-04-21T11:59:01.000Z</time>
      </trkpt>
      <trkpt lat="44.50853" lon="6.22141">
        <ele>1610</ele>
        <time>2023-04-21T11:59:02.000Z</time>
      </trkpt>
      <trkpt lat="44.5085" lon="6.2214">
        <ele>1610</ele>
        <time>2023-04-21T11:59:03.000Z</time>
      </trkpt>
      <trkpt lat="44.50846" lon="6.22139">
        <ele>1609</ele>
        <time>2023-04-21T11:59:04.000Z</time>
      </trkpt>
      <trkpt lat="44.50843" lon="6.22138">
        <ele>1608</ele>
        <time>2023-04-21T11:59:05.000Z</time>
      </trkpt>
      <trkpt lat="44.50839" lon="6.22136">
        <ele>1606</ele>
        <time>2023-04-21T11:59:06.000Z</time>
      </trkpt>
      <trkpt lat="44.50836" lon="6.22134">
        <ele>1605</ele>
        <time>2023-04-21T11:59:07.000Z</time>
      </trkpt>
      <trkpt lat="44.50833" lon="6.22132">
        <ele>1605</ele>
        <time>2023-04-21T11:59:08.000Z</time>
      </trkpt>
      <trkpt lat="44.5083" lon="6.2213">
        <ele>1605</ele>
        <time>2023-04-21T11:59:09.000Z</time>
      </trkpt>
      <trkpt lat="44.50828" lon="6.22127">
        <ele>1604</ele>
        <time>2023-04-21T11:59:10.000Z</time>
      </trkpt>
      <trkpt lat="44.50826" lon="6.22123">
        <ele>1604</ele>
        <time>2023-04-21T11:59:11.000Z</time>
      </trkpt>
      <trkpt lat="44.50825" lon="6.2212">
        <ele>1603</ele>
        <time>2023-04-21T11:59:12.000Z</time>
      </trkpt>
      <trkpt lat="44.50823" lon="6.22117">
        <ele>1603</ele>
        <time>2023-04-21T11:59:13.000Z</time>
      </trkpt>
      <trkpt lat="44.50822" lon="6.22114">
        <ele>1603</ele>
        <time>2023-04-21T11:59:14.000Z</time>
      </trkpt>
      <trkpt lat="44.50822" lon="6.2211">
        <ele>1603</ele>
        <time>2023-04-21T11:59:15.000Z</time>
      </trkpt>
      <trkpt lat="44.50822" lon="6.22107">
        <ele>1603</ele>
        <time>2023-04-21T11:59:16.000Z</time>
      </trkpt>
      <trkpt lat="44.50821" lon="6.22103">
        <ele>1602</ele>
        <time>2023-04-21T11:59:17.000Z</time>
      </trkpt>
      <trkpt lat="44.50821" lon="6.22099">
        <ele>1601</ele>
        <time>2023-04-21T11:59:18.000Z</time>
      </trkpt>
      <trkpt lat="44.50821" lon="6.22096">
        <ele>1601</ele>
        <time>2023-04-21T11:59:19.000Z</time>
      </trkpt>
      <trkpt lat="44.50821" lon="6.22093">
        <ele>1601</ele>
        <time>2023-04-21T11:59:20.000Z</time>
      </trkpt>
      <trkpt lat="44.50821" lon="6.22089">
        <ele>1601</ele>
        <time>2023-04-21T11:59:21.000Z</time>
      </trkpt>
      <trkpt lat="44.50821" lon="6.22086">
        <ele>1601</ele>
        <time>2023-04-21T11:59:22.000Z</time>
      </trkpt>
      <trkpt lat="44.50821" lon="6.22082">
        <ele>1601</ele>
        <time>2023-04-21T11:59:23.000Z</time>
      </trkpt>
      <trkpt lat="44.50822" lon="6.22079">
        <ele>1601</ele>
        <time>2023-04-21T11:59:24.000Z</time>
      </trkpt>
      <trkpt lat="44.50822" lon="6.22075">
        <ele>1601</ele>
        <time>2023-04-21T11:59:25.000Z</time>
      </trkpt>
      <trkpt lat="44.50823" lon="6.22071">
        <ele>1601</ele>
        <time>2023-04-21T11:59:26.000Z</time>
      </trkpt>
      <trkpt lat="44.50823" lon="6.22068">
        <ele>1601</ele>
        <time>2023-04-21T11:59:27.000Z</time>
      </trkpt>
      <trkpt lat="44.50823" lon="6.22064">
        <ele>1601</ele>
        <time>2023-04-21T11:59:28.000Z</time>
      </trkpt>
      <trkpt lat="44.50823" lon="6.22061">
        <ele>1602</ele>
        <time>2023-04-21T11:59:29.000Z</time>
      </trkpt>
      <trkpt lat="44.50823" lon="6.22058">
        <ele>1602</ele>
        <time>2023-04-21T11:59:30.000Z</time>
      </trkpt>
      <trkpt lat="44.50824" lon="6.22055">
        <ele>1602</ele>
        <time>2023-04-21T11:59:31.000Z</time>
      </trkpt>
      <trkpt lat="44.50824" lon="6.22052">
        <ele>1603</ele>
        <time>2023-04-21T11:59:32.000Z</time>
      </trkpt>
      <trkpt lat="44.50824" lon="6.22048">
        <ele>1603</ele>
        <time>2023-04-21T11:59:33.000Z</time>
      </trkpt>
      <trkpt lat="44.50825" lon="6.22044">
        <ele>1603</ele>
        <time>2023-04-21T11:59:34.000Z</time>
      </trkpt>
      <trkpt lat="44.50825" lon="6.2204">
        <ele>1603</ele>
        <time>2023-04-21T11:59:35.000Z</time>
      </trkpt>
      <trkpt lat="44.50825" lon="6.22037">
        <ele>1604</ele>
        <time>2023-04-21T11:59:36.000Z</time>
      </trkpt>
      <trkpt lat="44.50826" lon="6.22033">
        <ele>1604</ele>
        <time>2023-04-21T11:59:37.000Z</time>
      </trkpt>
      <trkpt lat="44.50826" lon="6.2203">
        <ele>1605</ele>
        <time>2023-04-21T11:59:38.000Z</time>
      </trkpt>
      <trkpt lat="44.50826" lon="6.22026">
        <ele>1605</ele>
        <time>2023-04-21T11:59:39.000Z</time>
      </trkpt>
      <trkpt lat="44.50827" lon="6.22023">
        <ele>1605</ele>
        <time>2023-04-21T11:59:40.000Z</time>
      </trkpt>
      <trkpt lat="44.50827" lon="6.2202">
        <ele>1606</ele>
        <time>2023-04-21T11:59:41.000Z</time>
      </trkpt>
      <trkpt lat="44.50828" lon="6.22016">
        <ele>1607</ele>
        <time>2023-04-21T11:59:42.000Z</time>
      </trkpt>
      <trkpt lat="44.50828" lon="6.22012">
        <ele>1608</ele>
        <time>2023-04-21T11:59:43.000Z</time>
      </trkpt>
      <trkpt lat="44.50828" lon="6.22008">
        <ele>1608</ele>
        <time>2023-04-21T11:59:44.000Z</time>
      </trkpt>
      <trkpt lat="44.50828" lon="6.22005">
        <ele>1608</ele>
        <time>2023-04-21T11:59:45.000Z</time>
      </trkpt>
      <trkpt lat="44.50829" lon="6.22001">
        <ele>1609</ele>
        <time>2023-04-21T11:59:46.000Z</time>
      </trkpt>
      <trkpt lat="44.5083" lon="6.21998">
        <ele>1609</ele>
        <time>2023-04-21T11:59:47.000Z</time>
      </trkpt>
      <trkpt lat="44.50831" lon="6.21994">
        <ele>1609</ele>
        <time>2023-04-21T11:59:48.000Z</time>
      </trkpt>
      <trkpt lat="44.50832" lon="6.21991">
        <ele>1609</ele>
        <time>2023-04-21T11:59:49.000Z</time>
      </trkpt>
      <trkpt lat="44.50832" lon="6.21987">
        <ele>1609</ele>
        <time>2023-04-21T11:59:50.000Z</time>
      </trkpt>
      <trkpt lat="44.50833" lon="6.21983">
        <ele>1609</ele>
        <time>2023-04-21T11:59:51.000Z</time>
      </trkpt>
      <trkpt lat="44.50835" lon="6.2198">
        <ele>1609</ele>
        <time>2023-04-21T11:59:52.000Z</time>
      </trkpt>
      <trkpt lat="44.50836" lon="6.21976">
        <ele>1609</ele>
        <time>2023-04-21T11:59:53.000Z</time>
      </trkpt>
      <trkpt lat="44.50838" lon="6.21973">
        <ele>1609</ele>
        <time>2023-04-21T11:59:54.000Z</time>
      </trkpt>
      <trkpt lat="44.5084" lon="6.21969">
        <ele>1608</ele>
        <time>2023-04-21T11:59:55.000Z</time>
      </trkpt>
      <trkpt lat="44.50842" lon="6.21966">
        <ele>1607</ele>
        <time>2023-04-21T11:59:56.000Z</time>
      </trkpt>
      <trkpt lat="44.50843" lon="6.21963">
        <ele>1607</ele>
        <time>2023-04-21T11:59:57.000Z</time>
      </trkpt>
      <trkpt lat="44.50845" lon="6.21959">
        <ele>1607</ele>
        <time>2023-04-21T11:59:58.000Z</time>
      </trkpt>
      <trkpt lat="44.50846" lon="6.21957">
        <ele>1608</ele>
        <time>2023-04-21T11:59:59.000Z</time>
      </trkpt>
      <trkpt lat="44.50848" lon="6.21953">
        <ele>1608</ele>
        <time>2023-04-21T12:00:00.000Z</time>
      </trkpt>
      <trkpt lat="44.50849" lon="6.2195">
        <ele>1609</ele>
        <time>2023-04-21T12:00:01.000Z</time>
      </trkpt>
      <trkpt lat="44.50851" lon="6.21947">
        <ele>1609</ele>
        <time>2023-04-21T12:00:02.000Z</time>
      </trkpt>
      <trkpt lat="44.50853" lon="6.21944">
        <ele>1609</ele>
        <time>2023-04-21T12:00:03.000Z</time>
      </trkpt>
      <trkpt lat="44.50855" lon="6.21942">
        <ele>1609</ele>
        <time>2023-04-21T12:00:04.000Z</time>
      </trkpt>
      <trkpt lat="44.50856" lon="6.21939">
        <ele>1609</ele>
        <time>2023-04-21T12:00:05.000Z</time>
      </trkpt>
      <trkpt lat="44.50858" lon="6.21937">
        <ele>1610</ele>
        <time>2023-04-21T12:00:06.000Z</time>
      </trkpt>
      <trkpt lat="44.5086" lon="6.21934">
        <ele>1610</ele>
        <time>2023-04-21T12:00:07.000Z</time>
      </trkpt>
      <trkpt lat="44.50862" lon="6.21933">
        <ele>1610</ele>
        <time>2023-04-21T12:00:08.000Z</time>
      </trkpt>
      <trkpt lat="44.50863" lon="6.21931">
        <ele>1610</ele>
        <time>2023-04-21T12:00:09.000Z</time>
      </trkpt>
      <trkpt lat="44.50864" lon="6.21928">
        <ele>1610</ele>
        <time>2023-04-21T12:00:10.000Z</time>
      </trkpt>
      <trkpt lat="44.50866" lon="6.21926">
        <ele>1611</ele>
        <time>2023-04-21T12:00:11.000Z</time>
      </trkpt>
      <trkpt lat="44.50867" lon="6.21924">
        <ele>1611</ele>
        <time>2023-04-21T12:00:12.000Z</time>
      </trkpt>
      <trkpt lat="44.50869" lon="6.21921">
        <ele>1611</ele>
        <time>2023-04-21T12:00:13.000Z</time>
      </trkpt>
      <trkpt lat="44.5087" lon="6.21919">
        <ele>1611</ele>
        <time>2023-04-21T12:00:14.000Z</time>
      </trkpt>
      <trkpt lat="44.50871" lon="6.21917">
        <ele>1611</ele>
        <time>2023-04-21T12:00:15.000Z</time>
      </trkpt>
      <trkpt lat="44.50873" lon="6.21915">
        <ele>1611</ele>
        <time>2023-04-21T12:00:16.000Z</time>
      </trkpt>
      <trkpt lat="44.50874" lon="6.21912">
        <ele>1612</ele>
        <time>2023-04-21T12:00:17.000Z</time>
      </trkpt>
      <trkpt lat="44.50875" lon="6.2191">
        <ele>1612</ele>
        <time>2023-04-21T12:00:18.000Z</time>
      </trkpt>
      <trkpt lat="44.50876" lon="6.21907">
        <ele>1612</ele>
        <time>2023-04-21T12:00:19.000Z</time>
      </trkpt>
      <trkpt lat="44.50877" lon="6.21905">
        <ele>1612</ele>
        <time>2023-04-21T12:00:20.000Z</time>
      </trkpt>
      <trkpt lat="44.50877" lon="6.21904">
        <ele>1612</ele>
        <time>2023-04-21T12:00:21.000Z</time>
      </trkpt>
      <trkpt lat="44.50877" lon="6.21903">
        <ele>1612</ele>
        <time>2023-04-21T12:00:22.000Z</time>
      </trkpt>
      <trkpt lat="44.50877" lon="6.21903">
        <ele>1611</ele>
        <time>2023-04-21T12:00:23.000Z</time>
      </trkpt>
      <trkpt lat="44.50878" lon="6.21903">
        <ele>1611</ele>
        <time>2023-04-21T12:00:24.000Z</time>
      </trkpt>
      <trkpt lat="44.50878" lon="6.21903">
        <ele>1611</ele>
        <time>2023-04-21T12:00:25.000Z</time>
      </trkpt>
      <trkpt lat="44.50878" lon="6.21903">
        <ele>1611</ele>
        <time>2023-04-21T12:00:26.000Z</time>
      </trkpt>
      <trkpt lat="44.50878" lon="6.21903">
        <ele>1611</ele>
        <time>2023-04-21T12:00:27.000Z</time>
      </trkpt>
      <trkpt lat="44.50878" lon="6.21902">
        <ele>1611</ele>
        <time>2023-04-21T12:00:28.000Z</time>
      </trkpt>
      <trkpt lat="44.50878" lon="6.21902">
        <ele>1611</ele>
        <time>2023-04-21T12:00:29.000Z</time>
      </trkpt>
      <trkpt lat="44.50878" lon="6.21902">
        <ele>1611</ele>
        <time>2023-04-21T12:00:30.000Z</time>
      </trkpt>
      <trkpt lat="44.50878" lon="6.21901">
        <ele>1610</ele>
        <time>2023-04-21T12:00:31.000Z</time>
      </trkpt>
      <trkpt lat="44.50878" lon="6.21901">
        <ele>1610</ele>
        <time>2023-04-21T12:00:32.000Z</time>
      </trkpt>
      <trkpt lat="44.50878" lon="6.21901">
        <ele>1610</ele>
        <time>2023-04-21T12:00:33.000Z</time>
      </trkpt>
      <trkpt lat="44.50879" lon="6.219">
        <ele>1610</ele>
        <time>2023-04-21T12:00:34.000Z</time>
      </trkpt>
      <trkpt lat="44.50879" lon="6.219">
        <ele>1610</ele>
        <time>2023-04-21T12:00:35.000Z</time>
      </trkpt>
      <trkpt lat="44.50879" lon="6.219">
        <ele>1610</ele>
        <time>2023-04-21T12:00:36.000Z</time>
      </trkpt>
      <trkpt lat="44.50879" lon="6.219">
        <ele>1609</ele>
        <time>2023-04-21T12:00:37.000Z</time>
      </trkpt>
      <trkpt lat="44.50879" lon="6.21899">
        <ele>1609</ele>
        <time>2023-04-21T12:00:38.000Z</time>
      </trkpt>
      <trkpt lat="44.50879" lon="6.21899">
        <ele>1609</ele>
        <time>2023-04-21T12:00:39.000Z</time>
      </trkpt>
      <trkpt lat="44.50879" lon="6.21899">
        <ele>1609</ele>
        <time>2023-04-21T12:00:40.000Z</time>
      </trkpt>
      <trkpt lat="44.50879" lon="6.21899">
        <ele>1609</ele>
        <time>2023-04-21T12:00:41.000Z</time>
      </trkpt>
      <trkpt lat="44.50879" lon="6.21899">
        <ele>1609</ele>
        <time>2023-04-21T12:00:42.000Z</time>
      </trkpt>
      <trkpt lat="44.50879" lon="6.21899">
        <ele>1609</ele>
        <time>2023-04-21T12:00:43.000Z</time>
      </trkpt>
      <trkpt lat="44.50879" lon="6.21899">
        <ele>1609</ele>
        <time>2023-04-21T12:00:44.000Z</time>
      </trkpt>
      <trkpt lat="44.5088" lon="6.21898">
        <ele>1609</ele>
        <time>2023-04-21T12:00:45.000Z</time>
      </trkpt>
      <trkpt lat="44.5088" lon="6.21898">
        <ele>1608</ele>
        <time>2023-04-21T12:00:46.000Z</time>
      </trkpt>
      <trkpt lat="44.5088" lon="6.21898">
        <ele>1608</ele>
        <time>2023-04-21T12:00:47.000Z</time>
      </trkpt>
      <trkpt lat="44.5088" lon="6.21898">
        <ele>1608</ele>
        <time>2023-04-21T12:00:48.000Z</time>
      </trkpt>
      <trkpt lat="44.5088" lon="6.21898">
        <ele>1608</ele>
        <time>2023-04-21T12:00:49.000Z</time>
      </trkpt>
      <trkpt lat="44.5088" lon="6.21898">
        <ele>1608</ele>
        <time>2023-04-21T12:00:50.000Z</time>
      </trkpt>
      <trkpt lat="44.5088" lon="6.21898">
        <ele>1608</ele>
        <time>2023-04-21T12:00:51.000Z</time>
      </trkpt>
      <trkpt lat="44.5088" lon="6.21898">
        <ele>1608</ele>
        <time>2023-04-21T12:00:52.000Z</time>
      </trkpt>
      <trkpt lat="44.5088" lon="6.21898">
        <ele>1608</ele>
        <time>2023-04-21T12:00:53.000Z</time>
      </trkpt>
      <trkpt lat="44.5088" lon="6.21897">
        <ele>1608</ele>
        <time>2023-04-21T12:00:54.000Z</time>
      </trkpt>
      <trkpt lat="44.5088" lon="6.21897">
        <ele>1608</ele>
        <time>2023-04-21T12:00:55.000Z</time>
      </trkpt>
      <trkpt lat="44.5088" lon="6.21897">
        <ele>1608</ele>
        <time>2023-04-21T12:00:56.000Z</time>
      </trkpt>
      <trkpt lat="44.5088" lon="6.21897">
        <ele>1607</ele>
        <time>2023-04-21T12:00:57.000Z</time>
      </trkpt>
      <trkpt lat="44.5088" lon="6.21897">
        <ele>1607</ele>
        <time>2023-04-21T12:00:58.000Z</time>
      </trkpt>
      <trkpt lat="44.5088" lon="6.21897">
        <ele>1607</ele>
        <time>2023-04-21T12:00:59.000Z</time>
      </trkpt>
      <trkpt lat="44.5088" lon="6.21896">
        <ele>1607</ele>
        <time>2023-04-21T12:01:00.000Z</time>
      </trkpt>
      <trkpt lat="44.5088" lon="6.21896">
        <ele>1607</ele>
        <time>2023-04-21T12:01:01.000Z</time>
      </trkpt>
      <trkpt lat="44.5088" lon="6.21896">
        <ele>1606</ele>
        <time>2023-04-21T12:01:02.000Z</time>
      </trkpt>
      <trkpt lat="44.5088" lon="6.21896">
        <ele>1606</ele>
        <time>2023-04-21T12:01:03.000Z</time>
      </trkpt>
      <trkpt lat="44.5088" lon="6.21896">
        <ele>1606</ele>
        <time>2023-04-21T12:01:04.000Z</time>
      </trkpt>
      <trkpt lat="44.5088" lon="6.21896">
        <ele>1606</ele>
        <time>2023-04-21T12:01:05.000Z</time>
      </trkpt>
      <trkpt lat="44.5088" lon="6.21896">
        <ele>1606</ele>
        <time>2023-04-21T12:01:06.000Z</time>
      </trkpt>
      <trkpt lat="44.5088" lon="6.21896">
        <ele>1606</ele>
        <time>2023-04-21T12:01:07.000Z</time>
      </trkpt>
      <trkpt lat="44.5088" lon="6.21896">
        <ele>1605</ele>
        <time>2023-04-21T12:01:08.000Z</time>
      </trkpt>
      <trkpt lat="44.5088" lon="6.21896">
        <ele>1605</ele>
        <time>2023-04-21T12:01:09.000Z</time>
      </trkpt>
      <trkpt lat="44.5088" lon="6.21896">
        <ele>1605</ele>
        <time>2023-04-21T12:01:10.000Z</time>
      </trkpt>
      <trkpt lat="44.5088" lon="6.21896">
        <ele>1605</ele>
        <time>2023-04-21T12:01:11.000Z</time>
      </trkpt>
      <trkpt lat="44.5088" lon="6.21896">
        <ele>1605</ele>
        <time>2023-04-21T12:01:12.000Z</time>
      </trkpt>
      <trkpt lat="44.5088" lon="6.21896">
        <ele>1605</ele>
        <time>2023-04-21T12:01:13.000Z</time>
      </trkpt>
      <trkpt lat="44.5088" lon="6.21896">
        <ele>1605</ele>
        <time>2023-04-21T12:01:14.000Z</time>
      </trkpt>
      <trkpt lat="44.5088" lon="6.21896">
        <ele>1605</ele>
        <time>2023-04-21T12:01:15.000Z</time>
      </trkpt>
      <trkpt lat="44.5088" lon="6.21896">
        <ele>1605</ele>
        <time>2023-04-21T12:01:16.000Z</time>
      </trkpt>
      <trkpt lat="44.5088" lon="6.21896">
        <ele>1605</ele>
        <time>2023-04-21T12:01:17.000Z</time>
      </trkpt>
      <trkpt lat="44.5088" lon="6.21896">
        <ele>1605</ele>
        <time>2023-04-21T12:01:18.000Z</time>
      </trkpt>
      <trkpt lat="44.5088" lon="6.21896">
        <ele>1605</ele>
        <time>2023-04-21T12:01:19.000Z</time>
      </trkpt>
      <trkpt lat="44.50879" lon="6.21896">
        <ele>1605</ele>
        <time>2023-04-21T12:01:20.000Z</time>
      </trkpt>
      <trkpt lat="44.50879" lon="6.21896">
        <ele>1605</ele>
        <time>2023-04-21T12:01:21.000Z</time>
      </trkpt>
      <trkpt lat="44.50879" lon="6.21896">
        <ele>1605</ele>
        <time>2023-04-21T12:01:22.000Z</time>
      </trkpt>
      <trkpt lat="44.50879" lon="6.21896">
        <ele>1605</ele>
        <time>2023-04-21T12:01:23.000Z</time>
      </trkpt>
      <trkpt lat="44.50879" lon="6.21896">
        <ele>1605</ele>
        <time>2023-04-21T12:01:24.000Z</time>
      </trkpt>
      <trkpt lat="44.50879" lon="6.21897">
        <ele>1605</ele>
        <time>2023-04-21T12:01:25.000Z</time>
      </trkpt>
      <trkpt lat="44.50879" lon="6.21897">
        <ele>1606</ele>
        <time>2023-04-21T12:01:26.000Z</time>
      </trkpt>
      <trkpt lat="44.50879" lon="6.21897">
        <ele>1606</ele>
        <time>2023-04-21T12:01:27.000Z</time>
      </trkpt>
      <trkpt lat="44.50879" lon="6.21897">
        <ele>1606</ele>
        <time>2023-04-21T12:01:28.000Z</time>
      </trkpt>
      <trkpt lat="44.50879" lon="6.21897">
        <ele>1606</ele>
        <time>2023-04-21T12:01:29.000Z</time>
      </trkpt>
      <trkpt lat="44.50879" lon="6.21897">
        <ele>1606</ele>
        <time>2023-04-21T12:01:30.000Z</time>
      </trkpt>
      <trkpt lat="44.50879" lon="6.21897">
        <ele>1606</ele>
        <time>2023-04-21T12:01:31.000Z</time>
      </trkpt>
      <trkpt lat="44.50879" lon="6.21897">
        <ele>1606</ele>
        <time>2023-04-21T12:01:32.000Z</time>
      </trkpt>
      <trkpt lat="44.50879" lon="6.21897">
        <ele>1606</ele>
        <time>2023-04-21T12:01:33.000Z</time>
      </trkpt>
      <trkpt lat="44.50879" lon="6.21897">
        <ele>1605</ele>
        <time>2023-04-21T12:01:34.000Z</time>
      </trkpt>
      <trkpt lat="44.50879" lon="6.21897">
        <ele>1605</ele>
        <time>2023-04-21T12:01:35.000Z</time>
      </trkpt>
      <trkpt lat="44.50879" lon="6.21896">
        <ele>1605</ele>
        <time>2023-04-21T12:01:36.000Z</time>
      </trkpt>
      <trkpt lat="44.50879" lon="6.21896">
        <ele>1605</ele>
        <time>2023-04-21T12:01:37.000Z</time>
      </trkpt>
      <trkpt lat="44.50879" lon="6.21894">
        <ele>1606</ele>
        <time>2023-04-21T12:01:38.000Z</time>
      </trkpt>
      <trkpt lat="44.5088" lon="6.21892">
        <ele>1606</ele>
        <time>2023-04-21T12:01:39.000Z</time>
      </trkpt>
      <trkpt lat="44.5088" lon="6.21889">
        <ele>1606</ele>
        <time>2023-04-21T12:01:40.000Z</time>
      </trkpt>
      <trkpt lat="44.5088" lon="6.21886">
        <ele>1607</ele>
        <time>2023-04-21T12:01:41.000Z</time>
      </trkpt>
      <trkpt lat="44.50879" lon="6.21883">
        <ele>1607</ele>
        <time>2023-04-21T12:01:42.000Z</time>
      </trkpt>
      <trkpt lat="44.50878" lon="6.21881">
        <ele>1607</ele>
        <time>2023-04-21T12:01:43.000Z</time>
      </trkpt>
      <trkpt lat="44.50877" lon="6.21878">
        <ele>1608</ele>
        <time>2023-04-21T12:01:44.000Z</time>
      </trkpt>
      <trkpt lat="44.50876" lon="6.21876">
        <ele>1608</ele>
        <time>2023-04-21T12:01:45.000Z</time>
      </trkpt>
      <trkpt lat="44.50875" lon="6.21873">
        <ele>1609</ele>
        <time>2023-04-21T12:01:46.000Z</time>
      </trkpt>
      <trkpt lat="44.50873" lon="6.2187">
        <ele>1610</ele>
        <time>2023-04-21T12:01:47.000Z</time>
      </trkpt>
      <trkpt lat="44.50872" lon="6.21867">
        <ele>1610</ele>
        <time>2023-04-21T12:01:48.000Z</time>
      </trkpt>
      <trkpt lat="44.5087" lon="6.21864">
        <ele>1610</ele>
        <time>2023-04-21T12:01:49.000Z</time>
      </trkpt>
      <trkpt lat="44.50869" lon="6.21861">
        <ele>1611</ele>
        <time>2023-04-21T12:01:50.000Z</time>
      </trkpt>
      <trkpt lat="44.50868" lon="6.21858">
        <ele>1612</ele>
        <time>2023-04-21T12:01:51.000Z</time>
      </trkpt>
      <trkpt lat="44.50867" lon="6.21854">
        <ele>1612</ele>
        <time>2023-04-21T12:01:52.000Z</time>
      </trkpt>
      <trkpt lat="44.50865" lon="6.21851">
        <ele>1612</ele>
        <time>2023-04-21T12:01:53.000Z</time>
      </trkpt>
      <trkpt lat="44.50864" lon="6.21848">
        <ele>1612</ele>
        <time>2023-04-21T12:01:54.000Z</time>
      </trkpt>
      <trkpt lat="44.50863" lon="6.21845">
        <ele>1613</ele>
        <time>2023-04-21T12:01:55.000Z</time>
      </trkpt>
      <trkpt lat="44.50861" lon="6.21842">
        <ele>1613</ele>
        <time>2023-04-21T12:01:56.000Z</time>
      </trkpt>
      <trkpt lat="44.5086" lon="6.21839">
        <ele>1613</ele>
        <time>2023-04-21T12:01:57.000Z</time>
      </trkpt>
      <trkpt lat="44.50858" lon="6.21836">
        <ele>1614</ele>
        <time>2023-04-21T12:01:58.000Z</time>
      </trkpt>
      <trkpt lat="44.50856" lon="6.21832">
        <ele>1613</ele>
        <time>2023-04-21T12:01:59.000Z</time>
      </trkpt>
      <trkpt lat="44.50855" lon="6.2183">
        <ele>1614</ele>
        <time>2023-04-21T12:02:00.000Z</time>
      </trkpt>
      <trkpt lat="44.50853" lon="6.21827">
        <ele>1614</ele>
        <time>2023-04-21T12:02:01.000Z</time>
      </trkpt>
      <trkpt lat="44.50851" lon="6.21826">
        <ele>1615</ele>
        <time>2023-04-21T12:02:02.000Z</time>
      </trkpt>
      <trkpt lat="44.50849" lon="6.21825">
        <ele>1616</ele>
        <time>2023-04-21T12:02:03.000Z</time>
      </trkpt>
      <trkpt lat="44.50847" lon="6.21823">
        <ele>1617</ele>
        <time>2023-04-21T12:02:04.000Z</time>
      </trkpt>
      <trkpt lat="44.50845" lon="6.21822">
        <ele>1617</ele>
        <time>2023-04-21T12:02:05.000Z</time>
      </trkpt>
      <trkpt lat="44.50842" lon="6.21821">
        <ele>1618</ele>
        <time>2023-04-21T12:02:06.000Z</time>
      </trkpt>
      <trkpt lat="44.5084" lon="6.21821">
        <ele>1619</ele>
        <time>2023-04-21T12:02:07.000Z</time>
      </trkpt>
      <trkpt lat="44.50838" lon="6.2182">
        <ele>1620</ele>
        <time>2023-04-21T12:02:08.000Z</time>
      </trkpt>
      <trkpt lat="44.50836" lon="6.2182">
        <ele>1621</ele>
        <time>2023-04-21T12:02:09.000Z</time>
      </trkpt>
      <trkpt lat="44.50835" lon="6.2182">
        <ele>1622</ele>
        <time>2023-04-21T12:02:10.000Z</time>
      </trkpt>
      <trkpt lat="44.50832" lon="6.2182">
        <ele>1621</ele>
        <time>2023-04-21T12:02:11.000Z</time>
      </trkpt>
      <trkpt lat="44.50829" lon="6.2182">
        <ele>1621</ele>
        <time>2023-04-21T12:02:12.000Z</time>
      </trkpt>
      <trkpt lat="44.50826" lon="6.2182">
        <ele>1621</ele>
        <time>2023-04-21T12:02:13.000Z</time>
      </trkpt>
      <trkpt lat="44.50823" lon="6.2182">
        <ele>1623</ele>
        <time>2023-04-21T12:02:14.000Z</time>
      </trkpt>
      <trkpt lat="44.50819" lon="6.2182">
        <ele>1623</ele>
        <time>2023-04-21T12:02:15.000Z</time>
      </trkpt>
      <trkpt lat="44.50815" lon="6.21818">
        <ele>1623</ele>
        <time>2023-04-21T12:02:16.000Z</time>
      </trkpt>
      <trkpt lat="44.5081" lon="6.21815">
        <ele>1622</ele>
        <time>2023-04-21T12:02:17.000Z</time>
      </trkpt>
      <trkpt lat="44.50805" lon="6.21812">
        <ele>1620</ele>
        <time>2023-04-21T12:02:18.000Z</time>
      </trkpt>
      <trkpt lat="44.50803" lon="6.21807">
        <ele>1620</ele>
        <time>2023-04-21T12:02:19.000Z</time>
      </trkpt>
      <trkpt lat="44.50803" lon="6.21801">
        <ele>1620</ele>
        <time>2023-04-21T12:02:20.000Z</time>
      </trkpt>
      <trkpt lat="44.50802" lon="6.21794">
        <ele>1619</ele>
        <time>2023-04-21T12:02:21.000Z</time>
      </trkpt>
      <trkpt lat="44.50801" lon="6.21788">
        <ele>1619</ele>
        <time>2023-04-21T12:02:22.000Z</time>
      </trkpt>
      <trkpt lat="44.50801" lon="6.21781">
        <ele>1618</ele>
        <time>2023-04-21T12:02:23.000Z</time>
      </trkpt>
      <trkpt lat="44.508" lon="6.21773">
        <ele>1616</ele>
        <time>2023-04-21T12:02:24.000Z</time>
      </trkpt>
      <trkpt lat="44.508" lon="6.21767">
        <ele>1616</ele>
        <time>2023-04-21T12:02:25.000Z</time>
      </trkpt>
      <trkpt lat="44.50798" lon="6.21762">
        <ele>1616</ele>
        <time>2023-04-21T12:02:26.000Z</time>
      </trkpt>
      <trkpt lat="44.50797" lon="6.21757">
        <ele>1616</ele>
        <time>2023-04-21T12:02:27.000Z</time>
      </trkpt>
      <trkpt lat="44.50794" lon="6.2176">
        <ele>1618</ele>
        <time>2023-04-21T12:02:28.000Z</time>
      </trkpt>
      <trkpt lat="44.50791" lon="6.21767">
        <ele>1622</ele>
        <time>2023-04-21T12:02:29.000Z</time>
      </trkpt>
      <trkpt lat="44.50789" lon="6.21768">
        <ele>1624</ele>
        <time>2023-04-21T12:02:30.000Z</time>
      </trkpt>
      <trkpt lat="44.50786" lon="6.21768">
        <ele>1626</ele>
        <time>2023-04-21T12:02:31.000Z</time>
      </trkpt>
      <trkpt lat="44.50783" lon="6.2177">
        <ele>1627</ele>
        <time>2023-04-21T12:02:32.000Z</time>
      </trkpt>
      <trkpt lat="44.50781" lon="6.21772">
        <ele>1630</ele>
        <time>2023-04-21T12:02:33.000Z</time>
      </trkpt>
      <trkpt lat="44.50779" lon="6.21773">
        <ele>1631</ele>
        <time>2023-04-21T12:02:34.000Z</time>
      </trkpt>
      <trkpt lat="44.50774" lon="6.21775">
        <ele>1629</ele>
        <time>2023-04-21T12:02:35.000Z</time>
      </trkpt>
      <trkpt lat="44.50771" lon="6.21775">
        <ele>1628</ele>
        <time>2023-04-21T12:02:36.000Z</time>
      </trkpt>
      <trkpt lat="44.50768" lon="6.21777">
        <ele>1628</ele>
        <time>2023-04-21T12:02:37.000Z</time>
      </trkpt>
      <trkpt lat="44.50765" lon="6.21778">
        <ele>1628</ele>
        <time>2023-04-21T12:02:38.000Z</time>
      </trkpt>
      <trkpt lat="44.50762" lon="6.21779">
        <ele>1628</ele>
        <time>2023-04-21T12:02:39.000Z</time>
      </trkpt>
      <trkpt lat="44.50759" lon="6.2178">
        <ele>1628</ele>
        <time>2023-04-21T12:02:40.000Z</time>
      </trkpt>
      <trkpt lat="44.50756" lon="6.21781">
        <ele>1629</ele>
        <time>2023-04-21T12:02:41.000Z</time>
      </trkpt>
      <trkpt lat="44.50753" lon="6.21782">
        <ele>1630</ele>
        <time>2023-04-21T12:02:42.000Z</time>
      </trkpt>
      <trkpt lat="44.50751" lon="6.21783">
        <ele>1630</ele>
        <time>2023-04-21T12:02:43.000Z</time>
      </trkpt>
      <trkpt lat="44.50748" lon="6.21784">
        <ele>1632</ele>
        <time>2023-04-21T12:02:44.000Z</time>
      </trkpt>
      <trkpt lat="44.50745" lon="6.21784">
        <ele>1633</ele>
        <time>2023-04-21T12:02:45.000Z</time>
      </trkpt>
      <trkpt lat="44.50743" lon="6.21785">
        <ele>1635</ele>
        <time>2023-04-21T12:02:46.000Z</time>
      </trkpt>
      <trkpt lat="44.50741" lon="6.21785">
        <ele>1637</ele>
        <time>2023-04-21T12:02:47.000Z</time>
      </trkpt>
      <trkpt lat="44.5074" lon="6.21786">
        <ele>1639</ele>
        <time>2023-04-21T12:02:48.000Z</time>
      </trkpt>
      <trkpt lat="44.50737" lon="6.21786">
        <ele>1639</ele>
        <time>2023-04-21T12:02:49.000Z</time>
      </trkpt>
      <trkpt lat="44.50734" lon="6.21786">
        <ele>1641</ele>
        <time>2023-04-21T12:02:50.000Z</time>
      </trkpt>
      <trkpt lat="44.50731" lon="6.21785">
        <ele>1641</ele>
        <time>2023-04-21T12:02:51.000Z</time>
      </trkpt>
      <trkpt lat="44.50729" lon="6.21785">
        <ele>1642</ele>
        <time>2023-04-21T12:02:52.000Z</time>
      </trkpt>
      <trkpt lat="44.50725" lon="6.21784">
        <ele>1642</ele>
        <time>2023-04-21T12:02:53.000Z</time>
      </trkpt>
      <trkpt lat="44.50721" lon="6.21784">
        <ele>1640</ele>
        <time>2023-04-21T12:02:54.000Z</time>
      </trkpt>
      <trkpt lat="44.50717" lon="6.21785">
        <ele>1639</ele>
        <time>2023-04-21T12:02:55.000Z</time>
      </trkpt>
      <trkpt lat="44.50713" lon="6.21786">
        <ele>1639</ele>
        <time>2023-04-21T12:02:56.000Z</time>
      </trkpt>
      <trkpt lat="44.50709" lon="6.21786">
        <ele>1638</ele>
        <time>2023-04-21T12:02:57.000Z</time>
      </trkpt>
      <trkpt lat="44.50706" lon="6.21786">
        <ele>1638</ele>
        <time>2023-04-21T12:02:58.000Z</time>
      </trkpt>
      <trkpt lat="44.50702" lon="6.21787">
        <ele>1637</ele>
        <time>2023-04-21T12:02:59.000Z</time>
      </trkpt>
      <trkpt lat="44.507" lon="6.21788">
        <ele>1638</ele>
        <time>2023-04-21T12:03:00.000Z</time>
      </trkpt>
      <trkpt lat="44.50697" lon="6.21789">
        <ele>1638</ele>
        <time>2023-04-21T12:03:01.000Z</time>
      </trkpt>
      <trkpt lat="44.50693" lon="6.21789">
        <ele>1637</ele>
        <time>2023-04-21T12:03:02.000Z</time>
      </trkpt>
      <trkpt lat="44.5069" lon="6.2179">
        <ele>1637</ele>
        <time>2023-04-21T12:03:03.000Z</time>
      </trkpt>
      <trkpt lat="44.50687" lon="6.21792">
        <ele>1636</ele>
        <time>2023-04-21T12:03:04.000Z</time>
      </trkpt>
      <trkpt lat="44.50684" lon="6.21793">
        <ele>1636</ele>
        <time>2023-04-21T12:03:05.000Z</time>
      </trkpt>
      <trkpt lat="44.5068" lon="6.21794">
        <ele>1635</ele>
        <time>2023-04-21T12:03:06.000Z</time>
      </trkpt>
      <trkpt lat="44.50677" lon="6.21795">
        <ele>1635</ele>
        <time>2023-04-21T12:03:07.000Z</time>
      </trkpt>
      <trkpt lat="44.50674" lon="6.21796">
        <ele>1635</ele>
        <time>2023-04-21T12:03:08.000Z</time>
      </trkpt>
      <trkpt lat="44.50672" lon="6.21797">
        <ele>1635</ele>
        <time>2023-04-21T12:03:09.000Z</time>
      </trkpt>
      <trkpt lat="44.50669" lon="6.21799">
        <ele>1635</ele>
        <time>2023-04-21T12:03:10.000Z</time>
      </trkpt>
      <trkpt lat="44.50666" lon="6.21799">
        <ele>1635</ele>
        <time>2023-04-21T12:03:11.000Z</time>
      </trkpt>
      <trkpt lat="44.50663" lon="6.218">
        <ele>1635</ele>
        <time>2023-04-21T12:03:12.000Z</time>
      </trkpt>
      <trkpt lat="44.50661" lon="6.21801">
        <ele>1635</ele>
        <time>2023-04-21T12:03:13.000Z</time>
      </trkpt>
      <trkpt lat="44.50659" lon="6.21802">
        <ele>1637</ele>
        <time>2023-04-21T12:03:14.000Z</time>
      </trkpt>
      <trkpt lat="44.50657" lon="6.21802">
        <ele>1637</ele>
        <time>2023-04-21T12:03:15.000Z</time>
      </trkpt>
      <trkpt lat="44.50654" lon="6.21803">
        <ele>1638</ele>
        <time>2023-04-21T12:03:16.000Z</time>
      </trkpt>
      <trkpt lat="44.50651" lon="6.21803">
        <ele>1639</ele>
        <time>2023-04-21T12:03:17.000Z</time>
      </trkpt>
      <trkpt lat="44.50648" lon="6.21803">
        <ele>1638</ele>
        <time>2023-04-21T12:03:18.000Z</time>
      </trkpt>
      <trkpt lat="44.50644" lon="6.21802">
        <ele>1636</ele>
        <time>2023-04-21T12:03:19.000Z</time>
      </trkpt>
      <trkpt lat="44.50641" lon="6.21801">
        <ele>1636</ele>
        <time>2023-04-21T12:03:20.000Z</time>
      </trkpt>
      <trkpt lat="44.50638" lon="6.218">
        <ele>1635</ele>
        <time>2023-04-21T12:03:21.000Z</time>
      </trkpt>
      <trkpt lat="44.50633" lon="6.21799">
        <ele>1634</ele>
        <time>2023-04-21T12:03:22.000Z</time>
      </trkpt>
      <trkpt lat="44.5063" lon="6.21798">
        <ele>1633</ele>
        <time>2023-04-21T12:03:23.000Z</time>
      </trkpt>
      <trkpt lat="44.50628" lon="6.21798">
        <ele>1633</ele>
        <time>2023-04-21T12:03:24.000Z</time>
      </trkpt>
      <trkpt lat="44.50625" lon="6.21797">
        <ele>1633</ele>
        <time>2023-04-21T12:03:25.000Z</time>
      </trkpt>
      <trkpt lat="44.50623" lon="6.21797">
        <ele>1632</ele>
        <time>2023-04-21T12:03:26.000Z</time>
      </trkpt>
      <trkpt lat="44.50621" lon="6.21796">
        <ele>1632</ele>
        <time>2023-04-21T12:03:27.000Z</time>
      </trkpt>
      <trkpt lat="44.50618" lon="6.21796">
        <ele>1632</ele>
        <time>2023-04-21T12:03:28.000Z</time>
      </trkpt>
      <trkpt lat="44.50615" lon="6.21795">
        <ele>1632</ele>
        <time>2023-04-21T12:03:29.000Z</time>
      </trkpt>
      <trkpt lat="44.50613" lon="6.21794">
        <ele>1632</ele>
        <time>2023-04-21T12:03:30.000Z</time>
      </trkpt>
      <trkpt lat="44.50611" lon="6.21793">
        <ele>1632</ele>
        <time>2023-04-21T12:03:31.000Z</time>
      </trkpt>
      <trkpt lat="44.50608" lon="6.21793">
        <ele>1632</ele>
        <time>2023-04-21T12:03:32.000Z</time>
      </trkpt>
      <trkpt lat="44.50605" lon="6.21791">
        <ele>1632</ele>
        <time>2023-04-21T12:03:33.000Z</time>
      </trkpt>
      <trkpt lat="44.50602" lon="6.2179">
        <ele>1632</ele>
        <time>2023-04-21T12:03:34.000Z</time>
      </trkpt>
      <trkpt lat="44.50597" lon="6.21787">
        <ele>1630</ele>
        <time>2023-04-21T12:03:35.000Z</time>
      </trkpt>
      <trkpt lat="44.50594" lon="6.21785">
        <ele>1630</ele>
        <time>2023-04-21T12:03:36.000Z</time>
      </trkpt>
      <trkpt lat="44.50591" lon="6.21783">
        <ele>1630</ele>
        <time>2023-04-21T12:03:37.000Z</time>
      </trkpt>
      <trkpt lat="44.50589" lon="6.21781">
        <ele>1630</ele>
        <time>2023-04-21T12:03:38.000Z</time>
      </trkpt>
      <trkpt lat="44.50586" lon="6.21778">
        <ele>1631</ele>
        <time>2023-04-21T12:03:39.000Z</time>
      </trkpt>
      <trkpt lat="44.50584" lon="6.21776">
        <ele>1631</ele>
        <time>2023-04-21T12:03:40.000Z</time>
      </trkpt>
      <trkpt lat="44.50582" lon="6.21774">
        <ele>1631</ele>
        <time>2023-04-21T12:03:41.000Z</time>
      </trkpt>
      <trkpt lat="44.50578" lon="6.21772">
        <ele>1630</ele>
        <time>2023-04-21T12:03:42.000Z</time>
      </trkpt>
      <trkpt lat="44.50573" lon="6.21769">
        <ele>1628</ele>
        <time>2023-04-21T12:03:43.000Z</time>
      </trkpt>
      <trkpt lat="44.5057" lon="6.21766">
        <ele>1628</ele>
        <time>2023-04-21T12:03:44.000Z</time>
      </trkpt>
      <trkpt lat="44.50566" lon="6.21763">
        <ele>1626</ele>
        <time>2023-04-21T12:03:45.000Z</time>
      </trkpt>
      <trkpt lat="44.50561" lon="6.21759">
        <ele>1625</ele>
        <time>2023-04-21T12:03:46.000Z</time>
      </trkpt>
      <trkpt lat="44.50556" lon="6.21754">
        <ele>1625</ele>
        <time>2023-04-21T12:03:47.000Z</time>
      </trkpt>
      <trkpt lat="44.5055" lon="6.21751">
        <ele>1623</ele>
        <time>2023-04-21T12:03:48.000Z</time>
      </trkpt>
      <trkpt lat="44.50545" lon="6.21747">
        <ele>1622</ele>
        <time>2023-04-21T12:03:49.000Z</time>
      </trkpt>
      <trkpt lat="44.5054" lon="6.21743">
        <ele>1621</ele>
        <time>2023-04-21T12:03:50.000Z</time>
      </trkpt>
      <trkpt lat="44.50536" lon="6.21741">
        <ele>1621</ele>
        <time>2023-04-21T12:03:51.000Z</time>
      </trkpt>
      <trkpt lat="44.50531" lon="6.21739">
        <ele>1620</ele>
        <time>2023-04-21T12:03:52.000Z</time>
      </trkpt>
      <trkpt lat="44.50528" lon="6.21736">
        <ele>1619</ele>
        <time>2023-04-21T12:03:53.000Z</time>
      </trkpt>
      <trkpt lat="44.50524" lon="6.21734">
        <ele>1619</ele>
        <time>2023-04-21T12:03:54.000Z</time>
      </trkpt>
      <trkpt lat="44.50521" lon="6.21732">
        <ele>1619</ele>
        <time>2023-04-21T12:03:55.000Z</time>
      </trkpt>
      <trkpt lat="44.50518" lon="6.21729">
        <ele>1618</ele>
        <time>2023-04-21T12:03:56.000Z</time>
      </trkpt>
      <trkpt lat="44.50514" lon="6.21727">
        <ele>1618</ele>
        <time>2023-04-21T12:03:57.000Z</time>
      </trkpt>
      <trkpt lat="44.50511" lon="6.21725">
        <ele>1618</ele>
        <time>2023-04-21T12:03:58.000Z</time>
      </trkpt>
      <trkpt lat="44.50508" lon="6.21722">
        <ele>1618</ele>
        <time>2023-04-21T12:03:59.000Z</time>
      </trkpt>
      <trkpt lat="44.50505" lon="6.2172">
        <ele>1618</ele>
        <time>2023-04-21T12:04:00.000Z</time>
      </trkpt>
      <trkpt lat="44.50502" lon="6.21718">
        <ele>1617</ele>
        <time>2023-04-21T12:04:01.000Z</time>
      </trkpt>
      <trkpt lat="44.50499" lon="6.21715">
        <ele>1617</ele>
        <time>2023-04-21T12:04:02.000Z</time>
      </trkpt>
      <trkpt lat="44.50495" lon="6.21713">
        <ele>1616</ele>
        <time>2023-04-21T12:04:03.000Z</time>
      </trkpt>
      <trkpt lat="44.50492" lon="6.21712">
        <ele>1616</ele>
        <time>2023-04-21T12:04:04.000Z</time>
      </trkpt>
      <trkpt lat="44.50489" lon="6.21711">
        <ele>1616</ele>
        <time>2023-04-21T12:04:05.000Z</time>
      </trkpt>
      <trkpt lat="44.50486" lon="6.2171">
        <ele>1616</ele>
        <time>2023-04-21T12:04:06.000Z</time>
      </trkpt>
      <trkpt lat="44.50483" lon="6.2171">
        <ele>1616</ele>
        <time>2023-04-21T12:04:07.000Z</time>
      </trkpt>
      <trkpt lat="44.50479" lon="6.2171">
        <ele>1617</ele>
        <time>2023-04-21T12:04:08.000Z</time>
      </trkpt>
      <trkpt lat="44.50476" lon="6.2171">
        <ele>1617</ele>
        <time>2023-04-21T12:04:09.000Z</time>
      </trkpt>
      <trkpt lat="44.50473" lon="6.2171">
        <ele>1617</ele>
        <time>2023-04-21T12:04:10.000Z</time>
      </trkpt>
      <trkpt lat="44.5047" lon="6.21711">
        <ele>1618</ele>
        <time>2023-04-21T12:04:11.000Z</time>
      </trkpt>
      <trkpt lat="44.50467" lon="6.21711">
        <ele>1618</ele>
        <time>2023-04-21T12:04:12.000Z</time>
      </trkpt>
      <trkpt lat="44.50465" lon="6.21711">
        <ele>1619</ele>
        <time>2023-04-21T12:04:13.000Z</time>
      </trkpt>
      <trkpt lat="44.50462" lon="6.21711">
        <ele>1619</ele>
        <time>2023-04-21T12:04:14.000Z</time>
      </trkpt>
      <trkpt lat="44.50459" lon="6.21711">
        <ele>1619</ele>
        <time>2023-04-21T12:04:15.000Z</time>
      </trkpt>
      <trkpt lat="44.50456" lon="6.21711">
        <ele>1619</ele>
        <time>2023-04-21T12:04:16.000Z</time>
      </trkpt>
      <trkpt lat="44.50454" lon="6.2171">
        <ele>1619</ele>
        <time>2023-04-21T12:04:17.000Z</time>
      </trkpt>
      <trkpt lat="44.50452" lon="6.2171">
        <ele>1620</ele>
        <time>2023-04-21T12:04:18.000Z</time>
      </trkpt>
      <trkpt lat="44.50449" lon="6.21709">
        <ele>1620</ele>
        <time>2023-04-21T12:04:19.000Z</time>
      </trkpt>
      <trkpt lat="44.50446" lon="6.21708">
        <ele>1620</ele>
        <time>2023-04-21T12:04:20.000Z</time>
      </trkpt>
      <trkpt lat="44.50444" lon="6.21707">
        <ele>1621</ele>
        <time>2023-04-21T12:04:21.000Z</time>
      </trkpt>
      <trkpt lat="44.50441" lon="6.21706">
        <ele>1621</ele>
        <time>2023-04-21T12:04:22.000Z</time>
      </trkpt>
      <trkpt lat="44.50439" lon="6.21705">
        <ele>1621</ele>
        <time>2023-04-21T12:04:23.000Z</time>
      </trkpt>
      <trkpt lat="44.50437" lon="6.21704">
        <ele>1622</ele>
        <time>2023-04-21T12:04:24.000Z</time>
      </trkpt>
      <trkpt lat="44.50434" lon="6.21703">
        <ele>1622</ele>
        <time>2023-04-21T12:04:25.000Z</time>
      </trkpt>
      <trkpt lat="44.50432" lon="6.21701">
        <ele>1622</ele>
        <time>2023-04-21T12:04:26.000Z</time>
      </trkpt>
      <trkpt lat="44.5043" lon="6.217">
        <ele>1623</ele>
        <time>2023-04-21T12:04:27.000Z</time>
      </trkpt>
      <trkpt lat="44.50428" lon="6.21699">
        <ele>1623</ele>
        <time>2023-04-21T12:04:28.000Z</time>
      </trkpt>
      <trkpt lat="44.50426" lon="6.21699">
        <ele>1624</ele>
        <time>2023-04-21T12:04:29.000Z</time>
      </trkpt>
      <trkpt lat="44.50423" lon="6.21697">
        <ele>1625</ele>
        <time>2023-04-21T12:04:30.000Z</time>
      </trkpt>
      <trkpt lat="44.50422" lon="6.21696">
        <ele>1626</ele>
        <time>2023-04-21T12:04:31.000Z</time>
      </trkpt>
      <trkpt lat="44.5042" lon="6.21696">
        <ele>1627</ele>
        <time>2023-04-21T12:04:32.000Z</time>
      </trkpt>
      <trkpt lat="44.50417" lon="6.21694">
        <ele>1627</ele>
        <time>2023-04-21T12:04:33.000Z</time>
      </trkpt>
      <trkpt lat="44.50415" lon="6.21693">
        <ele>1627</ele>
        <time>2023-04-21T12:04:34.000Z</time>
      </trkpt>
      <trkpt lat="44.50412" lon="6.21692">
        <ele>1627</ele>
        <time>2023-04-21T12:04:35.000Z</time>
      </trkpt>
      <trkpt lat="44.5041" lon="6.2169">
        <ele>1628</ele>
        <time>2023-04-21T12:04:36.000Z</time>
      </trkpt>
      <trkpt lat="44.50408" lon="6.21689">
        <ele>1629</ele>
        <time>2023-04-21T12:04:37.000Z</time>
      </trkpt>
      <trkpt lat="44.50405" lon="6.21688">
        <ele>1628</ele>
        <time>2023-04-21T12:04:38.000Z</time>
      </trkpt>
      <trkpt lat="44.50402" lon="6.21687">
        <ele>1629</ele>
        <time>2023-04-21T12:04:39.000Z</time>
      </trkpt>
      <trkpt lat="44.50399" lon="6.21686">
        <ele>1629</ele>
        <time>2023-04-21T12:04:40.000Z</time>
      </trkpt>
      <trkpt lat="44.50397" lon="6.21685">
        <ele>1629</ele>
        <time>2023-04-21T12:04:41.000Z</time>
      </trkpt>
      <trkpt lat="44.50394" lon="6.21683">
        <ele>1629</ele>
        <time>2023-04-21T12:04:42.000Z</time>
      </trkpt>
      <trkpt lat="44.50392" lon="6.21681">
        <ele>1629</ele>
        <time>2023-04-21T12:04:43.000Z</time>
      </trkpt>
      <trkpt lat="44.5039" lon="6.2168">
        <ele>1629</ele>
        <time>2023-04-21T12:04:44.000Z</time>
      </trkpt>
      <trkpt lat="44.50388" lon="6.21678">
        <ele>1630</ele>
        <time>2023-04-21T12:04:45.000Z</time>
      </trkpt>
      <trkpt lat="44.50386" lon="6.21677">
        <ele>1630</ele>
        <time>2023-04-21T12:04:46.000Z</time>
      </trkpt>
      <trkpt lat="44.50384" lon="6.21676">
        <ele>1630</ele>
        <time>2023-04-21T12:04:47.000Z</time>
      </trkpt>
      <trkpt lat="44.50382" lon="6.21675">
        <ele>1631</ele>
        <time>2023-04-21T12:04:48.000Z</time>
      </trkpt>
      <trkpt lat="44.5038" lon="6.21673">
        <ele>1631</ele>
        <time>2023-04-21T12:04:49.000Z</time>
      </trkpt>
      <trkpt lat="44.50379" lon="6.21672">
        <ele>1633</ele>
        <time>2023-04-21T12:04:50.000Z</time>
      </trkpt>
      <trkpt lat="44.50377" lon="6.21671">
        <ele>1633</ele>
        <time>2023-04-21T12:04:51.000Z</time>
      </trkpt>
      <trkpt lat="44.50375" lon="6.2167">
        <ele>1634</ele>
        <time>2023-04-21T12:04:52.000Z</time>
      </trkpt>
      <trkpt lat="44.50372" lon="6.21669">
        <ele>1634</ele>
        <time>2023-04-21T12:04:53.000Z</time>
      </trkpt>
      <trkpt lat="44.5037" lon="6.21667">
        <ele>1634</ele>
        <time>2023-04-21T12:04:54.000Z</time>
      </trkpt>
      <trkpt lat="44.50368" lon="6.21666">
        <ele>1634</ele>
        <time>2023-04-21T12:04:55.000Z</time>
      </trkpt>
      <trkpt lat="44.50366" lon="6.21664">
        <ele>1635</ele>
        <time>2023-04-21T12:04:56.000Z</time>
      </trkpt>
      <trkpt lat="44.50364" lon="6.21663">
        <ele>1635</ele>
        <time>2023-04-21T12:04:57.000Z</time>
      </trkpt>
      <trkpt lat="44.50362" lon="6.21661">
        <ele>1636</ele>
        <time>2023-04-21T12:04:58.000Z</time>
      </trkpt>
      <trkpt lat="44.5036" lon="6.2166">
        <ele>1636</ele>
        <time>2023-04-21T12:04:59.000Z</time>
      </trkpt>
      <trkpt lat="44.50357" lon="6.21659">
        <ele>1636</ele>
        <time>2023-04-21T12:05:00.000Z</time>
      </trkpt>
      <trkpt lat="44.50355" lon="6.21658">
        <ele>1636</ele>
        <time>2023-04-21T12:05:01.000Z</time>
      </trkpt>
      <trkpt lat="44.50353" lon="6.21657">
        <ele>1637</ele>
        <time>2023-04-21T12:05:02.000Z</time>
      </trkpt>
      <trkpt lat="44.50351" lon="6.21655">
        <ele>1638</ele>
        <time>2023-04-21T12:05:03.000Z</time>
      </trkpt>
      <trkpt lat="44.50348" lon="6.21654">
        <ele>1637</ele>
        <time>2023-04-21T12:05:04.000Z</time>
      </trkpt>
      <trkpt lat="44.50345" lon="6.21652">
        <ele>1637</ele>
        <time>2023-04-21T12:05:05.000Z</time>
      </trkpt>
      <trkpt lat="44.50343" lon="6.2165">
        <ele>1636</ele>
        <time>2023-04-21T12:05:06.000Z</time>
      </trkpt>
      <trkpt lat="44.5034" lon="6.21648">
        <ele>1636</ele>
        <time>2023-04-21T12:05:07.000Z</time>
      </trkpt>
      <trkpt lat="44.50337" lon="6.21647">
        <ele>1636</ele>
        <time>2023-04-21T12:05:08.000Z</time>
      </trkpt>
      <trkpt lat="44.50335" lon="6.21645">
        <ele>1636</ele>
        <time>2023-04-21T12:05:09.000Z</time>
      </trkpt>
      <trkpt lat="44.50332" lon="6.21644">
        <ele>1635</ele>
        <time>2023-04-21T12:05:10.000Z</time>
      </trkpt>
      <trkpt lat="44.5033" lon="6.21642">
        <ele>1635</ele>
        <time>2023-04-21T12:05:11.000Z</time>
      </trkpt>
      <trkpt lat="44.50327" lon="6.2164">
        <ele>1635</ele>
        <time>2023-04-21T12:05:12.000Z</time>
      </trkpt>
      <trkpt lat="44.50325" lon="6.21639">
        <ele>1635</ele>
        <time>2023-04-21T12:05:13.000Z</time>
      </trkpt>
      <trkpt lat="44.50322" lon="6.21636">
        <ele>1635</ele>
        <time>2023-04-21T12:05:14.000Z</time>
      </trkpt>
      <trkpt lat="44.5032" lon="6.21634">
        <ele>1635</ele>
        <time>2023-04-21T12:05:15.000Z</time>
      </trkpt>
      <trkpt lat="44.50318" lon="6.21632">
        <ele>1635</ele>
        <time>2023-04-21T12:05:16.000Z</time>
      </trkpt>
      <trkpt lat="44.50315" lon="6.2163">
        <ele>1635</ele>
        <time>2023-04-21T12:05:17.000Z</time>
      </trkpt>
      <trkpt lat="44.50313" lon="6.21628">
        <ele>1635</ele>
        <time>2023-04-21T12:05:18.000Z</time>
      </trkpt>
      <trkpt lat="44.50311" lon="6.21626">
        <ele>1635</ele>
        <time>2023-04-21T12:05:19.000Z</time>
      </trkpt>
      <trkpt lat="44.50309" lon="6.21624">
        <ele>1635</ele>
        <time>2023-04-21T12:05:20.000Z</time>
      </trkpt>
      <trkpt lat="44.50307" lon="6.21622">
        <ele>1635</ele>
        <time>2023-04-21T12:05:21.000Z</time>
      </trkpt>
      <trkpt lat="44.50304" lon="6.21619">
        <ele>1635</ele>
        <time>2023-04-21T12:05:22.000Z</time>
      </trkpt>
      <trkpt lat="44.50302" lon="6.21617">
        <ele>1635</ele>
        <time>2023-04-21T12:05:23.000Z</time>
      </trkpt>
      <trkpt lat="44.503" lon="6.21615">
        <ele>1635</ele>
        <time>2023-04-21T12:05:24.000Z</time>
      </trkpt>
      <trkpt lat="44.50298" lon="6.21613">
        <ele>1636</ele>
        <time>2023-04-21T12:05:25.000Z</time>
      </trkpt>
      <trkpt lat="44.50296" lon="6.21611">
        <ele>1636</ele>
        <time>2023-04-21T12:05:26.000Z</time>
      </trkpt>
      <trkpt lat="44.50293" lon="6.21609">
        <ele>1636</ele>
        <time>2023-04-21T12:05:27.000Z</time>
      </trkpt>
      <trkpt lat="44.50291" lon="6.21607">
        <ele>1636</ele>
        <time>2023-04-21T12:05:28.000Z</time>
      </trkpt>
      <trkpt lat="44.50289" lon="6.21605">
        <ele>1636</ele>
        <time>2023-04-21T12:05:29.000Z</time>
      </trkpt>
      <trkpt lat="44.50287" lon="6.21603">
        <ele>1636</ele>
        <time>2023-04-21T12:05:30.000Z</time>
      </trkpt>
      <trkpt lat="44.50285" lon="6.21602">
        <ele>1636</ele>
        <time>2023-04-21T12:05:31.000Z</time>
      </trkpt>
      <trkpt lat="44.50283" lon="6.216">
        <ele>1636</ele>
        <time>2023-04-21T12:05:32.000Z</time>
      </trkpt>
      <trkpt lat="44.5028" lon="6.21598">
        <ele>1637</ele>
        <time>2023-04-21T12:05:33.000Z</time>
      </trkpt>
      <trkpt lat="44.50279" lon="6.21596">
        <ele>1637</ele>
        <time>2023-04-21T12:05:34.000Z</time>
      </trkpt>
      <trkpt lat="44.50277" lon="6.21594">
        <ele>1637</ele>
        <time>2023-04-21T12:05:35.000Z</time>
      </trkpt>
      <trkpt lat="44.50274" lon="6.21592">
        <ele>1637</ele>
        <time>2023-04-21T12:05:36.000Z</time>
      </trkpt>
      <trkpt lat="44.50272" lon="6.21591">
        <ele>1637</ele>
        <time>2023-04-21T12:05:37.000Z</time>
      </trkpt>
      <trkpt lat="44.50269" lon="6.2159">
        <ele>1637</ele>
        <time>2023-04-21T12:05:38.000Z</time>
      </trkpt>
      <trkpt lat="44.50267" lon="6.21588">
        <ele>1637</ele>
        <time>2023-04-21T12:05:39.000Z</time>
      </trkpt>
      <trkpt lat="44.50264" lon="6.21587">
        <ele>1637</ele>
        <time>2023-04-21T12:05:40.000Z</time>
      </trkpt>
      <trkpt lat="44.50262" lon="6.21586">
        <ele>1638</ele>
        <time>2023-04-21T12:05:41.000Z</time>
      </trkpt>
      <trkpt lat="44.5026" lon="6.21585">
        <ele>1638</ele>
        <time>2023-04-21T12:05:42.000Z</time>
      </trkpt>
      <trkpt lat="44.50258" lon="6.21585">
        <ele>1638</ele>
        <time>2023-04-21T12:05:43.000Z</time>
      </trkpt>
      <trkpt lat="44.50255" lon="6.21585">
        <ele>1638</ele>
        <time>2023-04-21T12:05:44.000Z</time>
      </trkpt>
      <trkpt lat="44.50254" lon="6.21585">
        <ele>1639</ele>
        <time>2023-04-21T12:05:45.000Z</time>
      </trkpt>
      <trkpt lat="44.50251" lon="6.21585">
        <ele>1639</ele>
        <time>2023-04-21T12:05:46.000Z</time>
      </trkpt>
      <trkpt lat="44.50249" lon="6.21585">
        <ele>1639</ele>
        <time>2023-04-21T12:05:47.000Z</time>
      </trkpt>
      <trkpt lat="44.50247" lon="6.21585">
        <ele>1638</ele>
        <time>2023-04-21T12:05:48.000Z</time>
      </trkpt>
      <trkpt lat="44.50244" lon="6.21586">
        <ele>1638</ele>
        <time>2023-04-21T12:05:49.000Z</time>
      </trkpt>
      <trkpt lat="44.50242" lon="6.21586">
        <ele>1639</ele>
        <time>2023-04-21T12:05:50.000Z</time>
      </trkpt>
      <trkpt lat="44.5024" lon="6.21586">
        <ele>1639</ele>
        <time>2023-04-21T12:05:51.000Z</time>
      </trkpt>
      <trkpt lat="44.50238" lon="6.21587">
        <ele>1639</ele>
        <time>2023-04-21T12:05:52.000Z</time>
      </trkpt>
      <trkpt lat="44.50235" lon="6.21588">
        <ele>1639</ele>
        <time>2023-04-21T12:05:53.000Z</time>
      </trkpt>
      <trkpt lat="44.50233" lon="6.21588">
        <ele>1639</ele>
        <time>2023-04-21T12:05:54.000Z</time>
      </trkpt>
      <trkpt lat="44.50231" lon="6.21589">
        <ele>1639</ele>
        <time>2023-04-21T12:05:55.000Z</time>
      </trkpt>
      <trkpt lat="44.50229" lon="6.2159">
        <ele>1639</ele>
        <time>2023-04-21T12:05:56.000Z</time>
      </trkpt>
      <trkpt lat="44.50226" lon="6.21591">
        <ele>1640</ele>
        <time>2023-04-21T12:05:57.000Z</time>
      </trkpt>
      <trkpt lat="44.50224" lon="6.21591">
        <ele>1640</ele>
        <time>2023-04-21T12:05:58.000Z</time>
      </trkpt>
      <trkpt lat="44.50222" lon="6.21591">
        <ele>1640</ele>
        <time>2023-04-21T12:05:59.000Z</time>
      </trkpt>
      <trkpt lat="44.50219" lon="6.21591">
        <ele>1640</ele>
        <time>2023-04-21T12:06:00.000Z</time>
      </trkpt>
      <trkpt lat="44.50217" lon="6.21591">
        <ele>1640</ele>
        <time>2023-04-21T12:06:01.000Z</time>
      </trkpt>
      <trkpt lat="44.50215" lon="6.21591">
        <ele>1640</ele>
        <time>2023-04-21T12:06:02.000Z</time>
      </trkpt>
      <trkpt lat="44.50212" lon="6.2159">
        <ele>1641</ele>
        <time>2023-04-21T12:06:03.000Z</time>
      </trkpt>
      <trkpt lat="44.5021" lon="6.21589">
        <ele>1641</ele>
        <time>2023-04-21T12:06:04.000Z</time>
      </trkpt>
      <trkpt lat="44.50208" lon="6.21588">
        <ele>1642</ele>
        <time>2023-04-21T12:06:05.000Z</time>
      </trkpt>
      <trkpt lat="44.50205" lon="6.21587">
        <ele>1642</ele>
        <time>2023-04-21T12:06:06.000Z</time>
      </trkpt>
      <trkpt lat="44.50204" lon="6.21584">
        <ele>1643</ele>
        <time>2023-04-21T12:06:07.000Z</time>
      </trkpt>
      <trkpt lat="44.50202" lon="6.21582">
        <ele>1643</ele>
        <time>2023-04-21T12:06:08.000Z</time>
      </trkpt>
      <trkpt lat="44.502" lon="6.21581">
        <ele>1643</ele>
        <time>2023-04-21T12:06:09.000Z</time>
      </trkpt>
      <trkpt lat="44.50199" lon="6.21579">
        <ele>1644</ele>
        <time>2023-04-21T12:06:10.000Z</time>
      </trkpt>
      <trkpt lat="44.50197" lon="6.21577">
        <ele>1644</ele>
        <time>2023-04-21T12:06:11.000Z</time>
      </trkpt>
      <trkpt lat="44.50195" lon="6.21576">
        <ele>1644</ele>
        <time>2023-04-21T12:06:12.000Z</time>
      </trkpt>
      <trkpt lat="44.50193" lon="6.21574">
        <ele>1645</ele>
        <time>2023-04-21T12:06:13.000Z</time>
      </trkpt>
      <trkpt lat="44.50191" lon="6.21573">
        <ele>1646</ele>
        <time>2023-04-21T12:06:14.000Z</time>
      </trkpt>
      <trkpt lat="44.50189" lon="6.21571">
        <ele>1646</ele>
        <time>2023-04-21T12:06:15.000Z</time>
      </trkpt>
      <trkpt lat="44.50186" lon="6.2157">
        <ele>1645</ele>
        <time>2023-04-21T12:06:16.000Z</time>
      </trkpt>
      <trkpt lat="44.50184" lon="6.21568">
        <ele>1645</ele>
        <time>2023-04-21T12:06:17.000Z</time>
      </trkpt>
      <trkpt lat="44.50182" lon="6.21566">
        <ele>1646</ele>
        <time>2023-04-21T12:06:18.000Z</time>
      </trkpt>
      <trkpt lat="44.5018" lon="6.21564">
        <ele>1646</ele>
        <time>2023-04-21T12:06:19.000Z</time>
      </trkpt>
      <trkpt lat="44.50178" lon="6.21562">
        <ele>1646</ele>
        <time>2023-04-21T12:06:20.000Z</time>
      </trkpt>
      <trkpt lat="44.50176" lon="6.2156">
        <ele>1646</ele>
        <time>2023-04-21T12:06:21.000Z</time>
      </trkpt>
      <trkpt lat="44.50174" lon="6.21558">
        <ele>1647</ele>
        <time>2023-04-21T12:06:22.000Z</time>
      </trkpt>
      <trkpt lat="44.50172" lon="6.21556">
        <ele>1647</ele>
        <time>2023-04-21T12:06:23.000Z</time>
      </trkpt>
      <trkpt lat="44.5017" lon="6.21555">
        <ele>1647</ele>
        <time>2023-04-21T12:06:24.000Z</time>
      </trkpt>
      <trkpt lat="44.50168" lon="6.21553">
        <ele>1647</ele>
        <time>2023-04-21T12:06:25.000Z</time>
      </trkpt>
      <trkpt lat="44.50166" lon="6.21551">
        <ele>1647</ele>
        <time>2023-04-21T12:06:26.000Z</time>
      </trkpt>
      <trkpt lat="44.50164" lon="6.2155">
        <ele>1647</ele>
        <time>2023-04-21T12:06:27.000Z</time>
      </trkpt>
      <trkpt lat="44.50162" lon="6.21548">
        <ele>1647</ele>
        <time>2023-04-21T12:06:28.000Z</time>
      </trkpt>
      <trkpt lat="44.50159" lon="6.21546">
        <ele>1648</ele>
        <time>2023-04-21T12:06:29.000Z</time>
      </trkpt>
      <trkpt lat="44.50157" lon="6.21545">
        <ele>1648</ele>
        <time>2023-04-21T12:06:30.000Z</time>
      </trkpt>
      <trkpt lat="44.50155" lon="6.21543">
        <ele>1648</ele>
        <time>2023-04-21T12:06:31.000Z</time>
      </trkpt>
      <trkpt lat="44.50153" lon="6.21541">
        <ele>1648</ele>
        <time>2023-04-21T12:06:32.000Z</time>
      </trkpt>
      <trkpt lat="44.50151" lon="6.2154">
        <ele>1648</ele>
        <time>2023-04-21T12:06:33.000Z</time>
      </trkpt>
      <trkpt lat="44.50149" lon="6.21538">
        <ele>1648</ele>
        <time>2023-04-21T12:06:34.000Z</time>
      </trkpt>
      <trkpt lat="44.50147" lon="6.21537">
        <ele>1648</ele>
        <time>2023-04-21T12:06:35.000Z</time>
      </trkpt>
      <trkpt lat="44.50145" lon="6.21535">
        <ele>1648</ele>
        <time>2023-04-21T12:06:36.000Z</time>
      </trkpt>
      <trkpt lat="44.50143" lon="6.21533">
        <ele>1648</ele>
        <time>2023-04-21T12:06:37.000Z</time>
      </trkpt>
      <trkpt lat="44.50141" lon="6.21531">
        <ele>1648</ele>
        <time>2023-04-21T12:06:38.000Z</time>
      </trkpt>
      <trkpt lat="44.50138" lon="6.2153">
        <ele>1648</ele>
        <time>2023-04-21T12:06:39.000Z</time>
      </trkpt>
      <trkpt lat="44.50136" lon="6.21529">
        <ele>1648</ele>
        <time>2023-04-21T12:06:40.000Z</time>
      </trkpt>
      <trkpt lat="44.50134" lon="6.21527">
        <ele>1648</ele>
        <time>2023-04-21T12:06:41.000Z</time>
      </trkpt>
      <trkpt lat="44.50131" lon="6.21526">
        <ele>1648</ele>
        <time>2023-04-21T12:06:42.000Z</time>
      </trkpt>
      <trkpt lat="44.50129" lon="6.21525">
        <ele>1648</ele>
        <time>2023-04-21T12:06:43.000Z</time>
      </trkpt>
      <trkpt lat="44.50126" lon="6.21524">
        <ele>1649</ele>
        <time>2023-04-21T12:06:44.000Z</time>
      </trkpt>
      <trkpt lat="44.50123" lon="6.21524">
        <ele>1649</ele>
        <time>2023-04-21T12:06:45.000Z</time>
      </trkpt>
      <trkpt lat="44.50121" lon="6.21525">
        <ele>1649</ele>
        <time>2023-04-21T12:06:46.000Z</time>
      </trkpt>
      <trkpt lat="44.50118" lon="6.21526">
        <ele>1649</ele>
        <time>2023-04-21T12:06:47.000Z</time>
      </trkpt>
      <trkpt lat="44.50116" lon="6.21528">
        <ele>1649</ele>
        <time>2023-04-21T12:06:48.000Z</time>
      </trkpt>
      <trkpt lat="44.50113" lon="6.21529">
        <ele>1650</ele>
        <time>2023-04-21T12:06:49.000Z</time>
      </trkpt>
      <trkpt lat="44.50111" lon="6.21531">
        <ele>1650</ele>
        <time>2023-04-21T12:06:50.000Z</time>
      </trkpt>
      <trkpt lat="44.50109" lon="6.21532">
        <ele>1650</ele>
        <time>2023-04-21T12:06:51.000Z</time>
      </trkpt>
      <trkpt lat="44.50107" lon="6.21535">
        <ele>1650</ele>
        <time>2023-04-21T12:06:52.000Z</time>
      </trkpt>
      <trkpt lat="44.50106" lon="6.21538">
        <ele>1651</ele>
        <time>2023-04-21T12:06:53.000Z</time>
      </trkpt>
      <trkpt lat="44.50104" lon="6.21541">
        <ele>1651</ele>
        <time>2023-04-21T12:06:54.000Z</time>
      </trkpt>
      <trkpt lat="44.50103" lon="6.21544">
        <ele>1651</ele>
        <time>2023-04-21T12:06:55.000Z</time>
      </trkpt>
      <trkpt lat="44.50101" lon="6.21547">
        <ele>1651</ele>
        <time>2023-04-21T12:06:56.000Z</time>
      </trkpt>
      <trkpt lat="44.50099" lon="6.2155">
        <ele>1651</ele>
        <time>2023-04-21T12:06:57.000Z</time>
      </trkpt>
      <trkpt lat="44.50098" lon="6.21553">
        <ele>1652</ele>
        <time>2023-04-21T12:06:58.000Z</time>
      </trkpt>
      <trkpt lat="44.50096" lon="6.21556">
        <ele>1652</ele>
        <time>2023-04-21T12:06:59.000Z</time>
      </trkpt>
      <trkpt lat="44.50094" lon="6.21558">
        <ele>1652</ele>
        <time>2023-04-21T12:07:00.000Z</time>
      </trkpt>
      <trkpt lat="44.50092" lon="6.2156">
        <ele>1653</ele>
        <time>2023-04-21T12:07:01.000Z</time>
      </trkpt>
      <trkpt lat="44.5009" lon="6.21562">
        <ele>1653</ele>
        <time>2023-04-21T12:07:02.000Z</time>
      </trkpt>
      <trkpt lat="44.50087" lon="6.21564">
        <ele>1653</ele>
        <time>2023-04-21T12:07:03.000Z</time>
      </trkpt>
      <trkpt lat="44.50085" lon="6.21566">
        <ele>1654</ele>
        <time>2023-04-21T12:07:04.000Z</time>
      </trkpt>
      <trkpt lat="44.50083" lon="6.21568">
        <ele>1655</ele>
        <time>2023-04-21T12:07:05.000Z</time>
      </trkpt>
      <trkpt lat="44.50081" lon="6.21569">
        <ele>1655</ele>
        <time>2023-04-21T12:07:06.000Z</time>
      </trkpt>
      <trkpt lat="44.50079" lon="6.21569">
        <ele>1656</ele>
        <time>2023-04-21T12:07:07.000Z</time>
      </trkpt>
      <trkpt lat="44.50076" lon="6.21568">
        <ele>1657</ele>
        <time>2023-04-21T12:07:08.000Z</time>
      </trkpt>
      <trkpt lat="44.50073" lon="6.21568">
        <ele>1657</ele>
        <time>2023-04-21T12:07:09.000Z</time>
      </trkpt>
      <trkpt lat="44.50071" lon="6.21568">
        <ele>1658</ele>
        <time>2023-04-21T12:07:10.000Z</time>
      </trkpt>
      <trkpt lat="44.50069" lon="6.21568">
        <ele>1658</ele>
        <time>2023-04-21T12:07:11.000Z</time>
      </trkpt>
      <trkpt lat="44.50066" lon="6.21567">
        <ele>1659</ele>
        <time>2023-04-21T12:07:12.000Z</time>
      </trkpt>
      <trkpt lat="44.50064" lon="6.21567">
        <ele>1659</ele>
        <time>2023-04-21T12:07:13.000Z</time>
      </trkpt>
      <trkpt lat="44.50061" lon="6.21566">
        <ele>1660</ele>
        <time>2023-04-21T12:07:14.000Z</time>
      </trkpt>
      <trkpt lat="44.50059" lon="6.21565">
        <ele>1660</ele>
        <time>2023-04-21T12:07:15.000Z</time>
      </trkpt>
      <trkpt lat="44.50057" lon="6.21564">
        <ele>1661</ele>
        <time>2023-04-21T12:07:16.000Z</time>
      </trkpt>
      <trkpt lat="44.50054" lon="6.21563">
        <ele>1661</ele>
        <time>2023-04-21T12:07:17.000Z</time>
      </trkpt>
      <trkpt lat="44.50052" lon="6.21562">
        <ele>1661</ele>
        <time>2023-04-21T12:07:18.000Z</time>
      </trkpt>
      <trkpt lat="44.50049" lon="6.2156">
        <ele>1661</ele>
        <time>2023-04-21T12:07:19.000Z</time>
      </trkpt>
      <trkpt lat="44.50047" lon="6.21559">
        <ele>1661</ele>
        <time>2023-04-21T12:07:20.000Z</time>
      </trkpt>
      <trkpt lat="44.50044" lon="6.21558">
        <ele>1661</ele>
        <time>2023-04-21T12:07:21.000Z</time>
      </trkpt>
      <trkpt lat="44.50042" lon="6.21557">
        <ele>1662</ele>
        <time>2023-04-21T12:07:22.000Z</time>
      </trkpt>
      <trkpt lat="44.5004" lon="6.21556">
        <ele>1662</ele>
        <time>2023-04-21T12:07:23.000Z</time>
      </trkpt>
      <trkpt lat="44.50037" lon="6.21555">
        <ele>1662</ele>
        <time>2023-04-21T12:07:24.000Z</time>
      </trkpt>
      <trkpt lat="44.50035" lon="6.21554">
        <ele>1662</ele>
        <time>2023-04-21T12:07:25.000Z</time>
      </trkpt>
      <trkpt lat="44.50033" lon="6.21553">
        <ele>1662</ele>
        <time>2023-04-21T12:07:26.000Z</time>
      </trkpt>
      <trkpt lat="44.5003" lon="6.21552">
        <ele>1663</ele>
        <time>2023-04-21T12:07:27.000Z</time>
      </trkpt>
      <trkpt lat="44.50028" lon="6.21551">
        <ele>1663</ele>
        <time>2023-04-21T12:07:28.000Z</time>
      </trkpt>
      <trkpt lat="44.50026" lon="6.2155">
        <ele>1663</ele>
        <time>2023-04-21T12:07:29.000Z</time>
      </trkpt>
      <trkpt lat="44.50023" lon="6.21548">
        <ele>1663</ele>
        <time>2023-04-21T12:07:30.000Z</time>
      </trkpt>
      <trkpt lat="44.50021" lon="6.21547">
        <ele>1663</ele>
        <time>2023-04-21T12:07:31.000Z</time>
      </trkpt>
      <trkpt lat="44.50019" lon="6.21546">
        <ele>1663</ele>
        <time>2023-04-21T12:07:32.000Z</time>
      </trkpt>
      <trkpt lat="44.50017" lon="6.21546">
        <ele>1664</ele>
        <time>2023-04-21T12:07:33.000Z</time>
      </trkpt>
      <trkpt lat="44.50014" lon="6.21545">
        <ele>1664</ele>
        <time>2023-04-21T12:07:34.000Z</time>
      </trkpt>
      <trkpt lat="44.50012" lon="6.21543">
        <ele>1664</ele>
        <time>2023-04-21T12:07:35.000Z</time>
      </trkpt>
      <trkpt lat="44.5001" lon="6.21542">
        <ele>1664</ele>
        <time>2023-04-21T12:07:36.000Z</time>
      </trkpt>
      <trkpt lat="44.50007" lon="6.21541">
        <ele>1664</ele>
        <time>2023-04-21T12:07:37.000Z</time>
      </trkpt>
      <trkpt lat="44.50005" lon="6.21539">
        <ele>1664</ele>
        <time>2023-04-21T12:07:38.000Z</time>
      </trkpt>
      <trkpt lat="44.50003" lon="6.21538">
        <ele>1664</ele>
        <time>2023-04-21T12:07:39.000Z</time>
      </trkpt>
      <trkpt lat="44.5" lon="6.21537">
        <ele>1665</ele>
        <time>2023-04-21T12:07:40.000Z</time>
      </trkpt>
      <trkpt lat="44.49998" lon="6.21536">
        <ele>1665</ele>
        <time>2023-04-21T12:07:41.000Z</time>
      </trkpt>
      <trkpt lat="44.49995" lon="6.21535">
        <ele>1665</ele>
        <time>2023-04-21T12:07:42.000Z</time>
      </trkpt>
      <trkpt lat="44.49993" lon="6.21534">
        <ele>1666</ele>
        <time>2023-04-21T12:07:43.000Z</time>
      </trkpt>
      <trkpt lat="44.49991" lon="6.21534">
        <ele>1666</ele>
        <time>2023-04-21T12:07:44.000Z</time>
      </trkpt>
      <trkpt lat="44.49988" lon="6.21533">
        <ele>1667</ele>
        <time>2023-04-21T12:07:45.000Z</time>
      </trkpt>
      <trkpt lat="44.49986" lon="6.21532">
        <ele>1667</ele>
        <time>2023-04-21T12:07:46.000Z</time>
      </trkpt>
      <trkpt lat="44.49984" lon="6.21531">
        <ele>1667</ele>
        <time>2023-04-21T12:07:47.000Z</time>
      </trkpt>
      <trkpt lat="44.49981" lon="6.2153">
        <ele>1667</ele>
        <time>2023-04-21T12:07:48.000Z</time>
      </trkpt>
      <trkpt lat="44.49979" lon="6.21529">
        <ele>1668</ele>
        <time>2023-04-21T12:07:49.000Z</time>
      </trkpt>
      <trkpt lat="44.49977" lon="6.21528">
        <ele>1668</ele>
        <time>2023-04-21T12:07:50.000Z</time>
      </trkpt>
      <trkpt lat="44.49974" lon="6.21527">
        <ele>1669</ele>
        <time>2023-04-21T12:07:51.000Z</time>
      </trkpt>
      <trkpt lat="44.49972" lon="6.21526">
        <ele>1669</ele>
        <time>2023-04-21T12:07:52.000Z</time>
      </trkpt>
      <trkpt lat="44.4997" lon="6.21525">
        <ele>1670</ele>
        <time>2023-04-21T12:07:53.000Z</time>
      </trkpt>
      <trkpt lat="44.49968" lon="6.21523">
        <ele>1671</ele>
        <time>2023-04-21T12:07:54.000Z</time>
      </trkpt>
      <trkpt lat="44.49966" lon="6.21522">
        <ele>1672</ele>
        <time>2023-04-21T12:07:55.000Z</time>
      </trkpt>
      <trkpt lat="44.49964" lon="6.21521">
        <ele>1673</ele>
        <time>2023-04-21T12:07:56.000Z</time>
      </trkpt>
      <trkpt lat="44.49962" lon="6.2152">
        <ele>1673</ele>
        <time>2023-04-21T12:07:57.000Z</time>
      </trkpt>
      <trkpt lat="44.4996" lon="6.21519">
        <ele>1674</ele>
        <time>2023-04-21T12:07:58.000Z</time>
      </trkpt>
      <trkpt lat="44.49959" lon="6.21518">
        <ele>1675</ele>
        <time>2023-04-21T12:07:59.000Z</time>
      </trkpt>
      <trkpt lat="44.49957" lon="6.21517">
        <ele>1677</ele>
        <time>2023-04-21T12:08:00.000Z</time>
      </trkpt>
      <trkpt lat="44.49955" lon="6.21515">
        <ele>1677</ele>
        <time>2023-04-21T12:08:01.000Z</time>
      </trkpt>
      <trkpt lat="44.49953" lon="6.21514">
        <ele>1677</ele>
        <time>2023-04-21T12:08:02.000Z</time>
      </trkpt>
      <trkpt lat="44.4995" lon="6.21513">
        <ele>1678</ele>
        <time>2023-04-21T12:08:03.000Z</time>
      </trkpt>
      <trkpt lat="44.49948" lon="6.21512">
        <ele>1678</ele>
        <time>2023-04-21T12:08:04.000Z</time>
      </trkpt>
      <trkpt lat="44.49946" lon="6.21511">
        <ele>1679</ele>
        <time>2023-04-21T12:08:05.000Z</time>
      </trkpt>
      <trkpt lat="44.49943" lon="6.21509">
        <ele>1679</ele>
        <time>2023-04-21T12:08:06.000Z</time>
      </trkpt>
      <trkpt lat="44.49941" lon="6.21508">
        <ele>1679</ele>
        <time>2023-04-21T12:08:07.000Z</time>
      </trkpt>
      <trkpt lat="44.49939" lon="6.21507">
        <ele>1679</ele>
        <time>2023-04-21T12:08:08.000Z</time>
      </trkpt>
      <trkpt lat="44.49936" lon="6.21507">
        <ele>1679</ele>
        <time>2023-04-21T12:08:09.000Z</time>
      </trkpt>
      <trkpt lat="44.49934" lon="6.21506">
        <ele>1679</ele>
        <time>2023-04-21T12:08:10.000Z</time>
      </trkpt>
      <trkpt lat="44.49932" lon="6.21506">
        <ele>1680</ele>
        <time>2023-04-21T12:08:11.000Z</time>
      </trkpt>
      <trkpt lat="44.4993" lon="6.21505">
        <ele>1681</ele>
        <time>2023-04-21T12:08:12.000Z</time>
      </trkpt>
      <trkpt lat="44.49928" lon="6.21505">
        <ele>1681</ele>
        <time>2023-04-21T12:08:13.000Z</time>
      </trkpt>
      <trkpt lat="44.49926" lon="6.21505">
        <ele>1682</ele>
        <time>2023-04-21T12:08:14.000Z</time>
      </trkpt>
      <trkpt lat="44.49924" lon="6.21505">
        <ele>1683</ele>
        <time>2023-04-21T12:08:15.000Z</time>
      </trkpt>
      <trkpt lat="44.49922" lon="6.21506">
        <ele>1684</ele>
        <time>2023-04-21T12:08:16.000Z</time>
      </trkpt>
      <trkpt lat="44.4992" lon="6.21507">
        <ele>1685</ele>
        <time>2023-04-21T12:08:17.000Z</time>
      </trkpt>
      <trkpt lat="44.49918" lon="6.21508">
        <ele>1685</ele>
        <time>2023-04-21T12:08:18.000Z</time>
      </trkpt>
      <trkpt lat="44.49915" lon="6.21509">
        <ele>1685</ele>
        <time>2023-04-21T12:08:19.000Z</time>
      </trkpt>
      <trkpt lat="44.49913" lon="6.2151">
        <ele>1685</ele>
        <time>2023-04-21T12:08:20.000Z</time>
      </trkpt>
      <trkpt lat="44.49911" lon="6.21511">
        <ele>1685</ele>
        <time>2023-04-21T12:08:21.000Z</time>
      </trkpt>
      <trkpt lat="44.49909" lon="6.21512">
        <ele>1685</ele>
        <time>2023-04-21T12:08:22.000Z</time>
      </trkpt>
      <trkpt lat="44.49906" lon="6.21514">
        <ele>1685</ele>
        <time>2023-04-21T12:08:23.000Z</time>
      </trkpt>
      <trkpt lat="44.49904" lon="6.21515">
        <ele>1685</ele>
        <time>2023-04-21T12:08:24.000Z</time>
      </trkpt>
      <trkpt lat="44.49902" lon="6.21517">
        <ele>1685</ele>
        <time>2023-04-21T12:08:25.000Z</time>
      </trkpt>
      <trkpt lat="44.499" lon="6.21519">
        <ele>1686</ele>
        <time>2023-04-21T12:08:26.000Z</time>
      </trkpt>
      <trkpt lat="44.49898" lon="6.21522">
        <ele>1686</ele>
        <time>2023-04-21T12:08:27.000Z</time>
      </trkpt>
      <trkpt lat="44.49895" lon="6.21524">
        <ele>1686</ele>
        <time>2023-04-21T12:08:28.000Z</time>
      </trkpt>
      <trkpt lat="44.49893" lon="6.21526">
        <ele>1686</ele>
        <time>2023-04-21T12:08:29.000Z</time>
      </trkpt>
      <trkpt lat="44.49891" lon="6.21529">
        <ele>1686</ele>
        <time>2023-04-21T12:08:30.000Z</time>
      </trkpt>
      <trkpt lat="44.49889" lon="6.21532">
        <ele>1686</ele>
        <time>2023-04-21T12:08:31.000Z</time>
      </trkpt>
      <trkpt lat="44.49888" lon="6.21534">
        <ele>1687</ele>
        <time>2023-04-21T12:08:32.000Z</time>
      </trkpt>
      <trkpt lat="44.49886" lon="6.21537">
        <ele>1687</ele>
        <time>2023-04-21T12:08:33.000Z</time>
      </trkpt>
      <trkpt lat="44.49884" lon="6.2154">
        <ele>1687</ele>
        <time>2023-04-21T12:08:34.000Z</time>
      </trkpt>
      <trkpt lat="44.49883" lon="6.21542">
        <ele>1688</ele>
        <time>2023-04-21T12:08:35.000Z</time>
      </trkpt>
      <trkpt lat="44.49881" lon="6.21545">
        <ele>1688</ele>
        <time>2023-04-21T12:08:36.000Z</time>
      </trkpt>
      <trkpt lat="44.49879" lon="6.21548">
        <ele>1688</ele>
        <time>2023-04-21T12:08:37.000Z</time>
      </trkpt>
      <trkpt lat="44.49878" lon="6.21551">
        <ele>1688</ele>
        <time>2023-04-21T12:08:38.000Z</time>
      </trkpt>
      <trkpt lat="44.49876" lon="6.21553">
        <ele>1688</ele>
        <time>2023-04-21T12:08:39.000Z</time>
      </trkpt>
      <trkpt lat="44.49874" lon="6.21556">
        <ele>1689</ele>
        <time>2023-04-21T12:08:40.000Z</time>
      </trkpt>
      <trkpt lat="44.49872" lon="6.21559">
        <ele>1689</ele>
        <time>2023-04-21T12:08:41.000Z</time>
      </trkpt>
      <trkpt lat="44.4987" lon="6.21562">
        <ele>1689</ele>
        <time>2023-04-21T12:08:42.000Z</time>
      </trkpt>
      <trkpt lat="44.49869" lon="6.21565">
        <ele>1689</ele>
        <time>2023-04-21T12:08:43.000Z</time>
      </trkpt>
      <trkpt lat="44.49867" lon="6.21567">
        <ele>1690</ele>
        <time>2023-04-21T12:08:44.000Z</time>
      </trkpt>
      <trkpt lat="44.49865" lon="6.2157">
        <ele>1690</ele>
        <time>2023-04-21T12:08:45.000Z</time>
      </trkpt>
      <trkpt lat="44.49863" lon="6.21573">
        <ele>1690</ele>
        <time>2023-04-21T12:08:46.000Z</time>
      </trkpt>
      <trkpt lat="44.49861" lon="6.21575">
        <ele>1690</ele>
        <time>2023-04-21T12:08:47.000Z</time>
      </trkpt>
      <trkpt lat="44.49859" lon="6.21577">
        <ele>1690</ele>
        <time>2023-04-21T12:08:48.000Z</time>
      </trkpt>
      <trkpt lat="44.49857" lon="6.21579">
        <ele>1691</ele>
        <time>2023-04-21T12:08:49.000Z</time>
      </trkpt>
      <trkpt lat="44.49855" lon="6.21581">
        <ele>1691</ele>
        <time>2023-04-21T12:08:50.000Z</time>
      </trkpt>
      <trkpt lat="44.49853" lon="6.21582">
        <ele>1691</ele>
        <time>2023-04-21T12:08:51.000Z</time>
      </trkpt>
      <trkpt lat="44.49851" lon="6.21584">
        <ele>1692</ele>
        <time>2023-04-21T12:08:52.000Z</time>
      </trkpt>
      <trkpt lat="44.49849" lon="6.21585">
        <ele>1693</ele>
        <time>2023-04-21T12:08:53.000Z</time>
      </trkpt>
      <trkpt lat="44.49846" lon="6.21585">
        <ele>1693</ele>
        <time>2023-04-21T12:08:54.000Z</time>
      </trkpt>
      <trkpt lat="44.49844" lon="6.21585">
        <ele>1694</ele>
        <time>2023-04-21T12:08:55.000Z</time>
      </trkpt>
      <trkpt lat="44.49841" lon="6.21584">
        <ele>1695</ele>
        <time>2023-04-21T12:08:56.000Z</time>
      </trkpt>
      <trkpt lat="44.49839" lon="6.21583">
        <ele>1695</ele>
        <time>2023-04-21T12:08:57.000Z</time>
      </trkpt>
      <trkpt lat="44.49836" lon="6.21582">
        <ele>1696</ele>
        <time>2023-04-21T12:08:58.000Z</time>
      </trkpt>
      <trkpt lat="44.49834" lon="6.21581">
        <ele>1697</ele>
        <time>2023-04-21T12:08:59.000Z</time>
      </trkpt>
      <trkpt lat="44.49832" lon="6.2158">
        <ele>1697</ele>
        <time>2023-04-21T12:09:00.000Z</time>
      </trkpt>
      <trkpt lat="44.4983" lon="6.21579">
        <ele>1698</ele>
        <time>2023-04-21T12:09:01.000Z</time>
      </trkpt>
      <trkpt lat="44.49828" lon="6.21577">
        <ele>1699</ele>
        <time>2023-04-21T12:09:02.000Z</time>
      </trkpt>
      <trkpt lat="44.49825" lon="6.21576">
        <ele>1699</ele>
        <time>2023-04-21T12:09:03.000Z</time>
      </trkpt>
      <trkpt lat="44.49822" lon="6.21575">
        <ele>1699</ele>
        <time>2023-04-21T12:09:04.000Z</time>
      </trkpt>
      <trkpt lat="44.4982" lon="6.21574">
        <ele>1700</ele>
        <time>2023-04-21T12:09:05.000Z</time>
      </trkpt>
      <trkpt lat="44.49817" lon="6.21572">
        <ele>1700</ele>
        <time>2023-04-21T12:09:06.000Z</time>
      </trkpt>
      <trkpt lat="44.49815" lon="6.21571">
        <ele>1700</ele>
        <time>2023-04-21T12:09:07.000Z</time>
      </trkpt>
      <trkpt lat="44.49813" lon="6.2157">
        <ele>1701</ele>
        <time>2023-04-21T12:09:08.000Z</time>
      </trkpt>
      <trkpt lat="44.4981" lon="6.21569">
        <ele>1701</ele>
        <time>2023-04-21T12:09:09.000Z</time>
      </trkpt>
      <trkpt lat="44.49808" lon="6.21567">
        <ele>1701</ele>
        <time>2023-04-21T12:09:10.000Z</time>
      </trkpt>
      <trkpt lat="44.49805" lon="6.21566">
        <ele>1701</ele>
        <time>2023-04-21T12:09:11.000Z</time>
      </trkpt>
      <trkpt lat="44.49803" lon="6.21565">
        <ele>1702</ele>
        <time>2023-04-21T12:09:12.000Z</time>
      </trkpt>
      <trkpt lat="44.49801" lon="6.21564">
        <ele>1703</ele>
        <time>2023-04-21T12:09:13.000Z</time>
      </trkpt>
      <trkpt lat="44.498" lon="6.21563">
        <ele>1703</ele>
        <time>2023-04-21T12:09:14.000Z</time>
      </trkpt>
      <trkpt lat="44.49798" lon="6.21562">
        <ele>1704</ele>
        <time>2023-04-21T12:09:15.000Z</time>
      </trkpt>
      <trkpt lat="44.49795" lon="6.21562">
        <ele>1704</ele>
        <time>2023-04-21T12:09:16.000Z</time>
      </trkpt>
      <trkpt lat="44.49793" lon="6.21561">
        <ele>1705</ele>
        <time>2023-04-21T12:09:17.000Z</time>
      </trkpt>
      <trkpt lat="44.49791" lon="6.21561">
        <ele>1706</ele>
        <time>2023-04-21T12:09:18.000Z</time>
      </trkpt>
      <trkpt lat="44.49789" lon="6.2156">
        <ele>1707</ele>
        <time>2023-04-21T12:09:19.000Z</time>
      </trkpt>
      <trkpt lat="44.49787" lon="6.2156">
        <ele>1707</ele>
        <time>2023-04-21T12:09:20.000Z</time>
      </trkpt>
      <trkpt lat="44.49784" lon="6.2156">
        <ele>1708</ele>
        <time>2023-04-21T12:09:21.000Z</time>
      </trkpt>
      <trkpt lat="44.49782" lon="6.21559">
        <ele>1709</ele>
        <time>2023-04-21T12:09:22.000Z</time>
      </trkpt>
      <trkpt lat="44.49779" lon="6.21558">
        <ele>1709</ele>
        <time>2023-04-21T12:09:23.000Z</time>
      </trkpt>
      <trkpt lat="44.49776" lon="6.21557">
        <ele>1709</ele>
        <time>2023-04-21T12:09:24.000Z</time>
      </trkpt>
      <trkpt lat="44.49774" lon="6.21557">
        <ele>1709</ele>
        <time>2023-04-21T12:09:25.000Z</time>
      </trkpt>
      <trkpt lat="44.49771" lon="6.21556">
        <ele>1710</ele>
        <time>2023-04-21T12:09:26.000Z</time>
      </trkpt>
      <trkpt lat="44.49769" lon="6.21556">
        <ele>1711</ele>
        <time>2023-04-21T12:09:27.000Z</time>
      </trkpt>
      <trkpt lat="44.49766" lon="6.21555">
        <ele>1711</ele>
        <time>2023-04-21T12:09:28.000Z</time>
      </trkpt>
      <trkpt lat="44.49764" lon="6.21555">
        <ele>1712</ele>
        <time>2023-04-21T12:09:29.000Z</time>
      </trkpt>
      <trkpt lat="44.49761" lon="6.21555">
        <ele>1712</ele>
        <time>2023-04-21T12:09:30.000Z</time>
      </trkpt>
      <trkpt lat="44.49759" lon="6.21554">
        <ele>1712</ele>
        <time>2023-04-21T12:09:31.000Z</time>
      </trkpt>
      <trkpt lat="44.49757" lon="6.21554">
        <ele>1713</ele>
        <time>2023-04-21T12:09:32.000Z</time>
      </trkpt>
      <trkpt lat="44.49755" lon="6.21554">
        <ele>1714</ele>
        <time>2023-04-21T12:09:33.000Z</time>
      </trkpt>
      <trkpt lat="44.49753" lon="6.21555">
        <ele>1715</ele>
        <time>2023-04-21T12:09:34.000Z</time>
      </trkpt>
      <trkpt lat="44.49751" lon="6.21555">
        <ele>1716</ele>
        <time>2023-04-21T12:09:35.000Z</time>
      </trkpt>
      <trkpt lat="44.49748" lon="6.21555">
        <ele>1717</ele>
        <time>2023-04-21T12:09:36.000Z</time>
      </trkpt>
      <trkpt lat="44.49746" lon="6.21555">
        <ele>1717</ele>
        <time>2023-04-21T12:09:37.000Z</time>
      </trkpt>
      <trkpt lat="44.49744" lon="6.21555">
        <ele>1718</ele>
        <time>2023-04-21T12:09:38.000Z</time>
      </trkpt>
      <trkpt lat="44.49742" lon="6.21555">
        <ele>1719</ele>
        <time>2023-04-21T12:09:39.000Z</time>
      </trkpt>
      <trkpt lat="44.4974" lon="6.21555">
        <ele>1720</ele>
        <time>2023-04-21T12:09:40.000Z</time>
      </trkpt>
      <trkpt lat="44.49737" lon="6.21555">
        <ele>1720</ele>
        <time>2023-04-21T12:09:41.000Z</time>
      </trkpt>
      <trkpt lat="44.49734" lon="6.21555">
        <ele>1720</ele>
        <time>2023-04-21T12:09:42.000Z</time>
      </trkpt>
      <trkpt lat="44.49731" lon="6.21554">
        <ele>1720</ele>
        <time>2023-04-21T12:09:43.000Z</time>
      </trkpt>
      <trkpt lat="44.49728" lon="6.21554">
        <ele>1719</ele>
        <time>2023-04-21T12:09:44.000Z</time>
      </trkpt>
      <trkpt lat="44.49725" lon="6.21555">
        <ele>1719</ele>
        <time>2023-04-21T12:09:45.000Z</time>
      </trkpt>
      <trkpt lat="44.49723" lon="6.21555">
        <ele>1719</ele>
        <time>2023-04-21T12:09:46.000Z</time>
      </trkpt>
      <trkpt lat="44.49721" lon="6.21556">
        <ele>1719</ele>
        <time>2023-04-21T12:09:47.000Z</time>
      </trkpt>
      <trkpt lat="44.49719" lon="6.21558">
        <ele>1719</ele>
        <time>2023-04-21T12:09:48.000Z</time>
      </trkpt>
      <trkpt lat="44.49716" lon="6.21559">
        <ele>1720</ele>
        <time>2023-04-21T12:09:49.000Z</time>
      </trkpt>
      <trkpt lat="44.49714" lon="6.2156">
        <ele>1720</ele>
        <time>2023-04-21T12:09:50.000Z</time>
      </trkpt>
      <trkpt lat="44.49712" lon="6.21562">
        <ele>1720</ele>
        <time>2023-04-21T12:09:51.000Z</time>
      </trkpt>
      <trkpt lat="44.4971" lon="6.21564">
        <ele>1720</ele>
        <time>2023-04-21T12:09:52.000Z</time>
      </trkpt>
      <trkpt lat="44.49709" lon="6.21566">
        <ele>1720</ele>
        <time>2023-04-21T12:09:53.000Z</time>
      </trkpt>
      <trkpt lat="44.49707" lon="6.21567">
        <ele>1720</ele>
        <time>2023-04-21T12:09:54.000Z</time>
      </trkpt>
      <trkpt lat="44.49705" lon="6.2157">
        <ele>1720</ele>
        <time>2023-04-21T12:09:55.000Z</time>
      </trkpt>
      <trkpt lat="44.49703" lon="6.21571">
        <ele>1720</ele>
        <time>2023-04-21T12:09:56.000Z</time>
      </trkpt>
      <trkpt lat="44.49702" lon="6.21573">
        <ele>1720</ele>
        <time>2023-04-21T12:09:57.000Z</time>
      </trkpt>
      <trkpt lat="44.497" lon="6.21576">
        <ele>1719</ele>
        <time>2023-04-21T12:09:58.000Z</time>
      </trkpt>
      <trkpt lat="44.49698" lon="6.21578">
        <ele>1719</ele>
        <time>2023-04-21T12:09:59.000Z</time>
      </trkpt>
      <trkpt lat="44.49696" lon="6.21581">
        <ele>1719</ele>
        <time>2023-04-21T12:10:00.000Z</time>
      </trkpt>
      <trkpt lat="44.49694" lon="6.21584">
        <ele>1719</ele>
        <time>2023-04-21T12:10:01.000Z</time>
      </trkpt>
      <trkpt lat="44.49692" lon="6.21586">
        <ele>1719</ele>
        <time>2023-04-21T12:10:02.000Z</time>
      </trkpt>
      <trkpt lat="44.49689" lon="6.21589">
        <ele>1719</ele>
        <time>2023-04-21T12:10:03.000Z</time>
      </trkpt>
      <trkpt lat="44.49687" lon="6.21591">
        <ele>1719</ele>
        <time>2023-04-21T12:10:04.000Z</time>
      </trkpt>
      <trkpt lat="44.49685" lon="6.21593">
        <ele>1720</ele>
        <time>2023-04-21T12:10:05.000Z</time>
      </trkpt>
      <trkpt lat="44.49683" lon="6.21595">
        <ele>1720</ele>
        <time>2023-04-21T12:10:06.000Z</time>
      </trkpt>
      <trkpt lat="44.4968" lon="6.21597">
        <ele>1720</ele>
        <time>2023-04-21T12:10:07.000Z</time>
      </trkpt>
      <trkpt lat="44.49677" lon="6.21599">
        <ele>1721</ele>
        <time>2023-04-21T12:10:08.000Z</time>
      </trkpt>
      <trkpt lat="44.49675" lon="6.21601">
        <ele>1721</ele>
        <time>2023-04-21T12:10:09.000Z</time>
      </trkpt>
      <trkpt lat="44.49672" lon="6.21603">
        <ele>1721</ele>
        <time>2023-04-21T12:10:10.000Z</time>
      </trkpt>
      <trkpt lat="44.4967" lon="6.21605">
        <ele>1722</ele>
        <time>2023-04-21T12:10:11.000Z</time>
      </trkpt>
      <trkpt lat="44.49668" lon="6.21607">
        <ele>1722</ele>
        <time>2023-04-21T12:10:12.000Z</time>
      </trkpt>
      <trkpt lat="44.49665" lon="6.21609">
        <ele>1722</ele>
        <time>2023-04-21T12:10:13.000Z</time>
      </trkpt>
      <trkpt lat="44.49663" lon="6.2161">
        <ele>1723</ele>
        <time>2023-04-21T12:10:14.000Z</time>
      </trkpt>
      <trkpt lat="44.49661" lon="6.21612">
        <ele>1723</ele>
        <time>2023-04-21T12:10:15.000Z</time>
      </trkpt>
      <trkpt lat="44.49659" lon="6.21614">
        <ele>1724</ele>
        <time>2023-04-21T12:10:16.000Z</time>
      </trkpt>
      <trkpt lat="44.49657" lon="6.21615">
        <ele>1724</ele>
        <time>2023-04-21T12:10:17.000Z</time>
      </trkpt>
      <trkpt lat="44.49655" lon="6.21616">
        <ele>1725</ele>
        <time>2023-04-21T12:10:18.000Z</time>
      </trkpt>
      <trkpt lat="44.49653" lon="6.21618">
        <ele>1725</ele>
        <time>2023-04-21T12:10:19.000Z</time>
      </trkpt>
      <trkpt lat="44.4965" lon="6.21621">
        <ele>1725</ele>
        <time>2023-04-21T12:10:20.000Z</time>
      </trkpt>
      <trkpt lat="44.49648" lon="6.21623">
        <ele>1726</ele>
        <time>2023-04-21T12:10:21.000Z</time>
      </trkpt>
      <trkpt lat="44.49646" lon="6.21625">
        <ele>1726</ele>
        <time>2023-04-21T12:10:22.000Z</time>
      </trkpt>
      <trkpt lat="44.49644" lon="6.21627">
        <ele>1726</ele>
        <time>2023-04-21T12:10:23.000Z</time>
      </trkpt>
      <trkpt lat="44.49642" lon="6.21629">
        <ele>1727</ele>
        <time>2023-04-21T12:10:24.000Z</time>
      </trkpt>
      <trkpt lat="44.49639" lon="6.2163">
        <ele>1727</ele>
        <time>2023-04-21T12:10:25.000Z</time>
      </trkpt>
      <trkpt lat="44.49636" lon="6.21632">
        <ele>1727</ele>
        <time>2023-04-21T12:10:26.000Z</time>
      </trkpt>
      <trkpt lat="44.49634" lon="6.21634">
        <ele>1727</ele>
        <time>2023-04-21T12:10:27.000Z</time>
      </trkpt>
      <trkpt lat="44.49632" lon="6.21636">
        <ele>1728</ele>
        <time>2023-04-21T12:10:28.000Z</time>
      </trkpt>
      <trkpt lat="44.49629" lon="6.21637">
        <ele>1728</ele>
        <time>2023-04-21T12:10:29.000Z</time>
      </trkpt>
      <trkpt lat="44.49627" lon="6.21639">
        <ele>1728</ele>
        <time>2023-04-21T12:10:30.000Z</time>
      </trkpt>
      <trkpt lat="44.49625" lon="6.2164">
        <ele>1729</ele>
        <time>2023-04-21T12:10:31.000Z</time>
      </trkpt>
      <trkpt lat="44.49623" lon="6.21642">
        <ele>1730</ele>
        <time>2023-04-21T12:10:32.000Z</time>
      </trkpt>
      <trkpt lat="44.49621" lon="6.21643">
        <ele>1731</ele>
        <time>2023-04-21T12:10:33.000Z</time>
      </trkpt>
      <trkpt lat="44.49619" lon="6.21644">
        <ele>1731</ele>
        <time>2023-04-21T12:10:34.000Z</time>
      </trkpt>
      <trkpt lat="44.49618" lon="6.21646">
        <ele>1732</ele>
        <time>2023-04-21T12:10:35.000Z</time>
      </trkpt>
      <trkpt lat="44.49616" lon="6.21647">
        <ele>1732</ele>
        <time>2023-04-21T12:10:36.000Z</time>
      </trkpt>
      <trkpt lat="44.49615" lon="6.21648">
        <ele>1733</ele>
        <time>2023-04-21T12:10:37.000Z</time>
      </trkpt>
      <trkpt lat="44.49613" lon="6.21649">
        <ele>1732</ele>
        <time>2023-04-21T12:10:38.000Z</time>
      </trkpt>
      <trkpt lat="44.49611" lon="6.21651">
        <ele>1733</ele>
        <time>2023-04-21T12:10:39.000Z</time>
      </trkpt>
      <trkpt lat="44.49609" lon="6.21653">
        <ele>1733</ele>
        <time>2023-04-21T12:10:40.000Z</time>
      </trkpt>
      <trkpt lat="44.49607" lon="6.21655">
        <ele>1733</ele>
        <time>2023-04-21T12:10:41.000Z</time>
      </trkpt>
      <trkpt lat="44.49605" lon="6.21657">
        <ele>1733</ele>
        <time>2023-04-21T12:10:42.000Z</time>
      </trkpt>
      <trkpt lat="44.49604" lon="6.21659">
        <ele>1733</ele>
        <time>2023-04-21T12:10:43.000Z</time>
      </trkpt>
      <trkpt lat="44.49602" lon="6.2166">
        <ele>1733</ele>
        <time>2023-04-21T12:10:44.000Z</time>
      </trkpt>
      <trkpt lat="44.496" lon="6.21663">
        <ele>1733</ele>
        <time>2023-04-21T12:10:45.000Z</time>
      </trkpt>
      <trkpt lat="44.49599" lon="6.21666">
        <ele>1734</ele>
        <time>2023-04-21T12:10:46.000Z</time>
      </trkpt>
      <trkpt lat="44.49597" lon="6.21668">
        <ele>1734</ele>
        <time>2023-04-21T12:10:47.000Z</time>
      </trkpt>
      <trkpt lat="44.49595" lon="6.21671">
        <ele>1734</ele>
        <time>2023-04-21T12:10:48.000Z</time>
      </trkpt>
      <trkpt lat="44.49593" lon="6.21674">
        <ele>1734</ele>
        <time>2023-04-21T12:10:49.000Z</time>
      </trkpt>
      <trkpt lat="44.49591" lon="6.21678">
        <ele>1735</ele>
        <time>2023-04-21T12:10:50.000Z</time>
      </trkpt>
      <trkpt lat="44.49589" lon="6.21681">
        <ele>1736</ele>
        <time>2023-04-21T12:10:51.000Z</time>
      </trkpt>
      <trkpt lat="44.49588" lon="6.21685">
        <ele>1736</ele>
        <time>2023-04-21T12:10:52.000Z</time>
      </trkpt>
      <trkpt lat="44.49586" lon="6.21688">
        <ele>1736</ele>
        <time>2023-04-21T12:10:53.000Z</time>
      </trkpt>
      <trkpt lat="44.49585" lon="6.21691">
        <ele>1736</ele>
        <time>2023-04-21T12:10:54.000Z</time>
      </trkpt>
      <trkpt lat="44.49583" lon="6.21695">
        <ele>1737</ele>
        <time>2023-04-21T12:10:55.000Z</time>
      </trkpt>
      <trkpt lat="44.49582" lon="6.21699">
        <ele>1737</ele>
        <time>2023-04-21T12:10:56.000Z</time>
      </trkpt>
      <trkpt lat="44.4958" lon="6.21703">
        <ele>1738</ele>
        <time>2023-04-21T12:10:57.000Z</time>
      </trkpt>
      <trkpt lat="44.49579" lon="6.21706">
        <ele>1738</ele>
        <time>2023-04-21T12:10:58.000Z</time>
      </trkpt>
      <trkpt lat="44.49577" lon="6.21709">
        <ele>1739</ele>
        <time>2023-04-21T12:10:59.000Z</time>
      </trkpt>
      <trkpt lat="44.49576" lon="6.21712">
        <ele>1740</ele>
        <time>2023-04-21T12:11:00.000Z</time>
      </trkpt>
      <trkpt lat="44.49575" lon="6.21714">
        <ele>1741</ele>
        <time>2023-04-21T12:11:01.000Z</time>
      </trkpt>
      <trkpt lat="44.49573" lon="6.21717">
        <ele>1743</ele>
        <time>2023-04-21T12:11:02.000Z</time>
      </trkpt>
      <trkpt lat="44.49572" lon="6.2172">
        <ele>1744</ele>
        <time>2023-04-21T12:11:03.000Z</time>
      </trkpt>
      <trkpt lat="44.4957" lon="6.21723">
        <ele>1745</ele>
        <time>2023-04-21T12:11:04.000Z</time>
      </trkpt>
      <trkpt lat="44.49568" lon="6.21726">
        <ele>1746</ele>
        <time>2023-04-21T12:11:05.000Z</time>
      </trkpt>
      <trkpt lat="44.49566" lon="6.2173">
        <ele>1746</ele>
        <time>2023-04-21T12:11:06.000Z</time>
      </trkpt>
      <trkpt lat="44.49565" lon="6.21733">
        <ele>1747</ele>
        <time>2023-04-21T12:11:07.000Z</time>
      </trkpt>
      <trkpt lat="44.49563" lon="6.21736">
        <ele>1748</ele>
        <time>2023-04-21T12:11:08.000Z</time>
      </trkpt>
      <trkpt lat="44.49562" lon="6.21739">
        <ele>1748</ele>
        <time>2023-04-21T12:11:09.000Z</time>
      </trkpt>
      <trkpt lat="44.4956" lon="6.21742">
        <ele>1748</ele>
        <time>2023-04-21T12:11:10.000Z</time>
      </trkpt>
      <trkpt lat="44.49559" lon="6.21746">
        <ele>1748</ele>
        <time>2023-04-21T12:11:11.000Z</time>
      </trkpt>
      <trkpt lat="44.49558" lon="6.21749">
        <ele>1748</ele>
        <time>2023-04-21T12:11:12.000Z</time>
      </trkpt>
      <trkpt lat="44.49557" lon="6.21754">
        <ele>1747</ele>
        <time>2023-04-21T12:11:13.000Z</time>
      </trkpt>
      <trkpt lat="44.49556" lon="6.21758">
        <ele>1747</ele>
        <time>2023-04-21T12:11:14.000Z</time>
      </trkpt>
      <trkpt lat="44.49555" lon="6.21762">
        <ele>1748</ele>
        <time>2023-04-21T12:11:15.000Z</time>
      </trkpt>
      <trkpt lat="44.49554" lon="6.21766">
        <ele>1748</ele>
        <time>2023-04-21T12:11:16.000Z</time>
      </trkpt>
      <trkpt lat="44.49554" lon="6.2177">
        <ele>1747</ele>
        <time>2023-04-21T12:11:17.000Z</time>
      </trkpt>
      <trkpt lat="44.49553" lon="6.21774">
        <ele>1748</ele>
        <time>2023-04-21T12:11:18.000Z</time>
      </trkpt>
      <trkpt lat="44.49552" lon="6.21778">
        <ele>1749</ele>
        <time>2023-04-21T12:11:19.000Z</time>
      </trkpt>
      <trkpt lat="44.49552" lon="6.21783">
        <ele>1749</ele>
        <time>2023-04-21T12:11:20.000Z</time>
      </trkpt>
      <trkpt lat="44.49552" lon="6.21787">
        <ele>1750</ele>
        <time>2023-04-21T12:11:21.000Z</time>
      </trkpt>
      <trkpt lat="44.49552" lon="6.21791">
        <ele>1750</ele>
        <time>2023-04-21T12:11:22.000Z</time>
      </trkpt>
      <trkpt lat="44.49552" lon="6.21795">
        <ele>1750</ele>
        <time>2023-04-21T12:11:23.000Z</time>
      </trkpt>
      <trkpt lat="44.49553" lon="6.21798">
        <ele>1750</ele>
        <time>2023-04-21T12:11:24.000Z</time>
      </trkpt>
      <trkpt lat="44.49553" lon="6.21802">
        <ele>1751</ele>
        <time>2023-04-21T12:11:25.000Z</time>
      </trkpt>
      <trkpt lat="44.49553" lon="6.21806">
        <ele>1751</ele>
        <time>2023-04-21T12:11:26.000Z</time>
      </trkpt>
      <trkpt lat="44.49554" lon="6.2181">
        <ele>1751</ele>
        <time>2023-04-21T12:11:27.000Z</time>
      </trkpt>
      <trkpt lat="44.49554" lon="6.21814">
        <ele>1751</ele>
        <time>2023-04-21T12:11:28.000Z</time>
      </trkpt>
      <trkpt lat="44.49555" lon="6.21817">
        <ele>1751</ele>
        <time>2023-04-21T12:11:29.000Z</time>
      </trkpt>
      <trkpt lat="44.49555" lon="6.2182">
        <ele>1751</ele>
        <time>2023-04-21T12:11:30.000Z</time>
      </trkpt>
      <trkpt lat="44.49556" lon="6.21824">
        <ele>1751</ele>
        <time>2023-04-21T12:11:31.000Z</time>
      </trkpt>
      <trkpt lat="44.49556" lon="6.21827">
        <ele>1751</ele>
        <time>2023-04-21T12:11:32.000Z</time>
      </trkpt>
      <trkpt lat="44.49557" lon="6.2183">
        <ele>1751</ele>
        <time>2023-04-21T12:11:33.000Z</time>
      </trkpt>
      <trkpt lat="44.49557" lon="6.21833">
        <ele>1751</ele>
        <time>2023-04-21T12:11:34.000Z</time>
      </trkpt>
      <trkpt lat="44.49557" lon="6.21836">
        <ele>1751</ele>
        <time>2023-04-21T12:11:35.000Z</time>
      </trkpt>
      <trkpt lat="44.49558" lon="6.21839">
        <ele>1751</ele>
        <time>2023-04-21T12:11:36.000Z</time>
      </trkpt>
      <trkpt lat="44.49558" lon="6.21842">
        <ele>1751</ele>
        <time>2023-04-21T12:11:37.000Z</time>
      </trkpt>
      <trkpt lat="44.49559" lon="6.21845">
        <ele>1751</ele>
        <time>2023-04-21T12:11:38.000Z</time>
      </trkpt>
      <trkpt lat="44.49559" lon="6.21849">
        <ele>1751</ele>
        <time>2023-04-21T12:11:39.000Z</time>
      </trkpt>
      <trkpt lat="44.4956" lon="6.21852">
        <ele>1751</ele>
        <time>2023-04-21T12:11:40.000Z</time>
      </trkpt>
      <trkpt lat="44.4956" lon="6.21856">
        <ele>1751</ele>
        <time>2023-04-21T12:11:41.000Z</time>
      </trkpt>
      <trkpt lat="44.49561" lon="6.21859">
        <ele>1750</ele>
        <time>2023-04-21T12:11:42.000Z</time>
      </trkpt>
      <trkpt lat="44.49562" lon="6.21863">
        <ele>1750</ele>
        <time>2023-04-21T12:11:43.000Z</time>
      </trkpt>
      <trkpt lat="44.49562" lon="6.21866">
        <ele>1750</ele>
        <time>2023-04-21T12:11:44.000Z</time>
      </trkpt>
      <trkpt lat="44.49563" lon="6.2187">
        <ele>1750</ele>
        <time>2023-04-21T12:11:45.000Z</time>
      </trkpt>
      <trkpt lat="44.49564" lon="6.21873">
        <ele>1750</ele>
        <time>2023-04-21T12:11:46.000Z</time>
      </trkpt>
      <trkpt lat="44.49564" lon="6.21876">
        <ele>1750</ele>
        <time>2023-04-21T12:11:47.000Z</time>
      </trkpt>
      <trkpt lat="44.49566" lon="6.21878">
        <ele>1750</ele>
        <time>2023-04-21T12:11:48.000Z</time>
      </trkpt>
      <trkpt lat="44.49566" lon="6.21881">
        <ele>1750</ele>
        <time>2023-04-21T12:11:49.000Z</time>
      </trkpt>
      <trkpt lat="44.49567" lon="6.21883">
        <ele>1750</ele>
        <time>2023-04-21T12:11:50.000Z</time>
      </trkpt>
      <trkpt lat="44.49567" lon="6.21886">
        <ele>1750</ele>
        <time>2023-04-21T12:11:51.000Z</time>
      </trkpt>
      <trkpt lat="44.49567" lon="6.21889">
        <ele>1751</ele>
        <time>2023-04-21T12:11:52.000Z</time>
      </trkpt>
      <trkpt lat="44.49568" lon="6.21892">
        <ele>1752</ele>
        <time>2023-04-21T12:11:53.000Z</time>
      </trkpt>
      <trkpt lat="44.49569" lon="6.21894">
        <ele>1752</ele>
        <time>2023-04-21T12:11:54.000Z</time>
      </trkpt>
      <trkpt lat="44.4957" lon="6.21898">
        <ele>1751</ele>
        <time>2023-04-21T12:11:55.000Z</time>
      </trkpt>
      <trkpt lat="44.4957" lon="6.21901">
        <ele>1751</ele>
        <time>2023-04-21T12:11:56.000Z</time>
      </trkpt>
      <trkpt lat="44.49571" lon="6.21905">
        <ele>1751</ele>
        <time>2023-04-21T12:11:57.000Z</time>
      </trkpt>
      <trkpt lat="44.49571" lon="6.21908">
        <ele>1751</ele>
        <time>2023-04-21T12:11:58.000Z</time>
      </trkpt>
      <trkpt lat="44.49572" lon="6.21911">
        <ele>1752</ele>
        <time>2023-04-21T12:11:59.000Z</time>
      </trkpt>
      <trkpt lat="44.49572" lon="6.21915">
        <ele>1752</ele>
        <time>2023-04-21T12:12:00.000Z</time>
      </trkpt>
      <trkpt lat="44.49573" lon="6.21919">
        <ele>1752</ele>
        <time>2023-04-21T12:12:01.000Z</time>
      </trkpt>
      <trkpt lat="44.49573" lon="6.21923">
        <ele>1752</ele>
        <time>2023-04-21T12:12:02.000Z</time>
      </trkpt>
      <trkpt lat="44.49573" lon="6.21927">
        <ele>1752</ele>
        <time>2023-04-21T12:12:03.000Z</time>
      </trkpt>
      <trkpt lat="44.49573" lon="6.21933">
        <ele>1751</ele>
        <time>2023-04-21T12:12:04.000Z</time>
      </trkpt>
      <trkpt lat="44.49574" lon="6.21939">
        <ele>1751</ele>
        <time>2023-04-21T12:12:05.000Z</time>
      </trkpt>
      <trkpt lat="44.49575" lon="6.21945">
        <ele>1751</ele>
        <time>2023-04-21T12:12:06.000Z</time>
      </trkpt>
      <trkpt lat="44.49576" lon="6.21951">
        <ele>1752</ele>
        <time>2023-04-21T12:12:07.000Z</time>
      </trkpt>
      <trkpt lat="44.49577" lon="6.21958">
        <ele>1752</ele>
        <time>2023-04-21T12:12:08.000Z</time>
      </trkpt>
      <trkpt lat="44.49578" lon="6.21964">
        <ele>1752</ele>
        <time>2023-04-21T12:12:09.000Z</time>
      </trkpt>
      <trkpt lat="44.49579" lon="6.21971">
        <ele>1752</ele>
        <time>2023-04-21T12:12:10.000Z</time>
      </trkpt>
      <trkpt lat="44.49581" lon="6.21979">
        <ele>1752</ele>
        <time>2023-04-21T12:12:11.000Z</time>
      </trkpt>
      <trkpt lat="44.49583" lon="6.21988">
        <ele>1750</ele>
        <time>2023-04-21T12:12:12.000Z</time>
      </trkpt>
      <trkpt lat="44.49586" lon="6.21996">
        <ele>1749</ele>
        <time>2023-04-21T12:12:13.000Z</time>
      </trkpt>
      <trkpt lat="44.49588" lon="6.22003">
        <ele>1748</ele>
        <time>2023-04-21T12:12:14.000Z</time>
      </trkpt>
      <trkpt lat="44.4959" lon="6.22011">
        <ele>1747</ele>
        <time>2023-04-21T12:12:15.000Z</time>
      </trkpt>
      <trkpt lat="44.4959" lon="6.22017">
        <ele>1747</ele>
        <time>2023-04-21T12:12:16.000Z</time>
      </trkpt>
      <trkpt lat="44.49589" lon="6.22021">
        <ele>1747</ele>
        <time>2023-04-21T12:12:17.000Z</time>
      </trkpt>
      <trkpt lat="44.49588" lon="6.22026">
        <ele>1747</ele>
        <time>2023-04-21T12:12:18.000Z</time>
      </trkpt>
      <trkpt lat="44.49589" lon="6.22029">
        <ele>1747</ele>
        <time>2023-04-21T12:12:19.000Z</time>
      </trkpt>
      <trkpt lat="44.49589" lon="6.22033">
        <ele>1747</ele>
        <time>2023-04-21T12:12:20.000Z</time>
      </trkpt>
      <trkpt lat="44.4959" lon="6.22038">
        <ele>1747</ele>
        <time>2023-04-21T12:12:21.000Z</time>
      </trkpt>
      <trkpt lat="44.4959" lon="6.22042">
        <ele>1747</ele>
        <time>2023-04-21T12:12:22.000Z</time>
      </trkpt>
      <trkpt lat="44.4959" lon="6.22047">
        <ele>1746</ele>
        <time>2023-04-21T12:12:23.000Z</time>
      </trkpt>
      <trkpt lat="44.4959" lon="6.22051">
        <ele>1746</ele>
        <time>2023-04-21T12:12:24.000Z</time>
      </trkpt>
      <trkpt lat="44.4959" lon="6.22055">
        <ele>1746</ele>
        <time>2023-04-21T12:12:25.000Z</time>
      </trkpt>
      <trkpt lat="44.4959" lon="6.22058">
        <ele>1746</ele>
        <time>2023-04-21T12:12:26.000Z</time>
      </trkpt>
      <trkpt lat="44.4959" lon="6.22062">
        <ele>1746</ele>
        <time>2023-04-21T12:12:27.000Z</time>
      </trkpt>
      <trkpt lat="44.49591" lon="6.22065">
        <ele>1745</ele>
        <time>2023-04-21T12:12:28.000Z</time>
      </trkpt>
      <trkpt lat="44.49591" lon="6.22068">
        <ele>1745</ele>
        <time>2023-04-21T12:12:29.000Z</time>
      </trkpt>
      <trkpt lat="44.49591" lon="6.22072">
        <ele>1745</ele>
        <time>2023-04-21T12:12:30.000Z</time>
      </trkpt>
      <trkpt lat="44.49591" lon="6.22075">
        <ele>1744</ele>
        <time>2023-04-21T12:12:31.000Z</time>
      </trkpt>
      <trkpt lat="44.49591" lon="6.2208">
        <ele>1744</ele>
        <time>2023-04-21T12:12:32.000Z</time>
      </trkpt>
      <trkpt lat="44.49591" lon="6.22085">
        <ele>1744</ele>
        <time>2023-04-21T12:12:33.000Z</time>
      </trkpt>
      <trkpt lat="44.49591" lon="6.22089">
        <ele>1743</ele>
        <time>2023-04-21T12:12:34.000Z</time>
      </trkpt>
      <trkpt lat="44.49592" lon="6.22092">
        <ele>1743</ele>
        <time>2023-04-21T12:12:35.000Z</time>
      </trkpt>
      <trkpt lat="44.49592" lon="6.22093">
        <ele>1743</ele>
        <time>2023-04-21T12:12:36.000Z</time>
      </trkpt>
      <trkpt lat="44.49592" lon="6.22093">
        <ele>1743</ele>
        <time>2023-04-21T12:12:37.000Z</time>
      </trkpt>
      <trkpt lat="44.49592" lon="6.22093">
        <ele>1743</ele>
        <time>2023-04-21T12:12:38.000Z</time>
      </trkpt>
      <trkpt lat="44.49592" lon="6.22093">
        <ele>1743</ele>
        <time>2023-04-21T12:12:39.000Z</time>
      </trkpt>
      <trkpt lat="44.49592" lon="6.22093">
        <ele>1742</ele>
        <time>2023-04-21T12:12:40.000Z</time>
      </trkpt>
      <trkpt lat="44.49592" lon="6.22093">
        <ele>1742</ele>
        <time>2023-04-21T12:12:41.000Z</time>
      </trkpt>
      <trkpt lat="44.49592" lon="6.22093">
        <ele>1742</ele>
        <time>2023-04-21T12:12:42.000Z</time>
      </trkpt>
      <trkpt lat="44.49592" lon="6.22094">
        <ele>1742</ele>
        <time>2023-04-21T12:12:43.000Z</time>
      </trkpt>
      <trkpt lat="44.49592" lon="6.22094">
        <ele>1741</ele>
        <time>2023-04-21T12:12:44.000Z</time>
      </trkpt>
      <trkpt lat="44.49592" lon="6.22094">
        <ele>1741</ele>
        <time>2023-04-21T12:12:45.000Z</time>
      </trkpt>
      <trkpt lat="44.49592" lon="6.22094">
        <ele>1741</ele>
        <time>2023-04-21T12:12:46.000Z</time>
      </trkpt>
      <trkpt lat="44.49592" lon="6.22094">
        <ele>1741</ele>
        <time>2023-04-21T12:12:47.000Z</time>
      </trkpt>
      <trkpt lat="44.49592" lon="6.22094">
        <ele>1741</ele>
        <time>2023-04-21T12:12:48.000Z</time>
      </trkpt>
      <trkpt lat="44.49592" lon="6.22095">
        <ele>1741</ele>
        <time>2023-04-21T12:12:49.000Z</time>
      </trkpt>
      <trkpt lat="44.49592" lon="6.22095">
        <ele>1740</ele>
        <time>2023-04-21T12:12:50.000Z</time>
      </trkpt>
      <trkpt lat="44.49592" lon="6.22095">
        <ele>1740</ele>
        <time>2023-04-21T12:12:51.000Z</time>
      </trkpt>
      <trkpt lat="44.49592" lon="6.22095">
        <ele>1740</ele>
        <time>2023-04-21T12:12:52.000Z</time>
      </trkpt>
      <trkpt lat="44.49592" lon="6.22095">
        <ele>1740</ele>
        <time>2023-04-21T12:12:53.000Z</time>
      </trkpt>
      <trkpt lat="44.49593" lon="6.22096">
        <ele>1740</ele>
        <time>2023-04-21T12:12:54.000Z</time>
      </trkpt>
      <trkpt lat="44.49593" lon="6.22096">
        <ele>1739</ele>
        <time>2023-04-21T12:12:55.000Z</time>
      </trkpt>
      <trkpt lat="44.49593" lon="6.22096">
        <ele>1739</ele>
        <time>2023-04-21T12:12:56.000Z</time>
      </trkpt>
      <trkpt lat="44.49593" lon="6.22096">
        <ele>1739</ele>
        <time>2023-04-21T12:12:57.000Z</time>
      </trkpt>
      <trkpt lat="44.49593" lon="6.22096">
        <ele>1739</ele>
        <time>2023-04-21T12:12:58.000Z</time>
      </trkpt>
      <trkpt lat="44.49593" lon="6.22096">
        <ele>1739</ele>
        <time>2023-04-21T12:12:59.000Z</time>
      </trkpt>
      <trkpt lat="44.49593" lon="6.22096">
        <ele>1739</ele>
        <time>2023-04-21T12:13:00.000Z</time>
      </trkpt>
      <trkpt lat="44.49593" lon="6.22097">
        <ele>1738</ele>
        <time>2023-04-21T12:13:01.000Z</time>
      </trkpt>
      <trkpt lat="44.49593" lon="6.22097">
        <ele>1738</ele>
        <time>2023-04-21T12:13:02.000Z</time>
      </trkpt>
      <trkpt lat="44.49593" lon="6.22097">
        <ele>1738</ele>
        <time>2023-04-21T12:13:03.000Z</time>
      </trkpt>
      <trkpt lat="44.49593" lon="6.22097">
        <ele>1738</ele>
        <time>2023-04-21T12:13:04.000Z</time>
      </trkpt>
      <trkpt lat="44.49593" lon="6.22097">
        <ele>1738</ele>
        <time>2023-04-21T12:13:05.000Z</time>
      </trkpt>
      <trkpt lat="44.49593" lon="6.22097">
        <ele>1738</ele>
        <time>2023-04-21T12:13:06.000Z</time>
      </trkpt>
      <trkpt lat="44.49593" lon="6.22097">
        <ele>1738</ele>
        <time>2023-04-21T12:13:07.000Z</time>
      </trkpt>
      <trkpt lat="44.49593" lon="6.22097">
        <ele>1738</ele>
        <time>2023-04-21T12:13:08.000Z</time>
      </trkpt>
      <trkpt lat="44.49593" lon="6.22097">
        <ele>1738</ele>
        <time>2023-04-21T12:13:09.000Z</time>
      </trkpt>
      <trkpt lat="44.49593" lon="6.22098">
        <ele>1738</ele>
        <time>2023-04-21T12:13:10.000Z</time>
      </trkpt>
      <trkpt lat="44.49593" lon="6.22098">
        <ele>1738</ele>
        <time>2023-04-21T12:13:11.000Z</time>
      </trkpt>
      <trkpt lat="44.49593" lon="6.22098">
        <ele>1738</ele>
        <time>2023-04-21T12:13:12.000Z</time>
      </trkpt>
      <trkpt lat="44.49593" lon="6.22098">
        <ele>1738</ele>
        <time>2023-04-21T12:13:13.000Z</time>
      </trkpt>
      <trkpt lat="44.49593" lon="6.22098">
        <ele>1738</ele>
        <time>2023-04-21T12:13:14.000Z</time>
      </trkpt>
      <trkpt lat="44.49593" lon="6.22098">
        <ele>1738</ele>
        <time>2023-04-21T12:13:15.000Z</time>
      </trkpt>
      <trkpt lat="44.49593" lon="6.22098">
        <ele>1737</ele>
        <time>2023-04-21T12:13:16.000Z</time>
      </trkpt>
      <trkpt lat="44.49593" lon="6.22098">
        <ele>1737</ele>
        <time>2023-04-21T12:13:17.000Z</time>
      </trkpt>
      <trkpt lat="44.49593" lon="6.22098">
        <ele>1737</ele>
        <time>2023-04-21T12:13:18.000Z</time>
      </trkpt>
      <trkpt lat="44.49593" lon="6.22098">
        <ele>1737</ele>
        <time>2023-04-21T12:13:19.000Z</time>
      </trkpt>
      <trkpt lat="44.49593" lon="6.22098">
        <ele>1737</ele>
        <time>2023-04-21T12:13:20.000Z</time>
      </trkpt>
      <trkpt lat="44.49593" lon="6.22098">
        <ele>1737</ele>
        <time>2023-04-21T12:13:21.000Z</time>
      </trkpt>
      <trkpt lat="44.49593" lon="6.22098">
        <ele>1737</ele>
        <time>2023-04-21T12:13:22.000Z</time>
      </trkpt>
      <trkpt lat="44.49593" lon="6.22098">
        <ele>1737</ele>
        <time>2023-04-21T12:13:23.000Z</time>
      </trkpt>
      <trkpt lat="44.49593" lon="6.22098">
        <ele>1737</ele>
        <time>2023-04-21T12:13:24.000Z</time>
      </trkpt>
      <trkpt lat="44.49593" lon="6.22099">
        <ele>1737</ele>
        <time>2023-04-21T12:13:25.000Z</time>
      </trkpt>
      <trkpt lat="44.49592" lon="6.22099">
        <ele>1737</ele>
        <time>2023-04-21T12:13:26.000Z</time>
      </trkpt>
      <trkpt lat="44.49592" lon="6.22099">
        <ele>1737</ele>
        <time>2023-04-21T12:13:27.000Z</time>
      </trkpt>
      <trkpt lat="44.49592" lon="6.22099">
        <ele>1737</ele>
        <time>2023-04-21T12:13:28.000Z</time>
      </trkpt>
      <trkpt lat="44.49593" lon="6.221">
        <ele>1736</ele>
        <time>2023-04-21T12:13:29.000Z</time>
      </trkpt>
      <trkpt lat="44.49593" lon="6.22101">
        <ele>1737</ele>
        <time>2023-04-21T12:13:30.000Z</time>
      </trkpt>
      <trkpt lat="44.49594" lon="6.22104">
        <ele>1736</ele>
        <time>2023-04-21T12:13:31.000Z</time>
      </trkpt>
      <trkpt lat="44.49594" lon="6.2211">
        <ele>1736</ele>
        <time>2023-04-21T12:13:32.000Z</time>
      </trkpt>
      <trkpt lat="44.49594" lon="6.22116">
        <ele>1735</ele>
        <time>2023-04-21T12:13:33.000Z</time>
      </trkpt>
      <trkpt lat="44.49596" lon="6.22122">
        <ele>1735</ele>
        <time>2023-04-21T12:13:34.000Z</time>
      </trkpt>
      <trkpt lat="44.49598" lon="6.22129">
        <ele>1734</ele>
        <time>2023-04-21T12:13:35.000Z</time>
      </trkpt>
      <trkpt lat="44.49602" lon="6.22135">
        <ele>1733</ele>
        <time>2023-04-21T12:13:36.000Z</time>
      </trkpt>
      <trkpt lat="44.49607" lon="6.22141">
        <ele>1734</ele>
        <time>2023-04-21T12:13:37.000Z</time>
      </trkpt>
      <trkpt lat="44.4961" lon="6.22147">
        <ele>1734</ele>
        <time>2023-04-21T12:13:38.000Z</time>
      </trkpt>
      <trkpt lat="44.49611" lon="6.22152">
        <ele>1734</ele>
        <time>2023-04-21T12:13:39.000Z</time>
      </trkpt>
      <trkpt lat="44.49612" lon="6.22156">
        <ele>1734</ele>
        <time>2023-04-21T12:13:40.000Z</time>
      </trkpt>
      <trkpt lat="44.49613" lon="6.22159">
        <ele>1734</ele>
        <time>2023-04-21T12:13:41.000Z</time>
      </trkpt>
      <trkpt lat="44.49614" lon="6.22162">
        <ele>1734</ele>
        <time>2023-04-21T12:13:42.000Z</time>
      </trkpt>
      <trkpt lat="44.49615" lon="6.22164">
        <ele>1733</ele>
        <time>2023-04-21T12:13:43.000Z</time>
      </trkpt>
      <trkpt lat="44.49615" lon="6.22165">
        <ele>1733</ele>
        <time>2023-04-21T12:13:44.000Z</time>
      </trkpt>
      <trkpt lat="44.49615" lon="6.22166">
        <ele>1734</ele>
        <time>2023-04-21T12:13:45.000Z</time>
      </trkpt>
      <trkpt lat="44.49615" lon="6.22165">
        <ele>1733</ele>
        <time>2023-04-21T12:13:46.000Z</time>
      </trkpt>
      <trkpt lat="44.49615" lon="6.22166">
        <ele>1733</ele>
        <time>2023-04-21T12:13:47.000Z</time>
      </trkpt>
      <trkpt lat="44.49615" lon="6.22166">
        <ele>1733</ele>
        <time>2023-04-21T12:13:48.000Z</time>
      </trkpt>
      <trkpt lat="44.49615" lon="6.22165">
        <ele>1733</ele>
        <time>2023-04-21T12:13:49.000Z</time>
      </trkpt>
      <trkpt lat="44.49616" lon="6.22165">
        <ele>1733</ele>
        <time>2023-04-21T12:13:50.000Z</time>
      </trkpt>
      <trkpt lat="44.49616" lon="6.22164">
        <ele>1733</ele>
        <time>2023-04-21T12:13:51.000Z</time>
      </trkpt>
      <trkpt lat="44.49616" lon="6.22164">
        <ele>1732</ele>
        <time>2023-04-21T12:13:52.000Z</time>
      </trkpt>
      <trkpt lat="44.49616" lon="6.22164">
        <ele>1732</ele>
        <time>2023-04-21T12:13:53.000Z</time>
      </trkpt>
      <trkpt lat="44.49616" lon="6.22164">
        <ele>1732</ele>
        <time>2023-04-21T12:13:54.000Z</time>
      </trkpt>
      <trkpt lat="44.49616" lon="6.22164">
        <ele>1732</ele>
        <time>2023-04-21T12:13:55.000Z</time>
      </trkpt>
      <trkpt lat="44.49616" lon="6.22164">
        <ele>1732</ele>
        <time>2023-04-21T12:13:56.000Z</time>
      </trkpt>
      <trkpt lat="44.49616" lon="6.22164">
        <ele>1732</ele>
        <time>2023-04-21T12:13:57.000Z</time>
      </trkpt>
      <trkpt lat="44.49617" lon="6.22164">
        <ele>1732</ele>
        <time>2023-04-21T12:13:58.000Z</time>
      </trkpt>
      <trkpt lat="44.49617" lon="6.22164">
        <ele>1732</ele>
        <time>2023-04-21T12:13:59.000Z</time>
      </trkpt>
      <trkpt lat="44.49617" lon="6.22164">
        <ele>1732</ele>
        <time>2023-04-21T12:14:00.000Z</time>
      </trkpt>
      <trkpt lat="44.49617" lon="6.22164">
        <ele>1732</ele>
        <time>2023-04-21T12:14:01.000Z</time>
      </trkpt>
      <trkpt lat="44.49616" lon="6.22164">
        <ele>1732</ele>
        <time>2023-04-21T12:14:02.000Z</time>
      </trkpt>
      <trkpt lat="44.49616" lon="6.22164">
        <ele>1732</ele>
        <time>2023-04-21T12:14:03.000Z</time>
      </trkpt>
      <trkpt lat="44.49616" lon="6.22164">
        <ele>1732</ele>
        <time>2023-04-21T12:14:04.000Z</time>
      </trkpt>
      <trkpt lat="44.49616" lon="6.22164">
        <ele>1732</ele>
        <time>2023-04-21T12:14:05.000Z</time>
      </trkpt>
      <trkpt lat="44.49616" lon="6.22164">
        <ele>1732</ele>
        <time>2023-04-21T12:14:06.000Z</time>
      </trkpt>
      <trkpt lat="44.49616" lon="6.22164">
        <ele>1732</ele>
        <time>2023-04-21T12:14:07.000Z</time>
      </trkpt>
      <trkpt lat="44.49616" lon="6.22164">
        <ele>1732</ele>
        <time>2023-04-21T12:14:08.000Z</time>
      </trkpt>
      <trkpt lat="44.49616" lon="6.22164">
        <ele>1732</ele>
        <time>2023-04-21T12:14:09.000Z</time>
      </trkpt>
      <trkpt lat="44.49616" lon="6.22164">
        <ele>1732</ele>
        <time>2023-04-21T12:14:10.000Z</time>
      </trkpt>
      <trkpt lat="44.49616" lon="6.22164">
        <ele>1732</ele>
        <time>2023-04-21T12:14:11.000Z</time>
      </trkpt>
      <trkpt lat="44.49616" lon="6.22164">
        <ele>1732</ele>
        <time>2023-04-21T12:14:12.000Z</time>
      </trkpt>
      <trkpt lat="44.49616" lon="6.22164">
        <ele>1732</ele>
        <time>2023-04-21T12:14:13.000Z</time>
      </trkpt>
      <trkpt lat="44.49616" lon="6.22164">
        <ele>1732</ele>
        <time>2023-04-21T12:14:14.000Z</time>
      </trkpt>
      <trkpt lat="44.49616" lon="6.22164">
        <ele>1732</ele>
        <time>2023-04-21T12:14:15.000Z</time>
      </trkpt>
      <trkpt lat="44.49616" lon="6.22164">
        <ele>1732</ele>
        <time>2023-04-21T12:14:16.000Z</time>
      </trkpt>
      <trkpt lat="44.49616" lon="6.22164">
        <ele>1732</ele>
        <time>2023-04-21T12:14:17.000Z</time>
      </trkpt>
      <trkpt lat="44.49616" lon="6.22164">
        <ele>1732</ele>
        <time>2023-04-21T12:14:18.000Z</time>
      </trkpt>
      <trkpt lat="44.49616" lon="6.22164">
        <ele>1732</ele>
        <time>2023-04-21T12:14:19.000Z</time>
      </trkpt>
      <trkpt lat="44.49616" lon="6.22164">
        <ele>1732</ele>
        <time>2023-04-21T12:14:20.000Z</time>
      </trkpt>
      <trkpt lat="44.49616" lon="6.22164">
        <ele>1732</ele>
        <time>2023-04-21T12:14:21.000Z</time>
      </trkpt>
      <trkpt lat="44.49616" lon="6.22164">
        <ele>1732</ele>
        <time>2023-04-21T12:14:22.000Z</time>
      </trkpt>
      <trkpt lat="44.49616" lon="6.22164">
        <ele>1732</ele>
        <time>2023-04-21T12:14:23.000Z</time>
      </trkpt>
      <trkpt lat="44.49616" lon="6.22164">
        <ele>1732</ele>
        <time>2023-04-21T12:14:24.000Z</time>
      </trkpt>
      <trkpt lat="44.49616" lon="6.22164">
        <ele>1732</ele>
        <time>2023-04-21T12:14:25.000Z</time>
      </trkpt>
      <trkpt lat="44.49616" lon="6.22164">
        <ele>1732</ele>
        <time>2023-04-21T12:14:26.000Z</time>
      </trkpt>
      <trkpt lat="44.49616" lon="6.22164">
        <ele>1732</ele>
        <time>2023-04-21T12:14:27.000Z</time>
      </trkpt>
      <trkpt lat="44.49616" lon="6.22164">
        <ele>1732</ele>
        <time>2023-04-21T12:14:28.000Z</time>
      </trkpt>
      <trkpt lat="44.49616" lon="6.22164">
        <ele>1732</ele>
        <time>2023-04-21T12:14:29.000Z</time>
      </trkpt>
      <trkpt lat="44.49616" lon="6.22164">
        <ele>1732</ele>
        <time>2023-04-21T12:14:30.000Z</time>
      </trkpt>
      <trkpt lat="44.49616" lon="6.22164">
        <ele>1732</ele>
        <time>2023-04-21T12:14:31.000Z</time>
      </trkpt>
      <trkpt lat="44.49616" lon="6.22164">
        <ele>1732</ele>
        <time>2023-04-21T12:14:32.000Z</time>
      </trkpt>
      <trkpt lat="44.49616" lon="6.22164">
        <ele>1732</ele>
        <time>2023-04-21T12:14:33.000Z</time>
      </trkpt>
      <trkpt lat="44.49616" lon="6.22164">
        <ele>1732</ele>
        <time>2023-04-21T12:14:34.000Z</time>
      </trkpt>
      <trkpt lat="44.49616" lon="6.22164">
        <ele>1732</ele>
        <time>2023-04-21T12:14:35.000Z</time>
      </trkpt>
      <trkpt lat="44.49616" lon="6.22164">
        <ele>1732</ele>
        <time>2023-04-21T12:14:36.000Z</time>
      </trkpt>
      <trkpt lat="44.49616" lon="6.22164">
        <ele>1732</ele>
        <time>2023-04-21T12:14:37.000Z</time>
      </trkpt>
      <trkpt lat="44.49616" lon="6.22164">
        <ele>1732</ele>
        <time>2023-04-21T12:14:38.000Z</time>
      </trkpt>
      <trkpt lat="44.49616" lon="6.22164">
        <ele>1732</ele>
        <time>2023-04-21T12:14:39.000Z</time>
      </trkpt>
      <trkpt lat="44.49616" lon="6.22164">
        <ele>1732</ele>
        <time>2023-04-21T12:14:40.000Z</time>
      </trkpt>
      <trkpt lat="44.49616" lon="6.22164">
        <ele>1732</ele>
        <time>2023-04-21T12:14:41.000Z</time>
      </trkpt>
      <trkpt lat="44.49616" lon="6.22164">
        <ele>1732</ele>
        <time>2023-04-21T12:14:42.000Z</time>
      </trkpt>
      <trkpt lat="44.49616" lon="6.22164">
        <ele>1732</ele>
        <time>2023-04-21T12:14:43.000Z</time>
      </trkpt>
      <trkpt lat="44.49616" lon="6.22164">
        <ele>1732</ele>
        <time>2023-04-21T12:14:44.000Z</time>
      </trkpt>
      <trkpt lat="44.49616" lon="6.22164">
        <ele>1732</ele>
        <time>2023-04-21T12:14:45.000Z</time>
      </trkpt>
      <trkpt lat="44.49616" lon="6.22164">
        <ele>1732</ele>
        <time>2023-04-21T12:14:46.000Z</time>
      </trkpt>
      <trkpt lat="44.49616" lon="6.22164">
        <ele>1732</ele>
        <time>2023-04-21T12:14:47.000Z</time>
      </trkpt>
      <trkpt lat="44.49616" lon="6.22164">
        <ele>1732</ele>
        <time>2023-04-21T12:14:48.000Z</time>
      </trkpt>
      <trkpt lat="44.49616" lon="6.22164">
        <ele>1732</ele>
        <time>2023-04-21T12:14:49.000Z</time>
      </trkpt>
      <trkpt lat="44.49616" lon="6.22164">
        <ele>1732</ele>
        <time>2023-04-21T12:14:50.000Z</time>
      </trkpt>
      <trkpt lat="44.49616" lon="6.22164">
        <ele>1732</ele>
        <time>2023-04-21T12:14:51.000Z</time>
      </trkpt>
      <trkpt lat="44.49616" lon="6.22164">
        <ele>1732</ele>
        <time>2023-04-21T12:14:52.000Z</time>
      </trkpt>
      <trkpt lat="44.49616" lon="6.22164">
        <ele>1732</ele>
        <time>2023-04-21T12:14:53.000Z</time>
      </trkpt>
      <trkpt lat="44.49616" lon="6.22164">
        <ele>1732</ele>
        <time>2023-04-21T12:14:54.000Z</time>
      </trkpt>
      <trkpt lat="44.49616" lon="6.22164">
        <ele>1732</ele>
        <time>2023-04-21T12:14:55.000Z</time>
      </trkpt>
      <trkpt lat="44.49616" lon="6.22164">
        <ele>1732</ele>
        <time>2023-04-21T12:14:56.000Z</time>
      </trkpt>
      <trkpt lat="44.49616" lon="6.22164">
        <ele>1732</ele>
        <time>2023-04-21T12:14:57.000Z</time>
      </trkpt>
      <trkpt lat="44.49616" lon="6.22163">
        <ele>1732</ele>
        <time>2023-04-21T12:14:58.000Z</time>
      </trkpt>
      <trkpt lat="44.49616" lon="6.22163">
        <ele>1732</ele>
        <time>2023-04-21T12:14:59.000Z</time>
      </trkpt>
      <trkpt lat="44.49616" lon="6.22163">
        <ele>1732</ele>
        <time>2023-04-21T12:15:00.000Z</time>
      </trkpt>
      <trkpt lat="44.49616" lon="6.22163">
        <ele>1732</ele>
        <time>2023-04-21T12:15:01.000Z</time>
      </trkpt>
      <trkpt lat="44.49616" lon="6.22163">
        <ele>1732</ele>
        <time>2023-04-21T12:15:02.000Z</time>
      </trkpt>
      <trkpt lat="44.49616" lon="6.22163">
        <ele>1732</ele>
        <time>2023-04-21T12:15:03.000Z</time>
      </trkpt>
      <trkpt lat="44.49616" lon="6.22163">
        <ele>1732</ele>
        <time>2023-04-21T12:15:04.000Z</time>
      </trkpt>
      <trkpt lat="44.49616" lon="6.22163">
        <ele>1732</ele>
        <time>2023-04-21T12:15:05.000Z</time>
      </trkpt>
      <trkpt lat="44.49616" lon="6.22163">
        <ele>1732</ele>
        <time>2023-04-21T12:15:06.000Z</time>
      </trkpt>
      <trkpt lat="44.49616" lon="6.22163">
        <ele>1732</ele>
        <time>2023-04-21T12:15:07.000Z</time>
      </trkpt>
      <trkpt lat="44.49616" lon="6.22163">
        <ele>1732</ele>
        <time>2023-04-21T12:15:08.000Z</time>
      </trkpt>
      <trkpt lat="44.49616" lon="6.22163">
        <ele>1732</ele>
        <time>2023-04-21T12:15:09.000Z</time>
      </trkpt>
      <trkpt lat="44.49616" lon="6.22163">
        <ele>1732</ele>
        <time>2023-04-21T12:15:10.000Z</time>
      </trkpt>
      <trkpt lat="44.49616" lon="6.22163">
        <ele>1732</ele>
        <time>2023-04-21T12:15:11.000Z</time>
      </trkpt>
      <trkpt lat="44.49616" lon="6.22163">
        <ele>1732</ele>
        <time>2023-04-21T12:15:12.000Z</time>
      </trkpt>
      <trkpt lat="44.49616" lon="6.22163">
        <ele>1732</ele>
        <time>2023-04-21T12:15:13.000Z</time>
      </trkpt>
      <trkpt lat="44.49616" lon="6.22163">
        <ele>1732</ele>
        <time>2023-04-21T12:15:14.000Z</time>
      </trkpt>
      <trkpt lat="44.49616" lon="6.22163">
        <ele>1732</ele>
        <time>2023-04-21T12:15:15.000Z</time>
      </trkpt>
      <trkpt lat="44.49616" lon="6.22163">
        <ele>1732</ele>
        <time>2023-04-21T12:15:16.000Z</time>
      </trkpt>
      <trkpt lat="44.49616" lon="6.22163">
        <ele>1732</ele>
        <time>2023-04-21T12:15:17.000Z</time>
      </trkpt>
      <trkpt lat="44.49616" lon="6.22163">
        <ele>1732</ele>
        <time>2023-04-21T12:15:18.000Z</time>
      </trkpt>
      <trkpt lat="44.49616" lon="6.22163">
        <ele>1732</ele>
        <time>2023-04-21T12:15:19.000Z</time>
      </trkpt>
      <trkpt lat="44.49616" lon="6.22163">
        <ele>1732</ele>
        <time>2023-04-21T12:15:20.000Z</time>
      </trkpt>
      <trkpt lat="44.49616" lon="6.22163">
        <ele>1732</ele>
        <time>2023-04-21T12:15:21.000Z</time>
      </trkpt>
      <trkpt lat="44.49616" lon="6.22163">
        <ele>1732</ele>
        <time>2023-04-21T12:15:22.000Z</time>
      </trkpt>
      <trkpt lat="44.49616" lon="6.22163">
        <ele>1732</ele>
        <time>2023-04-21T12:15:23.000Z</time>
      </trkpt>
      <trkpt lat="44.49616" lon="6.22163">
        <ele>1732</ele>
        <time>2023-04-21T12:15:24.000Z</time>
      </trkpt>
      <trkpt lat="44.49616" lon="6.22163">
        <ele>1732</ele>
        <time>2023-04-21T12:15:25.000Z</time>
      </trkpt>
      <trkpt lat="44.49616" lon="6.22163">
        <ele>1732</ele>
        <time>2023-04-21T12:15:26.000Z</time>
      </trkpt>
      <trkpt lat="44.49616" lon="6.22163">
        <ele>1732</ele>
        <time>2023-04-21T12:15:27.000Z</time>
      </trkpt>
      <trkpt lat="44.49616" lon="6.22163">
        <ele>1732</ele>
        <time>2023-04-21T12:15:28.000Z</time>
      </trkpt>
      <trkpt lat="44.49616" lon="6.22163">
        <ele>1732</ele>
        <time>2023-04-21T12:15:29.000Z</time>
      </trkpt>
      <trkpt lat="44.49616" lon="6.22164">
        <ele>1732</ele>
        <time>2023-04-21T12:15:30.000Z</time>
      </trkpt>
      <trkpt lat="44.49616" lon="6.22164">
        <ele>1732</ele>
        <time>2023-04-21T12:15:31.000Z</time>
      </trkpt>
      <trkpt lat="44.49616" lon="6.22164">
        <ele>1732</ele>
        <time>2023-04-21T12:15:32.000Z</time>
      </trkpt>
      <trkpt lat="44.49616" lon="6.22164">
        <ele>1732</ele>
        <time>2023-04-21T12:15:33.000Z</time>
      </trkpt>
      <trkpt lat="44.49616" lon="6.22164">
        <ele>1732</ele>
        <time>2023-04-21T12:15:34.000Z</time>
      </trkpt>
      <trkpt lat="44.49616" lon="6.22164">
        <ele>1732</ele>
        <time>2023-04-21T12:15:35.000Z</time>
      </trkpt>
      <trkpt lat="44.49616" lon="6.22164">
        <ele>1732</ele>
        <time>2023-04-21T12:15:36.000Z</time>
      </trkpt>
      <trkpt lat="44.49616" lon="6.22164">
        <ele>1732</ele>
        <time>2023-04-21T12:15:37.000Z</time>
      </trkpt>
      <trkpt lat="44.49616" lon="6.22164">
        <ele>1732</ele>
        <time>2023-04-21T12:15:38.000Z</time>
      </trkpt>
      <trkpt lat="44.49616" lon="6.22164">
        <ele>1732</ele>
        <time>2023-04-21T12:15:39.000Z</time>
      </trkpt>
      <trkpt lat="44.49616" lon="6.22164">
        <ele>1732</ele>
        <time>2023-04-21T12:15:40.000Z</time>
      </trkpt>
      <trkpt lat="44.49616" lon="6.22164">
        <ele>1732</ele>
        <time>2023-04-21T12:15:41.000Z</time>
      </trkpt>
      <trkpt lat="44.49616" lon="6.22164">
        <ele>1732</ele>
        <time>2023-04-21T12:15:42.000Z</time>
      </trkpt>
      <trkpt lat="44.49616" lon="6.22164">
        <ele>1732</ele>
        <time>2023-04-21T12:15:43.000Z</time>
      </trkpt>
      <trkpt lat="44.49616" lon="6.22164">
        <ele>1732</ele>
        <time>2023-04-21T12:15:44.000Z</time>
      </trkpt>
      <trkpt lat="44.49616" lon="6.22164">
        <ele>1732</ele>
        <time>2023-04-21T12:15:45.000Z</time>
      </trkpt>
      <trkpt lat="44.49617" lon="6.22164">
        <ele>1732</ele>
        <time>2023-04-21T12:15:46.000Z</time>
      </trkpt>
      <trkpt lat="44.49617" lon="6.22164">
        <ele>1732</ele>
        <time>2023-04-21T12:15:47.000Z</time>
      </trkpt>
      <trkpt lat="44.49617" lon="6.22164">
        <ele>1732</ele>
        <time>2023-04-21T12:15:48.000Z</time>
      </trkpt>
      <trkpt lat="44.49617" lon="6.22164">
        <ele>1732</ele>
        <time>2023-04-21T12:15:49.000Z</time>
      </trkpt>
      <trkpt lat="44.49617" lon="6.22164">
        <ele>1732</ele>
        <time>2023-04-21T12:15:50.000Z</time>
      </trkpt>
      <trkpt lat="44.49617" lon="6.22164">
        <ele>1732</ele>
        <time>2023-04-21T12:15:51.000Z</time>
      </trkpt>
      <trkpt lat="44.49617" lon="6.22164">
        <ele>1732</ele>
        <time>2023-04-21T12:15:52.000Z</time>
      </trkpt>
      <trkpt lat="44.49617" lon="6.22164">
        <ele>1732</ele>
        <time>2023-04-21T12:15:53.000Z</time>
      </trkpt>
      <trkpt lat="44.49617" lon="6.22164">
        <ele>1731</ele>
        <time>2023-04-21T12:15:54.000Z</time>
      </trkpt>
      <trkpt lat="44.49617" lon="6.22164">
        <ele>1731</ele>
        <time>2023-04-21T12:15:55.000Z</time>
      </trkpt>
      <trkpt lat="44.49617" lon="6.22164">
        <ele>1731</ele>
        <time>2023-04-21T12:15:56.000Z</time>
      </trkpt>
      <trkpt lat="44.49617" lon="6.22164">
        <ele>1732</ele>
        <time>2023-04-21T12:15:57.000Z</time>
      </trkpt>
      <trkpt lat="44.49617" lon="6.22164">
        <ele>1732</ele>
        <time>2023-04-21T12:15:58.000Z</time>
      </trkpt>
      <trkpt lat="44.49617" lon="6.22164">
        <ele>1732</ele>
        <time>2023-04-21T12:15:59.000Z</time>
      </trkpt>
      <trkpt lat="44.49617" lon="6.22164">
        <ele>1732</ele>
        <time>2023-04-21T12:16:00.000Z</time>
      </trkpt>
      <trkpt lat="44.49617" lon="6.22164">
        <ele>1732</ele>
        <time>2023-04-21T12:16:01.000Z</time>
      </trkpt>
      <trkpt lat="44.49617" lon="6.22164">
        <ele>1732</ele>
        <time>2023-04-21T12:16:02.000Z</time>
      </trkpt>
      <trkpt lat="44.49617" lon="6.22164">
        <ele>1732</ele>
        <time>2023-04-21T12:16:03.000Z</time>
      </trkpt>
      <trkpt lat="44.49617" lon="6.22164">
        <ele>1732</ele>
        <time>2023-04-21T12:16:04.000Z</time>
      </trkpt>
      <trkpt lat="44.49617" lon="6.22164">
        <ele>1732</ele>
        <time>2023-04-21T12:16:05.000Z</time>
      </trkpt>
      <trkpt lat="44.49617" lon="6.22164">
        <ele>1732</ele>
        <time>2023-04-21T12:16:06.000Z</time>
      </trkpt>
      <trkpt lat="44.49617" lon="6.22164">
        <ele>1732</ele>
        <time>2023-04-21T12:16:07.000Z</time>
      </trkpt>
      <trkpt lat="44.49617" lon="6.22164">
        <ele>1732</ele>
        <time>2023-04-21T12:16:08.000Z</time>
      </trkpt>
      <trkpt lat="44.49617" lon="6.22164">
        <ele>1732</ele>
        <time>2023-04-21T12:16:09.000Z</time>
      </trkpt>
      <trkpt lat="44.49617" lon="6.22164">
        <ele>1732</ele>
        <time>2023-04-21T12:16:10.000Z</time>
      </trkpt>
      <trkpt lat="44.49617" lon="6.22164">
        <ele>1732</ele>
        <time>2023-04-21T12:16:11.000Z</time>
      </trkpt>
      <trkpt lat="44.49617" lon="6.22164">
        <ele>1732</ele>
        <time>2023-04-21T12:16:12.000Z</time>
      </trkpt>
      <trkpt lat="44.49617" lon="6.22164">
        <ele>1732</ele>
        <time>2023-04-21T12:16:13.000Z</time>
      </trkpt>
      <trkpt lat="44.49617" lon="6.22164">
        <ele>1732</ele>
        <time>2023-04-21T12:16:14.000Z</time>
      </trkpt>
      <trkpt lat="44.49617" lon="6.22164">
        <ele>1732</ele>
        <time>2023-04-21T12:16:15.000Z</time>
      </trkpt>
      <trkpt lat="44.49617" lon="6.22164">
        <ele>1732</ele>
        <time>2023-04-21T12:16:16.000Z</time>
      </trkpt>
      <trkpt lat="44.49617" lon="6.22165">
        <ele>1732</ele>
        <time>2023-04-21T12:16:17.000Z</time>
      </trkpt>
      <trkpt lat="44.49617" lon="6.22165">
        <ele>1732</ele>
        <time>2023-04-21T12:16:18.000Z</time>
      </trkpt>
      <trkpt lat="44.49617" lon="6.22165">
        <ele>1732</ele>
        <time>2023-04-21T12:16:19.000Z</time>
      </trkpt>
      <trkpt lat="44.49617" lon="6.22165">
        <ele>1732</ele>
        <time>2023-04-21T12:16:20.000Z</time>
      </trkpt>
      <trkpt lat="44.49616" lon="6.22165">
        <ele>1732</ele>
        <time>2023-04-21T12:16:21.000Z</time>
      </trkpt>
      <trkpt lat="44.49616" lon="6.22165">
        <ele>1732</ele>
        <time>2023-04-21T12:16:22.000Z</time>
      </trkpt>
      <trkpt lat="44.49616" lon="6.22166">
        <ele>1732</ele>
        <time>2023-04-21T12:16:23.000Z</time>
      </trkpt>
      <trkpt lat="44.49615" lon="6.22166">
        <ele>1732</ele>
        <time>2023-04-21T12:16:24.000Z</time>
      </trkpt>
      <trkpt lat="44.49615" lon="6.22165">
        <ele>1732</ele>
        <time>2023-04-21T12:16:25.000Z</time>
      </trkpt>
      <trkpt lat="44.49614" lon="6.22164">
        <ele>1732</ele>
        <time>2023-04-21T12:16:26.000Z</time>
      </trkpt>
      <trkpt lat="44.49614" lon="6.22163">
        <ele>1732</ele>
        <time>2023-04-21T12:16:27.000Z</time>
      </trkpt>
      <trkpt lat="44.49614" lon="6.22162">
        <ele>1733</ele>
        <time>2023-04-21T12:16:28.000Z</time>
      </trkpt>
      <trkpt lat="44.49613" lon="6.22161">
        <ele>1733</ele>
        <time>2023-04-21T12:16:29.000Z</time>
      </trkpt>
      <trkpt lat="44.49613" lon="6.22161">
        <ele>1733</ele>
        <time>2023-04-21T12:16:30.000Z</time>
      </trkpt>
      <trkpt lat="44.49612" lon="6.2216">
        <ele>1733</ele>
        <time>2023-04-21T12:16:31.000Z</time>
      </trkpt>
      <trkpt lat="44.49612" lon="6.22159">
        <ele>1733</ele>
        <time>2023-04-21T12:16:32.000Z</time>
      </trkpt>
      <trkpt lat="44.49612" lon="6.22157">
        <ele>1733</ele>
        <time>2023-04-21T12:16:33.000Z</time>
      </trkpt>
      <trkpt lat="44.49611" lon="6.22157">
        <ele>1733</ele>
        <time>2023-04-21T12:16:34.000Z</time>
      </trkpt>
      <trkpt lat="44.49612" lon="6.22156">
        <ele>1733</ele>
        <time>2023-04-21T12:16:35.000Z</time>
      </trkpt>
      <trkpt lat="44.49611" lon="6.22156">
        <ele>1733</ele>
        <time>2023-04-21T12:16:36.000Z</time>
      </trkpt>
      <trkpt lat="44.49611" lon="6.22156">
        <ele>1733</ele>
        <time>2023-04-21T12:16:37.000Z</time>
      </trkpt>
      <trkpt lat="44.49611" lon="6.22154">
        <ele>1732</ele>
        <time>2023-04-21T12:16:38.000Z</time>
      </trkpt>
      <trkpt lat="44.4961" lon="6.22151">
        <ele>1732</ele>
        <time>2023-04-21T12:16:39.000Z</time>
      </trkpt>
      <trkpt lat="44.49609" lon="6.22149">
        <ele>1733</ele>
        <time>2023-04-21T12:16:40.000Z</time>
      </trkpt>
      <trkpt lat="44.49608" lon="6.22146">
        <ele>1733</ele>
        <time>2023-04-21T12:16:41.000Z</time>
      </trkpt>
      <trkpt lat="44.49608" lon="6.22144">
        <ele>1733</ele>
        <time>2023-04-21T12:16:42.000Z</time>
      </trkpt>
      <trkpt lat="44.49607" lon="6.22141">
        <ele>1733</ele>
        <time>2023-04-21T12:16:43.000Z</time>
      </trkpt>
      <trkpt lat="44.49606" lon="6.22138">
        <ele>1733</ele>
        <time>2023-04-21T12:16:44.000Z</time>
      </trkpt>
      <trkpt lat="44.49606" lon="6.22135">
        <ele>1733</ele>
        <time>2023-04-21T12:16:45.000Z</time>
      </trkpt>
      <trkpt lat="44.49605" lon="6.22132">
        <ele>1733</ele>
        <time>2023-04-21T12:16:46.000Z</time>
      </trkpt>
      <trkpt lat="44.49605" lon="6.22129">
        <ele>1733</ele>
        <time>2023-04-21T12:16:47.000Z</time>
      </trkpt>
      <trkpt lat="44.49604" lon="6.22126">
        <ele>1733</ele>
        <time>2023-04-21T12:16:48.000Z</time>
      </trkpt>
      <trkpt lat="44.49604" lon="6.22123">
        <ele>1733</ele>
        <time>2023-04-21T12:16:49.000Z</time>
      </trkpt>
      <trkpt lat="44.49603" lon="6.2212">
        <ele>1733</ele>
        <time>2023-04-21T12:16:50.000Z</time>
      </trkpt>
      <trkpt lat="44.49603" lon="6.22117">
        <ele>1733</ele>
        <time>2023-04-21T12:16:51.000Z</time>
      </trkpt>
      <trkpt lat="44.49603" lon="6.22113">
        <ele>1733</ele>
        <time>2023-04-21T12:16:52.000Z</time>
      </trkpt>
      <trkpt lat="44.49603" lon="6.22111">
        <ele>1734</ele>
        <time>2023-04-21T12:16:53.000Z</time>
      </trkpt>
      <trkpt lat="44.49603" lon="6.22108">
        <ele>1734</ele>
        <time>2023-04-21T12:16:54.000Z</time>
      </trkpt>
      <trkpt lat="44.49604" lon="6.22105">
        <ele>1734</ele>
        <time>2023-04-21T12:16:55.000Z</time>
      </trkpt>
      <trkpt lat="44.49604" lon="6.22102">
        <ele>1734</ele>
        <time>2023-04-21T12:16:56.000Z</time>
      </trkpt>
      <trkpt lat="44.49604" lon="6.22099">
        <ele>1735</ele>
        <time>2023-04-21T12:16:57.000Z</time>
      </trkpt>
      <trkpt lat="44.49604" lon="6.22096">
        <ele>1735</ele>
        <time>2023-04-21T12:16:58.000Z</time>
      </trkpt>
      <trkpt lat="44.49605" lon="6.22093">
        <ele>1735</ele>
        <time>2023-04-21T12:16:59.000Z</time>
      </trkpt>
      <trkpt lat="44.49605" lon="6.2209">
        <ele>1736</ele>
        <time>2023-04-21T12:17:00.000Z</time>
      </trkpt>
      <trkpt lat="44.49605" lon="6.22087">
        <ele>1736</ele>
        <time>2023-04-21T12:17:01.000Z</time>
      </trkpt>
      <trkpt lat="44.49604" lon="6.22084">
        <ele>1736</ele>
        <time>2023-04-21T12:17:02.000Z</time>
      </trkpt>
      <trkpt lat="44.49604" lon="6.22081">
        <ele>1736</ele>
        <time>2023-04-21T12:17:03.000Z</time>
      </trkpt>
      <trkpt lat="44.49604" lon="6.22078">
        <ele>1737</ele>
        <time>2023-04-21T12:17:04.000Z</time>
      </trkpt>
      <trkpt lat="44.49604" lon="6.22075">
        <ele>1737</ele>
        <time>2023-04-21T12:17:05.000Z</time>
      </trkpt>
      <trkpt lat="44.49604" lon="6.22072">
        <ele>1737</ele>
        <time>2023-04-21T12:17:06.000Z</time>
      </trkpt>
      <trkpt lat="44.49603" lon="6.22069">
        <ele>1737</ele>
        <time>2023-04-21T12:17:07.000Z</time>
      </trkpt>
      <trkpt lat="44.49603" lon="6.22066">
        <ele>1738</ele>
        <time>2023-04-21T12:17:08.000Z</time>
      </trkpt>
      <trkpt lat="44.49602" lon="6.22063">
        <ele>1738</ele>
        <time>2023-04-21T12:17:09.000Z</time>
      </trkpt>
      <trkpt lat="44.49602" lon="6.2206">
        <ele>1738</ele>
        <time>2023-04-21T12:17:10.000Z</time>
      </trkpt>
      <trkpt lat="44.49601" lon="6.22057">
        <ele>1738</ele>
        <time>2023-04-21T12:17:11.000Z</time>
      </trkpt>
      <trkpt lat="44.49601" lon="6.22054">
        <ele>1738</ele>
        <time>2023-04-21T12:17:12.000Z</time>
      </trkpt>
      <trkpt lat="44.496" lon="6.22051">
        <ele>1738</ele>
        <time>2023-04-21T12:17:13.000Z</time>
      </trkpt>
      <trkpt lat="44.49599" lon="6.22048">
        <ele>1739</ele>
        <time>2023-04-21T12:17:14.000Z</time>
      </trkpt>
      <trkpt lat="44.49598" lon="6.22045">
        <ele>1739</ele>
        <time>2023-04-21T12:17:15.000Z</time>
      </trkpt>
      <trkpt lat="44.49598" lon="6.22042">
        <ele>1739</ele>
        <time>2023-04-21T12:17:16.000Z</time>
      </trkpt>
      <trkpt lat="44.49597" lon="6.22039">
        <ele>1739</ele>
        <time>2023-04-21T12:17:17.000Z</time>
      </trkpt>
      <trkpt lat="44.49596" lon="6.22036">
        <ele>1739</ele>
        <time>2023-04-21T12:17:18.000Z</time>
      </trkpt>
      <trkpt lat="44.49595" lon="6.22033">
        <ele>1739</ele>
        <time>2023-04-21T12:17:19.000Z</time>
      </trkpt>
      <trkpt lat="44.49595" lon="6.2203">
        <ele>1739</ele>
        <time>2023-04-21T12:17:20.000Z</time>
      </trkpt>
      <trkpt lat="44.49594" lon="6.22027">
        <ele>1740</ele>
        <time>2023-04-21T12:17:21.000Z</time>
      </trkpt>
      <trkpt lat="44.49593" lon="6.22024">
        <ele>1740</ele>
        <time>2023-04-21T12:17:22.000Z</time>
      </trkpt>
      <trkpt lat="44.49592" lon="6.22022">
        <ele>1740</ele>
        <time>2023-04-21T12:17:23.000Z</time>
      </trkpt>
      <trkpt lat="44.49591" lon="6.22019">
        <ele>1740</ele>
        <time>2023-04-21T12:17:24.000Z</time>
      </trkpt>
      <trkpt lat="44.49591" lon="6.22016">
        <ele>1741</ele>
        <time>2023-04-21T12:17:25.000Z</time>
      </trkpt>
      <trkpt lat="44.4959" lon="6.22013">
        <ele>1741</ele>
        <time>2023-04-21T12:17:26.000Z</time>
      </trkpt>
      <trkpt lat="44.49589" lon="6.2201">
        <ele>1741</ele>
        <time>2023-04-21T12:17:27.000Z</time>
      </trkpt>
      <trkpt lat="44.49588" lon="6.22007">
        <ele>1741</ele>
        <time>2023-04-21T12:17:28.000Z</time>
      </trkpt>
      <trkpt lat="44.49586" lon="6.22004">
        <ele>1742</ele>
        <time>2023-04-21T12:17:29.000Z</time>
      </trkpt>
      <trkpt lat="44.49585" lon="6.22001">
        <ele>1742</ele>
        <time>2023-04-21T12:17:30.000Z</time>
      </trkpt>
      <trkpt lat="44.49585" lon="6.21998">
        <ele>1742</ele>
        <time>2023-04-21T12:17:31.000Z</time>
      </trkpt>
      <trkpt lat="44.49584" lon="6.21995">
        <ele>1742</ele>
        <time>2023-04-21T12:17:32.000Z</time>
      </trkpt>
      <trkpt lat="44.49583" lon="6.21992">
        <ele>1742</ele>
        <time>2023-04-21T12:17:33.000Z</time>
      </trkpt>
      <trkpt lat="44.49583" lon="6.21989">
        <ele>1742</ele>
        <time>2023-04-21T12:17:34.000Z</time>
      </trkpt>
      <trkpt lat="44.49582" lon="6.21986">
        <ele>1742</ele>
        <time>2023-04-21T12:17:35.000Z</time>
      </trkpt>
      <trkpt lat="44.49581" lon="6.21982">
        <ele>1742</ele>
        <time>2023-04-21T12:17:36.000Z</time>
      </trkpt>
      <trkpt lat="44.49581" lon="6.21979">
        <ele>1742</ele>
        <time>2023-04-21T12:17:37.000Z</time>
      </trkpt>
      <trkpt lat="44.4958" lon="6.21976">
        <ele>1742</ele>
        <time>2023-04-21T12:17:38.000Z</time>
      </trkpt>
      <trkpt lat="44.4958" lon="6.21973">
        <ele>1743</ele>
        <time>2023-04-21T12:17:39.000Z</time>
      </trkpt>
      <trkpt lat="44.4958" lon="6.21969">
        <ele>1743</ele>
        <time>2023-04-21T12:17:40.000Z</time>
      </trkpt>
      <trkpt lat="44.49579" lon="6.21966">
        <ele>1743</ele>
        <time>2023-04-21T12:17:41.000Z</time>
      </trkpt>
      <trkpt lat="44.49579" lon="6.21963">
        <ele>1744</ele>
        <time>2023-04-21T12:17:42.000Z</time>
      </trkpt>
      <trkpt lat="44.49578" lon="6.2196">
        <ele>1744</ele>
        <time>2023-04-21T12:17:43.000Z</time>
      </trkpt>
      <trkpt lat="44.49578" lon="6.21957">
        <ele>1744</ele>
        <time>2023-04-21T12:17:44.000Z</time>
      </trkpt>
      <trkpt lat="44.49578" lon="6.21954">
        <ele>1744</ele>
        <time>2023-04-21T12:17:45.000Z</time>
      </trkpt>
      <trkpt lat="44.49577" lon="6.2195">
        <ele>1744</ele>
        <time>2023-04-21T12:17:46.000Z</time>
      </trkpt>
      <trkpt lat="44.49577" lon="6.21947">
        <ele>1744</ele>
        <time>2023-04-21T12:17:47.000Z</time>
      </trkpt>
      <trkpt lat="44.49576" lon="6.21943">
        <ele>1744</ele>
        <time>2023-04-21T12:17:48.000Z</time>
      </trkpt>
      <trkpt lat="44.49576" lon="6.2194">
        <ele>1745</ele>
        <time>2023-04-21T12:17:49.000Z</time>
      </trkpt>
      <trkpt lat="44.49575" lon="6.21936">
        <ele>1744</ele>
        <time>2023-04-21T12:17:50.000Z</time>
      </trkpt>
      <trkpt lat="44.49575" lon="6.21933">
        <ele>1745</ele>
        <time>2023-04-21T12:17:51.000Z</time>
      </trkpt>
      <trkpt lat="44.49574" lon="6.2193">
        <ele>1745</ele>
        <time>2023-04-21T12:17:52.000Z</time>
      </trkpt>
      <trkpt lat="44.49574" lon="6.21927">
        <ele>1745</ele>
        <time>2023-04-21T12:17:53.000Z</time>
      </trkpt>
      <trkpt lat="44.49573" lon="6.21924">
        <ele>1745</ele>
        <time>2023-04-21T12:17:54.000Z</time>
      </trkpt>
      <trkpt lat="44.49573" lon="6.21921">
        <ele>1745</ele>
        <time>2023-04-21T12:17:55.000Z</time>
      </trkpt>
      <trkpt lat="44.49572" lon="6.21917">
        <ele>1745</ele>
        <time>2023-04-21T12:17:56.000Z</time>
      </trkpt>
      <trkpt lat="44.49572" lon="6.21914">
        <ele>1745</ele>
        <time>2023-04-21T12:17:57.000Z</time>
      </trkpt>
      <trkpt lat="44.49571" lon="6.21911">
        <ele>1745</ele>
        <time>2023-04-21T12:17:58.000Z</time>
      </trkpt>
      <trkpt lat="44.49571" lon="6.21909">
        <ele>1745</ele>
        <time>2023-04-21T12:17:59.000Z</time>
      </trkpt>
      <trkpt lat="44.4957" lon="6.21906">
        <ele>1745</ele>
        <time>2023-04-21T12:18:00.000Z</time>
      </trkpt>
      <trkpt lat="44.4957" lon="6.21903">
        <ele>1745</ele>
        <time>2023-04-21T12:18:01.000Z</time>
      </trkpt>
      <trkpt lat="44.49569" lon="6.219">
        <ele>1745</ele>
        <time>2023-04-21T12:18:02.000Z</time>
      </trkpt>
      <trkpt lat="44.49568" lon="6.21897">
        <ele>1745</ele>
        <time>2023-04-21T12:18:03.000Z</time>
      </trkpt>
      <trkpt lat="44.49568" lon="6.21894">
        <ele>1745</ele>
        <time>2023-04-21T12:18:04.000Z</time>
      </trkpt>
      <trkpt lat="44.49567" lon="6.21892">
        <ele>1746</ele>
        <time>2023-04-21T12:18:05.000Z</time>
      </trkpt>
      <trkpt lat="44.49567" lon="6.21889">
        <ele>1746</ele>
        <time>2023-04-21T12:18:06.000Z</time>
      </trkpt>
      <trkpt lat="44.49566" lon="6.21886">
        <ele>1746</ele>
        <time>2023-04-21T12:18:07.000Z</time>
      </trkpt>
      <trkpt lat="44.49566" lon="6.21884">
        <ele>1746</ele>
        <time>2023-04-21T12:18:08.000Z</time>
      </trkpt>
      <trkpt lat="44.49565" lon="6.21881">
        <ele>1746</ele>
        <time>2023-04-21T12:18:09.000Z</time>
      </trkpt>
      <trkpt lat="44.49564" lon="6.21878">
        <ele>1746</ele>
        <time>2023-04-21T12:18:10.000Z</time>
      </trkpt>
      <trkpt lat="44.49563" lon="6.21873">
        <ele>1746</ele>
        <time>2023-04-21T12:18:11.000Z</time>
      </trkpt>
      <trkpt lat="44.49562" lon="6.21869">
        <ele>1745</ele>
        <time>2023-04-21T12:18:12.000Z</time>
      </trkpt>
      <trkpt lat="44.49561" lon="6.21865">
        <ele>1745</ele>
        <time>2023-04-21T12:18:13.000Z</time>
      </trkpt>
      <trkpt lat="44.4956" lon="6.21861">
        <ele>1745</ele>
        <time>2023-04-21T12:18:14.000Z</time>
      </trkpt>
      <trkpt lat="44.4956" lon="6.21858">
        <ele>1745</ele>
        <time>2023-04-21T12:18:15.000Z</time>
      </trkpt>
      <trkpt lat="44.49559" lon="6.21855">
        <ele>1745</ele>
        <time>2023-04-21T12:18:16.000Z</time>
      </trkpt>
      <trkpt lat="44.49558" lon="6.21853">
        <ele>1745</ele>
        <time>2023-04-21T12:18:17.000Z</time>
      </trkpt>
      <trkpt lat="44.49558" lon="6.2185">
        <ele>1745</ele>
        <time>2023-04-21T12:18:18.000Z</time>
      </trkpt>
      <trkpt lat="44.49557" lon="6.21848">
        <ele>1744</ele>
        <time>2023-04-21T12:18:19.000Z</time>
      </trkpt>
      <trkpt lat="44.49557" lon="6.21846">
        <ele>1744</ele>
        <time>2023-04-21T12:18:20.000Z</time>
      </trkpt>
      <trkpt lat="44.49557" lon="6.21844">
        <ele>1744</ele>
        <time>2023-04-21T12:18:21.000Z</time>
      </trkpt>
      <trkpt lat="44.49557" lon="6.21841">
        <ele>1744</ele>
        <time>2023-04-21T12:18:22.000Z</time>
      </trkpt>
      <trkpt lat="44.49557" lon="6.21839">
        <ele>1744</ele>
        <time>2023-04-21T12:18:23.000Z</time>
      </trkpt>
      <trkpt lat="44.49557" lon="6.21836">
        <ele>1744</ele>
        <time>2023-04-21T12:18:24.000Z</time>
      </trkpt>
      <trkpt lat="44.49557" lon="6.21833">
        <ele>1744</ele>
        <time>2023-04-21T12:18:25.000Z</time>
      </trkpt>
      <trkpt lat="44.49557" lon="6.21832">
        <ele>1744</ele>
        <time>2023-04-21T12:18:26.000Z</time>
      </trkpt>
      <trkpt lat="44.49557" lon="6.21832">
        <ele>1745</ele>
        <time>2023-04-21T12:18:27.000Z</time>
      </trkpt>
      <trkpt lat="44.49557" lon="6.21832">
        <ele>1745</ele>
        <time>2023-04-21T12:18:28.000Z</time>
      </trkpt>
      <trkpt lat="44.49557" lon="6.21832">
        <ele>1745</ele>
        <time>2023-04-21T12:18:29.000Z</time>
      </trkpt>
      <trkpt lat="44.49557" lon="6.21831">
        <ele>1744</ele>
        <time>2023-04-21T12:18:30.000Z</time>
      </trkpt>
      <trkpt lat="44.49557" lon="6.21831">
        <ele>1744</ele>
        <time>2023-04-21T12:18:31.000Z</time>
      </trkpt>
      <trkpt lat="44.49557" lon="6.21831">
        <ele>1744</ele>
        <time>2023-04-21T12:18:32.000Z</time>
      </trkpt>
      <trkpt lat="44.49557" lon="6.21831">
        <ele>1744</ele>
        <time>2023-04-21T12:18:33.000Z</time>
      </trkpt>
      <trkpt lat="44.49556" lon="6.21829">
        <ele>1744</ele>
        <time>2023-04-21T12:18:34.000Z</time>
      </trkpt>
      <trkpt lat="44.49555" lon="6.21827">
        <ele>1743</ele>
        <time>2023-04-21T12:18:35.000Z</time>
      </trkpt>
      <trkpt lat="44.49553" lon="6.21825">
        <ele>1743</ele>
        <time>2023-04-21T12:18:36.000Z</time>
      </trkpt>
      <trkpt lat="44.49552" lon="6.21823">
        <ele>1743</ele>
        <time>2023-04-21T12:18:37.000Z</time>
      </trkpt>
      <trkpt lat="44.4955" lon="6.21821">
        <ele>1743</ele>
        <time>2023-04-21T12:18:38.000Z</time>
      </trkpt>
      <trkpt lat="44.49548" lon="6.21818">
        <ele>1743</ele>
        <time>2023-04-21T12:18:39.000Z</time>
      </trkpt>
      <trkpt lat="44.49547" lon="6.21816">
        <ele>1743</ele>
        <time>2023-04-21T12:18:40.000Z</time>
      </trkpt>
      <trkpt lat="44.49545" lon="6.21813">
        <ele>1743</ele>
        <time>2023-04-21T12:18:41.000Z</time>
      </trkpt>
      <trkpt lat="44.49542" lon="6.21811">
        <ele>1742</ele>
        <time>2023-04-21T12:18:42.000Z</time>
      </trkpt>
      <trkpt lat="44.4954" lon="6.21808">
        <ele>1742</ele>
        <time>2023-04-21T12:18:43.000Z</time>
      </trkpt>
      <trkpt lat="44.49537" lon="6.21806">
        <ele>1742</ele>
        <time>2023-04-21T12:18:44.000Z</time>
      </trkpt>
      <trkpt lat="44.49535" lon="6.21803">
        <ele>1741</ele>
        <time>2023-04-21T12:18:45.000Z</time>
      </trkpt>
      <trkpt lat="44.49531" lon="6.21801">
        <ele>1741</ele>
        <time>2023-04-21T12:18:46.000Z</time>
      </trkpt>
      <trkpt lat="44.49527" lon="6.21798">
        <ele>1741</ele>
        <time>2023-04-21T12:18:47.000Z</time>
      </trkpt>
      <trkpt lat="44.49523" lon="6.21796">
        <ele>1741</ele>
        <time>2023-04-21T12:18:48.000Z</time>
      </trkpt>
      <trkpt lat="44.4952" lon="6.21793">
        <ele>1741</ele>
        <time>2023-04-21T12:18:49.000Z</time>
      </trkpt>
      <trkpt lat="44.49516" lon="6.21791">
        <ele>1740</ele>
        <time>2023-04-21T12:18:50.000Z</time>
      </trkpt>
      <trkpt lat="44.49513" lon="6.21789">
        <ele>1740</ele>
        <time>2023-04-21T12:18:51.000Z</time>
      </trkpt>
      <trkpt lat="44.4951" lon="6.21786">
        <ele>1740</ele>
        <time>2023-04-21T12:18:52.000Z</time>
      </trkpt>
      <trkpt lat="44.49507" lon="6.21784">
        <ele>1740</ele>
        <time>2023-04-21T12:18:53.000Z</time>
      </trkpt>
      <trkpt lat="44.49504" lon="6.21782">
        <ele>1740</ele>
        <time>2023-04-21T12:18:54.000Z</time>
      </trkpt>
      <trkpt lat="44.49501" lon="6.21781">
        <ele>1740</ele>
        <time>2023-04-21T12:18:55.000Z</time>
      </trkpt>
      <trkpt lat="44.49498" lon="6.21779">
        <ele>1740</ele>
        <time>2023-04-21T12:18:56.000Z</time>
      </trkpt>
      <trkpt lat="44.49496" lon="6.21777">
        <ele>1740</ele>
        <time>2023-04-21T12:18:57.000Z</time>
      </trkpt>
      <trkpt lat="44.49493" lon="6.21776">
        <ele>1740</ele>
        <time>2023-04-21T12:18:58.000Z</time>
      </trkpt>
      <trkpt lat="44.49491" lon="6.21775">
        <ele>1740</ele>
        <time>2023-04-21T12:18:59.000Z</time>
      </trkpt>
      <trkpt lat="44.49488" lon="6.21773">
        <ele>1739</ele>
        <time>2023-04-21T12:19:00.000Z</time>
      </trkpt>
      <trkpt lat="44.49486" lon="6.21771">
        <ele>1739</ele>
        <time>2023-04-21T12:19:01.000Z</time>
      </trkpt>
      <trkpt lat="44.49483" lon="6.21769">
        <ele>1738</ele>
        <time>2023-04-21T12:19:02.000Z</time>
      </trkpt>
      <trkpt lat="44.49481" lon="6.21767">
        <ele>1738</ele>
        <time>2023-04-21T12:19:03.000Z</time>
      </trkpt>
      <trkpt lat="44.49478" lon="6.21766">
        <ele>1738</ele>
        <time>2023-04-21T12:19:04.000Z</time>
      </trkpt>
      <trkpt lat="44.49476" lon="6.21764">
        <ele>1738</ele>
        <time>2023-04-21T12:19:05.000Z</time>
      </trkpt>
      <trkpt lat="44.49474" lon="6.21762">
        <ele>1738</ele>
        <time>2023-04-21T12:19:06.000Z</time>
      </trkpt>
      <trkpt lat="44.49473" lon="6.2176">
        <ele>1738</ele>
        <time>2023-04-21T12:19:07.000Z</time>
      </trkpt>
      <trkpt lat="44.49473" lon="6.21757">
        <ele>1738</ele>
        <time>2023-04-21T12:19:08.000Z</time>
      </trkpt>
      <trkpt lat="44.49473" lon="6.21756">
        <ele>1739</ele>
        <time>2023-04-21T12:19:09.000Z</time>
      </trkpt>
      <trkpt lat="44.49473" lon="6.21755">
        <ele>1738</ele>
        <time>2023-04-21T12:19:10.000Z</time>
      </trkpt>
      <trkpt lat="44.49473" lon="6.21755">
        <ele>1738</ele>
        <time>2023-04-21T12:19:11.000Z</time>
      </trkpt>
      <trkpt lat="44.49473" lon="6.21755">
        <ele>1738</ele>
        <time>2023-04-21T12:19:12.000Z</time>
      </trkpt>
      <trkpt lat="44.49473" lon="6.21755">
        <ele>1738</ele>
        <time>2023-04-21T12:19:13.000Z</time>
      </trkpt>
      <trkpt lat="44.49473" lon="6.21755">
        <ele>1738</ele>
        <time>2023-04-21T12:19:14.000Z</time>
      </trkpt>
      <trkpt lat="44.49473" lon="6.21755">
        <ele>1738</ele>
        <time>2023-04-21T12:19:15.000Z</time>
      </trkpt>
      <trkpt lat="44.49473" lon="6.21755">
        <ele>1737</ele>
        <time>2023-04-21T12:19:16.000Z</time>
      </trkpt>
      <trkpt lat="44.49473" lon="6.21755">
        <ele>1737</ele>
        <time>2023-04-21T12:19:17.000Z</time>
      </trkpt>
      <trkpt lat="44.49473" lon="6.21755">
        <ele>1737</ele>
        <time>2023-04-21T12:19:18.000Z</time>
      </trkpt>
      <trkpt lat="44.49473" lon="6.21755">
        <ele>1737</ele>
        <time>2023-04-21T12:19:19.000Z</time>
      </trkpt>
      <trkpt lat="44.49473" lon="6.21755">
        <ele>1737</ele>
        <time>2023-04-21T12:19:20.000Z</time>
      </trkpt>
      <trkpt lat="44.49473" lon="6.21755">
        <ele>1737</ele>
        <time>2023-04-21T12:19:21.000Z</time>
      </trkpt>
      <trkpt lat="44.49472" lon="6.21755">
        <ele>1737</ele>
        <time>2023-04-21T12:19:22.000Z</time>
      </trkpt>
      <trkpt lat="44.49472" lon="6.21755">
        <ele>1737</ele>
        <time>2023-04-21T12:19:23.000Z</time>
      </trkpt>
      <trkpt lat="44.49472" lon="6.21755">
        <ele>1737</ele>
        <time>2023-04-21T12:19:24.000Z</time>
      </trkpt>
      <trkpt lat="44.49472" lon="6.21755">
        <ele>1737</ele>
        <time>2023-04-21T12:19:25.000Z</time>
      </trkpt>
      <trkpt lat="44.49472" lon="6.21755">
        <ele>1737</ele>
        <time>2023-04-21T12:19:26.000Z</time>
      </trkpt>
      <trkpt lat="44.49472" lon="6.21755">
        <ele>1736</ele>
        <time>2023-04-21T12:19:27.000Z</time>
      </trkpt>
      <trkpt lat="44.49472" lon="6.21755">
        <ele>1736</ele>
        <time>2023-04-21T12:19:28.000Z</time>
      </trkpt>
      <trkpt lat="44.49472" lon="6.21755">
        <ele>1736</ele>
        <time>2023-04-21T12:19:29.000Z</time>
      </trkpt>
      <trkpt lat="44.49472" lon="6.21755">
        <ele>1736</ele>
        <time>2023-04-21T12:19:30.000Z</time>
      </trkpt>
      <trkpt lat="44.49472" lon="6.21755">
        <ele>1736</ele>
        <time>2023-04-21T12:19:31.000Z</time>
      </trkpt>
      <trkpt lat="44.49472" lon="6.21755">
        <ele>1736</ele>
        <time>2023-04-21T12:19:32.000Z</time>
      </trkpt>
      <trkpt lat="44.49472" lon="6.21755">
        <ele>1736</ele>
        <time>2023-04-21T12:19:33.000Z</time>
      </trkpt>
      <trkpt lat="44.49472" lon="6.21755">
        <ele>1736</ele>
        <time>2023-04-21T12:19:34.000Z</time>
      </trkpt>
      <trkpt lat="44.49472" lon="6.21755">
        <ele>1736</ele>
        <time>2023-04-21T12:19:35.000Z</time>
      </trkpt>
      <trkpt lat="44.49472" lon="6.21755">
        <ele>1736</ele>
        <time>2023-04-21T12:19:36.000Z</time>
      </trkpt>
      <trkpt lat="44.49472" lon="6.21755">
        <ele>1736</ele>
        <time>2023-04-21T12:19:37.000Z</time>
      </trkpt>
      <trkpt lat="44.49472" lon="6.21755">
        <ele>1736</ele>
        <time>2023-04-21T12:19:38.000Z</time>
      </trkpt>
      <trkpt lat="44.49472" lon="6.21755">
        <ele>1736</ele>
        <time>2023-04-21T12:19:39.000Z</time>
      </trkpt>
      <trkpt lat="44.49472" lon="6.21755">
        <ele>1736</ele>
        <time>2023-04-21T12:19:40.000Z</time>
      </trkpt>
      <trkpt lat="44.49472" lon="6.21755">
        <ele>1736</ele>
        <time>2023-04-21T12:19:41.000Z</time>
      </trkpt>
      <trkpt lat="44.49472" lon="6.21755">
        <ele>1736</ele>
        <time>2023-04-21T12:19:42.000Z</time>
      </trkpt>
      <trkpt lat="44.49472" lon="6.21755">
        <ele>1736</ele>
        <time>2023-04-21T12:19:43.000Z</time>
      </trkpt>
      <trkpt lat="44.49472" lon="6.21755">
        <ele>1736</ele>
        <time>2023-04-21T12:19:44.000Z</time>
      </trkpt>
      <trkpt lat="44.49472" lon="6.21755">
        <ele>1736</ele>
        <time>2023-04-21T12:19:45.000Z</time>
      </trkpt>
      <trkpt lat="44.49472" lon="6.21755">
        <ele>1736</ele>
        <time>2023-04-21T12:19:46.000Z</time>
      </trkpt>
      <trkpt lat="44.49472" lon="6.21755">
        <ele>1736</ele>
        <time>2023-04-21T12:19:47.000Z</time>
      </trkpt>
      <trkpt lat="44.49472" lon="6.21755">
        <ele>1736</ele>
        <time>2023-04-21T12:19:48.000Z</time>
      </trkpt>
      <trkpt lat="44.49471" lon="6.21755">
        <ele>1736</ele>
        <time>2023-04-21T12:19:49.000Z</time>
      </trkpt>
      <trkpt lat="44.49471" lon="6.21755">
        <ele>1736</ele>
        <time>2023-04-21T12:19:50.000Z</time>
      </trkpt>
      <trkpt lat="44.49471" lon="6.21755">
        <ele>1736</ele>
        <time>2023-04-21T12:19:51.000Z</time>
      </trkpt>
      <trkpt lat="44.49471" lon="6.21755">
        <ele>1736</ele>
        <time>2023-04-21T12:19:52.000Z</time>
      </trkpt>
      <trkpt lat="44.49471" lon="6.21755">
        <ele>1736</ele>
        <time>2023-04-21T12:19:53.000Z</time>
      </trkpt>
      <trkpt lat="44.49471" lon="6.21755">
        <ele>1736</ele>
        <time>2023-04-21T12:19:54.000Z</time>
      </trkpt>
      <trkpt lat="44.49471" lon="6.21755">
        <ele>1736</ele>
        <time>2023-04-21T12:19:55.000Z</time>
      </trkpt>
      <trkpt lat="44.49471" lon="6.21755">
        <ele>1736</ele>
        <time>2023-04-21T12:19:56.000Z</time>
      </trkpt>
      <trkpt lat="44.49471" lon="6.21755">
        <ele>1736</ele>
        <time>2023-04-21T12:19:57.000Z</time>
      </trkpt>
      <trkpt lat="44.49471" lon="6.21755">
        <ele>1736</ele>
        <time>2023-04-21T12:19:58.000Z</time>
      </trkpt>
      <trkpt lat="44.49471" lon="6.21755">
        <ele>1736</ele>
        <time>2023-04-21T12:19:59.000Z</time>
      </trkpt>
      <trkpt lat="44.49471" lon="6.21755">
        <ele>1736</ele>
        <time>2023-04-21T12:20:00.000Z</time>
      </trkpt>
      <trkpt lat="44.49471" lon="6.21755">
        <ele>1736</ele>
        <time>2023-04-21T12:20:01.000Z</time>
      </trkpt>
      <trkpt lat="44.4947" lon="6.21755">
        <ele>1735</ele>
        <time>2023-04-21T12:20:02.000Z</time>
      </trkpt>
      <trkpt lat="44.4947" lon="6.21755">
        <ele>1735</ele>
        <time>2023-04-21T12:20:03.000Z</time>
      </trkpt>
      <trkpt lat="44.4947" lon="6.21755">
        <ele>1735</ele>
        <time>2023-04-21T12:20:04.000Z</time>
      </trkpt>
      <trkpt lat="44.4947" lon="6.21755">
        <ele>1735</ele>
        <time>2023-04-21T12:20:05.000Z</time>
      </trkpt>
      <trkpt lat="44.4947" lon="6.21755">
        <ele>1735</ele>
        <time>2023-04-21T12:20:06.000Z</time>
      </trkpt>
      <trkpt lat="44.4947" lon="6.21755">
        <ele>1735</ele>
        <time>2023-04-21T12:20:07.000Z</time>
      </trkpt>
      <trkpt lat="44.4947" lon="6.21755">
        <ele>1735</ele>
        <time>2023-04-21T12:20:08.000Z</time>
      </trkpt>
      <trkpt lat="44.4947" lon="6.21755">
        <ele>1735</ele>
        <time>2023-04-21T12:20:09.000Z</time>
      </trkpt>
      <trkpt lat="44.4947" lon="6.21755">
        <ele>1735</ele>
        <time>2023-04-21T12:20:10.000Z</time>
      </trkpt>
      <trkpt lat="44.4947" lon="6.21755">
        <ele>1735</ele>
        <time>2023-04-21T12:20:11.000Z</time>
      </trkpt>
      <trkpt lat="44.4947" lon="6.21755">
        <ele>1735</ele>
        <time>2023-04-21T12:20:12.000Z</time>
      </trkpt>
      <trkpt lat="44.4947" lon="6.21755">
        <ele>1735</ele>
        <time>2023-04-21T12:20:13.000Z</time>
      </trkpt>
      <trkpt lat="44.49469" lon="6.21755">
        <ele>1735</ele>
        <time>2023-04-21T12:20:14.000Z</time>
      </trkpt>
      <trkpt lat="44.49469" lon="6.21755">
        <ele>1735</ele>
        <time>2023-04-21T12:20:15.000Z</time>
      </trkpt>
      <trkpt lat="44.49469" lon="6.21755">
        <ele>1735</ele>
        <time>2023-04-21T12:20:16.000Z</time>
      </trkpt>
      <trkpt lat="44.49469" lon="6.21755">
        <ele>1735</ele>
        <time>2023-04-21T12:20:17.000Z</time>
      </trkpt>
      <trkpt lat="44.49469" lon="6.21756">
        <ele>1735</ele>
        <time>2023-04-21T12:20:18.000Z</time>
      </trkpt>
      <trkpt lat="44.49469" lon="6.21756">
        <ele>1735</ele>
        <time>2023-04-21T12:20:19.000Z</time>
      </trkpt>
      <trkpt lat="44.49469" lon="6.21756">
        <ele>1735</ele>
        <time>2023-04-21T12:20:20.000Z</time>
      </trkpt>
      <trkpt lat="44.49469" lon="6.21756">
        <ele>1735</ele>
        <time>2023-04-21T12:20:21.000Z</time>
      </trkpt>
      <trkpt lat="44.49469" lon="6.21756">
        <ele>1735</ele>
        <time>2023-04-21T12:20:22.000Z</time>
      </trkpt>
      <trkpt lat="44.49469" lon="6.21756">
        <ele>1735</ele>
        <time>2023-04-21T12:20:23.000Z</time>
      </trkpt>
      <trkpt lat="44.49469" lon="6.21756">
        <ele>1735</ele>
        <time>2023-04-21T12:20:24.000Z</time>
      </trkpt>
      <trkpt lat="44.49469" lon="6.21756">
        <ele>1735</ele>
        <time>2023-04-21T12:20:25.000Z</time>
      </trkpt>
      <trkpt lat="44.49469" lon="6.21756">
        <ele>1736</ele>
        <time>2023-04-21T12:20:26.000Z</time>
      </trkpt>
      <trkpt lat="44.49469" lon="6.21756">
        <ele>1736</ele>
        <time>2023-04-21T12:20:27.000Z</time>
      </trkpt>
      <trkpt lat="44.49469" lon="6.21756">
        <ele>1736</ele>
        <time>2023-04-21T12:20:28.000Z</time>
      </trkpt>
      <trkpt lat="44.49469" lon="6.21756">
        <ele>1736</ele>
        <time>2023-04-21T12:20:29.000Z</time>
      </trkpt>
      <trkpt lat="44.49469" lon="6.21756">
        <ele>1736</ele>
        <time>2023-04-21T12:20:30.000Z</time>
      </trkpt>
      <trkpt lat="44.49469" lon="6.21756">
        <ele>1736</ele>
        <time>2023-04-21T12:20:31.000Z</time>
      </trkpt>
      <trkpt lat="44.49469" lon="6.21756">
        <ele>1736</ele>
        <time>2023-04-21T12:20:32.000Z</time>
      </trkpt>
      <trkpt lat="44.49469" lon="6.21756">
        <ele>1736</ele>
        <time>2023-04-21T12:20:33.000Z</time>
      </trkpt>
      <trkpt lat="44.49469" lon="6.21756">
        <ele>1736</ele>
        <time>2023-04-21T12:20:34.000Z</time>
      </trkpt>
      <trkpt lat="44.49469" lon="6.21756">
        <ele>1736</ele>
        <time>2023-04-21T12:20:35.000Z</time>
      </trkpt>
      <trkpt lat="44.49469" lon="6.21756">
        <ele>1736</ele>
        <time>2023-04-21T12:20:36.000Z</time>
      </trkpt>
      <trkpt lat="44.49469" lon="6.21756">
        <ele>1736</ele>
        <time>2023-04-21T12:20:37.000Z</time>
      </trkpt>
      <trkpt lat="44.49469" lon="6.21756">
        <ele>1736</ele>
        <time>2023-04-21T12:20:38.000Z</time>
      </trkpt>
      <trkpt lat="44.49469" lon="6.21756">
        <ele>1736</ele>
        <time>2023-04-21T12:20:39.000Z</time>
      </trkpt>
      <trkpt lat="44.49469" lon="6.21756">
        <ele>1736</ele>
        <time>2023-04-21T12:20:40.000Z</time>
      </trkpt>
      <trkpt lat="44.49469" lon="6.21756">
        <ele>1735</ele>
        <time>2023-04-21T12:20:41.000Z</time>
      </trkpt>
      <trkpt lat="44.49469" lon="6.21756">
        <ele>1735</ele>
        <time>2023-04-21T12:20:42.000Z</time>
      </trkpt>
      <trkpt lat="44.49469" lon="6.21756">
        <ele>1735</ele>
        <time>2023-04-21T12:20:43.000Z</time>
      </trkpt>
      <trkpt lat="44.49469" lon="6.21756">
        <ele>1735</ele>
        <time>2023-04-21T12:20:44.000Z</time>
      </trkpt>
      <trkpt lat="44.49469" lon="6.21756">
        <ele>1735</ele>
        <time>2023-04-21T12:20:45.000Z</time>
      </trkpt>
      <trkpt lat="44.49469" lon="6.21756">
        <ele>1735</ele>
        <time>2023-04-21T12:20:46.000Z</time>
      </trkpt>
      <trkpt lat="44.49469" lon="6.21756">
        <ele>1735</ele>
        <time>2023-04-21T12:20:47.000Z</time>
      </trkpt>
      <trkpt lat="44.49469" lon="6.21756">
        <ele>1735</ele>
        <time>2023-04-21T12:20:48.000Z</time>
      </trkpt>
      <trkpt lat="44.49469" lon="6.21756">
        <ele>1735</ele>
        <time>2023-04-21T12:20:49.000Z</time>
      </trkpt>
      <trkpt lat="44.49469" lon="6.21756">
        <ele>1735</ele>
        <time>2023-04-21T12:20:50.000Z</time>
      </trkpt>
      <trkpt lat="44.49469" lon="6.21756">
        <ele>1735</ele>
        <time>2023-04-21T12:20:51.000Z</time>
      </trkpt>
      <trkpt lat="44.49469" lon="6.21756">
        <ele>1735</ele>
        <time>2023-04-21T12:20:52.000Z</time>
      </trkpt>
      <trkpt lat="44.49469" lon="6.21756">
        <ele>1735</ele>
        <time>2023-04-21T12:20:53.000Z</time>
      </trkpt>
      <trkpt lat="44.49469" lon="6.21756">
        <ele>1735</ele>
        <time>2023-04-21T12:20:54.000Z</time>
      </trkpt>
      <trkpt lat="44.49469" lon="6.21756">
        <ele>1735</ele>
        <time>2023-04-21T12:20:55.000Z</time>
      </trkpt>
      <trkpt lat="44.49469" lon="6.21756">
        <ele>1735</ele>
        <time>2023-04-21T12:20:56.000Z</time>
      </trkpt>
      <trkpt lat="44.49469" lon="6.21756">
        <ele>1735</ele>
        <time>2023-04-21T12:20:57.000Z</time>
      </trkpt>
      <trkpt lat="44.49469" lon="6.21756">
        <ele>1735</ele>
        <time>2023-04-21T12:20:58.000Z</time>
      </trkpt>
      <trkpt lat="44.49469" lon="6.21756">
        <ele>1735</ele>
        <time>2023-04-21T12:20:59.000Z</time>
      </trkpt>
      <trkpt lat="44.49469" lon="6.21756">
        <ele>1735</ele>
        <time>2023-04-21T12:21:00.000Z</time>
      </trkpt>
      <trkpt lat="44.49469" lon="6.21756">
        <ele>1735</ele>
        <time>2023-04-21T12:21:01.000Z</time>
      </trkpt>
      <trkpt lat="44.49469" lon="6.21756">
        <ele>1735</ele>
        <time>2023-04-21T12:21:02.000Z</time>
      </trkpt>
      <trkpt lat="44.49469" lon="6.21756">
        <ele>1735</ele>
        <time>2023-04-21T12:21:03.000Z</time>
      </trkpt>
      <trkpt lat="44.49469" lon="6.21756">
        <ele>1735</ele>
        <time>2023-04-21T12:21:04.000Z</time>
      </trkpt>
      <trkpt lat="44.49469" lon="6.21756">
        <ele>1735</ele>
        <time>2023-04-21T12:21:05.000Z</time>
      </trkpt>
      <trkpt lat="44.49469" lon="6.21756">
        <ele>1735</ele>
        <time>2023-04-21T12:21:06.000Z</time>
      </trkpt>
      <trkpt lat="44.49469" lon="6.21756">
        <ele>1735</ele>
        <time>2023-04-21T12:21:07.000Z</time>
      </trkpt>
      <trkpt lat="44.49469" lon="6.21756">
        <ele>1735</ele>
        <time>2023-04-21T12:21:08.000Z</time>
      </trkpt>
      <trkpt lat="44.49469" lon="6.21756">
        <ele>1735</ele>
        <time>2023-04-21T12:21:09.000Z</time>
      </trkpt>
      <trkpt lat="44.49469" lon="6.21756">
        <ele>1735</ele>
        <time>2023-04-21T12:21:10.000Z</time>
      </trkpt>
      <trkpt lat="44.49469" lon="6.21756">
        <ele>1735</ele>
        <time>2023-04-21T12:21:11.000Z</time>
      </trkpt>
      <trkpt lat="44.49469" lon="6.21756">
        <ele>1735</ele>
        <time>2023-04-21T12:21:12.000Z</time>
      </trkpt>
      <trkpt lat="44.49469" lon="6.21756">
        <ele>1735</ele>
        <time>2023-04-21T12:21:13.000Z</time>
      </trkpt>
      <trkpt lat="44.49469" lon="6.21756">
        <ele>1735</ele>
        <time>2023-04-21T12:21:14.000Z</time>
      </trkpt>
      <trkpt lat="44.49469" lon="6.21756">
        <ele>1735</ele>
        <time>2023-04-21T12:21:15.000Z</time>
      </trkpt>
      <trkpt lat="44.49469" lon="6.21756">
        <ele>1735</ele>
        <time>2023-04-21T12:21:16.000Z</time>
      </trkpt>
      <trkpt lat="44.49469" lon="6.21756">
        <ele>1735</ele>
        <time>2023-04-21T12:21:17.000Z</time>
      </trkpt>
      <trkpt lat="44.49469" lon="6.21756">
        <ele>1735</ele>
        <time>2023-04-21T12:21:18.000Z</time>
      </trkpt>
      <trkpt lat="44.49469" lon="6.21756">
        <ele>1735</ele>
        <time>2023-04-21T12:21:19.000Z</time>
      </trkpt>
      <trkpt lat="44.49469" lon="6.21756">
        <ele>1735</ele>
        <time>2023-04-21T12:21:20.000Z</time>
      </trkpt>
      <trkpt lat="44.49469" lon="6.21756">
        <ele>1735</ele>
        <time>2023-04-21T12:21:21.000Z</time>
      </trkpt>
      <trkpt lat="44.49469" lon="6.21756">
        <ele>1735</ele>
        <time>2023-04-21T12:21:22.000Z</time>
      </trkpt>
      <trkpt lat="44.49469" lon="6.21756">
        <ele>1735</ele>
        <time>2023-04-21T12:21:23.000Z</time>
      </trkpt>
      <trkpt lat="44.49469" lon="6.21756">
        <ele>1735</ele>
        <time>2023-04-21T12:21:24.000Z</time>
      </trkpt>
      <trkpt lat="44.49469" lon="6.21756">
        <ele>1735</ele>
        <time>2023-04-21T12:21:25.000Z</time>
      </trkpt>
      <trkpt lat="44.49469" lon="6.21756">
        <ele>1735</ele>
        <time>2023-04-21T12:21:26.000Z</time>
      </trkpt>
      <trkpt lat="44.49469" lon="6.21756">
        <ele>1735</ele>
        <time>2023-04-21T12:21:27.000Z</time>
      </trkpt>
      <trkpt lat="44.49469" lon="6.21756">
        <ele>1735</ele>
        <time>2023-04-21T12:21:28.000Z</time>
      </trkpt>
      <trkpt lat="44.49469" lon="6.21756">
        <ele>1735</ele>
        <time>2023-04-21T12:21:29.000Z</time>
      </trkpt>
      <trkpt lat="44.49469" lon="6.21756">
        <ele>1736</ele>
        <time>2023-04-21T12:21:30.000Z</time>
      </trkpt>
      <trkpt lat="44.49469" lon="6.21756">
        <ele>1736</ele>
        <time>2023-04-21T12:21:31.000Z</time>
      </trkpt>
      <trkpt lat="44.49469" lon="6.21756">
        <ele>1736</ele>
        <time>2023-04-21T12:21:32.000Z</time>
      </trkpt>
      <trkpt lat="44.49469" lon="6.21756">
        <ele>1736</ele>
        <time>2023-04-21T12:21:33.000Z</time>
      </trkpt>
      <trkpt lat="44.49469" lon="6.21757">
        <ele>1736</ele>
        <time>2023-04-21T12:21:34.000Z</time>
      </trkpt>
      <trkpt lat="44.49469" lon="6.21757">
        <ele>1736</ele>
        <time>2023-04-21T12:21:35.000Z</time>
      </trkpt>
      <trkpt lat="44.49469" lon="6.21757">
        <ele>1736</ele>
        <time>2023-04-21T12:21:36.000Z</time>
      </trkpt>
      <trkpt lat="44.49469" lon="6.21757">
        <ele>1736</ele>
        <time>2023-04-21T12:21:37.000Z</time>
      </trkpt>
      <trkpt lat="44.49469" lon="6.21757">
        <ele>1736</ele>
        <time>2023-04-21T12:21:38.000Z</time>
      </trkpt>
      <trkpt lat="44.49469" lon="6.21757">
        <ele>1736</ele>
        <time>2023-04-21T12:21:39.000Z</time>
      </trkpt>
      <trkpt lat="44.49469" lon="6.21757">
        <ele>1736</ele>
        <time>2023-04-21T12:21:40.000Z</time>
      </trkpt>
      <trkpt lat="44.49469" lon="6.21757">
        <ele>1736</ele>
        <time>2023-04-21T12:21:41.000Z</time>
      </trkpt>
      <trkpt lat="44.49469" lon="6.21757">
        <ele>1736</ele>
        <time>2023-04-21T12:21:42.000Z</time>
      </trkpt>
      <trkpt lat="44.49469" lon="6.21757">
        <ele>1736</ele>
        <time>2023-04-21T12:21:43.000Z</time>
      </trkpt>
      <trkpt lat="44.4947" lon="6.21757">
        <ele>1736</ele>
        <time>2023-04-21T12:21:44.000Z</time>
      </trkpt>
      <trkpt lat="44.4947" lon="6.21757">
        <ele>1736</ele>
        <time>2023-04-21T12:21:45.000Z</time>
      </trkpt>
      <trkpt lat="44.4947" lon="6.21757">
        <ele>1736</ele>
        <time>2023-04-21T12:21:46.000Z</time>
      </trkpt>
      <trkpt lat="44.4947" lon="6.21757">
        <ele>1736</ele>
        <time>2023-04-21T12:21:47.000Z</time>
      </trkpt>
      <trkpt lat="44.4947" lon="6.21757">
        <ele>1736</ele>
        <time>2023-04-21T12:21:48.000Z</time>
      </trkpt>
      <trkpt lat="44.4947" lon="6.21757">
        <ele>1736</ele>
        <time>2023-04-21T12:21:49.000Z</time>
      </trkpt>
      <trkpt lat="44.4947" lon="6.21757">
        <ele>1736</ele>
        <time>2023-04-21T12:21:50.000Z</time>
      </trkpt>
      <trkpt lat="44.4947" lon="6.21757">
        <ele>1736</ele>
        <time>2023-04-21T12:21:51.000Z</time>
      </trkpt>
      <trkpt lat="44.4947" lon="6.21756">
        <ele>1736</ele>
        <time>2023-04-21T12:21:52.000Z</time>
      </trkpt>
      <trkpt lat="44.4947" lon="6.21756">
        <ele>1736</ele>
        <time>2023-04-21T12:21:53.000Z</time>
      </trkpt>
      <trkpt lat="44.4947" lon="6.21756">
        <ele>1736</ele>
        <time>2023-04-21T12:21:54.000Z</time>
      </trkpt>
      <trkpt lat="44.4947" lon="6.21756">
        <ele>1736</ele>
        <time>2023-04-21T12:21:55.000Z</time>
      </trkpt>
      <trkpt lat="44.4947" lon="6.21756">
        <ele>1736</ele>
        <time>2023-04-21T12:21:56.000Z</time>
      </trkpt>
      <trkpt lat="44.4947" lon="6.21756">
        <ele>1736</ele>
        <time>2023-04-21T12:21:57.000Z</time>
      </trkpt>
      <trkpt lat="44.4947" lon="6.21756">
        <ele>1736</ele>
        <time>2023-04-21T12:21:58.000Z</time>
      </trkpt>
      <trkpt lat="44.4947" lon="6.21756">
        <ele>1736</ele>
        <time>2023-04-21T12:21:59.000Z</time>
      </trkpt>
      <trkpt lat="44.4947" lon="6.21756">
        <ele>1736</ele>
        <time>2023-04-21T12:22:00.000Z</time>
      </trkpt>
      <trkpt lat="44.4947" lon="6.21756">
        <ele>1736</ele>
        <time>2023-04-21T12:22:01.000Z</time>
      </trkpt>
      <trkpt lat="44.4947" lon="6.21756">
        <ele>1736</ele>
        <time>2023-04-21T12:22:02.000Z</time>
      </trkpt>
      <trkpt lat="44.4947" lon="6.21756">
        <ele>1736</ele>
        <time>2023-04-21T12:22:03.000Z</time>
      </trkpt>
      <trkpt lat="44.4947" lon="6.21756">
        <ele>1736</ele>
        <time>2023-04-21T12:22:04.000Z</time>
      </trkpt>
      <trkpt lat="44.4947" lon="6.21756">
        <ele>1736</ele>
        <time>2023-04-21T12:22:05.000Z</time>
      </trkpt>
      <trkpt lat="44.4947" lon="6.21756">
        <ele>1736</ele>
        <time>2023-04-21T12:22:06.000Z</time>
      </trkpt>
      <trkpt lat="44.4947" lon="6.21756">
        <ele>1736</ele>
        <time>2023-04-21T12:22:07.000Z</time>
      </trkpt>
      <trkpt lat="44.4947" lon="6.21755">
        <ele>1736</ele>
        <time>2023-04-21T12:22:08.000Z</time>
      </trkpt>
      <trkpt lat="44.4947" lon="6.21755">
        <ele>1736</ele>
        <time>2023-04-21T12:22:09.000Z</time>
      </trkpt>
      <trkpt lat="44.4947" lon="6.21755">
        <ele>1736</ele>
        <time>2023-04-21T12:22:10.000Z</time>
      </trkpt>
      <trkpt lat="44.4947" lon="6.21755">
        <ele>1736</ele>
        <time>2023-04-21T12:22:11.000Z</time>
      </trkpt>
      <trkpt lat="44.4947" lon="6.21755">
        <ele>1736</ele>
        <time>2023-04-21T12:22:12.000Z</time>
      </trkpt>
      <trkpt lat="44.4947" lon="6.21755">
        <ele>1736</ele>
        <time>2023-04-21T12:22:13.000Z</time>
      </trkpt>
      <trkpt lat="44.4947" lon="6.21755">
        <ele>1736</ele>
        <time>2023-04-21T12:22:14.000Z</time>
      </trkpt>
      <trkpt lat="44.4947" lon="6.21755">
        <ele>1736</ele>
        <time>2023-04-21T12:22:15.000Z</time>
      </trkpt>
      <trkpt lat="44.4947" lon="6.21755">
        <ele>1736</ele>
        <time>2023-04-21T12:22:16.000Z</time>
      </trkpt>
      <trkpt lat="44.4947" lon="6.21755">
        <ele>1736</ele>
        <time>2023-04-21T12:22:17.000Z</time>
      </trkpt>
      <trkpt lat="44.4947" lon="6.21755">
        <ele>1736</ele>
        <time>2023-04-21T12:22:18.000Z</time>
      </trkpt>
      <trkpt lat="44.4947" lon="6.21755">
        <ele>1736</ele>
        <time>2023-04-21T12:22:19.000Z</time>
      </trkpt>
      <trkpt lat="44.4947" lon="6.21755">
        <ele>1736</ele>
        <time>2023-04-21T12:22:20.000Z</time>
      </trkpt>
      <trkpt lat="44.4947" lon="6.21755">
        <ele>1736</ele>
        <time>2023-04-21T12:22:21.000Z</time>
      </trkpt>
      <trkpt lat="44.4947" lon="6.21755">
        <ele>1736</ele>
        <time>2023-04-21T12:22:22.000Z</time>
      </trkpt>
      <trkpt lat="44.4947" lon="6.21756">
        <ele>1736</ele>
        <time>2023-04-21T12:22:23.000Z</time>
      </trkpt>
      <trkpt lat="44.4947" lon="6.21756">
        <ele>1736</ele>
        <time>2023-04-21T12:22:24.000Z</time>
      </trkpt>
      <trkpt lat="44.4947" lon="6.21756">
        <ele>1735</ele>
        <time>2023-04-21T12:22:25.000Z</time>
      </trkpt>
      <trkpt lat="44.4947" lon="6.21756">
        <ele>1735</ele>
        <time>2023-04-21T12:22:26.000Z</time>
      </trkpt>
      <trkpt lat="44.4947" lon="6.21756">
        <ele>1735</ele>
        <time>2023-04-21T12:22:27.000Z</time>
      </trkpt>
      <trkpt lat="44.4947" lon="6.21756">
        <ele>1735</ele>
        <time>2023-04-21T12:22:28.000Z</time>
      </trkpt>
      <trkpt lat="44.4947" lon="6.21756">
        <ele>1735</ele>
        <time>2023-04-21T12:22:29.000Z</time>
      </trkpt>
      <trkpt lat="44.4947" lon="6.21756">
        <ele>1735</ele>
        <time>2023-04-21T12:22:30.000Z</time>
      </trkpt>
      <trkpt lat="44.4947" lon="6.21756">
        <ele>1735</ele>
        <time>2023-04-21T12:22:31.000Z</time>
      </trkpt>
      <trkpt lat="44.4947" lon="6.21756">
        <ele>1735</ele>
        <time>2023-04-21T12:22:32.000Z</time>
      </trkpt>
      <trkpt lat="44.4947" lon="6.21756">
        <ele>1735</ele>
        <time>2023-04-21T12:22:33.000Z</time>
      </trkpt>
      <trkpt lat="44.4947" lon="6.21756">
        <ele>1735</ele>
        <time>2023-04-21T12:22:34.000Z</time>
      </trkpt>
      <trkpt lat="44.4947" lon="6.21756">
        <ele>1735</ele>
        <time>2023-04-21T12:22:35.000Z</time>
      </trkpt>
      <trkpt lat="44.4947" lon="6.21756">
        <ele>1735</ele>
        <time>2023-04-21T12:22:36.000Z</time>
      </trkpt>
      <trkpt lat="44.4947" lon="6.21756">
        <ele>1735</ele>
        <time>2023-04-21T12:22:37.000Z</time>
      </trkpt>
      <trkpt lat="44.4947" lon="6.21756">
        <ele>1735</ele>
        <time>2023-04-21T12:22:38.000Z</time>
      </trkpt>
      <trkpt lat="44.4947" lon="6.21756">
        <ele>1735</ele>
        <time>2023-04-21T12:22:39.000Z</time>
      </trkpt>
      <trkpt lat="44.4947" lon="6.21756">
        <ele>1735</ele>
        <time>2023-04-21T12:22:40.000Z</time>
      </trkpt>
      <trkpt lat="44.4947" lon="6.21757">
        <ele>1735</ele>
        <time>2023-04-21T12:22:41.000Z</time>
      </trkpt>
      <trkpt lat="44.4947" lon="6.21757">
        <ele>1735</ele>
        <time>2023-04-21T12:22:42.000Z</time>
      </trkpt>
      <trkpt lat="44.4947" lon="6.21757">
        <ele>1735</ele>
        <time>2023-04-21T12:22:43.000Z</time>
      </trkpt>
      <trkpt lat="44.4947" lon="6.21757">
        <ele>1735</ele>
        <time>2023-04-21T12:22:44.000Z</time>
      </trkpt>
      <trkpt lat="44.4947" lon="6.21757">
        <ele>1735</ele>
        <time>2023-04-21T12:22:45.000Z</time>
      </trkpt>
      <trkpt lat="44.4947" lon="6.21757">
        <ele>1735</ele>
        <time>2023-04-21T12:22:46.000Z</time>
      </trkpt>
      <trkpt lat="44.4947" lon="6.21757">
        <ele>1735</ele>
        <time>2023-04-21T12:22:47.000Z</time>
      </trkpt>
      <trkpt lat="44.4947" lon="6.21757">
        <ele>1735</ele>
        <time>2023-04-21T12:22:48.000Z</time>
      </trkpt>
      <trkpt lat="44.4947" lon="6.21756">
        <ele>1735</ele>
        <time>2023-04-21T12:22:49.000Z</time>
      </trkpt>
      <trkpt lat="44.4947" lon="6.21756">
        <ele>1735</ele>
        <time>2023-04-21T12:22:50.000Z</time>
      </trkpt>
      <trkpt lat="44.4947" lon="6.21756">
        <ele>1735</ele>
        <time>2023-04-21T12:22:51.000Z</time>
      </trkpt>
      <trkpt lat="44.4947" lon="6.21756">
        <ele>1735</ele>
        <time>2023-04-21T12:22:52.000Z</time>
      </trkpt>
      <trkpt lat="44.4947" lon="6.21756">
        <ele>1735</ele>
        <time>2023-04-21T12:22:53.000Z</time>
      </trkpt>
      <trkpt lat="44.4947" lon="6.21756">
        <ele>1735</ele>
        <time>2023-04-21T12:22:54.000Z</time>
      </trkpt>
      <trkpt lat="44.4947" lon="6.21756">
        <ele>1735</ele>
        <time>2023-04-21T12:22:55.000Z</time>
      </trkpt>
      <trkpt lat="44.4947" lon="6.21756">
        <ele>1735</ele>
        <time>2023-04-21T12:22:56.000Z</time>
      </trkpt>
      <trkpt lat="44.4947" lon="6.21756">
        <ele>1735</ele>
        <time>2023-04-21T12:22:57.000Z</time>
      </trkpt>
      <trkpt lat="44.4947" lon="6.21756">
        <ele>1735</ele>
        <time>2023-04-21T12:22:58.000Z</time>
      </trkpt>
      <trkpt lat="44.4947" lon="6.21756">
        <ele>1735</ele>
        <time>2023-04-21T12:22:59.000Z</time>
      </trkpt>
      <trkpt lat="44.4947" lon="6.21756">
        <ele>1735</ele>
        <time>2023-04-21T12:23:00.000Z</time>
      </trkpt>
      <trkpt lat="44.4947" lon="6.21756">
        <ele>1735</ele>
        <time>2023-04-21T12:23:01.000Z</time>
      </trkpt>
      <trkpt lat="44.4947" lon="6.21756">
        <ele>1735</ele>
        <time>2023-04-21T12:23:02.000Z</time>
      </trkpt>
      <trkpt lat="44.4947" lon="6.21756">
        <ele>1735</ele>
        <time>2023-04-21T12:23:03.000Z</time>
      </trkpt>
      <trkpt lat="44.4947" lon="6.21756">
        <ele>1735</ele>
        <time>2023-04-21T12:23:04.000Z</time>
      </trkpt>
      <trkpt lat="44.4947" lon="6.21756">
        <ele>1735</ele>
        <time>2023-04-21T12:23:05.000Z</time>
      </trkpt>
      <trkpt lat="44.4947" lon="6.21756">
        <ele>1735</ele>
        <time>2023-04-21T12:23:06.000Z</time>
      </trkpt>
      <trkpt lat="44.4947" lon="6.21756">
        <ele>1735</ele>
        <time>2023-04-21T12:23:07.000Z</time>
      </trkpt>
      <trkpt lat="44.4947" lon="6.21756">
        <ele>1735</ele>
        <time>2023-04-21T12:23:08.000Z</time>
      </trkpt>
      <trkpt lat="44.4947" lon="6.21756">
        <ele>1735</ele>
        <time>2023-04-21T12:23:09.000Z</time>
      </trkpt>
      <trkpt lat="44.4947" lon="6.21756">
        <ele>1735</ele>
        <time>2023-04-21T12:23:10.000Z</time>
      </trkpt>
      <trkpt lat="44.4947" lon="6.21756">
        <ele>1735</ele>
        <time>2023-04-21T12:23:11.000Z</time>
      </trkpt>
      <trkpt lat="44.4947" lon="6.21756">
        <ele>1735</ele>
        <time>2023-04-21T12:23:12.000Z</time>
      </trkpt>
      <trkpt lat="44.4947" lon="6.21756">
        <ele>1735</ele>
        <time>2023-04-21T12:23:13.000Z</time>
      </trkpt>
      <trkpt lat="44.4947" lon="6.21756">
        <ele>1735</ele>
        <time>2023-04-21T12:23:14.000Z</time>
      </trkpt>
      <trkpt lat="44.4947" lon="6.21756">
        <ele>1735</ele>
        <time>2023-04-21T12:23:15.000Z</time>
      </trkpt>
      <trkpt lat="44.4947" lon="6.21756">
        <ele>1735</ele>
        <time>2023-04-21T12:23:16.000Z</time>
      </trkpt>
      <trkpt lat="44.4947" lon="6.21756">
        <ele>1735</ele>
        <time>2023-04-21T12:23:17.000Z</time>
      </trkpt>
      <trkpt lat="44.4947" lon="6.21756">
        <ele>1735</ele>
        <time>2023-04-21T12:23:18.000Z</time>
      </trkpt>
      <trkpt lat="44.4947" lon="6.21756">
        <ele>1735</ele>
        <time>2023-04-21T12:23:19.000Z</time>
      </trkpt>
      <trkpt lat="44.4947" lon="6.21756">
        <ele>1735</ele>
        <time>2023-04-21T12:23:20.000Z</time>
      </trkpt>
      <trkpt lat="44.4947" lon="6.21756">
        <ele>1735</ele>
        <time>2023-04-21T12:23:21.000Z</time>
      </trkpt>
      <trkpt lat="44.4947" lon="6.21756">
        <ele>1735</ele>
        <time>2023-04-21T12:23:22.000Z</time>
      </trkpt>
      <trkpt lat="44.4947" lon="6.21756">
        <ele>1735</ele>
        <time>2023-04-21T12:23:23.000Z</time>
      </trkpt>
      <trkpt lat="44.4947" lon="6.21756">
        <ele>1735</ele>
        <time>2023-04-21T12:23:24.000Z</time>
      </trkpt>
      <trkpt lat="44.4947" lon="6.21756">
        <ele>1735</ele>
        <time>2023-04-21T12:23:25.000Z</time>
      </trkpt>
      <trkpt lat="44.4947" lon="6.21756">
        <ele>1735</ele>
        <time>2023-04-21T12:23:26.000Z</time>
      </trkpt>
      <trkpt lat="44.4947" lon="6.21756">
        <ele>1735</ele>
        <time>2023-04-21T12:23:27.000Z</time>
      </trkpt>
      <trkpt lat="44.4947" lon="6.21756">
        <ele>1735</ele>
        <time>2023-04-21T12:23:28.000Z</time>
      </trkpt>
      <trkpt lat="44.4947" lon="6.21756">
        <ele>1735</ele>
        <time>2023-04-21T12:23:29.000Z</time>
      </trkpt>
      <trkpt lat="44.4947" lon="6.21756">
        <ele>1735</ele>
        <time>2023-04-21T12:23:30.000Z</time>
      </trkpt>
      <trkpt lat="44.4947" lon="6.21756">
        <ele>1735</ele>
        <time>2023-04-21T12:23:31.000Z</time>
      </trkpt>
      <trkpt lat="44.4947" lon="6.21756">
        <ele>1735</ele>
        <time>2023-04-21T12:23:32.000Z</time>
      </trkpt>
      <trkpt lat="44.4947" lon="6.21756">
        <ele>1735</ele>
        <time>2023-04-21T12:23:33.000Z</time>
      </trkpt>
      <trkpt lat="44.4947" lon="6.21756">
        <ele>1735</ele>
        <time>2023-04-21T12:23:34.000Z</time>
      </trkpt>
      <trkpt lat="44.4947" lon="6.21756">
        <ele>1735</ele>
        <time>2023-04-21T12:23:35.000Z</time>
      </trkpt>
      <trkpt lat="44.4947" lon="6.21756">
        <ele>1734</ele>
        <time>2023-04-21T12:23:36.000Z</time>
      </trkpt>
      <trkpt lat="44.4947" lon="6.21756">
        <ele>1734</ele>
        <time>2023-04-21T12:23:37.000Z</time>
      </trkpt>
      <trkpt lat="44.4947" lon="6.21756">
        <ele>1734</ele>
        <time>2023-04-21T12:23:38.000Z</time>
      </trkpt>
      <trkpt lat="44.4947" lon="6.21756">
        <ele>1734</ele>
        <time>2023-04-21T12:23:39.000Z</time>
      </trkpt>
      <trkpt lat="44.4947" lon="6.21756">
        <ele>1734</ele>
        <time>2023-04-21T12:23:40.000Z</time>
      </trkpt>
      <trkpt lat="44.4947" lon="6.21755">
        <ele>1734</ele>
        <time>2023-04-21T12:23:41.000Z</time>
      </trkpt>
      <trkpt lat="44.4947" lon="6.21755">
        <ele>1734</ele>
        <time>2023-04-21T12:23:42.000Z</time>
      </trkpt>
      <trkpt lat="44.4947" lon="6.21755">
        <ele>1734</ele>
        <time>2023-04-21T12:23:43.000Z</time>
      </trkpt>
      <trkpt lat="44.4947" lon="6.21755">
        <ele>1734</ele>
        <time>2023-04-21T12:23:44.000Z</time>
      </trkpt>
      <trkpt lat="44.4947" lon="6.21755">
        <ele>1734</ele>
        <time>2023-04-21T12:23:45.000Z</time>
      </trkpt>
      <trkpt lat="44.4947" lon="6.21755">
        <ele>1734</ele>
        <time>2023-04-21T12:23:46.000Z</time>
      </trkpt>
      <trkpt lat="44.4947" lon="6.21755">
        <ele>1734</ele>
        <time>2023-04-21T12:23:47.000Z</time>
      </trkpt>
      <trkpt lat="44.4947" lon="6.21755">
        <ele>1734</ele>
        <time>2023-04-21T12:23:48.000Z</time>
      </trkpt>
      <trkpt lat="44.4947" lon="6.21754">
        <ele>1734</ele>
        <time>2023-04-21T12:23:49.000Z</time>
      </trkpt>
      <trkpt lat="44.4947" lon="6.21754">
        <ele>1734</ele>
        <time>2023-04-21T12:23:50.000Z</time>
      </trkpt>
      <trkpt lat="44.4947" lon="6.21754">
        <ele>1733</ele>
        <time>2023-04-21T12:23:51.000Z</time>
      </trkpt>
      <trkpt lat="44.4947" lon="6.21754">
        <ele>1733</ele>
        <time>2023-04-21T12:23:52.000Z</time>
      </trkpt>
      <trkpt lat="44.4947" lon="6.21754">
        <ele>1733</ele>
        <time>2023-04-21T12:23:53.000Z</time>
      </trkpt>
      <trkpt lat="44.4947" lon="6.21754">
        <ele>1733</ele>
        <time>2023-04-21T12:23:54.000Z</time>
      </trkpt>
      <trkpt lat="44.4947" lon="6.21754">
        <ele>1733</ele>
        <time>2023-04-21T12:23:55.000Z</time>
      </trkpt>
      <trkpt lat="44.4947" lon="6.21754">
        <ele>1733</ele>
        <time>2023-04-21T12:23:56.000Z</time>
      </trkpt>
      <trkpt lat="44.4947" lon="6.21754">
        <ele>1733</ele>
        <time>2023-04-21T12:23:57.000Z</time>
      </trkpt>
      <trkpt lat="44.4947" lon="6.21754">
        <ele>1733</ele>
        <time>2023-04-21T12:23:58.000Z</time>
      </trkpt>
      <trkpt lat="44.4947" lon="6.21754">
        <ele>1733</ele>
        <time>2023-04-21T12:23:59.000Z</time>
      </trkpt>
      <trkpt lat="44.4947" lon="6.21754">
        <ele>1733</ele>
        <time>2023-04-21T12:24:00.000Z</time>
      </trkpt>
      <trkpt lat="44.4947" lon="6.21754">
        <ele>1733</ele>
        <time>2023-04-21T12:24:01.000Z</time>
      </trkpt>
      <trkpt lat="44.4947" lon="6.21754">
        <ele>1733</ele>
        <time>2023-04-21T12:24:02.000Z</time>
      </trkpt>
      <trkpt lat="44.4947" lon="6.21754">
        <ele>1733</ele>
        <time>2023-04-21T12:24:03.000Z</time>
      </trkpt>
      <trkpt lat="44.4947" lon="6.21754">
        <ele>1734</ele>
        <time>2023-04-21T12:24:04.000Z</time>
      </trkpt>
      <trkpt lat="44.4947" lon="6.21754">
        <ele>1734</ele>
        <time>2023-04-21T12:24:05.000Z</time>
      </trkpt>
      <trkpt lat="44.4947" lon="6.21754">
        <ele>1734</ele>
        <time>2023-04-21T12:24:06.000Z</time>
      </trkpt>
      <trkpt lat="44.4947" lon="6.21754">
        <ele>1734</ele>
        <time>2023-04-21T12:24:07.000Z</time>
      </trkpt>
      <trkpt lat="44.4947" lon="6.21755">
        <ele>1734</ele>
        <time>2023-04-21T12:24:08.000Z</time>
      </trkpt>
      <trkpt lat="44.4947" lon="6.21755">
        <ele>1734</ele>
        <time>2023-04-21T12:24:09.000Z</time>
      </trkpt>
      <trkpt lat="44.4947" lon="6.21755">
        <ele>1734</ele>
        <time>2023-04-21T12:24:10.000Z</time>
      </trkpt>
      <trkpt lat="44.4947" lon="6.21755">
        <ele>1734</ele>
        <time>2023-04-21T12:24:11.000Z</time>
      </trkpt>
      <trkpt lat="44.4947" lon="6.21755">
        <ele>1734</ele>
        <time>2023-04-21T12:24:12.000Z</time>
      </trkpt>
      <trkpt lat="44.4947" lon="6.21755">
        <ele>1734</ele>
        <time>2023-04-21T12:24:13.000Z</time>
      </trkpt>
      <trkpt lat="44.4947" lon="6.21755">
        <ele>1734</ele>
        <time>2023-04-21T12:24:14.000Z</time>
      </trkpt>
      <trkpt lat="44.4947" lon="6.21755">
        <ele>1734</ele>
        <time>2023-04-21T12:24:15.000Z</time>
      </trkpt>
      <trkpt lat="44.4947" lon="6.21756">
        <ele>1734</ele>
        <time>2023-04-21T12:24:16.000Z</time>
      </trkpt>
      <trkpt lat="44.4947" lon="6.21756">
        <ele>1734</ele>
        <time>2023-04-21T12:24:17.000Z</time>
      </trkpt>
      <trkpt lat="44.4947" lon="6.21756">
        <ele>1734</ele>
        <time>2023-04-21T12:24:18.000Z</time>
      </trkpt>
      <trkpt lat="44.4947" lon="6.21756">
        <ele>1734</ele>
        <time>2023-04-21T12:24:19.000Z</time>
      </trkpt>
      <trkpt lat="44.4947" lon="6.21756">
        <ele>1734</ele>
        <time>2023-04-21T12:24:20.000Z</time>
      </trkpt>
      <trkpt lat="44.4947" lon="6.21756">
        <ele>1734</ele>
        <time>2023-04-21T12:24:21.000Z</time>
      </trkpt>
      <trkpt lat="44.4947" lon="6.21756">
        <ele>1734</ele>
        <time>2023-04-21T12:24:22.000Z</time>
      </trkpt>
      <trkpt lat="44.4947" lon="6.21756">
        <ele>1734</ele>
        <time>2023-04-21T12:24:23.000Z</time>
      </trkpt>
      <trkpt lat="44.4947" lon="6.21756">
        <ele>1735</ele>
        <time>2023-04-21T12:24:24.000Z</time>
      </trkpt>
      <trkpt lat="44.4947" lon="6.21756">
        <ele>1735</ele>
        <time>2023-04-21T12:24:25.000Z</time>
      </trkpt>
      <trkpt lat="44.4947" lon="6.21756">
        <ele>1735</ele>
        <time>2023-04-21T12:24:26.000Z</time>
      </trkpt>
      <trkpt lat="44.4947" lon="6.21756">
        <ele>1735</ele>
        <time>2023-04-21T12:24:27.000Z</time>
      </trkpt>
      <trkpt lat="44.4947" lon="6.21756">
        <ele>1735</ele>
        <time>2023-04-21T12:24:28.000Z</time>
      </trkpt>
      <trkpt lat="44.4947" lon="6.21756">
        <ele>1734</ele>
        <time>2023-04-21T12:24:29.000Z</time>
      </trkpt>
      <trkpt lat="44.4947" lon="6.21756">
        <ele>1734</ele>
        <time>2023-04-21T12:24:30.000Z</time>
      </trkpt>
      <trkpt lat="44.4947" lon="6.21756">
        <ele>1734</ele>
        <time>2023-04-21T12:24:31.000Z</time>
      </trkpt>
      <trkpt lat="44.4947" lon="6.21756">
        <ele>1734</ele>
        <time>2023-04-21T12:24:32.000Z</time>
      </trkpt>
      <trkpt lat="44.4947" lon="6.21756">
        <ele>1734</ele>
        <time>2023-04-21T12:24:33.000Z</time>
      </trkpt>
      <trkpt lat="44.4947" lon="6.21756">
        <ele>1734</ele>
        <time>2023-04-21T12:24:34.000Z</time>
      </trkpt>
      <trkpt lat="44.4947" lon="6.21756">
        <ele>1734</ele>
        <time>2023-04-21T12:24:35.000Z</time>
      </trkpt>
      <trkpt lat="44.4947" lon="6.21756">
        <ele>1734</ele>
        <time>2023-04-21T12:24:36.000Z</time>
      </trkpt>
      <trkpt lat="44.4947" lon="6.21756">
        <ele>1734</ele>
        <time>2023-04-21T12:24:37.000Z</time>
      </trkpt>
      <trkpt lat="44.4947" lon="6.21756">
        <ele>1734</ele>
        <time>2023-04-21T12:24:38.000Z</time>
      </trkpt>
      <trkpt lat="44.4947" lon="6.21756">
        <ele>1734</ele>
        <time>2023-04-21T12:24:39.000Z</time>
      </trkpt>
      <trkpt lat="44.4947" lon="6.21756">
        <ele>1734</ele>
        <time>2023-04-21T12:24:40.000Z</time>
      </trkpt>
      <trkpt lat="44.4947" lon="6.21756">
        <ele>1734</ele>
        <time>2023-04-21T12:24:41.000Z</time>
      </trkpt>
      <trkpt lat="44.4947" lon="6.21755">
        <ele>1734</ele>
        <time>2023-04-21T12:24:42.000Z</time>
      </trkpt>
      <trkpt lat="44.4947" lon="6.21755">
        <ele>1734</ele>
        <time>2023-04-21T12:24:43.000Z</time>
      </trkpt>
      <trkpt lat="44.4947" lon="6.21755">
        <ele>1734</ele>
        <time>2023-04-21T12:24:44.000Z</time>
      </trkpt>
      <trkpt lat="44.4947" lon="6.21755">
        <ele>1735</ele>
        <time>2023-04-21T12:24:45.000Z</time>
      </trkpt>
      <trkpt lat="44.4947" lon="6.21755">
        <ele>1735</ele>
        <time>2023-04-21T12:24:46.000Z</time>
      </trkpt>
      <trkpt lat="44.4947" lon="6.21755">
        <ele>1735</ele>
        <time>2023-04-21T12:24:47.000Z</time>
      </trkpt>
      <trkpt lat="44.4947" lon="6.21755">
        <ele>1735</ele>
        <time>2023-04-21T12:24:48.000Z</time>
      </trkpt>
      <trkpt lat="44.4947" lon="6.21755">
        <ele>1735</ele>
        <time>2023-04-21T12:24:49.000Z</time>
      </trkpt>
      <trkpt lat="44.4947" lon="6.21756">
        <ele>1735</ele>
        <time>2023-04-21T12:24:50.000Z</time>
      </trkpt>
      <trkpt lat="44.4947" lon="6.21756">
        <ele>1735</ele>
        <time>2023-04-21T12:24:51.000Z</time>
      </trkpt>
      <trkpt lat="44.4947" lon="6.21756">
        <ele>1735</ele>
        <time>2023-04-21T12:24:52.000Z</time>
      </trkpt>
      <trkpt lat="44.4947" lon="6.21756">
        <ele>1735</ele>
        <time>2023-04-21T12:24:53.000Z</time>
      </trkpt>
      <trkpt lat="44.4947" lon="6.21756">
        <ele>1735</ele>
        <time>2023-04-21T12:24:54.000Z</time>
      </trkpt>
      <trkpt lat="44.4947" lon="6.21756">
        <ele>1735</ele>
        <time>2023-04-21T12:24:55.000Z</time>
      </trkpt>
      <trkpt lat="44.4947" lon="6.21756">
        <ele>1735</ele>
        <time>2023-04-21T12:24:56.000Z</time>
      </trkpt>
      <trkpt lat="44.4947" lon="6.21756">
        <ele>1735</ele>
        <time>2023-04-21T12:24:57.000Z</time>
      </trkpt>
      <trkpt lat="44.4947" lon="6.21756">
        <ele>1736</ele>
        <time>2023-04-21T12:24:58.000Z</time>
      </trkpt>
      <trkpt lat="44.4947" lon="6.21756">
        <ele>1736</ele>
        <time>2023-04-21T12:24:59.000Z</time>
      </trkpt>
      <trkpt lat="44.4947" lon="6.21756">
        <ele>1736</ele>
        <time>2023-04-21T12:25:00.000Z</time>
      </trkpt>
      <trkpt lat="44.4947" lon="6.21756">
        <ele>1736</ele>
        <time>2023-04-21T12:25:01.000Z</time>
      </trkpt>
      <trkpt lat="44.4947" lon="6.21756">
        <ele>1736</ele>
        <time>2023-04-21T12:25:02.000Z</time>
      </trkpt>
      <trkpt lat="44.4947" lon="6.21756">
        <ele>1736</ele>
        <time>2023-04-21T12:25:03.000Z</time>
      </trkpt>
      <trkpt lat="44.4947" lon="6.21756">
        <ele>1736</ele>
        <time>2023-04-21T12:25:04.000Z</time>
      </trkpt>
      <trkpt lat="44.4947" lon="6.21757">
        <ele>1736</ele>
        <time>2023-04-21T12:25:05.000Z</time>
      </trkpt>
      <trkpt lat="44.4947" lon="6.21757">
        <ele>1736</ele>
        <time>2023-04-21T12:25:06.000Z</time>
      </trkpt>
      <trkpt lat="44.4947" lon="6.21757">
        <ele>1736</ele>
        <time>2023-04-21T12:25:07.000Z</time>
      </trkpt>
      <trkpt lat="44.4947" lon="6.21757">
        <ele>1736</ele>
        <time>2023-04-21T12:25:08.000Z</time>
      </trkpt>
      <trkpt lat="44.4947" lon="6.21757">
        <ele>1736</ele>
        <time>2023-04-21T12:25:09.000Z</time>
      </trkpt>
      <trkpt lat="44.4947" lon="6.21757">
        <ele>1736</ele>
        <time>2023-04-21T12:25:10.000Z</time>
      </trkpt>
      <trkpt lat="44.4947" lon="6.21757">
        <ele>1736</ele>
        <time>2023-04-21T12:25:11.000Z</time>
      </trkpt>
      <trkpt lat="44.4947" lon="6.21757">
        <ele>1736</ele>
        <time>2023-04-21T12:25:12.000Z</time>
      </trkpt>
      <trkpt lat="44.4947" lon="6.21757">
        <ele>1736</ele>
        <time>2023-04-21T12:25:13.000Z</time>
      </trkpt>
      <trkpt lat="44.4947" lon="6.21757">
        <ele>1736</ele>
        <time>2023-04-21T12:25:14.000Z</time>
      </trkpt>
      <trkpt lat="44.4947" lon="6.21757">
        <ele>1736</ele>
        <time>2023-04-21T12:25:15.000Z</time>
      </trkpt>
      <trkpt lat="44.4947" lon="6.21757">
        <ele>1736</ele>
        <time>2023-04-21T12:25:16.000Z</time>
      </trkpt>
      <trkpt lat="44.49469" lon="6.21757">
        <ele>1736</ele>
        <time>2023-04-21T12:25:17.000Z</time>
      </trkpt>
      <trkpt lat="44.49469" lon="6.21757">
        <ele>1736</ele>
        <time>2023-04-21T12:25:18.000Z</time>
      </trkpt>
      <trkpt lat="44.49469" lon="6.21757">
        <ele>1736</ele>
        <time>2023-04-21T12:25:19.000Z</time>
      </trkpt>
      <trkpt lat="44.49469" lon="6.21757">
        <ele>1736</ele>
        <time>2023-04-21T12:25:20.000Z</time>
      </trkpt>
      <trkpt lat="44.49469" lon="6.21757">
        <ele>1736</ele>
        <time>2023-04-21T12:25:21.000Z</time>
      </trkpt>
      <trkpt lat="44.49469" lon="6.21757">
        <ele>1736</ele>
        <time>2023-04-21T12:25:22.000Z</time>
      </trkpt>
      <trkpt lat="44.49469" lon="6.21757">
        <ele>1736</ele>
        <time>2023-04-21T12:25:23.000Z</time>
      </trkpt>
      <trkpt lat="44.49469" lon="6.21756">
        <ele>1736</ele>
        <time>2023-04-21T12:25:24.000Z</time>
      </trkpt>
      <trkpt lat="44.49469" lon="6.21756">
        <ele>1736</ele>
        <time>2023-04-21T12:25:25.000Z</time>
      </trkpt>
      <trkpt lat="44.49469" lon="6.21756">
        <ele>1736</ele>
        <time>2023-04-21T12:25:26.000Z</time>
      </trkpt>
      <trkpt lat="44.49469" lon="6.21756">
        <ele>1736</ele>
        <time>2023-04-21T12:25:27.000Z</time>
      </trkpt>
      <trkpt lat="44.49469" lon="6.21756">
        <ele>1735</ele>
        <time>2023-04-21T12:25:28.000Z</time>
      </trkpt>
      <trkpt lat="44.49469" lon="6.21756">
        <ele>1735</ele>
        <time>2023-04-21T12:25:29.000Z</time>
      </trkpt>
      <trkpt lat="44.49469" lon="6.21756">
        <ele>1735</ele>
        <time>2023-04-21T12:25:30.000Z</time>
      </trkpt>
      <trkpt lat="44.49469" lon="6.21756">
        <ele>1735</ele>
        <time>2023-04-21T12:25:31.000Z</time>
      </trkpt>
      <trkpt lat="44.49469" lon="6.21756">
        <ele>1735</ele>
        <time>2023-04-21T12:25:32.000Z</time>
      </trkpt>
      <trkpt lat="44.49469" lon="6.21756">
        <ele>1735</ele>
        <time>2023-04-21T12:25:33.000Z</time>
      </trkpt>
      <trkpt lat="44.49469" lon="6.21756">
        <ele>1735</ele>
        <time>2023-04-21T12:25:34.000Z</time>
      </trkpt>
      <trkpt lat="44.49469" lon="6.21756">
        <ele>1736</ele>
        <time>2023-04-21T12:25:35.000Z</time>
      </trkpt>
      <trkpt lat="44.4947" lon="6.21756">
        <ele>1736</ele>
        <time>2023-04-21T12:25:36.000Z</time>
      </trkpt>
      <trkpt lat="44.4947" lon="6.21756">
        <ele>1736</ele>
        <time>2023-04-21T12:25:37.000Z</time>
      </trkpt>
      <trkpt lat="44.4947" lon="6.21756">
        <ele>1736</ele>
        <time>2023-04-21T12:25:38.000Z</time>
      </trkpt>
      <trkpt lat="44.4947" lon="6.21756">
        <ele>1736</ele>
        <time>2023-04-21T12:25:39.000Z</time>
      </trkpt>
      <trkpt lat="44.4947" lon="6.21757">
        <ele>1736</ele>
        <time>2023-04-21T12:25:40.000Z</time>
      </trkpt>
      <trkpt lat="44.4947" lon="6.21757">
        <ele>1736</ele>
        <time>2023-04-21T12:25:41.000Z</time>
      </trkpt>
      <trkpt lat="44.4947" lon="6.21757">
        <ele>1737</ele>
        <time>2023-04-21T12:25:42.000Z</time>
      </trkpt>
      <trkpt lat="44.4947" lon="6.21757">
        <ele>1737</ele>
        <time>2023-04-21T12:25:43.000Z</time>
      </trkpt>
      <trkpt lat="44.4947" lon="6.21757">
        <ele>1737</ele>
        <time>2023-04-21T12:25:44.000Z</time>
      </trkpt>
      <trkpt lat="44.49471" lon="6.21757">
        <ele>1737</ele>
        <time>2023-04-21T12:25:45.000Z</time>
      </trkpt>
      <trkpt lat="44.49471" lon="6.21757">
        <ele>1737</ele>
        <time>2023-04-21T12:25:46.000Z</time>
      </trkpt>
      <trkpt lat="44.49471" lon="6.21757">
        <ele>1737</ele>
        <time>2023-04-21T12:25:47.000Z</time>
      </trkpt>
      <trkpt lat="44.49471" lon="6.21758">
        <ele>1738</ele>
        <time>2023-04-21T12:25:48.000Z</time>
      </trkpt>
      <trkpt lat="44.49471" lon="6.21758">
        <ele>1738</ele>
        <time>2023-04-21T12:25:49.000Z</time>
      </trkpt>
      <trkpt lat="44.49471" lon="6.21758">
        <ele>1738</ele>
        <time>2023-04-21T12:25:50.000Z</time>
      </trkpt>
      <trkpt lat="44.49471" lon="6.21758">
        <ele>1738</ele>
        <time>2023-04-21T12:25:51.000Z</time>
      </trkpt>
      <trkpt lat="44.49471" lon="6.21758">
        <ele>1738</ele>
        <time>2023-04-21T12:25:52.000Z</time>
      </trkpt>
      <trkpt lat="44.49471" lon="6.21758">
        <ele>1738</ele>
        <time>2023-04-21T12:25:53.000Z</time>
      </trkpt>
      <trkpt lat="44.49471" lon="6.21758">
        <ele>1738</ele>
        <time>2023-04-21T12:25:54.000Z</time>
      </trkpt>
      <trkpt lat="44.49471" lon="6.21758">
        <ele>1738</ele>
        <time>2023-04-21T12:25:55.000Z</time>
      </trkpt>
      <trkpt lat="44.49471" lon="6.21758">
        <ele>1738</ele>
        <time>2023-04-21T12:25:56.000Z</time>
      </trkpt>
      <trkpt lat="44.49471" lon="6.21757">
        <ele>1738</ele>
        <time>2023-04-21T12:25:57.000Z</time>
      </trkpt>
      <trkpt lat="44.49471" lon="6.21757">
        <ele>1738</ele>
        <time>2023-04-21T12:25:58.000Z</time>
      </trkpt>
      <trkpt lat="44.49471" lon="6.21757">
        <ele>1738</ele>
        <time>2023-04-21T12:25:59.000Z</time>
      </trkpt>
      <trkpt lat="44.49471" lon="6.21757">
        <ele>1738</ele>
        <time>2023-04-21T12:26:00.000Z</time>
      </trkpt>
      <trkpt lat="44.49471" lon="6.21757">
        <ele>1738</ele>
        <time>2023-04-21T12:26:01.000Z</time>
      </trkpt>
      <trkpt lat="44.49471" lon="6.21757">
        <ele>1738</ele>
        <time>2023-04-21T12:26:02.000Z</time>
      </trkpt>
      <trkpt lat="44.49471" lon="6.21757">
        <ele>1738</ele>
        <time>2023-04-21T12:26:03.000Z</time>
      </trkpt>
      <trkpt lat="44.49471" lon="6.21757">
        <ele>1738</ele>
        <time>2023-04-21T12:26:04.000Z</time>
      </trkpt>
      <trkpt lat="44.49471" lon="6.21757">
        <ele>1737</ele>
        <time>2023-04-21T12:26:05.000Z</time>
      </trkpt>
      <trkpt lat="44.49471" lon="6.21757">
        <ele>1737</ele>
        <time>2023-04-21T12:26:06.000Z</time>
      </trkpt>
      <trkpt lat="44.49471" lon="6.21757">
        <ele>1737</ele>
        <time>2023-04-21T12:26:07.000Z</time>
      </trkpt>
      <trkpt lat="44.49471" lon="6.21757">
        <ele>1737</ele>
        <time>2023-04-21T12:26:08.000Z</time>
      </trkpt>
      <trkpt lat="44.49471" lon="6.21757">
        <ele>1737</ele>
        <time>2023-04-21T12:26:09.000Z</time>
      </trkpt>
      <trkpt lat="44.49471" lon="6.21757">
        <ele>1737</ele>
        <time>2023-04-21T12:26:10.000Z</time>
      </trkpt>
      <trkpt lat="44.49471" lon="6.21757">
        <ele>1737</ele>
        <time>2023-04-21T12:26:11.000Z</time>
      </trkpt>
      <trkpt lat="44.49471" lon="6.21757">
        <ele>1737</ele>
        <time>2023-04-21T12:26:12.000Z</time>
      </trkpt>
      <trkpt lat="44.49471" lon="6.21757">
        <ele>1737</ele>
        <time>2023-04-21T12:26:13.000Z</time>
      </trkpt>
      <trkpt lat="44.49471" lon="6.21757">
        <ele>1737</ele>
        <time>2023-04-21T12:26:14.000Z</time>
      </trkpt>
      <trkpt lat="44.49471" lon="6.21757">
        <ele>1737</ele>
        <time>2023-04-21T12:26:15.000Z</time>
      </trkpt>
      <trkpt lat="44.49471" lon="6.21757">
        <ele>1737</ele>
        <time>2023-04-21T12:26:16.000Z</time>
      </trkpt>
      <trkpt lat="44.49471" lon="6.21757">
        <ele>1736</ele>
        <time>2023-04-21T12:26:17.000Z</time>
      </trkpt>
      <trkpt lat="44.49471" lon="6.21756">
        <ele>1736</ele>
        <time>2023-04-21T12:26:18.000Z</time>
      </trkpt>
      <trkpt lat="44.49471" lon="6.21756">
        <ele>1736</ele>
        <time>2023-04-21T12:26:19.000Z</time>
      </trkpt>
      <trkpt lat="44.49471" lon="6.21756">
        <ele>1736</ele>
        <time>2023-04-21T12:26:20.000Z</time>
      </trkpt>
      <trkpt lat="44.49471" lon="6.21756">
        <ele>1736</ele>
        <time>2023-04-21T12:26:21.000Z</time>
      </trkpt>
      <trkpt lat="44.49471" lon="6.21756">
        <ele>1736</ele>
        <time>2023-04-21T12:26:22.000Z</time>
      </trkpt>
      <trkpt lat="44.4947" lon="6.21756">
        <ele>1736</ele>
        <time>2023-04-21T12:26:23.000Z</time>
      </trkpt>
      <trkpt lat="44.4947" lon="6.21756">
        <ele>1736</ele>
        <time>2023-04-21T12:26:24.000Z</time>
      </trkpt>
      <trkpt lat="44.4947" lon="6.21756">
        <ele>1736</ele>
        <time>2023-04-21T12:26:25.000Z</time>
      </trkpt>
      <trkpt lat="44.4947" lon="6.21756">
        <ele>1736</ele>
        <time>2023-04-21T12:26:26.000Z</time>
      </trkpt>
      <trkpt lat="44.4947" lon="6.21756">
        <ele>1736</ele>
        <time>2023-04-21T12:26:27.000Z</time>
      </trkpt>
      <trkpt lat="44.4947" lon="6.21756">
        <ele>1736</ele>
        <time>2023-04-21T12:26:28.000Z</time>
      </trkpt>
      <trkpt lat="44.4947" lon="6.21756">
        <ele>1736</ele>
        <time>2023-04-21T12:26:29.000Z</time>
      </trkpt>
      <trkpt lat="44.4947" lon="6.21756">
        <ele>1736</ele>
        <time>2023-04-21T12:26:30.000Z</time>
      </trkpt>
      <trkpt lat="44.4947" lon="6.21756">
        <ele>1736</ele>
        <time>2023-04-21T12:26:31.000Z</time>
      </trkpt>
      <trkpt lat="44.4947" lon="6.21756">
        <ele>1736</ele>
        <time>2023-04-21T12:26:32.000Z</time>
      </trkpt>
      <trkpt lat="44.4947" lon="6.21756">
        <ele>1736</ele>
        <time>2023-04-21T12:26:33.000Z</time>
      </trkpt>
      <trkpt lat="44.4947" lon="6.21756">
        <ele>1736</ele>
        <time>2023-04-21T12:26:34.000Z</time>
      </trkpt>
      <trkpt lat="44.4947" lon="6.21756">
        <ele>1736</ele>
        <time>2023-04-21T12:26:35.000Z</time>
      </trkpt>
      <trkpt lat="44.49471" lon="6.21756">
        <ele>1736</ele>
        <time>2023-04-21T12:26:36.000Z</time>
      </trkpt>
      <trkpt lat="44.49471" lon="6.21756">
        <ele>1736</ele>
        <time>2023-04-21T12:26:37.000Z</time>
      </trkpt>
      <trkpt lat="44.49471" lon="6.21756">
        <ele>1736</ele>
        <time>2023-04-21T12:26:38.000Z</time>
      </trkpt>
      <trkpt lat="44.49471" lon="6.21756">
        <ele>1736</ele>
        <time>2023-04-21T12:26:39.000Z</time>
      </trkpt>
      <trkpt lat="44.49471" lon="6.21756">
        <ele>1736</ele>
        <time>2023-04-21T12:26:40.000Z</time>
      </trkpt>
      <trkpt lat="44.49471" lon="6.21756">
        <ele>1736</ele>
        <time>2023-04-21T12:26:41.000Z</time>
      </trkpt>
      <trkpt lat="44.49471" lon="6.21756">
        <ele>1736</ele>
        <time>2023-04-21T12:26:42.000Z</time>
      </trkpt>
      <trkpt lat="44.49471" lon="6.21756">
        <ele>1736</ele>
        <time>2023-04-21T12:26:43.000Z</time>
      </trkpt>
      <trkpt lat="44.49471" lon="6.21755">
        <ele>1736</ele>
        <time>2023-04-21T12:26:44.000Z</time>
      </trkpt>
      <trkpt lat="44.49471" lon="6.21755">
        <ele>1736</ele>
        <time>2023-04-21T12:26:45.000Z</time>
      </trkpt>
      <trkpt lat="44.49471" lon="6.21755">
        <ele>1736</ele>
        <time>2023-04-21T12:26:46.000Z</time>
      </trkpt>
      <trkpt lat="44.49471" lon="6.21755">
        <ele>1736</ele>
        <time>2023-04-21T12:26:47.000Z</time>
      </trkpt>
      <trkpt lat="44.49471" lon="6.21755">
        <ele>1736</ele>
        <time>2023-04-21T12:26:48.000Z</time>
      </trkpt>
      <trkpt lat="44.49471" lon="6.21756">
        <ele>1736</ele>
        <time>2023-04-21T12:26:49.000Z</time>
      </trkpt>
      <trkpt lat="44.49471" lon="6.21756">
        <ele>1736</ele>
        <time>2023-04-21T12:26:50.000Z</time>
      </trkpt>
      <trkpt lat="44.49471" lon="6.21756">
        <ele>1736</ele>
        <time>2023-04-21T12:26:51.000Z</time>
      </trkpt>
      <trkpt lat="44.49471" lon="6.21756">
        <ele>1736</ele>
        <time>2023-04-21T12:26:52.000Z</time>
      </trkpt>
      <trkpt lat="44.49471" lon="6.21756">
        <ele>1736</ele>
        <time>2023-04-21T12:26:53.000Z</time>
      </trkpt>
      <trkpt lat="44.49471" lon="6.21756">
        <ele>1736</ele>
        <time>2023-04-21T12:26:54.000Z</time>
      </trkpt>
      <trkpt lat="44.49471" lon="6.21756">
        <ele>1736</ele>
        <time>2023-04-21T12:26:55.000Z</time>
      </trkpt>
      <trkpt lat="44.49471" lon="6.21756">
        <ele>1736</ele>
        <time>2023-04-21T12:26:56.000Z</time>
      </trkpt>
      <trkpt lat="44.49471" lon="6.21756">
        <ele>1736</ele>
        <time>2023-04-21T12:26:57.000Z</time>
      </trkpt>
      <trkpt lat="44.49471" lon="6.21756">
        <ele>1736</ele>
        <time>2023-04-21T12:26:58.000Z</time>
      </trkpt>
      <trkpt lat="44.49471" lon="6.21756">
        <ele>1736</ele>
        <time>2023-04-21T12:26:59.000Z</time>
      </trkpt>
      <trkpt lat="44.49471" lon="6.21756">
        <ele>1736</ele>
        <time>2023-04-21T12:27:00.000Z</time>
      </trkpt>
      <trkpt lat="44.49471" lon="6.21756">
        <ele>1736</ele>
        <time>2023-04-21T12:27:01.000Z</time>
      </trkpt>
      <trkpt lat="44.49471" lon="6.21756">
        <ele>1736</ele>
        <time>2023-04-21T12:27:02.000Z</time>
      </trkpt>
      <trkpt lat="44.49471" lon="6.21756">
        <ele>1736</ele>
        <time>2023-04-21T12:27:03.000Z</time>
      </trkpt>
      <trkpt lat="44.49471" lon="6.21757">
        <ele>1736</ele>
        <time>2023-04-21T12:27:04.000Z</time>
      </trkpt>
      <trkpt lat="44.49471" lon="6.21757">
        <ele>1736</ele>
        <time>2023-04-21T12:27:05.000Z</time>
      </trkpt>
      <trkpt lat="44.49471" lon="6.21757">
        <ele>1736</ele>
        <time>2023-04-21T12:27:06.000Z</time>
      </trkpt>
      <trkpt lat="44.49471" lon="6.21757">
        <ele>1736</ele>
        <time>2023-04-21T12:27:07.000Z</time>
      </trkpt>
      <trkpt lat="44.49471" lon="6.21757">
        <ele>1736</ele>
        <time>2023-04-21T12:27:08.000Z</time>
      </trkpt>
      <trkpt lat="44.49471" lon="6.21757">
        <ele>1736</ele>
        <time>2023-04-21T12:27:09.000Z</time>
      </trkpt>
      <trkpt lat="44.49471" lon="6.21757">
        <ele>1736</ele>
        <time>2023-04-21T12:27:10.000Z</time>
      </trkpt>
      <trkpt lat="44.49471" lon="6.21757">
        <ele>1736</ele>
        <time>2023-04-21T12:27:11.000Z</time>
      </trkpt>
      <trkpt lat="44.49471" lon="6.21757">
        <ele>1736</ele>
        <time>2023-04-21T12:27:12.000Z</time>
      </trkpt>
      <trkpt lat="44.49471" lon="6.21757">
        <ele>1736</ele>
        <time>2023-04-21T12:27:13.000Z</time>
      </trkpt>
      <trkpt lat="44.49471" lon="6.21757">
        <ele>1736</ele>
        <time>2023-04-21T12:27:14.000Z</time>
      </trkpt>
      <trkpt lat="44.49471" lon="6.21757">
        <ele>1736</ele>
        <time>2023-04-21T12:27:15.000Z</time>
      </trkpt>
      <trkpt lat="44.49471" lon="6.21757">
        <ele>1736</ele>
        <time>2023-04-21T12:27:16.000Z</time>
      </trkpt>
      <trkpt lat="44.49471" lon="6.21757">
        <ele>1736</ele>
        <time>2023-04-21T12:27:17.000Z</time>
      </trkpt>
      <trkpt lat="44.49471" lon="6.21757">
        <ele>1736</ele>
        <time>2023-04-21T12:27:18.000Z</time>
      </trkpt>
      <trkpt lat="44.49471" lon="6.21757">
        <ele>1736</ele>
        <time>2023-04-21T12:27:19.000Z</time>
      </trkpt>
      <trkpt lat="44.49471" lon="6.21757">
        <ele>1736</ele>
        <time>2023-04-21T12:27:20.000Z</time>
      </trkpt>
      <trkpt lat="44.49471" lon="6.21757">
        <ele>1736</ele>
        <time>2023-04-21T12:27:21.000Z</time>
      </trkpt>
      <trkpt lat="44.49471" lon="6.21757">
        <ele>1736</ele>
        <time>2023-04-21T12:27:22.000Z</time>
      </trkpt>
      <trkpt lat="44.49471" lon="6.21757">
        <ele>1736</ele>
        <time>2023-04-21T12:27:23.000Z</time>
      </trkpt>
      <trkpt lat="44.49471" lon="6.21757">
        <ele>1736</ele>
        <time>2023-04-21T12:27:24.000Z</time>
      </trkpt>
      <trkpt lat="44.4947" lon="6.21757">
        <ele>1736</ele>
        <time>2023-04-21T12:27:25.000Z</time>
      </trkpt>
      <trkpt lat="44.4947" lon="6.21757">
        <ele>1736</ele>
        <time>2023-04-21T12:27:26.000Z</time>
      </trkpt>
      <trkpt lat="44.4947" lon="6.21757">
        <ele>1736</ele>
        <time>2023-04-21T12:27:27.000Z</time>
      </trkpt>
      <trkpt lat="44.4947" lon="6.21757">
        <ele>1736</ele>
        <time>2023-04-21T12:27:28.000Z</time>
      </trkpt>
      <trkpt lat="44.4947" lon="6.21757">
        <ele>1736</ele>
        <time>2023-04-21T12:27:29.000Z</time>
      </trkpt>
      <trkpt lat="44.4947" lon="6.21757">
        <ele>1736</ele>
        <time>2023-04-21T12:27:30.000Z</time>
      </trkpt>
      <trkpt lat="44.4947" lon="6.21757">
        <ele>1736</ele>
        <time>2023-04-21T12:27:31.000Z</time>
      </trkpt>
      <trkpt lat="44.4947" lon="6.21757">
        <ele>1736</ele>
        <time>2023-04-21T12:27:32.000Z</time>
      </trkpt>
      <trkpt lat="44.4947" lon="6.21757">
        <ele>1736</ele>
        <time>2023-04-21T12:27:33.000Z</time>
      </trkpt>
      <trkpt lat="44.4947" lon="6.21757">
        <ele>1735</ele>
        <time>2023-04-21T12:27:34.000Z</time>
      </trkpt>
      <trkpt lat="44.4947" lon="6.21757">
        <ele>1735</ele>
        <time>2023-04-21T12:27:35.000Z</time>
      </trkpt>
      <trkpt lat="44.4947" lon="6.21757">
        <ele>1735</ele>
        <time>2023-04-21T12:27:36.000Z</time>
      </trkpt>
      <trkpt lat="44.4947" lon="6.21757">
        <ele>1735</ele>
        <time>2023-04-21T12:27:37.000Z</time>
      </trkpt>
      <trkpt lat="44.4947" lon="6.21757">
        <ele>1735</ele>
        <time>2023-04-21T12:27:38.000Z</time>
      </trkpt>
      <trkpt lat="44.4947" lon="6.21757">
        <ele>1735</ele>
        <time>2023-04-21T12:27:39.000Z</time>
      </trkpt>
      <trkpt lat="44.4947" lon="6.21757">
        <ele>1735</ele>
        <time>2023-04-21T12:27:40.000Z</time>
      </trkpt>
      <trkpt lat="44.4947" lon="6.21757">
        <ele>1735</ele>
        <time>2023-04-21T12:27:41.000Z</time>
      </trkpt>
      <trkpt lat="44.4947" lon="6.21757">
        <ele>1735</ele>
        <time>2023-04-21T12:27:42.000Z</time>
      </trkpt>
      <trkpt lat="44.4947" lon="6.21757">
        <ele>1735</ele>
        <time>2023-04-21T12:27:43.000Z</time>
      </trkpt>
      <trkpt lat="44.4947" lon="6.21757">
        <ele>1735</ele>
        <time>2023-04-21T12:27:44.000Z</time>
      </trkpt>
      <trkpt lat="44.4947" lon="6.21758">
        <ele>1735</ele>
        <time>2023-04-21T12:27:45.000Z</time>
      </trkpt>
      <trkpt lat="44.4947" lon="6.21758">
        <ele>1735</ele>
        <time>2023-04-21T12:27:46.000Z</time>
      </trkpt>
      <trkpt lat="44.4947" lon="6.21758">
        <ele>1735</ele>
        <time>2023-04-21T12:27:47.000Z</time>
      </trkpt>
      <trkpt lat="44.4947" lon="6.21758">
        <ele>1735</ele>
        <time>2023-04-21T12:27:48.000Z</time>
      </trkpt>
      <trkpt lat="44.49471" lon="6.21758">
        <ele>1736</ele>
        <time>2023-04-21T12:27:49.000Z</time>
      </trkpt>
      <trkpt lat="44.49471" lon="6.21758">
        <ele>1736</ele>
        <time>2023-04-21T12:27:50.000Z</time>
      </trkpt>
      <trkpt lat="44.49471" lon="6.21757">
        <ele>1736</ele>
        <time>2023-04-21T12:27:51.000Z</time>
      </trkpt>
      <trkpt lat="44.49471" lon="6.21757">
        <ele>1736</ele>
        <time>2023-04-21T12:27:52.000Z</time>
      </trkpt>
      <trkpt lat="44.49471" lon="6.21757">
        <ele>1736</ele>
        <time>2023-04-21T12:27:53.000Z</time>
      </trkpt>
      <trkpt lat="44.49471" lon="6.21757">
        <ele>1736</ele>
        <time>2023-04-21T12:27:54.000Z</time>
      </trkpt>
      <trkpt lat="44.49471" lon="6.21757">
        <ele>1736</ele>
        <time>2023-04-21T12:27:55.000Z</time>
      </trkpt>
      <trkpt lat="44.49471" lon="6.21757">
        <ele>1736</ele>
        <time>2023-04-21T12:27:56.000Z</time>
      </trkpt>
      <trkpt lat="44.49471" lon="6.21757">
        <ele>1736</ele>
        <time>2023-04-21T12:27:57.000Z</time>
      </trkpt>
      <trkpt lat="44.49471" lon="6.21757">
        <ele>1736</ele>
        <time>2023-04-21T12:27:58.000Z</time>
      </trkpt>
      <trkpt lat="44.49471" lon="6.21757">
        <ele>1736</ele>
        <time>2023-04-21T12:27:59.000Z</time>
      </trkpt>
      <trkpt lat="44.49471" lon="6.21757">
        <ele>1736</ele>
        <time>2023-04-21T12:28:00.000Z</time>
      </trkpt>
      <trkpt lat="44.49471" lon="6.21757">
        <ele>1736</ele>
        <time>2023-04-21T12:28:01.000Z</time>
      </trkpt>
      <trkpt lat="44.49471" lon="6.21757">
        <ele>1736</ele>
        <time>2023-04-21T12:28:02.000Z</time>
      </trkpt>
      <trkpt lat="44.49471" lon="6.21757">
        <ele>1736</ele>
        <time>2023-04-21T12:28:03.000Z</time>
      </trkpt>
      <trkpt lat="44.49471" lon="6.21757">
        <ele>1736</ele>
        <time>2023-04-21T12:28:04.000Z</time>
      </trkpt>
      <trkpt lat="44.49471" lon="6.21757">
        <ele>1736</ele>
        <time>2023-04-21T12:28:05.000Z</time>
      </trkpt>
      <trkpt lat="44.49471" lon="6.21757">
        <ele>1736</ele>
        <time>2023-04-21T12:28:06.000Z</time>
      </trkpt>
      <trkpt lat="44.49471" lon="6.21757">
        <ele>1736</ele>
        <time>2023-04-21T12:28:07.000Z</time>
      </trkpt>
      <trkpt lat="44.49471" lon="6.21757">
        <ele>1736</ele>
        <time>2023-04-21T12:28:08.000Z</time>
      </trkpt>
      <trkpt lat="44.49471" lon="6.21757">
        <ele>1736</ele>
        <time>2023-04-21T12:28:09.000Z</time>
      </trkpt>
      <trkpt lat="44.49471" lon="6.21757">
        <ele>1736</ele>
        <time>2023-04-21T12:28:10.000Z</time>
      </trkpt>
      <trkpt lat="44.49471" lon="6.21757">
        <ele>1736</ele>
        <time>2023-04-21T12:28:11.000Z</time>
      </trkpt>
      <trkpt lat="44.49471" lon="6.21757">
        <ele>1736</ele>
        <time>2023-04-21T12:28:12.000Z</time>
      </trkpt>
      <trkpt lat="44.49471" lon="6.21757">
        <ele>1736</ele>
        <time>2023-04-21T12:28:13.000Z</time>
      </trkpt>
      <trkpt lat="44.49471" lon="6.21757">
        <ele>1736</ele>
        <time>2023-04-21T12:28:14.000Z</time>
      </trkpt>
      <trkpt lat="44.49471" lon="6.21757">
        <ele>1736</ele>
        <time>2023-04-21T12:28:15.000Z</time>
      </trkpt>
      <trkpt lat="44.49471" lon="6.21757">
        <ele>1735</ele>
        <time>2023-04-21T12:28:16.000Z</time>
      </trkpt>
      <trkpt lat="44.49471" lon="6.21757">
        <ele>1735</ele>
        <time>2023-04-21T12:28:17.000Z</time>
      </trkpt>
      <trkpt lat="44.49471" lon="6.21757">
        <ele>1735</ele>
        <time>2023-04-21T12:28:18.000Z</time>
      </trkpt>
      <trkpt lat="44.49471" lon="6.21757">
        <ele>1735</ele>
        <time>2023-04-21T12:28:19.000Z</time>
      </trkpt>
      <trkpt lat="44.49471" lon="6.21757">
        <ele>1735</ele>
        <time>2023-04-21T12:28:20.000Z</time>
      </trkpt>
      <trkpt lat="44.49471" lon="6.21757">
        <ele>1735</ele>
        <time>2023-04-21T12:28:21.000Z</time>
      </trkpt>
      <trkpt lat="44.49471" lon="6.21757">
        <ele>1735</ele>
        <time>2023-04-21T12:28:22.000Z</time>
      </trkpt>
      <trkpt lat="44.49471" lon="6.21757">
        <ele>1735</ele>
        <time>2023-04-21T12:28:23.000Z</time>
      </trkpt>
      <trkpt lat="44.49471" lon="6.21757">
        <ele>1736</ele>
        <time>2023-04-21T12:28:24.000Z</time>
      </trkpt>
      <trkpt lat="44.49471" lon="6.21757">
        <ele>1736</ele>
        <time>2023-04-21T12:28:25.000Z</time>
      </trkpt>
      <trkpt lat="44.49471" lon="6.21757">
        <ele>1736</ele>
        <time>2023-04-21T12:28:26.000Z</time>
      </trkpt>
      <trkpt lat="44.4947" lon="6.21757">
        <ele>1736</ele>
        <time>2023-04-21T12:28:27.000Z</time>
      </trkpt>
      <trkpt lat="44.4947" lon="6.21757">
        <ele>1736</ele>
        <time>2023-04-21T12:28:28.000Z</time>
      </trkpt>
      <trkpt lat="44.4947" lon="6.21757">
        <ele>1736</ele>
        <time>2023-04-21T12:28:29.000Z</time>
      </trkpt>
      <trkpt lat="44.4947" lon="6.21757">
        <ele>1736</ele>
        <time>2023-04-21T12:28:30.000Z</time>
      </trkpt>
      <trkpt lat="44.4947" lon="6.21757">
        <ele>1736</ele>
        <time>2023-04-21T12:28:31.000Z</time>
      </trkpt>
      <trkpt lat="44.4947" lon="6.21757">
        <ele>1736</ele>
        <time>2023-04-21T12:28:32.000Z</time>
      </trkpt>
      <trkpt lat="44.4947" lon="6.21757">
        <ele>1736</ele>
        <time>2023-04-21T12:28:33.000Z</time>
      </trkpt>
      <trkpt lat="44.4947" lon="6.21757">
        <ele>1736</ele>
        <time>2023-04-21T12:28:34.000Z</time>
      </trkpt>
      <trkpt lat="44.4947" lon="6.21757">
        <ele>1736</ele>
        <time>2023-04-21T12:28:35.000Z</time>
      </trkpt>
      <trkpt lat="44.4947" lon="6.21757">
        <ele>1736</ele>
        <time>2023-04-21T12:28:36.000Z</time>
      </trkpt>
      <trkpt lat="44.4947" lon="6.21757">
        <ele>1736</ele>
        <time>2023-04-21T12:28:37.000Z</time>
      </trkpt>
      <trkpt lat="44.4947" lon="6.21757">
        <ele>1736</ele>
        <time>2023-04-21T12:28:38.000Z</time>
      </trkpt>
      <trkpt lat="44.4947" lon="6.21757">
        <ele>1736</ele>
        <time>2023-04-21T12:28:39.000Z</time>
      </trkpt>
      <trkpt lat="44.4947" lon="6.21757">
        <ele>1736</ele>
        <time>2023-04-21T12:28:40.000Z</time>
      </trkpt>
      <trkpt lat="44.4947" lon="6.21757">
        <ele>1736</ele>
        <time>2023-04-21T12:28:41.000Z</time>
      </trkpt>
      <trkpt lat="44.4947" lon="6.21757">
        <ele>1736</ele>
        <time>2023-04-21T12:28:42.000Z</time>
      </trkpt>
      <trkpt lat="44.4947" lon="6.21757">
        <ele>1736</ele>
        <time>2023-04-21T12:28:43.000Z</time>
      </trkpt>
      <trkpt lat="44.4947" lon="6.21757">
        <ele>1736</ele>
        <time>2023-04-21T12:28:44.000Z</time>
      </trkpt>
      <trkpt lat="44.4947" lon="6.21757">
        <ele>1736</ele>
        <time>2023-04-21T12:28:45.000Z</time>
      </trkpt>
      <trkpt lat="44.4947" lon="6.21757">
        <ele>1736</ele>
        <time>2023-04-21T12:28:46.000Z</time>
      </trkpt>
      <trkpt lat="44.4947" lon="6.21757">
        <ele>1736</ele>
        <time>2023-04-21T12:28:47.000Z</time>
      </trkpt>
      <trkpt lat="44.4947" lon="6.21757">
        <ele>1735</ele>
        <time>2023-04-21T12:28:48.000Z</time>
      </trkpt>
      <trkpt lat="44.4947" lon="6.21757">
        <ele>1735</ele>
        <time>2023-04-21T12:28:49.000Z</time>
      </trkpt>
      <trkpt lat="44.4947" lon="6.21757">
        <ele>1735</ele>
        <time>2023-04-21T12:28:50.000Z</time>
      </trkpt>
      <trkpt lat="44.4947" lon="6.21757">
        <ele>1735</ele>
        <time>2023-04-21T12:28:51.000Z</time>
      </trkpt>
      <trkpt lat="44.4947" lon="6.21757">
        <ele>1735</ele>
        <time>2023-04-21T12:28:52.000Z</time>
      </trkpt>
      <trkpt lat="44.4947" lon="6.21757">
        <ele>1735</ele>
        <time>2023-04-21T12:28:53.000Z</time>
      </trkpt>
      <trkpt lat="44.4947" lon="6.21757">
        <ele>1735</ele>
        <time>2023-04-21T12:28:54.000Z</time>
      </trkpt>
      <trkpt lat="44.49471" lon="6.21757">
        <ele>1735</ele>
        <time>2023-04-21T12:28:55.000Z</time>
      </trkpt>
      <trkpt lat="44.49471" lon="6.21757">
        <ele>1735</ele>
        <time>2023-04-21T12:28:56.000Z</time>
      </trkpt>
      <trkpt lat="44.49471" lon="6.21757">
        <ele>1736</ele>
        <time>2023-04-21T12:28:57.000Z</time>
      </trkpt>
      <trkpt lat="44.49471" lon="6.21757">
        <ele>1736</ele>
        <time>2023-04-21T12:28:58.000Z</time>
      </trkpt>
      <trkpt lat="44.4947" lon="6.21757">
        <ele>1736</ele>
        <time>2023-04-21T12:28:59.000Z</time>
      </trkpt>
      <trkpt lat="44.4947" lon="6.21757">
        <ele>1736</ele>
        <time>2023-04-21T12:29:00.000Z</time>
      </trkpt>
      <trkpt lat="44.4947" lon="6.21757">
        <ele>1736</ele>
        <time>2023-04-21T12:29:01.000Z</time>
      </trkpt>
      <trkpt lat="44.4947" lon="6.21757">
        <ele>1736</ele>
        <time>2023-04-21T12:29:02.000Z</time>
      </trkpt>
      <trkpt lat="44.4947" lon="6.21757">
        <ele>1736</ele>
        <time>2023-04-21T12:29:03.000Z</time>
      </trkpt>
      <trkpt lat="44.4947" lon="6.21757">
        <ele>1736</ele>
        <time>2023-04-21T12:29:04.000Z</time>
      </trkpt>
      <trkpt lat="44.4947" lon="6.21757">
        <ele>1736</ele>
        <time>2023-04-21T12:29:05.000Z</time>
      </trkpt>
      <trkpt lat="44.4947" lon="6.21757">
        <ele>1736</ele>
        <time>2023-04-21T12:29:06.000Z</time>
      </trkpt>
      <trkpt lat="44.4947" lon="6.21757">
        <ele>1736</ele>
        <time>2023-04-21T12:29:07.000Z</time>
      </trkpt>
      <trkpt lat="44.4947" lon="6.21757">
        <ele>1736</ele>
        <time>2023-04-21T12:29:08.000Z</time>
      </trkpt>
      <trkpt lat="44.4947" lon="6.21757">
        <ele>1736</ele>
        <time>2023-04-21T12:29:09.000Z</time>
      </trkpt>
      <trkpt lat="44.4947" lon="6.21757">
        <ele>1736</ele>
        <time>2023-04-21T12:29:10.000Z</time>
      </trkpt>
      <trkpt lat="44.4947" lon="6.21757">
        <ele>1736</ele>
        <time>2023-04-21T12:29:11.000Z</time>
      </trkpt>
      <trkpt lat="44.4947" lon="6.21757">
        <ele>1736</ele>
        <time>2023-04-21T12:29:12.000Z</time>
      </trkpt>
      <trkpt lat="44.4947" lon="6.21757">
        <ele>1736</ele>
        <time>2023-04-21T12:29:13.000Z</time>
      </trkpt>
      <trkpt lat="44.4947" lon="6.21757">
        <ele>1736</ele>
        <time>2023-04-21T12:29:14.000Z</time>
      </trkpt>
      <trkpt lat="44.4947" lon="6.21757">
        <ele>1736</ele>
        <time>2023-04-21T12:29:15.000Z</time>
      </trkpt>
      <trkpt lat="44.4947" lon="6.21757">
        <ele>1736</ele>
        <time>2023-04-21T12:29:16.000Z</time>
      </trkpt>
      <trkpt lat="44.4947" lon="6.21757">
        <ele>1737</ele>
        <time>2023-04-21T12:29:17.000Z</time>
      </trkpt>
      <trkpt lat="44.4947" lon="6.21757">
        <ele>1737</ele>
        <time>2023-04-21T12:29:18.000Z</time>
      </trkpt>
      <trkpt lat="44.4947" lon="6.21757">
        <ele>1737</ele>
        <time>2023-04-21T12:29:19.000Z</time>
      </trkpt>
      <trkpt lat="44.4947" lon="6.21757">
        <ele>1737</ele>
        <time>2023-04-21T12:29:20.000Z</time>
      </trkpt>
      <trkpt lat="44.4947" lon="6.21757">
        <ele>1737</ele>
        <time>2023-04-21T12:29:21.000Z</time>
      </trkpt>
      <trkpt lat="44.4947" lon="6.21757">
        <ele>1737</ele>
        <time>2023-04-21T12:29:22.000Z</time>
      </trkpt>
      <trkpt lat="44.4947" lon="6.21757">
        <ele>1737</ele>
        <time>2023-04-21T12:29:23.000Z</time>
      </trkpt>
      <trkpt lat="44.4947" lon="6.21757">
        <ele>1737</ele>
        <time>2023-04-21T12:29:24.000Z</time>
      </trkpt>
      <trkpt lat="44.4947" lon="6.21758">
        <ele>1737</ele>
        <time>2023-04-21T12:29:25.000Z</time>
      </trkpt>
      <trkpt lat="44.4947" lon="6.21758">
        <ele>1737</ele>
        <time>2023-04-21T12:29:26.000Z</time>
      </trkpt>
      <trkpt lat="44.4947" lon="6.21758">
        <ele>1737</ele>
        <time>2023-04-21T12:29:27.000Z</time>
      </trkpt>
      <trkpt lat="44.4947" lon="6.21758">
        <ele>1737</ele>
        <time>2023-04-21T12:29:28.000Z</time>
      </trkpt>
      <trkpt lat="44.4947" lon="6.21758">
        <ele>1737</ele>
        <time>2023-04-21T12:29:29.000Z</time>
      </trkpt>
      <trkpt lat="44.4947" lon="6.21758">
        <ele>1737</ele>
        <time>2023-04-21T12:29:30.000Z</time>
      </trkpt>
      <trkpt lat="44.4947" lon="6.21758">
        <ele>1736</ele>
        <time>2023-04-21T12:29:31.000Z</time>
      </trkpt>
      <trkpt lat="44.4947" lon="6.21758">
        <ele>1736</ele>
        <time>2023-04-21T12:29:32.000Z</time>
      </trkpt>
      <trkpt lat="44.4947" lon="6.21758">
        <ele>1736</ele>
        <time>2023-04-21T12:29:33.000Z</time>
      </trkpt>
      <trkpt lat="44.4947" lon="6.21758">
        <ele>1736</ele>
        <time>2023-04-21T12:29:34.000Z</time>
      </trkpt>
      <trkpt lat="44.4947" lon="6.21758">
        <ele>1736</ele>
        <time>2023-04-21T12:29:35.000Z</time>
      </trkpt>
      <trkpt lat="44.4947" lon="6.21758">
        <ele>1736</ele>
        <time>2023-04-21T12:29:36.000Z</time>
      </trkpt>
      <trkpt lat="44.4947" lon="6.21758">
        <ele>1736</ele>
        <time>2023-04-21T12:29:37.000Z</time>
      </trkpt>
      <trkpt lat="44.4947" lon="6.21758">
        <ele>1736</ele>
        <time>2023-04-21T12:29:38.000Z</time>
      </trkpt>
      <trkpt lat="44.4947" lon="6.21758">
        <ele>1736</ele>
        <time>2023-04-21T12:29:39.000Z</time>
      </trkpt>
      <trkpt lat="44.4947" lon="6.21758">
        <ele>1736</ele>
        <time>2023-04-21T12:29:40.000Z</time>
      </trkpt>
      <trkpt lat="44.4947" lon="6.21758">
        <ele>1736</ele>
        <time>2023-04-21T12:29:41.000Z</time>
      </trkpt>
      <trkpt lat="44.4947" lon="6.21758">
        <ele>1736</ele>
        <time>2023-04-21T12:29:42.000Z</time>
      </trkpt>
      <trkpt lat="44.4947" lon="6.21758">
        <ele>1736</ele>
        <time>2023-04-21T12:29:43.000Z</time>
      </trkpt>
      <trkpt lat="44.4947" lon="6.21758">
        <ele>1735</ele>
        <time>2023-04-21T12:29:44.000Z</time>
      </trkpt>
      <trkpt lat="44.4947" lon="6.21758">
        <ele>1735</ele>
        <time>2023-04-21T12:29:45.000Z</time>
      </trkpt>
      <trkpt lat="44.4947" lon="6.21758">
        <ele>1735</ele>
        <time>2023-04-21T12:29:46.000Z</time>
      </trkpt>
      <trkpt lat="44.4947" lon="6.21757">
        <ele>1735</ele>
        <time>2023-04-21T12:29:47.000Z</time>
      </trkpt>
      <trkpt lat="44.4947" lon="6.21757">
        <ele>1735</ele>
        <time>2023-04-21T12:29:48.000Z</time>
      </trkpt>
      <trkpt lat="44.4947" lon="6.21757">
        <ele>1735</ele>
        <time>2023-04-21T12:29:49.000Z</time>
      </trkpt>
      <trkpt lat="44.4947" lon="6.21757">
        <ele>1735</ele>
        <time>2023-04-21T12:29:50.000Z</time>
      </trkpt>
      <trkpt lat="44.4947" lon="6.21757">
        <ele>1735</ele>
        <time>2023-04-21T12:29:51.000Z</time>
      </trkpt>
      <trkpt lat="44.4947" lon="6.21757">
        <ele>1735</ele>
        <time>2023-04-21T12:29:52.000Z</time>
      </trkpt>
      <trkpt lat="44.4947" lon="6.21757">
        <ele>1735</ele>
        <time>2023-04-21T12:29:53.000Z</time>
      </trkpt>
      <trkpt lat="44.4947" lon="6.21757">
        <ele>1735</ele>
        <time>2023-04-21T12:29:54.000Z</time>
      </trkpt>
      <trkpt lat="44.4947" lon="6.21757">
        <ele>1735</ele>
        <time>2023-04-21T12:29:55.000Z</time>
      </trkpt>
      <trkpt lat="44.4947" lon="6.21757">
        <ele>1735</ele>
        <time>2023-04-21T12:29:56.000Z</time>
      </trkpt>
      <trkpt lat="44.4947" lon="6.21757">
        <ele>1735</ele>
        <time>2023-04-21T12:29:57.000Z</time>
      </trkpt>
      <trkpt lat="44.4947" lon="6.21757">
        <ele>1735</ele>
        <time>2023-04-21T12:29:58.000Z</time>
      </trkpt>
      <trkpt lat="44.4947" lon="6.21757">
        <ele>1735</ele>
        <time>2023-04-21T12:29:59.000Z</time>
      </trkpt>
      <trkpt lat="44.4947" lon="6.21757">
        <ele>1735</ele>
        <time>2023-04-21T12:30:00.000Z</time>
      </trkpt>
      <trkpt lat="44.4947" lon="6.21757">
        <ele>1735</ele>
        <time>2023-04-21T12:30:01.000Z</time>
      </trkpt>
      <trkpt lat="44.4947" lon="6.21757">
        <ele>1735</ele>
        <time>2023-04-21T12:30:02.000Z</time>
      </trkpt>
      <trkpt lat="44.4947" lon="6.21757">
        <ele>1735</ele>
        <time>2023-04-21T12:30:03.000Z</time>
      </trkpt>
      <trkpt lat="44.4947" lon="6.21757">
        <ele>1736</ele>
        <time>2023-04-21T12:30:04.000Z</time>
      </trkpt>
      <trkpt lat="44.4947" lon="6.21757">
        <ele>1736</ele>
        <time>2023-04-21T12:30:05.000Z</time>
      </trkpt>
      <trkpt lat="44.4947" lon="6.21757">
        <ele>1736</ele>
        <time>2023-04-21T12:30:06.000Z</time>
      </trkpt>
      <trkpt lat="44.4947" lon="6.21757">
        <ele>1736</ele>
        <time>2023-04-21T12:30:07.000Z</time>
      </trkpt>
      <trkpt lat="44.4947" lon="6.21757">
        <ele>1736</ele>
        <time>2023-04-21T12:30:08.000Z</time>
      </trkpt>
      <trkpt lat="44.4947" lon="6.21757">
        <ele>1736</ele>
        <time>2023-04-21T12:30:09.000Z</time>
      </trkpt>
      <trkpt lat="44.4947" lon="6.21757">
        <ele>1736</ele>
        <time>2023-04-21T12:30:10.000Z</time>
      </trkpt>
      <trkpt lat="44.4947" lon="6.21757">
        <ele>1736</ele>
        <time>2023-04-21T12:30:11.000Z</time>
      </trkpt>
      <trkpt lat="44.4947" lon="6.21757">
        <ele>1736</ele>
        <time>2023-04-21T12:30:12.000Z</time>
      </trkpt>
      <trkpt lat="44.4947" lon="6.21757">
        <ele>1736</ele>
        <time>2023-04-21T12:30:13.000Z</time>
      </trkpt>
      <trkpt lat="44.4947" lon="6.21757">
        <ele>1736</ele>
        <time>2023-04-21T12:30:14.000Z</time>
      </trkpt>
      <trkpt lat="44.4947" lon="6.21757">
        <ele>1736</ele>
        <time>2023-04-21T12:30:15.000Z</time>
      </trkpt>
      <trkpt lat="44.4947" lon="6.21757">
        <ele>1736</ele>
        <time>2023-04-21T12:30:16.000Z</time>
      </trkpt>
      <trkpt lat="44.4947" lon="6.21758">
        <ele>1736</ele>
        <time>2023-04-21T12:30:17.000Z</time>
      </trkpt>
      <trkpt lat="44.4947" lon="6.21758">
        <ele>1736</ele>
        <time>2023-04-21T12:30:18.000Z</time>
      </trkpt>
      <trkpt lat="44.4947" lon="6.21758">
        <ele>1736</ele>
        <time>2023-04-21T12:30:19.000Z</time>
      </trkpt>
      <trkpt lat="44.4947" lon="6.21758">
        <ele>1736</ele>
        <time>2023-04-21T12:30:20.000Z</time>
      </trkpt>
      <trkpt lat="44.4947" lon="6.21758">
        <ele>1736</ele>
        <time>2023-04-21T12:30:21.000Z</time>
      </trkpt>
      <trkpt lat="44.4947" lon="6.21758">
        <ele>1736</ele>
        <time>2023-04-21T12:30:22.000Z</time>
      </trkpt>
      <trkpt lat="44.4947" lon="6.21758">
        <ele>1736</ele>
        <time>2023-04-21T12:30:23.000Z</time>
      </trkpt>
      <trkpt lat="44.4947" lon="6.21758">
        <ele>1736</ele>
        <time>2023-04-21T12:30:24.000Z</time>
      </trkpt>
      <trkpt lat="44.4947" lon="6.21758">
        <ele>1736</ele>
        <time>2023-04-21T12:30:25.000Z</time>
      </trkpt>
      <trkpt lat="44.4947" lon="6.21758">
        <ele>1737</ele>
        <time>2023-04-21T12:30:26.000Z</time>
      </trkpt>
      <trkpt lat="44.4947" lon="6.21758">
        <ele>1737</ele>
        <time>2023-04-21T12:30:27.000Z</time>
      </trkpt>
      <trkpt lat="44.4947" lon="6.21758">
        <ele>1736</ele>
        <time>2023-04-21T12:30:28.000Z</time>
      </trkpt>
      <trkpt lat="44.4947" lon="6.21758">
        <ele>1736</ele>
        <time>2023-04-21T12:30:29.000Z</time>
      </trkpt>
      <trkpt lat="44.4947" lon="6.21757">
        <ele>1737</ele>
        <time>2023-04-21T12:30:30.000Z</time>
      </trkpt>
      <trkpt lat="44.4947" lon="6.21757">
        <ele>1737</ele>
        <time>2023-04-21T12:30:31.000Z</time>
      </trkpt>
      <trkpt lat="44.4947" lon="6.21757">
        <ele>1737</ele>
        <time>2023-04-21T12:30:32.000Z</time>
      </trkpt>
      <trkpt lat="44.4947" lon="6.21757">
        <ele>1737</ele>
        <time>2023-04-21T12:30:33.000Z</time>
      </trkpt>
      <trkpt lat="44.4947" lon="6.21757">
        <ele>1737</ele>
        <time>2023-04-21T12:30:34.000Z</time>
      </trkpt>
      <trkpt lat="44.4947" lon="6.21757">
        <ele>1737</ele>
        <time>2023-04-21T12:30:35.000Z</time>
      </trkpt>
      <trkpt lat="44.4947" lon="6.21757">
        <ele>1737</ele>
        <time>2023-04-21T12:30:36.000Z</time>
      </trkpt>
      <trkpt lat="44.4947" lon="6.21757">
        <ele>1737</ele>
        <time>2023-04-21T12:30:37.000Z</time>
      </trkpt>
      <trkpt lat="44.4947" lon="6.21757">
        <ele>1737</ele>
        <time>2023-04-21T12:30:38.000Z</time>
      </trkpt>
      <trkpt lat="44.4947" lon="6.21757">
        <ele>1737</ele>
        <time>2023-04-21T12:30:39.000Z</time>
      </trkpt>
      <trkpt lat="44.4947" lon="6.21757">
        <ele>1737</ele>
        <time>2023-04-21T12:30:40.000Z</time>
      </trkpt>
      <trkpt lat="44.4947" lon="6.21757">
        <ele>1737</ele>
        <time>2023-04-21T12:30:41.000Z</time>
      </trkpt>
      <trkpt lat="44.4947" lon="6.21757">
        <ele>1737</ele>
        <time>2023-04-21T12:30:42.000Z</time>
      </trkpt>
      <trkpt lat="44.4947" lon="6.21757">
        <ele>1737</ele>
        <time>2023-04-21T12:30:43.000Z</time>
      </trkpt>
      <trkpt lat="44.4947" lon="6.21757">
        <ele>1737</ele>
        <time>2023-04-21T12:30:44.000Z</time>
      </trkpt>
      <trkpt lat="44.4947" lon="6.21757">
        <ele>1737</ele>
        <time>2023-04-21T12:30:45.000Z</time>
      </trkpt>
      <trkpt lat="44.4947" lon="6.21757">
        <ele>1737</ele>
        <time>2023-04-21T12:30:46.000Z</time>
      </trkpt>
      <trkpt lat="44.4947" lon="6.21757">
        <ele>1737</ele>
        <time>2023-04-21T12:30:47.000Z</time>
      </trkpt>
      <trkpt lat="44.4947" lon="6.21757">
        <ele>1737</ele>
        <time>2023-04-21T12:30:48.000Z</time>
      </trkpt>
      <trkpt lat="44.4947" lon="6.21757">
        <ele>1737</ele>
        <time>2023-04-21T12:30:49.000Z</time>
      </trkpt>
      <trkpt lat="44.4947" lon="6.21757">
        <ele>1737</ele>
        <time>2023-04-21T12:30:50.000Z</time>
      </trkpt>
      <trkpt lat="44.4947" lon="6.21757">
        <ele>1737</ele>
        <time>2023-04-21T12:30:51.000Z</time>
      </trkpt>
      <trkpt lat="44.4947" lon="6.21757">
        <ele>1737</ele>
        <time>2023-04-21T12:30:52.000Z</time>
      </trkpt>
      <trkpt lat="44.4947" lon="6.21757">
        <ele>1736</ele>
        <time>2023-04-21T12:30:53.000Z</time>
      </trkpt>
      <trkpt lat="44.4947" lon="6.21757">
        <ele>1736</ele>
        <time>2023-04-21T12:30:54.000Z</time>
      </trkpt>
      <trkpt lat="44.4947" lon="6.21757">
        <ele>1736</ele>
        <time>2023-04-21T12:30:55.000Z</time>
      </trkpt>
      <trkpt lat="44.4947" lon="6.21757">
        <ele>1736</ele>
        <time>2023-04-21T12:30:56.000Z</time>
      </trkpt>
      <trkpt lat="44.4947" lon="6.21757">
        <ele>1736</ele>
        <time>2023-04-21T12:30:57.000Z</time>
      </trkpt>
      <trkpt lat="44.4947" lon="6.21757">
        <ele>1736</ele>
        <time>2023-04-21T12:30:58.000Z</time>
      </trkpt>
      <trkpt lat="44.4947" lon="6.21757">
        <ele>1736</ele>
        <time>2023-04-21T12:30:59.000Z</time>
      </trkpt>
      <trkpt lat="44.4947" lon="6.21757">
        <ele>1736</ele>
        <time>2023-04-21T12:31:00.000Z</time>
      </trkpt>
      <trkpt lat="44.4947" lon="6.21757">
        <ele>1736</ele>
        <time>2023-04-21T12:31:01.000Z</time>
      </trkpt>
      <trkpt lat="44.4947" lon="6.21757">
        <ele>1736</ele>
        <time>2023-04-21T12:31:02.000Z</time>
      </trkpt>
      <trkpt lat="44.4947" lon="6.21757">
        <ele>1736</ele>
        <time>2023-04-21T12:31:03.000Z</time>
      </trkpt>
      <trkpt lat="44.4947" lon="6.21757">
        <ele>1736</ele>
        <time>2023-04-21T12:31:04.000Z</time>
      </trkpt>
      <trkpt lat="44.4947" lon="6.21757">
        <ele>1736</ele>
        <time>2023-04-21T12:31:05.000Z</time>
      </trkpt>
      <trkpt lat="44.4947" lon="6.21757">
        <ele>1736</ele>
        <time>2023-04-21T12:31:06.000Z</time>
      </trkpt>
      <trkpt lat="44.4947" lon="6.21757">
        <ele>1736</ele>
        <time>2023-04-21T12:31:07.000Z</time>
      </trkpt>
      <trkpt lat="44.4947" lon="6.21757">
        <ele>1736</ele>
        <time>2023-04-21T12:31:08.000Z</time>
      </trkpt>
      <trkpt lat="44.4947" lon="6.21757">
        <ele>1736</ele>
        <time>2023-04-21T12:31:09.000Z</time>
      </trkpt>
      <trkpt lat="44.4947" lon="6.21757">
        <ele>1736</ele>
        <time>2023-04-21T12:31:10.000Z</time>
      </trkpt>
      <trkpt lat="44.4947" lon="6.21757">
        <ele>1737</ele>
        <time>2023-04-21T12:31:11.000Z</time>
      </trkpt>
      <trkpt lat="44.4947" lon="6.21757">
        <ele>1737</ele>
        <time>2023-04-21T12:31:12.000Z</time>
      </trkpt>
      <trkpt lat="44.4947" lon="6.21757">
        <ele>1737</ele>
        <time>2023-04-21T12:31:13.000Z</time>
      </trkpt>
      <trkpt lat="44.49471" lon="6.21757">
        <ele>1737</ele>
        <time>2023-04-21T12:31:14.000Z</time>
      </trkpt>
      <trkpt lat="44.49471" lon="6.21757">
        <ele>1737</ele>
        <time>2023-04-21T12:31:15.000Z</time>
      </trkpt>
      <trkpt lat="44.49471" lon="6.21757">
        <ele>1737</ele>
        <time>2023-04-21T12:31:16.000Z</time>
      </trkpt>
      <trkpt lat="44.49471" lon="6.21757">
        <ele>1737</ele>
        <time>2023-04-21T12:31:17.000Z</time>
      </trkpt>
      <trkpt lat="44.49471" lon="6.21757">
        <ele>1737</ele>
        <time>2023-04-21T12:31:18.000Z</time>
      </trkpt>
      <trkpt lat="44.49471" lon="6.21757">
        <ele>1738</ele>
        <time>2023-04-21T12:31:19.000Z</time>
      </trkpt>
      <trkpt lat="44.49471" lon="6.21757">
        <ele>1738</ele>
        <time>2023-04-21T12:31:20.000Z</time>
      </trkpt>
      <trkpt lat="44.49471" lon="6.21757">
        <ele>1738</ele>
        <time>2023-04-21T12:31:21.000Z</time>
      </trkpt>
      <trkpt lat="44.49471" lon="6.21757">
        <ele>1738</ele>
        <time>2023-04-21T12:31:22.000Z</time>
      </trkpt>
      <trkpt lat="44.49471" lon="6.21757">
        <ele>1738</ele>
        <time>2023-04-21T12:31:23.000Z</time>
      </trkpt>
      <trkpt lat="44.49471" lon="6.21757">
        <ele>1738</ele>
        <time>2023-04-21T12:31:24.000Z</time>
      </trkpt>
      <trkpt lat="44.49471" lon="6.21757">
        <ele>1738</ele>
        <time>2023-04-21T12:31:25.000Z</time>
      </trkpt>
      <trkpt lat="44.49471" lon="6.21757">
        <ele>1738</ele>
        <time>2023-04-21T12:31:26.000Z</time>
      </trkpt>
      <trkpt lat="44.49471" lon="6.21757">
        <ele>1738</ele>
        <time>2023-04-21T12:31:27.000Z</time>
      </trkpt>
      <trkpt lat="44.49471" lon="6.21757">
        <ele>1738</ele>
        <time>2023-04-21T12:31:28.000Z</time>
      </trkpt>
      <trkpt lat="44.49471" lon="6.21757">
        <ele>1738</ele>
        <time>2023-04-21T12:31:29.000Z</time>
      </trkpt>
      <trkpt lat="44.49471" lon="6.21757">
        <ele>1738</ele>
        <time>2023-04-21T12:31:30.000Z</time>
      </trkpt>
      <trkpt lat="44.49471" lon="6.21757">
        <ele>1738</ele>
        <time>2023-04-21T12:31:31.000Z</time>
      </trkpt>
      <trkpt lat="44.49471" lon="6.21757">
        <ele>1738</ele>
        <time>2023-04-21T12:31:32.000Z</time>
      </trkpt>
      <trkpt lat="44.49471" lon="6.21757">
        <ele>1738</ele>
        <time>2023-04-21T12:31:33.000Z</time>
      </trkpt>
      <trkpt lat="44.49471" lon="6.21757">
        <ele>1738</ele>
        <time>2023-04-21T12:31:34.000Z</time>
      </trkpt>
      <trkpt lat="44.49471" lon="6.21757">
        <ele>1738</ele>
        <time>2023-04-21T12:31:35.000Z</time>
      </trkpt>
      <trkpt lat="44.49471" lon="6.21757">
        <ele>1738</ele>
        <time>2023-04-21T12:31:36.000Z</time>
      </trkpt>
      <trkpt lat="44.49471" lon="6.21757">
        <ele>1738</ele>
        <time>2023-04-21T12:31:37.000Z</time>
      </trkpt>
      <trkpt lat="44.49471" lon="6.21757">
        <ele>1738</ele>
        <time>2023-04-21T12:31:38.000Z</time>
      </trkpt>
      <trkpt lat="44.49471" lon="6.21757">
        <ele>1738</ele>
        <time>2023-04-21T12:31:39.000Z</time>
      </trkpt>
      <trkpt lat="44.49471" lon="6.21757">
        <ele>1738</ele>
        <time>2023-04-21T12:31:40.000Z</time>
      </trkpt>
      <trkpt lat="44.49471" lon="6.21757">
        <ele>1738</ele>
        <time>2023-04-21T12:31:41.000Z</time>
      </trkpt>
      <trkpt lat="44.49471" lon="6.21757">
        <ele>1738</ele>
        <time>2023-04-21T12:31:42.000Z</time>
      </trkpt>
      <trkpt lat="44.49471" lon="6.21757">
        <ele>1738</ele>
        <time>2023-04-21T12:31:43.000Z</time>
      </trkpt>
      <trkpt lat="44.49471" lon="6.21757">
        <ele>1738</ele>
        <time>2023-04-21T12:31:44.000Z</time>
      </trkpt>
      <trkpt lat="44.49471" lon="6.21757">
        <ele>1738</ele>
        <time>2023-04-21T12:31:45.000Z</time>
      </trkpt>
      <trkpt lat="44.4947" lon="6.21757">
        <ele>1738</ele>
        <time>2023-04-21T12:31:46.000Z</time>
      </trkpt>
      <trkpt lat="44.4947" lon="6.21757">
        <ele>1738</ele>
        <time>2023-04-21T12:31:47.000Z</time>
      </trkpt>
      <trkpt lat="44.4947" lon="6.21757">
        <ele>1737</ele>
        <time>2023-04-21T12:31:48.000Z</time>
      </trkpt>
      <trkpt lat="44.4947" lon="6.21757">
        <ele>1737</ele>
        <time>2023-04-21T12:31:49.000Z</time>
      </trkpt>
      <trkpt lat="44.4947" lon="6.21757">
        <ele>1737</ele>
        <time>2023-04-21T12:31:50.000Z</time>
      </trkpt>
      <trkpt lat="44.4947" lon="6.21757">
        <ele>1737</ele>
        <time>2023-04-21T12:31:51.000Z</time>
      </trkpt>
      <trkpt lat="44.4947" lon="6.21757">
        <ele>1737</ele>
        <time>2023-04-21T12:31:52.000Z</time>
      </trkpt>
      <trkpt lat="44.4947" lon="6.21757">
        <ele>1737</ele>
        <time>2023-04-21T12:31:53.000Z</time>
      </trkpt>
      <trkpt lat="44.4947" lon="6.21756">
        <ele>1737</ele>
        <time>2023-04-21T12:31:54.000Z</time>
      </trkpt>
      <trkpt lat="44.4947" lon="6.21756">
        <ele>1737</ele>
        <time>2023-04-21T12:31:55.000Z</time>
      </trkpt>
      <trkpt lat="44.4947" lon="6.21756">
        <ele>1737</ele>
        <time>2023-04-21T12:31:56.000Z</time>
      </trkpt>
      <trkpt lat="44.4947" lon="6.21756">
        <ele>1737</ele>
        <time>2023-04-21T12:31:57.000Z</time>
      </trkpt>
      <trkpt lat="44.4947" lon="6.21756">
        <ele>1737</ele>
        <time>2023-04-21T12:31:58.000Z</time>
      </trkpt>
      <trkpt lat="44.4947" lon="6.21756">
        <ele>1736</ele>
        <time>2023-04-21T12:31:59.000Z</time>
      </trkpt>
      <trkpt lat="44.4947" lon="6.21756">
        <ele>1736</ele>
        <time>2023-04-21T12:32:00.000Z</time>
      </trkpt>
      <trkpt lat="44.4947" lon="6.21756">
        <ele>1736</ele>
        <time>2023-04-21T12:32:01.000Z</time>
      </trkpt>
      <trkpt lat="44.4947" lon="6.21756">
        <ele>1736</ele>
        <time>2023-04-21T12:32:02.000Z</time>
      </trkpt>
      <trkpt lat="44.4947" lon="6.21756">
        <ele>1736</ele>
        <time>2023-04-21T12:32:03.000Z</time>
      </trkpt>
      <trkpt lat="44.4947" lon="6.21756">
        <ele>1736</ele>
        <time>2023-04-21T12:32:04.000Z</time>
      </trkpt>
      <trkpt lat="44.4947" lon="6.21756">
        <ele>1736</ele>
        <time>2023-04-21T12:32:05.000Z</time>
      </trkpt>
      <trkpt lat="44.4947" lon="6.21756">
        <ele>1736</ele>
        <time>2023-04-21T12:32:06.000Z</time>
      </trkpt>
      <trkpt lat="44.4947" lon="6.21756">
        <ele>1736</ele>
        <time>2023-04-21T12:32:07.000Z</time>
      </trkpt>
      <trkpt lat="44.4947" lon="6.21756">
        <ele>1736</ele>
        <time>2023-04-21T12:32:08.000Z</time>
      </trkpt>
      <trkpt lat="44.4947" lon="6.21757">
        <ele>1736</ele>
        <time>2023-04-21T12:32:09.000Z</time>
      </trkpt>
      <trkpt lat="44.4947" lon="6.21757">
        <ele>1736</ele>
        <time>2023-04-21T12:32:10.000Z</time>
      </trkpt>
      <trkpt lat="44.4947" lon="6.21757">
        <ele>1736</ele>
        <time>2023-04-21T12:32:11.000Z</time>
      </trkpt>
      <trkpt lat="44.4947" lon="6.21756">
        <ele>1736</ele>
        <time>2023-04-21T12:32:12.000Z</time>
      </trkpt>
      <trkpt lat="44.4947" lon="6.21756">
        <ele>1736</ele>
        <time>2023-04-21T12:32:13.000Z</time>
      </trkpt>
      <trkpt lat="44.4947" lon="6.21756">
        <ele>1736</ele>
        <time>2023-04-21T12:32:14.000Z</time>
      </trkpt>
      <trkpt lat="44.4947" lon="6.21756">
        <ele>1736</ele>
        <time>2023-04-21T12:32:15.000Z</time>
      </trkpt>
      <trkpt lat="44.4947" lon="6.21756">
        <ele>1736</ele>
        <time>2023-04-21T12:32:16.000Z</time>
      </trkpt>
      <trkpt lat="44.4947" lon="6.21756">
        <ele>1736</ele>
        <time>2023-04-21T12:32:17.000Z</time>
      </trkpt>
      <trkpt lat="44.4947" lon="6.21756">
        <ele>1736</ele>
        <time>2023-04-21T12:32:18.000Z</time>
      </trkpt>
      <trkpt lat="44.4947" lon="6.21756">
        <ele>1736</ele>
        <time>2023-04-21T12:32:19.000Z</time>
      </trkpt>
      <trkpt lat="44.4947" lon="6.21756">
        <ele>1736</ele>
        <time>2023-04-21T12:32:20.000Z</time>
      </trkpt>
      <trkpt lat="44.4947" lon="6.21756">
        <ele>1736</ele>
        <time>2023-04-21T12:32:21.000Z</time>
      </trkpt>
      <trkpt lat="44.4947" lon="6.21756">
        <ele>1736</ele>
        <time>2023-04-21T12:32:22.000Z</time>
      </trkpt>
      <trkpt lat="44.4947" lon="6.21756">
        <ele>1736</ele>
        <time>2023-04-21T12:32:23.000Z</time>
      </trkpt>
      <trkpt lat="44.4947" lon="6.21756">
        <ele>1736</ele>
        <time>2023-04-21T12:32:24.000Z</time>
      </trkpt>
      <trkpt lat="44.4947" lon="6.21756">
        <ele>1736</ele>
        <time>2023-04-21T12:32:25.000Z</time>
      </trkpt>
      <trkpt lat="44.4947" lon="6.21756">
        <ele>1736</ele>
        <time>2023-04-21T12:32:26.000Z</time>
      </trkpt>
      <trkpt lat="44.4947" lon="6.21756">
        <ele>1736</ele>
        <time>2023-04-21T12:32:27.000Z</time>
      </trkpt>
      <trkpt lat="44.4947" lon="6.21756">
        <ele>1736</ele>
        <time>2023-04-21T12:32:28.000Z</time>
      </trkpt>
      <trkpt lat="44.4947" lon="6.21756">
        <ele>1736</ele>
        <time>2023-04-21T12:32:29.000Z</time>
      </trkpt>
      <trkpt lat="44.4947" lon="6.21756">
        <ele>1736</ele>
        <time>2023-04-21T12:32:30.000Z</time>
      </trkpt>
      <trkpt lat="44.4947" lon="6.21756">
        <ele>1736</ele>
        <time>2023-04-21T12:32:31.000Z</time>
      </trkpt>
      <trkpt lat="44.4947" lon="6.21756">
        <ele>1736</ele>
        <time>2023-04-21T12:32:32.000Z</time>
      </trkpt>
      <trkpt lat="44.4947" lon="6.21757">
        <ele>1736</ele>
        <time>2023-04-21T12:32:33.000Z</time>
      </trkpt>
      <trkpt lat="44.4947" lon="6.21757">
        <ele>1736</ele>
        <time>2023-04-21T12:32:34.000Z</time>
      </trkpt>
      <trkpt lat="44.4947" lon="6.21757">
        <ele>1736</ele>
        <time>2023-04-21T12:32:35.000Z</time>
      </trkpt>
      <trkpt lat="44.4947" lon="6.21757">
        <ele>1736</ele>
        <time>2023-04-21T12:32:36.000Z</time>
      </trkpt>
      <trkpt lat="44.4947" lon="6.21757">
        <ele>1736</ele>
        <time>2023-04-21T12:32:37.000Z</time>
      </trkpt>
      <trkpt lat="44.4947" lon="6.21757">
        <ele>1736</ele>
        <time>2023-04-21T12:32:38.000Z</time>
      </trkpt>
      <trkpt lat="44.4947" lon="6.21757">
        <ele>1736</ele>
        <time>2023-04-21T12:32:39.000Z</time>
      </trkpt>
      <trkpt lat="44.4947" lon="6.21757">
        <ele>1736</ele>
        <time>2023-04-21T12:32:40.000Z</time>
      </trkpt>
      <trkpt lat="44.4947" lon="6.21757">
        <ele>1736</ele>
        <time>2023-04-21T12:32:41.000Z</time>
      </trkpt>
      <trkpt lat="44.4947" lon="6.21757">
        <ele>1736</ele>
        <time>2023-04-21T12:32:42.000Z</time>
      </trkpt>
      <trkpt lat="44.4947" lon="6.21757">
        <ele>1736</ele>
        <time>2023-04-21T12:32:43.000Z</time>
      </trkpt>
      <trkpt lat="44.4947" lon="6.21757">
        <ele>1736</ele>
        <time>2023-04-21T12:32:44.000Z</time>
      </trkpt>
      <trkpt lat="44.4947" lon="6.21757">
        <ele>1736</ele>
        <time>2023-04-21T12:32:45.000Z</time>
      </trkpt>
      <trkpt lat="44.4947" lon="6.21757">
        <ele>1736</ele>
        <time>2023-04-21T12:32:46.000Z</time>
      </trkpt>
      <trkpt lat="44.4947" lon="6.21757">
        <ele>1736</ele>
        <time>2023-04-21T12:32:47.000Z</time>
      </trkpt>
      <trkpt lat="44.4947" lon="6.21757">
        <ele>1736</ele>
        <time>2023-04-21T12:32:48.000Z</time>
      </trkpt>
      <trkpt lat="44.4947" lon="6.21758">
        <ele>1737</ele>
        <time>2023-04-21T12:32:49.000Z</time>
      </trkpt>
      <trkpt lat="44.4947" lon="6.21758">
        <ele>1737</ele>
        <time>2023-04-21T12:32:50.000Z</time>
      </trkpt>
      <trkpt lat="44.4947" lon="6.21758">
        <ele>1737</ele>
        <time>2023-04-21T12:32:51.000Z</time>
      </trkpt>
      <trkpt lat="44.4947" lon="6.21758">
        <ele>1737</ele>
        <time>2023-04-21T12:32:52.000Z</time>
      </trkpt>
      <trkpt lat="44.4947" lon="6.21758">
        <ele>1737</ele>
        <time>2023-04-21T12:32:53.000Z</time>
      </trkpt>
      <trkpt lat="44.4947" lon="6.21758">
        <ele>1737</ele>
        <time>2023-04-21T12:32:54.000Z</time>
      </trkpt>
      <trkpt lat="44.4947" lon="6.21758">
        <ele>1737</ele>
        <time>2023-04-21T12:32:55.000Z</time>
      </trkpt>
      <trkpt lat="44.4947" lon="6.21758">
        <ele>1737</ele>
        <time>2023-04-21T12:32:56.000Z</time>
      </trkpt>
      <trkpt lat="44.4947" lon="6.21758">
        <ele>1737</ele>
        <time>2023-04-21T12:32:57.000Z</time>
      </trkpt>
      <trkpt lat="44.4947" lon="6.21758">
        <ele>1737</ele>
        <time>2023-04-21T12:32:58.000Z</time>
      </trkpt>
      <trkpt lat="44.4947" lon="6.21758">
        <ele>1738</ele>
        <time>2023-04-21T12:32:59.000Z</time>
      </trkpt>
      <trkpt lat="44.4947" lon="6.21758">
        <ele>1738</ele>
        <time>2023-04-21T12:33:00.000Z</time>
      </trkpt>
      <trkpt lat="44.4947" lon="6.21758">
        <ele>1738</ele>
        <time>2023-04-21T12:33:01.000Z</time>
      </trkpt>
      <trkpt lat="44.4947" lon="6.21758">
        <ele>1738</ele>
        <time>2023-04-21T12:33:02.000Z</time>
      </trkpt>
      <trkpt lat="44.4947" lon="6.21759">
        <ele>1738</ele>
        <time>2023-04-21T12:33:03.000Z</time>
      </trkpt>
      <trkpt lat="44.4947" lon="6.21759">
        <ele>1738</ele>
        <time>2023-04-21T12:33:04.000Z</time>
      </trkpt>
      <trkpt lat="44.4947" lon="6.21759">
        <ele>1738</ele>
        <time>2023-04-21T12:33:05.000Z</time>
      </trkpt>
      <trkpt lat="44.4947" lon="6.21759">
        <ele>1738</ele>
        <time>2023-04-21T12:33:06.000Z</time>
      </trkpt>
      <trkpt lat="44.4947" lon="6.21759">
        <ele>1738</ele>
        <time>2023-04-21T12:33:07.000Z</time>
      </trkpt>
      <trkpt lat="44.49471" lon="6.21759">
        <ele>1738</ele>
        <time>2023-04-21T12:33:08.000Z</time>
      </trkpt>
      <trkpt lat="44.49471" lon="6.21759">
        <ele>1738</ele>
        <time>2023-04-21T12:33:09.000Z</time>
      </trkpt>
      <trkpt lat="44.49471" lon="6.21759">
        <ele>1738</ele>
        <time>2023-04-21T12:33:10.000Z</time>
      </trkpt>
      <trkpt lat="44.49471" lon="6.21759">
        <ele>1738</ele>
        <time>2023-04-21T12:33:11.000Z</time>
      </trkpt>
      <trkpt lat="44.49471" lon="6.21759">
        <ele>1738</ele>
        <time>2023-04-21T12:33:12.000Z</time>
      </trkpt>
      <trkpt lat="44.49471" lon="6.21759">
        <ele>1738</ele>
        <time>2023-04-21T12:33:13.000Z</time>
      </trkpt>
      <trkpt lat="44.49471" lon="6.21759">
        <ele>1738</ele>
        <time>2023-04-21T12:33:14.000Z</time>
      </trkpt>
      <trkpt lat="44.49471" lon="6.21759">
        <ele>1738</ele>
        <time>2023-04-21T12:33:15.000Z</time>
      </trkpt>
      <trkpt lat="44.49471" lon="6.21759">
        <ele>1738</ele>
        <time>2023-04-21T12:33:16.000Z</time>
      </trkpt>
      <trkpt lat="44.49471" lon="6.21759">
        <ele>1738</ele>
        <time>2023-04-21T12:33:17.000Z</time>
      </trkpt>
      <trkpt lat="44.49471" lon="6.21759">
        <ele>1738</ele>
        <time>2023-04-21T12:33:18.000Z</time>
      </trkpt>
      <trkpt lat="44.49471" lon="6.21759">
        <ele>1738</ele>
        <time>2023-04-21T12:33:19.000Z</time>
      </trkpt>
      <trkpt lat="44.49471" lon="6.2176">
        <ele>1738</ele>
        <time>2023-04-21T12:33:20.000Z</time>
      </trkpt>
      <trkpt lat="44.49471" lon="6.2176">
        <ele>1738</ele>
        <time>2023-04-21T12:33:21.000Z</time>
      </trkpt>
      <trkpt lat="44.49471" lon="6.2176">
        <ele>1738</ele>
        <time>2023-04-21T12:33:22.000Z</time>
      </trkpt>
      <trkpt lat="44.49471" lon="6.2176">
        <ele>1738</ele>
        <time>2023-04-21T12:33:23.000Z</time>
      </trkpt>
      <trkpt lat="44.49471" lon="6.2176">
        <ele>1738</ele>
        <time>2023-04-21T12:33:24.000Z</time>
      </trkpt>
      <trkpt lat="44.49471" lon="6.2176">
        <ele>1738</ele>
        <time>2023-04-21T12:33:25.000Z</time>
      </trkpt>
      <trkpt lat="44.49471" lon="6.2176">
        <ele>1739</ele>
        <time>2023-04-21T12:33:26.000Z</time>
      </trkpt>
      <trkpt lat="44.49471" lon="6.2176">
        <ele>1739</ele>
        <time>2023-04-21T12:33:27.000Z</time>
      </trkpt>
      <trkpt lat="44.49471" lon="6.2176">
        <ele>1739</ele>
        <time>2023-04-21T12:33:28.000Z</time>
      </trkpt>
      <trkpt lat="44.49471" lon="6.2176">
        <ele>1739</ele>
        <time>2023-04-21T12:33:29.000Z</time>
      </trkpt>
      <trkpt lat="44.49471" lon="6.2176">
        <ele>1739</ele>
        <time>2023-04-21T12:33:30.000Z</time>
      </trkpt>
      <trkpt lat="44.49471" lon="6.21761">
        <ele>1739</ele>
        <time>2023-04-21T12:33:31.000Z</time>
      </trkpt>
      <trkpt lat="44.49471" lon="6.21761">
        <ele>1739</ele>
        <time>2023-04-21T12:33:32.000Z</time>
      </trkpt>
      <trkpt lat="44.49471" lon="6.21761">
        <ele>1739</ele>
        <time>2023-04-21T12:33:33.000Z</time>
      </trkpt>
      <trkpt lat="44.49471" lon="6.21761">
        <ele>1740</ele>
        <time>2023-04-21T12:33:34.000Z</time>
      </trkpt>
      <trkpt lat="44.49471" lon="6.21761">
        <ele>1740</ele>
        <time>2023-04-21T12:33:35.000Z</time>
      </trkpt>
      <trkpt lat="44.49471" lon="6.21761">
        <ele>1740</ele>
        <time>2023-04-21T12:33:36.000Z</time>
      </trkpt>
      <trkpt lat="44.49471" lon="6.21761">
        <ele>1740</ele>
        <time>2023-04-21T12:33:37.000Z</time>
      </trkpt>
      <trkpt lat="44.49471" lon="6.21761">
        <ele>1740</ele>
        <time>2023-04-21T12:33:38.000Z</time>
      </trkpt>
      <trkpt lat="44.49471" lon="6.21761">
        <ele>1740</ele>
        <time>2023-04-21T12:33:39.000Z</time>
      </trkpt>
      <trkpt lat="44.49471" lon="6.21761">
        <ele>1741</ele>
        <time>2023-04-21T12:33:40.000Z</time>
      </trkpt>
      <trkpt lat="44.49471" lon="6.21761">
        <ele>1741</ele>
        <time>2023-04-21T12:33:41.000Z</time>
      </trkpt>
      <trkpt lat="44.49471" lon="6.21761">
        <ele>1741</ele>
        <time>2023-04-21T12:33:42.000Z</time>
      </trkpt>
      <trkpt lat="44.49471" lon="6.21761">
        <ele>1741</ele>
        <time>2023-04-21T12:33:43.000Z</time>
      </trkpt>
      <trkpt lat="44.49471" lon="6.2176">
        <ele>1741</ele>
        <time>2023-04-21T12:33:44.000Z</time>
      </trkpt>
      <trkpt lat="44.49471" lon="6.2176">
        <ele>1741</ele>
        <time>2023-04-21T12:33:45.000Z</time>
      </trkpt>
      <trkpt lat="44.49471" lon="6.2176">
        <ele>1741</ele>
        <time>2023-04-21T12:33:46.000Z</time>
      </trkpt>
      <trkpt lat="44.49471" lon="6.2176">
        <ele>1741</ele>
        <time>2023-04-21T12:33:47.000Z</time>
      </trkpt>
      <trkpt lat="44.49471" lon="6.2176">
        <ele>1741</ele>
        <time>2023-04-21T12:33:48.000Z</time>
      </trkpt>
      <trkpt lat="44.49471" lon="6.2176">
        <ele>1741</ele>
        <time>2023-04-21T12:33:49.000Z</time>
      </trkpt>
      <trkpt lat="44.49471" lon="6.2176">
        <ele>1741</ele>
        <time>2023-04-21T12:33:50.000Z</time>
      </trkpt>
      <trkpt lat="44.49471" lon="6.2176">
        <ele>1741</ele>
        <time>2023-04-21T12:33:51.000Z</time>
      </trkpt>
      <trkpt lat="44.49471" lon="6.2176">
        <ele>1741</ele>
        <time>2023-04-21T12:33:52.000Z</time>
      </trkpt>
      <trkpt lat="44.49471" lon="6.21761">
        <ele>1741</ele>
        <time>2023-04-21T12:33:53.000Z</time>
      </trkpt>
      <trkpt lat="44.49471" lon="6.21761">
        <ele>1741</ele>
        <time>2023-04-21T12:33:54.000Z</time>
      </trkpt>
      <trkpt lat="44.49471" lon="6.21761">
        <ele>1741</ele>
        <time>2023-04-21T12:33:55.000Z</time>
      </trkpt>
      <trkpt lat="44.49471" lon="6.21761">
        <ele>1741</ele>
        <time>2023-04-21T12:33:56.000Z</time>
      </trkpt>
      <trkpt lat="44.49471" lon="6.21761">
        <ele>1741</ele>
        <time>2023-04-21T12:33:57.000Z</time>
      </trkpt>
      <trkpt lat="44.49471" lon="6.21761">
        <ele>1740</ele>
        <time>2023-04-21T12:33:58.000Z</time>
      </trkpt>
      <trkpt lat="44.49471" lon="6.21761">
        <ele>1740</ele>
        <time>2023-04-21T12:33:59.000Z</time>
      </trkpt>
      <trkpt lat="44.49471" lon="6.21761">
        <ele>1740</ele>
        <time>2023-04-21T12:34:00.000Z</time>
      </trkpt>
      <trkpt lat="44.49471" lon="6.21761">
        <ele>1740</ele>
        <time>2023-04-21T12:34:01.000Z</time>
      </trkpt>
      <trkpt lat="44.49471" lon="6.21761">
        <ele>1740</ele>
        <time>2023-04-21T12:34:02.000Z</time>
      </trkpt>
      <trkpt lat="44.49471" lon="6.21761">
        <ele>1740</ele>
        <time>2023-04-21T12:34:03.000Z</time>
      </trkpt>
      <trkpt lat="44.49471" lon="6.21761">
        <ele>1740</ele>
        <time>2023-04-21T12:34:04.000Z</time>
      </trkpt>
      <trkpt lat="44.49471" lon="6.21761">
        <ele>1740</ele>
        <time>2023-04-21T12:34:05.000Z</time>
      </trkpt>
      <trkpt lat="44.49471" lon="6.21761">
        <ele>1740</ele>
        <time>2023-04-21T12:34:06.000Z</time>
      </trkpt>
      <trkpt lat="44.49471" lon="6.21761">
        <ele>1740</ele>
        <time>2023-04-21T12:34:07.000Z</time>
      </trkpt>
      <trkpt lat="44.49471" lon="6.21761">
        <ele>1740</ele>
        <time>2023-04-21T12:34:08.000Z</time>
      </trkpt>
      <trkpt lat="44.49472" lon="6.21761">
        <ele>1741</ele>
        <time>2023-04-21T12:34:09.000Z</time>
      </trkpt>
      <trkpt lat="44.49472" lon="6.21761">
        <ele>1741</ele>
        <time>2023-04-21T12:34:10.000Z</time>
      </trkpt>
      <trkpt lat="44.49472" lon="6.21761">
        <ele>1741</ele>
        <time>2023-04-21T12:34:11.000Z</time>
      </trkpt>
      <trkpt lat="44.49472" lon="6.21761">
        <ele>1741</ele>
        <time>2023-04-21T12:34:12.000Z</time>
      </trkpt>
      <trkpt lat="44.49472" lon="6.21761">
        <ele>1741</ele>
        <time>2023-04-21T12:34:13.000Z</time>
      </trkpt>
      <trkpt lat="44.49472" lon="6.21761">
        <ele>1741</ele>
        <time>2023-04-21T12:34:14.000Z</time>
      </trkpt>
      <trkpt lat="44.49472" lon="6.21761">
        <ele>1741</ele>
        <time>2023-04-21T12:34:15.000Z</time>
      </trkpt>
      <trkpt lat="44.49472" lon="6.21761">
        <ele>1741</ele>
        <time>2023-04-21T12:34:16.000Z</time>
      </trkpt>
      <trkpt lat="44.49472" lon="6.21761">
        <ele>1741</ele>
        <time>2023-04-21T12:34:17.000Z</time>
      </trkpt>
      <trkpt lat="44.49472" lon="6.21761">
        <ele>1741</ele>
        <time>2023-04-21T12:34:18.000Z</time>
      </trkpt>
      <trkpt lat="44.49472" lon="6.21761">
        <ele>1741</ele>
        <time>2023-04-21T12:34:19.000Z</time>
      </trkpt>
      <trkpt lat="44.49472" lon="6.21761">
        <ele>1741</ele>
        <time>2023-04-21T12:34:20.000Z</time>
      </trkpt>
      <trkpt lat="44.49472" lon="6.21761">
        <ele>1741</ele>
        <time>2023-04-21T12:34:21.000Z</time>
      </trkpt>
      <trkpt lat="44.49472" lon="6.21761">
        <ele>1741</ele>
        <time>2023-04-21T12:34:22.000Z</time>
      </trkpt>
      <trkpt lat="44.49472" lon="6.21761">
        <ele>1741</ele>
        <time>2023-04-21T12:34:23.000Z</time>
      </trkpt>
      <trkpt lat="44.49472" lon="6.21761">
        <ele>1741</ele>
        <time>2023-04-21T12:34:24.000Z</time>
      </trkpt>
      <trkpt lat="44.49472" lon="6.21761">
        <ele>1741</ele>
        <time>2023-04-21T12:34:25.000Z</time>
      </trkpt>
      <trkpt lat="44.49472" lon="6.21761">
        <ele>1741</ele>
        <time>2023-04-21T12:34:26.000Z</time>
      </trkpt>
      <trkpt lat="44.49472" lon="6.21761">
        <ele>1741</ele>
        <time>2023-04-21T12:34:27.000Z</time>
      </trkpt>
      <trkpt lat="44.49472" lon="6.21761">
        <ele>1741</ele>
        <time>2023-04-21T12:34:28.000Z</time>
      </trkpt>
      <trkpt lat="44.49472" lon="6.21761">
        <ele>1741</ele>
        <time>2023-04-21T12:34:29.000Z</time>
      </trkpt>
      <trkpt lat="44.49472" lon="6.21761">
        <ele>1741</ele>
        <time>2023-04-21T12:34:30.000Z</time>
      </trkpt>
      <trkpt lat="44.49472" lon="6.21761">
        <ele>1741</ele>
        <time>2023-04-21T12:34:31.000Z</time>
      </trkpt>
      <trkpt lat="44.49472" lon="6.21761">
        <ele>1741</ele>
        <time>2023-04-21T12:34:32.000Z</time>
      </trkpt>
      <trkpt lat="44.49472" lon="6.21761">
        <ele>1741</ele>
        <time>2023-04-21T12:34:33.000Z</time>
      </trkpt>
      <trkpt lat="44.49472" lon="6.21761">
        <ele>1741</ele>
        <time>2023-04-21T12:34:34.000Z</time>
      </trkpt>
      <trkpt lat="44.49472" lon="6.21761">
        <ele>1741</ele>
        <time>2023-04-21T12:34:35.000Z</time>
      </trkpt>
      <trkpt lat="44.49472" lon="6.21761">
        <ele>1741</ele>
        <time>2023-04-21T12:34:36.000Z</time>
      </trkpt>
      <trkpt lat="44.49472" lon="6.21761">
        <ele>1740</ele>
        <time>2023-04-21T12:34:37.000Z</time>
      </trkpt>
      <trkpt lat="44.49472" lon="6.21761">
        <ele>1740</ele>
        <time>2023-04-21T12:34:38.000Z</time>
      </trkpt>
      <trkpt lat="44.49472" lon="6.21761">
        <ele>1740</ele>
        <time>2023-04-21T12:34:39.000Z</time>
      </trkpt>
      <trkpt lat="44.49472" lon="6.2176">
        <ele>1740</ele>
        <time>2023-04-21T12:34:40.000Z</time>
      </trkpt>
      <trkpt lat="44.49472" lon="6.2176">
        <ele>1740</ele>
        <time>2023-04-21T12:34:41.000Z</time>
      </trkpt>
      <trkpt lat="44.49472" lon="6.2176">
        <ele>1740</ele>
        <time>2023-04-21T12:34:42.000Z</time>
      </trkpt>
      <trkpt lat="44.49472" lon="6.2176">
        <ele>1740</ele>
        <time>2023-04-21T12:34:43.000Z</time>
      </trkpt>
      <trkpt lat="44.49472" lon="6.21761">
        <ele>1740</ele>
        <time>2023-04-21T12:34:44.000Z</time>
      </trkpt>
      <trkpt lat="44.49472" lon="6.21761">
        <ele>1740</ele>
        <time>2023-04-21T12:34:45.000Z</time>
      </trkpt>
      <trkpt lat="44.49472" lon="6.21761">
        <ele>1740</ele>
        <time>2023-04-21T12:34:46.000Z</time>
      </trkpt>
      <trkpt lat="44.49472" lon="6.21761">
        <ele>1740</ele>
        <time>2023-04-21T12:34:47.000Z</time>
      </trkpt>
      <trkpt lat="44.49472" lon="6.21761">
        <ele>1740</ele>
        <time>2023-04-21T12:34:48.000Z</time>
      </trkpt>
      <trkpt lat="44.49472" lon="6.21761">
        <ele>1740</ele>
        <time>2023-04-21T12:34:49.000Z</time>
      </trkpt>
      <trkpt lat="44.49472" lon="6.21761">
        <ele>1740</ele>
        <time>2023-04-21T12:34:50.000Z</time>
      </trkpt>
      <trkpt lat="44.49472" lon="6.21761">
        <ele>1740</ele>
        <time>2023-04-21T12:34:51.000Z</time>
      </trkpt>
      <trkpt lat="44.49472" lon="6.21761">
        <ele>1740</ele>
        <time>2023-04-21T12:34:52.000Z</time>
      </trkpt>
      <trkpt lat="44.49472" lon="6.21761">
        <ele>1740</ele>
        <time>2023-04-21T12:34:53.000Z</time>
      </trkpt>
      <trkpt lat="44.49472" lon="6.21761">
        <ele>1740</ele>
        <time>2023-04-21T12:34:54.000Z</time>
      </trkpt>
      <trkpt lat="44.49472" lon="6.21761">
        <ele>1740</ele>
        <time>2023-04-21T12:34:55.000Z</time>
      </trkpt>
      <trkpt lat="44.49472" lon="6.21761">
        <ele>1740</ele>
        <time>2023-04-21T12:34:56.000Z</time>
      </trkpt>
      <trkpt lat="44.49472" lon="6.21761">
        <ele>1740</ele>
        <time>2023-04-21T12:34:57.000Z</time>
      </trkpt>
      <trkpt lat="44.49472" lon="6.21761">
        <ele>1740</ele>
        <time>2023-04-21T12:34:58.000Z</time>
      </trkpt>
      <trkpt lat="44.49472" lon="6.21761">
        <ele>1740</ele>
        <time>2023-04-21T12:34:59.000Z</time>
      </trkpt>
      <trkpt lat="44.49472" lon="6.21761">
        <ele>1740</ele>
        <time>2023-04-21T12:35:00.000Z</time>
      </trkpt>
      <trkpt lat="44.49472" lon="6.21761">
        <ele>1740</ele>
        <time>2023-04-21T12:35:01.000Z</time>
      </trkpt>
      <trkpt lat="44.49472" lon="6.21761">
        <ele>1740</ele>
        <time>2023-04-21T12:35:02.000Z</time>
      </trkpt>
      <trkpt lat="44.49472" lon="6.21761">
        <ele>1740</ele>
        <time>2023-04-21T12:35:03.000Z</time>
      </trkpt>
      <trkpt lat="44.49472" lon="6.21761">
        <ele>1740</ele>
        <time>2023-04-21T12:35:04.000Z</time>
      </trkpt>
      <trkpt lat="44.49472" lon="6.21761">
        <ele>1740</ele>
        <time>2023-04-21T12:35:05.000Z</time>
      </trkpt>
      <trkpt lat="44.49472" lon="6.21761">
        <ele>1740</ele>
        <time>2023-04-21T12:35:06.000Z</time>
      </trkpt>
      <trkpt lat="44.49472" lon="6.21761">
        <ele>1740</ele>
        <time>2023-04-21T12:35:07.000Z</time>
      </trkpt>
      <trkpt lat="44.49472" lon="6.21761">
        <ele>1740</ele>
        <time>2023-04-21T12:35:08.000Z</time>
      </trkpt>
      <trkpt lat="44.49472" lon="6.21761">
        <ele>1740</ele>
        <time>2023-04-21T12:35:09.000Z</time>
      </trkpt>
      <trkpt lat="44.49472" lon="6.21761">
        <ele>1740</ele>
        <time>2023-04-21T12:35:10.000Z</time>
      </trkpt>
      <trkpt lat="44.49472" lon="6.21761">
        <ele>1740</ele>
        <time>2023-04-21T12:35:11.000Z</time>
      </trkpt>
      <trkpt lat="44.49471" lon="6.2176">
        <ele>1740</ele>
        <time>2023-04-21T12:35:12.000Z</time>
      </trkpt>
      <trkpt lat="44.49471" lon="6.2176">
        <ele>1739</ele>
        <time>2023-04-21T12:35:13.000Z</time>
      </trkpt>
      <trkpt lat="44.49471" lon="6.2176">
        <ele>1739</ele>
        <time>2023-04-21T12:35:14.000Z</time>
      </trkpt>
      <trkpt lat="44.49471" lon="6.2176">
        <ele>1739</ele>
        <time>2023-04-21T12:35:15.000Z</time>
      </trkpt>
      <trkpt lat="44.49471" lon="6.2176">
        <ele>1739</ele>
        <time>2023-04-21T12:35:16.000Z</time>
      </trkpt>
      <trkpt lat="44.49471" lon="6.2176">
        <ele>1739</ele>
        <time>2023-04-21T12:35:17.000Z</time>
      </trkpt>
      <trkpt lat="44.49471" lon="6.2176">
        <ele>1739</ele>
        <time>2023-04-21T12:35:18.000Z</time>
      </trkpt>
      <trkpt lat="44.49471" lon="6.2176">
        <ele>1739</ele>
        <time>2023-04-21T12:35:19.000Z</time>
      </trkpt>
      <trkpt lat="44.49471" lon="6.2176">
        <ele>1739</ele>
        <time>2023-04-21T12:35:20.000Z</time>
      </trkpt>
      <trkpt lat="44.49471" lon="6.2176">
        <ele>1739</ele>
        <time>2023-04-21T12:35:21.000Z</time>
      </trkpt>
      <trkpt lat="44.49471" lon="6.2176">
        <ele>1739</ele>
        <time>2023-04-21T12:35:22.000Z</time>
      </trkpt>
      <trkpt lat="44.49471" lon="6.2176">
        <ele>1739</ele>
        <time>2023-04-21T12:35:23.000Z</time>
      </trkpt>
      <trkpt lat="44.49471" lon="6.2176">
        <ele>1739</ele>
        <time>2023-04-21T12:35:24.000Z</time>
      </trkpt>
      <trkpt lat="44.49471" lon="6.2176">
        <ele>1738</ele>
        <time>2023-04-21T12:35:25.000Z</time>
      </trkpt>
      <trkpt lat="44.49471" lon="6.2176">
        <ele>1738</ele>
        <time>2023-04-21T12:35:26.000Z</time>
      </trkpt>
      <trkpt lat="44.49471" lon="6.2176">
        <ele>1738</ele>
        <time>2023-04-21T12:35:27.000Z</time>
      </trkpt>
      <trkpt lat="44.49471" lon="6.2176">
        <ele>1738</ele>
        <time>2023-04-21T12:35:28.000Z</time>
      </trkpt>
      <trkpt lat="44.49471" lon="6.2176">
        <ele>1738</ele>
        <time>2023-04-21T12:35:29.000Z</time>
      </trkpt>
      <trkpt lat="44.49471" lon="6.2176">
        <ele>1738</ele>
        <time>2023-04-21T12:35:30.000Z</time>
      </trkpt>
      <trkpt lat="44.49471" lon="6.2176">
        <ele>1738</ele>
        <time>2023-04-21T12:35:31.000Z</time>
      </trkpt>
      <trkpt lat="44.49471" lon="6.2176">
        <ele>1738</ele>
        <time>2023-04-21T12:35:32.000Z</time>
      </trkpt>
      <trkpt lat="44.49471" lon="6.2176">
        <ele>1738</ele>
        <time>2023-04-21T12:35:33.000Z</time>
      </trkpt>
      <trkpt lat="44.49471" lon="6.2176">
        <ele>1738</ele>
        <time>2023-04-21T12:35:34.000Z</time>
      </trkpt>
      <trkpt lat="44.49471" lon="6.2176">
        <ele>1738</ele>
        <time>2023-04-21T12:35:35.000Z</time>
      </trkpt>
      <trkpt lat="44.49471" lon="6.2176">
        <ele>1738</ele>
        <time>2023-04-21T12:35:36.000Z</time>
      </trkpt>
      <trkpt lat="44.49471" lon="6.2176">
        <ele>1738</ele>
        <time>2023-04-21T12:35:37.000Z</time>
      </trkpt>
      <trkpt lat="44.49471" lon="6.2176">
        <ele>1738</ele>
        <time>2023-04-21T12:35:38.000Z</time>
      </trkpt>
      <trkpt lat="44.49471" lon="6.2176">
        <ele>1738</ele>
        <time>2023-04-21T12:35:39.000Z</time>
      </trkpt>
      <trkpt lat="44.49471" lon="6.2176">
        <ele>1738</ele>
        <time>2023-04-21T12:35:40.000Z</time>
      </trkpt>
      <trkpt lat="44.4947" lon="6.2176">
        <ele>1738</ele>
        <time>2023-04-21T12:35:41.000Z</time>
      </trkpt>
      <trkpt lat="44.4947" lon="6.2176">
        <ele>1738</ele>
        <time>2023-04-21T12:35:42.000Z</time>
      </trkpt>
      <trkpt lat="44.4947" lon="6.2176">
        <ele>1738</ele>
        <time>2023-04-21T12:35:43.000Z</time>
      </trkpt>
      <trkpt lat="44.4947" lon="6.2176">
        <ele>1738</ele>
        <time>2023-04-21T12:35:44.000Z</time>
      </trkpt>
      <trkpt lat="44.4947" lon="6.21759">
        <ele>1737</ele>
        <time>2023-04-21T12:35:45.000Z</time>
      </trkpt>
      <trkpt lat="44.4947" lon="6.21759">
        <ele>1737</ele>
        <time>2023-04-21T12:35:46.000Z</time>
      </trkpt>
      <trkpt lat="44.4947" lon="6.21759">
        <ele>1737</ele>
        <time>2023-04-21T12:35:47.000Z</time>
      </trkpt>
      <trkpt lat="44.4947" lon="6.21759">
        <ele>1737</ele>
        <time>2023-04-21T12:35:48.000Z</time>
      </trkpt>
      <trkpt lat="44.4947" lon="6.21759">
        <ele>1737</ele>
        <time>2023-04-21T12:35:49.000Z</time>
      </trkpt>
      <trkpt lat="44.4947" lon="6.21759">
        <ele>1737</ele>
        <time>2023-04-21T12:35:50.000Z</time>
      </trkpt>
      <trkpt lat="44.4947" lon="6.21759">
        <ele>1737</ele>
        <time>2023-04-21T12:35:51.000Z</time>
      </trkpt>
      <trkpt lat="44.4947" lon="6.21759">
        <ele>1737</ele>
        <time>2023-04-21T12:35:52.000Z</time>
      </trkpt>
      <trkpt lat="44.4947" lon="6.21759">
        <ele>1737</ele>
        <time>2023-04-21T12:35:53.000Z</time>
      </trkpt>
      <trkpt lat="44.4947" lon="6.21759">
        <ele>1737</ele>
        <time>2023-04-21T12:35:54.000Z</time>
      </trkpt>
      <trkpt lat="44.4947" lon="6.21759">
        <ele>1737</ele>
        <time>2023-04-21T12:35:55.000Z</time>
      </trkpt>
      <trkpt lat="44.4947" lon="6.21759">
        <ele>1737</ele>
        <time>2023-04-21T12:35:56.000Z</time>
      </trkpt>
      <trkpt lat="44.4947" lon="6.21759">
        <ele>1736</ele>
        <time>2023-04-21T12:35:57.000Z</time>
      </trkpt>
      <trkpt lat="44.4947" lon="6.21759">
        <ele>1736</ele>
        <time>2023-04-21T12:35:58.000Z</time>
      </trkpt>
      <trkpt lat="44.4947" lon="6.21758">
        <ele>1736</ele>
        <time>2023-04-21T12:35:59.000Z</time>
      </trkpt>
      <trkpt lat="44.4947" lon="6.21758">
        <ele>1736</ele>
        <time>2023-04-21T12:36:00.000Z</time>
      </trkpt>
      <trkpt lat="44.4947" lon="6.21758">
        <ele>1736</ele>
        <time>2023-04-21T12:36:01.000Z</time>
      </trkpt>
      <trkpt lat="44.4947" lon="6.21758">
        <ele>1736</ele>
        <time>2023-04-21T12:36:02.000Z</time>
      </trkpt>
      <trkpt lat="44.4947" lon="6.21758">
        <ele>1736</ele>
        <time>2023-04-21T12:36:03.000Z</time>
      </trkpt>
      <trkpt lat="44.4947" lon="6.21758">
        <ele>1736</ele>
        <time>2023-04-21T12:36:04.000Z</time>
      </trkpt>
      <trkpt lat="44.4947" lon="6.21758">
        <ele>1736</ele>
        <time>2023-04-21T12:36:05.000Z</time>
      </trkpt>
      <trkpt lat="44.4947" lon="6.21758">
        <ele>1736</ele>
        <time>2023-04-21T12:36:06.000Z</time>
      </trkpt>
      <trkpt lat="44.4947" lon="6.21758">
        <ele>1736</ele>
        <time>2023-04-21T12:36:07.000Z</time>
      </trkpt>
      <trkpt lat="44.4947" lon="6.21759">
        <ele>1736</ele>
        <time>2023-04-21T12:36:08.000Z</time>
      </trkpt>
      <trkpt lat="44.4947" lon="6.21759">
        <ele>1736</ele>
        <time>2023-04-21T12:36:09.000Z</time>
      </trkpt>
      <trkpt lat="44.4947" lon="6.21759">
        <ele>1737</ele>
        <time>2023-04-21T12:36:10.000Z</time>
      </trkpt>
      <trkpt lat="44.4947" lon="6.21759">
        <ele>1737</ele>
        <time>2023-04-21T12:36:11.000Z</time>
      </trkpt>
      <trkpt lat="44.4947" lon="6.21759">
        <ele>1737</ele>
        <time>2023-04-21T12:36:12.000Z</time>
      </trkpt>
      <trkpt lat="44.4947" lon="6.21759">
        <ele>1737</ele>
        <time>2023-04-21T12:36:13.000Z</time>
      </trkpt>
      <trkpt lat="44.4947" lon="6.21759">
        <ele>1737</ele>
        <time>2023-04-21T12:36:14.000Z</time>
      </trkpt>
      <trkpt lat="44.4947" lon="6.21759">
        <ele>1737</ele>
        <time>2023-04-21T12:36:15.000Z</time>
      </trkpt>
      <trkpt lat="44.4947" lon="6.21759">
        <ele>1737</ele>
        <time>2023-04-21T12:36:16.000Z</time>
      </trkpt>
      <trkpt lat="44.4947" lon="6.21759">
        <ele>1737</ele>
        <time>2023-04-21T12:36:17.000Z</time>
      </trkpt>
      <trkpt lat="44.49471" lon="6.21759">
        <ele>1737</ele>
        <time>2023-04-21T12:36:18.000Z</time>
      </trkpt>
      <trkpt lat="44.49471" lon="6.21759">
        <ele>1737</ele>
        <time>2023-04-21T12:36:19.000Z</time>
      </trkpt>
      <trkpt lat="44.49471" lon="6.21758">
        <ele>1737</ele>
        <time>2023-04-21T12:36:20.000Z</time>
      </trkpt>
      <trkpt lat="44.49471" lon="6.21758">
        <ele>1737</ele>
        <time>2023-04-21T12:36:21.000Z</time>
      </trkpt>
      <trkpt lat="44.49471" lon="6.21758">
        <ele>1737</ele>
        <time>2023-04-21T12:36:22.000Z</time>
      </trkpt>
      <trkpt lat="44.49471" lon="6.21758">
        <ele>1737</ele>
        <time>2023-04-21T12:36:23.000Z</time>
      </trkpt>
      <trkpt lat="44.49471" lon="6.21758">
        <ele>1737</ele>
        <time>2023-04-21T12:36:24.000Z</time>
      </trkpt>
      <trkpt lat="44.49471" lon="6.21758">
        <ele>1737</ele>
        <time>2023-04-21T12:36:25.000Z</time>
      </trkpt>
      <trkpt lat="44.49471" lon="6.21758">
        <ele>1737</ele>
        <time>2023-04-21T12:36:26.000Z</time>
      </trkpt>
      <trkpt lat="44.49471" lon="6.21758">
        <ele>1737</ele>
        <time>2023-04-21T12:36:27.000Z</time>
      </trkpt>
      <trkpt lat="44.49471" lon="6.21758">
        <ele>1737</ele>
        <time>2023-04-21T12:36:28.000Z</time>
      </trkpt>
      <trkpt lat="44.49471" lon="6.21758">
        <ele>1737</ele>
        <time>2023-04-21T12:36:29.000Z</time>
      </trkpt>
      <trkpt lat="44.49471" lon="6.21758">
        <ele>1737</ele>
        <time>2023-04-21T12:36:30.000Z</time>
      </trkpt>
      <trkpt lat="44.49471" lon="6.21758">
        <ele>1737</ele>
        <time>2023-04-21T12:36:31.000Z</time>
      </trkpt>
      <trkpt lat="44.49471" lon="6.21758">
        <ele>1737</ele>
        <time>2023-04-21T12:36:32.000Z</time>
      </trkpt>
      <trkpt lat="44.49471" lon="6.21758">
        <ele>1737</ele>
        <time>2023-04-21T12:36:33.000Z</time>
      </trkpt>
      <trkpt lat="44.49471" lon="6.21758">
        <ele>1737</ele>
        <time>2023-04-21T12:36:34.000Z</time>
      </trkpt>
      <trkpt lat="44.49471" lon="6.21758">
        <ele>1737</ele>
        <time>2023-04-21T12:36:35.000Z</time>
      </trkpt>
      <trkpt lat="44.49471" lon="6.21758">
        <ele>1737</ele>
        <time>2023-04-21T12:36:36.000Z</time>
      </trkpt>
      <trkpt lat="44.49471" lon="6.21758">
        <ele>1737</ele>
        <time>2023-04-21T12:36:37.000Z</time>
      </trkpt>
      <trkpt lat="44.49471" lon="6.21758">
        <ele>1737</ele>
        <time>2023-04-21T12:36:38.000Z</time>
      </trkpt>
      <trkpt lat="44.49471" lon="6.21758">
        <ele>1737</ele>
        <time>2023-04-21T12:36:39.000Z</time>
      </trkpt>
      <trkpt lat="44.49471" lon="6.21758">
        <ele>1737</ele>
        <time>2023-04-21T12:36:40.000Z</time>
      </trkpt>
      <trkpt lat="44.49471" lon="6.21758">
        <ele>1737</ele>
        <time>2023-04-21T12:36:41.000Z</time>
      </trkpt>
      <trkpt lat="44.49471" lon="6.21758">
        <ele>1737</ele>
        <time>2023-04-21T12:36:42.000Z</time>
      </trkpt>
      <trkpt lat="44.49471" lon="6.21758">
        <ele>1737</ele>
        <time>2023-04-21T12:36:43.000Z</time>
      </trkpt>
      <trkpt lat="44.49471" lon="6.21758">
        <ele>1737</ele>
        <time>2023-04-21T12:36:44.000Z</time>
      </trkpt>
      <trkpt lat="44.49471" lon="6.21758">
        <ele>1737</ele>
        <time>2023-04-21T12:36:45.000Z</time>
      </trkpt>
      <trkpt lat="44.49471" lon="6.21758">
        <ele>1737</ele>
        <time>2023-04-21T12:36:46.000Z</time>
      </trkpt>
      <trkpt lat="44.49471" lon="6.21758">
        <ele>1737</ele>
        <time>2023-04-21T12:36:47.000Z</time>
      </trkpt>
      <trkpt lat="44.49471" lon="6.21758">
        <ele>1737</ele>
        <time>2023-04-21T12:36:48.000Z</time>
      </trkpt>
      <trkpt lat="44.49471" lon="6.21758">
        <ele>1737</ele>
        <time>2023-04-21T12:36:49.000Z</time>
      </trkpt>
      <trkpt lat="44.49471" lon="6.21758">
        <ele>1737</ele>
        <time>2023-04-21T12:36:50.000Z</time>
      </trkpt>
      <trkpt lat="44.49471" lon="6.21759">
        <ele>1737</ele>
        <time>2023-04-21T12:36:51.000Z</time>
      </trkpt>
      <trkpt lat="44.49471" lon="6.21759">
        <ele>1737</ele>
        <time>2023-04-21T12:36:52.000Z</time>
      </trkpt>
      <trkpt lat="44.49471" lon="6.21759">
        <ele>1737</ele>
        <time>2023-04-21T12:36:53.000Z</time>
      </trkpt>
      <trkpt lat="44.49471" lon="6.21759">
        <ele>1736</ele>
        <time>2023-04-21T12:36:54.000Z</time>
      </trkpt>
      <trkpt lat="44.49471" lon="6.21759">
        <ele>1736</ele>
        <time>2023-04-21T12:36:55.000Z</time>
      </trkpt>
      <trkpt lat="44.49471" lon="6.21759">
        <ele>1736</ele>
        <time>2023-04-21T12:36:56.000Z</time>
      </trkpt>
      <trkpt lat="44.49471" lon="6.21759">
        <ele>1736</ele>
        <time>2023-04-21T12:36:57.000Z</time>
      </trkpt>
      <trkpt lat="44.49471" lon="6.21759">
        <ele>1736</ele>
        <time>2023-04-21T12:36:58.000Z</time>
      </trkpt>
      <trkpt lat="44.49471" lon="6.21759">
        <ele>1736</ele>
        <time>2023-04-21T12:36:59.000Z</time>
      </trkpt>
      <trkpt lat="44.49471" lon="6.21759">
        <ele>1736</ele>
        <time>2023-04-21T12:37:00.000Z</time>
      </trkpt>
      <trkpt lat="44.49471" lon="6.21759">
        <ele>1736</ele>
        <time>2023-04-21T12:37:01.000Z</time>
      </trkpt>
      <trkpt lat="44.49471" lon="6.21759">
        <ele>1736</ele>
        <time>2023-04-21T12:37:02.000Z</time>
      </trkpt>
      <trkpt lat="44.49471" lon="6.21759">
        <ele>1736</ele>
        <time>2023-04-21T12:37:03.000Z</time>
      </trkpt>
      <trkpt lat="44.49471" lon="6.21758">
        <ele>1736</ele>
        <time>2023-04-21T12:37:04.000Z</time>
      </trkpt>
      <trkpt lat="44.49471" lon="6.21758">
        <ele>1736</ele>
        <time>2023-04-21T12:37:05.000Z</time>
      </trkpt>
      <trkpt lat="44.49471" lon="6.21758">
        <ele>1736</ele>
        <time>2023-04-21T12:37:06.000Z</time>
      </trkpt>
      <trkpt lat="44.49471" lon="6.21758">
        <ele>1736</ele>
        <time>2023-04-21T12:37:07.000Z</time>
      </trkpt>
      <trkpt lat="44.49471" lon="6.21758">
        <ele>1736</ele>
        <time>2023-04-21T12:37:08.000Z</time>
      </trkpt>
      <trkpt lat="44.49471" lon="6.21758">
        <ele>1736</ele>
        <time>2023-04-21T12:37:09.000Z</time>
      </trkpt>
      <trkpt lat="44.49471" lon="6.21758">
        <ele>1736</ele>
        <time>2023-04-21T12:37:10.000Z</time>
      </trkpt>
      <trkpt lat="44.49471" lon="6.21758">
        <ele>1736</ele>
        <time>2023-04-21T12:37:11.000Z</time>
      </trkpt>
      <trkpt lat="44.49471" lon="6.21758">
        <ele>1736</ele>
        <time>2023-04-21T12:37:12.000Z</time>
      </trkpt>
      <trkpt lat="44.49471" lon="6.21758">
        <ele>1736</ele>
        <time>2023-04-21T12:37:13.000Z</time>
      </trkpt>
      <trkpt lat="44.49471" lon="6.21758">
        <ele>1736</ele>
        <time>2023-04-21T12:37:14.000Z</time>
      </trkpt>
      <trkpt lat="44.49471" lon="6.21758">
        <ele>1736</ele>
        <time>2023-04-21T12:37:15.000Z</time>
      </trkpt>
      <trkpt lat="44.49471" lon="6.21758">
        <ele>1736</ele>
        <time>2023-04-21T12:37:16.000Z</time>
      </trkpt>
      <trkpt lat="44.49471" lon="6.21758">
        <ele>1736</ele>
        <time>2023-04-21T12:37:17.000Z</time>
      </trkpt>
      <trkpt lat="44.49471" lon="6.21758">
        <ele>1736</ele>
        <time>2023-04-21T12:37:18.000Z</time>
      </trkpt>
      <trkpt lat="44.49471" lon="6.21758">
        <ele>1736</ele>
        <time>2023-04-21T12:37:19.000Z</time>
      </trkpt>
      <trkpt lat="44.49471" lon="6.21758">
        <ele>1736</ele>
        <time>2023-04-21T12:37:20.000Z</time>
      </trkpt>
      <trkpt lat="44.49471" lon="6.21758">
        <ele>1736</ele>
        <time>2023-04-21T12:37:21.000Z</time>
      </trkpt>
      <trkpt lat="44.49471" lon="6.21758">
        <ele>1736</ele>
        <time>2023-04-21T12:37:22.000Z</time>
      </trkpt>
      <trkpt lat="44.49471" lon="6.21757">
        <ele>1736</ele>
        <time>2023-04-21T12:37:23.000Z</time>
      </trkpt>
      <trkpt lat="44.49471" lon="6.21757">
        <ele>1736</ele>
        <time>2023-04-21T12:37:24.000Z</time>
      </trkpt>
      <trkpt lat="44.49471" lon="6.21757">
        <ele>1736</ele>
        <time>2023-04-21T12:37:25.000Z</time>
      </trkpt>
      <trkpt lat="44.49471" lon="6.21757">
        <ele>1736</ele>
        <time>2023-04-21T12:37:26.000Z</time>
      </trkpt>
      <trkpt lat="44.49471" lon="6.21757">
        <ele>1736</ele>
        <time>2023-04-21T12:37:27.000Z</time>
      </trkpt>
      <trkpt lat="44.49471" lon="6.21757">
        <ele>1736</ele>
        <time>2023-04-21T12:37:28.000Z</time>
      </trkpt>
      <trkpt lat="44.49471" lon="6.21757">
        <ele>1736</ele>
        <time>2023-04-21T12:37:29.000Z</time>
      </trkpt>
      <trkpt lat="44.49471" lon="6.21757">
        <ele>1736</ele>
        <time>2023-04-21T12:37:30.000Z</time>
      </trkpt>
      <trkpt lat="44.49471" lon="6.21757">
        <ele>1736</ele>
        <time>2023-04-21T12:37:31.000Z</time>
      </trkpt>
      <trkpt lat="44.49471" lon="6.21757">
        <ele>1736</ele>
        <time>2023-04-21T12:37:32.000Z</time>
      </trkpt>
      <trkpt lat="44.49471" lon="6.21757">
        <ele>1735</ele>
        <time>2023-04-21T12:37:33.000Z</time>
      </trkpt>
      <trkpt lat="44.49471" lon="6.21757">
        <ele>1735</ele>
        <time>2023-04-21T12:37:34.000Z</time>
      </trkpt>
      <trkpt lat="44.49471" lon="6.21757">
        <ele>1735</ele>
        <time>2023-04-21T12:37:35.000Z</time>
      </trkpt>
      <trkpt lat="44.49471" lon="6.21757">
        <ele>1735</ele>
        <time>2023-04-21T12:37:36.000Z</time>
      </trkpt>
      <trkpt lat="44.49471" lon="6.21757">
        <ele>1736</ele>
        <time>2023-04-21T12:37:37.000Z</time>
      </trkpt>
      <trkpt lat="44.49471" lon="6.21757">
        <ele>1736</ele>
        <time>2023-04-21T12:37:38.000Z</time>
      </trkpt>
      <trkpt lat="44.49471" lon="6.21757">
        <ele>1736</ele>
        <time>2023-04-21T12:37:39.000Z</time>
      </trkpt>
      <trkpt lat="44.49471" lon="6.21757">
        <ele>1736</ele>
        <time>2023-04-21T12:37:40.000Z</time>
      </trkpt>
      <trkpt lat="44.49471" lon="6.21757">
        <ele>1736</ele>
        <time>2023-04-21T12:37:41.000Z</time>
      </trkpt>
      <trkpt lat="44.49471" lon="6.21757">
        <ele>1736</ele>
        <time>2023-04-21T12:37:42.000Z</time>
      </trkpt>
      <trkpt lat="44.49471" lon="6.21757">
        <ele>1736</ele>
        <time>2023-04-21T12:37:43.000Z</time>
      </trkpt>
      <trkpt lat="44.49471" lon="6.21757">
        <ele>1736</ele>
        <time>2023-04-21T12:37:44.000Z</time>
      </trkpt>
      <trkpt lat="44.49471" lon="6.21757">
        <ele>1736</ele>
        <time>2023-04-21T12:37:45.000Z</time>
      </trkpt>
      <trkpt lat="44.49471" lon="6.21757">
        <ele>1735</ele>
        <time>2023-04-21T12:37:46.000Z</time>
      </trkpt>
      <trkpt lat="44.49471" lon="6.21757">
        <ele>1735</ele>
        <time>2023-04-21T12:37:47.000Z</time>
      </trkpt>
      <trkpt lat="44.49471" lon="6.21757">
        <ele>1735</ele>
        <time>2023-04-21T12:37:48.000Z</time>
      </trkpt>
      <trkpt lat="44.49471" lon="6.21757">
        <ele>1735</ele>
        <time>2023-04-21T12:37:49.000Z</time>
      </trkpt>
      <trkpt lat="44.49471" lon="6.21757">
        <ele>1735</ele>
        <time>2023-04-21T12:37:50.000Z</time>
      </trkpt>
      <trkpt lat="44.49471" lon="6.21757">
        <ele>1735</ele>
        <time>2023-04-21T12:37:51.000Z</time>
      </trkpt>
      <trkpt lat="44.49471" lon="6.21757">
        <ele>1735</ele>
        <time>2023-04-21T12:37:52.000Z</time>
      </trkpt>
      <trkpt lat="44.49471" lon="6.21757">
        <ele>1735</ele>
        <time>2023-04-21T12:37:53.000Z</time>
      </trkpt>
      <trkpt lat="44.49471" lon="6.21757">
        <ele>1735</ele>
        <time>2023-04-21T12:37:54.000Z</time>
      </trkpt>
      <trkpt lat="44.49471" lon="6.21757">
        <ele>1735</ele>
        <time>2023-04-21T12:37:55.000Z</time>
      </trkpt>
      <trkpt lat="44.49471" lon="6.21757">
        <ele>1735</ele>
        <time>2023-04-21T12:37:56.000Z</time>
      </trkpt>
      <trkpt lat="44.49471" lon="6.21757">
        <ele>1735</ele>
        <time>2023-04-21T12:37:57.000Z</time>
      </trkpt>
      <trkpt lat="44.49471" lon="6.21757">
        <ele>1735</ele>
        <time>2023-04-21T12:37:58.000Z</time>
      </trkpt>
      <trkpt lat="44.49471" lon="6.21757">
        <ele>1735</ele>
        <time>2023-04-21T12:37:59.000Z</time>
      </trkpt>
      <trkpt lat="44.49471" lon="6.21757">
        <ele>1735</ele>
        <time>2023-04-21T12:38:00.000Z</time>
      </trkpt>
      <trkpt lat="44.49471" lon="6.21757">
        <ele>1735</ele>
        <time>2023-04-21T12:38:01.000Z</time>
      </trkpt>
      <trkpt lat="44.49471" lon="6.21757">
        <ele>1735</ele>
        <time>2023-04-21T12:38:02.000Z</time>
      </trkpt>
      <trkpt lat="44.49471" lon="6.21757">
        <ele>1735</ele>
        <time>2023-04-21T12:38:03.000Z</time>
      </trkpt>
      <trkpt lat="44.49471" lon="6.21757">
        <ele>1735</ele>
        <time>2023-04-21T12:38:04.000Z</time>
      </trkpt>
      <trkpt lat="44.49471" lon="6.21757">
        <ele>1735</ele>
        <time>2023-04-21T12:38:05.000Z</time>
      </trkpt>
      <trkpt lat="44.49471" lon="6.21757">
        <ele>1735</ele>
        <time>2023-04-21T12:38:06.000Z</time>
      </trkpt>
      <trkpt lat="44.49471" lon="6.21757">
        <ele>1735</ele>
        <time>2023-04-21T12:38:07.000Z</time>
      </trkpt>
      <trkpt lat="44.49471" lon="6.21758">
        <ele>1735</ele>
        <time>2023-04-21T12:38:08.000Z</time>
      </trkpt>
      <trkpt lat="44.49471" lon="6.21758">
        <ele>1735</ele>
        <time>2023-04-21T12:38:09.000Z</time>
      </trkpt>
      <trkpt lat="44.49471" lon="6.21758">
        <ele>1735</ele>
        <time>2023-04-21T12:38:10.000Z</time>
      </trkpt>
      <trkpt lat="44.49471" lon="6.21758">
        <ele>1735</ele>
        <time>2023-04-21T12:38:11.000Z</time>
      </trkpt>
      <trkpt lat="44.49471" lon="6.21757">
        <ele>1735</ele>
        <time>2023-04-21T12:38:12.000Z</time>
      </trkpt>
      <trkpt lat="44.49471" lon="6.21757">
        <ele>1735</ele>
        <time>2023-04-21T12:38:13.000Z</time>
      </trkpt>
      <trkpt lat="44.49471" lon="6.21757">
        <ele>1735</ele>
        <time>2023-04-21T12:38:14.000Z</time>
      </trkpt>
      <trkpt lat="44.49471" lon="6.21757">
        <ele>1735</ele>
        <time>2023-04-21T12:38:15.000Z</time>
      </trkpt>
      <trkpt lat="44.49471" lon="6.21757">
        <ele>1736</ele>
        <time>2023-04-21T12:38:16.000Z</time>
      </trkpt>
      <trkpt lat="44.49471" lon="6.21757">
        <ele>1736</ele>
        <time>2023-04-21T12:38:17.000Z</time>
      </trkpt>
      <trkpt lat="44.49471" lon="6.21757">
        <ele>1736</ele>
        <time>2023-04-21T12:38:18.000Z</time>
      </trkpt>
      <trkpt lat="44.49471" lon="6.21757">
        <ele>1736</ele>
        <time>2023-04-21T12:38:19.000Z</time>
      </trkpt>
      <trkpt lat="44.49471" lon="6.21757">
        <ele>1736</ele>
        <time>2023-04-21T12:38:20.000Z</time>
      </trkpt>
      <trkpt lat="44.49471" lon="6.21757">
        <ele>1736</ele>
        <time>2023-04-21T12:38:21.000Z</time>
      </trkpt>
      <trkpt lat="44.49471" lon="6.21757">
        <ele>1736</ele>
        <time>2023-04-21T12:38:22.000Z</time>
      </trkpt>
      <trkpt lat="44.49471" lon="6.21757">
        <ele>1736</ele>
        <time>2023-04-21T12:38:23.000Z</time>
      </trkpt>
      <trkpt lat="44.49471" lon="6.21757">
        <ele>1736</ele>
        <time>2023-04-21T12:38:24.000Z</time>
      </trkpt>
      <trkpt lat="44.49471" lon="6.21757">
        <ele>1736</ele>
        <time>2023-04-21T12:38:25.000Z</time>
      </trkpt>
      <trkpt lat="44.49471" lon="6.21757">
        <ele>1736</ele>
        <time>2023-04-21T12:38:26.000Z</time>
      </trkpt>
      <trkpt lat="44.49471" lon="6.21757">
        <ele>1736</ele>
        <time>2023-04-21T12:38:27.000Z</time>
      </trkpt>
      <trkpt lat="44.49471" lon="6.21757">
        <ele>1736</ele>
        <time>2023-04-21T12:38:28.000Z</time>
      </trkpt>
      <trkpt lat="44.49471" lon="6.21757">
        <ele>1736</ele>
        <time>2023-04-21T12:38:29.000Z</time>
      </trkpt>
      <trkpt lat="44.49471" lon="6.21757">
        <ele>1736</ele>
        <time>2023-04-21T12:38:30.000Z</time>
      </trkpt>
      <trkpt lat="44.49471" lon="6.21757">
        <ele>1736</ele>
        <time>2023-04-21T12:38:31.000Z</time>
      </trkpt>
      <trkpt lat="44.49471" lon="6.21757">
        <ele>1736</ele>
        <time>2023-04-21T12:38:32.000Z</time>
      </trkpt>
      <trkpt lat="44.49471" lon="6.21757">
        <ele>1736</ele>
        <time>2023-04-21T12:38:33.000Z</time>
      </trkpt>
      <trkpt lat="44.49471" lon="6.21757">
        <ele>1736</ele>
        <time>2023-04-21T12:38:34.000Z</time>
      </trkpt>
      <trkpt lat="44.49471" lon="6.21757">
        <ele>1736</ele>
        <time>2023-04-21T12:38:35.000Z</time>
      </trkpt>
      <trkpt lat="44.49471" lon="6.21757">
        <ele>1736</ele>
        <time>2023-04-21T12:38:36.000Z</time>
      </trkpt>
      <trkpt lat="44.49471" lon="6.21757">
        <ele>1736</ele>
        <time>2023-04-21T12:38:37.000Z</time>
      </trkpt>
      <trkpt lat="44.49471" lon="6.21757">
        <ele>1736</ele>
        <time>2023-04-21T12:38:38.000Z</time>
      </trkpt>
      <trkpt lat="44.49471" lon="6.21757">
        <ele>1736</ele>
        <time>2023-04-21T12:38:39.000Z</time>
      </trkpt>
      <trkpt lat="44.49471" lon="6.21757">
        <ele>1736</ele>
        <time>2023-04-21T12:38:40.000Z</time>
      </trkpt>
      <trkpt lat="44.49471" lon="6.21757">
        <ele>1736</ele>
        <time>2023-04-21T12:38:41.000Z</time>
      </trkpt>
      <trkpt lat="44.49471" lon="6.21757">
        <ele>1736</ele>
        <time>2023-04-21T12:38:42.000Z</time>
      </trkpt>
      <trkpt lat="44.49471" lon="6.21757">
        <ele>1736</ele>
        <time>2023-04-21T12:38:43.000Z</time>
      </trkpt>
      <trkpt lat="44.49471" lon="6.21757">
        <ele>1736</ele>
        <time>2023-04-21T12:38:44.000Z</time>
      </trkpt>
      <trkpt lat="44.49471" lon="6.21757">
        <ele>1735</ele>
        <time>2023-04-21T12:38:45.000Z</time>
      </trkpt>
      <trkpt lat="44.49471" lon="6.21757">
        <ele>1735</ele>
        <time>2023-04-21T12:38:46.000Z</time>
      </trkpt>
      <trkpt lat="44.49471" lon="6.21757">
        <ele>1735</ele>
        <time>2023-04-21T12:38:47.000Z</time>
      </trkpt>
      <trkpt lat="44.49472" lon="6.21757">
        <ele>1735</ele>
        <time>2023-04-21T12:38:48.000Z</time>
      </trkpt>
      <trkpt lat="44.49472" lon="6.21756">
        <ele>1735</ele>
        <time>2023-04-21T12:38:49.000Z</time>
      </trkpt>
      <trkpt lat="44.49472" lon="6.21756">
        <ele>1735</ele>
        <time>2023-04-21T12:38:50.000Z</time>
      </trkpt>
      <trkpt lat="44.49472" lon="6.21756">
        <ele>1735</ele>
        <time>2023-04-21T12:38:51.000Z</time>
      </trkpt>
      <trkpt lat="44.49472" lon="6.21756">
        <ele>1735</ele>
        <time>2023-04-21T12:38:52.000Z</time>
      </trkpt>
      <trkpt lat="44.49472" lon="6.21756">
        <ele>1735</ele>
        <time>2023-04-21T12:38:53.000Z</time>
      </trkpt>
      <trkpt lat="44.49471" lon="6.21756">
        <ele>1735</ele>
        <time>2023-04-21T12:38:54.000Z</time>
      </trkpt>
      <trkpt lat="44.49471" lon="6.21756">
        <ele>1735</ele>
        <time>2023-04-21T12:38:55.000Z</time>
      </trkpt>
      <trkpt lat="44.49471" lon="6.21756">
        <ele>1735</ele>
        <time>2023-04-21T12:38:56.000Z</time>
      </trkpt>
      <trkpt lat="44.49471" lon="6.21756">
        <ele>1735</ele>
        <time>2023-04-21T12:38:57.000Z</time>
      </trkpt>
      <trkpt lat="44.49471" lon="6.21756">
        <ele>1735</ele>
        <time>2023-04-21T12:38:58.000Z</time>
      </trkpt>
      <trkpt lat="44.49471" lon="6.21756">
        <ele>1735</ele>
        <time>2023-04-21T12:38:59.000Z</time>
      </trkpt>
      <trkpt lat="44.49471" lon="6.21756">
        <ele>1735</ele>
        <time>2023-04-21T12:39:00.000Z</time>
      </trkpt>
      <trkpt lat="44.49471" lon="6.21756">
        <ele>1735</ele>
        <time>2023-04-21T12:39:01.000Z</time>
      </trkpt>
      <trkpt lat="44.49471" lon="6.21756">
        <ele>1735</ele>
        <time>2023-04-21T12:39:02.000Z</time>
      </trkpt>
      <trkpt lat="44.49471" lon="6.21756">
        <ele>1735</ele>
        <time>2023-04-21T12:39:03.000Z</time>
      </trkpt>
      <trkpt lat="44.49471" lon="6.21756">
        <ele>1735</ele>
        <time>2023-04-21T12:39:04.000Z</time>
      </trkpt>
      <trkpt lat="44.49471" lon="6.21756">
        <ele>1736</ele>
        <time>2023-04-21T12:39:05.000Z</time>
      </trkpt>
      <trkpt lat="44.49471" lon="6.21756">
        <ele>1736</ele>
        <time>2023-04-21T12:39:06.000Z</time>
      </trkpt>
      <trkpt lat="44.49471" lon="6.21756">
        <ele>1736</ele>
        <time>2023-04-21T12:39:07.000Z</time>
      </trkpt>
      <trkpt lat="44.49471" lon="6.21756">
        <ele>1736</ele>
        <time>2023-04-21T12:39:08.000Z</time>
      </trkpt>
      <trkpt lat="44.49471" lon="6.21757">
        <ele>1736</ele>
        <time>2023-04-21T12:39:09.000Z</time>
      </trkpt>
      <trkpt lat="44.49471" lon="6.21757">
        <ele>1736</ele>
        <time>2023-04-21T12:39:10.000Z</time>
      </trkpt>
      <trkpt lat="44.49471" lon="6.21757">
        <ele>1736</ele>
        <time>2023-04-21T12:39:11.000Z</time>
      </trkpt>
      <trkpt lat="44.49472" lon="6.21757">
        <ele>1736</ele>
        <time>2023-04-21T12:39:12.000Z</time>
      </trkpt>
      <trkpt lat="44.49472" lon="6.21757">
        <ele>1736</ele>
        <time>2023-04-21T12:39:13.000Z</time>
      </trkpt>
      <trkpt lat="44.49472" lon="6.21757">
        <ele>1736</ele>
        <time>2023-04-21T12:39:14.000Z</time>
      </trkpt>
      <trkpt lat="44.49472" lon="6.21757">
        <ele>1736</ele>
        <time>2023-04-21T12:39:15.000Z</time>
      </trkpt>
      <trkpt lat="44.49472" lon="6.21757">
        <ele>1736</ele>
        <time>2023-04-21T12:39:16.000Z</time>
      </trkpt>
      <trkpt lat="44.49472" lon="6.21757">
        <ele>1736</ele>
        <time>2023-04-21T12:39:17.000Z</time>
      </trkpt>
      <trkpt lat="44.49472" lon="6.21757">
        <ele>1736</ele>
        <time>2023-04-21T12:39:18.000Z</time>
      </trkpt>
      <trkpt lat="44.49472" lon="6.21757">
        <ele>1736</ele>
        <time>2023-04-21T12:39:19.000Z</time>
      </trkpt>
      <trkpt lat="44.49472" lon="6.21757">
        <ele>1736</ele>
        <time>2023-04-21T12:39:20.000Z</time>
      </trkpt>
      <trkpt lat="44.49472" lon="6.21757">
        <ele>1736</ele>
        <time>2023-04-21T12:39:21.000Z</time>
      </trkpt>
      <trkpt lat="44.49472" lon="6.21757">
        <ele>1736</ele>
        <time>2023-04-21T12:39:22.000Z</time>
      </trkpt>
      <trkpt lat="44.49472" lon="6.21757">
        <ele>1736</ele>
        <time>2023-04-21T12:39:23.000Z</time>
      </trkpt>
      <trkpt lat="44.49472" lon="6.21757">
        <ele>1736</ele>
        <time>2023-04-21T12:39:24.000Z</time>
      </trkpt>
      <trkpt lat="44.49472" lon="6.21757">
        <ele>1736</ele>
        <time>2023-04-21T12:39:25.000Z</time>
      </trkpt>
      <trkpt lat="44.49472" lon="6.21757">
        <ele>1736</ele>
        <time>2023-04-21T12:39:26.000Z</time>
      </trkpt>
      <trkpt lat="44.49472" lon="6.21757">
        <ele>1736</ele>
        <time>2023-04-21T12:39:27.000Z</time>
      </trkpt>
      <trkpt lat="44.49472" lon="6.21757">
        <ele>1737</ele>
        <time>2023-04-21T12:39:28.000Z</time>
      </trkpt>
      <trkpt lat="44.49472" lon="6.21757">
        <ele>1737</ele>
        <time>2023-04-21T12:39:29.000Z</time>
      </trkpt>
      <trkpt lat="44.49472" lon="6.21757">
        <ele>1737</ele>
        <time>2023-04-21T12:39:30.000Z</time>
      </trkpt>
      <trkpt lat="44.49472" lon="6.21757">
        <ele>1737</ele>
        <time>2023-04-21T12:39:31.000Z</time>
      </trkpt>
      <trkpt lat="44.49472" lon="6.21757">
        <ele>1737</ele>
        <time>2023-04-21T12:39:32.000Z</time>
      </trkpt>
      <trkpt lat="44.49472" lon="6.21757">
        <ele>1737</ele>
        <time>2023-04-21T12:39:33.000Z</time>
      </trkpt>
      <trkpt lat="44.49472" lon="6.21757">
        <ele>1737</ele>
        <time>2023-04-21T12:39:34.000Z</time>
      </trkpt>
      <trkpt lat="44.49472" lon="6.21757">
        <ele>1737</ele>
        <time>2023-04-21T12:39:35.000Z</time>
      </trkpt>
      <trkpt lat="44.49472" lon="6.21757">
        <ele>1737</ele>
        <time>2023-04-21T12:39:36.000Z</time>
      </trkpt>
      <trkpt lat="44.49472" lon="6.21757">
        <ele>1737</ele>
        <time>2023-04-21T12:39:37.000Z</time>
      </trkpt>
      <trkpt lat="44.49472" lon="6.21757">
        <ele>1737</ele>
        <time>2023-04-21T12:39:38.000Z</time>
      </trkpt>
      <trkpt lat="44.49472" lon="6.21757">
        <ele>1737</ele>
        <time>2023-04-21T12:39:39.000Z</time>
      </trkpt>
      <trkpt lat="44.49472" lon="6.21757">
        <ele>1737</ele>
        <time>2023-04-21T12:39:40.000Z</time>
      </trkpt>
      <trkpt lat="44.49472" lon="6.21757">
        <ele>1737</ele>
        <time>2023-04-21T12:39:41.000Z</time>
      </trkpt>
      <trkpt lat="44.49472" lon="6.21757">
        <ele>1737</ele>
        <time>2023-04-21T12:39:42.000Z</time>
      </trkpt>
      <trkpt lat="44.49472" lon="6.21757">
        <ele>1737</ele>
        <time>2023-04-21T12:39:43.000Z</time>
      </trkpt>
      <trkpt lat="44.49472" lon="6.21757">
        <ele>1737</ele>
        <time>2023-04-21T12:39:44.000Z</time>
      </trkpt>
      <trkpt lat="44.49472" lon="6.21757">
        <ele>1737</ele>
        <time>2023-04-21T12:39:45.000Z</time>
      </trkpt>
      <trkpt lat="44.49472" lon="6.21757">
        <ele>1737</ele>
        <time>2023-04-21T12:39:46.000Z</time>
      </trkpt>
      <trkpt lat="44.49472" lon="6.21757">
        <ele>1737</ele>
        <time>2023-04-21T12:39:47.000Z</time>
      </trkpt>
      <trkpt lat="44.49472" lon="6.21757">
        <ele>1736</ele>
        <time>2023-04-21T12:39:48.000Z</time>
      </trkpt>
      <trkpt lat="44.49472" lon="6.21757">
        <ele>1736</ele>
        <time>2023-04-21T12:39:49.000Z</time>
      </trkpt>
      <trkpt lat="44.49472" lon="6.21757">
        <ele>1736</ele>
        <time>2023-04-21T12:39:50.000Z</time>
      </trkpt>
      <trkpt lat="44.49472" lon="6.21757">
        <ele>1736</ele>
        <time>2023-04-21T12:39:51.000Z</time>
      </trkpt>
      <trkpt lat="44.49472" lon="6.21757">
        <ele>1736</ele>
        <time>2023-04-21T12:39:52.000Z</time>
      </trkpt>
      <trkpt lat="44.49472" lon="6.21757">
        <ele>1736</ele>
        <time>2023-04-21T12:39:53.000Z</time>
      </trkpt>
      <trkpt lat="44.49472" lon="6.21757">
        <ele>1736</ele>
        <time>2023-04-21T12:39:54.000Z</time>
      </trkpt>
      <trkpt lat="44.49472" lon="6.21758">
        <ele>1736</ele>
        <time>2023-04-21T12:39:55.000Z</time>
      </trkpt>
      <trkpt lat="44.49472" lon="6.21758">
        <ele>1736</ele>
        <time>2023-04-21T12:39:56.000Z</time>
      </trkpt>
      <trkpt lat="44.49472" lon="6.21758">
        <ele>1736</ele>
        <time>2023-04-21T12:39:57.000Z</time>
      </trkpt>
      <trkpt lat="44.49472" lon="6.21758">
        <ele>1737</ele>
        <time>2023-04-21T12:39:58.000Z</time>
      </trkpt>
      <trkpt lat="44.49472" lon="6.21758">
        <ele>1737</ele>
        <time>2023-04-21T12:39:59.000Z</time>
      </trkpt>
      <trkpt lat="44.49472" lon="6.21758">
        <ele>1737</ele>
        <time>2023-04-21T12:40:00.000Z</time>
      </trkpt>
      <trkpt lat="44.49472" lon="6.21758">
        <ele>1737</ele>
        <time>2023-04-21T12:40:01.000Z</time>
      </trkpt>
      <trkpt lat="44.49472" lon="6.21758">
        <ele>1737</ele>
        <time>2023-04-21T12:40:02.000Z</time>
      </trkpt>
      <trkpt lat="44.49472" lon="6.21758">
        <ele>1737</ele>
        <time>2023-04-21T12:40:03.000Z</time>
      </trkpt>
      <trkpt lat="44.49472" lon="6.21758">
        <ele>1737</ele>
        <time>2023-04-21T12:40:04.000Z</time>
      </trkpt>
      <trkpt lat="44.49471" lon="6.21758">
        <ele>1737</ele>
        <time>2023-04-21T12:40:05.000Z</time>
      </trkpt>
      <trkpt lat="44.49471" lon="6.21758">
        <ele>1737</ele>
        <time>2023-04-21T12:40:06.000Z</time>
      </trkpt>
      <trkpt lat="44.49471" lon="6.21758">
        <ele>1737</ele>
        <time>2023-04-21T12:40:07.000Z</time>
      </trkpt>
      <trkpt lat="44.49471" lon="6.21758">
        <ele>1737</ele>
        <time>2023-04-21T12:40:08.000Z</time>
      </trkpt>
      <trkpt lat="44.49471" lon="6.21758">
        <ele>1737</ele>
        <time>2023-04-21T12:40:09.000Z</time>
      </trkpt>
      <trkpt lat="44.49471" lon="6.21758">
        <ele>1737</ele>
        <time>2023-04-21T12:40:10.000Z</time>
      </trkpt>
      <trkpt lat="44.49471" lon="6.21758">
        <ele>1737</ele>
        <time>2023-04-21T12:40:11.000Z</time>
      </trkpt>
      <trkpt lat="44.49471" lon="6.21758">
        <ele>1737</ele>
        <time>2023-04-21T12:40:12.000Z</time>
      </trkpt>
      <trkpt lat="44.49471" lon="6.21758">
        <ele>1737</ele>
        <time>2023-04-21T12:40:13.000Z</time>
      </trkpt>
      <trkpt lat="44.49471" lon="6.21758">
        <ele>1737</ele>
        <time>2023-04-21T12:40:14.000Z</time>
      </trkpt>
      <trkpt lat="44.49471" lon="6.21757">
        <ele>1736</ele>
        <time>2023-04-21T12:40:15.000Z</time>
      </trkpt>
      <trkpt lat="44.49471" lon="6.21757">
        <ele>1736</ele>
        <time>2023-04-21T12:40:16.000Z</time>
      </trkpt>
      <trkpt lat="44.49471" lon="6.21757">
        <ele>1736</ele>
        <time>2023-04-21T12:40:17.000Z</time>
      </trkpt>
      <trkpt lat="44.49471" lon="6.21757">
        <ele>1736</ele>
        <time>2023-04-21T12:40:18.000Z</time>
      </trkpt>
      <trkpt lat="44.49471" lon="6.21757">
        <ele>1736</ele>
        <time>2023-04-21T12:40:19.000Z</time>
      </trkpt>
      <trkpt lat="44.49471" lon="6.21757">
        <ele>1736</ele>
        <time>2023-04-21T12:40:20.000Z</time>
      </trkpt>
      <trkpt lat="44.49471" lon="6.21757">
        <ele>1736</ele>
        <time>2023-04-21T12:40:21.000Z</time>
      </trkpt>
      <trkpt lat="44.49471" lon="6.21757">
        <ele>1736</ele>
        <time>2023-04-21T12:40:22.000Z</time>
      </trkpt>
      <trkpt lat="44.49471" lon="6.21757">
        <ele>1736</ele>
        <time>2023-04-21T12:40:23.000Z</time>
      </trkpt>
      <trkpt lat="44.49471" lon="6.21757">
        <ele>1736</ele>
        <time>2023-04-21T12:40:24.000Z</time>
      </trkpt>
      <trkpt lat="44.49471" lon="6.21757">
        <ele>1736</ele>
        <time>2023-04-21T12:40:25.000Z</time>
      </trkpt>
      <trkpt lat="44.49471" lon="6.21757">
        <ele>1736</ele>
        <time>2023-04-21T12:40:26.000Z</time>
      </trkpt>
      <trkpt lat="44.49471" lon="6.21757">
        <ele>1736</ele>
        <time>2023-04-21T12:40:27.000Z</time>
      </trkpt>
      <trkpt lat="44.49471" lon="6.21757">
        <ele>1736</ele>
        <time>2023-04-21T12:40:28.000Z</time>
      </trkpt>
      <trkpt lat="44.49471" lon="6.21757">
        <ele>1736</ele>
        <time>2023-04-21T12:40:29.000Z</time>
      </trkpt>
      <trkpt lat="44.49471" lon="6.21757">
        <ele>1736</ele>
        <time>2023-04-21T12:40:30.000Z</time>
      </trkpt>
      <trkpt lat="44.49471" lon="6.21757">
        <ele>1736</ele>
        <time>2023-04-21T12:40:31.000Z</time>
      </trkpt>
      <trkpt lat="44.49471" lon="6.21757">
        <ele>1735</ele>
        <time>2023-04-21T12:40:32.000Z</time>
      </trkpt>
      <trkpt lat="44.49472" lon="6.21756">
        <ele>1735</ele>
        <time>2023-04-21T12:40:33.000Z</time>
      </trkpt>
      <trkpt lat="44.49472" lon="6.21756">
        <ele>1735</ele>
        <time>2023-04-21T12:40:34.000Z</time>
      </trkpt>
      <trkpt lat="44.49472" lon="6.21756">
        <ele>1735</ele>
        <time>2023-04-21T12:40:35.000Z</time>
      </trkpt>
      <trkpt lat="44.49472" lon="6.21756">
        <ele>1735</ele>
        <time>2023-04-21T12:40:36.000Z</time>
      </trkpt>
      <trkpt lat="44.49472" lon="6.21756">
        <ele>1735</ele>
        <time>2023-04-21T12:40:37.000Z</time>
      </trkpt>
      <trkpt lat="44.49472" lon="6.21756">
        <ele>1735</ele>
        <time>2023-04-21T12:40:38.000Z</time>
      </trkpt>
      <trkpt lat="44.49472" lon="6.21756">
        <ele>1735</ele>
        <time>2023-04-21T12:40:39.000Z</time>
      </trkpt>
      <trkpt lat="44.49472" lon="6.21756">
        <ele>1735</ele>
        <time>2023-04-21T12:40:40.000Z</time>
      </trkpt>
      <trkpt lat="44.49472" lon="6.21756">
        <ele>1735</ele>
        <time>2023-04-21T12:40:41.000Z</time>
      </trkpt>
      <trkpt lat="44.49472" lon="6.21756">
        <ele>1735</ele>
        <time>2023-04-21T12:40:42.000Z</time>
      </trkpt>
      <trkpt lat="44.49472" lon="6.21756">
        <ele>1735</ele>
        <time>2023-04-21T12:40:43.000Z</time>
      </trkpt>
      <trkpt lat="44.49472" lon="6.21756">
        <ele>1735</ele>
        <time>2023-04-21T12:40:44.000Z</time>
      </trkpt>
      <trkpt lat="44.49472" lon="6.21756">
        <ele>1735</ele>
        <time>2023-04-21T12:40:45.000Z</time>
      </trkpt>
      <trkpt lat="44.49472" lon="6.21756">
        <ele>1735</ele>
        <time>2023-04-21T12:40:46.000Z</time>
      </trkpt>
      <trkpt lat="44.49472" lon="6.21756">
        <ele>1735</ele>
        <time>2023-04-21T12:40:47.000Z</time>
      </trkpt>
      <trkpt lat="44.49472" lon="6.21757">
        <ele>1736</ele>
        <time>2023-04-21T12:40:48.000Z</time>
      </trkpt>
      <trkpt lat="44.49472" lon="6.21757">
        <ele>1736</ele>
        <time>2023-04-21T12:40:49.000Z</time>
      </trkpt>
      <trkpt lat="44.49472" lon="6.21757">
        <ele>1736</ele>
        <time>2023-04-21T12:40:50.000Z</time>
      </trkpt>
      <trkpt lat="44.49472" lon="6.21757">
        <ele>1736</ele>
        <time>2023-04-21T12:40:51.000Z</time>
      </trkpt>
      <trkpt lat="44.49471" lon="6.21757">
        <ele>1736</ele>
        <time>2023-04-21T12:40:52.000Z</time>
      </trkpt>
      <trkpt lat="44.49471" lon="6.21757">
        <ele>1736</ele>
        <time>2023-04-21T12:40:53.000Z</time>
      </trkpt>
      <trkpt lat="44.49471" lon="6.21757">
        <ele>1736</ele>
        <time>2023-04-21T12:40:54.000Z</time>
      </trkpt>
      <trkpt lat="44.49471" lon="6.21757">
        <ele>1736</ele>
        <time>2023-04-21T12:40:55.000Z</time>
      </trkpt>
      <trkpt lat="44.49471" lon="6.21757">
        <ele>1736</ele>
        <time>2023-04-21T12:40:56.000Z</time>
      </trkpt>
      <trkpt lat="44.49471" lon="6.21757">
        <ele>1736</ele>
        <time>2023-04-21T12:40:57.000Z</time>
      </trkpt>
      <trkpt lat="44.49471" lon="6.21757">
        <ele>1736</ele>
        <time>2023-04-21T12:40:58.000Z</time>
      </trkpt>
      <trkpt lat="44.49471" lon="6.21757">
        <ele>1736</ele>
        <time>2023-04-21T12:40:59.000Z</time>
      </trkpt>
      <trkpt lat="44.49471" lon="6.21757">
        <ele>1736</ele>
        <time>2023-04-21T12:41:00.000Z</time>
      </trkpt>
      <trkpt lat="44.49471" lon="6.21757">
        <ele>1736</ele>
        <time>2023-04-21T12:41:01.000Z</time>
      </trkpt>
      <trkpt lat="44.49471" lon="6.21757">
        <ele>1736</ele>
        <time>2023-04-21T12:41:02.000Z</time>
      </trkpt>
      <trkpt lat="44.49471" lon="6.21757">
        <ele>1736</ele>
        <time>2023-04-21T12:41:03.000Z</time>
      </trkpt>
      <trkpt lat="44.49471" lon="6.21757">
        <ele>1736</ele>
        <time>2023-04-21T12:41:04.000Z</time>
      </trkpt>
      <trkpt lat="44.49471" lon="6.21757">
        <ele>1736</ele>
        <time>2023-04-21T12:41:05.000Z</time>
      </trkpt>
      <trkpt lat="44.49471" lon="6.21757">
        <ele>1736</ele>
        <time>2023-04-21T12:41:06.000Z</time>
      </trkpt>
      <trkpt lat="44.49471" lon="6.21757">
        <ele>1736</ele>
        <time>2023-04-21T12:41:07.000Z</time>
      </trkpt>
      <trkpt lat="44.49471" lon="6.21757">
        <ele>1736</ele>
        <time>2023-04-21T12:41:08.000Z</time>
      </trkpt>
      <trkpt lat="44.49471" lon="6.21757">
        <ele>1736</ele>
        <time>2023-04-21T12:41:09.000Z</time>
      </trkpt>
      <trkpt lat="44.49471" lon="6.21757">
        <ele>1736</ele>
        <time>2023-04-21T12:41:10.000Z</time>
      </trkpt>
      <trkpt lat="44.49471" lon="6.21757">
        <ele>1736</ele>
        <time>2023-04-21T12:41:11.000Z</time>
      </trkpt>
      <trkpt lat="44.49471" lon="6.21756">
        <ele>1736</ele>
        <time>2023-04-21T12:41:12.000Z</time>
      </trkpt>
      <trkpt lat="44.49471" lon="6.21756">
        <ele>1736</ele>
        <time>2023-04-21T12:41:13.000Z</time>
      </trkpt>
      <trkpt lat="44.49471" lon="6.21756">
        <ele>1736</ele>
        <time>2023-04-21T12:41:14.000Z</time>
      </trkpt>
      <trkpt lat="44.49471" lon="6.21756">
        <ele>1735</ele>
        <time>2023-04-21T12:41:15.000Z</time>
      </trkpt>
      <trkpt lat="44.49471" lon="6.21756">
        <ele>1735</ele>
        <time>2023-04-21T12:41:16.000Z</time>
      </trkpt>
      <trkpt lat="44.49471" lon="6.21756">
        <ele>1735</ele>
        <time>2023-04-21T12:41:17.000Z</time>
      </trkpt>
      <trkpt lat="44.49471" lon="6.21756">
        <ele>1735</ele>
        <time>2023-04-21T12:41:18.000Z</time>
      </trkpt>
      <trkpt lat="44.49471" lon="6.21756">
        <ele>1735</ele>
        <time>2023-04-21T12:41:19.000Z</time>
      </trkpt>
      <trkpt lat="44.49471" lon="6.21756">
        <ele>1735</ele>
        <time>2023-04-21T12:41:20.000Z</time>
      </trkpt>
      <trkpt lat="44.49471" lon="6.21756">
        <ele>1735</ele>
        <time>2023-04-21T12:41:21.000Z</time>
      </trkpt>
      <trkpt lat="44.49471" lon="6.21756">
        <ele>1735</ele>
        <time>2023-04-21T12:41:22.000Z</time>
      </trkpt>
      <trkpt lat="44.49471" lon="6.21756">
        <ele>1736</ele>
        <time>2023-04-21T12:41:23.000Z</time>
      </trkpt>
      <trkpt lat="44.49471" lon="6.21756">
        <ele>1736</ele>
        <time>2023-04-21T12:41:24.000Z</time>
      </trkpt>
      <trkpt lat="44.49471" lon="6.21756">
        <ele>1736</ele>
        <time>2023-04-21T12:41:25.000Z</time>
      </trkpt>
      <trkpt lat="44.49471" lon="6.21756">
        <ele>1736</ele>
        <time>2023-04-21T12:41:26.000Z</time>
      </trkpt>
      <trkpt lat="44.49471" lon="6.21756">
        <ele>1736</ele>
        <time>2023-04-21T12:41:27.000Z</time>
      </trkpt>
      <trkpt lat="44.49471" lon="6.21756">
        <ele>1736</ele>
        <time>2023-04-21T12:41:28.000Z</time>
      </trkpt>
      <trkpt lat="44.49471" lon="6.21757">
        <ele>1736</ele>
        <time>2023-04-21T12:41:29.000Z</time>
      </trkpt>
      <trkpt lat="44.49471" lon="6.21757">
        <ele>1736</ele>
        <time>2023-04-21T12:41:30.000Z</time>
      </trkpt>
      <trkpt lat="44.49471" lon="6.21757">
        <ele>1737</ele>
        <time>2023-04-21T12:41:31.000Z</time>
      </trkpt>
      <trkpt lat="44.49471" lon="6.21757">
        <ele>1737</ele>
        <time>2023-04-21T12:41:32.000Z</time>
      </trkpt>
      <trkpt lat="44.49471" lon="6.21757">
        <ele>1737</ele>
        <time>2023-04-21T12:41:33.000Z</time>
      </trkpt>
      <trkpt lat="44.49471" lon="6.21757">
        <ele>1737</ele>
        <time>2023-04-21T12:41:34.000Z</time>
      </trkpt>
      <trkpt lat="44.49471" lon="6.21757">
        <ele>1737</ele>
        <time>2023-04-21T12:41:35.000Z</time>
      </trkpt>
      <trkpt lat="44.49471" lon="6.21757">
        <ele>1737</ele>
        <time>2023-04-21T12:41:36.000Z</time>
      </trkpt>
      <trkpt lat="44.49471" lon="6.21757">
        <ele>1738</ele>
        <time>2023-04-21T12:41:37.000Z</time>
      </trkpt>
      <trkpt lat="44.49471" lon="6.21758">
        <ele>1738</ele>
        <time>2023-04-21T12:41:38.000Z</time>
      </trkpt>
      <trkpt lat="44.49471" lon="6.21758">
        <ele>1738</ele>
        <time>2023-04-21T12:41:39.000Z</time>
      </trkpt>
      <trkpt lat="44.49471" lon="6.21758">
        <ele>1738</ele>
        <time>2023-04-21T12:41:40.000Z</time>
      </trkpt>
      <trkpt lat="44.49471" lon="6.21758">
        <ele>1738</ele>
        <time>2023-04-21T12:41:41.000Z</time>
      </trkpt>
      <trkpt lat="44.49471" lon="6.21758">
        <ele>1738</ele>
        <time>2023-04-21T12:41:42.000Z</time>
      </trkpt>
      <trkpt lat="44.49471" lon="6.21758">
        <ele>1738</ele>
        <time>2023-04-21T12:41:43.000Z</time>
      </trkpt>
      <trkpt lat="44.49471" lon="6.21758">
        <ele>1738</ele>
        <time>2023-04-21T12:41:44.000Z</time>
      </trkpt>
      <trkpt lat="44.49471" lon="6.21758">
        <ele>1738</ele>
        <time>2023-04-21T12:41:45.000Z</time>
      </trkpt>
      <trkpt lat="44.49471" lon="6.21757">
        <ele>1738</ele>
        <time>2023-04-21T12:41:46.000Z</time>
      </trkpt>
      <trkpt lat="44.49471" lon="6.21757">
        <ele>1738</ele>
        <time>2023-04-21T12:41:47.000Z</time>
      </trkpt>
      <trkpt lat="44.49471" lon="6.21757">
        <ele>1738</ele>
        <time>2023-04-21T12:41:48.000Z</time>
      </trkpt>
      <trkpt lat="44.49471" lon="6.21757">
        <ele>1738</ele>
        <time>2023-04-21T12:41:49.000Z</time>
      </trkpt>
      <trkpt lat="44.49471" lon="6.21757">
        <ele>1738</ele>
        <time>2023-04-21T12:41:50.000Z</time>
      </trkpt>
      <trkpt lat="44.49471" lon="6.21757">
        <ele>1738</ele>
        <time>2023-04-21T12:41:51.000Z</time>
      </trkpt>
      <trkpt lat="44.49471" lon="6.21757">
        <ele>1738</ele>
        <time>2023-04-21T12:41:52.000Z</time>
      </trkpt>
      <trkpt lat="44.49471" lon="6.21757">
        <ele>1738</ele>
        <time>2023-04-21T12:41:53.000Z</time>
      </trkpt>
      <trkpt lat="44.49471" lon="6.21757">
        <ele>1737</ele>
        <time>2023-04-21T12:41:54.000Z</time>
      </trkpt>
      <trkpt lat="44.49471" lon="6.21757">
        <ele>1737</ele>
        <time>2023-04-21T12:41:55.000Z</time>
      </trkpt>
      <trkpt lat="44.49471" lon="6.21757">
        <ele>1737</ele>
        <time>2023-04-21T12:41:56.000Z</time>
      </trkpt>
      <trkpt lat="44.49471" lon="6.21757">
        <ele>1737</ele>
        <time>2023-04-21T12:41:57.000Z</time>
      </trkpt>
      <trkpt lat="44.49471" lon="6.21757">
        <ele>1737</ele>
        <time>2023-04-21T12:41:58.000Z</time>
      </trkpt>
      <trkpt lat="44.49471" lon="6.21757">
        <ele>1737</ele>
        <time>2023-04-21T12:41:59.000Z</time>
      </trkpt>
      <trkpt lat="44.49471" lon="6.21757">
        <ele>1737</ele>
        <time>2023-04-21T12:42:00.000Z</time>
      </trkpt>
      <trkpt lat="44.49471" lon="6.21757">
        <ele>1737</ele>
        <time>2023-04-21T12:42:01.000Z</time>
      </trkpt>
      <trkpt lat="44.49471" lon="6.21757">
        <ele>1737</ele>
        <time>2023-04-21T12:42:02.000Z</time>
      </trkpt>
      <trkpt lat="44.49471" lon="6.21757">
        <ele>1737</ele>
        <time>2023-04-21T12:42:03.000Z</time>
      </trkpt>
      <trkpt lat="44.49471" lon="6.21757">
        <ele>1737</ele>
        <time>2023-04-21T12:42:04.000Z</time>
      </trkpt>
      <trkpt lat="44.49471" lon="6.21757">
        <ele>1737</ele>
        <time>2023-04-21T12:42:05.000Z</time>
      </trkpt>
      <trkpt lat="44.49471" lon="6.21757">
        <ele>1738</ele>
        <time>2023-04-21T12:42:06.000Z</time>
      </trkpt>
      <trkpt lat="44.49471" lon="6.21757">
        <ele>1738</ele>
        <time>2023-04-21T12:42:07.000Z</time>
      </trkpt>
      <trkpt lat="44.4947" lon="6.21757">
        <ele>1738</ele>
        <time>2023-04-21T12:42:08.000Z</time>
      </trkpt>
      <trkpt lat="44.4947" lon="6.21757">
        <ele>1738</ele>
        <time>2023-04-21T12:42:09.000Z</time>
      </trkpt>
      <trkpt lat="44.4947" lon="6.21757">
        <ele>1738</ele>
        <time>2023-04-21T12:42:10.000Z</time>
      </trkpt>
      <trkpt lat="44.4947" lon="6.21757">
        <ele>1738</ele>
        <time>2023-04-21T12:42:11.000Z</time>
      </trkpt>
      <trkpt lat="44.4947" lon="6.21757">
        <ele>1739</ele>
        <time>2023-04-21T12:42:12.000Z</time>
      </trkpt>
      <trkpt lat="44.4947" lon="6.21757">
        <ele>1739</ele>
        <time>2023-04-21T12:42:13.000Z</time>
      </trkpt>
      <trkpt lat="44.4947" lon="6.21757">
        <ele>1739</ele>
        <time>2023-04-21T12:42:14.000Z</time>
      </trkpt>
      <trkpt lat="44.4947" lon="6.21757">
        <ele>1739</ele>
        <time>2023-04-21T12:42:15.000Z</time>
      </trkpt>
      <trkpt lat="44.4947" lon="6.21757">
        <ele>1739</ele>
        <time>2023-04-21T12:42:16.000Z</time>
      </trkpt>
      <trkpt lat="44.4947" lon="6.21757">
        <ele>1739</ele>
        <time>2023-04-21T12:42:17.000Z</time>
      </trkpt>
      <trkpt lat="44.49469" lon="6.21757">
        <ele>1739</ele>
        <time>2023-04-21T12:42:18.000Z</time>
      </trkpt>
      <trkpt lat="44.49469" lon="6.21757">
        <ele>1739</ele>
        <time>2023-04-21T12:42:19.000Z</time>
      </trkpt>
      <trkpt lat="44.49469" lon="6.21757">
        <ele>1739</ele>
        <time>2023-04-21T12:42:20.000Z</time>
      </trkpt>
      <trkpt lat="44.49469" lon="6.21757">
        <ele>1739</ele>
        <time>2023-04-21T12:42:21.000Z</time>
      </trkpt>
      <trkpt lat="44.49469" lon="6.21757">
        <ele>1739</ele>
        <time>2023-04-21T12:42:22.000Z</time>
      </trkpt>
      <trkpt lat="44.49469" lon="6.21757">
        <ele>1739</ele>
        <time>2023-04-21T12:42:23.000Z</time>
      </trkpt>
      <trkpt lat="44.49469" lon="6.21757">
        <ele>1739</ele>
        <time>2023-04-21T12:42:24.000Z</time>
      </trkpt>
      <trkpt lat="44.49469" lon="6.21757">
        <ele>1739</ele>
        <time>2023-04-21T12:42:25.000Z</time>
      </trkpt>
      <trkpt lat="44.49469" lon="6.21757">
        <ele>1739</ele>
        <time>2023-04-21T12:42:26.000Z</time>
      </trkpt>
      <trkpt lat="44.49469" lon="6.21757">
        <ele>1739</ele>
        <time>2023-04-21T12:42:27.000Z</time>
      </trkpt>
      <trkpt lat="44.49469" lon="6.21757">
        <ele>1739</ele>
        <time>2023-04-21T12:42:28.000Z</time>
      </trkpt>
      <trkpt lat="44.49469" lon="6.21757">
        <ele>1739</ele>
        <time>2023-04-21T12:42:29.000Z</time>
      </trkpt>
      <trkpt lat="44.49469" lon="6.21757">
        <ele>1739</ele>
        <time>2023-04-21T12:42:30.000Z</time>
      </trkpt>
      <trkpt lat="44.49469" lon="6.21757">
        <ele>1739</ele>
        <time>2023-04-21T12:42:31.000Z</time>
      </trkpt>
      <trkpt lat="44.49469" lon="6.21757">
        <ele>1739</ele>
        <time>2023-04-21T12:42:32.000Z</time>
      </trkpt>
      <trkpt lat="44.49469" lon="6.21757">
        <ele>1739</ele>
        <time>2023-04-21T12:42:33.000Z</time>
      </trkpt>
      <trkpt lat="44.4947" lon="6.21757">
        <ele>1739</ele>
        <time>2023-04-21T12:42:34.000Z</time>
      </trkpt>
      <trkpt lat="44.4947" lon="6.21757">
        <ele>1739</ele>
        <time>2023-04-21T12:42:35.000Z</time>
      </trkpt>
      <trkpt lat="44.4947" lon="6.21757">
        <ele>1738</ele>
        <time>2023-04-21T12:42:36.000Z</time>
      </trkpt>
      <trkpt lat="44.4947" lon="6.21757">
        <ele>1738</ele>
        <time>2023-04-21T12:42:37.000Z</time>
      </trkpt>
      <trkpt lat="44.4947" lon="6.21757">
        <ele>1738</ele>
        <time>2023-04-21T12:42:38.000Z</time>
      </trkpt>
      <trkpt lat="44.4947" lon="6.21757">
        <ele>1738</ele>
        <time>2023-04-21T12:42:39.000Z</time>
      </trkpt>
      <trkpt lat="44.4947" lon="6.21757">
        <ele>1738</ele>
        <time>2023-04-21T12:42:40.000Z</time>
      </trkpt>
      <trkpt lat="44.4947" lon="6.21757">
        <ele>1738</ele>
        <time>2023-04-21T12:42:41.000Z</time>
      </trkpt>
      <trkpt lat="44.49471" lon="6.21757">
        <ele>1738</ele>
        <time>2023-04-21T12:42:42.000Z</time>
      </trkpt>
      <trkpt lat="44.49471" lon="6.21756">
        <ele>1738</ele>
        <time>2023-04-21T12:42:43.000Z</time>
      </trkpt>
      <trkpt lat="44.49471" lon="6.21756">
        <ele>1738</ele>
        <time>2023-04-21T12:42:44.000Z</time>
      </trkpt>
      <trkpt lat="44.49471" lon="6.21756">
        <ele>1738</ele>
        <time>2023-04-21T12:42:45.000Z</time>
      </trkpt>
      <trkpt lat="44.49471" lon="6.21756">
        <ele>1738</ele>
        <time>2023-04-21T12:42:46.000Z</time>
      </trkpt>
      <trkpt lat="44.49471" lon="6.21756">
        <ele>1738</ele>
        <time>2023-04-21T12:42:47.000Z</time>
      </trkpt>
      <trkpt lat="44.49471" lon="6.21756">
        <ele>1738</ele>
        <time>2023-04-21T12:42:48.000Z</time>
      </trkpt>
      <trkpt lat="44.49471" lon="6.21756">
        <ele>1738</ele>
        <time>2023-04-21T12:42:49.000Z</time>
      </trkpt>
      <trkpt lat="44.49471" lon="6.21756">
        <ele>1738</ele>
        <time>2023-04-21T12:42:50.000Z</time>
      </trkpt>
      <trkpt lat="44.49471" lon="6.21756">
        <ele>1738</ele>
        <time>2023-04-21T12:42:51.000Z</time>
      </trkpt>
      <trkpt lat="44.49471" lon="6.21756">
        <ele>1738</ele>
        <time>2023-04-21T12:42:52.000Z</time>
      </trkpt>
      <trkpt lat="44.49471" lon="6.21756">
        <ele>1738</ele>
        <time>2023-04-21T12:42:53.000Z</time>
      </trkpt>
      <trkpt lat="44.49471" lon="6.21756">
        <ele>1738</ele>
        <time>2023-04-21T12:42:54.000Z</time>
      </trkpt>
      <trkpt lat="44.49471" lon="6.21756">
        <ele>1738</ele>
        <time>2023-04-21T12:42:55.000Z</time>
      </trkpt>
      <trkpt lat="44.49471" lon="6.21756">
        <ele>1738</ele>
        <time>2023-04-21T12:42:56.000Z</time>
      </trkpt>
      <trkpt lat="44.49471" lon="6.21756">
        <ele>1738</ele>
        <time>2023-04-21T12:42:57.000Z</time>
      </trkpt>
      <trkpt lat="44.49471" lon="6.21756">
        <ele>1738</ele>
        <time>2023-04-21T12:42:58.000Z</time>
      </trkpt>
      <trkpt lat="44.49471" lon="6.21756">
        <ele>1738</ele>
        <time>2023-04-21T12:42:59.000Z</time>
      </trkpt>
      <trkpt lat="44.49471" lon="6.21756">
        <ele>1738</ele>
        <time>2023-04-21T12:43:00.000Z</time>
      </trkpt>
      <trkpt lat="44.49471" lon="6.21755">
        <ele>1738</ele>
        <time>2023-04-21T12:43:01.000Z</time>
      </trkpt>
      <trkpt lat="44.49471" lon="6.21755">
        <ele>1738</ele>
        <time>2023-04-21T12:43:02.000Z</time>
      </trkpt>
      <trkpt lat="44.49471" lon="6.21755">
        <ele>1738</ele>
        <time>2023-04-21T12:43:03.000Z</time>
      </trkpt>
      <trkpt lat="44.49471" lon="6.21755">
        <ele>1738</ele>
        <time>2023-04-21T12:43:04.000Z</time>
      </trkpt>
      <trkpt lat="44.49471" lon="6.21755">
        <ele>1739</ele>
        <time>2023-04-21T12:43:05.000Z</time>
      </trkpt>
      <trkpt lat="44.49471" lon="6.21755">
        <ele>1739</ele>
        <time>2023-04-21T12:43:06.000Z</time>
      </trkpt>
      <trkpt lat="44.49471" lon="6.21755">
        <ele>1739</ele>
        <time>2023-04-21T12:43:07.000Z</time>
      </trkpt>
      <trkpt lat="44.49471" lon="6.21755">
        <ele>1739</ele>
        <time>2023-04-21T12:43:08.000Z</time>
      </trkpt>
      <trkpt lat="44.49471" lon="6.21755">
        <ele>1739</ele>
        <time>2023-04-21T12:43:09.000Z</time>
      </trkpt>
      <trkpt lat="44.49471" lon="6.21755">
        <ele>1739</ele>
        <time>2023-04-21T12:43:10.000Z</time>
      </trkpt>
      <trkpt lat="44.49471" lon="6.21755">
        <ele>1739</ele>
        <time>2023-04-21T12:43:11.000Z</time>
      </trkpt>
      <trkpt lat="44.49471" lon="6.21755">
        <ele>1739</ele>
        <time>2023-04-21T12:43:12.000Z</time>
      </trkpt>
      <trkpt lat="44.49471" lon="6.21755">
        <ele>1739</ele>
        <time>2023-04-21T12:43:13.000Z</time>
      </trkpt>
      <trkpt lat="44.49471" lon="6.21755">
        <ele>1739</ele>
        <time>2023-04-21T12:43:14.000Z</time>
      </trkpt>
      <trkpt lat="44.49471" lon="6.21755">
        <ele>1739</ele>
        <time>2023-04-21T12:43:15.000Z</time>
      </trkpt>
      <trkpt lat="44.49471" lon="6.21755">
        <ele>1739</ele>
        <time>2023-04-21T12:43:16.000Z</time>
      </trkpt>
      <trkpt lat="44.49471" lon="6.21755">
        <ele>1739</ele>
        <time>2023-04-21T12:43:17.000Z</time>
      </trkpt>
      <trkpt lat="44.49471" lon="6.21755">
        <ele>1739</ele>
        <time>2023-04-21T12:43:18.000Z</time>
      </trkpt>
      <trkpt lat="44.49471" lon="6.21755">
        <ele>1739</ele>
        <time>2023-04-21T12:43:19.000Z</time>
      </trkpt>
      <trkpt lat="44.49471" lon="6.21755">
        <ele>1739</ele>
        <time>2023-04-21T12:43:20.000Z</time>
      </trkpt>
      <trkpt lat="44.49471" lon="6.21755">
        <ele>1739</ele>
        <time>2023-04-21T12:43:21.000Z</time>
      </trkpt>
      <trkpt lat="44.49471" lon="6.21755">
        <ele>1739</ele>
        <time>2023-04-21T12:43:22.000Z</time>
      </trkpt>
      <trkpt lat="44.49471" lon="6.21755">
        <ele>1739</ele>
        <time>2023-04-21T12:43:23.000Z</time>
      </trkpt>
      <trkpt lat="44.49471" lon="6.21755">
        <ele>1739</ele>
        <time>2023-04-21T12:43:24.000Z</time>
      </trkpt>
      <trkpt lat="44.49471" lon="6.21755">
        <ele>1739</ele>
        <time>2023-04-21T12:43:25.000Z</time>
      </trkpt>
      <trkpt lat="44.49471" lon="6.21755">
        <ele>1738</ele>
        <time>2023-04-21T12:43:26.000Z</time>
      </trkpt>
      <trkpt lat="44.49471" lon="6.21755">
        <ele>1738</ele>
        <time>2023-04-21T12:43:27.000Z</time>
      </trkpt>
      <trkpt lat="44.49471" lon="6.21755">
        <ele>1738</ele>
        <time>2023-04-21T12:43:28.000Z</time>
      </trkpt>
      <trkpt lat="44.49471" lon="6.21755">
        <ele>1738</ele>
        <time>2023-04-21T12:43:29.000Z</time>
      </trkpt>
      <trkpt lat="44.49471" lon="6.21755">
        <ele>1738</ele>
        <time>2023-04-21T12:43:30.000Z</time>
      </trkpt>
      <trkpt lat="44.49471" lon="6.21755">
        <ele>1738</ele>
        <time>2023-04-21T12:43:31.000Z</time>
      </trkpt>
      <trkpt lat="44.49471" lon="6.21755">
        <ele>1737</ele>
        <time>2023-04-21T12:43:32.000Z</time>
      </trkpt>
      <trkpt lat="44.49471" lon="6.21755">
        <ele>1737</ele>
        <time>2023-04-21T12:43:33.000Z</time>
      </trkpt>
      <trkpt lat="44.49471" lon="6.21755">
        <ele>1737</ele>
        <time>2023-04-21T12:43:34.000Z</time>
      </trkpt>
      <trkpt lat="44.49472" lon="6.21755">
        <ele>1737</ele>
        <time>2023-04-21T12:43:35.000Z</time>
      </trkpt>
      <trkpt lat="44.49472" lon="6.21755">
        <ele>1737</ele>
        <time>2023-04-21T12:43:36.000Z</time>
      </trkpt>
      <trkpt lat="44.49472" lon="6.21755">
        <ele>1737</ele>
        <time>2023-04-21T12:43:37.000Z</time>
      </trkpt>
      <trkpt lat="44.49472" lon="6.21755">
        <ele>1737</ele>
        <time>2023-04-21T12:43:38.000Z</time>
      </trkpt>
      <trkpt lat="44.49472" lon="6.21755">
        <ele>1737</ele>
        <time>2023-04-21T12:43:39.000Z</time>
      </trkpt>
      <trkpt lat="44.49472" lon="6.21755">
        <ele>1737</ele>
        <time>2023-04-21T12:43:40.000Z</time>
      </trkpt>
      <trkpt lat="44.49472" lon="6.21755">
        <ele>1737</ele>
        <time>2023-04-21T12:43:41.000Z</time>
      </trkpt>
      <trkpt lat="44.49472" lon="6.21755">
        <ele>1737</ele>
        <time>2023-04-21T12:43:42.000Z</time>
      </trkpt>
      <trkpt lat="44.49472" lon="6.21755">
        <ele>1737</ele>
        <time>2023-04-21T12:43:43.000Z</time>
      </trkpt>
      <trkpt lat="44.49472" lon="6.21755">
        <ele>1737</ele>
        <time>2023-04-21T12:43:44.000Z</time>
      </trkpt>
      <trkpt lat="44.49472" lon="6.21755">
        <ele>1737</ele>
        <time>2023-04-21T12:43:45.000Z</time>
      </trkpt>
      <trkpt lat="44.49471" lon="6.21755">
        <ele>1737</ele>
        <time>2023-04-21T12:43:46.000Z</time>
      </trkpt>
      <trkpt lat="44.49471" lon="6.21755">
        <ele>1737</ele>
        <time>2023-04-21T12:43:47.000Z</time>
      </trkpt>
      <trkpt lat="44.49471" lon="6.21755">
        <ele>1737</ele>
        <time>2023-04-21T12:43:48.000Z</time>
      </trkpt>
      <trkpt lat="44.49471" lon="6.21755">
        <ele>1737</ele>
        <time>2023-04-21T12:43:49.000Z</time>
      </trkpt>
      <trkpt lat="44.49471" lon="6.21755">
        <ele>1737</ele>
        <time>2023-04-21T12:43:50.000Z</time>
      </trkpt>
      <trkpt lat="44.49471" lon="6.21755">
        <ele>1737</ele>
        <time>2023-04-21T12:43:51.000Z</time>
      </trkpt>
      <trkpt lat="44.49471" lon="6.21755">
        <ele>1737</ele>
        <time>2023-04-21T12:43:52.000Z</time>
      </trkpt>
      <trkpt lat="44.49471" lon="6.21755">
        <ele>1737</ele>
        <time>2023-04-21T12:43:53.000Z</time>
      </trkpt>
      <trkpt lat="44.49471" lon="6.21755">
        <ele>1738</ele>
        <time>2023-04-21T12:43:54.000Z</time>
      </trkpt>
      <trkpt lat="44.49471" lon="6.21755">
        <ele>1738</ele>
        <time>2023-04-21T12:43:55.000Z</time>
      </trkpt>
      <trkpt lat="44.49471" lon="6.21755">
        <ele>1738</ele>
        <time>2023-04-21T12:43:56.000Z</time>
      </trkpt>
      <trkpt lat="44.49471" lon="6.21755">
        <ele>1738</ele>
        <time>2023-04-21T12:43:57.000Z</time>
      </trkpt>
      <trkpt lat="44.49471" lon="6.21755">
        <ele>1738</ele>
        <time>2023-04-21T12:43:58.000Z</time>
      </trkpt>
      <trkpt lat="44.49471" lon="6.21755">
        <ele>1738</ele>
        <time>2023-04-21T12:43:59.000Z</time>
      </trkpt>
      <trkpt lat="44.49471" lon="6.21755">
        <ele>1738</ele>
        <time>2023-04-21T12:44:00.000Z</time>
      </trkpt>
      <trkpt lat="44.49471" lon="6.21755">
        <ele>1738</ele>
        <time>2023-04-21T12:44:01.000Z</time>
      </trkpt>
      <trkpt lat="44.49471" lon="6.21755">
        <ele>1738</ele>
        <time>2023-04-21T12:44:02.000Z</time>
      </trkpt>
      <trkpt lat="44.49471" lon="6.21755">
        <ele>1738</ele>
        <time>2023-04-21T12:44:03.000Z</time>
      </trkpt>
      <trkpt lat="44.49471" lon="6.21756">
        <ele>1738</ele>
        <time>2023-04-21T12:44:04.000Z</time>
      </trkpt>
      <trkpt lat="44.49471" lon="6.21756">
        <ele>1738</ele>
        <time>2023-04-21T12:44:05.000Z</time>
      </trkpt>
      <trkpt lat="44.49471" lon="6.21756">
        <ele>1738</ele>
        <time>2023-04-21T12:44:06.000Z</time>
      </trkpt>
      <trkpt lat="44.49471" lon="6.21756">
        <ele>1738</ele>
        <time>2023-04-21T12:44:07.000Z</time>
      </trkpt>
      <trkpt lat="44.49471" lon="6.21756">
        <ele>1738</ele>
        <time>2023-04-21T12:44:08.000Z</time>
      </trkpt>
      <trkpt lat="44.49471" lon="6.21756">
        <ele>1738</ele>
        <time>2023-04-21T12:44:09.000Z</time>
      </trkpt>
      <trkpt lat="44.49471" lon="6.21756">
        <ele>1739</ele>
        <time>2023-04-21T12:44:10.000Z</time>
      </trkpt>
      <trkpt lat="44.49472" lon="6.21756">
        <ele>1739</ele>
        <time>2023-04-21T12:44:11.000Z</time>
      </trkpt>
      <trkpt lat="44.49472" lon="6.21756">
        <ele>1739</ele>
        <time>2023-04-21T12:44:12.000Z</time>
      </trkpt>
      <trkpt lat="44.49472" lon="6.21757">
        <ele>1739</ele>
        <time>2023-04-21T12:44:13.000Z</time>
      </trkpt>
      <trkpt lat="44.49472" lon="6.21757">
        <ele>1739</ele>
        <time>2023-04-21T12:44:14.000Z</time>
      </trkpt>
      <trkpt lat="44.49472" lon="6.21757">
        <ele>1739</ele>
        <time>2023-04-21T12:44:15.000Z</time>
      </trkpt>
      <trkpt lat="44.49472" lon="6.21757">
        <ele>1739</ele>
        <time>2023-04-21T12:44:16.000Z</time>
      </trkpt>
      <trkpt lat="44.49472" lon="6.21757">
        <ele>1739</ele>
        <time>2023-04-21T12:44:17.000Z</time>
      </trkpt>
      <trkpt lat="44.49472" lon="6.21757">
        <ele>1739</ele>
        <time>2023-04-21T12:44:18.000Z</time>
      </trkpt>
      <trkpt lat="44.49472" lon="6.21757">
        <ele>1739</ele>
        <time>2023-04-21T12:44:19.000Z</time>
      </trkpt>
      <trkpt lat="44.49472" lon="6.21757">
        <ele>1739</ele>
        <time>2023-04-21T12:44:20.000Z</time>
      </trkpt>
      <trkpt lat="44.49472" lon="6.21757">
        <ele>1739</ele>
        <time>2023-04-21T12:44:21.000Z</time>
      </trkpt>
      <trkpt lat="44.49472" lon="6.21757">
        <ele>1739</ele>
        <time>2023-04-21T12:44:22.000Z</time>
      </trkpt>
      <trkpt lat="44.49472" lon="6.21757">
        <ele>1739</ele>
        <time>2023-04-21T12:44:23.000Z</time>
      </trkpt>
      <trkpt lat="44.49472" lon="6.21757">
        <ele>1739</ele>
        <time>2023-04-21T12:44:24.000Z</time>
      </trkpt>
      <trkpt lat="44.49472" lon="6.21757">
        <ele>1739</ele>
        <time>2023-04-21T12:44:25.000Z</time>
      </trkpt>
      <trkpt lat="44.49472" lon="6.21757">
        <ele>1738</ele>
        <time>2023-04-21T12:44:26.000Z</time>
      </trkpt>
      <trkpt lat="44.49472" lon="6.21757">
        <ele>1738</ele>
        <time>2023-04-21T12:44:27.000Z</time>
      </trkpt>
      <trkpt lat="44.49473" lon="6.21757">
        <ele>1738</ele>
        <time>2023-04-21T12:44:28.000Z</time>
      </trkpt>
      <trkpt lat="44.49473" lon="6.21757">
        <ele>1738</ele>
        <time>2023-04-21T12:44:29.000Z</time>
      </trkpt>
      <trkpt lat="44.49473" lon="6.21757">
        <ele>1738</ele>
        <time>2023-04-21T12:44:30.000Z</time>
      </trkpt>
      <trkpt lat="44.49473" lon="6.21757">
        <ele>1738</ele>
        <time>2023-04-21T12:44:31.000Z</time>
      </trkpt>
      <trkpt lat="44.49473" lon="6.21757">
        <ele>1738</ele>
        <time>2023-04-21T12:44:32.000Z</time>
      </trkpt>
      <trkpt lat="44.49473" lon="6.21757">
        <ele>1738</ele>
        <time>2023-04-21T12:44:33.000Z</time>
      </trkpt>
      <trkpt lat="44.49473" lon="6.21757">
        <ele>1738</ele>
        <time>2023-04-21T12:44:34.000Z</time>
      </trkpt>
      <trkpt lat="44.49473" lon="6.21757">
        <ele>1738</ele>
        <time>2023-04-21T12:44:35.000Z</time>
      </trkpt>
      <trkpt lat="44.49473" lon="6.21757">
        <ele>1738</ele>
        <time>2023-04-21T12:44:36.000Z</time>
      </trkpt>
      <trkpt lat="44.49472" lon="6.21757">
        <ele>1738</ele>
        <time>2023-04-21T12:44:37.000Z</time>
      </trkpt>
      <trkpt lat="44.49472" lon="6.21757">
        <ele>1738</ele>
        <time>2023-04-21T12:44:38.000Z</time>
      </trkpt>
      <trkpt lat="44.49472" lon="6.21757">
        <ele>1738</ele>
        <time>2023-04-21T12:44:39.000Z</time>
      </trkpt>
      <trkpt lat="44.49472" lon="6.21757">
        <ele>1738</ele>
        <time>2023-04-21T12:44:40.000Z</time>
      </trkpt>
      <trkpt lat="44.49472" lon="6.21757">
        <ele>1738</ele>
        <time>2023-04-21T12:44:41.000Z</time>
      </trkpt>
      <trkpt lat="44.49472" lon="6.21757">
        <ele>1738</ele>
        <time>2023-04-21T12:44:42.000Z</time>
      </trkpt>
      <trkpt lat="44.49472" lon="6.21757">
        <ele>1738</ele>
        <time>2023-04-21T12:44:43.000Z</time>
      </trkpt>
      <trkpt lat="44.49472" lon="6.21757">
        <ele>1738</ele>
        <time>2023-04-21T12:44:44.000Z</time>
      </trkpt>
      <trkpt lat="44.49472" lon="6.21757">
        <ele>1738</ele>
        <time>2023-04-21T12:44:45.000Z</time>
      </trkpt>
      <trkpt lat="44.49472" lon="6.21757">
        <ele>1738</ele>
        <time>2023-04-21T12:44:46.000Z</time>
      </trkpt>
      <trkpt lat="44.49472" lon="6.21757">
        <ele>1738</ele>
        <time>2023-04-21T12:44:47.000Z</time>
      </trkpt>
      <trkpt lat="44.49472" lon="6.21757">
        <ele>1738</ele>
        <time>2023-04-21T12:44:48.000Z</time>
      </trkpt>
      <trkpt lat="44.49472" lon="6.21757">
        <ele>1739</ele>
        <time>2023-04-21T12:44:49.000Z</time>
      </trkpt>
      <trkpt lat="44.49472" lon="6.21757">
        <ele>1739</ele>
        <time>2023-04-21T12:44:50.000Z</time>
      </trkpt>
      <trkpt lat="44.49472" lon="6.21757">
        <ele>1739</ele>
        <time>2023-04-21T12:44:51.000Z</time>
      </trkpt>
      <trkpt lat="44.49472" lon="6.21757">
        <ele>1738</ele>
        <time>2023-04-21T12:44:52.000Z</time>
      </trkpt>
      <trkpt lat="44.49472" lon="6.21757">
        <ele>1738</ele>
        <time>2023-04-21T12:44:53.000Z</time>
      </trkpt>
      <trkpt lat="44.49472" lon="6.21757">
        <ele>1738</ele>
        <time>2023-04-21T12:44:54.000Z</time>
      </trkpt>
      <trkpt lat="44.49472" lon="6.21757">
        <ele>1738</ele>
        <time>2023-04-21T12:44:55.000Z</time>
      </trkpt>
      <trkpt lat="44.49472" lon="6.21757">
        <ele>1738</ele>
        <time>2023-04-21T12:44:56.000Z</time>
      </trkpt>
      <trkpt lat="44.49472" lon="6.21757">
        <ele>1738</ele>
        <time>2023-04-21T12:44:57.000Z</time>
      </trkpt>
      <trkpt lat="44.49472" lon="6.21757">
        <ele>1738</ele>
        <time>2023-04-21T12:44:58.000Z</time>
      </trkpt>
      <trkpt lat="44.49472" lon="6.21757">
        <ele>1738</ele>
        <time>2023-04-21T12:44:59.000Z</time>
      </trkpt>
      <trkpt lat="44.49472" lon="6.21757">
        <ele>1738</ele>
        <time>2023-04-21T12:45:00.000Z</time>
      </trkpt>
      <trkpt lat="44.49472" lon="6.21757">
        <ele>1738</ele>
        <time>2023-04-21T12:45:01.000Z</time>
      </trkpt>
      <trkpt lat="44.49472" lon="6.21757">
        <ele>1738</ele>
        <time>2023-04-21T12:45:02.000Z</time>
      </trkpt>
      <trkpt lat="44.49472" lon="6.21757">
        <ele>1738</ele>
        <time>2023-04-21T12:45:03.000Z</time>
      </trkpt>
      <trkpt lat="44.49471" lon="6.21757">
        <ele>1738</ele>
        <time>2023-04-21T12:45:04.000Z</time>
      </trkpt>
      <trkpt lat="44.49471" lon="6.21757">
        <ele>1737</ele>
        <time>2023-04-21T12:45:05.000Z</time>
      </trkpt>
      <trkpt lat="44.49471" lon="6.21757">
        <ele>1737</ele>
        <time>2023-04-21T12:45:06.000Z</time>
      </trkpt>
      <trkpt lat="44.49471" lon="6.21757">
        <ele>1737</ele>
        <time>2023-04-21T12:45:07.000Z</time>
      </trkpt>
      <trkpt lat="44.49471" lon="6.21757">
        <ele>1737</ele>
        <time>2023-04-21T12:45:08.000Z</time>
      </trkpt>
      <trkpt lat="44.49471" lon="6.21757">
        <ele>1737</ele>
        <time>2023-04-21T12:45:09.000Z</time>
      </trkpt>
      <trkpt lat="44.49471" lon="6.21757">
        <ele>1737</ele>
        <time>2023-04-21T12:45:10.000Z</time>
      </trkpt>
      <trkpt lat="44.49471" lon="6.21757">
        <ele>1737</ele>
        <time>2023-04-21T12:45:11.000Z</time>
      </trkpt>
      <trkpt lat="44.49471" lon="6.21757">
        <ele>1737</ele>
        <time>2023-04-21T12:45:12.000Z</time>
      </trkpt>
      <trkpt lat="44.49471" lon="6.21756">
        <ele>1737</ele>
        <time>2023-04-21T12:45:13.000Z</time>
      </trkpt>
      <trkpt lat="44.49471" lon="6.21756">
        <ele>1737</ele>
        <time>2023-04-21T12:45:14.000Z</time>
      </trkpt>
      <trkpt lat="44.49471" lon="6.21756">
        <ele>1737</ele>
        <time>2023-04-21T12:45:15.000Z</time>
      </trkpt>
      <trkpt lat="44.49471" lon="6.21756">
        <ele>1737</ele>
        <time>2023-04-21T12:45:16.000Z</time>
      </trkpt>
      <trkpt lat="44.49471" lon="6.21756">
        <ele>1737</ele>
        <time>2023-04-21T12:45:17.000Z</time>
      </trkpt>
      <trkpt lat="44.49471" lon="6.21756">
        <ele>1737</ele>
        <time>2023-04-21T12:45:18.000Z</time>
      </trkpt>
      <trkpt lat="44.49471" lon="6.21756">
        <ele>1737</ele>
        <time>2023-04-21T12:45:19.000Z</time>
      </trkpt>
      <trkpt lat="44.49471" lon="6.21756">
        <ele>1737</ele>
        <time>2023-04-21T12:45:20.000Z</time>
      </trkpt>
      <trkpt lat="44.49471" lon="6.21756">
        <ele>1737</ele>
        <time>2023-04-21T12:45:21.000Z</time>
      </trkpt>
      <trkpt lat="44.49471" lon="6.21756">
        <ele>1737</ele>
        <time>2023-04-21T12:45:22.000Z</time>
      </trkpt>
      <trkpt lat="44.49471" lon="6.21756">
        <ele>1736</ele>
        <time>2023-04-21T12:45:23.000Z</time>
      </trkpt>
      <trkpt lat="44.49471" lon="6.21756">
        <ele>1736</ele>
        <time>2023-04-21T12:45:24.000Z</time>
      </trkpt>
      <trkpt lat="44.49471" lon="6.21756">
        <ele>1736</ele>
        <time>2023-04-21T12:45:25.000Z</time>
      </trkpt>
      <trkpt lat="44.49471" lon="6.21756">
        <ele>1736</ele>
        <time>2023-04-21T12:45:26.000Z</time>
      </trkpt>
      <trkpt lat="44.4947" lon="6.21756">
        <ele>1736</ele>
        <time>2023-04-21T12:45:27.000Z</time>
      </trkpt>
      <trkpt lat="44.4947" lon="6.21756">
        <ele>1736</ele>
        <time>2023-04-21T12:45:28.000Z</time>
      </trkpt>
      <trkpt lat="44.4947" lon="6.21756">
        <ele>1736</ele>
        <time>2023-04-21T12:45:29.000Z</time>
      </trkpt>
      <trkpt lat="44.4947" lon="6.21756">
        <ele>1736</ele>
        <time>2023-04-21T12:45:30.000Z</time>
      </trkpt>
      <trkpt lat="44.4947" lon="6.21756">
        <ele>1736</ele>
        <time>2023-04-21T12:45:31.000Z</time>
      </trkpt>
      <trkpt lat="44.4947" lon="6.21756">
        <ele>1736</ele>
        <time>2023-04-21T12:45:32.000Z</time>
      </trkpt>
      <trkpt lat="44.4947" lon="6.21756">
        <ele>1736</ele>
        <time>2023-04-21T12:45:33.000Z</time>
      </trkpt>
      <trkpt lat="44.4947" lon="6.21756">
        <ele>1736</ele>
        <time>2023-04-21T12:45:34.000Z</time>
      </trkpt>
      <trkpt lat="44.4947" lon="6.21756">
        <ele>1736</ele>
        <time>2023-04-21T12:45:35.000Z</time>
      </trkpt>
      <trkpt lat="44.4947" lon="6.21756">
        <ele>1736</ele>
        <time>2023-04-21T12:45:36.000Z</time>
      </trkpt>
      <trkpt lat="44.4947" lon="6.21756">
        <ele>1736</ele>
        <time>2023-04-21T12:45:37.000Z</time>
      </trkpt>
      <trkpt lat="44.4947" lon="6.21756">
        <ele>1736</ele>
        <time>2023-04-21T12:45:38.000Z</time>
      </trkpt>
      <trkpt lat="44.4947" lon="6.21756">
        <ele>1736</ele>
        <time>2023-04-21T12:45:39.000Z</time>
      </trkpt>
      <trkpt lat="44.4947" lon="6.21756">
        <ele>1735</ele>
        <time>2023-04-21T12:45:40.000Z</time>
      </trkpt>
      <trkpt lat="44.4947" lon="6.21756">
        <ele>1736</ele>
        <time>2023-04-21T12:45:41.000Z</time>
      </trkpt>
      <trkpt lat="44.4947" lon="6.21756">
        <ele>1735</ele>
        <time>2023-04-21T12:45:42.000Z</time>
      </trkpt>
      <trkpt lat="44.4947" lon="6.21756">
        <ele>1735</ele>
        <time>2023-04-21T12:45:43.000Z</time>
      </trkpt>
      <trkpt lat="44.4947" lon="6.21756">
        <ele>1735</ele>
        <time>2023-04-21T12:45:44.000Z</time>
      </trkpt>
      <trkpt lat="44.4947" lon="6.21756">
        <ele>1735</ele>
        <time>2023-04-21T12:45:45.000Z</time>
      </trkpt>
      <trkpt lat="44.4947" lon="6.21756">
        <ele>1735</ele>
        <time>2023-04-21T12:45:46.000Z</time>
      </trkpt>
      <trkpt lat="44.4947" lon="6.21756">
        <ele>1736</ele>
        <time>2023-04-21T12:45:47.000Z</time>
      </trkpt>
      <trkpt lat="44.49471" lon="6.21756">
        <ele>1736</ele>
        <time>2023-04-21T12:45:48.000Z</time>
      </trkpt>
      <trkpt lat="44.49471" lon="6.21756">
        <ele>1736</ele>
        <time>2023-04-21T12:45:49.000Z</time>
      </trkpt>
      <trkpt lat="44.49471" lon="6.21756">
        <ele>1736</ele>
        <time>2023-04-21T12:45:50.000Z</time>
      </trkpt>
      <trkpt lat="44.49471" lon="6.21756">
        <ele>1736</ele>
        <time>2023-04-21T12:45:51.000Z</time>
      </trkpt>
      <trkpt lat="44.49471" lon="6.21756">
        <ele>1736</ele>
        <time>2023-04-21T12:45:52.000Z</time>
      </trkpt>
      <trkpt lat="44.49471" lon="6.21756">
        <ele>1736</ele>
        <time>2023-04-21T12:45:53.000Z</time>
      </trkpt>
      <trkpt lat="44.49471" lon="6.21756">
        <ele>1736</ele>
        <time>2023-04-21T12:45:54.000Z</time>
      </trkpt>
      <trkpt lat="44.49471" lon="6.21756">
        <ele>1736</ele>
        <time>2023-04-21T12:45:55.000Z</time>
      </trkpt>
      <trkpt lat="44.49471" lon="6.21756">
        <ele>1736</ele>
        <time>2023-04-21T12:45:56.000Z</time>
      </trkpt>
      <trkpt lat="44.49471" lon="6.21756">
        <ele>1736</ele>
        <time>2023-04-21T12:45:57.000Z</time>
      </trkpt>
      <trkpt lat="44.49471" lon="6.21756">
        <ele>1736</ele>
        <time>2023-04-21T12:45:58.000Z</time>
      </trkpt>
      <trkpt lat="44.49471" lon="6.21756">
        <ele>1736</ele>
        <time>2023-04-21T12:45:59.000Z</time>
      </trkpt>
      <trkpt lat="44.49471" lon="6.21756">
        <ele>1736</ele>
        <time>2023-04-21T12:46:00.000Z</time>
      </trkpt>
      <trkpt lat="44.49471" lon="6.21756">
        <ele>1736</ele>
        <time>2023-04-21T12:46:01.000Z</time>
      </trkpt>
      <trkpt lat="44.49471" lon="6.21756">
        <ele>1736</ele>
        <time>2023-04-21T12:46:02.000Z</time>
      </trkpt>
      <trkpt lat="44.49471" lon="6.21756">
        <ele>1736</ele>
        <time>2023-04-21T12:46:03.000Z</time>
      </trkpt>
      <trkpt lat="44.49471" lon="6.21756">
        <ele>1736</ele>
        <time>2023-04-21T12:46:04.000Z</time>
      </trkpt>
      <trkpt lat="44.49471" lon="6.21756">
        <ele>1735</ele>
        <time>2023-04-21T12:46:05.000Z</time>
      </trkpt>
      <trkpt lat="44.49471" lon="6.21756">
        <ele>1735</ele>
        <time>2023-04-21T12:46:06.000Z</time>
      </trkpt>
      <trkpt lat="44.49471" lon="6.21756">
        <ele>1735</ele>
        <time>2023-04-21T12:46:07.000Z</time>
      </trkpt>
      <trkpt lat="44.49472" lon="6.21756">
        <ele>1735</ele>
        <time>2023-04-21T12:46:08.000Z</time>
      </trkpt>
      <trkpt lat="44.49472" lon="6.21756">
        <ele>1735</ele>
        <time>2023-04-21T12:46:09.000Z</time>
      </trkpt>
      <trkpt lat="44.49472" lon="6.21756">
        <ele>1735</ele>
        <time>2023-04-21T12:46:10.000Z</time>
      </trkpt>
      <trkpt lat="44.49472" lon="6.21756">
        <ele>1735</ele>
        <time>2023-04-21T12:46:11.000Z</time>
      </trkpt>
      <trkpt lat="44.49472" lon="6.21756">
        <ele>1735</ele>
        <time>2023-04-21T12:46:12.000Z</time>
      </trkpt>
      <trkpt lat="44.49472" lon="6.21756">
        <ele>1735</ele>
        <time>2023-04-21T12:46:13.000Z</time>
      </trkpt>
      <trkpt lat="44.49472" lon="6.21756">
        <ele>1735</ele>
        <time>2023-04-21T12:46:14.000Z</time>
      </trkpt>
      <trkpt lat="44.49472" lon="6.21756">
        <ele>1735</ele>
        <time>2023-04-21T12:46:15.000Z</time>
      </trkpt>
      <trkpt lat="44.49472" lon="6.21756">
        <ele>1735</ele>
        <time>2023-04-21T12:46:16.000Z</time>
      </trkpt>
      <trkpt lat="44.49472" lon="6.21756">
        <ele>1735</ele>
        <time>2023-04-21T12:46:17.000Z</time>
      </trkpt>
      <trkpt lat="44.49472" lon="6.21756">
        <ele>1735</ele>
        <time>2023-04-21T12:46:18.000Z</time>
      </trkpt>
      <trkpt lat="44.49472" lon="6.21756">
        <ele>1735</ele>
        <time>2023-04-21T12:46:19.000Z</time>
      </trkpt>
      <trkpt lat="44.49472" lon="6.21756">
        <ele>1736</ele>
        <time>2023-04-21T12:46:20.000Z</time>
      </trkpt>
      <trkpt lat="44.49472" lon="6.21756">
        <ele>1736</ele>
        <time>2023-04-21T12:46:21.000Z</time>
      </trkpt>
      <trkpt lat="44.49472" lon="6.21756">
        <ele>1736</ele>
        <time>2023-04-21T12:46:22.000Z</time>
      </trkpt>
      <trkpt lat="44.49472" lon="6.21756">
        <ele>1736</ele>
        <time>2023-04-21T12:46:23.000Z</time>
      </trkpt>
      <trkpt lat="44.49472" lon="6.21756">
        <ele>1736</ele>
        <time>2023-04-21T12:46:24.000Z</time>
      </trkpt>
      <trkpt lat="44.49471" lon="6.21756">
        <ele>1736</ele>
        <time>2023-04-21T12:46:25.000Z</time>
      </trkpt>
      <trkpt lat="44.49471" lon="6.21756">
        <ele>1736</ele>
        <time>2023-04-21T12:46:26.000Z</time>
      </trkpt>
      <trkpt lat="44.49471" lon="6.21756">
        <ele>1736</ele>
        <time>2023-04-21T12:46:27.000Z</time>
      </trkpt>
      <trkpt lat="44.49471" lon="6.21756">
        <ele>1736</ele>
        <time>2023-04-21T12:46:28.000Z</time>
      </trkpt>
      <trkpt lat="44.49471" lon="6.21756">
        <ele>1736</ele>
        <time>2023-04-21T12:46:29.000Z</time>
      </trkpt>
      <trkpt lat="44.49471" lon="6.21756">
        <ele>1736</ele>
        <time>2023-04-21T12:46:30.000Z</time>
      </trkpt>
      <trkpt lat="44.49471" lon="6.21756">
        <ele>1736</ele>
        <time>2023-04-21T12:46:31.000Z</time>
      </trkpt>
      <trkpt lat="44.49471" lon="6.21756">
        <ele>1736</ele>
        <time>2023-04-21T12:46:32.000Z</time>
      </trkpt>
      <trkpt lat="44.49471" lon="6.21756">
        <ele>1736</ele>
        <time>2023-04-21T12:46:33.000Z</time>
      </trkpt>
      <trkpt lat="44.4947" lon="6.21756">
        <ele>1736</ele>
        <time>2023-04-21T12:46:34.000Z</time>
      </trkpt>
      <trkpt lat="44.4947" lon="6.21757">
        <ele>1736</ele>
        <time>2023-04-21T12:46:35.000Z</time>
      </trkpt>
      <trkpt lat="44.4947" lon="6.21757">
        <ele>1736</ele>
        <time>2023-04-21T12:46:36.000Z</time>
      </trkpt>
      <trkpt lat="44.4947" lon="6.21757">
        <ele>1736</ele>
        <time>2023-04-21T12:46:37.000Z</time>
      </trkpt>
      <trkpt lat="44.4947" lon="6.21757">
        <ele>1736</ele>
        <time>2023-04-21T12:46:38.000Z</time>
      </trkpt>
      <trkpt lat="44.4947" lon="6.21757">
        <ele>1736</ele>
        <time>2023-04-21T12:46:39.000Z</time>
      </trkpt>
      <trkpt lat="44.4947" lon="6.21757">
        <ele>1736</ele>
        <time>2023-04-21T12:46:40.000Z</time>
      </trkpt>
      <trkpt lat="44.49469" lon="6.21757">
        <ele>1736</ele>
        <time>2023-04-21T12:46:41.000Z</time>
      </trkpt>
      <trkpt lat="44.49469" lon="6.21757">
        <ele>1736</ele>
        <time>2023-04-21T12:46:42.000Z</time>
      </trkpt>
      <trkpt lat="44.49469" lon="6.21757">
        <ele>1736</ele>
        <time>2023-04-21T12:46:43.000Z</time>
      </trkpt>
      <trkpt lat="44.49469" lon="6.21757">
        <ele>1736</ele>
        <time>2023-04-21T12:46:44.000Z</time>
      </trkpt>
      <trkpt lat="44.49469" lon="6.21757">
        <ele>1736</ele>
        <time>2023-04-21T12:46:45.000Z</time>
      </trkpt>
      <trkpt lat="44.49469" lon="6.21757">
        <ele>1736</ele>
        <time>2023-04-21T12:46:46.000Z</time>
      </trkpt>
      <trkpt lat="44.49469" lon="6.21758">
        <ele>1736</ele>
        <time>2023-04-21T12:46:47.000Z</time>
      </trkpt>
      <trkpt lat="44.49469" lon="6.21758">
        <ele>1736</ele>
        <time>2023-04-21T12:46:48.000Z</time>
      </trkpt>
      <trkpt lat="44.49469" lon="6.21758">
        <ele>1736</ele>
        <time>2023-04-21T12:46:49.000Z</time>
      </trkpt>
      <trkpt lat="44.49468" lon="6.21758">
        <ele>1736</ele>
        <time>2023-04-21T12:46:50.000Z</time>
      </trkpt>
      <trkpt lat="44.49468" lon="6.21758">
        <ele>1736</ele>
        <time>2023-04-21T12:46:51.000Z</time>
      </trkpt>
      <trkpt lat="44.49468" lon="6.21758">
        <ele>1736</ele>
        <time>2023-04-21T12:46:52.000Z</time>
      </trkpt>
      <trkpt lat="44.49468" lon="6.21757">
        <ele>1735</ele>
        <time>2023-04-21T12:46:53.000Z</time>
      </trkpt>
      <trkpt lat="44.49468" lon="6.21757">
        <ele>1735</ele>
        <time>2023-04-21T12:46:54.000Z</time>
      </trkpt>
      <trkpt lat="44.49468" lon="6.21757">
        <ele>1735</ele>
        <time>2023-04-21T12:46:55.000Z</time>
      </trkpt>
      <trkpt lat="44.49468" lon="6.21757">
        <ele>1735</ele>
        <time>2023-04-21T12:46:56.000Z</time>
      </trkpt>
      <trkpt lat="44.49468" lon="6.21757">
        <ele>1735</ele>
        <time>2023-04-21T12:46:57.000Z</time>
      </trkpt>
      <trkpt lat="44.49468" lon="6.21757">
        <ele>1735</ele>
        <time>2023-04-21T12:46:58.000Z</time>
      </trkpt>
      <trkpt lat="44.49468" lon="6.21757">
        <ele>1735</ele>
        <time>2023-04-21T12:46:59.000Z</time>
      </trkpt>
      <trkpt lat="44.49468" lon="6.21757">
        <ele>1734</ele>
        <time>2023-04-21T12:47:00.000Z</time>
      </trkpt>
      <trkpt lat="44.49468" lon="6.21756">
        <ele>1734</ele>
        <time>2023-04-21T12:47:01.000Z</time>
      </trkpt>
      <trkpt lat="44.49467" lon="6.21756">
        <ele>1735</ele>
        <time>2023-04-21T12:47:02.000Z</time>
      </trkpt>
      <trkpt lat="44.49467" lon="6.21756">
        <ele>1735</ele>
        <time>2023-04-21T12:47:03.000Z</time>
      </trkpt>
      <trkpt lat="44.49467" lon="6.21756">
        <ele>1735</ele>
        <time>2023-04-21T12:47:04.000Z</time>
      </trkpt>
      <trkpt lat="44.49467" lon="6.21756">
        <ele>1735</ele>
        <time>2023-04-21T12:47:05.000Z</time>
      </trkpt>
      <trkpt lat="44.49467" lon="6.21756">
        <ele>1735</ele>
        <time>2023-04-21T12:47:06.000Z</time>
      </trkpt>
      <trkpt lat="44.49467" lon="6.21756">
        <ele>1735</ele>
        <time>2023-04-21T12:47:07.000Z</time>
      </trkpt>
      <trkpt lat="44.49467" lon="6.21756">
        <ele>1735</ele>
        <time>2023-04-21T12:47:08.000Z</time>
      </trkpt>
      <trkpt lat="44.49467" lon="6.21756">
        <ele>1735</ele>
        <time>2023-04-21T12:47:09.000Z</time>
      </trkpt>
      <trkpt lat="44.49467" lon="6.21755">
        <ele>1735</ele>
        <time>2023-04-21T12:47:10.000Z</time>
      </trkpt>
      <trkpt lat="44.49467" lon="6.21754">
        <ele>1735</ele>
        <time>2023-04-21T12:47:11.000Z</time>
      </trkpt>
      <trkpt lat="44.49467" lon="6.21754">
        <ele>1735</ele>
        <time>2023-04-21T12:47:12.000Z</time>
      </trkpt>
      <trkpt lat="44.49467" lon="6.21754">
        <ele>1735</ele>
        <time>2023-04-21T12:47:13.000Z</time>
      </trkpt>
      <trkpt lat="44.49467" lon="6.21754">
        <ele>1735</ele>
        <time>2023-04-21T12:47:14.000Z</time>
      </trkpt>
      <trkpt lat="44.49467" lon="6.21754">
        <ele>1735</ele>
        <time>2023-04-21T12:47:15.000Z</time>
      </trkpt>
      <trkpt lat="44.49466" lon="6.21753">
        <ele>1735</ele>
        <time>2023-04-21T12:47:16.000Z</time>
      </trkpt>
      <trkpt lat="44.49466" lon="6.21752">
        <ele>1735</ele>
        <time>2023-04-21T12:47:17.000Z</time>
      </trkpt>
      <trkpt lat="44.49465" lon="6.2175">
        <ele>1736</ele>
        <time>2023-04-21T12:47:18.000Z</time>
      </trkpt>
      <trkpt lat="44.49464" lon="6.21749">
        <ele>1736</ele>
        <time>2023-04-21T12:47:19.000Z</time>
      </trkpt>
      <trkpt lat="44.49463" lon="6.21747">
        <ele>1736</ele>
        <time>2023-04-21T12:47:20.000Z</time>
      </trkpt>
      <trkpt lat="44.49461" lon="6.21744">
        <ele>1735</ele>
        <time>2023-04-21T12:47:21.000Z</time>
      </trkpt>
      <trkpt lat="44.49459" lon="6.21742">
        <ele>1735</ele>
        <time>2023-04-21T12:47:22.000Z</time>
      </trkpt>
      <trkpt lat="44.49457" lon="6.2174">
        <ele>1735</ele>
        <time>2023-04-21T12:47:23.000Z</time>
      </trkpt>
      <trkpt lat="44.49456" lon="6.21737">
        <ele>1734</ele>
        <time>2023-04-21T12:47:24.000Z</time>
      </trkpt>
      <trkpt lat="44.49453" lon="6.21735">
        <ele>1733</ele>
        <time>2023-04-21T12:47:25.000Z</time>
      </trkpt>
      <trkpt lat="44.4945" lon="6.21733">
        <ele>1732</ele>
        <time>2023-04-21T12:47:26.000Z</time>
      </trkpt>
      <trkpt lat="44.49449" lon="6.2173">
        <ele>1731</ele>
        <time>2023-04-21T12:47:27.000Z</time>
      </trkpt>
      <trkpt lat="44.49446" lon="6.21728">
        <ele>1731</ele>
        <time>2023-04-21T12:47:28.000Z</time>
      </trkpt>
      <trkpt lat="44.49444" lon="6.21727">
        <ele>1730</ele>
        <time>2023-04-21T12:47:29.000Z</time>
      </trkpt>
      <trkpt lat="44.49442" lon="6.21726">
        <ele>1730</ele>
        <time>2023-04-21T12:47:30.000Z</time>
      </trkpt>
      <trkpt lat="44.49439" lon="6.21725">
        <ele>1729</ele>
        <time>2023-04-21T12:47:31.000Z</time>
      </trkpt>
      <trkpt lat="44.49438" lon="6.21724">
        <ele>1729</ele>
        <time>2023-04-21T12:47:32.000Z</time>
      </trkpt>
      <trkpt lat="44.49437" lon="6.21724">
        <ele>1728</ele>
        <time>2023-04-21T12:47:33.000Z</time>
      </trkpt>
      <trkpt lat="44.49436" lon="6.21724">
        <ele>1728</ele>
        <time>2023-04-21T12:47:34.000Z</time>
      </trkpt>
      <trkpt lat="44.49435" lon="6.21723">
        <ele>1728</ele>
        <time>2023-04-21T12:47:35.000Z</time>
      </trkpt>
      <trkpt lat="44.49435" lon="6.21722">
        <ele>1728</ele>
        <time>2023-04-21T12:47:36.000Z</time>
      </trkpt>
      <trkpt lat="44.49434" lon="6.21721">
        <ele>1727</ele>
        <time>2023-04-21T12:47:37.000Z</time>
      </trkpt>
      <trkpt lat="44.49433" lon="6.21719">
        <ele>1727</ele>
        <time>2023-04-21T12:47:38.000Z</time>
      </trkpt>
      <trkpt lat="44.49431" lon="6.21718">
        <ele>1726</ele>
        <time>2023-04-21T12:47:39.000Z</time>
      </trkpt>
      <trkpt lat="44.4943" lon="6.21717">
        <ele>1726</ele>
        <time>2023-04-21T12:47:40.000Z</time>
      </trkpt>
      <trkpt lat="44.49429" lon="6.21716">
        <ele>1725</ele>
        <time>2023-04-21T12:47:41.000Z</time>
      </trkpt>
      <trkpt lat="44.49427" lon="6.21715">
        <ele>1724</ele>
        <time>2023-04-21T12:47:42.000Z</time>
      </trkpt>
      <trkpt lat="44.49425" lon="6.21713">
        <ele>1724</ele>
        <time>2023-04-21T12:47:43.000Z</time>
      </trkpt>
      <trkpt lat="44.49424" lon="6.21712">
        <ele>1723</ele>
        <time>2023-04-21T12:47:44.000Z</time>
      </trkpt>
      <trkpt lat="44.49422" lon="6.21711">
        <ele>1723</ele>
        <time>2023-04-21T12:47:45.000Z</time>
      </trkpt>
      <trkpt lat="44.4942" lon="6.2171">
        <ele>1723</ele>
        <time>2023-04-21T12:47:46.000Z</time>
      </trkpt>
      <trkpt lat="44.49419" lon="6.21709">
        <ele>1722</ele>
        <time>2023-04-21T12:47:47.000Z</time>
      </trkpt>
      <trkpt lat="44.49418" lon="6.21707">
        <ele>1722</ele>
        <time>2023-04-21T12:47:48.000Z</time>
      </trkpt>
      <trkpt lat="44.49416" lon="6.21706">
        <ele>1722</ele>
        <time>2023-04-21T12:47:49.000Z</time>
      </trkpt>
      <trkpt lat="44.49414" lon="6.21704">
        <ele>1721</ele>
        <time>2023-04-21T12:47:50.000Z</time>
      </trkpt>
      <trkpt lat="44.49412" lon="6.21702">
        <ele>1721</ele>
        <time>2023-04-21T12:47:51.000Z</time>
      </trkpt>
      <trkpt lat="44.49411" lon="6.21701">
        <ele>1720</ele>
        <time>2023-04-21T12:47:52.000Z</time>
      </trkpt>
      <trkpt lat="44.49409" lon="6.217">
        <ele>1720</ele>
        <time>2023-04-21T12:47:53.000Z</time>
      </trkpt>
      <trkpt lat="44.49408" lon="6.21698">
        <ele>1721</ele>
        <time>2023-04-21T12:47:54.000Z</time>
      </trkpt>
      <trkpt lat="44.49408" lon="6.21697">
        <ele>1720</ele>
        <time>2023-04-21T12:47:55.000Z</time>
      </trkpt>
      <trkpt lat="44.49407" lon="6.21696">
        <ele>1720</ele>
        <time>2023-04-21T12:47:56.000Z</time>
      </trkpt>
      <trkpt lat="44.49406" lon="6.21695">
        <ele>1720</ele>
        <time>2023-04-21T12:47:57.000Z</time>
      </trkpt>
      <trkpt lat="44.49405" lon="6.21695">
        <ele>1720</ele>
        <time>2023-04-21T12:47:58.000Z</time>
      </trkpt>
      <trkpt lat="44.49404" lon="6.21694">
        <ele>1720</ele>
        <time>2023-04-21T12:47:59.000Z</time>
      </trkpt>
      <trkpt lat="44.49404" lon="6.21694">
        <ele>1719</ele>
        <time>2023-04-21T12:48:00.000Z</time>
      </trkpt>
      <trkpt lat="44.49404" lon="6.21694">
        <ele>1720</ele>
        <time>2023-04-21T12:48:01.000Z</time>
      </trkpt>
      <trkpt lat="44.49403" lon="6.21694">
        <ele>1719</ele>
        <time>2023-04-21T12:48:02.000Z</time>
      </trkpt>
      <trkpt lat="44.49403" lon="6.21694">
        <ele>1719</ele>
        <time>2023-04-21T12:48:03.000Z</time>
      </trkpt>
      <trkpt lat="44.49403" lon="6.21693">
        <ele>1719</ele>
        <time>2023-04-21T12:48:04.000Z</time>
      </trkpt>
      <trkpt lat="44.49402" lon="6.21693">
        <ele>1719</ele>
        <time>2023-04-21T12:48:05.000Z</time>
      </trkpt>
      <trkpt lat="44.49401" lon="6.21693">
        <ele>1720</ele>
        <time>2023-04-21T12:48:06.000Z</time>
      </trkpt>
      <trkpt lat="44.494" lon="6.21692">
        <ele>1720</ele>
        <time>2023-04-21T12:48:07.000Z</time>
      </trkpt>
      <trkpt lat="44.49399" lon="6.21692">
        <ele>1720</ele>
        <time>2023-04-21T12:48:08.000Z</time>
      </trkpt>
      <trkpt lat="44.49398" lon="6.21691">
        <ele>1720</ele>
        <time>2023-04-21T12:48:09.000Z</time>
      </trkpt>
      <trkpt lat="44.49397" lon="6.21691">
        <ele>1719</ele>
        <time>2023-04-21T12:48:10.000Z</time>
      </trkpt>
      <trkpt lat="44.49397" lon="6.21691">
        <ele>1718</ele>
        <time>2023-04-21T12:48:11.000Z</time>
      </trkpt>
      <trkpt lat="44.49397" lon="6.21691">
        <ele>1718</ele>
        <time>2023-04-21T12:48:12.000Z</time>
      </trkpt>
      <trkpt lat="44.49397" lon="6.21691">
        <ele>1718</ele>
        <time>2023-04-21T12:48:13.000Z</time>
      </trkpt>
      <trkpt lat="44.49397" lon="6.21691">
        <ele>1718</ele>
        <time>2023-04-21T12:48:14.000Z</time>
      </trkpt>
      <trkpt lat="44.49397" lon="6.21691">
        <ele>1718</ele>
        <time>2023-04-21T12:48:15.000Z</time>
      </trkpt>
      <trkpt lat="44.49397" lon="6.2169">
        <ele>1718</ele>
        <time>2023-04-21T12:48:16.000Z</time>
      </trkpt>
      <trkpt lat="44.49397" lon="6.2169">
        <ele>1717</ele>
        <time>2023-04-21T12:48:17.000Z</time>
      </trkpt>
      <trkpt lat="44.49397" lon="6.2169">
        <ele>1717</ele>
        <time>2023-04-21T12:48:18.000Z</time>
      </trkpt>
      <trkpt lat="44.49397" lon="6.2169">
        <ele>1717</ele>
        <time>2023-04-21T12:48:19.000Z</time>
      </trkpt>
      <trkpt lat="44.49397" lon="6.2169">
        <ele>1717</ele>
        <time>2023-04-21T12:48:20.000Z</time>
      </trkpt>
      <trkpt lat="44.49396" lon="6.21689">
        <ele>1718</ele>
        <time>2023-04-21T12:48:21.000Z</time>
      </trkpt>
      <trkpt lat="44.49395" lon="6.21689">
        <ele>1717</ele>
        <time>2023-04-21T12:48:22.000Z</time>
      </trkpt>
      <trkpt lat="44.49394" lon="6.21687">
        <ele>1717</ele>
        <time>2023-04-21T12:48:23.000Z</time>
      </trkpt>
      <trkpt lat="44.49392" lon="6.21686">
        <ele>1716</ele>
        <time>2023-04-21T12:48:24.000Z</time>
      </trkpt>
      <trkpt lat="44.4939" lon="6.21686">
        <ele>1717</ele>
        <time>2023-04-21T12:48:25.000Z</time>
      </trkpt>
      <trkpt lat="44.49389" lon="6.21686">
        <ele>1717</ele>
        <time>2023-04-21T12:48:26.000Z</time>
      </trkpt>
      <trkpt lat="44.49387" lon="6.21687">
        <ele>1717</ele>
        <time>2023-04-21T12:48:27.000Z</time>
      </trkpt>
      <trkpt lat="44.49385" lon="6.21688">
        <ele>1717</ele>
        <time>2023-04-21T12:48:28.000Z</time>
      </trkpt>
      <trkpt lat="44.49384" lon="6.21688">
        <ele>1717</ele>
        <time>2023-04-21T12:48:29.000Z</time>
      </trkpt>
      <trkpt lat="44.49382" lon="6.21688">
        <ele>1717</ele>
        <time>2023-04-21T12:48:30.000Z</time>
      </trkpt>
      <trkpt lat="44.4938" lon="6.21688">
        <ele>1717</ele>
        <time>2023-04-21T12:48:31.000Z</time>
      </trkpt>
      <trkpt lat="44.49379" lon="6.21687">
        <ele>1717</ele>
        <time>2023-04-21T12:48:32.000Z</time>
      </trkpt>
      <trkpt lat="44.49377" lon="6.21686">
        <ele>1717</ele>
        <time>2023-04-21T12:48:33.000Z</time>
      </trkpt>
      <trkpt lat="44.49374" lon="6.21685">
        <ele>1716</ele>
        <time>2023-04-21T12:48:34.000Z</time>
      </trkpt>
      <trkpt lat="44.49371" lon="6.21684">
        <ele>1716</ele>
        <time>2023-04-21T12:48:35.000Z</time>
      </trkpt>
      <trkpt lat="44.49369" lon="6.21682">
        <ele>1716</ele>
        <time>2023-04-21T12:48:36.000Z</time>
      </trkpt>
      <trkpt lat="44.49366" lon="6.21681">
        <ele>1715</ele>
        <time>2023-04-21T12:48:37.000Z</time>
      </trkpt>
      <trkpt lat="44.49364" lon="6.21679">
        <ele>1715</ele>
        <time>2023-04-21T12:48:38.000Z</time>
      </trkpt>
      <trkpt lat="44.49362" lon="6.21677">
        <ele>1715</ele>
        <time>2023-04-21T12:48:39.000Z</time>
      </trkpt>
      <trkpt lat="44.4936" lon="6.21676">
        <ele>1714</ele>
        <time>2023-04-21T12:48:40.000Z</time>
      </trkpt>
      <trkpt lat="44.49358" lon="6.21674">
        <ele>1714</ele>
        <time>2023-04-21T12:48:41.000Z</time>
      </trkpt>
      <trkpt lat="44.49356" lon="6.21671">
        <ele>1713</ele>
        <time>2023-04-21T12:48:42.000Z</time>
      </trkpt>
      <trkpt lat="44.49354" lon="6.21668">
        <ele>1712</ele>
        <time>2023-04-21T12:48:43.000Z</time>
      </trkpt>
      <trkpt lat="44.49351" lon="6.21666">
        <ele>1711</ele>
        <time>2023-04-21T12:48:44.000Z</time>
      </trkpt>
      <trkpt lat="44.49349" lon="6.21664">
        <ele>1710</ele>
        <time>2023-04-21T12:48:45.000Z</time>
      </trkpt>
      <trkpt lat="44.49345" lon="6.21662">
        <ele>1710</ele>
        <time>2023-04-21T12:48:46.000Z</time>
      </trkpt>
      <trkpt lat="44.49341" lon="6.21662">
        <ele>1709</ele>
        <time>2023-04-21T12:48:47.000Z</time>
      </trkpt>
      <trkpt lat="44.49337" lon="6.21661">
        <ele>1708</ele>
        <time>2023-04-21T12:48:48.000Z</time>
      </trkpt>
      <trkpt lat="44.49333" lon="6.2166">
        <ele>1707</ele>
        <time>2023-04-21T12:48:49.000Z</time>
      </trkpt>
      <trkpt lat="44.49329" lon="6.21659">
        <ele>1706</ele>
        <time>2023-04-21T12:48:50.000Z</time>
      </trkpt>
      <trkpt lat="44.49324" lon="6.21659">
        <ele>1705</ele>
        <time>2023-04-21T12:48:51.000Z</time>
      </trkpt>
      <trkpt lat="44.4932" lon="6.21658">
        <ele>1704</ele>
        <time>2023-04-21T12:48:52.000Z</time>
      </trkpt>
      <trkpt lat="44.49315" lon="6.21657">
        <ele>1703</ele>
        <time>2023-04-21T12:48:53.000Z</time>
      </trkpt>
      <trkpt lat="44.4931" lon="6.21655">
        <ele>1704</ele>
        <time>2023-04-21T12:48:54.000Z</time>
      </trkpt>
      <trkpt lat="44.49305" lon="6.21651">
        <ele>1704</ele>
        <time>2023-04-21T12:48:55.000Z</time>
      </trkpt>
      <trkpt lat="44.493" lon="6.21648">
        <ele>1703</ele>
        <time>2023-04-21T12:48:56.000Z</time>
      </trkpt>
      <trkpt lat="44.49295" lon="6.21645">
        <ele>1703</ele>
        <time>2023-04-21T12:48:57.000Z</time>
      </trkpt>
      <trkpt lat="44.49291" lon="6.21641">
        <ele>1703</ele>
        <time>2023-04-21T12:48:58.000Z</time>
      </trkpt>
      <trkpt lat="44.49287" lon="6.21637">
        <ele>1702</ele>
        <time>2023-04-21T12:48:59.000Z</time>
      </trkpt>
      <trkpt lat="44.49282" lon="6.21634">
        <ele>1702</ele>
        <time>2023-04-21T12:49:00.000Z</time>
      </trkpt>
      <trkpt lat="44.49277" lon="6.21631">
        <ele>1702</ele>
        <time>2023-04-21T12:49:01.000Z</time>
      </trkpt>
      <trkpt lat="44.49272" lon="6.21628">
        <ele>1700</ele>
        <time>2023-04-21T12:49:02.000Z</time>
      </trkpt>
      <trkpt lat="44.49266" lon="6.21624">
        <ele>1699</ele>
        <time>2023-04-21T12:49:03.000Z</time>
      </trkpt>
      <trkpt lat="44.4926" lon="6.21622">
        <ele>1698</ele>
        <time>2023-04-21T12:49:04.000Z</time>
      </trkpt>
      <trkpt lat="44.49254" lon="6.21621">
        <ele>1697</ele>
        <time>2023-04-21T12:49:05.000Z</time>
      </trkpt>
      <trkpt lat="44.4925" lon="6.21619">
        <ele>1697</ele>
        <time>2023-04-21T12:49:06.000Z</time>
      </trkpt>
      <trkpt lat="44.49245" lon="6.21616">
        <ele>1696</ele>
        <time>2023-04-21T12:49:07.000Z</time>
      </trkpt>
      <trkpt lat="44.49242" lon="6.21613">
        <ele>1695</ele>
        <time>2023-04-21T12:49:08.000Z</time>
      </trkpt>
      <trkpt lat="44.49238" lon="6.2161">
        <ele>1695</ele>
        <time>2023-04-21T12:49:09.000Z</time>
      </trkpt>
      <trkpt lat="44.49233" lon="6.2161">
        <ele>1694</ele>
        <time>2023-04-21T12:49:10.000Z</time>
      </trkpt>
      <trkpt lat="44.49229" lon="6.21611">
        <ele>1694</ele>
        <time>2023-04-21T12:49:11.000Z</time>
      </trkpt>
      <trkpt lat="44.49225" lon="6.21612">
        <ele>1693</ele>
        <time>2023-04-21T12:49:12.000Z</time>
      </trkpt>
      <trkpt lat="44.49221" lon="6.21611">
        <ele>1693</ele>
        <time>2023-04-21T12:49:13.000Z</time>
      </trkpt>
      <trkpt lat="44.49217" lon="6.2161">
        <ele>1693</ele>
        <time>2023-04-21T12:49:14.000Z</time>
      </trkpt>
      <trkpt lat="44.49213" lon="6.21608">
        <ele>1693</ele>
        <time>2023-04-21T12:49:15.000Z</time>
      </trkpt>
      <trkpt lat="44.4921" lon="6.21605">
        <ele>1692</ele>
        <time>2023-04-21T12:49:16.000Z</time>
      </trkpt>
      <trkpt lat="44.49206" lon="6.21601">
        <ele>1691</ele>
        <time>2023-04-21T12:49:17.000Z</time>
      </trkpt>
      <trkpt lat="44.49203" lon="6.21597">
        <ele>1690</ele>
        <time>2023-04-21T12:49:18.000Z</time>
      </trkpt>
      <trkpt lat="44.492" lon="6.21594">
        <ele>1689</ele>
        <time>2023-04-21T12:49:19.000Z</time>
      </trkpt>
      <trkpt lat="44.49196" lon="6.2159">
        <ele>1688</ele>
        <time>2023-04-21T12:49:20.000Z</time>
      </trkpt>
      <trkpt lat="44.49192" lon="6.21587">
        <ele>1688</ele>
        <time>2023-04-21T12:49:21.000Z</time>
      </trkpt>
      <trkpt lat="44.49187" lon="6.21584">
        <ele>1687</ele>
        <time>2023-04-21T12:49:22.000Z</time>
      </trkpt>
      <trkpt lat="44.49184" lon="6.2158">
        <ele>1686</ele>
        <time>2023-04-21T12:49:23.000Z</time>
      </trkpt>
      <trkpt lat="44.4918" lon="6.21577">
        <ele>1685</ele>
        <time>2023-04-21T12:49:24.000Z</time>
      </trkpt>
      <trkpt lat="44.49176" lon="6.21575">
        <ele>1684</ele>
        <time>2023-04-21T12:49:25.000Z</time>
      </trkpt>
      <trkpt lat="44.49173" lon="6.21572">
        <ele>1684</ele>
        <time>2023-04-21T12:49:26.000Z</time>
      </trkpt>
      <trkpt lat="44.49171" lon="6.21571">
        <ele>1683</ele>
        <time>2023-04-21T12:49:27.000Z</time>
      </trkpt>
      <trkpt lat="44.49169" lon="6.2157">
        <ele>1682</ele>
        <time>2023-04-21T12:49:28.000Z</time>
      </trkpt>
      <trkpt lat="44.49167" lon="6.21569">
        <ele>1682</ele>
        <time>2023-04-21T12:49:29.000Z</time>
      </trkpt>
      <trkpt lat="44.49166" lon="6.21568">
        <ele>1682</ele>
        <time>2023-04-21T12:49:30.000Z</time>
      </trkpt>
      <trkpt lat="44.49166" lon="6.21567">
        <ele>1682</ele>
        <time>2023-04-21T12:49:31.000Z</time>
      </trkpt>
      <trkpt lat="44.49166" lon="6.21568">
        <ele>1682</ele>
        <time>2023-04-21T12:49:32.000Z</time>
      </trkpt>
      <trkpt lat="44.49166" lon="6.21568">
        <ele>1682</ele>
        <time>2023-04-21T12:49:33.000Z</time>
      </trkpt>
      <trkpt lat="44.49166" lon="6.21568">
        <ele>1681</ele>
        <time>2023-04-21T12:49:34.000Z</time>
      </trkpt>
      <trkpt lat="44.49166" lon="6.21568">
        <ele>1681</ele>
        <time>2023-04-21T12:49:35.000Z</time>
      </trkpt>
      <trkpt lat="44.49166" lon="6.21568">
        <ele>1681</ele>
        <time>2023-04-21T12:49:36.000Z</time>
      </trkpt>
      <trkpt lat="44.49166" lon="6.21568">
        <ele>1681</ele>
        <time>2023-04-21T12:49:37.000Z</time>
      </trkpt>
      <trkpt lat="44.49166" lon="6.21568">
        <ele>1681</ele>
        <time>2023-04-21T12:49:38.000Z</time>
      </trkpt>
      <trkpt lat="44.49166" lon="6.21568">
        <ele>1681</ele>
        <time>2023-04-21T12:49:39.000Z</time>
      </trkpt>
      <trkpt lat="44.49166" lon="6.21568">
        <ele>1681</ele>
        <time>2023-04-21T12:49:40.000Z</time>
      </trkpt>
      <trkpt lat="44.49166" lon="6.21567">
        <ele>1681</ele>
        <time>2023-04-21T12:49:41.000Z</time>
      </trkpt>
      <trkpt lat="44.49166" lon="6.21567">
        <ele>1680</ele>
        <time>2023-04-21T12:49:42.000Z</time>
      </trkpt>
      <trkpt lat="44.49165" lon="6.21568">
        <ele>1680</ele>
        <time>2023-04-21T12:49:43.000Z</time>
      </trkpt>
      <trkpt lat="44.49165" lon="6.21568">
        <ele>1680</ele>
        <time>2023-04-21T12:49:44.000Z</time>
      </trkpt>
      <trkpt lat="44.49165" lon="6.21567">
        <ele>1680</ele>
        <time>2023-04-21T12:49:45.000Z</time>
      </trkpt>
      <trkpt lat="44.49165" lon="6.21567">
        <ele>1679</ele>
        <time>2023-04-21T12:49:46.000Z</time>
      </trkpt>
      <trkpt lat="44.49165" lon="6.21567">
        <ele>1679</ele>
        <time>2023-04-21T12:49:47.000Z</time>
      </trkpt>
      <trkpt lat="44.49165" lon="6.21567">
        <ele>1679</ele>
        <time>2023-04-21T12:49:48.000Z</time>
      </trkpt>
      <trkpt lat="44.49165" lon="6.21567">
        <ele>1679</ele>
        <time>2023-04-21T12:49:49.000Z</time>
      </trkpt>
      <trkpt lat="44.49165" lon="6.21567">
        <ele>1679</ele>
        <time>2023-04-21T12:49:50.000Z</time>
      </trkpt>
      <trkpt lat="44.49165" lon="6.21567">
        <ele>1679</ele>
        <time>2023-04-21T12:49:51.000Z</time>
      </trkpt>
      <trkpt lat="44.49165" lon="6.21567">
        <ele>1678</ele>
        <time>2023-04-21T12:49:52.000Z</time>
      </trkpt>
      <trkpt lat="44.49165" lon="6.21567">
        <ele>1678</ele>
        <time>2023-04-21T12:49:53.000Z</time>
      </trkpt>
      <trkpt lat="44.49165" lon="6.21567">
        <ele>1678</ele>
        <time>2023-04-21T12:49:54.000Z</time>
      </trkpt>
      <trkpt lat="44.49165" lon="6.21567">
        <ele>1678</ele>
        <time>2023-04-21T12:49:55.000Z</time>
      </trkpt>
      <trkpt lat="44.49165" lon="6.21567">
        <ele>1678</ele>
        <time>2023-04-21T12:49:56.000Z</time>
      </trkpt>
      <trkpt lat="44.49165" lon="6.21567">
        <ele>1678</ele>
        <time>2023-04-21T12:49:57.000Z</time>
      </trkpt>
      <trkpt lat="44.49165" lon="6.21567">
        <ele>1678</ele>
        <time>2023-04-21T12:49:58.000Z</time>
      </trkpt>
      <trkpt lat="44.49165" lon="6.21566">
        <ele>1678</ele>
        <time>2023-04-21T12:49:59.000Z</time>
      </trkpt>
      <trkpt lat="44.49165" lon="6.21566">
        <ele>1678</ele>
        <time>2023-04-21T12:50:00.000Z</time>
      </trkpt>
      <trkpt lat="44.49165" lon="6.21566">
        <ele>1678</ele>
        <time>2023-04-21T12:50:01.000Z</time>
      </trkpt>
      <trkpt lat="44.49165" lon="6.21565">
        <ele>1678</ele>
        <time>2023-04-21T12:50:02.000Z</time>
      </trkpt>
      <trkpt lat="44.49166" lon="6.21565">
        <ele>1678</ele>
        <time>2023-04-21T12:50:03.000Z</time>
      </trkpt>
      <trkpt lat="44.49166" lon="6.21565">
        <ele>1678</ele>
        <time>2023-04-21T12:50:04.000Z</time>
      </trkpt>
      <trkpt lat="44.49165" lon="6.21564">
        <ele>1678</ele>
        <time>2023-04-21T12:50:05.000Z</time>
      </trkpt>
      <trkpt lat="44.49166" lon="6.21563">
        <ele>1677</ele>
        <time>2023-04-21T12:50:06.000Z</time>
      </trkpt>
      <trkpt lat="44.49166" lon="6.21561">
        <ele>1677</ele>
        <time>2023-04-21T12:50:07.000Z</time>
      </trkpt>
      <trkpt lat="44.49166" lon="6.21558">
        <ele>1676</ele>
        <time>2023-04-21T12:50:08.000Z</time>
      </trkpt>
      <trkpt lat="44.49165" lon="6.21556">
        <ele>1675</ele>
        <time>2023-04-21T12:50:09.000Z</time>
      </trkpt>
      <trkpt lat="44.49164" lon="6.21553">
        <ele>1674</ele>
        <time>2023-04-21T12:50:10.000Z</time>
      </trkpt>
      <trkpt lat="44.49162" lon="6.21552">
        <ele>1673</ele>
        <time>2023-04-21T12:50:11.000Z</time>
      </trkpt>
      <trkpt lat="44.49161" lon="6.2155">
        <ele>1673</ele>
        <time>2023-04-21T12:50:12.000Z</time>
      </trkpt>
      <trkpt lat="44.49159" lon="6.21549">
        <ele>1672</ele>
        <time>2023-04-21T12:50:13.000Z</time>
      </trkpt>
      <trkpt lat="44.49157" lon="6.21548">
        <ele>1671</ele>
        <time>2023-04-21T12:50:14.000Z</time>
      </trkpt>
      <trkpt lat="44.49155" lon="6.21546">
        <ele>1670</ele>
        <time>2023-04-21T12:50:15.000Z</time>
      </trkpt>
      <trkpt lat="44.49153" lon="6.21545">
        <ele>1669</ele>
        <time>2023-04-21T12:50:16.000Z</time>
      </trkpt>
      <trkpt lat="44.49151" lon="6.21544">
        <ele>1669</ele>
        <time>2023-04-21T12:50:17.000Z</time>
      </trkpt>
      <trkpt lat="44.49149" lon="6.21542">
        <ele>1668</ele>
        <time>2023-04-21T12:50:18.000Z</time>
      </trkpt>
      <trkpt lat="44.49146" lon="6.21541">
        <ele>1667</ele>
        <time>2023-04-21T12:50:19.000Z</time>
      </trkpt>
      <trkpt lat="44.49144" lon="6.2154">
        <ele>1666</ele>
        <time>2023-04-21T12:50:20.000Z</time>
      </trkpt>
      <trkpt lat="44.49142" lon="6.21539">
        <ele>1666</ele>
        <time>2023-04-21T12:50:21.000Z</time>
      </trkpt>
      <trkpt lat="44.4914" lon="6.21538">
        <ele>1665</ele>
        <time>2023-04-21T12:50:22.000Z</time>
      </trkpt>
      <trkpt lat="44.49138" lon="6.21538">
        <ele>1664</ele>
        <time>2023-04-21T12:50:23.000Z</time>
      </trkpt>
      <trkpt lat="44.49136" lon="6.21537">
        <ele>1663</ele>
        <time>2023-04-21T12:50:24.000Z</time>
      </trkpt>
      <trkpt lat="44.49134" lon="6.21536">
        <ele>1662</ele>
        <time>2023-04-21T12:50:25.000Z</time>
      </trkpt>
      <trkpt lat="44.49133" lon="6.21535">
        <ele>1662</ele>
        <time>2023-04-21T12:50:26.000Z</time>
      </trkpt>
      <trkpt lat="44.49131" lon="6.21533">
        <ele>1661</ele>
        <time>2023-04-21T12:50:27.000Z</time>
      </trkpt>
      <trkpt lat="44.4913" lon="6.21532">
        <ele>1660</ele>
        <time>2023-04-21T12:50:28.000Z</time>
      </trkpt>
      <trkpt lat="44.49129" lon="6.2153">
        <ele>1659</ele>
        <time>2023-04-21T12:50:29.000Z</time>
      </trkpt>
      <trkpt lat="44.49128" lon="6.21528">
        <ele>1658</ele>
        <time>2023-04-21T12:50:30.000Z</time>
      </trkpt>
      <trkpt lat="44.49126" lon="6.21526">
        <ele>1657</ele>
        <time>2023-04-21T12:50:31.000Z</time>
      </trkpt>
      <trkpt lat="44.49125" lon="6.21524">
        <ele>1656</ele>
        <time>2023-04-21T12:50:32.000Z</time>
      </trkpt>
      <trkpt lat="44.49125" lon="6.21524">
        <ele>1656</ele>
        <time>2023-04-21T12:50:33.000Z</time>
      </trkpt>
      <trkpt lat="44.49125" lon="6.21524">
        <ele>1656</ele>
        <time>2023-04-21T12:50:34.000Z</time>
      </trkpt>
      <trkpt lat="44.49125" lon="6.21524">
        <ele>1656</ele>
        <time>2023-04-21T12:50:35.000Z</time>
      </trkpt>
      <trkpt lat="44.49125" lon="6.21524">
        <ele>1656</ele>
        <time>2023-04-21T12:50:36.000Z</time>
      </trkpt>
      <trkpt lat="44.49125" lon="6.21524">
        <ele>1656</ele>
        <time>2023-04-21T12:50:37.000Z</time>
      </trkpt>
      <trkpt lat="44.49125" lon="6.21524">
        <ele>1656</ele>
        <time>2023-04-21T12:50:38.000Z</time>
      </trkpt>
      <trkpt lat="44.49125" lon="6.21524">
        <ele>1656</ele>
        <time>2023-04-21T12:50:39.000Z</time>
      </trkpt>
      <trkpt lat="44.49125" lon="6.21524">
        <ele>1656</ele>
        <time>2023-04-21T12:50:40.000Z</time>
      </trkpt>
      <trkpt lat="44.49124" lon="6.21524">
        <ele>1656</ele>
        <time>2023-04-21T12:50:41.000Z</time>
      </trkpt>
      <trkpt lat="44.49124" lon="6.21524">
        <ele>1655</ele>
        <time>2023-04-21T12:50:42.000Z</time>
      </trkpt>
      <trkpt lat="44.49124" lon="6.21524">
        <ele>1655</ele>
        <time>2023-04-21T12:50:43.000Z</time>
      </trkpt>
      <trkpt lat="44.49124" lon="6.21523">
        <ele>1655</ele>
        <time>2023-04-21T12:50:44.000Z</time>
      </trkpt>
      <trkpt lat="44.49124" lon="6.21523">
        <ele>1655</ele>
        <time>2023-04-21T12:50:45.000Z</time>
      </trkpt>
      <trkpt lat="44.49124" lon="6.21523">
        <ele>1655</ele>
        <time>2023-04-21T12:50:46.000Z</time>
      </trkpt>
      <trkpt lat="44.49124" lon="6.21523">
        <ele>1655</ele>
        <time>2023-04-21T12:50:47.000Z</time>
      </trkpt>
      <trkpt lat="44.49124" lon="6.21523">
        <ele>1655</ele>
        <time>2023-04-21T12:50:48.000Z</time>
      </trkpt>
      <trkpt lat="44.49124" lon="6.21523">
        <ele>1655</ele>
        <time>2023-04-21T12:50:49.000Z</time>
      </trkpt>
      <trkpt lat="44.49124" lon="6.21523">
        <ele>1655</ele>
        <time>2023-04-21T12:50:50.000Z</time>
      </trkpt>
      <trkpt lat="44.49124" lon="6.21523">
        <ele>1655</ele>
        <time>2023-04-21T12:50:51.000Z</time>
      </trkpt>
      <trkpt lat="44.49124" lon="6.21523">
        <ele>1655</ele>
        <time>2023-04-21T12:50:52.000Z</time>
      </trkpt>
      <trkpt lat="44.49124" lon="6.21523">
        <ele>1655</ele>
        <time>2023-04-21T12:50:53.000Z</time>
      </trkpt>
      <trkpt lat="44.49124" lon="6.21523">
        <ele>1655</ele>
        <time>2023-04-21T12:50:54.000Z</time>
      </trkpt>
      <trkpt lat="44.49124" lon="6.21523">
        <ele>1655</ele>
        <time>2023-04-21T12:50:55.000Z</time>
      </trkpt>
      <trkpt lat="44.49124" lon="6.21523">
        <ele>1655</ele>
        <time>2023-04-21T12:50:56.000Z</time>
      </trkpt>
      <trkpt lat="44.49124" lon="6.21523">
        <ele>1655</ele>
        <time>2023-04-21T12:50:57.000Z</time>
      </trkpt>
      <trkpt lat="44.49124" lon="6.21523">
        <ele>1655</ele>
        <time>2023-04-21T12:50:58.000Z</time>
      </trkpt>
      <trkpt lat="44.49124" lon="6.21523">
        <ele>1655</ele>
        <time>2023-04-21T12:50:59.000Z</time>
      </trkpt>
      <trkpt lat="44.49124" lon="6.21523">
        <ele>1654</ele>
        <time>2023-04-21T12:51:00.000Z</time>
      </trkpt>
      <trkpt lat="44.49124" lon="6.21523">
        <ele>1654</ele>
        <time>2023-04-21T12:51:01.000Z</time>
      </trkpt>
      <trkpt lat="44.49124" lon="6.21523">
        <ele>1654</ele>
        <time>2023-04-21T12:51:02.000Z</time>
      </trkpt>
      <trkpt lat="44.49124" lon="6.21523">
        <ele>1654</ele>
        <time>2023-04-21T12:51:03.000Z</time>
      </trkpt>
      <trkpt lat="44.49124" lon="6.21523">
        <ele>1654</ele>
        <time>2023-04-21T12:51:04.000Z</time>
      </trkpt>
      <trkpt lat="44.49124" lon="6.21523">
        <ele>1654</ele>
        <time>2023-04-21T12:51:05.000Z</time>
      </trkpt>
      <trkpt lat="44.49124" lon="6.21523">
        <ele>1654</ele>
        <time>2023-04-21T12:51:06.000Z</time>
      </trkpt>
      <trkpt lat="44.49124" lon="6.21523">
        <ele>1654</ele>
        <time>2023-04-21T12:51:07.000Z</time>
      </trkpt>
      <trkpt lat="44.49124" lon="6.21523">
        <ele>1654</ele>
        <time>2023-04-21T12:51:08.000Z</time>
      </trkpt>
      <trkpt lat="44.49124" lon="6.21523">
        <ele>1654</ele>
        <time>2023-04-21T12:51:09.000Z</time>
      </trkpt>
      <trkpt lat="44.49124" lon="6.21523">
        <ele>1654</ele>
        <time>2023-04-21T12:51:10.000Z</time>
      </trkpt>
      <trkpt lat="44.49124" lon="6.21523">
        <ele>1654</ele>
        <time>2023-04-21T12:51:11.000Z</time>
      </trkpt>
      <trkpt lat="44.49124" lon="6.21523">
        <ele>1654</ele>
        <time>2023-04-21T12:51:12.000Z</time>
      </trkpt>
      <trkpt lat="44.49123" lon="6.21522">
        <ele>1654</ele>
        <time>2023-04-21T12:51:13.000Z</time>
      </trkpt>
      <trkpt lat="44.49122" lon="6.21522">
        <ele>1653</ele>
        <time>2023-04-21T12:51:14.000Z</time>
      </trkpt>
      <trkpt lat="44.49121" lon="6.21521">
        <ele>1653</ele>
        <time>2023-04-21T12:51:15.000Z</time>
      </trkpt>
      <trkpt lat="44.4912" lon="6.2152">
        <ele>1652</ele>
        <time>2023-04-21T12:51:16.000Z</time>
      </trkpt>
      <trkpt lat="44.49119" lon="6.21519">
        <ele>1651</ele>
        <time>2023-04-21T12:51:17.000Z</time>
      </trkpt>
      <trkpt lat="44.49117" lon="6.21517">
        <ele>1650</ele>
        <time>2023-04-21T12:51:18.000Z</time>
      </trkpt>
      <trkpt lat="44.49116" lon="6.21515">
        <ele>1649</ele>
        <time>2023-04-21T12:51:19.000Z</time>
      </trkpt>
      <trkpt lat="44.49115" lon="6.21513">
        <ele>1649</ele>
        <time>2023-04-21T12:51:20.000Z</time>
      </trkpt>
      <trkpt lat="44.49114" lon="6.21511">
        <ele>1648</ele>
        <time>2023-04-21T12:51:21.000Z</time>
      </trkpt>
      <trkpt lat="44.49112" lon="6.21509">
        <ele>1647</ele>
        <time>2023-04-21T12:51:22.000Z</time>
      </trkpt>
      <trkpt lat="44.49111" lon="6.21507">
        <ele>1646</ele>
        <time>2023-04-21T12:51:23.000Z</time>
      </trkpt>
      <trkpt lat="44.4911" lon="6.21505">
        <ele>1645</ele>
        <time>2023-04-21T12:51:24.000Z</time>
      </trkpt>
      <trkpt lat="44.49108" lon="6.21503">
        <ele>1644</ele>
        <time>2023-04-21T12:51:25.000Z</time>
      </trkpt>
      <trkpt lat="44.49106" lon="6.21502">
        <ele>1642</ele>
        <time>2023-04-21T12:51:26.000Z</time>
      </trkpt>
      <trkpt lat="44.49104" lon="6.21501">
        <ele>1642</ele>
        <time>2023-04-21T12:51:27.000Z</time>
      </trkpt>
      <trkpt lat="44.49101" lon="6.215">
        <ele>1641</ele>
        <time>2023-04-21T12:51:28.000Z</time>
      </trkpt>
      <trkpt lat="44.49099" lon="6.215">
        <ele>1640</ele>
        <time>2023-04-21T12:51:29.000Z</time>
      </trkpt>
      <trkpt lat="44.49097" lon="6.21498">
        <ele>1640</ele>
        <time>2023-04-21T12:51:30.000Z</time>
      </trkpt>
      <trkpt lat="44.49095" lon="6.21497">
        <ele>1639</ele>
        <time>2023-04-21T12:51:31.000Z</time>
      </trkpt>
      <trkpt lat="44.49093" lon="6.21496">
        <ele>1638</ele>
        <time>2023-04-21T12:51:32.000Z</time>
      </trkpt>
      <trkpt lat="44.4909" lon="6.21495">
        <ele>1637</ele>
        <time>2023-04-21T12:51:33.000Z</time>
      </trkpt>
      <trkpt lat="44.49088" lon="6.21494">
        <ele>1636</ele>
        <time>2023-04-21T12:51:34.000Z</time>
      </trkpt>
      <trkpt lat="44.49086" lon="6.21493">
        <ele>1636</ele>
        <time>2023-04-21T12:51:35.000Z</time>
      </trkpt>
      <trkpt lat="44.49084" lon="6.21491">
        <ele>1635</ele>
        <time>2023-04-21T12:51:36.000Z</time>
      </trkpt>
      <trkpt lat="44.49082" lon="6.21489">
        <ele>1634</ele>
        <time>2023-04-21T12:51:37.000Z</time>
      </trkpt>
      <trkpt lat="44.4908" lon="6.21487">
        <ele>1633</ele>
        <time>2023-04-21T12:51:38.000Z</time>
      </trkpt>
      <trkpt lat="44.49077" lon="6.21485">
        <ele>1632</ele>
        <time>2023-04-21T12:51:39.000Z</time>
      </trkpt>
      <trkpt lat="44.49075" lon="6.21483">
        <ele>1630</ele>
        <time>2023-04-21T12:51:40.000Z</time>
      </trkpt>
      <trkpt lat="44.49071" lon="6.21481">
        <ele>1629</ele>
        <time>2023-04-21T12:51:41.000Z</time>
      </trkpt>
      <trkpt lat="44.49068" lon="6.21479">
        <ele>1628</ele>
        <time>2023-04-21T12:51:42.000Z</time>
      </trkpt>
      <trkpt lat="44.49065" lon="6.21477">
        <ele>1627</ele>
        <time>2023-04-21T12:51:43.000Z</time>
      </trkpt>
      <trkpt lat="44.49062" lon="6.21474">
        <ele>1626</ele>
        <time>2023-04-21T12:51:44.000Z</time>
      </trkpt>
      <trkpt lat="44.4906" lon="6.21472">
        <ele>1625</ele>
        <time>2023-04-21T12:51:45.000Z</time>
      </trkpt>
      <trkpt lat="44.49058" lon="6.21471">
        <ele>1625</ele>
        <time>2023-04-21T12:51:46.000Z</time>
      </trkpt>
      <trkpt lat="44.49056" lon="6.21469">
        <ele>1624</ele>
        <time>2023-04-21T12:51:47.000Z</time>
      </trkpt>
      <trkpt lat="44.49054" lon="6.21468">
        <ele>1624</ele>
        <time>2023-04-21T12:51:48.000Z</time>
      </trkpt>
      <trkpt lat="44.49053" lon="6.21466">
        <ele>1623</ele>
        <time>2023-04-21T12:51:49.000Z</time>
      </trkpt>
      <trkpt lat="44.49051" lon="6.21465">
        <ele>1622</ele>
        <time>2023-04-21T12:51:50.000Z</time>
      </trkpt>
      <trkpt lat="44.49049" lon="6.21464">
        <ele>1622</ele>
        <time>2023-04-21T12:51:51.000Z</time>
      </trkpt>
      <trkpt lat="44.49047" lon="6.21463">
        <ele>1621</ele>
        <time>2023-04-21T12:51:52.000Z</time>
      </trkpt>
      <trkpt lat="44.49045" lon="6.21462">
        <ele>1620</ele>
        <time>2023-04-21T12:51:53.000Z</time>
      </trkpt>
      <trkpt lat="44.49042" lon="6.2146">
        <ele>1618</ele>
        <time>2023-04-21T12:51:54.000Z</time>
      </trkpt>
      <trkpt lat="44.49039" lon="6.21459">
        <ele>1616</ele>
        <time>2023-04-21T12:51:55.000Z</time>
      </trkpt>
      <trkpt lat="44.49036" lon="6.21457">
        <ele>1615</ele>
        <time>2023-04-21T12:51:56.000Z</time>
      </trkpt>
      <trkpt lat="44.49032" lon="6.21456">
        <ele>1614</ele>
        <time>2023-04-21T12:51:57.000Z</time>
      </trkpt>
      <trkpt lat="44.49029" lon="6.21456">
        <ele>1612</ele>
        <time>2023-04-21T12:51:58.000Z</time>
      </trkpt>
      <trkpt lat="44.49025" lon="6.21456">
        <ele>1611</ele>
        <time>2023-04-21T12:51:59.000Z</time>
      </trkpt>
      <trkpt lat="44.49021" lon="6.21454">
        <ele>1610</ele>
        <time>2023-04-21T12:52:00.000Z</time>
      </trkpt>
      <trkpt lat="44.49019" lon="6.21453">
        <ele>1609</ele>
        <time>2023-04-21T12:52:01.000Z</time>
      </trkpt>
      <trkpt lat="44.49016" lon="6.21451">
        <ele>1608</ele>
        <time>2023-04-21T12:52:02.000Z</time>
      </trkpt>
      <trkpt lat="44.49014" lon="6.21449">
        <ele>1607</ele>
        <time>2023-04-21T12:52:03.000Z</time>
      </trkpt>
      <trkpt lat="44.49011" lon="6.21449">
        <ele>1606</ele>
        <time>2023-04-21T12:52:04.000Z</time>
      </trkpt>
      <trkpt lat="44.49008" lon="6.21448">
        <ele>1605</ele>
        <time>2023-04-21T12:52:05.000Z</time>
      </trkpt>
      <trkpt lat="44.49006" lon="6.21447">
        <ele>1604</ele>
        <time>2023-04-21T12:52:06.000Z</time>
      </trkpt>
      <trkpt lat="44.49003" lon="6.21446">
        <ele>1603</ele>
        <time>2023-04-21T12:52:07.000Z</time>
      </trkpt>
      <trkpt lat="44.49" lon="6.21444">
        <ele>1602</ele>
        <time>2023-04-21T12:52:08.000Z</time>
      </trkpt>
      <trkpt lat="44.48997" lon="6.21442">
        <ele>1600</ele>
        <time>2023-04-21T12:52:09.000Z</time>
      </trkpt>
      <trkpt lat="44.48994" lon="6.21439">
        <ele>1599</ele>
        <time>2023-04-21T12:52:10.000Z</time>
      </trkpt>
      <trkpt lat="44.48992" lon="6.21437">
        <ele>1598</ele>
        <time>2023-04-21T12:52:11.000Z</time>
      </trkpt>
      <trkpt lat="44.4899" lon="6.21434">
        <ele>1597</ele>
        <time>2023-04-21T12:52:12.000Z</time>
      </trkpt>
      <trkpt lat="44.48988" lon="6.21431">
        <ele>1595</ele>
        <time>2023-04-21T12:52:13.000Z</time>
      </trkpt>
      <trkpt lat="44.48985" lon="6.21429">
        <ele>1594</ele>
        <time>2023-04-21T12:52:14.000Z</time>
      </trkpt>
      <trkpt lat="44.48982" lon="6.21427">
        <ele>1593</ele>
        <time>2023-04-21T12:52:15.000Z</time>
      </trkpt>
      <trkpt lat="44.4898" lon="6.21425">
        <ele>1592</ele>
        <time>2023-04-21T12:52:16.000Z</time>
      </trkpt>
      <trkpt lat="44.48978" lon="6.21424">
        <ele>1591</ele>
        <time>2023-04-21T12:52:17.000Z</time>
      </trkpt>
      <trkpt lat="44.48975" lon="6.21422">
        <ele>1590</ele>
        <time>2023-04-21T12:52:18.000Z</time>
      </trkpt>
      <trkpt lat="44.48973" lon="6.21421">
        <ele>1590</ele>
        <time>2023-04-21T12:52:19.000Z</time>
      </trkpt>
      <trkpt lat="44.48971" lon="6.21419">
        <ele>1589</ele>
        <time>2023-04-21T12:52:20.000Z</time>
      </trkpt>
      <trkpt lat="44.4897" lon="6.21418">
        <ele>1589</ele>
        <time>2023-04-21T12:52:21.000Z</time>
      </trkpt>
      <trkpt lat="44.48968" lon="6.21416">
        <ele>1588</ele>
        <time>2023-04-21T12:52:22.000Z</time>
      </trkpt>
      <trkpt lat="44.48965" lon="6.21414">
        <ele>1587</ele>
        <time>2023-04-21T12:52:23.000Z</time>
      </trkpt>
      <trkpt lat="44.48961" lon="6.21411">
        <ele>1588</ele>
        <time>2023-04-21T12:52:24.000Z</time>
      </trkpt>
      <trkpt lat="44.48958" lon="6.2141">
        <ele>1588</ele>
        <time>2023-04-21T12:52:25.000Z</time>
      </trkpt>
      <trkpt lat="44.48955" lon="6.21407">
        <ele>1588</ele>
        <time>2023-04-21T12:52:26.000Z</time>
      </trkpt>
      <trkpt lat="44.48952" lon="6.21404">
        <ele>1587</ele>
        <time>2023-04-21T12:52:27.000Z</time>
      </trkpt>
      <trkpt lat="44.48949" lon="6.214">
        <ele>1587</ele>
        <time>2023-04-21T12:52:28.000Z</time>
      </trkpt>
      <trkpt lat="44.48946" lon="6.21396">
        <ele>1588</ele>
        <time>2023-04-21T12:52:29.000Z</time>
      </trkpt>
      <trkpt lat="44.48942" lon="6.2139">
        <ele>1585</ele>
        <time>2023-04-21T12:52:30.000Z</time>
      </trkpt>
      <trkpt lat="44.48937" lon="6.21383">
        <ele>1581</ele>
        <time>2023-04-21T12:52:31.000Z</time>
      </trkpt>
      <trkpt lat="44.48932" lon="6.21377">
        <ele>1579</ele>
        <time>2023-04-21T12:52:32.000Z</time>
      </trkpt>
      <trkpt lat="44.48928" lon="6.21373">
        <ele>1578</ele>
        <time>2023-04-21T12:52:33.000Z</time>
      </trkpt>
      <trkpt lat="44.48924" lon="6.21369">
        <ele>1576</ele>
        <time>2023-04-21T12:52:34.000Z</time>
      </trkpt>
      <trkpt lat="44.4892" lon="6.21366">
        <ele>1576</ele>
        <time>2023-04-21T12:52:35.000Z</time>
      </trkpt>
      <trkpt lat="44.48916" lon="6.21364">
        <ele>1574</ele>
        <time>2023-04-21T12:52:36.000Z</time>
      </trkpt>
      <trkpt lat="44.48913" lon="6.21362">
        <ele>1573</ele>
        <time>2023-04-21T12:52:37.000Z</time>
      </trkpt>
      <trkpt lat="44.48909" lon="6.21359">
        <ele>1572</ele>
        <time>2023-04-21T12:52:38.000Z</time>
      </trkpt>
      <trkpt lat="44.48906" lon="6.21356">
        <ele>1571</ele>
        <time>2023-04-21T12:52:39.000Z</time>
      </trkpt>
      <trkpt lat="44.48903" lon="6.21352">
        <ele>1570</ele>
        <time>2023-04-21T12:52:40.000Z</time>
      </trkpt>
      <trkpt lat="44.489" lon="6.21348">
        <ele>1569</ele>
        <time>2023-04-21T12:52:41.000Z</time>
      </trkpt>
      <trkpt lat="44.48897" lon="6.21344">
        <ele>1569</ele>
        <time>2023-04-21T12:52:42.000Z</time>
      </trkpt>
      <trkpt lat="44.48893" lon="6.21343">
        <ele>1569</ele>
        <time>2023-04-21T12:52:43.000Z</time>
      </trkpt>
      <trkpt lat="44.4889" lon="6.21341">
        <ele>1568</ele>
        <time>2023-04-21T12:52:44.000Z</time>
      </trkpt>
      <trkpt lat="44.48888" lon="6.21338">
        <ele>1567</ele>
        <time>2023-04-21T12:52:45.000Z</time>
      </trkpt>
      <trkpt lat="44.48886" lon="6.21335">
        <ele>1567</ele>
        <time>2023-04-21T12:52:46.000Z</time>
      </trkpt>
      <trkpt lat="44.48883" lon="6.21331">
        <ele>1565</ele>
        <time>2023-04-21T12:52:47.000Z</time>
      </trkpt>
      <trkpt lat="44.48881" lon="6.21329">
        <ele>1565</ele>
        <time>2023-04-21T12:52:48.000Z</time>
      </trkpt>
      <trkpt lat="44.48878" lon="6.21326">
        <ele>1564</ele>
        <time>2023-04-21T12:52:49.000Z</time>
      </trkpt>
      <trkpt lat="44.48876" lon="6.21323">
        <ele>1563</ele>
        <time>2023-04-21T12:52:50.000Z</time>
      </trkpt>
      <trkpt lat="44.48874" lon="6.2132">
        <ele>1562</ele>
        <time>2023-04-21T12:52:51.000Z</time>
      </trkpt>
      <trkpt lat="44.48872" lon="6.21318">
        <ele>1561</ele>
        <time>2023-04-21T12:52:52.000Z</time>
      </trkpt>
      <trkpt lat="44.48869" lon="6.21315">
        <ele>1560</ele>
        <time>2023-04-21T12:52:53.000Z</time>
      </trkpt>
      <trkpt lat="44.48867" lon="6.21312">
        <ele>1559</ele>
        <time>2023-04-21T12:52:54.000Z</time>
      </trkpt>
      <trkpt lat="44.48864" lon="6.2131">
        <ele>1559</ele>
        <time>2023-04-21T12:52:55.000Z</time>
      </trkpt>
      <trkpt lat="44.48862" lon="6.21308">
        <ele>1558</ele>
        <time>2023-04-21T12:52:56.000Z</time>
      </trkpt>
      <trkpt lat="44.48859" lon="6.21306">
        <ele>1557</ele>
        <time>2023-04-21T12:52:57.000Z</time>
      </trkpt>
      <trkpt lat="44.48857" lon="6.21304">
        <ele>1556</ele>
        <time>2023-04-21T12:52:58.000Z</time>
      </trkpt>
      <trkpt lat="44.48854" lon="6.21302">
        <ele>1555</ele>
        <time>2023-04-21T12:52:59.000Z</time>
      </trkpt>
      <trkpt lat="44.48852" lon="6.213">
        <ele>1554</ele>
        <time>2023-04-21T12:53:00.000Z</time>
      </trkpt>
      <trkpt lat="44.4885" lon="6.21298">
        <ele>1553</ele>
        <time>2023-04-21T12:53:01.000Z</time>
      </trkpt>
      <trkpt lat="44.48848" lon="6.21296">
        <ele>1553</ele>
        <time>2023-04-21T12:53:02.000Z</time>
      </trkpt>
      <trkpt lat="44.48846" lon="6.21294">
        <ele>1552</ele>
        <time>2023-04-21T12:53:03.000Z</time>
      </trkpt>
      <trkpt lat="44.48845" lon="6.2129">
        <ele>1551</ele>
        <time>2023-04-21T12:53:04.000Z</time>
      </trkpt>
      <trkpt lat="44.48843" lon="6.21287">
        <ele>1552</ele>
        <time>2023-04-21T12:53:05.000Z</time>
      </trkpt>
      <trkpt lat="44.4884" lon="6.21283">
        <ele>1552</ele>
        <time>2023-04-21T12:53:06.000Z</time>
      </trkpt>
      <trkpt lat="44.48837" lon="6.21279">
        <ele>1553</ele>
        <time>2023-04-21T12:53:07.000Z</time>
      </trkpt>
      <trkpt lat="44.48833" lon="6.21275">
        <ele>1553</ele>
        <time>2023-04-21T12:53:08.000Z</time>
      </trkpt>
      <trkpt lat="44.48831" lon="6.21273">
        <ele>1553</ele>
        <time>2023-04-21T12:53:09.000Z</time>
      </trkpt>
      <trkpt lat="44.48826" lon="6.2127">
        <ele>1555</ele>
        <time>2023-04-21T12:53:10.000Z</time>
      </trkpt>
      <trkpt lat="44.48821" lon="6.21266">
        <ele>1555</ele>
        <time>2023-04-21T12:53:11.000Z</time>
      </trkpt>
      <trkpt lat="44.48816" lon="6.21264">
        <ele>1556</ele>
        <time>2023-04-21T12:53:12.000Z</time>
      </trkpt>
      <trkpt lat="44.48809" lon="6.21264">
        <ele>1558</ele>
        <time>2023-04-21T12:53:13.000Z</time>
      </trkpt>
      <trkpt lat="44.48801" lon="6.21261">
        <ele>1558</ele>
        <time>2023-04-21T12:53:14.000Z</time>
      </trkpt>
      <trkpt lat="44.48794" lon="6.21257">
        <ele>1557</ele>
        <time>2023-04-21T12:53:15.000Z</time>
      </trkpt>
      <trkpt lat="44.48787" lon="6.21251">
        <ele>1556</ele>
        <time>2023-04-21T12:53:16.000Z</time>
      </trkpt>
      <trkpt lat="44.48778" lon="6.21245">
        <ele>1557</ele>
        <time>2023-04-21T12:53:17.000Z</time>
      </trkpt>
      <trkpt lat="44.48772" lon="6.21239">
        <ele>1555</ele>
        <time>2023-04-21T12:53:18.000Z</time>
      </trkpt>
      <trkpt lat="44.48766" lon="6.21234">
        <ele>1551</ele>
        <time>2023-04-21T12:53:19.000Z</time>
      </trkpt>
      <trkpt lat="44.48761" lon="6.2123">
        <ele>1550</ele>
        <time>2023-04-21T12:53:20.000Z</time>
      </trkpt>
      <trkpt lat="44.48757" lon="6.21227">
        <ele>1549</ele>
        <time>2023-04-21T12:53:21.000Z</time>
      </trkpt>
      <trkpt lat="44.48753" lon="6.21224">
        <ele>1548</ele>
        <time>2023-04-21T12:53:22.000Z</time>
      </trkpt>
      <trkpt lat="44.48749" lon="6.21221">
        <ele>1548</ele>
        <time>2023-04-21T12:53:23.000Z</time>
      </trkpt>
      <trkpt lat="44.48744" lon="6.21218">
        <ele>1547</ele>
        <time>2023-04-21T12:53:24.000Z</time>
      </trkpt>
      <trkpt lat="44.48739" lon="6.21214">
        <ele>1546</ele>
        <time>2023-04-21T12:53:25.000Z</time>
      </trkpt>
      <trkpt lat="44.48735" lon="6.21213">
        <ele>1546</ele>
        <time>2023-04-21T12:53:26.000Z</time>
      </trkpt>
      <trkpt lat="44.48731" lon="6.21211">
        <ele>1544</ele>
        <time>2023-04-21T12:53:27.000Z</time>
      </trkpt>
      <trkpt lat="44.48728" lon="6.21209">
        <ele>1542</ele>
        <time>2023-04-21T12:53:28.000Z</time>
      </trkpt>
      <trkpt lat="44.48724" lon="6.21208">
        <ele>1540</ele>
        <time>2023-04-21T12:53:29.000Z</time>
      </trkpt>
      <trkpt lat="44.48721" lon="6.21206">
        <ele>1539</ele>
        <time>2023-04-21T12:53:30.000Z</time>
      </trkpt>
      <trkpt lat="44.48717" lon="6.21204">
        <ele>1537</ele>
        <time>2023-04-21T12:53:31.000Z</time>
      </trkpt>
      <trkpt lat="44.48713" lon="6.21203">
        <ele>1536</ele>
        <time>2023-04-21T12:53:32.000Z</time>
      </trkpt>
      <trkpt lat="44.4871" lon="6.21201">
        <ele>1536</ele>
        <time>2023-04-21T12:53:33.000Z</time>
      </trkpt>
      <trkpt lat="44.48707" lon="6.212">
        <ele>1535</ele>
        <time>2023-04-21T12:53:34.000Z</time>
      </trkpt>
      <trkpt lat="44.48703" lon="6.21198">
        <ele>1534</ele>
        <time>2023-04-21T12:53:35.000Z</time>
      </trkpt>
      <trkpt lat="44.487" lon="6.21197">
        <ele>1534</ele>
        <time>2023-04-21T12:53:36.000Z</time>
      </trkpt>
      <trkpt lat="44.48698" lon="6.21196">
        <ele>1532</ele>
        <time>2023-04-21T12:53:37.000Z</time>
      </trkpt>
      <trkpt lat="44.48695" lon="6.21194">
        <ele>1531</ele>
        <time>2023-04-21T12:53:38.000Z</time>
      </trkpt>
      <trkpt lat="44.48692" lon="6.21193">
        <ele>1531</ele>
        <time>2023-04-21T12:53:39.000Z</time>
      </trkpt>
      <trkpt lat="44.4869" lon="6.21192">
        <ele>1531</ele>
        <time>2023-04-21T12:53:40.000Z</time>
      </trkpt>
      <trkpt lat="44.48688" lon="6.21192">
        <ele>1531</ele>
        <time>2023-04-21T12:53:41.000Z</time>
      </trkpt>
      <trkpt lat="44.48685" lon="6.2119">
        <ele>1531</ele>
        <time>2023-04-21T12:53:42.000Z</time>
      </trkpt>
      <trkpt lat="44.48681" lon="6.21187">
        <ele>1531</ele>
        <time>2023-04-21T12:53:43.000Z</time>
      </trkpt>
      <trkpt lat="44.48678" lon="6.21186">
        <ele>1532</ele>
        <time>2023-04-21T12:53:44.000Z</time>
      </trkpt>
      <trkpt lat="44.48674" lon="6.21184">
        <ele>1533</ele>
        <time>2023-04-21T12:53:45.000Z</time>
      </trkpt>
      <trkpt lat="44.48669" lon="6.2118">
        <ele>1532</ele>
        <time>2023-04-21T12:53:46.000Z</time>
      </trkpt>
      <trkpt lat="44.48665" lon="6.21177">
        <ele>1532</ele>
        <time>2023-04-21T12:53:47.000Z</time>
      </trkpt>
      <trkpt lat="44.48659" lon="6.21173">
        <ele>1531</ele>
        <time>2023-04-21T12:53:48.000Z</time>
      </trkpt>
      <trkpt lat="44.48654" lon="6.21169">
        <ele>1533</ele>
        <time>2023-04-21T12:53:49.000Z</time>
      </trkpt>
      <trkpt lat="44.4865" lon="6.21166">
        <ele>1533</ele>
        <time>2023-04-21T12:53:50.000Z</time>
      </trkpt>
      <trkpt lat="44.48644" lon="6.21162">
        <ele>1532</ele>
        <time>2023-04-21T12:53:51.000Z</time>
      </trkpt>
      <trkpt lat="44.4864" lon="6.21158">
        <ele>1532</ele>
        <time>2023-04-21T12:53:52.000Z</time>
      </trkpt>
      <trkpt lat="44.48635" lon="6.21155">
        <ele>1532</ele>
        <time>2023-04-21T12:53:53.000Z</time>
      </trkpt>
      <trkpt lat="44.48632" lon="6.21152">
        <ele>1533</ele>
        <time>2023-04-21T12:53:54.000Z</time>
      </trkpt>
      <trkpt lat="44.4863" lon="6.2115">
        <ele>1534</ele>
        <time>2023-04-21T12:53:55.000Z</time>
      </trkpt>
      <trkpt lat="44.48627" lon="6.21147">
        <ele>1533</ele>
        <time>2023-04-21T12:53:56.000Z</time>
      </trkpt>
      <trkpt lat="44.48624" lon="6.21144">
        <ele>1532</ele>
        <time>2023-04-21T12:53:57.000Z</time>
      </trkpt>
      <trkpt lat="44.48621" lon="6.21142">
        <ele>1530</ele>
        <time>2023-04-21T12:53:58.000Z</time>
      </trkpt>
      <trkpt lat="44.48616" lon="6.21139">
        <ele>1529</ele>
        <time>2023-04-21T12:53:59.000Z</time>
      </trkpt>
      <trkpt lat="44.48612" lon="6.21136">
        <ele>1527</ele>
        <time>2023-04-21T12:54:00.000Z</time>
      </trkpt>
      <trkpt lat="44.48608" lon="6.21134">
        <ele>1526</ele>
        <time>2023-04-21T12:54:01.000Z</time>
      </trkpt>
      <trkpt lat="44.48605" lon="6.21133">
        <ele>1525</ele>
        <time>2023-04-21T12:54:02.000Z</time>
      </trkpt>
      <trkpt lat="44.48603" lon="6.21131">
        <ele>1526</ele>
        <time>2023-04-21T12:54:03.000Z</time>
      </trkpt>
      <trkpt lat="44.48601" lon="6.2113">
        <ele>1524</ele>
        <time>2023-04-21T12:54:04.000Z</time>
      </trkpt>
      <trkpt lat="44.48598" lon="6.21128">
        <ele>1523</ele>
        <time>2023-04-21T12:54:05.000Z</time>
      </trkpt>
      <trkpt lat="44.48595" lon="6.21126">
        <ele>1522</ele>
        <time>2023-04-21T12:54:06.000Z</time>
      </trkpt>
      <trkpt lat="44.48592" lon="6.21124">
        <ele>1521</ele>
        <time>2023-04-21T12:54:07.000Z</time>
      </trkpt>
      <trkpt lat="44.48588" lon="6.21123">
        <ele>1521</ele>
        <time>2023-04-21T12:54:08.000Z</time>
      </trkpt>
      <trkpt lat="44.48584" lon="6.21121">
        <ele>1520</ele>
        <time>2023-04-21T12:54:09.000Z</time>
      </trkpt>
      <trkpt lat="44.4858" lon="6.21119">
        <ele>1521</ele>
        <time>2023-04-21T12:54:10.000Z</time>
      </trkpt>
      <trkpt lat="44.48577" lon="6.21117">
        <ele>1521</ele>
        <time>2023-04-21T12:54:11.000Z</time>
      </trkpt>
      <trkpt lat="44.48574" lon="6.21117">
        <ele>1521</ele>
        <time>2023-04-21T12:54:12.000Z</time>
      </trkpt>
      <trkpt lat="44.4857" lon="6.21115">
        <ele>1521</ele>
        <time>2023-04-21T12:54:13.000Z</time>
      </trkpt>
      <trkpt lat="44.48566" lon="6.21113">
        <ele>1522</ele>
        <time>2023-04-21T12:54:14.000Z</time>
      </trkpt>
      <trkpt lat="44.48563" lon="6.21111">
        <ele>1522</ele>
        <time>2023-04-21T12:54:15.000Z</time>
      </trkpt>
      <trkpt lat="44.4856" lon="6.2111">
        <ele>1523</ele>
        <time>2023-04-21T12:54:16.000Z</time>
      </trkpt>
      <trkpt lat="44.48556" lon="6.21108">
        <ele>1524</ele>
        <time>2023-04-21T12:54:17.000Z</time>
      </trkpt>
      <trkpt lat="44.48553" lon="6.21105">
        <ele>1523</ele>
        <time>2023-04-21T12:54:18.000Z</time>
      </trkpt>
      <trkpt lat="44.48551" lon="6.21103">
        <ele>1524</ele>
        <time>2023-04-21T12:54:19.000Z</time>
      </trkpt>
      <trkpt lat="44.48549" lon="6.21102">
        <ele>1523</ele>
        <time>2023-04-21T12:54:20.000Z</time>
      </trkpt>
      <trkpt lat="44.48547" lon="6.211">
        <ele>1520</ele>
        <time>2023-04-21T12:54:21.000Z</time>
      </trkpt>
      <trkpt lat="44.48546" lon="6.21099">
        <ele>1520</ele>
        <time>2023-04-21T12:54:22.000Z</time>
      </trkpt>
      <trkpt lat="44.48546" lon="6.21099">
        <ele>1518</ele>
        <time>2023-04-21T12:54:23.000Z</time>
      </trkpt>
      <trkpt lat="44.48546" lon="6.21099">
        <ele>1515</ele>
        <time>2023-04-21T12:54:24.000Z</time>
      </trkpt>
      <trkpt lat="44.48545" lon="6.21099">
        <ele>1514</ele>
        <time>2023-04-21T12:54:25.000Z</time>
      </trkpt>
      <trkpt lat="44.48544" lon="6.21098">
        <ele>1513</ele>
        <time>2023-04-21T12:54:26.000Z</time>
      </trkpt>
      <trkpt lat="44.48543" lon="6.21098">
        <ele>1512</ele>
        <time>2023-04-21T12:54:27.000Z</time>
      </trkpt>
      <trkpt lat="44.48542" lon="6.21097">
        <ele>1511</ele>
        <time>2023-04-21T12:54:28.000Z</time>
      </trkpt>
      <trkpt lat="44.48542" lon="6.21097">
        <ele>1511</ele>
        <time>2023-04-21T12:54:29.000Z</time>
      </trkpt>
      <trkpt lat="44.48541" lon="6.21096">
        <ele>1510</ele>
        <time>2023-04-21T12:54:30.000Z</time>
      </trkpt>
      <trkpt lat="44.4854" lon="6.21096">
        <ele>1509</ele>
        <time>2023-04-21T12:54:31.000Z</time>
      </trkpt>
      <trkpt lat="44.48539" lon="6.21095">
        <ele>1509</ele>
        <time>2023-04-21T12:54:32.000Z</time>
      </trkpt>
      <trkpt lat="44.48539" lon="6.21095">
        <ele>1508</ele>
        <time>2023-04-21T12:54:33.000Z</time>
      </trkpt>
      <trkpt lat="44.48538" lon="6.21095">
        <ele>1508</ele>
        <time>2023-04-21T12:54:34.000Z</time>
      </trkpt>
      <trkpt lat="44.48538" lon="6.21095">
        <ele>1507</ele>
        <time>2023-04-21T12:54:35.000Z</time>
      </trkpt>
      <trkpt lat="44.48537" lon="6.21094">
        <ele>1506</ele>
        <time>2023-04-21T12:54:36.000Z</time>
      </trkpt>
      <trkpt lat="44.48537" lon="6.21094">
        <ele>1506</ele>
        <time>2023-04-21T12:54:37.000Z</time>
      </trkpt>
      <trkpt lat="44.48537" lon="6.21094">
        <ele>1505</ele>
        <time>2023-04-21T12:54:38.000Z</time>
      </trkpt>
      <trkpt lat="44.48536" lon="6.21093">
        <ele>1504</ele>
        <time>2023-04-21T12:54:39.000Z</time>
      </trkpt>
      <trkpt lat="44.48536" lon="6.21093">
        <ele>1504</ele>
        <time>2023-04-21T12:54:40.000Z</time>
      </trkpt>
      <trkpt lat="44.48536" lon="6.21093">
        <ele>1503</ele>
        <time>2023-04-21T12:54:41.000Z</time>
      </trkpt>
      <trkpt lat="44.48535" lon="6.21092">
        <ele>1503</ele>
        <time>2023-04-21T12:54:42.000Z</time>
      </trkpt>
      <trkpt lat="44.48535" lon="6.21092">
        <ele>1503</ele>
        <time>2023-04-21T12:54:43.000Z</time>
      </trkpt>
      <trkpt lat="44.48535" lon="6.21092">
        <ele>1502</ele>
        <time>2023-04-21T12:54:44.000Z</time>
      </trkpt>
      <trkpt lat="44.48535" lon="6.21092">
        <ele>1502</ele>
        <time>2023-04-21T12:54:45.000Z</time>
      </trkpt>
      <trkpt lat="44.48535" lon="6.21092">
        <ele>1502</ele>
        <time>2023-04-21T12:54:46.000Z</time>
      </trkpt>
      <trkpt lat="44.48535" lon="6.21091">
        <ele>1501</ele>
        <time>2023-04-21T12:54:47.000Z</time>
      </trkpt>
      <trkpt lat="44.48534" lon="6.21091">
        <ele>1501</ele>
        <time>2023-04-21T12:54:48.000Z</time>
      </trkpt>
      <trkpt lat="44.48534" lon="6.21091">
        <ele>1501</ele>
        <time>2023-04-21T12:54:49.000Z</time>
      </trkpt>
      <trkpt lat="44.48534" lon="6.21091">
        <ele>1501</ele>
        <time>2023-04-21T12:54:50.000Z</time>
      </trkpt>
      <trkpt lat="44.48534" lon="6.2109">
        <ele>1500</ele>
        <time>2023-04-21T12:54:51.000Z</time>
      </trkpt>
      <trkpt lat="44.48533" lon="6.2109">
        <ele>1500</ele>
        <time>2023-04-21T12:54:52.000Z</time>
      </trkpt>
      <trkpt lat="44.48533" lon="6.2109">
        <ele>1500</ele>
        <time>2023-04-21T12:54:53.000Z</time>
      </trkpt>
      <trkpt lat="44.48533" lon="6.21089">
        <ele>1499</ele>
        <time>2023-04-21T12:54:54.000Z</time>
      </trkpt>
      <trkpt lat="44.48533" lon="6.21089">
        <ele>1499</ele>
        <time>2023-04-21T12:54:55.000Z</time>
      </trkpt>
      <trkpt lat="44.48532" lon="6.2109">
        <ele>1499</ele>
        <time>2023-04-21T12:54:56.000Z</time>
      </trkpt>
      <trkpt lat="44.48531" lon="6.21089">
        <ele>1499</ele>
        <time>2023-04-21T12:54:57.000Z</time>
      </trkpt>
      <trkpt lat="44.4853" lon="6.21089">
        <ele>1499</ele>
        <time>2023-04-21T12:54:58.000Z</time>
      </trkpt>
      <trkpt lat="44.48528" lon="6.21089">
        <ele>1498</ele>
        <time>2023-04-21T12:54:59.000Z</time>
      </trkpt>
      <trkpt lat="44.48526" lon="6.21088">
        <ele>1498</ele>
        <time>2023-04-21T12:55:00.000Z</time>
      </trkpt>
      <trkpt lat="44.48524" lon="6.21088">
        <ele>1497</ele>
        <time>2023-04-21T12:55:01.000Z</time>
      </trkpt>
      <trkpt lat="44.48521" lon="6.21087">
        <ele>1497</ele>
        <time>2023-04-21T12:55:02.000Z</time>
      </trkpt>
      <trkpt lat="44.48518" lon="6.21086">
        <ele>1498</ele>
        <time>2023-04-21T12:55:03.000Z</time>
      </trkpt>
      <trkpt lat="44.48516" lon="6.21083">
        <ele>1499</ele>
        <time>2023-04-21T12:55:04.000Z</time>
      </trkpt>
      <trkpt lat="44.48514" lon="6.2108">
        <ele>1498</ele>
        <time>2023-04-21T12:55:05.000Z</time>
      </trkpt>
      <trkpt lat="44.48511" lon="6.21077">
        <ele>1497</ele>
        <time>2023-04-21T12:55:06.000Z</time>
      </trkpt>
      <trkpt lat="44.48509" lon="6.21076">
        <ele>1496</ele>
        <time>2023-04-21T12:55:07.000Z</time>
      </trkpt>
      <trkpt lat="44.48507" lon="6.21074">
        <ele>1496</ele>
        <time>2023-04-21T12:55:08.000Z</time>
      </trkpt>
      <trkpt lat="44.48505" lon="6.21073">
        <ele>1495</ele>
        <time>2023-04-21T12:55:09.000Z</time>
      </trkpt>
      <trkpt lat="44.48502" lon="6.2107">
        <ele>1493</ele>
        <time>2023-04-21T12:55:10.000Z</time>
      </trkpt>
      <trkpt lat="44.48498" lon="6.21069">
        <ele>1493</ele>
        <time>2023-04-21T12:55:11.000Z</time>
      </trkpt>
      <trkpt lat="44.48495" lon="6.21068">
        <ele>1493</ele>
        <time>2023-04-21T12:55:12.000Z</time>
      </trkpt>
      <trkpt lat="44.48493" lon="6.21068">
        <ele>1491</ele>
        <time>2023-04-21T12:55:13.000Z</time>
      </trkpt>
      <trkpt lat="44.4849" lon="6.21066">
        <ele>1489</ele>
        <time>2023-04-21T12:55:14.000Z</time>
      </trkpt>
      <trkpt lat="44.48487" lon="6.21065">
        <ele>1488</ele>
        <time>2023-04-21T12:55:15.000Z</time>
      </trkpt>
      <trkpt lat="44.48484" lon="6.21063">
        <ele>1487</ele>
        <time>2023-04-21T12:55:16.000Z</time>
      </trkpt>
      <trkpt lat="44.48481" lon="6.21062">
        <ele>1487</ele>
        <time>2023-04-21T12:55:17.000Z</time>
      </trkpt>
      <trkpt lat="44.48479" lon="6.2106">
        <ele>1486</ele>
        <time>2023-04-21T12:55:18.000Z</time>
      </trkpt>
      <trkpt lat="44.48476" lon="6.21058">
        <ele>1485</ele>
        <time>2023-04-21T12:55:19.000Z</time>
      </trkpt>
      <trkpt lat="44.48473" lon="6.21055">
        <ele>1483</ele>
        <time>2023-04-21T12:55:20.000Z</time>
      </trkpt>
      <trkpt lat="44.4847" lon="6.21053">
        <ele>1481</ele>
        <time>2023-04-21T12:55:21.000Z</time>
      </trkpt>
      <trkpt lat="44.48467" lon="6.21051">
        <ele>1480</ele>
        <time>2023-04-21T12:55:22.000Z</time>
      </trkpt>
      <trkpt lat="44.48465" lon="6.2105">
        <ele>1479</ele>
        <time>2023-04-21T12:55:23.000Z</time>
      </trkpt>
      <trkpt lat="44.48462" lon="6.2105">
        <ele>1478</ele>
        <time>2023-04-21T12:55:24.000Z</time>
      </trkpt>
      <trkpt lat="44.48459" lon="6.21049">
        <ele>1477</ele>
        <time>2023-04-21T12:55:25.000Z</time>
      </trkpt>
      <trkpt lat="44.48457" lon="6.21047">
        <ele>1477</ele>
        <time>2023-04-21T12:55:26.000Z</time>
      </trkpt>
      <trkpt lat="44.48455" lon="6.21045">
        <ele>1476</ele>
        <time>2023-04-21T12:55:27.000Z</time>
      </trkpt>
      <trkpt lat="44.48453" lon="6.21042">
        <ele>1476</ele>
        <time>2023-04-21T12:55:28.000Z</time>
      </trkpt>
      <trkpt lat="44.48452" lon="6.21038">
        <ele>1475</ele>
        <time>2023-04-21T12:55:29.000Z</time>
      </trkpt>
      <trkpt lat="44.48449" lon="6.21034">
        <ele>1472</ele>
        <time>2023-04-21T12:55:30.000Z</time>
      </trkpt>
      <trkpt lat="44.48446" lon="6.21032">
        <ele>1471</ele>
        <time>2023-04-21T12:55:31.000Z</time>
      </trkpt>
      <trkpt lat="44.48443" lon="6.21029">
        <ele>1470</ele>
        <time>2023-04-21T12:55:32.000Z</time>
      </trkpt>
      <trkpt lat="44.4844" lon="6.21025">
        <ele>1469</ele>
        <time>2023-04-21T12:55:33.000Z</time>
      </trkpt>
      <trkpt lat="44.48437" lon="6.21021">
        <ele>1468</ele>
        <time>2023-04-21T12:55:34.000Z</time>
      </trkpt>
      <trkpt lat="44.48435" lon="6.21016">
        <ele>1467</ele>
        <time>2023-04-21T12:55:35.000Z</time>
      </trkpt>
      <trkpt lat="44.48432" lon="6.21012">
        <ele>1465</ele>
        <time>2023-04-21T12:55:36.000Z</time>
      </trkpt>
      <trkpt lat="44.48429" lon="6.21009">
        <ele>1464</ele>
        <time>2023-04-21T12:55:37.000Z</time>
      </trkpt>
      <trkpt lat="44.48425" lon="6.21006">
        <ele>1463</ele>
        <time>2023-04-21T12:55:38.000Z</time>
      </trkpt>
      <trkpt lat="44.48422" lon="6.21004">
        <ele>1462</ele>
        <time>2023-04-21T12:55:39.000Z</time>
      </trkpt>
      <trkpt lat="44.48419" lon="6.21002">
        <ele>1461</ele>
        <time>2023-04-21T12:55:40.000Z</time>
      </trkpt>
      <trkpt lat="44.48415" lon="6.21">
        <ele>1460</ele>
        <time>2023-04-21T12:55:41.000Z</time>
      </trkpt>
      <trkpt lat="44.48411" lon="6.20999">
        <ele>1459</ele>
        <time>2023-04-21T12:55:42.000Z</time>
      </trkpt>
      <trkpt lat="44.48408" lon="6.20998">
        <ele>1458</ele>
        <time>2023-04-21T12:55:43.000Z</time>
      </trkpt>
      <trkpt lat="44.48404" lon="6.20996">
        <ele>1456</ele>
        <time>2023-04-21T12:55:44.000Z</time>
      </trkpt>
      <trkpt lat="44.48401" lon="6.20993">
        <ele>1455</ele>
        <time>2023-04-21T12:55:45.000Z</time>
      </trkpt>
      <trkpt lat="44.48398" lon="6.20991">
        <ele>1454</ele>
        <time>2023-04-21T12:55:46.000Z</time>
      </trkpt>
      <trkpt lat="44.48395" lon="6.20988">
        <ele>1454</ele>
        <time>2023-04-21T12:55:47.000Z</time>
      </trkpt>
      <trkpt lat="44.48392" lon="6.20986">
        <ele>1453</ele>
        <time>2023-04-21T12:55:48.000Z</time>
      </trkpt>
      <trkpt lat="44.4839" lon="6.20983">
        <ele>1452</ele>
        <time>2023-04-21T12:55:49.000Z</time>
      </trkpt>
      <trkpt lat="44.48388" lon="6.2098">
        <ele>1451</ele>
        <time>2023-04-21T12:55:50.000Z</time>
      </trkpt>
      <trkpt lat="44.48385" lon="6.20977">
        <ele>1450</ele>
        <time>2023-04-21T12:55:51.000Z</time>
      </trkpt>
      <trkpt lat="44.48383" lon="6.20974">
        <ele>1448</ele>
        <time>2023-04-21T12:55:52.000Z</time>
      </trkpt>
      <trkpt lat="44.48381" lon="6.20971">
        <ele>1447</ele>
        <time>2023-04-21T12:55:53.000Z</time>
      </trkpt>
      <trkpt lat="44.48379" lon="6.2097">
        <ele>1446</ele>
        <time>2023-04-21T12:55:54.000Z</time>
      </trkpt>
      <trkpt lat="44.48376" lon="6.20971">
        <ele>1446</ele>
        <time>2023-04-21T12:55:55.000Z</time>
      </trkpt>
      <trkpt lat="44.48374" lon="6.20972">
        <ele>1446</ele>
        <time>2023-04-21T12:55:56.000Z</time>
      </trkpt>
      <trkpt lat="44.48372" lon="6.20974">
        <ele>1446</ele>
        <time>2023-04-21T12:55:57.000Z</time>
      </trkpt>
      <trkpt lat="44.48369" lon="6.20975">
        <ele>1445</ele>
        <time>2023-04-21T12:55:58.000Z</time>
      </trkpt>
      <trkpt lat="44.48367" lon="6.20976">
        <ele>1444</ele>
        <time>2023-04-21T12:55:59.000Z</time>
      </trkpt>
      <trkpt lat="44.48364" lon="6.20976">
        <ele>1443</ele>
        <time>2023-04-21T12:56:00.000Z</time>
      </trkpt>
      <trkpt lat="44.48361" lon="6.20975">
        <ele>1442</ele>
        <time>2023-04-21T12:56:01.000Z</time>
      </trkpt>
      <trkpt lat="44.48358" lon="6.20974">
        <ele>1441</ele>
        <time>2023-04-21T12:56:02.000Z</time>
      </trkpt>
      <trkpt lat="44.48356" lon="6.20972">
        <ele>1440</ele>
        <time>2023-04-21T12:56:03.000Z</time>
      </trkpt>
      <trkpt lat="44.48354" lon="6.2097">
        <ele>1440</ele>
        <time>2023-04-21T12:56:04.000Z</time>
      </trkpt>
      <trkpt lat="44.48352" lon="6.20968">
        <ele>1439</ele>
        <time>2023-04-21T12:56:05.000Z</time>
      </trkpt>
      <trkpt lat="44.4835" lon="6.20966">
        <ele>1438</ele>
        <time>2023-04-21T12:56:06.000Z</time>
      </trkpt>
      <trkpt lat="44.48349" lon="6.20963">
        <ele>1437</ele>
        <time>2023-04-21T12:56:07.000Z</time>
      </trkpt>
      <trkpt lat="44.48348" lon="6.2096">
        <ele>1436</ele>
        <time>2023-04-21T12:56:08.000Z</time>
      </trkpt>
      <trkpt lat="44.48348" lon="6.20956">
        <ele>1435</ele>
        <time>2023-04-21T12:56:09.000Z</time>
      </trkpt>
      <trkpt lat="44.48348" lon="6.20953">
        <ele>1434</ele>
        <time>2023-04-21T12:56:10.000Z</time>
      </trkpt>
      <trkpt lat="44.48348" lon="6.20949">
        <ele>1433</ele>
        <time>2023-04-21T12:56:11.000Z</time>
      </trkpt>
      <trkpt lat="44.48348" lon="6.20945">
        <ele>1432</ele>
        <time>2023-04-21T12:56:12.000Z</time>
      </trkpt>
      <trkpt lat="44.48348" lon="6.2094">
        <ele>1431</ele>
        <time>2023-04-21T12:56:13.000Z</time>
      </trkpt>
      <trkpt lat="44.48347" lon="6.20936">
        <ele>1430</ele>
        <time>2023-04-21T12:56:14.000Z</time>
      </trkpt>
      <trkpt lat="44.48346" lon="6.20932">
        <ele>1430</ele>
        <time>2023-04-21T12:56:15.000Z</time>
      </trkpt>
      <trkpt lat="44.48345" lon="6.20928">
        <ele>1431</ele>
        <time>2023-04-21T12:56:16.000Z</time>
      </trkpt>
      <trkpt lat="44.48343" lon="6.20925">
        <ele>1431</ele>
        <time>2023-04-21T12:56:17.000Z</time>
      </trkpt>
      <trkpt lat="44.48342" lon="6.20922">
        <ele>1431</ele>
        <time>2023-04-21T12:56:18.000Z</time>
      </trkpt>
      <trkpt lat="44.48338" lon="6.2092">
        <ele>1430</ele>
        <time>2023-04-21T12:56:19.000Z</time>
      </trkpt>
      <trkpt lat="44.48336" lon="6.20917">
        <ele>1430</ele>
        <time>2023-04-21T12:56:20.000Z</time>
      </trkpt>
      <trkpt lat="44.48334" lon="6.20913">
        <ele>1430</ele>
        <time>2023-04-21T12:56:21.000Z</time>
      </trkpt>
      <trkpt lat="44.48329" lon="6.20911">
        <ele>1432</ele>
        <time>2023-04-21T12:56:22.000Z</time>
      </trkpt>
      <trkpt lat="44.48325" lon="6.20911">
        <ele>1431</ele>
        <time>2023-04-21T12:56:23.000Z</time>
      </trkpt>
      <trkpt lat="44.48321" lon="6.20909">
        <ele>1429</ele>
        <time>2023-04-21T12:56:24.000Z</time>
      </trkpt>
      <trkpt lat="44.48316" lon="6.20906">
        <ele>1427</ele>
        <time>2023-04-21T12:56:25.000Z</time>
      </trkpt>
      <trkpt lat="44.48311" lon="6.20903">
        <ele>1426</ele>
        <time>2023-04-21T12:56:26.000Z</time>
      </trkpt>
      <trkpt lat="44.48306" lon="6.209">
        <ele>1425</ele>
        <time>2023-04-21T12:56:27.000Z</time>
      </trkpt>
      <trkpt lat="44.483" lon="6.20898">
        <ele>1424</ele>
        <time>2023-04-21T12:56:28.000Z</time>
      </trkpt>
      <trkpt lat="44.48295" lon="6.20896">
        <ele>1423</ele>
        <time>2023-04-21T12:56:29.000Z</time>
      </trkpt>
      <trkpt lat="44.4829" lon="6.20893">
        <ele>1423</ele>
        <time>2023-04-21T12:56:30.000Z</time>
      </trkpt>
      <trkpt lat="44.48284" lon="6.2089">
        <ele>1421</ele>
        <time>2023-04-21T12:56:31.000Z</time>
      </trkpt>
      <trkpt lat="44.4828" lon="6.20887">
        <ele>1420</ele>
        <time>2023-04-21T12:56:32.000Z</time>
      </trkpt>
      <trkpt lat="44.48277" lon="6.20883">
        <ele>1419</ele>
        <time>2023-04-21T12:56:33.000Z</time>
      </trkpt>
      <trkpt lat="44.48273" lon="6.20881">
        <ele>1417</ele>
        <time>2023-04-21T12:56:34.000Z</time>
      </trkpt>
      <trkpt lat="44.48269" lon="6.20879">
        <ele>1416</ele>
        <time>2023-04-21T12:56:35.000Z</time>
      </trkpt>
      <trkpt lat="44.48267" lon="6.20876">
        <ele>1414</ele>
        <time>2023-04-21T12:56:36.000Z</time>
      </trkpt>
      <trkpt lat="44.48264" lon="6.20873">
        <ele>1413</ele>
        <time>2023-04-21T12:56:37.000Z</time>
      </trkpt>
      <trkpt lat="44.48261" lon="6.20871">
        <ele>1412</ele>
        <time>2023-04-21T12:56:38.000Z</time>
      </trkpt>
      <trkpt lat="44.48259" lon="6.20869">
        <ele>1411</ele>
        <time>2023-04-21T12:56:39.000Z</time>
      </trkpt>
      <trkpt lat="44.48257" lon="6.20866">
        <ele>1410</ele>
        <time>2023-04-21T12:56:40.000Z</time>
      </trkpt>
      <trkpt lat="44.48254" lon="6.20862">
        <ele>1408</ele>
        <time>2023-04-21T12:56:41.000Z</time>
      </trkpt>
      <trkpt lat="44.48251" lon="6.2086">
        <ele>1406</ele>
        <time>2023-04-21T12:56:42.000Z</time>
      </trkpt>
      <trkpt lat="44.48249" lon="6.20856">
        <ele>1405</ele>
        <time>2023-04-21T12:56:43.000Z</time>
      </trkpt>
      <trkpt lat="44.48247" lon="6.20853">
        <ele>1404</ele>
        <time>2023-04-21T12:56:44.000Z</time>
      </trkpt>
      <trkpt lat="44.48244" lon="6.2085">
        <ele>1402</ele>
        <time>2023-04-21T12:56:45.000Z</time>
      </trkpt>
      <trkpt lat="44.48242" lon="6.20847">
        <ele>1401</ele>
        <time>2023-04-21T12:56:46.000Z</time>
      </trkpt>
      <trkpt lat="44.48238" lon="6.20843">
        <ele>1400</ele>
        <time>2023-04-21T12:56:47.000Z</time>
      </trkpt>
      <trkpt lat="44.48234" lon="6.20841">
        <ele>1400</ele>
        <time>2023-04-21T12:56:48.000Z</time>
      </trkpt>
      <trkpt lat="44.48231" lon="6.20839">
        <ele>1400</ele>
        <time>2023-04-21T12:56:49.000Z</time>
      </trkpt>
      <trkpt lat="44.48228" lon="6.20839">
        <ele>1399</ele>
        <time>2023-04-21T12:56:50.000Z</time>
      </trkpt>
      <trkpt lat="44.48224" lon="6.2084">
        <ele>1399</ele>
        <time>2023-04-21T12:56:51.000Z</time>
      </trkpt>
      <trkpt lat="44.4822" lon="6.2084">
        <ele>1398</ele>
        <time>2023-04-21T12:56:52.000Z</time>
      </trkpt>
      <trkpt lat="44.48217" lon="6.20839">
        <ele>1397</ele>
        <time>2023-04-21T12:56:53.000Z</time>
      </trkpt>
      <trkpt lat="44.48214" lon="6.20837">
        <ele>1397</ele>
        <time>2023-04-21T12:56:54.000Z</time>
      </trkpt>
      <trkpt lat="44.48212" lon="6.20835">
        <ele>1396</ele>
        <time>2023-04-21T12:56:55.000Z</time>
      </trkpt>
      <trkpt lat="44.48209" lon="6.2083">
        <ele>1393</ele>
        <time>2023-04-21T12:56:56.000Z</time>
      </trkpt>
      <trkpt lat="44.48206" lon="6.20825">
        <ele>1391</ele>
        <time>2023-04-21T12:56:57.000Z</time>
      </trkpt>
      <trkpt lat="44.48202" lon="6.20822">
        <ele>1390</ele>
        <time>2023-04-21T12:56:58.000Z</time>
      </trkpt>
      <trkpt lat="44.48199" lon="6.20821">
        <ele>1391</ele>
        <time>2023-04-21T12:56:59.000Z</time>
      </trkpt>
      <trkpt lat="44.48196" lon="6.20822">
        <ele>1390</ele>
        <time>2023-04-21T12:57:00.000Z</time>
      </trkpt>
      <trkpt lat="44.48193" lon="6.20823">
        <ele>1389</ele>
        <time>2023-04-21T12:57:01.000Z</time>
      </trkpt>
      <trkpt lat="44.4819" lon="6.20822">
        <ele>1389</ele>
        <time>2023-04-21T12:57:02.000Z</time>
      </trkpt>
      <trkpt lat="44.48188" lon="6.20819">
        <ele>1389</ele>
        <time>2023-04-21T12:57:03.000Z</time>
      </trkpt>
      <trkpt lat="44.48186" lon="6.20816">
        <ele>1389</ele>
        <time>2023-04-21T12:57:04.000Z</time>
      </trkpt>
      <trkpt lat="44.48184" lon="6.20812">
        <ele>1388</ele>
        <time>2023-04-21T12:57:05.000Z</time>
      </trkpt>
      <trkpt lat="44.48182" lon="6.20809">
        <ele>1386</ele>
        <time>2023-04-21T12:57:06.000Z</time>
      </trkpt>
      <trkpt lat="44.48179" lon="6.20807">
        <ele>1386</ele>
        <time>2023-04-21T12:57:07.000Z</time>
      </trkpt>
      <trkpt lat="44.48176" lon="6.20805">
        <ele>1385</ele>
        <time>2023-04-21T12:57:08.000Z</time>
      </trkpt>
      <trkpt lat="44.48173" lon="6.20806">
        <ele>1385</ele>
        <time>2023-04-21T12:57:09.000Z</time>
      </trkpt>
      <trkpt lat="44.48171" lon="6.20807">
        <ele>1384</ele>
        <time>2023-04-21T12:57:10.000Z</time>
      </trkpt>
      <trkpt lat="44.48169" lon="6.20807">
        <ele>1384</ele>
        <time>2023-04-21T12:57:11.000Z</time>
      </trkpt>
      <trkpt lat="44.48169" lon="6.20808">
        <ele>1384</ele>
        <time>2023-04-21T12:57:12.000Z</time>
      </trkpt>
      <trkpt lat="44.48169" lon="6.20808">
        <ele>1384</ele>
        <time>2023-04-21T12:57:13.000Z</time>
      </trkpt>
      <trkpt lat="44.48169" lon="6.20808">
        <ele>1383</ele>
        <time>2023-04-21T12:57:14.000Z</time>
      </trkpt>
      <trkpt lat="44.48168" lon="6.20808">
        <ele>1382</ele>
        <time>2023-04-21T12:57:15.000Z</time>
      </trkpt>
      <trkpt lat="44.48168" lon="6.20807">
        <ele>1382</ele>
        <time>2023-04-21T12:57:16.000Z</time>
      </trkpt>
      <trkpt lat="44.48168" lon="6.20807">
        <ele>1382</ele>
        <time>2023-04-21T12:57:17.000Z</time>
      </trkpt>
      <trkpt lat="44.48168" lon="6.20807">
        <ele>1381</ele>
        <time>2023-04-21T12:57:18.000Z</time>
      </trkpt>
      <trkpt lat="44.48168" lon="6.20807">
        <ele>1381</ele>
        <time>2023-04-21T12:57:19.000Z</time>
      </trkpt>
      <trkpt lat="44.48168" lon="6.20807">
        <ele>1380</ele>
        <time>2023-04-21T12:57:20.000Z</time>
      </trkpt>
      <trkpt lat="44.48168" lon="6.20807">
        <ele>1380</ele>
        <time>2023-04-21T12:57:21.000Z</time>
      </trkpt>
      <trkpt lat="44.48168" lon="6.20807">
        <ele>1380</ele>
        <time>2023-04-21T12:57:22.000Z</time>
      </trkpt>
      <trkpt lat="44.48168" lon="6.20807">
        <ele>1379</ele>
        <time>2023-04-21T12:57:23.000Z</time>
      </trkpt>
      <trkpt lat="44.48168" lon="6.20807">
        <ele>1379</ele>
        <time>2023-04-21T12:57:24.000Z</time>
      </trkpt>
      <trkpt lat="44.48168" lon="6.20807">
        <ele>1379</ele>
        <time>2023-04-21T12:57:25.000Z</time>
      </trkpt>
      <trkpt lat="44.48168" lon="6.20807">
        <ele>1379</ele>
        <time>2023-04-21T12:57:26.000Z</time>
      </trkpt>
      <trkpt lat="44.48168" lon="6.20807">
        <ele>1378</ele>
        <time>2023-04-21T12:57:27.000Z</time>
      </trkpt>
      <trkpt lat="44.48168" lon="6.20806">
        <ele>1378</ele>
        <time>2023-04-21T12:57:28.000Z</time>
      </trkpt>
      <trkpt lat="44.48168" lon="6.20806">
        <ele>1378</ele>
        <time>2023-04-21T12:57:29.000Z</time>
      </trkpt>
      <trkpt lat="44.48167" lon="6.20806">
        <ele>1377</ele>
        <time>2023-04-21T12:57:30.000Z</time>
      </trkpt>
      <trkpt lat="44.48167" lon="6.20806">
        <ele>1377</ele>
        <time>2023-04-21T12:57:31.000Z</time>
      </trkpt>
      <trkpt lat="44.48167" lon="6.20806">
        <ele>1377</ele>
        <time>2023-04-21T12:57:32.000Z</time>
      </trkpt>
      <trkpt lat="44.48167" lon="6.20806">
        <ele>1377</ele>
        <time>2023-04-21T12:57:33.000Z</time>
      </trkpt>
      <trkpt lat="44.48167" lon="6.20806">
        <ele>1377</ele>
        <time>2023-04-21T12:57:34.000Z</time>
      </trkpt>
      <trkpt lat="44.48167" lon="6.20806">
        <ele>1377</ele>
        <time>2023-04-21T12:57:35.000Z</time>
      </trkpt>
      <trkpt lat="44.48167" lon="6.20806">
        <ele>1377</ele>
        <time>2023-04-21T12:57:36.000Z</time>
      </trkpt>
      <trkpt lat="44.48167" lon="6.20806">
        <ele>1376</ele>
        <time>2023-04-21T12:57:37.000Z</time>
      </trkpt>
      <trkpt lat="44.48167" lon="6.20806">
        <ele>1376</ele>
        <time>2023-04-21T12:57:38.000Z</time>
      </trkpt>
      <trkpt lat="44.48167" lon="6.20806">
        <ele>1376</ele>
        <time>2023-04-21T12:57:39.000Z</time>
      </trkpt>
      <trkpt lat="44.48167" lon="6.20806">
        <ele>1376</ele>
        <time>2023-04-21T12:57:40.000Z</time>
      </trkpt>
      <trkpt lat="44.48167" lon="6.20805">
        <ele>1376</ele>
        <time>2023-04-21T12:57:41.000Z</time>
      </trkpt>
      <trkpt lat="44.48167" lon="6.20805">
        <ele>1376</ele>
        <time>2023-04-21T12:57:42.000Z</time>
      </trkpt>
      <trkpt lat="44.48167" lon="6.20806">
        <ele>1376</ele>
        <time>2023-04-21T12:57:43.000Z</time>
      </trkpt>
      <trkpt lat="44.48166" lon="6.20806">
        <ele>1376</ele>
        <time>2023-04-21T12:57:44.000Z</time>
      </trkpt>
      <trkpt lat="44.48165" lon="6.20807">
        <ele>1375</ele>
        <time>2023-04-21T12:57:45.000Z</time>
      </trkpt>
      <trkpt lat="44.48163" lon="6.20808">
        <ele>1375</ele>
        <time>2023-04-21T12:57:46.000Z</time>
      </trkpt>
      <trkpt lat="44.48161" lon="6.20808">
        <ele>1374</ele>
        <time>2023-04-21T12:57:47.000Z</time>
      </trkpt>
      <trkpt lat="44.4816" lon="6.20809">
        <ele>1373</ele>
        <time>2023-04-21T12:57:48.000Z</time>
      </trkpt>
      <trkpt lat="44.48158" lon="6.2081">
        <ele>1372</ele>
        <time>2023-04-21T12:57:49.000Z</time>
      </trkpt>
      <trkpt lat="44.48156" lon="6.2081">
        <ele>1371</ele>
        <time>2023-04-21T12:57:50.000Z</time>
      </trkpt>
      <trkpt lat="44.48154" lon="6.2081">
        <ele>1370</ele>
        <time>2023-04-21T12:57:51.000Z</time>
      </trkpt>
      <trkpt lat="44.48151" lon="6.2081">
        <ele>1369</ele>
        <time>2023-04-21T12:57:52.000Z</time>
      </trkpt>
      <trkpt lat="44.48149" lon="6.2081">
        <ele>1368</ele>
        <time>2023-04-21T12:57:53.000Z</time>
      </trkpt>
      <trkpt lat="44.48146" lon="6.2081">
        <ele>1367</ele>
        <time>2023-04-21T12:57:54.000Z</time>
      </trkpt>
      <trkpt lat="44.48143" lon="6.20809">
        <ele>1366</ele>
        <time>2023-04-21T12:57:55.000Z</time>
      </trkpt>
      <trkpt lat="44.4814" lon="6.20808">
        <ele>1364</ele>
        <time>2023-04-21T12:57:56.000Z</time>
      </trkpt>
      <trkpt lat="44.48138" lon="6.20806">
        <ele>1363</ele>
        <time>2023-04-21T12:57:57.000Z</time>
      </trkpt>
      <trkpt lat="44.48135" lon="6.20803">
        <ele>1362</ele>
        <time>2023-04-21T12:57:58.000Z</time>
      </trkpt>
      <trkpt lat="44.48133" lon="6.20801">
        <ele>1361</ele>
        <time>2023-04-21T12:57:59.000Z</time>
      </trkpt>
      <trkpt lat="44.48131" lon="6.20797">
        <ele>1360</ele>
        <time>2023-04-21T12:58:00.000Z</time>
      </trkpt>
      <trkpt lat="44.4813" lon="6.20794">
        <ele>1359</ele>
        <time>2023-04-21T12:58:01.000Z</time>
      </trkpt>
      <trkpt lat="44.48128" lon="6.20792">
        <ele>1358</ele>
        <time>2023-04-21T12:58:02.000Z</time>
      </trkpt>
      <trkpt lat="44.48126" lon="6.20791">
        <ele>1357</ele>
        <time>2023-04-21T12:58:03.000Z</time>
      </trkpt>
      <trkpt lat="44.48124" lon="6.20789">
        <ele>1356</ele>
        <time>2023-04-21T12:58:04.000Z</time>
      </trkpt>
      <trkpt lat="44.48123" lon="6.20787">
        <ele>1355</ele>
        <time>2023-04-21T12:58:05.000Z</time>
      </trkpt>
      <trkpt lat="44.48122" lon="6.20785">
        <ele>1355</ele>
        <time>2023-04-21T12:58:06.000Z</time>
      </trkpt>
      <trkpt lat="44.48121" lon="6.2078">
        <ele>1355</ele>
        <time>2023-04-21T12:58:07.000Z</time>
      </trkpt>
      <trkpt lat="44.4812" lon="6.20777">
        <ele>1354</ele>
        <time>2023-04-21T12:58:08.000Z</time>
      </trkpt>
      <trkpt lat="44.4812" lon="6.20773">
        <ele>1353</ele>
        <time>2023-04-21T12:58:09.000Z</time>
      </trkpt>
      <trkpt lat="44.48119" lon="6.20769">
        <ele>1353</ele>
        <time>2023-04-21T12:58:10.000Z</time>
      </trkpt>
      <trkpt lat="44.48118" lon="6.20766">
        <ele>1352</ele>
        <time>2023-04-21T12:58:11.000Z</time>
      </trkpt>
      <trkpt lat="44.48117" lon="6.2076">
        <ele>1352</ele>
        <time>2023-04-21T12:58:12.000Z</time>
      </trkpt>
      <trkpt lat="44.48116" lon="6.20755">
        <ele>1352</ele>
        <time>2023-04-21T12:58:13.000Z</time>
      </trkpt>
      <trkpt lat="44.48115" lon="6.20752">
        <ele>1352</ele>
        <time>2023-04-21T12:58:14.000Z</time>
      </trkpt>
      <trkpt lat="44.48114" lon="6.20748">
        <ele>1351</ele>
        <time>2023-04-21T12:58:15.000Z</time>
      </trkpt>
      <trkpt lat="44.48112" lon="6.20745">
        <ele>1352</ele>
        <time>2023-04-21T12:58:16.000Z</time>
      </trkpt>
      <trkpt lat="44.48108" lon="6.20742">
        <ele>1351</ele>
        <time>2023-04-21T12:58:17.000Z</time>
      </trkpt>
      <trkpt lat="44.48105" lon="6.20739">
        <ele>1349</ele>
        <time>2023-04-21T12:58:18.000Z</time>
      </trkpt>
      <trkpt lat="44.481" lon="6.20733">
        <ele>1346</ele>
        <time>2023-04-21T12:58:19.000Z</time>
      </trkpt>
      <trkpt lat="44.48098" lon="6.20728">
        <ele>1344</ele>
        <time>2023-04-21T12:58:20.000Z</time>
      </trkpt>
      <trkpt lat="44.48095" lon="6.20724">
        <ele>1343</ele>
        <time>2023-04-21T12:58:21.000Z</time>
      </trkpt>
      <trkpt lat="44.48092" lon="6.20719">
        <ele>1342</ele>
        <time>2023-04-21T12:58:22.000Z</time>
      </trkpt>
      <trkpt lat="44.4809" lon="6.20714">
        <ele>1341</ele>
        <time>2023-04-21T12:58:23.000Z</time>
      </trkpt>
      <trkpt lat="44.48086" lon="6.2071">
        <ele>1339</ele>
        <time>2023-04-21T12:58:24.000Z</time>
      </trkpt>
      <trkpt lat="44.48082" lon="6.20706">
        <ele>1337</ele>
        <time>2023-04-21T12:58:25.000Z</time>
      </trkpt>
      <trkpt lat="44.48078" lon="6.20702">
        <ele>1337</ele>
        <time>2023-04-21T12:58:26.000Z</time>
      </trkpt>
      <trkpt lat="44.48074" lon="6.207">
        <ele>1336</ele>
        <time>2023-04-21T12:58:27.000Z</time>
      </trkpt>
      <trkpt lat="44.4807" lon="6.20697">
        <ele>1335</ele>
        <time>2023-04-21T12:58:28.000Z</time>
      </trkpt>
      <trkpt lat="44.48065" lon="6.20695">
        <ele>1334</ele>
        <time>2023-04-21T12:58:29.000Z</time>
      </trkpt>
      <trkpt lat="44.4806" lon="6.20692">
        <ele>1334</ele>
        <time>2023-04-21T12:58:30.000Z</time>
      </trkpt>
      <trkpt lat="44.48056" lon="6.20689">
        <ele>1332</ele>
        <time>2023-04-21T12:58:31.000Z</time>
      </trkpt>
      <trkpt lat="44.48052" lon="6.20687">
        <ele>1331</ele>
        <time>2023-04-21T12:58:32.000Z</time>
      </trkpt>
      <trkpt lat="44.48048" lon="6.20685">
        <ele>1330</ele>
        <time>2023-04-21T12:58:33.000Z</time>
      </trkpt>
      <trkpt lat="44.48043" lon="6.20683">
        <ele>1329</ele>
        <time>2023-04-21T12:58:34.000Z</time>
      </trkpt>
      <trkpt lat="44.48037" lon="6.20682">
        <ele>1328</ele>
        <time>2023-04-21T12:58:35.000Z</time>
      </trkpt>
      <trkpt lat="44.48031" lon="6.2068">
        <ele>1327</ele>
        <time>2023-04-21T12:58:36.000Z</time>
      </trkpt>
      <trkpt lat="44.48025" lon="6.20679">
        <ele>1326</ele>
        <time>2023-04-21T12:58:37.000Z</time>
      </trkpt>
      <trkpt lat="44.48019" lon="6.20678">
        <ele>1325</ele>
        <time>2023-04-21T12:58:38.000Z</time>
      </trkpt>
      <trkpt lat="44.48014" lon="6.20676">
        <ele>1324</ele>
        <time>2023-04-21T12:58:39.000Z</time>
      </trkpt>
      <trkpt lat="44.4801" lon="6.20674">
        <ele>1322</ele>
        <time>2023-04-21T12:58:40.000Z</time>
      </trkpt>
      <trkpt lat="44.48007" lon="6.20673">
        <ele>1321</ele>
        <time>2023-04-21T12:58:41.000Z</time>
      </trkpt>
      <trkpt lat="44.48004" lon="6.20671">
        <ele>1320</ele>
        <time>2023-04-21T12:58:42.000Z</time>
      </trkpt>
      <trkpt lat="44.48001" lon="6.20668">
        <ele>1319</ele>
        <time>2023-04-21T12:58:43.000Z</time>
      </trkpt>
      <trkpt lat="44.47999" lon="6.20667">
        <ele>1319</ele>
        <time>2023-04-21T12:58:44.000Z</time>
      </trkpt>
      <trkpt lat="44.47997" lon="6.20666">
        <ele>1318</ele>
        <time>2023-04-21T12:58:45.000Z</time>
      </trkpt>
      <trkpt lat="44.47995" lon="6.20666">
        <ele>1317</ele>
        <time>2023-04-21T12:58:46.000Z</time>
      </trkpt>
      <trkpt lat="44.47993" lon="6.20667">
        <ele>1316</ele>
        <time>2023-04-21T12:58:47.000Z</time>
      </trkpt>
      <trkpt lat="44.47991" lon="6.20669">
        <ele>1315</ele>
        <time>2023-04-21T12:58:48.000Z</time>
      </trkpt>
      <trkpt lat="44.47989" lon="6.20671">
        <ele>1315</ele>
        <time>2023-04-21T12:58:49.000Z</time>
      </trkpt>
      <trkpt lat="44.47987" lon="6.20672">
        <ele>1314</ele>
        <time>2023-04-21T12:58:50.000Z</time>
      </trkpt>
      <trkpt lat="44.47984" lon="6.20672">
        <ele>1314</ele>
        <time>2023-04-21T12:58:51.000Z</time>
      </trkpt>
      <trkpt lat="44.47981" lon="6.20671">
        <ele>1313</ele>
        <time>2023-04-21T12:58:52.000Z</time>
      </trkpt>
      <trkpt lat="44.47978" lon="6.2067">
        <ele>1313</ele>
        <time>2023-04-21T12:58:53.000Z</time>
      </trkpt>
      <trkpt lat="44.47975" lon="6.20669">
        <ele>1311</ele>
        <time>2023-04-21T12:58:54.000Z</time>
      </trkpt>
      <trkpt lat="44.47972" lon="6.20669">
        <ele>1310</ele>
        <time>2023-04-21T12:58:55.000Z</time>
      </trkpt>
      <trkpt lat="44.47969" lon="6.20668">
        <ele>1308</ele>
        <time>2023-04-21T12:58:56.000Z</time>
      </trkpt>
      <trkpt lat="44.47965" lon="6.20667">
        <ele>1306</ele>
        <time>2023-04-21T12:58:57.000Z</time>
      </trkpt>
      <trkpt lat="44.47961" lon="6.20667">
        <ele>1305</ele>
        <time>2023-04-21T12:58:58.000Z</time>
      </trkpt>
      <trkpt lat="44.47958" lon="6.20666">
        <ele>1304</ele>
        <time>2023-04-21T12:58:59.000Z</time>
      </trkpt>
      <trkpt lat="44.47955" lon="6.20665">
        <ele>1303</ele>
        <time>2023-04-21T12:59:00.000Z</time>
      </trkpt>
      <trkpt lat="44.47951" lon="6.20663">
        <ele>1301</ele>
        <time>2023-04-21T12:59:01.000Z</time>
      </trkpt>
      <trkpt lat="44.47948" lon="6.20662">
        <ele>1300</ele>
        <time>2023-04-21T12:59:02.000Z</time>
      </trkpt>
      <trkpt lat="44.47944" lon="6.2066">
        <ele>1298</ele>
        <time>2023-04-21T12:59:03.000Z</time>
      </trkpt>
      <trkpt lat="44.47941" lon="6.20659">
        <ele>1297</ele>
        <time>2023-04-21T12:59:04.000Z</time>
      </trkpt>
      <trkpt lat="44.47937" lon="6.20657">
        <ele>1296</ele>
        <time>2023-04-21T12:59:05.000Z</time>
      </trkpt>
      <trkpt lat="44.47934" lon="6.20656">
        <ele>1294</ele>
        <time>2023-04-21T12:59:06.000Z</time>
      </trkpt>
      <trkpt lat="44.47931" lon="6.20654">
        <ele>1293</ele>
        <time>2023-04-21T12:59:07.000Z</time>
      </trkpt>
      <trkpt lat="44.47928" lon="6.20651">
        <ele>1292</ele>
        <time>2023-04-21T12:59:08.000Z</time>
      </trkpt>
      <trkpt lat="44.47926" lon="6.20649">
        <ele>1290</ele>
        <time>2023-04-21T12:59:09.000Z</time>
      </trkpt>
      <trkpt lat="44.47924" lon="6.20645">
        <ele>1289</ele>
        <time>2023-04-21T12:59:10.000Z</time>
      </trkpt>
      <trkpt lat="44.47922" lon="6.20641">
        <ele>1288</ele>
        <time>2023-04-21T12:59:11.000Z</time>
      </trkpt>
      <trkpt lat="44.4792" lon="6.20637">
        <ele>1287</ele>
        <time>2023-04-21T12:59:12.000Z</time>
      </trkpt>
      <trkpt lat="44.47918" lon="6.20633">
        <ele>1285</ele>
        <time>2023-04-21T12:59:13.000Z</time>
      </trkpt>
      <trkpt lat="44.47915" lon="6.20629">
        <ele>1283</ele>
        <time>2023-04-21T12:59:14.000Z</time>
      </trkpt>
      <trkpt lat="44.47912" lon="6.20626">
        <ele>1282</ele>
        <time>2023-04-21T12:59:15.000Z</time>
      </trkpt>
      <trkpt lat="44.4791" lon="6.20624">
        <ele>1281</ele>
        <time>2023-04-21T12:59:16.000Z</time>
      </trkpt>
      <trkpt lat="44.47906" lon="6.20624">
        <ele>1281</ele>
        <time>2023-04-21T12:59:17.000Z</time>
      </trkpt>
      <trkpt lat="44.47903" lon="6.20624">
        <ele>1282</ele>
        <time>2023-04-21T12:59:18.000Z</time>
      </trkpt>
      <trkpt lat="44.47899" lon="6.20624">
        <ele>1281</ele>
        <time>2023-04-21T12:59:19.000Z</time>
      </trkpt>
      <trkpt lat="44.47895" lon="6.20623">
        <ele>1281</ele>
        <time>2023-04-21T12:59:20.000Z</time>
      </trkpt>
      <trkpt lat="44.47892" lon="6.20622">
        <ele>1281</ele>
        <time>2023-04-21T12:59:21.000Z</time>
      </trkpt>
      <trkpt lat="44.47888" lon="6.20621">
        <ele>1280</ele>
        <time>2023-04-21T12:59:22.000Z</time>
      </trkpt>
      <trkpt lat="44.47884" lon="6.2062">
        <ele>1281</ele>
        <time>2023-04-21T12:59:23.000Z</time>
      </trkpt>
      <trkpt lat="44.4788" lon="6.2062">
        <ele>1282</ele>
        <time>2023-04-21T12:59:24.000Z</time>
      </trkpt>
      <trkpt lat="44.47877" lon="6.20619">
        <ele>1284</ele>
        <time>2023-04-21T12:59:25.000Z</time>
      </trkpt>
      <trkpt lat="44.47873" lon="6.20618">
        <ele>1285</ele>
        <time>2023-04-21T12:59:26.000Z</time>
      </trkpt>
      <trkpt lat="44.47867" lon="6.20615">
        <ele>1285</ele>
        <time>2023-04-21T12:59:27.000Z</time>
      </trkpt>
      <trkpt lat="44.47863" lon="6.20613">
        <ele>1286</ele>
        <time>2023-04-21T12:59:28.000Z</time>
      </trkpt>
      <trkpt lat="44.47858" lon="6.20611">
        <ele>1287</ele>
        <time>2023-04-21T12:59:29.000Z</time>
      </trkpt>
      <trkpt lat="44.47852" lon="6.20608">
        <ele>1288</ele>
        <time>2023-04-21T12:59:30.000Z</time>
      </trkpt>
      <trkpt lat="44.47847" lon="6.20605">
        <ele>1290</ele>
        <time>2023-04-21T12:59:31.000Z</time>
      </trkpt>
      <trkpt lat="44.47841" lon="6.20603">
        <ele>1290</ele>
        <time>2023-04-21T12:59:32.000Z</time>
      </trkpt>
      <trkpt lat="44.47837" lon="6.206">
        <ele>1290</ele>
        <time>2023-04-21T12:59:33.000Z</time>
      </trkpt>
      <trkpt lat="44.47833" lon="6.20596">
        <ele>1291</ele>
        <time>2023-04-21T12:59:34.000Z</time>
      </trkpt>
      <trkpt lat="44.47828" lon="6.20591">
        <ele>1292</ele>
        <time>2023-04-21T12:59:35.000Z</time>
      </trkpt>
      <trkpt lat="44.47825" lon="6.20586">
        <ele>1290</ele>
        <time>2023-04-21T12:59:36.000Z</time>
      </trkpt>
      <trkpt lat="44.47822" lon="6.20584">
        <ele>1289</ele>
        <time>2023-04-21T12:59:37.000Z</time>
      </trkpt>
      <trkpt lat="44.47821" lon="6.20582">
        <ele>1290</ele>
        <time>2023-04-21T12:59:38.000Z</time>
      </trkpt>
      <trkpt lat="44.47822" lon="6.20582">
        <ele>1288</ele>
        <time>2023-04-21T12:59:39.000Z</time>
      </trkpt>
      <trkpt lat="44.47821" lon="6.2058">
        <ele>1287</ele>
        <time>2023-04-21T12:59:40.000Z</time>
      </trkpt>
      <trkpt lat="44.4782" lon="6.20579">
        <ele>1286</ele>
        <time>2023-04-21T12:59:41.000Z</time>
      </trkpt>
      <trkpt lat="44.47819" lon="6.20578">
        <ele>1286</ele>
        <time>2023-04-21T12:59:42.000Z</time>
      </trkpt>
      <trkpt lat="44.47817" lon="6.20577">
        <ele>1284</ele>
        <time>2023-04-21T12:59:43.000Z</time>
      </trkpt>
      <trkpt lat="44.47816" lon="6.20576">
        <ele>1283</ele>
        <time>2023-04-21T12:59:44.000Z</time>
      </trkpt>
      <trkpt lat="44.47815" lon="6.20575">
        <ele>1282</ele>
        <time>2023-04-21T12:59:45.000Z</time>
      </trkpt>
      <trkpt lat="44.47813" lon="6.20574">
        <ele>1281</ele>
        <time>2023-04-21T12:59:46.000Z</time>
      </trkpt>
      <trkpt lat="44.47813" lon="6.20573">
        <ele>1280</ele>
        <time>2023-04-21T12:59:47.000Z</time>
      </trkpt>
      <trkpt lat="44.47812" lon="6.20573">
        <ele>1280</ele>
        <time>2023-04-21T12:59:48.000Z</time>
      </trkpt>
      <trkpt lat="44.47811" lon="6.20572">
        <ele>1279</ele>
        <time>2023-04-21T12:59:49.000Z</time>
      </trkpt>
      <trkpt lat="44.47811" lon="6.20572">
        <ele>1279</ele>
        <time>2023-04-21T12:59:50.000Z</time>
      </trkpt>
      <trkpt lat="44.4781" lon="6.20572">
        <ele>1278</ele>
        <time>2023-04-21T12:59:51.000Z</time>
      </trkpt>
      <trkpt lat="44.4781" lon="6.20572">
        <ele>1278</ele>
        <time>2023-04-21T12:59:52.000Z</time>
      </trkpt>
      <trkpt lat="44.47809" lon="6.20571">
        <ele>1277</ele>
        <time>2023-04-21T12:59:53.000Z</time>
      </trkpt>
      <trkpt lat="44.47809" lon="6.20571">
        <ele>1276</ele>
        <time>2023-04-21T12:59:54.000Z</time>
      </trkpt>
      <trkpt lat="44.47808" lon="6.2057">
        <ele>1276</ele>
        <time>2023-04-21T12:59:55.000Z</time>
      </trkpt>
      <trkpt lat="44.47808" lon="6.2057">
        <ele>1275</ele>
        <time>2023-04-21T12:59:56.000Z</time>
      </trkpt>
      <trkpt lat="44.47808" lon="6.2057">
        <ele>1275</ele>
        <time>2023-04-21T12:59:57.000Z</time>
      </trkpt>
      <trkpt lat="44.47807" lon="6.2057">
        <ele>1274</ele>
        <time>2023-04-21T12:59:58.000Z</time>
      </trkpt>
      <trkpt lat="44.47805" lon="6.2057">
        <ele>1274</ele>
        <time>2023-04-21T12:59:59.000Z</time>
      </trkpt>
      <trkpt lat="44.47804" lon="6.20568">
        <ele>1274</ele>
        <time>2023-04-21T13:00:00.000Z</time>
      </trkpt>
      <trkpt lat="44.47802" lon="6.20567">
        <ele>1275</ele>
        <time>2023-04-21T13:00:01.000Z</time>
      </trkpt>
      <trkpt lat="44.478" lon="6.20565">
        <ele>1275</ele>
        <time>2023-04-21T13:00:02.000Z</time>
      </trkpt>
      <trkpt lat="44.47798" lon="6.20563">
        <ele>1275</ele>
        <time>2023-04-21T13:00:03.000Z</time>
      </trkpt>
      <trkpt lat="44.47797" lon="6.20561">
        <ele>1276</ele>
        <time>2023-04-21T13:00:04.000Z</time>
      </trkpt>
      <trkpt lat="44.47796" lon="6.20559">
        <ele>1276</ele>
        <time>2023-04-21T13:00:05.000Z</time>
      </trkpt>
      <trkpt lat="44.47795" lon="6.20556">
        <ele>1275</ele>
        <time>2023-04-21T13:00:06.000Z</time>
      </trkpt>
      <trkpt lat="44.47794" lon="6.20554">
        <ele>1275</ele>
        <time>2023-04-21T13:00:07.000Z</time>
      </trkpt>
      <trkpt lat="44.47793" lon="6.2055">
        <ele>1274</ele>
        <time>2023-04-21T13:00:08.000Z</time>
      </trkpt>
      <trkpt lat="44.47791" lon="6.20547">
        <ele>1275</ele>
        <time>2023-04-21T13:00:09.000Z</time>
      </trkpt>
      <trkpt lat="44.47789" lon="6.20544">
        <ele>1273</ele>
        <time>2023-04-21T13:00:10.000Z</time>
      </trkpt>
      <trkpt lat="44.47787" lon="6.20541">
        <ele>1273</ele>
        <time>2023-04-21T13:00:11.000Z</time>
      </trkpt>
      <trkpt lat="44.47784" lon="6.20539">
        <ele>1272</ele>
        <time>2023-04-21T13:00:12.000Z</time>
      </trkpt>
      <trkpt lat="44.47781" lon="6.20538">
        <ele>1271</ele>
        <time>2023-04-21T13:00:13.000Z</time>
      </trkpt>
      <trkpt lat="44.47779" lon="6.20536">
        <ele>1271</ele>
        <time>2023-04-21T13:00:14.000Z</time>
      </trkpt>
      <trkpt lat="44.47775" lon="6.20534">
        <ele>1272</ele>
        <time>2023-04-21T13:00:15.000Z</time>
      </trkpt>
      <trkpt lat="44.47772" lon="6.20534">
        <ele>1271</ele>
        <time>2023-04-21T13:00:16.000Z</time>
      </trkpt>
      <trkpt lat="44.47769" lon="6.20533">
        <ele>1271</ele>
        <time>2023-04-21T13:00:17.000Z</time>
      </trkpt>
      <trkpt lat="44.47766" lon="6.20532">
        <ele>1270</ele>
        <time>2023-04-21T13:00:18.000Z</time>
      </trkpt>
      <trkpt lat="44.47764" lon="6.20531">
        <ele>1270</ele>
        <time>2023-04-21T13:00:19.000Z</time>
      </trkpt>
      <trkpt lat="44.47761" lon="6.2053">
        <ele>1270</ele>
        <time>2023-04-21T13:00:20.000Z</time>
      </trkpt>
      <trkpt lat="44.47758" lon="6.20528">
        <ele>1270</ele>
        <time>2023-04-21T13:00:21.000Z</time>
      </trkpt>
      <trkpt lat="44.47755" lon="6.20527">
        <ele>1269</ele>
        <time>2023-04-21T13:00:22.000Z</time>
      </trkpt>
      <trkpt lat="44.47752" lon="6.20525">
        <ele>1267</ele>
        <time>2023-04-21T13:00:23.000Z</time>
      </trkpt>
      <trkpt lat="44.47749" lon="6.20523">
        <ele>1266</ele>
        <time>2023-04-21T13:00:24.000Z</time>
      </trkpt>
      <trkpt lat="44.47746" lon="6.20521">
        <ele>1265</ele>
        <time>2023-04-21T13:00:25.000Z</time>
      </trkpt>
      <trkpt lat="44.47743" lon="6.2052">
        <ele>1264</ele>
        <time>2023-04-21T13:00:26.000Z</time>
      </trkpt>
      <trkpt lat="44.4774" lon="6.20519">
        <ele>1263</ele>
        <time>2023-04-21T13:00:27.000Z</time>
      </trkpt>
      <trkpt lat="44.47734" lon="6.20517">
        <ele>1261</ele>
        <time>2023-04-21T13:00:28.000Z</time>
      </trkpt>
      <trkpt lat="44.4773" lon="6.20514">
        <ele>1261</ele>
        <time>2023-04-21T13:00:29.000Z</time>
      </trkpt>
      <trkpt lat="44.47728" lon="6.20511">
        <ele>1262</ele>
        <time>2023-04-21T13:00:30.000Z</time>
      </trkpt>
      <trkpt lat="44.47725" lon="6.20509">
        <ele>1261</ele>
        <time>2023-04-21T13:00:31.000Z</time>
      </trkpt>
      <trkpt lat="44.47724" lon="6.20508">
        <ele>1260</ele>
        <time>2023-04-21T13:00:32.000Z</time>
      </trkpt>
      <trkpt lat="44.47723" lon="6.20506">
        <ele>1260</ele>
        <time>2023-04-21T13:00:33.000Z</time>
      </trkpt>
      <trkpt lat="44.47722" lon="6.20503">
        <ele>1260</ele>
        <time>2023-04-21T13:00:34.000Z</time>
      </trkpt>
      <trkpt lat="44.47721" lon="6.205">
        <ele>1258</ele>
        <time>2023-04-21T13:00:35.000Z</time>
      </trkpt>
      <trkpt lat="44.4772" lon="6.20497">
        <ele>1257</ele>
        <time>2023-04-21T13:00:36.000Z</time>
      </trkpt>
      <trkpt lat="44.4772" lon="6.20494">
        <ele>1257</ele>
        <time>2023-04-21T13:00:37.000Z</time>
      </trkpt>
      <trkpt lat="44.47719" lon="6.20491">
        <ele>1257</ele>
        <time>2023-04-21T13:00:38.000Z</time>
      </trkpt>
      <trkpt lat="44.47719" lon="6.20488">
        <ele>1256</ele>
        <time>2023-04-21T13:00:39.000Z</time>
      </trkpt>
      <trkpt lat="44.47718" lon="6.20485">
        <ele>1256</ele>
        <time>2023-04-21T13:00:40.000Z</time>
      </trkpt>
      <trkpt lat="44.47716" lon="6.20483">
        <ele>1255</ele>
        <time>2023-04-21T13:00:41.000Z</time>
      </trkpt>
      <trkpt lat="44.47714" lon="6.2048">
        <ele>1254</ele>
        <time>2023-04-21T13:00:42.000Z</time>
      </trkpt>
      <trkpt lat="44.47713" lon="6.20476">
        <ele>1252</ele>
        <time>2023-04-21T13:00:43.000Z</time>
      </trkpt>
      <trkpt lat="44.47712" lon="6.20472">
        <ele>1251</ele>
        <time>2023-04-21T13:00:44.000Z</time>
      </trkpt>
      <trkpt lat="44.4771" lon="6.2047">
        <ele>1249</ele>
        <time>2023-04-21T13:00:45.000Z</time>
      </trkpt>
      <trkpt lat="44.47708" lon="6.20467">
        <ele>1248</ele>
        <time>2023-04-21T13:00:46.000Z</time>
      </trkpt>
      <trkpt lat="44.47706" lon="6.20463">
        <ele>1246</ele>
        <time>2023-04-21T13:00:47.000Z</time>
      </trkpt>
      <trkpt lat="44.47703" lon="6.20461">
        <ele>1243</ele>
        <time>2023-04-21T13:00:48.000Z</time>
      </trkpt>
      <trkpt lat="44.47701" lon="6.20459">
        <ele>1242</ele>
        <time>2023-04-21T13:00:49.000Z</time>
      </trkpt>
      <trkpt lat="44.47698" lon="6.20456">
        <ele>1242</ele>
        <time>2023-04-21T13:00:50.000Z</time>
      </trkpt>
      <trkpt lat="44.47696" lon="6.20452">
        <ele>1241</ele>
        <time>2023-04-21T13:00:51.000Z</time>
      </trkpt>
      <trkpt lat="44.47694" lon="6.20448">
        <ele>1242</ele>
        <time>2023-04-21T13:00:52.000Z</time>
      </trkpt>
      <trkpt lat="44.47694" lon="6.20444">
        <ele>1240</ele>
        <time>2023-04-21T13:00:53.000Z</time>
      </trkpt>
      <trkpt lat="44.47695" lon="6.20442">
        <ele>1241</ele>
        <time>2023-04-21T13:00:54.000Z</time>
      </trkpt>
      <trkpt lat="44.47696" lon="6.2044">
        <ele>1240</ele>
        <time>2023-04-21T13:00:55.000Z</time>
      </trkpt>
      <trkpt lat="44.47696" lon="6.20438">
        <ele>1239</ele>
        <time>2023-04-21T13:00:56.000Z</time>
      </trkpt>
      <trkpt lat="44.47695" lon="6.20437">
        <ele>1238</ele>
        <time>2023-04-21T13:00:57.000Z</time>
      </trkpt>
      <trkpt lat="44.47695" lon="6.20436">
        <ele>1237</ele>
        <time>2023-04-21T13:00:58.000Z</time>
      </trkpt>
      <trkpt lat="44.47695" lon="6.20435">
        <ele>1235</ele>
        <time>2023-04-21T13:00:59.000Z</time>
      </trkpt>
      <trkpt lat="44.47695" lon="6.20434">
        <ele>1234</ele>
        <time>2023-04-21T13:01:00.000Z</time>
      </trkpt>
      <trkpt lat="44.47695" lon="6.20434">
        <ele>1233</ele>
        <time>2023-04-21T13:01:01.000Z</time>
      </trkpt>
      <trkpt lat="44.47695" lon="6.20433">
        <ele>1232</ele>
        <time>2023-04-21T13:01:02.000Z</time>
      </trkpt>
      <trkpt lat="44.47695" lon="6.20432">
        <ele>1231</ele>
        <time>2023-04-21T13:01:03.000Z</time>
      </trkpt>
      <trkpt lat="44.47695" lon="6.20432">
        <ele>1230</ele>
        <time>2023-04-21T13:01:04.000Z</time>
      </trkpt>
      <trkpt lat="44.47695" lon="6.20431">
        <ele>1229</ele>
        <time>2023-04-21T13:01:05.000Z</time>
      </trkpt>
      <trkpt lat="44.47695" lon="6.2043">
        <ele>1228</ele>
        <time>2023-04-21T13:01:06.000Z</time>
      </trkpt>
      <trkpt lat="44.47695" lon="6.2043">
        <ele>1228</ele>
        <time>2023-04-21T13:01:07.000Z</time>
      </trkpt>
      <trkpt lat="44.47695" lon="6.2043">
        <ele>1227</ele>
        <time>2023-04-21T13:01:08.000Z</time>
      </trkpt>
      <trkpt lat="44.47694" lon="6.20429">
        <ele>1226</ele>
        <time>2023-04-21T13:01:09.000Z</time>
      </trkpt>
      <trkpt lat="44.47695" lon="6.20428">
        <ele>1226</ele>
        <time>2023-04-21T13:01:10.000Z</time>
      </trkpt>
      <trkpt lat="44.47695" lon="6.20428">
        <ele>1226</ele>
        <time>2023-04-21T13:01:11.000Z</time>
      </trkpt>
      <trkpt lat="44.47695" lon="6.20427">
        <ele>1226</ele>
        <time>2023-04-21T13:01:12.000Z</time>
      </trkpt>
      <trkpt lat="44.47696" lon="6.20427">
        <ele>1226</ele>
        <time>2023-04-21T13:01:13.000Z</time>
      </trkpt>
      <trkpt lat="44.47696" lon="6.20426">
        <ele>1226</ele>
        <time>2023-04-21T13:01:14.000Z</time>
      </trkpt>
      <trkpt lat="44.47696" lon="6.20426">
        <ele>1226</ele>
        <time>2023-04-21T13:01:15.000Z</time>
      </trkpt>
      <trkpt lat="44.47696" lon="6.20426">
        <ele>1226</ele>
        <time>2023-04-21T13:01:16.000Z</time>
      </trkpt>
      <trkpt lat="44.47696" lon="6.20426">
        <ele>1226</ele>
        <time>2023-04-21T13:01:17.000Z</time>
      </trkpt>
      <trkpt lat="44.47696" lon="6.20426">
        <ele>1225</ele>
        <time>2023-04-21T13:01:18.000Z</time>
      </trkpt>
      <trkpt lat="44.47696" lon="6.20426">
        <ele>1225</ele>
        <time>2023-04-21T13:01:19.000Z</time>
      </trkpt>
      <trkpt lat="44.47696" lon="6.20425">
        <ele>1225</ele>
        <time>2023-04-21T13:01:20.000Z</time>
      </trkpt>
      <trkpt lat="44.47696" lon="6.20425">
        <ele>1225</ele>
        <time>2023-04-21T13:01:21.000Z</time>
      </trkpt>
      <trkpt lat="44.47696" lon="6.20425">
        <ele>1225</ele>
        <time>2023-04-21T13:01:22.000Z</time>
      </trkpt>
      <trkpt lat="44.47696" lon="6.20425">
        <ele>1225</ele>
        <time>2023-04-21T13:01:23.000Z</time>
      </trkpt>
      <trkpt lat="44.47695" lon="6.20425">
        <ele>1225</ele>
        <time>2023-04-21T13:01:24.000Z</time>
      </trkpt>
      <trkpt lat="44.47695" lon="6.20425">
        <ele>1225</ele>
        <time>2023-04-21T13:01:25.000Z</time>
      </trkpt>
      <trkpt lat="44.47696" lon="6.20425">
        <ele>1225</ele>
        <time>2023-04-21T13:01:26.000Z</time>
      </trkpt>
      <trkpt lat="44.47696" lon="6.20425">
        <ele>1224</ele>
        <time>2023-04-21T13:01:27.000Z</time>
      </trkpt>
      <trkpt lat="44.47696" lon="6.20425">
        <ele>1224</ele>
        <time>2023-04-21T13:01:28.000Z</time>
      </trkpt>
      <trkpt lat="44.47696" lon="6.20425">
        <ele>1224</ele>
        <time>2023-04-21T13:01:29.000Z</time>
      </trkpt>
      <trkpt lat="44.47696" lon="6.20424">
        <ele>1224</ele>
        <time>2023-04-21T13:01:30.000Z</time>
      </trkpt>
      <trkpt lat="44.47696" lon="6.20424">
        <ele>1223</ele>
        <time>2023-04-21T13:01:31.000Z</time>
      </trkpt>
      <trkpt lat="44.47696" lon="6.20424">
        <ele>1223</ele>
        <time>2023-04-21T13:01:32.000Z</time>
      </trkpt>
      <trkpt lat="44.47696" lon="6.20424">
        <ele>1223</ele>
        <time>2023-04-21T13:01:33.000Z</time>
      </trkpt>
      <trkpt lat="44.47696" lon="6.20424">
        <ele>1223</ele>
        <time>2023-04-21T13:01:34.000Z</time>
      </trkpt>
      <trkpt lat="44.47697" lon="6.20423">
        <ele>1223</ele>
        <time>2023-04-21T13:01:35.000Z</time>
      </trkpt>
      <trkpt lat="44.47698" lon="6.20423">
        <ele>1223</ele>
        <time>2023-04-21T13:01:36.000Z</time>
      </trkpt>
      <trkpt lat="44.47699" lon="6.20424">
        <ele>1223</ele>
        <time>2023-04-21T13:01:37.000Z</time>
      </trkpt>
      <trkpt lat="44.47699" lon="6.20426">
        <ele>1224</ele>
        <time>2023-04-21T13:01:38.000Z</time>
      </trkpt>
      <trkpt lat="44.47699" lon="6.20428">
        <ele>1225</ele>
        <time>2023-04-21T13:01:39.000Z</time>
      </trkpt>
      <trkpt lat="44.477" lon="6.20431">
        <ele>1225</ele>
        <time>2023-04-21T13:01:40.000Z</time>
      </trkpt>
      <trkpt lat="44.477" lon="6.20433">
        <ele>1225</ele>
        <time>2023-04-21T13:01:41.000Z</time>
      </trkpt>
      <trkpt lat="44.47701" lon="6.20434">
        <ele>1225</ele>
        <time>2023-04-21T13:01:42.000Z</time>
      </trkpt>
      <trkpt lat="44.47702" lon="6.20436">
        <ele>1225</ele>
        <time>2023-04-21T13:01:43.000Z</time>
      </trkpt>
      <trkpt lat="44.47703" lon="6.20438">
        <ele>1226</ele>
        <time>2023-04-21T13:01:44.000Z</time>
      </trkpt>
      <trkpt lat="44.47705" lon="6.2044">
        <ele>1226</ele>
        <time>2023-04-21T13:01:45.000Z</time>
      </trkpt>
      <trkpt lat="44.47707" lon="6.20441">
        <ele>1226</ele>
        <time>2023-04-21T13:01:46.000Z</time>
      </trkpt>
      <trkpt lat="44.47708" lon="6.20442">
        <ele>1227</ele>
        <time>2023-04-21T13:01:47.000Z</time>
      </trkpt>
      <trkpt lat="44.47709" lon="6.20443">
        <ele>1228</ele>
        <time>2023-04-21T13:01:48.000Z</time>
      </trkpt>
      <trkpt lat="44.47711" lon="6.20444">
        <ele>1228</ele>
        <time>2023-04-21T13:01:49.000Z</time>
      </trkpt>
      <trkpt lat="44.47712" lon="6.20445">
        <ele>1228</ele>
        <time>2023-04-21T13:01:50.000Z</time>
      </trkpt>
      <trkpt lat="44.47714" lon="6.20446">
        <ele>1228</ele>
        <time>2023-04-21T13:01:51.000Z</time>
      </trkpt>
      <trkpt lat="44.47717" lon="6.20447">
        <ele>1229</ele>
        <time>2023-04-21T13:01:52.000Z</time>
      </trkpt>
      <trkpt lat="44.47719" lon="6.20447">
        <ele>1229</ele>
        <time>2023-04-21T13:01:53.000Z</time>
      </trkpt>
      <trkpt lat="44.47721" lon="6.20448">
        <ele>1229</ele>
        <time>2023-04-21T13:01:54.000Z</time>
      </trkpt>
      <trkpt lat="44.47723" lon="6.20448">
        <ele>1229</ele>
        <time>2023-04-21T13:01:55.000Z</time>
      </trkpt>
      <trkpt lat="44.47725" lon="6.20449">
        <ele>1230</ele>
        <time>2023-04-21T13:01:56.000Z</time>
      </trkpt>
      <trkpt lat="44.47728" lon="6.20449">
        <ele>1229</ele>
        <time>2023-04-21T13:01:57.000Z</time>
      </trkpt>
      <trkpt lat="44.4773" lon="6.20449">
        <ele>1229</ele>
        <time>2023-04-21T13:01:58.000Z</time>
      </trkpt>
      <trkpt lat="44.47733" lon="6.20449">
        <ele>1229</ele>
        <time>2023-04-21T13:01:59.000Z</time>
      </trkpt>
      <trkpt lat="44.47735" lon="6.20449">
        <ele>1228</ele>
        <time>2023-04-21T13:02:00.000Z</time>
      </trkpt>
      <trkpt lat="44.47738" lon="6.20448">
        <ele>1228</ele>
        <time>2023-04-21T13:02:01.000Z</time>
      </trkpt>
      <trkpt lat="44.4774" lon="6.20448">
        <ele>1228</ele>
        <time>2023-04-21T13:02:02.000Z</time>
      </trkpt>
      <trkpt lat="44.47742" lon="6.20447">
        <ele>1228</ele>
        <time>2023-04-21T13:02:03.000Z</time>
      </trkpt>
      <trkpt lat="44.47744" lon="6.20446">
        <ele>1228</ele>
        <time>2023-04-21T13:02:04.000Z</time>
      </trkpt>
      <trkpt lat="44.47747" lon="6.20446">
        <ele>1228</ele>
        <time>2023-04-21T13:02:05.000Z</time>
      </trkpt>
      <trkpt lat="44.47749" lon="6.20445">
        <ele>1228</ele>
        <time>2023-04-21T13:02:06.000Z</time>
      </trkpt>
      <trkpt lat="44.47751" lon="6.20444">
        <ele>1227</ele>
        <time>2023-04-21T13:02:07.000Z</time>
      </trkpt>
      <trkpt lat="44.47754" lon="6.20443">
        <ele>1227</ele>
        <time>2023-04-21T13:02:08.000Z</time>
      </trkpt>
      <trkpt lat="44.47756" lon="6.20442">
        <ele>1227</ele>
        <time>2023-04-21T13:02:09.000Z</time>
      </trkpt>
      <trkpt lat="44.47758" lon="6.20441">
        <ele>1227</ele>
        <time>2023-04-21T13:02:10.000Z</time>
      </trkpt>
      <trkpt lat="44.47761" lon="6.2044">
        <ele>1227</ele>
        <time>2023-04-21T13:02:11.000Z</time>
      </trkpt>
      <trkpt lat="44.47763" lon="6.2044">
        <ele>1227</ele>
        <time>2023-04-21T13:02:12.000Z</time>
      </trkpt>
      <trkpt lat="44.47766" lon="6.20439">
        <ele>1226</ele>
        <time>2023-04-21T13:02:13.000Z</time>
      </trkpt>
      <trkpt lat="44.47768" lon="6.20439">
        <ele>1227</ele>
        <time>2023-04-21T13:02:14.000Z</time>
      </trkpt>
      <trkpt lat="44.4777" lon="6.20438">
        <ele>1227</ele>
        <time>2023-04-21T13:02:15.000Z</time>
      </trkpt>
      <trkpt lat="44.47773" lon="6.20437">
        <ele>1227</ele>
        <time>2023-04-21T13:02:16.000Z</time>
      </trkpt>
      <trkpt lat="44.47775" lon="6.20436">
        <ele>1227</ele>
        <time>2023-04-21T13:02:17.000Z</time>
      </trkpt>
      <trkpt lat="44.47778" lon="6.20436">
        <ele>1227</ele>
        <time>2023-04-21T13:02:18.000Z</time>
      </trkpt>
      <trkpt lat="44.4778" lon="6.20436">
        <ele>1227</ele>
        <time>2023-04-21T13:02:19.000Z</time>
      </trkpt>
      <trkpt lat="44.47782" lon="6.20436">
        <ele>1228</ele>
        <time>2023-04-21T13:02:20.000Z</time>
      </trkpt>
      <trkpt lat="44.47784" lon="6.20436">
        <ele>1228</ele>
        <time>2023-04-21T13:02:21.000Z</time>
      </trkpt>
      <trkpt lat="44.47787" lon="6.20436">
        <ele>1228</ele>
        <time>2023-04-21T13:02:22.000Z</time>
      </trkpt>
      <trkpt lat="44.47789" lon="6.20437">
        <ele>1228</ele>
        <time>2023-04-21T13:02:23.000Z</time>
      </trkpt>
      <trkpt lat="44.47792" lon="6.20437">
        <ele>1228</ele>
        <time>2023-04-21T13:02:24.000Z</time>
      </trkpt>
      <trkpt lat="44.47794" lon="6.20438">
        <ele>1229</ele>
        <time>2023-04-21T13:02:25.000Z</time>
      </trkpt>
      <trkpt lat="44.47797" lon="6.20439">
        <ele>1229</ele>
        <time>2023-04-21T13:02:26.000Z</time>
      </trkpt>
      <trkpt lat="44.47799" lon="6.2044">
        <ele>1229</ele>
        <time>2023-04-21T13:02:27.000Z</time>
      </trkpt>
      <trkpt lat="44.47802" lon="6.20441">
        <ele>1230</ele>
        <time>2023-04-21T13:02:28.000Z</time>
      </trkpt>
      <trkpt lat="44.47804" lon="6.20443">
        <ele>1230</ele>
        <time>2023-04-21T13:02:29.000Z</time>
      </trkpt>
      <trkpt lat="44.47806" lon="6.20445">
        <ele>1230</ele>
        <time>2023-04-21T13:02:30.000Z</time>
      </trkpt>
      <trkpt lat="44.47809" lon="6.20447">
        <ele>1230</ele>
        <time>2023-04-21T13:02:31.000Z</time>
      </trkpt>
      <trkpt lat="44.47811" lon="6.20448">
        <ele>1230</ele>
        <time>2023-04-21T13:02:32.000Z</time>
      </trkpt>
      <trkpt lat="44.47813" lon="6.20449">
        <ele>1231</ele>
        <time>2023-04-21T13:02:33.000Z</time>
      </trkpt>
      <trkpt lat="44.47816" lon="6.2045">
        <ele>1231</ele>
        <time>2023-04-21T13:02:34.000Z</time>
      </trkpt>
      <trkpt lat="44.47818" lon="6.20451">
        <ele>1232</ele>
        <time>2023-04-21T13:02:35.000Z</time>
      </trkpt>
      <trkpt lat="44.4782" lon="6.20451">
        <ele>1233</ele>
        <time>2023-04-21T13:02:36.000Z</time>
      </trkpt>
      <trkpt lat="44.47822" lon="6.20452">
        <ele>1233</ele>
        <time>2023-04-21T13:02:37.000Z</time>
      </trkpt>
      <trkpt lat="44.47824" lon="6.20453">
        <ele>1234</ele>
        <time>2023-04-21T13:02:38.000Z</time>
      </trkpt>
      <trkpt lat="44.47826" lon="6.20454">
        <ele>1234</ele>
        <time>2023-04-21T13:02:39.000Z</time>
      </trkpt>
      <trkpt lat="44.47829" lon="6.20456">
        <ele>1235</ele>
        <time>2023-04-21T13:02:40.000Z</time>
      </trkpt>
      <trkpt lat="44.47832" lon="6.20457">
        <ele>1234</ele>
        <time>2023-04-21T13:02:41.000Z</time>
      </trkpt>
      <trkpt lat="44.47834" lon="6.20458">
        <ele>1235</ele>
        <time>2023-04-21T13:02:42.000Z</time>
      </trkpt>
      <trkpt lat="44.47836" lon="6.20458">
        <ele>1235</ele>
        <time>2023-04-21T13:02:43.000Z</time>
      </trkpt>
      <trkpt lat="44.47838" lon="6.20459">
        <ele>1235</ele>
        <time>2023-04-21T13:02:44.000Z</time>
      </trkpt>
      <trkpt lat="44.4784" lon="6.20461">
        <ele>1235</ele>
        <time>2023-04-21T13:02:45.000Z</time>
      </trkpt>
      <trkpt lat="44.47843" lon="6.20462">
        <ele>1235</ele>
        <time>2023-04-21T13:02:46.000Z</time>
      </trkpt>
      <trkpt lat="44.47844" lon="6.20462">
        <ele>1236</ele>
        <time>2023-04-21T13:02:47.000Z</time>
      </trkpt>
      <trkpt lat="44.47846" lon="6.20463">
        <ele>1236</ele>
        <time>2023-04-21T13:02:48.000Z</time>
      </trkpt>
      <trkpt lat="44.47849" lon="6.20463">
        <ele>1237</ele>
        <time>2023-04-21T13:02:49.000Z</time>
      </trkpt>
      <trkpt lat="44.47851" lon="6.20464">
        <ele>1237</ele>
        <time>2023-04-21T13:02:50.000Z</time>
      </trkpt>
      <trkpt lat="44.47853" lon="6.20466">
        <ele>1237</ele>
        <time>2023-04-21T13:02:51.000Z</time>
      </trkpt>
      <trkpt lat="44.47856" lon="6.20467">
        <ele>1236</ele>
        <time>2023-04-21T13:02:52.000Z</time>
      </trkpt>
      <trkpt lat="44.47858" lon="6.20468">
        <ele>1236</ele>
        <time>2023-04-21T13:02:53.000Z</time>
      </trkpt>
      <trkpt lat="44.4786" lon="6.20469">
        <ele>1236</ele>
        <time>2023-04-21T13:02:54.000Z</time>
      </trkpt>
      <trkpt lat="44.47863" lon="6.2047">
        <ele>1236</ele>
        <time>2023-04-21T13:02:55.000Z</time>
      </trkpt>
      <trkpt lat="44.47865" lon="6.20471">
        <ele>1236</ele>
        <time>2023-04-21T13:02:56.000Z</time>
      </trkpt>
      <trkpt lat="44.47868" lon="6.20472">
        <ele>1236</ele>
        <time>2023-04-21T13:02:57.000Z</time>
      </trkpt>
      <trkpt lat="44.4787" lon="6.20473">
        <ele>1236</ele>
        <time>2023-04-21T13:02:58.000Z</time>
      </trkpt>
      <trkpt lat="44.47872" lon="6.20473">
        <ele>1236</ele>
        <time>2023-04-21T13:02:59.000Z</time>
      </trkpt>
      <trkpt lat="44.47875" lon="6.20475">
        <ele>1236</ele>
        <time>2023-04-21T13:03:00.000Z</time>
      </trkpt>
      <trkpt lat="44.47877" lon="6.20476">
        <ele>1236</ele>
        <time>2023-04-21T13:03:01.000Z</time>
      </trkpt>
      <trkpt lat="44.47879" lon="6.20477">
        <ele>1237</ele>
        <time>2023-04-21T13:03:02.000Z</time>
      </trkpt>
      <trkpt lat="44.47882" lon="6.20478">
        <ele>1236</ele>
        <time>2023-04-21T13:03:03.000Z</time>
      </trkpt>
      <trkpt lat="44.47884" lon="6.20478">
        <ele>1237</ele>
        <time>2023-04-21T13:03:04.000Z</time>
      </trkpt>
      <trkpt lat="44.47886" lon="6.20479">
        <ele>1237</ele>
        <time>2023-04-21T13:03:05.000Z</time>
      </trkpt>
      <trkpt lat="44.47888" lon="6.2048">
        <ele>1237</ele>
        <time>2023-04-21T13:03:06.000Z</time>
      </trkpt>
      <trkpt lat="44.47891" lon="6.20481">
        <ele>1237</ele>
        <time>2023-04-21T13:03:07.000Z</time>
      </trkpt>
      <trkpt lat="44.47893" lon="6.20482">
        <ele>1238</ele>
        <time>2023-04-21T13:03:08.000Z</time>
      </trkpt>
      <trkpt lat="44.47896" lon="6.20483">
        <ele>1238</ele>
        <time>2023-04-21T13:03:09.000Z</time>
      </trkpt>
      <trkpt lat="44.47898" lon="6.20483">
        <ele>1238</ele>
        <time>2023-04-21T13:03:10.000Z</time>
      </trkpt>
      <trkpt lat="44.479" lon="6.20484">
        <ele>1238</ele>
        <time>2023-04-21T13:03:11.000Z</time>
      </trkpt>
      <trkpt lat="44.47902" lon="6.20485">
        <ele>1237</ele>
        <time>2023-04-21T13:03:12.000Z</time>
      </trkpt>
      <trkpt lat="44.47905" lon="6.20486">
        <ele>1238</ele>
        <time>2023-04-21T13:03:13.000Z</time>
      </trkpt>
      <trkpt lat="44.47907" lon="6.20487">
        <ele>1238</ele>
        <time>2023-04-21T13:03:14.000Z</time>
      </trkpt>
      <trkpt lat="44.47908" lon="6.20487">
        <ele>1238</ele>
        <time>2023-04-21T13:03:15.000Z</time>
      </trkpt>
      <trkpt lat="44.4791" lon="6.20488">
        <ele>1239</ele>
        <time>2023-04-21T13:03:16.000Z</time>
      </trkpt>
      <trkpt lat="44.47912" lon="6.20488">
        <ele>1239</ele>
        <time>2023-04-21T13:03:17.000Z</time>
      </trkpt>
      <trkpt lat="44.47915" lon="6.20489">
        <ele>1239</ele>
        <time>2023-04-21T13:03:18.000Z</time>
      </trkpt>
      <trkpt lat="44.47917" lon="6.20489">
        <ele>1240</ele>
        <time>2023-04-21T13:03:19.000Z</time>
      </trkpt>
      <trkpt lat="44.47919" lon="6.20489">
        <ele>1240</ele>
        <time>2023-04-21T13:03:20.000Z</time>
      </trkpt>
      <trkpt lat="44.47922" lon="6.2049">
        <ele>1240</ele>
        <time>2023-04-21T13:03:21.000Z</time>
      </trkpt>
      <trkpt lat="44.47925" lon="6.2049">
        <ele>1240</ele>
        <time>2023-04-21T13:03:22.000Z</time>
      </trkpt>
      <trkpt lat="44.47927" lon="6.2049">
        <ele>1240</ele>
        <time>2023-04-21T13:03:23.000Z</time>
      </trkpt>
      <trkpt lat="44.47928" lon="6.20489">
        <ele>1240</ele>
        <time>2023-04-21T13:03:24.000Z</time>
      </trkpt>
      <trkpt lat="44.47931" lon="6.20489">
        <ele>1240</ele>
        <time>2023-04-21T13:03:25.000Z</time>
      </trkpt>
      <trkpt lat="44.47934" lon="6.20489">
        <ele>1239</ele>
        <time>2023-04-21T13:03:26.000Z</time>
      </trkpt>
      <trkpt lat="44.47936" lon="6.20489">
        <ele>1239</ele>
        <time>2023-04-21T13:03:27.000Z</time>
      </trkpt>
      <trkpt lat="44.47938" lon="6.20488">
        <ele>1239</ele>
        <time>2023-04-21T13:03:28.000Z</time>
      </trkpt>
      <trkpt lat="44.4794" lon="6.20488">
        <ele>1239</ele>
        <time>2023-04-21T13:03:29.000Z</time>
      </trkpt>
      <trkpt lat="44.47943" lon="6.20487">
        <ele>1239</ele>
        <time>2023-04-21T13:03:30.000Z</time>
      </trkpt>
      <trkpt lat="44.47945" lon="6.20487">
        <ele>1238</ele>
        <time>2023-04-21T13:03:31.000Z</time>
      </trkpt>
      <trkpt lat="44.47948" lon="6.20487">
        <ele>1238</ele>
        <time>2023-04-21T13:03:32.000Z</time>
      </trkpt>
      <trkpt lat="44.4795" lon="6.20487">
        <ele>1239</ele>
        <time>2023-04-21T13:03:33.000Z</time>
      </trkpt>
      <trkpt lat="44.47952" lon="6.20487">
        <ele>1240</ele>
        <time>2023-04-21T13:03:34.000Z</time>
      </trkpt>
      <trkpt lat="44.47954" lon="6.20486">
        <ele>1241</ele>
        <time>2023-04-21T13:03:35.000Z</time>
      </trkpt>
      <trkpt lat="44.47956" lon="6.20485">
        <ele>1242</ele>
        <time>2023-04-21T13:03:36.000Z</time>
      </trkpt>
      <trkpt lat="44.47959" lon="6.20485">
        <ele>1242</ele>
        <time>2023-04-21T13:03:37.000Z</time>
      </trkpt>
      <trkpt lat="44.47962" lon="6.20485">
        <ele>1243</ele>
        <time>2023-04-21T13:03:38.000Z</time>
      </trkpt>
      <trkpt lat="44.47965" lon="6.20485">
        <ele>1243</ele>
        <time>2023-04-21T13:03:39.000Z</time>
      </trkpt>
      <trkpt lat="44.47967" lon="6.20485">
        <ele>1243</ele>
        <time>2023-04-21T13:03:40.000Z</time>
      </trkpt>
      <trkpt lat="44.4797" lon="6.20485">
        <ele>1243</ele>
        <time>2023-04-21T13:03:41.000Z</time>
      </trkpt>
      <trkpt lat="44.47972" lon="6.20485">
        <ele>1244</ele>
        <time>2023-04-21T13:03:42.000Z</time>
      </trkpt>
      <trkpt lat="44.47975" lon="6.20485">
        <ele>1244</ele>
        <time>2023-04-21T13:03:43.000Z</time>
      </trkpt>
      <trkpt lat="44.47977" lon="6.20484">
        <ele>1245</ele>
        <time>2023-04-21T13:03:44.000Z</time>
      </trkpt>
      <trkpt lat="44.47979" lon="6.20484">
        <ele>1245</ele>
        <time>2023-04-21T13:03:45.000Z</time>
      </trkpt>
      <trkpt lat="44.47981" lon="6.20484">
        <ele>1245</ele>
        <time>2023-04-21T13:03:46.000Z</time>
      </trkpt>
      <trkpt lat="44.47983" lon="6.20484">
        <ele>1246</ele>
        <time>2023-04-21T13:03:47.000Z</time>
      </trkpt>
      <trkpt lat="44.47985" lon="6.20484">
        <ele>1246</ele>
        <time>2023-04-21T13:03:48.000Z</time>
      </trkpt>
      <trkpt lat="44.47988" lon="6.20484">
        <ele>1246</ele>
        <time>2023-04-21T13:03:49.000Z</time>
      </trkpt>
      <trkpt lat="44.47989" lon="6.20484">
        <ele>1247</ele>
        <time>2023-04-21T13:03:50.000Z</time>
      </trkpt>
      <trkpt lat="44.47991" lon="6.20484">
        <ele>1248</ele>
        <time>2023-04-21T13:03:51.000Z</time>
      </trkpt>
      <trkpt lat="44.47993" lon="6.20484">
        <ele>1248</ele>
        <time>2023-04-21T13:03:52.000Z</time>
      </trkpt>
      <trkpt lat="44.47995" lon="6.20484">
        <ele>1248</ele>
        <time>2023-04-21T13:03:53.000Z</time>
      </trkpt>
      <trkpt lat="44.47998" lon="6.20483">
        <ele>1248</ele>
        <time>2023-04-21T13:03:54.000Z</time>
      </trkpt>
      <trkpt lat="44.48" lon="6.20484">
        <ele>1248</ele>
        <time>2023-04-21T13:03:55.000Z</time>
      </trkpt>
      <trkpt lat="44.48002" lon="6.20484">
        <ele>1248</ele>
        <time>2023-04-21T13:03:56.000Z</time>
      </trkpt>
      <trkpt lat="44.48004" lon="6.20485">
        <ele>1249</ele>
        <time>2023-04-21T13:03:57.000Z</time>
      </trkpt>
      <trkpt lat="44.48006" lon="6.20484">
        <ele>1249</ele>
        <time>2023-04-21T13:03:58.000Z</time>
      </trkpt>
      <trkpt lat="44.48009" lon="6.20485">
        <ele>1249</ele>
        <time>2023-04-21T13:03:59.000Z</time>
      </trkpt>
      <trkpt lat="44.48012" lon="6.20485">
        <ele>1249</ele>
        <time>2023-04-21T13:04:00.000Z</time>
      </trkpt>
      <trkpt lat="44.48015" lon="6.20486">
        <ele>1248</ele>
        <time>2023-04-21T13:04:01.000Z</time>
      </trkpt>
      <trkpt lat="44.48017" lon="6.20487">
        <ele>1248</ele>
        <time>2023-04-21T13:04:02.000Z</time>
      </trkpt>
      <trkpt lat="44.4802" lon="6.20488">
        <ele>1247</ele>
        <time>2023-04-21T13:04:03.000Z</time>
      </trkpt>
      <trkpt lat="44.48022" lon="6.20488">
        <ele>1247</ele>
        <time>2023-04-21T13:04:04.000Z</time>
      </trkpt>
      <trkpt lat="44.48024" lon="6.20489">
        <ele>1247</ele>
        <time>2023-04-21T13:04:05.000Z</time>
      </trkpt>
      <trkpt lat="44.48027" lon="6.20489">
        <ele>1247</ele>
        <time>2023-04-21T13:04:06.000Z</time>
      </trkpt>
      <trkpt lat="44.4803" lon="6.2049">
        <ele>1247</ele>
        <time>2023-04-21T13:04:07.000Z</time>
      </trkpt>
      <trkpt lat="44.48033" lon="6.2049">
        <ele>1247</ele>
        <time>2023-04-21T13:04:08.000Z</time>
      </trkpt>
      <trkpt lat="44.48036" lon="6.20491">
        <ele>1247</ele>
        <time>2023-04-21T13:04:09.000Z</time>
      </trkpt>
      <trkpt lat="44.48039" lon="6.20492">
        <ele>1247</ele>
        <time>2023-04-21T13:04:10.000Z</time>
      </trkpt>
      <trkpt lat="44.48042" lon="6.20492">
        <ele>1247</ele>
        <time>2023-04-21T13:04:11.000Z</time>
      </trkpt>
      <trkpt lat="44.48045" lon="6.20493">
        <ele>1247</ele>
        <time>2023-04-21T13:04:12.000Z</time>
      </trkpt>
      <trkpt lat="44.48048" lon="6.20494">
        <ele>1246</ele>
        <time>2023-04-21T13:04:13.000Z</time>
      </trkpt>
      <trkpt lat="44.48052" lon="6.20495">
        <ele>1246</ele>
        <time>2023-04-21T13:04:14.000Z</time>
      </trkpt>
      <trkpt lat="44.48054" lon="6.20496">
        <ele>1246</ele>
        <time>2023-04-21T13:04:15.000Z</time>
      </trkpt>
      <trkpt lat="44.48057" lon="6.20497">
        <ele>1247</ele>
        <time>2023-04-21T13:04:16.000Z</time>
      </trkpt>
      <trkpt lat="44.48059" lon="6.20497">
        <ele>1246</ele>
        <time>2023-04-21T13:04:17.000Z</time>
      </trkpt>
      <trkpt lat="44.48061" lon="6.20497">
        <ele>1247</ele>
        <time>2023-04-21T13:04:18.000Z</time>
      </trkpt>
      <trkpt lat="44.48064" lon="6.20498">
        <ele>1247</ele>
        <time>2023-04-21T13:04:19.000Z</time>
      </trkpt>
      <trkpt lat="44.48067" lon="6.20498">
        <ele>1247</ele>
        <time>2023-04-21T13:04:20.000Z</time>
      </trkpt>
      <trkpt lat="44.48069" lon="6.20499">
        <ele>1248</ele>
        <time>2023-04-21T13:04:21.000Z</time>
      </trkpt>
      <trkpt lat="44.48072" lon="6.20499">
        <ele>1248</ele>
        <time>2023-04-21T13:04:22.000Z</time>
      </trkpt>
      <trkpt lat="44.48075" lon="6.205">
        <ele>1249</ele>
        <time>2023-04-21T13:04:23.000Z</time>
      </trkpt>
      <trkpt lat="44.48078" lon="6.20501">
        <ele>1249</ele>
        <time>2023-04-21T13:04:24.000Z</time>
      </trkpt>
      <trkpt lat="44.4808" lon="6.20501">
        <ele>1250</ele>
        <time>2023-04-21T13:04:25.000Z</time>
      </trkpt>
      <trkpt lat="44.48083" lon="6.20502">
        <ele>1250</ele>
        <time>2023-04-21T13:04:26.000Z</time>
      </trkpt>
      <trkpt lat="44.48085" lon="6.20503">
        <ele>1250</ele>
        <time>2023-04-21T13:04:27.000Z</time>
      </trkpt>
      <trkpt lat="44.48087" lon="6.20503">
        <ele>1250</ele>
        <time>2023-04-21T13:04:28.000Z</time>
      </trkpt>
      <trkpt lat="44.4809" lon="6.20503">
        <ele>1250</ele>
        <time>2023-04-21T13:04:29.000Z</time>
      </trkpt>
      <trkpt lat="44.48093" lon="6.20503">
        <ele>1250</ele>
        <time>2023-04-21T13:04:30.000Z</time>
      </trkpt>
      <trkpt lat="44.48095" lon="6.20503">
        <ele>1251</ele>
        <time>2023-04-21T13:04:31.000Z</time>
      </trkpt>
      <trkpt lat="44.48097" lon="6.20503">
        <ele>1251</ele>
        <time>2023-04-21T13:04:32.000Z</time>
      </trkpt>
      <trkpt lat="44.48099" lon="6.20503">
        <ele>1251</ele>
        <time>2023-04-21T13:04:33.000Z</time>
      </trkpt>
      <trkpt lat="44.48102" lon="6.20504">
        <ele>1252</ele>
        <time>2023-04-21T13:04:34.000Z</time>
      </trkpt>
      <trkpt lat="44.48104" lon="6.20504">
        <ele>1252</ele>
        <time>2023-04-21T13:04:35.000Z</time>
      </trkpt>
      <trkpt lat="44.48106" lon="6.20504">
        <ele>1253</ele>
        <time>2023-04-21T13:04:36.000Z</time>
      </trkpt>
      <trkpt lat="44.48109" lon="6.20504">
        <ele>1253</ele>
        <time>2023-04-21T13:04:37.000Z</time>
      </trkpt>
      <trkpt lat="44.48112" lon="6.20504">
        <ele>1253</ele>
        <time>2023-04-21T13:04:38.000Z</time>
      </trkpt>
      <trkpt lat="44.48114" lon="6.20504">
        <ele>1253</ele>
        <time>2023-04-21T13:04:39.000Z</time>
      </trkpt>
      <trkpt lat="44.48117" lon="6.20504">
        <ele>1253</ele>
        <time>2023-04-21T13:04:40.000Z</time>
      </trkpt>
      <trkpt lat="44.48119" lon="6.20504">
        <ele>1253</ele>
        <time>2023-04-21T13:04:41.000Z</time>
      </trkpt>
      <trkpt lat="44.48121" lon="6.20504">
        <ele>1253</ele>
        <time>2023-04-21T13:04:42.000Z</time>
      </trkpt>
      <trkpt lat="44.48124" lon="6.20505">
        <ele>1254</ele>
        <time>2023-04-21T13:04:43.000Z</time>
      </trkpt>
      <trkpt lat="44.48126" lon="6.20505">
        <ele>1255</ele>
        <time>2023-04-21T13:04:44.000Z</time>
      </trkpt>
      <trkpt lat="44.48129" lon="6.20506">
        <ele>1255</ele>
        <time>2023-04-21T13:04:45.000Z</time>
      </trkpt>
      <trkpt lat="44.48132" lon="6.20506">
        <ele>1255</ele>
        <time>2023-04-21T13:04:46.000Z</time>
      </trkpt>
      <trkpt lat="44.48135" lon="6.20506">
        <ele>1256</ele>
        <time>2023-04-21T13:04:47.000Z</time>
      </trkpt>
      <trkpt lat="44.48138" lon="6.20507">
        <ele>1255</ele>
        <time>2023-04-21T13:04:48.000Z</time>
      </trkpt>
      <trkpt lat="44.4814" lon="6.20507">
        <ele>1256</ele>
        <time>2023-04-21T13:04:49.000Z</time>
      </trkpt>
      <trkpt lat="44.48143" lon="6.20508">
        <ele>1256</ele>
        <time>2023-04-21T13:04:50.000Z</time>
      </trkpt>
      <trkpt lat="44.48146" lon="6.2051">
        <ele>1256</ele>
        <time>2023-04-21T13:04:51.000Z</time>
      </trkpt>
      <trkpt lat="44.48149" lon="6.20511">
        <ele>1256</ele>
        <time>2023-04-21T13:04:52.000Z</time>
      </trkpt>
      <trkpt lat="44.48152" lon="6.20511">
        <ele>1256</ele>
        <time>2023-04-21T13:04:53.000Z</time>
      </trkpt>
      <trkpt lat="44.48155" lon="6.20512">
        <ele>1257</ele>
        <time>2023-04-21T13:04:54.000Z</time>
      </trkpt>
      <trkpt lat="44.48157" lon="6.20513">
        <ele>1257</ele>
        <time>2023-04-21T13:04:55.000Z</time>
      </trkpt>
      <trkpt lat="44.4816" lon="6.20514">
        <ele>1258</ele>
        <time>2023-04-21T13:04:56.000Z</time>
      </trkpt>
      <trkpt lat="44.48162" lon="6.20515">
        <ele>1258</ele>
        <time>2023-04-21T13:04:57.000Z</time>
      </trkpt>
      <trkpt lat="44.48165" lon="6.20516">
        <ele>1258</ele>
        <time>2023-04-21T13:04:58.000Z</time>
      </trkpt>
      <trkpt lat="44.48167" lon="6.20517">
        <ele>1259</ele>
        <time>2023-04-21T13:04:59.000Z</time>
      </trkpt>
      <trkpt lat="44.4817" lon="6.20517">
        <ele>1260</ele>
        <time>2023-04-21T13:05:00.000Z</time>
      </trkpt>
      <trkpt lat="44.48172" lon="6.20518">
        <ele>1260</ele>
        <time>2023-04-21T13:05:01.000Z</time>
      </trkpt>
      <trkpt lat="44.48174" lon="6.20518">
        <ele>1260</ele>
        <time>2023-04-21T13:05:02.000Z</time>
      </trkpt>
      <trkpt lat="44.48177" lon="6.20519">
        <ele>1261</ele>
        <time>2023-04-21T13:05:03.000Z</time>
      </trkpt>
      <trkpt lat="44.48179" lon="6.2052">
        <ele>1262</ele>
        <time>2023-04-21T13:05:04.000Z</time>
      </trkpt>
      <trkpt lat="44.48182" lon="6.20521">
        <ele>1262</ele>
        <time>2023-04-21T13:05:05.000Z</time>
      </trkpt>
      <trkpt lat="44.48184" lon="6.20522">
        <ele>1263</ele>
        <time>2023-04-21T13:05:06.000Z</time>
      </trkpt>
      <trkpt lat="44.48186" lon="6.20523">
        <ele>1263</ele>
        <time>2023-04-21T13:05:07.000Z</time>
      </trkpt>
      <trkpt lat="44.48188" lon="6.20523">
        <ele>1264</ele>
        <time>2023-04-21T13:05:08.000Z</time>
      </trkpt>
      <trkpt lat="44.4819" lon="6.20522">
        <ele>1265</ele>
        <time>2023-04-21T13:05:09.000Z</time>
      </trkpt>
      <trkpt lat="44.48192" lon="6.20522">
        <ele>1266</ele>
        <time>2023-04-21T13:05:10.000Z</time>
      </trkpt>
      <trkpt lat="44.48194" lon="6.20523">
        <ele>1266</ele>
        <time>2023-04-21T13:05:11.000Z</time>
      </trkpt>
      <trkpt lat="44.48195" lon="6.20524">
        <ele>1267</ele>
        <time>2023-04-21T13:05:12.000Z</time>
      </trkpt>
      <trkpt lat="44.48197" lon="6.20524">
        <ele>1267</ele>
        <time>2023-04-21T13:05:13.000Z</time>
      </trkpt>
      <trkpt lat="44.48199" lon="6.20525">
        <ele>1268</ele>
        <time>2023-04-21T13:05:14.000Z</time>
      </trkpt>
      <trkpt lat="44.48201" lon="6.20525">
        <ele>1269</ele>
        <time>2023-04-21T13:05:15.000Z</time>
      </trkpt>
      <trkpt lat="44.48202" lon="6.20525">
        <ele>1270</ele>
        <time>2023-04-21T13:05:16.000Z</time>
      </trkpt>
      <trkpt lat="44.48204" lon="6.20525">
        <ele>1270</ele>
        <time>2023-04-21T13:05:17.000Z</time>
      </trkpt>
      <trkpt lat="44.48206" lon="6.20526">
        <ele>1271</ele>
        <time>2023-04-21T13:05:18.000Z</time>
      </trkpt>
      <trkpt lat="44.48208" lon="6.20527">
        <ele>1271</ele>
        <time>2023-04-21T13:05:19.000Z</time>
      </trkpt>
      <trkpt lat="44.4821" lon="6.20528">
        <ele>1271</ele>
        <time>2023-04-21T13:05:20.000Z</time>
      </trkpt>
      <trkpt lat="44.48211" lon="6.20529">
        <ele>1271</ele>
        <time>2023-04-21T13:05:21.000Z</time>
      </trkpt>
      <trkpt lat="44.48214" lon="6.20533">
        <ele>1272</ele>
        <time>2023-04-21T13:05:22.000Z</time>
      </trkpt>
      <trkpt lat="44.48218" lon="6.20536">
        <ele>1272</ele>
        <time>2023-04-21T13:05:23.000Z</time>
      </trkpt>
      <trkpt lat="44.48221" lon="6.20539">
        <ele>1271</ele>
        <time>2023-04-21T13:05:24.000Z</time>
      </trkpt>
      <trkpt lat="44.48223" lon="6.20541">
        <ele>1271</ele>
        <time>2023-04-21T13:05:25.000Z</time>
      </trkpt>
      <trkpt lat="44.48226" lon="6.20544">
        <ele>1271</ele>
        <time>2023-04-21T13:05:26.000Z</time>
      </trkpt>
      <trkpt lat="44.48228" lon="6.20545">
        <ele>1271</ele>
        <time>2023-04-21T13:05:27.000Z</time>
      </trkpt>
      <trkpt lat="44.4823" lon="6.20547">
        <ele>1272</ele>
        <time>2023-04-21T13:05:28.000Z</time>
      </trkpt>
      <trkpt lat="44.48232" lon="6.20549">
        <ele>1272</ele>
        <time>2023-04-21T13:05:29.000Z</time>
      </trkpt>
      <trkpt lat="44.48234" lon="6.2055">
        <ele>1273</ele>
        <time>2023-04-21T13:05:30.000Z</time>
      </trkpt>
      <trkpt lat="44.48236" lon="6.20551">
        <ele>1273</ele>
        <time>2023-04-21T13:05:31.000Z</time>
      </trkpt>
      <trkpt lat="44.48237" lon="6.20551">
        <ele>1274</ele>
        <time>2023-04-21T13:05:32.000Z</time>
      </trkpt>
      <trkpt lat="44.48239" lon="6.20551">
        <ele>1274</ele>
        <time>2023-04-21T13:05:33.000Z</time>
      </trkpt>
      <trkpt lat="44.48241" lon="6.20553">
        <ele>1274</ele>
        <time>2023-04-21T13:05:34.000Z</time>
      </trkpt>
      <trkpt lat="44.48244" lon="6.20553">
        <ele>1274</ele>
        <time>2023-04-21T13:05:35.000Z</time>
      </trkpt>
      <trkpt lat="44.48246" lon="6.20554">
        <ele>1274</ele>
        <time>2023-04-21T13:05:36.000Z</time>
      </trkpt>
      <trkpt lat="44.48248" lon="6.20555">
        <ele>1274</ele>
        <time>2023-04-21T13:05:37.000Z</time>
      </trkpt>
      <trkpt lat="44.4825" lon="6.20555">
        <ele>1275</ele>
        <time>2023-04-21T13:05:38.000Z</time>
      </trkpt>
      <trkpt lat="44.48253" lon="6.20556">
        <ele>1275</ele>
        <time>2023-04-21T13:05:39.000Z</time>
      </trkpt>
      <trkpt lat="44.48255" lon="6.20557">
        <ele>1276</ele>
        <time>2023-04-21T13:05:40.000Z</time>
      </trkpt>
      <trkpt lat="44.48257" lon="6.20557">
        <ele>1276</ele>
        <time>2023-04-21T13:05:41.000Z</time>
      </trkpt>
      <trkpt lat="44.48259" lon="6.20557">
        <ele>1277</ele>
        <time>2023-04-21T13:05:42.000Z</time>
      </trkpt>
      <trkpt lat="44.48261" lon="6.20558">
        <ele>1278</ele>
        <time>2023-04-21T13:05:43.000Z</time>
      </trkpt>
      <trkpt lat="44.48263" lon="6.20559">
        <ele>1278</ele>
        <time>2023-04-21T13:05:44.000Z</time>
      </trkpt>
      <trkpt lat="44.48266" lon="6.20559">
        <ele>1278</ele>
        <time>2023-04-21T13:05:45.000Z</time>
      </trkpt>
      <trkpt lat="44.48268" lon="6.2056">
        <ele>1278</ele>
        <time>2023-04-21T13:05:46.000Z</time>
      </trkpt>
      <trkpt lat="44.48272" lon="6.20561">
        <ele>1277</ele>
        <time>2023-04-21T13:05:47.000Z</time>
      </trkpt>
      <trkpt lat="44.48274" lon="6.20562">
        <ele>1278</ele>
        <time>2023-04-21T13:05:48.000Z</time>
      </trkpt>
      <trkpt lat="44.48276" lon="6.20562">
        <ele>1278</ele>
        <time>2023-04-21T13:05:49.000Z</time>
      </trkpt>
      <trkpt lat="44.48279" lon="6.20563">
        <ele>1278</ele>
        <time>2023-04-21T13:05:50.000Z</time>
      </trkpt>
      <trkpt lat="44.48281" lon="6.20563">
        <ele>1278</ele>
        <time>2023-04-21T13:05:51.000Z</time>
      </trkpt>
      <trkpt lat="44.48283" lon="6.20564">
        <ele>1278</ele>
        <time>2023-04-21T13:05:52.000Z</time>
      </trkpt>
      <trkpt lat="44.48286" lon="6.20564">
        <ele>1278</ele>
        <time>2023-04-21T13:05:53.000Z</time>
      </trkpt>
      <trkpt lat="44.48289" lon="6.20565">
        <ele>1278</ele>
        <time>2023-04-21T13:05:54.000Z</time>
      </trkpt>
      <trkpt lat="44.48291" lon="6.20565">
        <ele>1278</ele>
        <time>2023-04-21T13:05:55.000Z</time>
      </trkpt>
      <trkpt lat="44.48293" lon="6.20565">
        <ele>1278</ele>
        <time>2023-04-21T13:05:56.000Z</time>
      </trkpt>
      <trkpt lat="44.48295" lon="6.20564">
        <ele>1279</ele>
        <time>2023-04-21T13:05:57.000Z</time>
      </trkpt>
      <trkpt lat="44.48298" lon="6.20565">
        <ele>1279</ele>
        <time>2023-04-21T13:05:58.000Z</time>
      </trkpt>
      <trkpt lat="44.483" lon="6.20566">
        <ele>1280</ele>
        <time>2023-04-21T13:05:59.000Z</time>
      </trkpt>
      <trkpt lat="44.48303" lon="6.20566">
        <ele>1280</ele>
        <time>2023-04-21T13:06:00.000Z</time>
      </trkpt>
      <trkpt lat="44.48306" lon="6.20567">
        <ele>1279</ele>
        <time>2023-04-21T13:06:01.000Z</time>
      </trkpt>
      <trkpt lat="44.48308" lon="6.20568">
        <ele>1279</ele>
        <time>2023-04-21T13:06:02.000Z</time>
      </trkpt>
      <trkpt lat="44.48312" lon="6.20571">
        <ele>1278</ele>
        <time>2023-04-21T13:06:03.000Z</time>
      </trkpt>
      <trkpt lat="44.48315" lon="6.20572">
        <ele>1277</ele>
        <time>2023-04-21T13:06:04.000Z</time>
      </trkpt>
      <trkpt lat="44.48319" lon="6.20573">
        <ele>1276</ele>
        <time>2023-04-21T13:06:05.000Z</time>
      </trkpt>
      <trkpt lat="44.48322" lon="6.20574">
        <ele>1276</ele>
        <time>2023-04-21T13:06:06.000Z</time>
      </trkpt>
      <trkpt lat="44.48326" lon="6.20575">
        <ele>1276</ele>
        <time>2023-04-21T13:06:07.000Z</time>
      </trkpt>
      <trkpt lat="44.48329" lon="6.20575">
        <ele>1276</ele>
        <time>2023-04-21T13:06:08.000Z</time>
      </trkpt>
      <trkpt lat="44.48331" lon="6.20575">
        <ele>1276</ele>
        <time>2023-04-21T13:06:09.000Z</time>
      </trkpt>
      <trkpt lat="44.48335" lon="6.20574">
        <ele>1276</ele>
        <time>2023-04-21T13:06:10.000Z</time>
      </trkpt>
      <trkpt lat="44.48338" lon="6.20575">
        <ele>1276</ele>
        <time>2023-04-21T13:06:11.000Z</time>
      </trkpt>
      <trkpt lat="44.48341" lon="6.20574">
        <ele>1276</ele>
        <time>2023-04-21T13:06:12.000Z</time>
      </trkpt>
      <trkpt lat="44.48344" lon="6.20575">
        <ele>1276</ele>
        <time>2023-04-21T13:06:13.000Z</time>
      </trkpt>
      <trkpt lat="44.48347" lon="6.20575">
        <ele>1276</ele>
        <time>2023-04-21T13:06:14.000Z</time>
      </trkpt>
      <trkpt lat="44.4835" lon="6.20576">
        <ele>1276</ele>
        <time>2023-04-21T13:06:15.000Z</time>
      </trkpt>
      <trkpt lat="44.48353" lon="6.20576">
        <ele>1276</ele>
        <time>2023-04-21T13:06:16.000Z</time>
      </trkpt>
      <trkpt lat="44.48356" lon="6.20577">
        <ele>1276</ele>
        <time>2023-04-21T13:06:17.000Z</time>
      </trkpt>
      <trkpt lat="44.48359" lon="6.20576">
        <ele>1276</ele>
        <time>2023-04-21T13:06:18.000Z</time>
      </trkpt>
      <trkpt lat="44.48362" lon="6.20576">
        <ele>1276</ele>
        <time>2023-04-21T13:06:19.000Z</time>
      </trkpt>
      <trkpt lat="44.48365" lon="6.20576">
        <ele>1276</ele>
        <time>2023-04-21T13:06:20.000Z</time>
      </trkpt>
      <trkpt lat="44.48369" lon="6.20576">
        <ele>1276</ele>
        <time>2023-04-21T13:06:21.000Z</time>
      </trkpt>
      <trkpt lat="44.48372" lon="6.20576">
        <ele>1276</ele>
        <time>2023-04-21T13:06:22.000Z</time>
      </trkpt>
      <trkpt lat="44.48376" lon="6.20576">
        <ele>1275</ele>
        <time>2023-04-21T13:06:23.000Z</time>
      </trkpt>
      <trkpt lat="44.4838" lon="6.20576">
        <ele>1275</ele>
        <time>2023-04-21T13:06:24.000Z</time>
      </trkpt>
      <trkpt lat="44.48384" lon="6.20576">
        <ele>1275</ele>
        <time>2023-04-21T13:06:25.000Z</time>
      </trkpt>
      <trkpt lat="44.48387" lon="6.20577">
        <ele>1275</ele>
        <time>2023-04-21T13:06:26.000Z</time>
      </trkpt>
      <trkpt lat="44.48391" lon="6.20578">
        <ele>1275</ele>
        <time>2023-04-21T13:06:27.000Z</time>
      </trkpt>
      <trkpt lat="44.48394" lon="6.20578">
        <ele>1274</ele>
        <time>2023-04-21T13:06:28.000Z</time>
      </trkpt>
      <trkpt lat="44.48398" lon="6.20579">
        <ele>1274</ele>
        <time>2023-04-21T13:06:29.000Z</time>
      </trkpt>
      <trkpt lat="44.48401" lon="6.20579">
        <ele>1274</ele>
        <time>2023-04-21T13:06:30.000Z</time>
      </trkpt>
      <trkpt lat="44.48403" lon="6.2058">
        <ele>1274</ele>
        <time>2023-04-21T13:06:31.000Z</time>
      </trkpt>
      <trkpt lat="44.48406" lon="6.2058">
        <ele>1273</ele>
        <time>2023-04-21T13:06:32.000Z</time>
      </trkpt>
      <trkpt lat="44.48409" lon="6.20581">
        <ele>1273</ele>
        <time>2023-04-21T13:06:33.000Z</time>
      </trkpt>
      <trkpt lat="44.48412" lon="6.20581">
        <ele>1273</ele>
        <time>2023-04-21T13:06:34.000Z</time>
      </trkpt>
      <trkpt lat="44.48415" lon="6.20582">
        <ele>1273</ele>
        <time>2023-04-21T13:06:35.000Z</time>
      </trkpt>
      <trkpt lat="44.48418" lon="6.20582">
        <ele>1273</ele>
        <time>2023-04-21T13:06:36.000Z</time>
      </trkpt>
      <trkpt lat="44.4842" lon="6.20583">
        <ele>1274</ele>
        <time>2023-04-21T13:06:37.000Z</time>
      </trkpt>
      <trkpt lat="44.48422" lon="6.20584">
        <ele>1274</ele>
        <time>2023-04-21T13:06:38.000Z</time>
      </trkpt>
      <trkpt lat="44.48425" lon="6.20584">
        <ele>1274</ele>
        <time>2023-04-21T13:06:39.000Z</time>
      </trkpt>
      <trkpt lat="44.48427" lon="6.20584">
        <ele>1275</ele>
        <time>2023-04-21T13:06:40.000Z</time>
      </trkpt>
      <trkpt lat="44.4843" lon="6.20585">
        <ele>1275</ele>
        <time>2023-04-21T13:06:41.000Z</time>
      </trkpt>
      <trkpt lat="44.48433" lon="6.20586">
        <ele>1275</ele>
        <time>2023-04-21T13:06:42.000Z</time>
      </trkpt>
      <trkpt lat="44.48435" lon="6.20587">
        <ele>1276</ele>
        <time>2023-04-21T13:06:43.000Z</time>
      </trkpt>
      <trkpt lat="44.48439" lon="6.2059">
        <ele>1276</ele>
        <time>2023-04-21T13:06:44.000Z</time>
      </trkpt>
      <trkpt lat="44.48443" lon="6.20591">
        <ele>1277</ele>
        <time>2023-04-21T13:06:45.000Z</time>
      </trkpt>
      <trkpt lat="44.48446" lon="6.20593">
        <ele>1277</ele>
        <time>2023-04-21T13:06:46.000Z</time>
      </trkpt>
      <trkpt lat="44.48449" lon="6.20594">
        <ele>1278</ele>
        <time>2023-04-21T13:06:47.000Z</time>
      </trkpt>
      <trkpt lat="44.48452" lon="6.20595">
        <ele>1278</ele>
        <time>2023-04-21T13:06:48.000Z</time>
      </trkpt>
      <trkpt lat="44.48454" lon="6.20597">
        <ele>1279</ele>
        <time>2023-04-21T13:06:49.000Z</time>
      </trkpt>
      <trkpt lat="44.48457" lon="6.20598">
        <ele>1280</ele>
        <time>2023-04-21T13:06:50.000Z</time>
      </trkpt>
      <trkpt lat="44.4846" lon="6.20599">
        <ele>1280</ele>
        <time>2023-04-21T13:06:51.000Z</time>
      </trkpt>
      <trkpt lat="44.48463" lon="6.20601">
        <ele>1281</ele>
        <time>2023-04-21T13:06:52.000Z</time>
      </trkpt>
      <trkpt lat="44.48465" lon="6.20603">
        <ele>1281</ele>
        <time>2023-04-21T13:06:53.000Z</time>
      </trkpt>
      <trkpt lat="44.48468" lon="6.20605">
        <ele>1281</ele>
        <time>2023-04-21T13:06:54.000Z</time>
      </trkpt>
      <trkpt lat="44.48472" lon="6.20606">
        <ele>1282</ele>
        <time>2023-04-21T13:06:55.000Z</time>
      </trkpt>
      <trkpt lat="44.48475" lon="6.20607">
        <ele>1283</ele>
        <time>2023-04-21T13:06:56.000Z</time>
      </trkpt>
      <trkpt lat="44.48478" lon="6.20609">
        <ele>1283</ele>
        <time>2023-04-21T13:06:57.000Z</time>
      </trkpt>
      <trkpt lat="44.48481" lon="6.20611">
        <ele>1283</ele>
        <time>2023-04-21T13:06:58.000Z</time>
      </trkpt>
      <trkpt lat="44.48485" lon="6.20612">
        <ele>1283</ele>
        <time>2023-04-21T13:06:59.000Z</time>
      </trkpt>
      <trkpt lat="44.48487" lon="6.20613">
        <ele>1284</ele>
        <time>2023-04-21T13:07:00.000Z</time>
      </trkpt>
      <trkpt lat="44.4849" lon="6.20614">
        <ele>1284</ele>
        <time>2023-04-21T13:07:01.000Z</time>
      </trkpt>
      <trkpt lat="44.48493" lon="6.20615">
        <ele>1285</ele>
        <time>2023-04-21T13:07:02.000Z</time>
      </trkpt>
      <trkpt lat="44.48496" lon="6.20616">
        <ele>1286</ele>
        <time>2023-04-21T13:07:03.000Z</time>
      </trkpt>
      <trkpt lat="44.48498" lon="6.20617">
        <ele>1286</ele>
        <time>2023-04-21T13:07:04.000Z</time>
      </trkpt>
      <trkpt lat="44.48501" lon="6.20617">
        <ele>1287</ele>
        <time>2023-04-21T13:07:05.000Z</time>
      </trkpt>
      <trkpt lat="44.48503" lon="6.20617">
        <ele>1287</ele>
        <time>2023-04-21T13:07:06.000Z</time>
      </trkpt>
      <trkpt lat="44.48505" lon="6.20617">
        <ele>1288</ele>
        <time>2023-04-21T13:07:07.000Z</time>
      </trkpt>
      <trkpt lat="44.48506" lon="6.20617">
        <ele>1288</ele>
        <time>2023-04-21T13:07:08.000Z</time>
      </trkpt>
      <trkpt lat="44.48506" lon="6.20617">
        <ele>1288</ele>
        <time>2023-04-21T13:07:09.000Z</time>
      </trkpt>
      <trkpt lat="44.48506" lon="6.20617">
        <ele>1288</ele>
        <time>2023-04-21T13:07:10.000Z</time>
      </trkpt>
      <trkpt lat="44.48506" lon="6.20617">
        <ele>1288</ele>
        <time>2023-04-21T13:07:11.000Z</time>
      </trkpt>
      <trkpt lat="44.48506" lon="6.20617">
        <ele>1288</ele>
        <time>2023-04-21T13:07:12.000Z</time>
      </trkpt>
      <trkpt lat="44.48506" lon="6.20617">
        <ele>1288</ele>
        <time>2023-04-21T13:07:13.000Z</time>
      </trkpt>
      <trkpt lat="44.48506" lon="6.20617">
        <ele>1288</ele>
        <time>2023-04-21T13:07:14.000Z</time>
      </trkpt>
      <trkpt lat="44.48506" lon="6.20618">
        <ele>1288</ele>
        <time>2023-04-21T13:07:15.000Z</time>
      </trkpt>
      <trkpt lat="44.48507" lon="6.20618">
        <ele>1288</ele>
        <time>2023-04-21T13:07:16.000Z</time>
      </trkpt>
      <trkpt lat="44.48507" lon="6.20618">
        <ele>1288</ele>
        <time>2023-04-21T13:07:17.000Z</time>
      </trkpt>
      <trkpt lat="44.48507" lon="6.20618">
        <ele>1288</ele>
        <time>2023-04-21T13:07:18.000Z</time>
      </trkpt>
      <trkpt lat="44.48507" lon="6.20618">
        <ele>1288</ele>
        <time>2023-04-21T13:07:19.000Z</time>
      </trkpt>
      <trkpt lat="44.48507" lon="6.20618">
        <ele>1288</ele>
        <time>2023-04-21T13:07:20.000Z</time>
      </trkpt>
      <trkpt lat="44.48507" lon="6.20618">
        <ele>1288</ele>
        <time>2023-04-21T13:07:21.000Z</time>
      </trkpt>
      <trkpt lat="44.48507" lon="6.20618">
        <ele>1288</ele>
        <time>2023-04-21T13:07:22.000Z</time>
      </trkpt>
      <trkpt lat="44.48507" lon="6.20618">
        <ele>1288</ele>
        <time>2023-04-21T13:07:23.000Z</time>
      </trkpt>
      <trkpt lat="44.48507" lon="6.20618">
        <ele>1288</ele>
        <time>2023-04-21T13:07:24.000Z</time>
      </trkpt>
      <trkpt lat="44.48507" lon="6.20618">
        <ele>1289</ele>
        <time>2023-04-21T13:07:25.000Z</time>
      </trkpt>
      <trkpt lat="44.48507" lon="6.20618">
        <ele>1289</ele>
        <time>2023-04-21T13:07:26.000Z</time>
      </trkpt>
      <trkpt lat="44.48507" lon="6.20618">
        <ele>1289</ele>
        <time>2023-04-21T13:07:27.000Z</time>
      </trkpt>
      <trkpt lat="44.48507" lon="6.20618">
        <ele>1289</ele>
        <time>2023-04-21T13:07:28.000Z</time>
      </trkpt>
      <trkpt lat="44.48507" lon="6.20618">
        <ele>1290</ele>
        <time>2023-04-21T13:07:29.000Z</time>
      </trkpt>
      <trkpt lat="44.48507" lon="6.20618">
        <ele>1290</ele>
        <time>2023-04-21T13:07:30.000Z</time>
      </trkpt>
      <trkpt lat="44.48507" lon="6.20618">
        <ele>1290</ele>
        <time>2023-04-21T13:07:31.000Z</time>
      </trkpt>
      <trkpt lat="44.48507" lon="6.20618">
        <ele>1290</ele>
        <time>2023-04-21T13:07:32.000Z</time>
      </trkpt>
      <trkpt lat="44.48508" lon="6.20618">
        <ele>1291</ele>
        <time>2023-04-21T13:07:33.000Z</time>
      </trkpt>
      <trkpt lat="44.48508" lon="6.20618">
        <ele>1291</ele>
        <time>2023-04-21T13:07:34.000Z</time>
      </trkpt>
      <trkpt lat="44.48508" lon="6.20618">
        <ele>1291</ele>
        <time>2023-04-21T13:07:35.000Z</time>
      </trkpt>
      <trkpt lat="44.48508" lon="6.20618">
        <ele>1291</ele>
        <time>2023-04-21T13:07:36.000Z</time>
      </trkpt>
      <trkpt lat="44.48508" lon="6.20618">
        <ele>1291</ele>
        <time>2023-04-21T13:07:37.000Z</time>
      </trkpt>
      <trkpt lat="44.48508" lon="6.20618">
        <ele>1291</ele>
        <time>2023-04-21T13:07:38.000Z</time>
      </trkpt>
      <trkpt lat="44.48509" lon="6.20618">
        <ele>1291</ele>
        <time>2023-04-21T13:07:39.000Z</time>
      </trkpt>
      <trkpt lat="44.48509" lon="6.20618">
        <ele>1290</ele>
        <time>2023-04-21T13:07:40.000Z</time>
      </trkpt>
      <trkpt lat="44.48509" lon="6.20618">
        <ele>1290</ele>
        <time>2023-04-21T13:07:41.000Z</time>
      </trkpt>
      <trkpt lat="44.48509" lon="6.20618">
        <ele>1290</ele>
        <time>2023-04-21T13:07:42.000Z</time>
      </trkpt>
      <trkpt lat="44.48509" lon="6.20618">
        <ele>1290</ele>
        <time>2023-04-21T13:07:43.000Z</time>
      </trkpt>
      <trkpt lat="44.48509" lon="6.20618">
        <ele>1290</ele>
        <time>2023-04-21T13:07:44.000Z</time>
      </trkpt>
      <trkpt lat="44.48509" lon="6.20618">
        <ele>1290</ele>
        <time>2023-04-21T13:07:45.000Z</time>
      </trkpt>
      <trkpt lat="44.48509" lon="6.20619">
        <ele>1290</ele>
        <time>2023-04-21T13:07:46.000Z</time>
      </trkpt>
      <trkpt lat="44.4851" lon="6.20619">
        <ele>1290</ele>
        <time>2023-04-21T13:07:47.000Z</time>
      </trkpt>
      <trkpt lat="44.4851" lon="6.20619">
        <ele>1290</ele>
        <time>2023-04-21T13:07:48.000Z</time>
      </trkpt>
      <trkpt lat="44.4851" lon="6.20619">
        <ele>1290</ele>
        <time>2023-04-21T13:07:49.000Z</time>
      </trkpt>
      <trkpt lat="44.4851" lon="6.20619">
        <ele>1290</ele>
        <time>2023-04-21T13:07:50.000Z</time>
      </trkpt>
      <trkpt lat="44.4851" lon="6.20619">
        <ele>1290</ele>
        <time>2023-04-21T13:07:51.000Z</time>
      </trkpt>
      <trkpt lat="44.4851" lon="6.20619">
        <ele>1291</ele>
        <time>2023-04-21T13:07:52.000Z</time>
      </trkpt>
      <trkpt lat="44.4851" lon="6.20619">
        <ele>1291</ele>
        <time>2023-04-21T13:07:53.000Z</time>
      </trkpt>
      <trkpt lat="44.4851" lon="6.20619">
        <ele>1291</ele>
        <time>2023-04-21T13:07:54.000Z</time>
      </trkpt>
      <trkpt lat="44.4851" lon="6.20619">
        <ele>1291</ele>
        <time>2023-04-21T13:07:55.000Z</time>
      </trkpt>
      <trkpt lat="44.4851" lon="6.2062">
        <ele>1291</ele>
        <time>2023-04-21T13:07:56.000Z</time>
      </trkpt>
      <trkpt lat="44.4851" lon="6.2062">
        <ele>1291</ele>
        <time>2023-04-21T13:07:57.000Z</time>
      </trkpt>
      <trkpt lat="44.4851" lon="6.2062">
        <ele>1291</ele>
        <time>2023-04-21T13:07:58.000Z</time>
      </trkpt>
      <trkpt lat="44.4851" lon="6.2062">
        <ele>1291</ele>
        <time>2023-04-21T13:07:59.000Z</time>
      </trkpt>
      <trkpt lat="44.48511" lon="6.2062">
        <ele>1291</ele>
        <time>2023-04-21T13:08:00.000Z</time>
      </trkpt>
      <trkpt lat="44.48511" lon="6.2062">
        <ele>1291</ele>
        <time>2023-04-21T13:08:01.000Z</time>
      </trkpt>
      <trkpt lat="44.48511" lon="6.2062">
        <ele>1291</ele>
        <time>2023-04-21T13:08:02.000Z</time>
      </trkpt>
      <trkpt lat="44.48511" lon="6.2062">
        <ele>1291</ele>
        <time>2023-04-21T13:08:03.000Z</time>
      </trkpt>
      <trkpt lat="44.48511" lon="6.2062">
        <ele>1291</ele>
        <time>2023-04-21T13:08:04.000Z</time>
      </trkpt>
      <trkpt lat="44.48511" lon="6.2062">
        <ele>1291</ele>
        <time>2023-04-21T13:08:05.000Z</time>
      </trkpt>
      <trkpt lat="44.48511" lon="6.2062">
        <ele>1291</ele>
        <time>2023-04-21T13:08:06.000Z</time>
      </trkpt>
      <trkpt lat="44.48511" lon="6.2062">
        <ele>1291</ele>
        <time>2023-04-21T13:08:07.000Z</time>
      </trkpt>
      <trkpt lat="44.48512" lon="6.2062">
        <ele>1291</ele>
        <time>2023-04-21T13:08:08.000Z</time>
      </trkpt>
      <trkpt lat="44.48512" lon="6.2062">
        <ele>1291</ele>
        <time>2023-04-21T13:08:09.000Z</time>
      </trkpt>
      <trkpt lat="44.48512" lon="6.2062">
        <ele>1291</ele>
        <time>2023-04-21T13:08:10.000Z</time>
      </trkpt>
      <trkpt lat="44.48512" lon="6.2062">
        <ele>1291</ele>
        <time>2023-04-21T13:08:11.000Z</time>
      </trkpt>
      <trkpt lat="44.48512" lon="6.2062">
        <ele>1291</ele>
        <time>2023-04-21T13:08:12.000Z</time>
      </trkpt>
      <trkpt lat="44.48512" lon="6.2062">
        <ele>1291</ele>
        <time>2023-04-21T13:08:13.000Z</time>
      </trkpt>
      <trkpt lat="44.48512" lon="6.2062">
        <ele>1291</ele>
        <time>2023-04-21T13:08:14.000Z</time>
      </trkpt>
      <trkpt lat="44.48512" lon="6.2062">
        <ele>1291</ele>
        <time>2023-04-21T13:08:15.000Z</time>
      </trkpt>
      <trkpt lat="44.48512" lon="6.2062">
        <ele>1291</ele>
        <time>2023-04-21T13:08:16.000Z</time>
      </trkpt>
      <trkpt lat="44.48512" lon="6.20619">
        <ele>1291</ele>
        <time>2023-04-21T13:08:17.000Z</time>
      </trkpt>
      <trkpt lat="44.48512" lon="6.20619">
        <ele>1291</ele>
        <time>2023-04-21T13:08:18.000Z</time>
      </trkpt>
      <trkpt lat="44.48512" lon="6.20619">
        <ele>1291</ele>
        <time>2023-04-21T13:08:19.000Z</time>
      </trkpt>
      <trkpt lat="44.48512" lon="6.20619">
        <ele>1291</ele>
        <time>2023-04-21T13:08:20.000Z</time>
      </trkpt>
      <trkpt lat="44.48512" lon="6.20619">
        <ele>1291</ele>
        <time>2023-04-21T13:08:21.000Z</time>
      </trkpt>
      <trkpt lat="44.48512" lon="6.20619">
        <ele>1291</ele>
        <time>2023-04-21T13:08:22.000Z</time>
      </trkpt>
      <trkpt lat="44.48512" lon="6.20619">
        <ele>1291</ele>
        <time>2023-04-21T13:08:23.000Z</time>
      </trkpt>
      <trkpt lat="44.48512" lon="6.20619">
        <ele>1291</ele>
        <time>2023-04-21T13:08:24.000Z</time>
      </trkpt>
      <trkpt lat="44.48512" lon="6.20619">
        <ele>1291</ele>
        <time>2023-04-21T13:08:25.000Z</time>
      </trkpt>
      <trkpt lat="44.48512" lon="6.20619">
        <ele>1291</ele>
        <time>2023-04-21T13:08:26.000Z</time>
      </trkpt>
      <trkpt lat="44.48512" lon="6.20619">
        <ele>1291</ele>
        <time>2023-04-21T13:08:27.000Z</time>
      </trkpt>
      <trkpt lat="44.48512" lon="6.20619">
        <ele>1291</ele>
        <time>2023-04-21T13:08:28.000Z</time>
      </trkpt>
      <trkpt lat="44.48512" lon="6.2062">
        <ele>1291</ele>
        <time>2023-04-21T13:08:29.000Z</time>
      </trkpt>
      <trkpt lat="44.48512" lon="6.2062">
        <ele>1291</ele>
        <time>2023-04-21T13:08:30.000Z</time>
      </trkpt>
      <trkpt lat="44.48512" lon="6.2062">
        <ele>1292</ele>
        <time>2023-04-21T13:08:31.000Z</time>
      </trkpt>
      <trkpt lat="44.48512" lon="6.2062">
        <ele>1292</ele>
        <time>2023-04-21T13:08:32.000Z</time>
      </trkpt>
      <trkpt lat="44.48512" lon="6.2062">
        <ele>1292</ele>
        <time>2023-04-21T13:08:33.000Z</time>
      </trkpt>
      <trkpt lat="44.48512" lon="6.2062">
        <ele>1292</ele>
        <time>2023-04-21T13:08:34.000Z</time>
      </trkpt>
      <trkpt lat="44.48512" lon="6.2062">
        <ele>1292</ele>
        <time>2023-04-21T13:08:35.000Z</time>
      </trkpt>
      <trkpt lat="44.48512" lon="6.2062">
        <ele>1292</ele>
        <time>2023-04-21T13:08:36.000Z</time>
      </trkpt>
      <trkpt lat="44.48512" lon="6.2062">
        <ele>1292</ele>
        <time>2023-04-21T13:08:37.000Z</time>
      </trkpt>
      <trkpt lat="44.48512" lon="6.2062">
        <ele>1292</ele>
        <time>2023-04-21T13:08:38.000Z</time>
      </trkpt>
      <trkpt lat="44.48512" lon="6.2062">
        <ele>1292</ele>
        <time>2023-04-21T13:08:39.000Z</time>
      </trkpt>
      <trkpt lat="44.48512" lon="6.20621">
        <ele>1292</ele>
        <time>2023-04-21T13:08:40.000Z</time>
      </trkpt>
      <trkpt lat="44.48512" lon="6.20621">
        <ele>1292</ele>
        <time>2023-04-21T13:08:41.000Z</time>
      </trkpt>
      <trkpt lat="44.48512" lon="6.20621">
        <ele>1292</ele>
        <time>2023-04-21T13:08:42.000Z</time>
      </trkpt>
      <trkpt lat="44.48512" lon="6.20621">
        <ele>1292</ele>
        <time>2023-04-21T13:08:43.000Z</time>
      </trkpt>
      <trkpt lat="44.48512" lon="6.20621">
        <ele>1292</ele>
        <time>2023-04-21T13:08:44.000Z</time>
      </trkpt>
      <trkpt lat="44.48512" lon="6.20621">
        <ele>1292</ele>
        <time>2023-04-21T13:08:45.000Z</time>
      </trkpt>
      <trkpt lat="44.48512" lon="6.20621">
        <ele>1292</ele>
        <time>2023-04-21T13:08:46.000Z</time>
      </trkpt>
      <trkpt lat="44.48512" lon="6.20621">
        <ele>1292</ele>
        <time>2023-04-21T13:08:47.000Z</time>
      </trkpt>
      <trkpt lat="44.48512" lon="6.20621">
        <ele>1292</ele>
        <time>2023-04-21T13:08:48.000Z</time>
      </trkpt>
      <trkpt lat="44.48513" lon="6.20621">
        <ele>1292</ele>
        <time>2023-04-21T13:08:49.000Z</time>
      </trkpt>
      <trkpt lat="44.48514" lon="6.20621">
        <ele>1292</ele>
        <time>2023-04-21T13:08:50.000Z</time>
      </trkpt>
      <trkpt lat="44.48515" lon="6.20621">
        <ele>1292</ele>
        <time>2023-04-21T13:08:51.000Z</time>
      </trkpt>
      <trkpt lat="44.48516" lon="6.20621">
        <ele>1292</ele>
        <time>2023-04-21T13:08:52.000Z</time>
      </trkpt>
      <trkpt lat="44.48518" lon="6.20621">
        <ele>1292</ele>
        <time>2023-04-21T13:08:53.000Z</time>
      </trkpt>
      <trkpt lat="44.48519" lon="6.20622">
        <ele>1292</ele>
        <time>2023-04-21T13:08:54.000Z</time>
      </trkpt>
      <trkpt lat="44.4852" lon="6.20622">
        <ele>1293</ele>
        <time>2023-04-21T13:08:55.000Z</time>
      </trkpt>
      <trkpt lat="44.48523" lon="6.20622">
        <ele>1292</ele>
        <time>2023-04-21T13:08:56.000Z</time>
      </trkpt>
      <trkpt lat="44.48525" lon="6.20622">
        <ele>1292</ele>
        <time>2023-04-21T13:08:57.000Z</time>
      </trkpt>
      <trkpt lat="44.48526" lon="6.20622">
        <ele>1292</ele>
        <time>2023-04-21T13:08:58.000Z</time>
      </trkpt>
      <trkpt lat="44.48528" lon="6.20623">
        <ele>1292</ele>
        <time>2023-04-21T13:08:59.000Z</time>
      </trkpt>
      <trkpt lat="44.4853" lon="6.20622">
        <ele>1293</ele>
        <time>2023-04-21T13:09:00.000Z</time>
      </trkpt>
      <trkpt lat="44.48532" lon="6.20622">
        <ele>1293</ele>
        <time>2023-04-21T13:09:01.000Z</time>
      </trkpt>
      <trkpt lat="44.48534" lon="6.20623">
        <ele>1293</ele>
        <time>2023-04-21T13:09:02.000Z</time>
      </trkpt>
      <trkpt lat="44.48536" lon="6.20623">
        <ele>1293</ele>
        <time>2023-04-21T13:09:03.000Z</time>
      </trkpt>
      <trkpt lat="44.48539" lon="6.20623">
        <ele>1293</ele>
        <time>2023-04-21T13:09:04.000Z</time>
      </trkpt>
      <trkpt lat="44.48541" lon="6.20624">
        <ele>1294</ele>
        <time>2023-04-21T13:09:05.000Z</time>
      </trkpt>
      <trkpt lat="44.48543" lon="6.20624">
        <ele>1294</ele>
        <time>2023-04-21T13:09:06.000Z</time>
      </trkpt>
      <trkpt lat="44.48545" lon="6.20624">
        <ele>1293</ele>
        <time>2023-04-21T13:09:07.000Z</time>
      </trkpt>
      <trkpt lat="44.48547" lon="6.20624">
        <ele>1294</ele>
        <time>2023-04-21T13:09:08.000Z</time>
      </trkpt>
      <trkpt lat="44.48549" lon="6.20623">
        <ele>1294</ele>
        <time>2023-04-21T13:09:09.000Z</time>
      </trkpt>
      <trkpt lat="44.48551" lon="6.20623">
        <ele>1296</ele>
        <time>2023-04-21T13:09:10.000Z</time>
      </trkpt>
      <trkpt lat="44.48554" lon="6.20623">
        <ele>1296</ele>
        <time>2023-04-21T13:09:11.000Z</time>
      </trkpt>
      <trkpt lat="44.48556" lon="6.20623">
        <ele>1296</ele>
        <time>2023-04-21T13:09:12.000Z</time>
      </trkpt>
      <trkpt lat="44.48559" lon="6.20623">
        <ele>1296</ele>
        <time>2023-04-21T13:09:13.000Z</time>
      </trkpt>
      <trkpt lat="44.48561" lon="6.20623">
        <ele>1297</ele>
        <time>2023-04-21T13:09:14.000Z</time>
      </trkpt>
      <trkpt lat="44.48563" lon="6.20623">
        <ele>1298</ele>
        <time>2023-04-21T13:09:15.000Z</time>
      </trkpt>
      <trkpt lat="44.48566" lon="6.20623">
        <ele>1298</ele>
        <time>2023-04-21T13:09:16.000Z</time>
      </trkpt>
      <trkpt lat="44.48569" lon="6.20623">
        <ele>1298</ele>
        <time>2023-04-21T13:09:17.000Z</time>
      </trkpt>
      <trkpt lat="44.48571" lon="6.20623">
        <ele>1297</ele>
        <time>2023-04-21T13:09:18.000Z</time>
      </trkpt>
      <trkpt lat="44.48573" lon="6.20622">
        <ele>1298</ele>
        <time>2023-04-21T13:09:19.000Z</time>
      </trkpt>
      <trkpt lat="44.48575" lon="6.20622">
        <ele>1298</ele>
        <time>2023-04-21T13:09:20.000Z</time>
      </trkpt>
      <trkpt lat="44.48579" lon="6.20622">
        <ele>1298</ele>
        <time>2023-04-21T13:09:21.000Z</time>
      </trkpt>
      <trkpt lat="44.48581" lon="6.20622">
        <ele>1299</ele>
        <time>2023-04-21T13:09:22.000Z</time>
      </trkpt>
      <trkpt lat="44.48583" lon="6.20622">
        <ele>1299</ele>
        <time>2023-04-21T13:09:23.000Z</time>
      </trkpt>
      <trkpt lat="44.48586" lon="6.20622">
        <ele>1299</ele>
        <time>2023-04-21T13:09:24.000Z</time>
      </trkpt>
      <trkpt lat="44.48589" lon="6.20623">
        <ele>1300</ele>
        <time>2023-04-21T13:09:25.000Z</time>
      </trkpt>
      <trkpt lat="44.48592" lon="6.20624">
        <ele>1300</ele>
        <time>2023-04-21T13:09:26.000Z</time>
      </trkpt>
      <trkpt lat="44.48595" lon="6.20625">
        <ele>1300</ele>
        <time>2023-04-21T13:09:27.000Z</time>
      </trkpt>
      <trkpt lat="44.48598" lon="6.20625">
        <ele>1301</ele>
        <time>2023-04-21T13:09:28.000Z</time>
      </trkpt>
      <trkpt lat="44.486" lon="6.20626">
        <ele>1301</ele>
        <time>2023-04-21T13:09:29.000Z</time>
      </trkpt>
      <trkpt lat="44.48603" lon="6.20628">
        <ele>1301</ele>
        <time>2023-04-21T13:09:30.000Z</time>
      </trkpt>
      <trkpt lat="44.48607" lon="6.20631">
        <ele>1300</ele>
        <time>2023-04-21T13:09:31.000Z</time>
      </trkpt>
      <trkpt lat="44.48611" lon="6.20633">
        <ele>1300</ele>
        <time>2023-04-21T13:09:32.000Z</time>
      </trkpt>
      <trkpt lat="44.48614" lon="6.20634">
        <ele>1300</ele>
        <time>2023-04-21T13:09:33.000Z</time>
      </trkpt>
      <trkpt lat="44.48617" lon="6.20635">
        <ele>1300</ele>
        <time>2023-04-21T13:09:34.000Z</time>
      </trkpt>
      <trkpt lat="44.4862" lon="6.20636">
        <ele>1301</ele>
        <time>2023-04-21T13:09:35.000Z</time>
      </trkpt>
      <trkpt lat="44.48623" lon="6.20638">
        <ele>1300</ele>
        <time>2023-04-21T13:09:36.000Z</time>
      </trkpt>
      <trkpt lat="44.48626" lon="6.20638">
        <ele>1302</ele>
        <time>2023-04-21T13:09:37.000Z</time>
      </trkpt>
      <trkpt lat="44.48628" lon="6.20639">
        <ele>1303</ele>
        <time>2023-04-21T13:09:38.000Z</time>
      </trkpt>
      <trkpt lat="44.48632" lon="6.20642">
        <ele>1302</ele>
        <time>2023-04-21T13:09:39.000Z</time>
      </trkpt>
      <trkpt lat="44.48635" lon="6.20644">
        <ele>1301</ele>
        <time>2023-04-21T13:09:40.000Z</time>
      </trkpt>
      <trkpt lat="44.48638" lon="6.20645">
        <ele>1302</ele>
        <time>2023-04-21T13:09:41.000Z</time>
      </trkpt>
      <trkpt lat="44.48641" lon="6.20647">
        <ele>1302</ele>
        <time>2023-04-21T13:09:42.000Z</time>
      </trkpt>
      <trkpt lat="44.48644" lon="6.20648">
        <ele>1303</ele>
        <time>2023-04-21T13:09:43.000Z</time>
      </trkpt>
      <trkpt lat="44.48646" lon="6.20649">
        <ele>1304</ele>
        <time>2023-04-21T13:09:44.000Z</time>
      </trkpt>
      <trkpt lat="44.48648" lon="6.20651">
        <ele>1304</ele>
        <time>2023-04-21T13:09:45.000Z</time>
      </trkpt>
      <trkpt lat="44.48651" lon="6.20652">
        <ele>1305</ele>
        <time>2023-04-21T13:09:46.000Z</time>
      </trkpt>
      <trkpt lat="44.48653" lon="6.20653">
        <ele>1305</ele>
        <time>2023-04-21T13:09:47.000Z</time>
      </trkpt>
      <trkpt lat="44.48656" lon="6.20654">
        <ele>1306</ele>
        <time>2023-04-21T13:09:48.000Z</time>
      </trkpt>
      <trkpt lat="44.48658" lon="6.20656">
        <ele>1306</ele>
        <time>2023-04-21T13:09:49.000Z</time>
      </trkpt>
      <trkpt lat="44.4866" lon="6.20658">
        <ele>1307</ele>
        <time>2023-04-21T13:09:50.000Z</time>
      </trkpt>
      <trkpt lat="44.48662" lon="6.20659">
        <ele>1307</ele>
        <time>2023-04-21T13:09:51.000Z</time>
      </trkpt>
      <trkpt lat="44.48664" lon="6.2066">
        <ele>1307</ele>
        <time>2023-04-21T13:09:52.000Z</time>
      </trkpt>
      <trkpt lat="44.48666" lon="6.20661">
        <ele>1307</ele>
        <time>2023-04-21T13:09:53.000Z</time>
      </trkpt>
      <trkpt lat="44.48668" lon="6.20662">
        <ele>1308</ele>
        <time>2023-04-21T13:09:54.000Z</time>
      </trkpt>
      <trkpt lat="44.4867" lon="6.20662">
        <ele>1308</ele>
        <time>2023-04-21T13:09:55.000Z</time>
      </trkpt>
      <trkpt lat="44.48672" lon="6.20664">
        <ele>1309</ele>
        <time>2023-04-21T13:09:56.000Z</time>
      </trkpt>
      <trkpt lat="44.48674" lon="6.20664">
        <ele>1310</ele>
        <time>2023-04-21T13:09:57.000Z</time>
      </trkpt>
      <trkpt lat="44.48676" lon="6.20665">
        <ele>1309</ele>
        <time>2023-04-21T13:09:58.000Z</time>
      </trkpt>
      <trkpt lat="44.48679" lon="6.20665">
        <ele>1309</ele>
        <time>2023-04-21T13:09:59.000Z</time>
      </trkpt>
      <trkpt lat="44.48681" lon="6.20665">
        <ele>1309</ele>
        <time>2023-04-21T13:10:00.000Z</time>
      </trkpt>
      <trkpt lat="44.48682" lon="6.20666">
        <ele>1311</ele>
        <time>2023-04-21T13:10:01.000Z</time>
      </trkpt>
      <trkpt lat="44.48684" lon="6.20668">
        <ele>1310</ele>
        <time>2023-04-21T13:10:02.000Z</time>
      </trkpt>
      <trkpt lat="44.48686" lon="6.20668">
        <ele>1311</ele>
        <time>2023-04-21T13:10:03.000Z</time>
      </trkpt>
      <trkpt lat="44.48687" lon="6.20669">
        <ele>1312</ele>
        <time>2023-04-21T13:10:04.000Z</time>
      </trkpt>
      <trkpt lat="44.48689" lon="6.2067">
        <ele>1312</ele>
        <time>2023-04-21T13:10:05.000Z</time>
      </trkpt>
      <trkpt lat="44.48691" lon="6.20671">
        <ele>1312</ele>
        <time>2023-04-21T13:10:06.000Z</time>
      </trkpt>
      <trkpt lat="44.48694" lon="6.20672">
        <ele>1312</ele>
        <time>2023-04-21T13:10:07.000Z</time>
      </trkpt>
      <trkpt lat="44.48696" lon="6.20672">
        <ele>1313</ele>
        <time>2023-04-21T13:10:08.000Z</time>
      </trkpt>
      <trkpt lat="44.48698" lon="6.20672">
        <ele>1313</ele>
        <time>2023-04-21T13:10:09.000Z</time>
      </trkpt>
      <trkpt lat="44.487" lon="6.20673">
        <ele>1314</ele>
        <time>2023-04-21T13:10:10.000Z</time>
      </trkpt>
      <trkpt lat="44.48703" lon="6.20673">
        <ele>1315</ele>
        <time>2023-04-21T13:10:11.000Z</time>
      </trkpt>
      <trkpt lat="44.48704" lon="6.20674">
        <ele>1316</ele>
        <time>2023-04-21T13:10:12.000Z</time>
      </trkpt>
      <trkpt lat="44.48707" lon="6.20674">
        <ele>1316</ele>
        <time>2023-04-21T13:10:13.000Z</time>
      </trkpt>
      <trkpt lat="44.48709" lon="6.20674">
        <ele>1316</ele>
        <time>2023-04-21T13:10:14.000Z</time>
      </trkpt>
      <trkpt lat="44.48711" lon="6.20675">
        <ele>1317</ele>
        <time>2023-04-21T13:10:15.000Z</time>
      </trkpt>
      <trkpt lat="44.48713" lon="6.20676">
        <ele>1317</ele>
        <time>2023-04-21T13:10:16.000Z</time>
      </trkpt>
      <trkpt lat="44.48716" lon="6.20677">
        <ele>1317</ele>
        <time>2023-04-21T13:10:17.000Z</time>
      </trkpt>
      <trkpt lat="44.48718" lon="6.20677">
        <ele>1318</ele>
        <time>2023-04-21T13:10:18.000Z</time>
      </trkpt>
      <trkpt lat="44.4872" lon="6.20677">
        <ele>1318</ele>
        <time>2023-04-21T13:10:19.000Z</time>
      </trkpt>
      <trkpt lat="44.48722" lon="6.20677">
        <ele>1319</ele>
        <time>2023-04-21T13:10:20.000Z</time>
      </trkpt>
      <trkpt lat="44.48724" lon="6.20678">
        <ele>1319</ele>
        <time>2023-04-21T13:10:21.000Z</time>
      </trkpt>
      <trkpt lat="44.48727" lon="6.20679">
        <ele>1319</ele>
        <time>2023-04-21T13:10:22.000Z</time>
      </trkpt>
      <trkpt lat="44.4873" lon="6.2068">
        <ele>1319</ele>
        <time>2023-04-21T13:10:23.000Z</time>
      </trkpt>
      <trkpt lat="44.48732" lon="6.20681">
        <ele>1319</ele>
        <time>2023-04-21T13:10:24.000Z</time>
      </trkpt>
      <trkpt lat="44.48735" lon="6.20683">
        <ele>1319</ele>
        <time>2023-04-21T13:10:25.000Z</time>
      </trkpt>
      <trkpt lat="44.48738" lon="6.20684">
        <ele>1318</ele>
        <time>2023-04-21T13:10:26.000Z</time>
      </trkpt>
      <trkpt lat="44.4874" lon="6.20685">
        <ele>1318</ele>
        <time>2023-04-21T13:10:27.000Z</time>
      </trkpt>
      <trkpt lat="44.48743" lon="6.20685">
        <ele>1318</ele>
        <time>2023-04-21T13:10:28.000Z</time>
      </trkpt>
      <trkpt lat="44.48745" lon="6.20686">
        <ele>1318</ele>
        <time>2023-04-21T13:10:29.000Z</time>
      </trkpt>
      <trkpt lat="44.48748" lon="6.20686">
        <ele>1318</ele>
        <time>2023-04-21T13:10:30.000Z</time>
      </trkpt>
      <trkpt lat="44.48751" lon="6.20688">
        <ele>1317</ele>
        <time>2023-04-21T13:10:31.000Z</time>
      </trkpt>
      <trkpt lat="44.48752" lon="6.20688">
        <ele>1317</ele>
        <time>2023-04-21T13:10:32.000Z</time>
      </trkpt>
      <trkpt lat="44.48755" lon="6.20689">
        <ele>1317</ele>
        <time>2023-04-21T13:10:33.000Z</time>
      </trkpt>
      <trkpt lat="44.48757" lon="6.2069">
        <ele>1318</ele>
        <time>2023-04-21T13:10:34.000Z</time>
      </trkpt>
      <trkpt lat="44.48759" lon="6.20691">
        <ele>1318</ele>
        <time>2023-04-21T13:10:35.000Z</time>
      </trkpt>
      <trkpt lat="44.48761" lon="6.20692">
        <ele>1318</ele>
        <time>2023-04-21T13:10:36.000Z</time>
      </trkpt>
      <trkpt lat="44.48764" lon="6.20693">
        <ele>1318</ele>
        <time>2023-04-21T13:10:37.000Z</time>
      </trkpt>
      <trkpt lat="44.48767" lon="6.20694">
        <ele>1319</ele>
        <time>2023-04-21T13:10:38.000Z</time>
      </trkpt>
      <trkpt lat="44.4877" lon="6.20696">
        <ele>1319</ele>
        <time>2023-04-21T13:10:39.000Z</time>
      </trkpt>
      <trkpt lat="44.48773" lon="6.20697">
        <ele>1318</ele>
        <time>2023-04-21T13:10:40.000Z</time>
      </trkpt>
      <trkpt lat="44.48776" lon="6.20699">
        <ele>1319</ele>
        <time>2023-04-21T13:10:41.000Z</time>
      </trkpt>
      <trkpt lat="44.48779" lon="6.207">
        <ele>1320</ele>
        <time>2023-04-21T13:10:42.000Z</time>
      </trkpt>
      <trkpt lat="44.48782" lon="6.20702">
        <ele>1320</ele>
        <time>2023-04-21T13:10:43.000Z</time>
      </trkpt>
      <trkpt lat="44.48785" lon="6.20704">
        <ele>1321</ele>
        <time>2023-04-21T13:10:44.000Z</time>
      </trkpt>
      <trkpt lat="44.48787" lon="6.20705">
        <ele>1321</ele>
        <time>2023-04-21T13:10:45.000Z</time>
      </trkpt>
      <trkpt lat="44.4879" lon="6.20707">
        <ele>1322</ele>
        <time>2023-04-21T13:10:46.000Z</time>
      </trkpt>
      <trkpt lat="44.48793" lon="6.2071">
        <ele>1321</ele>
        <time>2023-04-21T13:10:47.000Z</time>
      </trkpt>
      <trkpt lat="44.48797" lon="6.20712">
        <ele>1321</ele>
        <time>2023-04-21T13:10:48.000Z</time>
      </trkpt>
      <trkpt lat="44.488" lon="6.20713">
        <ele>1321</ele>
        <time>2023-04-21T13:10:49.000Z</time>
      </trkpt>
      <trkpt lat="44.48803" lon="6.20715">
        <ele>1321</ele>
        <time>2023-04-21T13:10:50.000Z</time>
      </trkpt>
      <trkpt lat="44.48805" lon="6.20715">
        <ele>1321</ele>
        <time>2023-04-21T13:10:51.000Z</time>
      </trkpt>
      <trkpt lat="44.48807" lon="6.20716">
        <ele>1322</ele>
        <time>2023-04-21T13:10:52.000Z</time>
      </trkpt>
      <trkpt lat="44.4881" lon="6.20716">
        <ele>1322</ele>
        <time>2023-04-21T13:10:53.000Z</time>
      </trkpt>
      <trkpt lat="44.48812" lon="6.20715">
        <ele>1322</ele>
        <time>2023-04-21T13:10:54.000Z</time>
      </trkpt>
      <trkpt lat="44.48814" lon="6.20715">
        <ele>1322</ele>
        <time>2023-04-21T13:10:55.000Z</time>
      </trkpt>
      <trkpt lat="44.48816" lon="6.20714">
        <ele>1323</ele>
        <time>2023-04-21T13:10:56.000Z</time>
      </trkpt>
      <trkpt lat="44.4882" lon="6.20714">
        <ele>1322</ele>
        <time>2023-04-21T13:10:57.000Z</time>
      </trkpt>
      <trkpt lat="44.48824" lon="6.20715">
        <ele>1322</ele>
        <time>2023-04-21T13:10:58.000Z</time>
      </trkpt>
      <trkpt lat="44.48829" lon="6.20715">
        <ele>1322</ele>
        <time>2023-04-21T13:10:59.000Z</time>
      </trkpt>
      <trkpt lat="44.48832" lon="6.20715">
        <ele>1322</ele>
        <time>2023-04-21T13:11:00.000Z</time>
      </trkpt>
      <trkpt lat="44.48835" lon="6.20714">
        <ele>1323</ele>
        <time>2023-04-21T13:11:01.000Z</time>
      </trkpt>
      <trkpt lat="44.48838" lon="6.20714">
        <ele>1323</ele>
        <time>2023-04-21T13:11:02.000Z</time>
      </trkpt>
      <trkpt lat="44.48842" lon="6.20714">
        <ele>1323</ele>
        <time>2023-04-21T13:11:03.000Z</time>
      </trkpt>
      <trkpt lat="44.48846" lon="6.20714">
        <ele>1322</ele>
        <time>2023-04-21T13:11:04.000Z</time>
      </trkpt>
      <trkpt lat="44.4885" lon="6.20715">
        <ele>1322</ele>
        <time>2023-04-21T13:11:05.000Z</time>
      </trkpt>
      <trkpt lat="44.48854" lon="6.20715">
        <ele>1322</ele>
        <time>2023-04-21T13:11:06.000Z</time>
      </trkpt>
      <trkpt lat="44.48858" lon="6.20715">
        <ele>1322</ele>
        <time>2023-04-21T13:11:07.000Z</time>
      </trkpt>
      <trkpt lat="44.48862" lon="6.20715">
        <ele>1322</ele>
        <time>2023-04-21T13:11:08.000Z</time>
      </trkpt>
      <trkpt lat="44.48866" lon="6.20715">
        <ele>1321</ele>
        <time>2023-04-21T13:11:09.000Z</time>
      </trkpt>
      <trkpt lat="44.48869" lon="6.20716">
        <ele>1322</ele>
        <time>2023-04-21T13:11:10.000Z</time>
      </trkpt>
      <trkpt lat="44.48873" lon="6.20716">
        <ele>1322</ele>
        <time>2023-04-21T13:11:11.000Z</time>
      </trkpt>
      <trkpt lat="44.48876" lon="6.20716">
        <ele>1322</ele>
        <time>2023-04-21T13:11:12.000Z</time>
      </trkpt>
      <trkpt lat="44.4888" lon="6.20716">
        <ele>1322</ele>
        <time>2023-04-21T13:11:13.000Z</time>
      </trkpt>
      <trkpt lat="44.48884" lon="6.20717">
        <ele>1322</ele>
        <time>2023-04-21T13:11:14.000Z</time>
      </trkpt>
      <trkpt lat="44.48887" lon="6.20718">
        <ele>1322</ele>
        <time>2023-04-21T13:11:15.000Z</time>
      </trkpt>
      <trkpt lat="44.48891" lon="6.20719">
        <ele>1322</ele>
        <time>2023-04-21T13:11:16.000Z</time>
      </trkpt>
      <trkpt lat="44.48895" lon="6.20721">
        <ele>1321</ele>
        <time>2023-04-21T13:11:17.000Z</time>
      </trkpt>
      <trkpt lat="44.48899" lon="6.20721">
        <ele>1320</ele>
        <time>2023-04-21T13:11:18.000Z</time>
      </trkpt>
      <trkpt lat="44.48902" lon="6.20721">
        <ele>1320</ele>
        <time>2023-04-21T13:11:19.000Z</time>
      </trkpt>
      <trkpt lat="44.48906" lon="6.20722">
        <ele>1320</ele>
        <time>2023-04-21T13:11:20.000Z</time>
      </trkpt>
      <trkpt lat="44.48909" lon="6.20721">
        <ele>1320</ele>
        <time>2023-04-21T13:11:21.000Z</time>
      </trkpt>
      <trkpt lat="44.48912" lon="6.20721">
        <ele>1320</ele>
        <time>2023-04-21T13:11:22.000Z</time>
      </trkpt>
      <trkpt lat="44.48915" lon="6.2072">
        <ele>1321</ele>
        <time>2023-04-21T13:11:23.000Z</time>
      </trkpt>
      <trkpt lat="44.48918" lon="6.2072">
        <ele>1321</ele>
        <time>2023-04-21T13:11:24.000Z</time>
      </trkpt>
      <trkpt lat="44.48921" lon="6.2072">
        <ele>1321</ele>
        <time>2023-04-21T13:11:25.000Z</time>
      </trkpt>
      <trkpt lat="44.48924" lon="6.2072">
        <ele>1321</ele>
        <time>2023-04-21T13:11:26.000Z</time>
      </trkpt>
      <trkpt lat="44.48927" lon="6.20719">
        <ele>1321</ele>
        <time>2023-04-21T13:11:27.000Z</time>
      </trkpt>
      <trkpt lat="44.4893" lon="6.20718">
        <ele>1321</ele>
        <time>2023-04-21T13:11:28.000Z</time>
      </trkpt>
      <trkpt lat="44.48933" lon="6.20718">
        <ele>1321</ele>
        <time>2023-04-21T13:11:29.000Z</time>
      </trkpt>
      <trkpt lat="44.48936" lon="6.20717">
        <ele>1321</ele>
        <time>2023-04-21T13:11:30.000Z</time>
      </trkpt>
      <trkpt lat="44.48939" lon="6.20716">
        <ele>1321</ele>
        <time>2023-04-21T13:11:31.000Z</time>
      </trkpt>
      <trkpt lat="44.48942" lon="6.20716">
        <ele>1322</ele>
        <time>2023-04-21T13:11:32.000Z</time>
      </trkpt>
      <trkpt lat="44.48945" lon="6.20714">
        <ele>1322</ele>
        <time>2023-04-21T13:11:33.000Z</time>
      </trkpt>
      <trkpt lat="44.48948" lon="6.20714">
        <ele>1322</ele>
        <time>2023-04-21T13:11:34.000Z</time>
      </trkpt>
      <trkpt lat="44.48952" lon="6.20713">
        <ele>1321</ele>
        <time>2023-04-21T13:11:35.000Z</time>
      </trkpt>
      <trkpt lat="44.48955" lon="6.20711">
        <ele>1322</ele>
        <time>2023-04-21T13:11:36.000Z</time>
      </trkpt>
      <trkpt lat="44.48958" lon="6.2071">
        <ele>1322</ele>
        <time>2023-04-21T13:11:37.000Z</time>
      </trkpt>
      <trkpt lat="44.48962" lon="6.20708">
        <ele>1322</ele>
        <time>2023-04-21T13:11:38.000Z</time>
      </trkpt>
      <trkpt lat="44.48966" lon="6.20706">
        <ele>1321</ele>
        <time>2023-04-21T13:11:39.000Z</time>
      </trkpt>
      <trkpt lat="44.4897" lon="6.20704">
        <ele>1321</ele>
        <time>2023-04-21T13:11:40.000Z</time>
      </trkpt>
      <trkpt lat="44.48975" lon="6.20703">
        <ele>1320</ele>
        <time>2023-04-21T13:11:41.000Z</time>
      </trkpt>
      <trkpt lat="44.48979" lon="6.20701">
        <ele>1319</ele>
        <time>2023-04-21T13:11:42.000Z</time>
      </trkpt>
      <trkpt lat="44.48983" lon="6.207">
        <ele>1319</ele>
        <time>2023-04-21T13:11:43.000Z</time>
      </trkpt>
      <trkpt lat="44.48987" lon="6.20699">
        <ele>1318</ele>
        <time>2023-04-21T13:11:44.000Z</time>
      </trkpt>
      <trkpt lat="44.48991" lon="6.20698">
        <ele>1318</ele>
        <time>2023-04-21T13:11:45.000Z</time>
      </trkpt>
      <trkpt lat="44.48994" lon="6.20697">
        <ele>1317</ele>
        <time>2023-04-21T13:11:46.000Z</time>
      </trkpt>
      <trkpt lat="44.48998" lon="6.20696">
        <ele>1317</ele>
        <time>2023-04-21T13:11:47.000Z</time>
      </trkpt>
      <trkpt lat="44.49001" lon="6.20695">
        <ele>1317</ele>
        <time>2023-04-21T13:11:48.000Z</time>
      </trkpt>
      <trkpt lat="44.49005" lon="6.20694">
        <ele>1316</ele>
        <time>2023-04-21T13:11:49.000Z</time>
      </trkpt>
      <trkpt lat="44.49008" lon="6.20693">
        <ele>1316</ele>
        <time>2023-04-21T13:11:50.000Z</time>
      </trkpt>
      <trkpt lat="44.49012" lon="6.20692">
        <ele>1316</ele>
        <time>2023-04-21T13:11:51.000Z</time>
      </trkpt>
      <trkpt lat="44.49016" lon="6.20691">
        <ele>1315</ele>
        <time>2023-04-21T13:11:52.000Z</time>
      </trkpt>
      <trkpt lat="44.4902" lon="6.20689">
        <ele>1315</ele>
        <time>2023-04-21T13:11:53.000Z</time>
      </trkpt>
      <trkpt lat="44.49023" lon="6.20687">
        <ele>1315</ele>
        <time>2023-04-21T13:11:54.000Z</time>
      </trkpt>
      <trkpt lat="44.49027" lon="6.20686">
        <ele>1315</ele>
        <time>2023-04-21T13:11:55.000Z</time>
      </trkpt>
      <trkpt lat="44.4903" lon="6.20684">
        <ele>1315</ele>
        <time>2023-04-21T13:11:56.000Z</time>
      </trkpt>
      <trkpt lat="44.49033" lon="6.20683">
        <ele>1315</ele>
        <time>2023-04-21T13:11:57.000Z</time>
      </trkpt>
      <trkpt lat="44.49036" lon="6.20681">
        <ele>1316</ele>
        <time>2023-04-21T13:11:58.000Z</time>
      </trkpt>
      <trkpt lat="44.49039" lon="6.2068">
        <ele>1316</ele>
        <time>2023-04-21T13:11:59.000Z</time>
      </trkpt>
      <trkpt lat="44.49043" lon="6.20678">
        <ele>1316</ele>
        <time>2023-04-21T13:12:00.000Z</time>
      </trkpt>
      <trkpt lat="44.49046" lon="6.20677">
        <ele>1316</ele>
        <time>2023-04-21T13:12:01.000Z</time>
      </trkpt>
      <trkpt lat="44.49049" lon="6.20676">
        <ele>1316</ele>
        <time>2023-04-21T13:12:02.000Z</time>
      </trkpt>
      <trkpt lat="44.49052" lon="6.20675">
        <ele>1316</ele>
        <time>2023-04-21T13:12:03.000Z</time>
      </trkpt>
      <trkpt lat="44.49055" lon="6.20674">
        <ele>1317</ele>
        <time>2023-04-21T13:12:04.000Z</time>
      </trkpt>
      <trkpt lat="44.49058" lon="6.20673">
        <ele>1317</ele>
        <time>2023-04-21T13:12:05.000Z</time>
      </trkpt>
      <trkpt lat="44.4906" lon="6.20672">
        <ele>1317</ele>
        <time>2023-04-21T13:12:06.000Z</time>
      </trkpt>
      <trkpt lat="44.49063" lon="6.20672">
        <ele>1317</ele>
        <time>2023-04-21T13:12:07.000Z</time>
      </trkpt>
      <trkpt lat="44.49066" lon="6.20671">
        <ele>1318</ele>
        <time>2023-04-21T13:12:08.000Z</time>
      </trkpt>
      <trkpt lat="44.49068" lon="6.20669">
        <ele>1318</ele>
        <time>2023-04-21T13:12:09.000Z</time>
      </trkpt>
      <trkpt lat="44.49071" lon="6.20667">
        <ele>1318</ele>
        <time>2023-04-21T13:12:10.000Z</time>
      </trkpt>
      <trkpt lat="44.49074" lon="6.20665">
        <ele>1318</ele>
        <time>2023-04-21T13:12:11.000Z</time>
      </trkpt>
      <trkpt lat="44.49076" lon="6.20663">
        <ele>1318</ele>
        <time>2023-04-21T13:12:12.000Z</time>
      </trkpt>
      <trkpt lat="44.49079" lon="6.20661">
        <ele>1319</ele>
        <time>2023-04-21T13:12:13.000Z</time>
      </trkpt>
      <trkpt lat="44.49081" lon="6.2066">
        <ele>1319</ele>
        <time>2023-04-21T13:12:14.000Z</time>
      </trkpt>
      <trkpt lat="44.49083" lon="6.20658">
        <ele>1319</ele>
        <time>2023-04-21T13:12:15.000Z</time>
      </trkpt>
      <trkpt lat="44.49085" lon="6.20656">
        <ele>1319</ele>
        <time>2023-04-21T13:12:16.000Z</time>
      </trkpt>
      <trkpt lat="44.49087" lon="6.20655">
        <ele>1319</ele>
        <time>2023-04-21T13:12:17.000Z</time>
      </trkpt>
      <trkpt lat="44.49089" lon="6.20653">
        <ele>1320</ele>
        <time>2023-04-21T13:12:18.000Z</time>
      </trkpt>
      <trkpt lat="44.49091" lon="6.20652">
        <ele>1320</ele>
        <time>2023-04-21T13:12:19.000Z</time>
      </trkpt>
      <trkpt lat="44.49092" lon="6.2065">
        <ele>1320</ele>
        <time>2023-04-21T13:12:20.000Z</time>
      </trkpt>
      <trkpt lat="44.49093" lon="6.20649">
        <ele>1320</ele>
        <time>2023-04-21T13:12:21.000Z</time>
      </trkpt>
      <trkpt lat="44.49093" lon="6.2065">
        <ele>1320</ele>
        <time>2023-04-21T13:12:22.000Z</time>
      </trkpt>
      <trkpt lat="44.49093" lon="6.2065">
        <ele>1320</ele>
        <time>2023-04-21T13:12:23.000Z</time>
      </trkpt>
      <trkpt lat="44.49093" lon="6.2065">
        <ele>1320</ele>
        <time>2023-04-21T13:12:24.000Z</time>
      </trkpt>
      <trkpt lat="44.49094" lon="6.2065">
        <ele>1319</ele>
        <time>2023-04-21T13:12:25.000Z</time>
      </trkpt>
      <trkpt lat="44.49094" lon="6.2065">
        <ele>1319</ele>
        <time>2023-04-21T13:12:26.000Z</time>
      </trkpt>
      <trkpt lat="44.49094" lon="6.2065">
        <ele>1319</ele>
        <time>2023-04-21T13:12:27.000Z</time>
      </trkpt>
      <trkpt lat="44.49094" lon="6.2065">
        <ele>1319</ele>
        <time>2023-04-21T13:12:28.000Z</time>
      </trkpt>
      <trkpt lat="44.49094" lon="6.2065">
        <ele>1319</ele>
        <time>2023-04-21T13:12:29.000Z</time>
      </trkpt>
      <trkpt lat="44.49094" lon="6.2065">
        <ele>1319</ele>
        <time>2023-04-21T13:12:30.000Z</time>
      </trkpt>
      <trkpt lat="44.49094" lon="6.2065">
        <ele>1319</ele>
        <time>2023-04-21T13:12:31.000Z</time>
      </trkpt>
      <trkpt lat="44.49094" lon="6.2065">
        <ele>1318</ele>
        <time>2023-04-21T13:12:32.000Z</time>
      </trkpt>
      <trkpt lat="44.49094" lon="6.2065">
        <ele>1318</ele>
        <time>2023-04-21T13:12:33.000Z</time>
      </trkpt>
      <trkpt lat="44.49094" lon="6.2065">
        <ele>1318</ele>
        <time>2023-04-21T13:12:34.000Z</time>
      </trkpt>
      <trkpt lat="44.49094" lon="6.2065">
        <ele>1318</ele>
        <time>2023-04-21T13:12:35.000Z</time>
      </trkpt>
      <trkpt lat="44.49094" lon="6.2065">
        <ele>1318</ele>
        <time>2023-04-21T13:12:36.000Z</time>
      </trkpt>
      <trkpt lat="44.49094" lon="6.2065">
        <ele>1318</ele>
        <time>2023-04-21T13:12:37.000Z</time>
      </trkpt>
      <trkpt lat="44.49094" lon="6.2065">
        <ele>1318</ele>
        <time>2023-04-21T13:12:38.000Z</time>
      </trkpt>
      <trkpt lat="44.49094" lon="6.2065">
        <ele>1318</ele>
        <time>2023-04-21T13:12:39.000Z</time>
      </trkpt>
      <trkpt lat="44.49094" lon="6.2065">
        <ele>1318</ele>
        <time>2023-04-21T13:12:40.000Z</time>
      </trkpt>
      <trkpt lat="44.49094" lon="6.2065">
        <ele>1318</ele>
        <time>2023-04-21T13:12:41.000Z</time>
      </trkpt>
      <trkpt lat="44.49094" lon="6.2065">
        <ele>1318</ele>
        <time>2023-04-21T13:12:42.000Z</time>
      </trkpt>
      <trkpt lat="44.49094" lon="6.2065">
        <ele>1318</ele>
        <time>2023-04-21T13:12:43.000Z</time>
      </trkpt>
      <trkpt lat="44.49094" lon="6.2065">
        <ele>1318</ele>
        <time>2023-04-21T13:12:44.000Z</time>
      </trkpt>
      <trkpt lat="44.49094" lon="6.2065">
        <ele>1318</ele>
        <time>2023-04-21T13:12:45.000Z</time>
      </trkpt>
      <trkpt lat="44.49094" lon="6.2065">
        <ele>1318</ele>
        <time>2023-04-21T13:12:46.000Z</time>
      </trkpt>
      <trkpt lat="44.49094" lon="6.2065">
        <ele>1318</ele>
        <time>2023-04-21T13:12:47.000Z</time>
      </trkpt>
      <trkpt lat="44.49094" lon="6.2065">
        <ele>1318</ele>
        <time>2023-04-21T13:12:48.000Z</time>
      </trkpt>
      <trkpt lat="44.49094" lon="6.2065">
        <ele>1318</ele>
        <time>2023-04-21T13:12:49.000Z</time>
      </trkpt>
      <trkpt lat="44.49094" lon="6.2065">
        <ele>1318</ele>
        <time>2023-04-21T13:12:50.000Z</time>
      </trkpt>
      <trkpt lat="44.49094" lon="6.2065">
        <ele>1318</ele>
        <time>2023-04-21T13:12:51.000Z</time>
      </trkpt>
      <trkpt lat="44.49094" lon="6.2065">
        <ele>1318</ele>
        <time>2023-04-21T13:12:52.000Z</time>
      </trkpt>
      <trkpt lat="44.49094" lon="6.2065">
        <ele>1318</ele>
        <time>2023-04-21T13:12:53.000Z</time>
      </trkpt>
      <trkpt lat="44.49094" lon="6.2065">
        <ele>1318</ele>
        <time>2023-04-21T13:12:54.000Z</time>
      </trkpt>
      <trkpt lat="44.49094" lon="6.2065">
        <ele>1318</ele>
        <time>2023-04-21T13:12:55.000Z</time>
      </trkpt>
      <trkpt lat="44.49094" lon="6.2065">
        <ele>1318</ele>
        <time>2023-04-21T13:12:56.000Z</time>
      </trkpt>
      <trkpt lat="44.49094" lon="6.2065">
        <ele>1318</ele>
        <time>2023-04-21T13:12:57.000Z</time>
      </trkpt>
      <trkpt lat="44.49094" lon="6.2065">
        <ele>1318</ele>
        <time>2023-04-21T13:12:58.000Z</time>
      </trkpt>
      <trkpt lat="44.49095" lon="6.2065">
        <ele>1318</ele>
        <time>2023-04-21T13:12:59.000Z</time>
      </trkpt>
      <trkpt lat="44.49095" lon="6.2065">
        <ele>1318</ele>
        <time>2023-04-21T13:13:00.000Z</time>
      </trkpt>
      <trkpt lat="44.49095" lon="6.2065">
        <ele>1318</ele>
        <time>2023-04-21T13:13:01.000Z</time>
      </trkpt>
      <trkpt lat="44.49095" lon="6.2065">
        <ele>1318</ele>
        <time>2023-04-21T13:13:02.000Z</time>
      </trkpt>
      <trkpt lat="44.49095" lon="6.2065">
        <ele>1318</ele>
        <time>2023-04-21T13:13:03.000Z</time>
      </trkpt>
      <trkpt lat="44.49095" lon="6.2065">
        <ele>1318</ele>
        <time>2023-04-21T13:13:04.000Z</time>
      </trkpt>
      <trkpt lat="44.49095" lon="6.2065">
        <ele>1318</ele>
        <time>2023-04-21T13:13:05.000Z</time>
      </trkpt>
      <trkpt lat="44.49095" lon="6.20651">
        <ele>1318</ele>
        <time>2023-04-21T13:13:06.000Z</time>
      </trkpt>
      <trkpt lat="44.49095" lon="6.20651">
        <ele>1318</ele>
        <time>2023-04-21T13:13:07.000Z</time>
      </trkpt>
      <trkpt lat="44.49095" lon="6.20651">
        <ele>1318</ele>
        <time>2023-04-21T13:13:08.000Z</time>
      </trkpt>
      <trkpt lat="44.49095" lon="6.20651">
        <ele>1318</ele>
        <time>2023-04-21T13:13:09.000Z</time>
      </trkpt>
      <trkpt lat="44.49095" lon="6.20651">
        <ele>1319</ele>
        <time>2023-04-21T13:13:10.000Z</time>
      </trkpt>
      <trkpt lat="44.49094" lon="6.20651">
        <ele>1319</ele>
        <time>2023-04-21T13:13:11.000Z</time>
      </trkpt>
      <trkpt lat="44.49094" lon="6.20651">
        <ele>1319</ele>
        <time>2023-04-21T13:13:12.000Z</time>
      </trkpt>
      <trkpt lat="44.49094" lon="6.20651">
        <ele>1319</ele>
        <time>2023-04-21T13:13:13.000Z</time>
      </trkpt>
      <trkpt lat="44.49094" lon="6.20652">
        <ele>1320</ele>
        <time>2023-04-21T13:13:14.000Z</time>
      </trkpt>
      <trkpt lat="44.49094" lon="6.20652">
        <ele>1320</ele>
        <time>2023-04-21T13:13:15.000Z</time>
      </trkpt>
      <trkpt lat="44.49094" lon="6.20652">
        <ele>1320</ele>
        <time>2023-04-21T13:13:16.000Z</time>
      </trkpt>
      <trkpt lat="44.49094" lon="6.20652">
        <ele>1321</ele>
        <time>2023-04-21T13:13:17.000Z</time>
      </trkpt>
      <trkpt lat="44.49094" lon="6.20652">
        <ele>1321</ele>
        <time>2023-04-21T13:13:18.000Z</time>
      </trkpt>
      <trkpt lat="44.49094" lon="6.20652">
        <ele>1321</ele>
        <time>2023-04-21T13:13:19.000Z</time>
      </trkpt>
      <trkpt lat="44.49094" lon="6.20652">
        <ele>1321</ele>
        <time>2023-04-21T13:13:20.000Z</time>
      </trkpt>
      <trkpt lat="44.49094" lon="6.20652">
        <ele>1322</ele>
        <time>2023-04-21T13:13:21.000Z</time>
      </trkpt>
      <trkpt lat="44.49094" lon="6.20652">
        <ele>1322</ele>
        <time>2023-04-21T13:13:22.000Z</time>
      </trkpt>
      <trkpt lat="44.49094" lon="6.20652">
        <ele>1322</ele>
        <time>2023-04-21T13:13:23.000Z</time>
      </trkpt>
      <trkpt lat="44.49094" lon="6.20651">
        <ele>1322</ele>
        <time>2023-04-21T13:13:24.000Z</time>
      </trkpt>
      <trkpt lat="44.49094" lon="6.20651">
        <ele>1322</ele>
        <time>2023-04-21T13:13:25.000Z</time>
      </trkpt>
      <trkpt lat="44.49094" lon="6.20651">
        <ele>1322</ele>
        <time>2023-04-21T13:13:26.000Z</time>
      </trkpt>
      <trkpt lat="44.49094" lon="6.20651">
        <ele>1322</ele>
        <time>2023-04-21T13:13:27.000Z</time>
      </trkpt>
      <trkpt lat="44.49094" lon="6.20651">
        <ele>1322</ele>
        <time>2023-04-21T13:13:28.000Z</time>
      </trkpt>
      <trkpt lat="44.49094" lon="6.20651">
        <ele>1322</ele>
        <time>2023-04-21T13:13:29.000Z</time>
      </trkpt>
      <trkpt lat="44.49094" lon="6.20651">
        <ele>1321</ele>
        <time>2023-04-21T13:13:30.000Z</time>
      </trkpt>
      <trkpt lat="44.49094" lon="6.20651">
        <ele>1322</ele>
        <time>2023-04-21T13:13:31.000Z</time>
      </trkpt>
      <trkpt lat="44.49094" lon="6.20651">
        <ele>1322</ele>
        <time>2023-04-21T13:13:32.000Z</time>
      </trkpt>
      <trkpt lat="44.49094" lon="6.20651">
        <ele>1322</ele>
        <time>2023-04-21T13:13:33.000Z</time>
      </trkpt>
      <trkpt lat="44.49094" lon="6.20651">
        <ele>1322</ele>
        <time>2023-04-21T13:13:34.000Z</time>
      </trkpt>
      <trkpt lat="44.49094" lon="6.20651">
        <ele>1323</ele>
        <time>2023-04-21T13:13:35.000Z</time>
      </trkpt>
      <trkpt lat="44.49094" lon="6.20651">
        <ele>1323</ele>
        <time>2023-04-21T13:13:36.000Z</time>
      </trkpt>
      <trkpt lat="44.49094" lon="6.20651">
        <ele>1323</ele>
        <time>2023-04-21T13:13:37.000Z</time>
      </trkpt>
      <trkpt lat="44.49094" lon="6.20651">
        <ele>1322</ele>
        <time>2023-04-21T13:13:38.000Z</time>
      </trkpt>
      <trkpt lat="44.49094" lon="6.20652">
        <ele>1323</ele>
        <time>2023-04-21T13:13:39.000Z</time>
      </trkpt>
      <trkpt lat="44.49094" lon="6.20652">
        <ele>1323</ele>
        <time>2023-04-21T13:13:40.000Z</time>
      </trkpt>
      <trkpt lat="44.49094" lon="6.20652">
        <ele>1323</ele>
        <time>2023-04-21T13:13:41.000Z</time>
      </trkpt>
      <trkpt lat="44.49094" lon="6.20652">
        <ele>1323</ele>
        <time>2023-04-21T13:13:42.000Z</time>
      </trkpt>
      <trkpt lat="44.49094" lon="6.20652">
        <ele>1323</ele>
        <time>2023-04-21T13:13:43.000Z</time>
      </trkpt>
      <trkpt lat="44.49094" lon="6.20653">
        <ele>1324</ele>
        <time>2023-04-21T13:13:44.000Z</time>
      </trkpt>
      <trkpt lat="44.49094" lon="6.20653">
        <ele>1324</ele>
        <time>2023-04-21T13:13:45.000Z</time>
      </trkpt>
      <trkpt lat="44.49094" lon="6.20653">
        <ele>1324</ele>
        <time>2023-04-21T13:13:46.000Z</time>
      </trkpt>
      <trkpt lat="44.49094" lon="6.20653">
        <ele>1324</ele>
        <time>2023-04-21T13:13:47.000Z</time>
      </trkpt>
      <trkpt lat="44.49094" lon="6.20653">
        <ele>1324</ele>
        <time>2023-04-21T13:13:48.000Z</time>
      </trkpt>
      <trkpt lat="44.49094" lon="6.20654">
        <ele>1324</ele>
        <time>2023-04-21T13:13:49.000Z</time>
      </trkpt>
      <trkpt lat="44.49094" lon="6.20654">
        <ele>1324</ele>
        <time>2023-04-21T13:13:50.000Z</time>
      </trkpt>
      <trkpt lat="44.49094" lon="6.20654">
        <ele>1324</ele>
        <time>2023-04-21T13:13:51.000Z</time>
      </trkpt>
      <trkpt lat="44.49094" lon="6.20654">
        <ele>1325</ele>
        <time>2023-04-21T13:13:52.000Z</time>
      </trkpt>
      <trkpt lat="44.49094" lon="6.20653">
        <ele>1325</ele>
        <time>2023-04-21T13:13:53.000Z</time>
      </trkpt>
      <trkpt lat="44.49094" lon="6.20653">
        <ele>1325</ele>
        <time>2023-04-21T13:13:54.000Z</time>
      </trkpt>
      <trkpt lat="44.49094" lon="6.20653">
        <ele>1325</ele>
        <time>2023-04-21T13:13:55.000Z</time>
      </trkpt>
      <trkpt lat="44.49094" lon="6.20653">
        <ele>1325</ele>
        <time>2023-04-21T13:13:56.000Z</time>
      </trkpt>
      <trkpt lat="44.49094" lon="6.20653">
        <ele>1325</ele>
        <time>2023-04-21T13:13:57.000Z</time>
      </trkpt>
      <trkpt lat="44.49094" lon="6.20653">
        <ele>1325</ele>
        <time>2023-04-21T13:13:58.000Z</time>
      </trkpt>
      <trkpt lat="44.49094" lon="6.20653">
        <ele>1325</ele>
        <time>2023-04-21T13:13:59.000Z</time>
      </trkpt>
      <trkpt lat="44.49094" lon="6.20653">
        <ele>1325</ele>
        <time>2023-04-21T13:14:00.000Z</time>
      </trkpt>
      <trkpt lat="44.49094" lon="6.20653">
        <ele>1325</ele>
        <time>2023-04-21T13:14:01.000Z</time>
      </trkpt>
      <trkpt lat="44.49094" lon="6.20653">
        <ele>1325</ele>
        <time>2023-04-21T13:14:02.000Z</time>
      </trkpt>
      <trkpt lat="44.49094" lon="6.20653">
        <ele>1325</ele>
        <time>2023-04-21T13:14:03.000Z</time>
      </trkpt>
      <trkpt lat="44.49094" lon="6.20653">
        <ele>1325</ele>
        <time>2023-04-21T13:14:04.000Z</time>
      </trkpt>
      <trkpt lat="44.49094" lon="6.20653">
        <ele>1325</ele>
        <time>2023-04-21T13:14:05.000Z</time>
      </trkpt>
      <trkpt lat="44.49094" lon="6.20653">
        <ele>1326</ele>
        <time>2023-04-21T13:14:06.000Z</time>
      </trkpt>
      <trkpt lat="44.49094" lon="6.20653">
        <ele>1326</ele>
        <time>2023-04-21T13:14:07.000Z</time>
      </trkpt>
      <trkpt lat="44.49094" lon="6.20653">
        <ele>1326</ele>
        <time>2023-04-21T13:14:08.000Z</time>
      </trkpt>
      <trkpt lat="44.49094" lon="6.20653">
        <ele>1326</ele>
        <time>2023-04-21T13:14:09.000Z</time>
      </trkpt>
      <trkpt lat="44.49094" lon="6.20653">
        <ele>1326</ele>
        <time>2023-04-21T13:14:10.000Z</time>
      </trkpt>
      <trkpt lat="44.49094" lon="6.20653">
        <ele>1325</ele>
        <time>2023-04-21T13:14:11.000Z</time>
      </trkpt>
      <trkpt lat="44.49094" lon="6.20653">
        <ele>1325</ele>
        <time>2023-04-21T13:14:12.000Z</time>
      </trkpt>
      <trkpt lat="44.49094" lon="6.20653">
        <ele>1325</ele>
        <time>2023-04-21T13:14:13.000Z</time>
      </trkpt>
      <trkpt lat="44.49094" lon="6.20653">
        <ele>1325</ele>
        <time>2023-04-21T13:14:14.000Z</time>
      </trkpt>
      <trkpt lat="44.49094" lon="6.20653">
        <ele>1325</ele>
        <time>2023-04-21T13:14:15.000Z</time>
      </trkpt>
      <trkpt lat="44.49094" lon="6.20653">
        <ele>1325</ele>
        <time>2023-04-21T13:14:16.000Z</time>
      </trkpt>
      <trkpt lat="44.49094" lon="6.20653">
        <ele>1325</ele>
        <time>2023-04-21T13:14:17.000Z</time>
      </trkpt>
      <trkpt lat="44.49094" lon="6.20653">
        <ele>1324</ele>
        <time>2023-04-21T13:14:18.000Z</time>
      </trkpt>
      <trkpt lat="44.49094" lon="6.20653">
        <ele>1324</ele>
        <time>2023-04-21T13:14:19.000Z</time>
      </trkpt>
      <trkpt lat="44.49094" lon="6.20653">
        <ele>1324</ele>
        <time>2023-04-21T13:14:20.000Z</time>
      </trkpt>
      <trkpt lat="44.49094" lon="6.20653">
        <ele>1324</ele>
        <time>2023-04-21T13:14:21.000Z</time>
      </trkpt>
      <trkpt lat="44.49094" lon="6.20653">
        <ele>1324</ele>
        <time>2023-04-21T13:14:22.000Z</time>
      </trkpt>
      <trkpt lat="44.49094" lon="6.20653">
        <ele>1324</ele>
        <time>2023-04-21T13:14:23.000Z</time>
      </trkpt>
      <trkpt lat="44.49094" lon="6.20653">
        <ele>1324</ele>
        <time>2023-04-21T13:14:24.000Z</time>
      </trkpt>
      <trkpt lat="44.49094" lon="6.20653">
        <ele>1324</ele>
        <time>2023-04-21T13:14:25.000Z</time>
      </trkpt>
      <trkpt lat="44.49094" lon="6.20653">
        <ele>1324</ele>
        <time>2023-04-21T13:14:26.000Z</time>
      </trkpt>
      <trkpt lat="44.49094" lon="6.20653">
        <ele>1323</ele>
        <time>2023-04-21T13:14:27.000Z</time>
      </trkpt>
      <trkpt lat="44.49094" lon="6.20653">
        <ele>1323</ele>
        <time>2023-04-21T13:14:28.000Z</time>
      </trkpt>
      <trkpt lat="44.49094" lon="6.20653">
        <ele>1323</ele>
        <time>2023-04-21T13:14:29.000Z</time>
      </trkpt>
      <trkpt lat="44.49094" lon="6.20653">
        <ele>1323</ele>
        <time>2023-04-21T13:14:30.000Z</time>
      </trkpt>
      <trkpt lat="44.49094" lon="6.20653">
        <ele>1323</ele>
        <time>2023-04-21T13:14:31.000Z</time>
      </trkpt>
      <trkpt lat="44.49094" lon="6.20653">
        <ele>1323</ele>
        <time>2023-04-21T13:14:32.000Z</time>
      </trkpt>
      <trkpt lat="44.49094" lon="6.20653">
        <ele>1323</ele>
        <time>2023-04-21T13:14:33.000Z</time>
      </trkpt>
      <trkpt lat="44.49094" lon="6.20653">
        <ele>1323</ele>
        <time>2023-04-21T13:14:34.000Z</time>
      </trkpt>
      <trkpt lat="44.49094" lon="6.20653">
        <ele>1323</ele>
        <time>2023-04-21T13:14:35.000Z</time>
      </trkpt>
      <trkpt lat="44.49094" lon="6.20652">
        <ele>1323</ele>
        <time>2023-04-21T13:14:36.000Z</time>
      </trkpt>
      <trkpt lat="44.49094" lon="6.20652">
        <ele>1324</ele>
        <time>2023-04-21T13:14:37.000Z</time>
      </trkpt>
      <trkpt lat="44.49094" lon="6.20652">
        <ele>1324</ele>
        <time>2023-04-21T13:14:38.000Z</time>
      </trkpt>
      <trkpt lat="44.49094" lon="6.20652">
        <ele>1324</ele>
        <time>2023-04-21T13:14:39.000Z</time>
      </trkpt>
      <trkpt lat="44.49094" lon="6.20652">
        <ele>1324</ele>
        <time>2023-04-21T13:14:40.000Z</time>
      </trkpt>
      <trkpt lat="44.49094" lon="6.20652">
        <ele>1324</ele>
        <time>2023-04-21T13:14:41.000Z</time>
      </trkpt>
      <trkpt lat="44.49094" lon="6.20652">
        <ele>1324</ele>
        <time>2023-04-21T13:14:42.000Z</time>
      </trkpt>
      <trkpt lat="44.49094" lon="6.20652">
        <ele>1324</ele>
        <time>2023-04-21T13:14:43.000Z</time>
      </trkpt>
      <trkpt lat="44.49094" lon="6.20652">
        <ele>1324</ele>
        <time>2023-04-21T13:14:44.000Z</time>
      </trkpt>
      <trkpt lat="44.49094" lon="6.20653">
        <ele>1324</ele>
        <time>2023-04-21T13:14:45.000Z</time>
      </trkpt>
      <trkpt lat="44.49094" lon="6.20653">
        <ele>1323</ele>
        <time>2023-04-21T13:14:46.000Z</time>
      </trkpt>
      <trkpt lat="44.49094" lon="6.20653">
        <ele>1323</ele>
        <time>2023-04-21T13:14:47.000Z</time>
      </trkpt>
      <trkpt lat="44.49094" lon="6.20653">
        <ele>1323</ele>
        <time>2023-04-21T13:14:48.000Z</time>
      </trkpt>
      <trkpt lat="44.49094" lon="6.20653">
        <ele>1323</ele>
        <time>2023-04-21T13:14:49.000Z</time>
      </trkpt>
      <trkpt lat="44.49094" lon="6.20653">
        <ele>1323</ele>
        <time>2023-04-21T13:14:50.000Z</time>
      </trkpt>
      <trkpt lat="44.49094" lon="6.20653">
        <ele>1322</ele>
        <time>2023-04-21T13:14:51.000Z</time>
      </trkpt>
      <trkpt lat="44.49094" lon="6.20653">
        <ele>1322</ele>
        <time>2023-04-21T13:14:52.000Z</time>
      </trkpt>
      <trkpt lat="44.49094" lon="6.20653">
        <ele>1322</ele>
        <time>2023-04-21T13:14:53.000Z</time>
      </trkpt>
      <trkpt lat="44.49094" lon="6.20653">
        <ele>1322</ele>
        <time>2023-04-21T13:14:54.000Z</time>
      </trkpt>
      <trkpt lat="44.49094" lon="6.20653">
        <ele>1322</ele>
        <time>2023-04-21T13:14:55.000Z</time>
      </trkpt>
      <trkpt lat="44.49094" lon="6.20653">
        <ele>1322</ele>
        <time>2023-04-21T13:14:56.000Z</time>
      </trkpt>
      <trkpt lat="44.49094" lon="6.20653">
        <ele>1323</ele>
        <time>2023-04-21T13:14:57.000Z</time>
      </trkpt>
      <trkpt lat="44.49094" lon="6.20653">
        <ele>1323</ele>
        <time>2023-04-21T13:14:58.000Z</time>
      </trkpt>
      <trkpt lat="44.49094" lon="6.20653">
        <ele>1323</ele>
        <time>2023-04-21T13:14:59.000Z</time>
      </trkpt>
      <trkpt lat="44.49094" lon="6.20653">
        <ele>1323</ele>
        <time>2023-04-21T13:15:00.000Z</time>
      </trkpt>
      <trkpt lat="44.49094" lon="6.20653">
        <ele>1323</ele>
        <time>2023-04-21T13:15:01.000Z</time>
      </trkpt>
      <trkpt lat="44.49094" lon="6.20653">
        <ele>1323</ele>
        <time>2023-04-21T13:15:02.000Z</time>
      </trkpt>
      <trkpt lat="44.49094" lon="6.20653">
        <ele>1323</ele>
        <time>2023-04-21T13:15:03.000Z</time>
      </trkpt>
      <trkpt lat="44.49094" lon="6.20653">
        <ele>1323</ele>
        <time>2023-04-21T13:15:04.000Z</time>
      </trkpt>
      <trkpt lat="44.49094" lon="6.20653">
        <ele>1323</ele>
        <time>2023-04-21T13:15:05.000Z</time>
      </trkpt>
      <trkpt lat="44.49094" lon="6.20653">
        <ele>1323</ele>
        <time>2023-04-21T13:15:06.000Z</time>
      </trkpt>
      <trkpt lat="44.49094" lon="6.20653">
        <ele>1322</ele>
        <time>2023-04-21T13:15:07.000Z</time>
      </trkpt>
      <trkpt lat="44.49095" lon="6.20653">
        <ele>1322</ele>
        <time>2023-04-21T13:15:08.000Z</time>
      </trkpt>
      <trkpt lat="44.49095" lon="6.20653">
        <ele>1321</ele>
        <time>2023-04-21T13:15:09.000Z</time>
      </trkpt>
      <trkpt lat="44.49095" lon="6.20653">
        <ele>1321</ele>
        <time>2023-04-21T13:15:10.000Z</time>
      </trkpt>
      <trkpt lat="44.49095" lon="6.20653">
        <ele>1321</ele>
        <time>2023-04-21T13:15:11.000Z</time>
      </trkpt>
      <trkpt lat="44.49095" lon="6.20653">
        <ele>1321</ele>
        <time>2023-04-21T13:15:12.000Z</time>
      </trkpt>
      <trkpt lat="44.49095" lon="6.20653">
        <ele>1321</ele>
        <time>2023-04-21T13:15:13.000Z</time>
      </trkpt>
      <trkpt lat="44.49095" lon="6.20653">
        <ele>1320</ele>
        <time>2023-04-21T13:15:14.000Z</time>
      </trkpt>
      <trkpt lat="44.49095" lon="6.20652">
        <ele>1320</ele>
        <time>2023-04-21T13:15:15.000Z</time>
      </trkpt>
      <trkpt lat="44.49095" lon="6.20652">
        <ele>1320</ele>
        <time>2023-04-21T13:15:16.000Z</time>
      </trkpt>
      <trkpt lat="44.49095" lon="6.20652">
        <ele>1320</ele>
        <time>2023-04-21T13:15:17.000Z</time>
      </trkpt>
      <trkpt lat="44.49095" lon="6.20652">
        <ele>1320</ele>
        <time>2023-04-21T13:15:18.000Z</time>
      </trkpt>
      <trkpt lat="44.49095" lon="6.20653">
        <ele>1320</ele>
        <time>2023-04-21T13:15:19.000Z</time>
      </trkpt>
      <trkpt lat="44.49095" lon="6.20653">
        <ele>1320</ele>
        <time>2023-04-21T13:15:20.000Z</time>
      </trkpt>
      <trkpt lat="44.49095" lon="6.20653">
        <ele>1320</ele>
        <time>2023-04-21T13:15:21.000Z</time>
      </trkpt>
      <trkpt lat="44.49095" lon="6.20653">
        <ele>1320</ele>
        <time>2023-04-21T13:15:22.000Z</time>
      </trkpt>
      <trkpt lat="44.49095" lon="6.20653">
        <ele>1321</ele>
        <time>2023-04-21T13:15:23.000Z</time>
      </trkpt>
      <trkpt lat="44.49095" lon="6.20653">
        <ele>1321</ele>
        <time>2023-04-21T13:15:24.000Z</time>
      </trkpt>
      <trkpt lat="44.49095" lon="6.20653">
        <ele>1321</ele>
        <time>2023-04-21T13:15:25.000Z</time>
      </trkpt>
      <trkpt lat="44.49095" lon="6.20653">
        <ele>1321</ele>
        <time>2023-04-21T13:15:26.000Z</time>
      </trkpt>
      <trkpt lat="44.49095" lon="6.20653">
        <ele>1321</ele>
        <time>2023-04-21T13:15:27.000Z</time>
      </trkpt>
      <trkpt lat="44.49095" lon="6.20653">
        <ele>1321</ele>
        <time>2023-04-21T13:15:28.000Z</time>
      </trkpt>
      <trkpt lat="44.49095" lon="6.20653">
        <ele>1321</ele>
        <time>2023-04-21T13:15:29.000Z</time>
      </trkpt>
      <trkpt lat="44.49095" lon="6.20653">
        <ele>1321</ele>
        <time>2023-04-21T13:15:30.000Z</time>
      </trkpt>
      <trkpt lat="44.49095" lon="6.20653">
        <ele>1321</ele>
        <time>2023-04-21T13:15:31.000Z</time>
      </trkpt>
      <trkpt lat="44.49095" lon="6.20652">
        <ele>1321</ele>
        <time>2023-04-21T13:15:32.000Z</time>
      </trkpt>
      <trkpt lat="44.49095" lon="6.20652">
        <ele>1321</ele>
        <time>2023-04-21T13:15:33.000Z</time>
      </trkpt>
      <trkpt lat="44.49095" lon="6.20652">
        <ele>1320</ele>
        <time>2023-04-21T13:15:34.000Z</time>
      </trkpt>
      <trkpt lat="44.49095" lon="6.20652">
        <ele>1320</ele>
        <time>2023-04-21T13:15:35.000Z</time>
      </trkpt>
      <trkpt lat="44.49095" lon="6.20652">
        <ele>1320</ele>
        <time>2023-04-21T13:15:36.000Z</time>
      </trkpt>
      <trkpt lat="44.49095" lon="6.20652">
        <ele>1320</ele>
        <time>2023-04-21T13:15:37.000Z</time>
      </trkpt>
      <trkpt lat="44.49095" lon="6.20651">
        <ele>1320</ele>
        <time>2023-04-21T13:15:38.000Z</time>
      </trkpt>
      <trkpt lat="44.49095" lon="6.20651">
        <ele>1320</ele>
        <time>2023-04-21T13:15:39.000Z</time>
      </trkpt>
      <trkpt lat="44.49095" lon="6.20651">
        <ele>1320</ele>
        <time>2023-04-21T13:15:40.000Z</time>
      </trkpt>
      <trkpt lat="44.49095" lon="6.20651">
        <ele>1320</ele>
        <time>2023-04-21T13:15:41.000Z</time>
      </trkpt>
      <trkpt lat="44.49095" lon="6.20651">
        <ele>1320</ele>
        <time>2023-04-21T13:15:42.000Z</time>
      </trkpt>
      <trkpt lat="44.49095" lon="6.20651">
        <ele>1320</ele>
        <time>2023-04-21T13:15:43.000Z</time>
      </trkpt>
      <trkpt lat="44.49095" lon="6.20651">
        <ele>1320</ele>
        <time>2023-04-21T13:15:44.000Z</time>
      </trkpt>
      <trkpt lat="44.49095" lon="6.20651">
        <ele>1320</ele>
        <time>2023-04-21T13:15:45.000Z</time>
      </trkpt>
      <trkpt lat="44.49095" lon="6.20651">
        <ele>1320</ele>
        <time>2023-04-21T13:15:46.000Z</time>
      </trkpt>
      <trkpt lat="44.49095" lon="6.20651">
        <ele>1320</ele>
        <time>2023-04-21T13:15:47.000Z</time>
      </trkpt>
      <trkpt lat="44.49095" lon="6.20651">
        <ele>1321</ele>
        <time>2023-04-21T13:15:48.000Z</time>
      </trkpt>
      <trkpt lat="44.49095" lon="6.20651">
        <ele>1321</ele>
        <time>2023-04-21T13:15:49.000Z</time>
      </trkpt>
      <trkpt lat="44.49095" lon="6.20651">
        <ele>1321</ele>
        <time>2023-04-21T13:15:50.000Z</time>
      </trkpt>
      <trkpt lat="44.49095" lon="6.20651">
        <ele>1321</ele>
        <time>2023-04-21T13:15:51.000Z</time>
      </trkpt>
      <trkpt lat="44.49095" lon="6.20651">
        <ele>1321</ele>
        <time>2023-04-21T13:15:52.000Z</time>
      </trkpt>
      <trkpt lat="44.49095" lon="6.20651">
        <ele>1321</ele>
        <time>2023-04-21T13:15:53.000Z</time>
      </trkpt>
      <trkpt lat="44.49095" lon="6.20651">
        <ele>1321</ele>
        <time>2023-04-21T13:15:54.000Z</time>
      </trkpt>
      <trkpt lat="44.49095" lon="6.20651">
        <ele>1321</ele>
        <time>2023-04-21T13:15:55.000Z</time>
      </trkpt>
      <trkpt lat="44.49095" lon="6.20651">
        <ele>1321</ele>
        <time>2023-04-21T13:15:56.000Z</time>
      </trkpt>
      <trkpt lat="44.49095" lon="6.20651">
        <ele>1320</ele>
        <time>2023-04-21T13:15:57.000Z</time>
      </trkpt>
      <trkpt lat="44.49095" lon="6.20651">
        <ele>1320</ele>
        <time>2023-04-21T13:15:58.000Z</time>
      </trkpt>
      <trkpt lat="44.49095" lon="6.20651">
        <ele>1320</ele>
        <time>2023-04-21T13:15:59.000Z</time>
      </trkpt>
      <trkpt lat="44.49095" lon="6.20651">
        <ele>1320</ele>
        <time>2023-04-21T13:16:00.000Z</time>
      </trkpt>
      <trkpt lat="44.49095" lon="6.20651">
        <ele>1320</ele>
        <time>2023-04-21T13:16:01.000Z</time>
      </trkpt>
      <trkpt lat="44.49095" lon="6.20651">
        <ele>1320</ele>
        <time>2023-04-21T13:16:02.000Z</time>
      </trkpt>
      <trkpt lat="44.49095" lon="6.20652">
        <ele>1320</ele>
        <time>2023-04-21T13:16:03.000Z</time>
      </trkpt>
      <trkpt lat="44.49095" lon="6.20652">
        <ele>1320</ele>
        <time>2023-04-21T13:16:04.000Z</time>
      </trkpt>
      <trkpt lat="44.49095" lon="6.20652">
        <ele>1320</ele>
        <time>2023-04-21T13:16:05.000Z</time>
      </trkpt>
      <trkpt lat="44.49095" lon="6.20652">
        <ele>1320</ele>
        <time>2023-04-21T13:16:06.000Z</time>
      </trkpt>
      <trkpt lat="44.49095" lon="6.20652">
        <ele>1320</ele>
        <time>2023-04-21T13:16:07.000Z</time>
      </trkpt>
      <trkpt lat="44.49095" lon="6.20652">
        <ele>1320</ele>
        <time>2023-04-21T13:16:08.000Z</time>
      </trkpt>
      <trkpt lat="44.49095" lon="6.20652">
        <ele>1320</ele>
        <time>2023-04-21T13:16:09.000Z</time>
      </trkpt>
      <trkpt lat="44.49095" lon="6.20652">
        <ele>1319</ele>
        <time>2023-04-21T13:16:10.000Z</time>
      </trkpt>
      <trkpt lat="44.49095" lon="6.20652">
        <ele>1319</ele>
        <time>2023-04-21T13:16:11.000Z</time>
      </trkpt>
      <trkpt lat="44.49095" lon="6.20652">
        <ele>1319</ele>
        <time>2023-04-21T13:16:12.000Z</time>
      </trkpt>
      <trkpt lat="44.49095" lon="6.20651">
        <ele>1319</ele>
        <time>2023-04-21T13:16:13.000Z</time>
      </trkpt>
      <trkpt lat="44.49095" lon="6.20652">
        <ele>1319</ele>
        <time>2023-04-21T13:16:14.000Z</time>
      </trkpt>
      <trkpt lat="44.49095" lon="6.20652">
        <ele>1319</ele>
        <time>2023-04-21T13:16:15.000Z</time>
      </trkpt>
      <trkpt lat="44.49095" lon="6.20652">
        <ele>1319</ele>
        <time>2023-04-21T13:16:16.000Z</time>
      </trkpt>
      <trkpt lat="44.49095" lon="6.20652">
        <ele>1319</ele>
        <time>2023-04-21T13:16:17.000Z</time>
      </trkpt>
      <trkpt lat="44.49095" lon="6.20651">
        <ele>1319</ele>
        <time>2023-04-21T13:16:18.000Z</time>
      </trkpt>
      <trkpt lat="44.49095" lon="6.20651">
        <ele>1319</ele>
        <time>2023-04-21T13:16:19.000Z</time>
      </trkpt>
      <trkpt lat="44.49095" lon="6.20651">
        <ele>1319</ele>
        <time>2023-04-21T13:16:20.000Z</time>
      </trkpt>
      <trkpt lat="44.49095" lon="6.20651">
        <ele>1319</ele>
        <time>2023-04-21T13:16:21.000Z</time>
      </trkpt>
      <trkpt lat="44.49095" lon="6.20651">
        <ele>1319</ele>
        <time>2023-04-21T13:16:22.000Z</time>
      </trkpt>
      <trkpt lat="44.49095" lon="6.20651">
        <ele>1319</ele>
        <time>2023-04-21T13:16:23.000Z</time>
      </trkpt>
      <trkpt lat="44.49095" lon="6.20651">
        <ele>1319</ele>
        <time>2023-04-21T13:16:24.000Z</time>
      </trkpt>
      <trkpt lat="44.49095" lon="6.20651">
        <ele>1319</ele>
        <time>2023-04-21T13:16:25.000Z</time>
      </trkpt>
      <trkpt lat="44.49095" lon="6.20651">
        <ele>1319</ele>
        <time>2023-04-21T13:16:26.000Z</time>
      </trkpt>
      <trkpt lat="44.49095" lon="6.20651">
        <ele>1319</ele>
        <time>2023-04-21T13:16:27.000Z</time>
      </trkpt>
      <trkpt lat="44.49095" lon="6.20651">
        <ele>1319</ele>
        <time>2023-04-21T13:16:28.000Z</time>
      </trkpt>
      <trkpt lat="44.49095" lon="6.20651">
        <ele>1319</ele>
        <time>2023-04-21T13:16:29.000Z</time>
      </trkpt>
      <trkpt lat="44.49095" lon="6.20651">
        <ele>1318</ele>
        <time>2023-04-21T13:16:30.000Z</time>
      </trkpt>
      <trkpt lat="44.49095" lon="6.20651">
        <ele>1318</ele>
        <time>2023-04-21T13:16:31.000Z</time>
      </trkpt>
      <trkpt lat="44.49095" lon="6.20651">
        <ele>1318</ele>
        <time>2023-04-21T13:16:32.000Z</time>
      </trkpt>
      <trkpt lat="44.49095" lon="6.20651">
        <ele>1319</ele>
        <time>2023-04-21T13:16:33.000Z</time>
      </trkpt>
      <trkpt lat="44.49095" lon="6.20651">
        <ele>1319</ele>
        <time>2023-04-21T13:16:34.000Z</time>
      </trkpt>
      <trkpt lat="44.49095" lon="6.20651">
        <ele>1319</ele>
        <time>2023-04-21T13:16:35.000Z</time>
      </trkpt>
      <trkpt lat="44.49095" lon="6.20651">
        <ele>1319</ele>
        <time>2023-04-21T13:16:36.000Z</time>
      </trkpt>
      <trkpt lat="44.49095" lon="6.20651">
        <ele>1319</ele>
        <time>2023-04-21T13:16:37.000Z</time>
      </trkpt>
      <trkpt lat="44.49095" lon="6.20651">
        <ele>1318</ele>
        <time>2023-04-21T13:16:38.000Z</time>
      </trkpt>
      <trkpt lat="44.49095" lon="6.20651">
        <ele>1318</ele>
        <time>2023-04-21T13:16:39.000Z</time>
      </trkpt>
      <trkpt lat="44.49095" lon="6.20651">
        <ele>1318</ele>
        <time>2023-04-21T13:16:40.000Z</time>
      </trkpt>
      <trkpt lat="44.49095" lon="6.20651">
        <ele>1318</ele>
        <time>2023-04-21T13:16:41.000Z</time>
      </trkpt>
      <trkpt lat="44.49095" lon="6.20651">
        <ele>1318</ele>
        <time>2023-04-21T13:16:42.000Z</time>
      </trkpt>
      <trkpt lat="44.49095" lon="6.20651">
        <ele>1319</ele>
        <time>2023-04-21T13:16:43.000Z</time>
      </trkpt>
      <trkpt lat="44.49095" lon="6.20651">
        <ele>1318</ele>
        <time>2023-04-21T13:16:44.000Z</time>
      </trkpt>
      <trkpt lat="44.49095" lon="6.20651">
        <ele>1318</ele>
        <time>2023-04-21T13:16:45.000Z</time>
      </trkpt>
      <trkpt lat="44.49095" lon="6.20651">
        <ele>1319</ele>
        <time>2023-04-21T13:16:46.000Z</time>
      </trkpt>
      <trkpt lat="44.49095" lon="6.20651">
        <ele>1319</ele>
        <time>2023-04-21T13:16:47.000Z</time>
      </trkpt>
      <trkpt lat="44.49095" lon="6.20651">
        <ele>1319</ele>
        <time>2023-04-21T13:16:48.000Z</time>
      </trkpt>
      <trkpt lat="44.49095" lon="6.20651">
        <ele>1318</ele>
        <time>2023-04-21T13:16:49.000Z</time>
      </trkpt>
      <trkpt lat="44.49095" lon="6.20651">
        <ele>1319</ele>
        <time>2023-04-21T13:16:50.000Z</time>
      </trkpt>
      <trkpt lat="44.49095" lon="6.20651">
        <ele>1318</ele>
        <time>2023-04-21T13:16:51.000Z</time>
      </trkpt>
      <trkpt lat="44.49095" lon="6.20651">
        <ele>1318</ele>
        <time>2023-04-21T13:16:52.000Z</time>
      </trkpt>
      <trkpt lat="44.49095" lon="6.20651">
        <ele>1318</ele>
        <time>2023-04-21T13:16:53.000Z</time>
      </trkpt>
      <trkpt lat="44.49095" lon="6.20651">
        <ele>1318</ele>
        <time>2023-04-21T13:16:54.000Z</time>
      </trkpt>
      <trkpt lat="44.49095" lon="6.20651">
        <ele>1319</ele>
        <time>2023-04-21T13:16:55.000Z</time>
      </trkpt>
      <trkpt lat="44.49095" lon="6.20651">
        <ele>1319</ele>
        <time>2023-04-21T13:16:56.000Z</time>
      </trkpt>
      <trkpt lat="44.49095" lon="6.20651">
        <ele>1319</ele>
        <time>2023-04-21T13:16:57.000Z</time>
      </trkpt>
      <trkpt lat="44.49095" lon="6.20651">
        <ele>1319</ele>
        <time>2023-04-21T13:16:58.000Z</time>
      </trkpt>
      <trkpt lat="44.49095" lon="6.20651">
        <ele>1318</ele>
        <time>2023-04-21T13:16:59.000Z</time>
      </trkpt>
      <trkpt lat="44.49095" lon="6.20651">
        <ele>1318</ele>
        <time>2023-04-21T13:17:00.000Z</time>
      </trkpt>
      <trkpt lat="44.49095" lon="6.20651">
        <ele>1318</ele>
        <time>2023-04-21T13:17:01.000Z</time>
      </trkpt>
      <trkpt lat="44.49095" lon="6.20651">
        <ele>1318</ele>
        <time>2023-04-21T13:17:02.000Z</time>
      </trkpt>
      <trkpt lat="44.49095" lon="6.20651">
        <ele>1318</ele>
        <time>2023-04-21T13:17:03.000Z</time>
      </trkpt>
      <trkpt lat="44.49095" lon="6.20651">
        <ele>1318</ele>
        <time>2023-04-21T13:17:04.000Z</time>
      </trkpt>
      <trkpt lat="44.49095" lon="6.20651">
        <ele>1318</ele>
        <time>2023-04-21T13:17:05.000Z</time>
      </trkpt>
      <trkpt lat="44.49095" lon="6.20651">
        <ele>1318</ele>
        <time>2023-04-21T13:17:06.000Z</time>
      </trkpt>
      <trkpt lat="44.49095" lon="6.20651">
        <ele>1318</ele>
        <time>2023-04-21T13:17:07.000Z</time>
      </trkpt>
      <trkpt lat="44.49095" lon="6.20651">
        <ele>1320</ele>
        <time>2023-04-21T13:17:08.000Z</time>
      </trkpt>
      <trkpt lat="44.49095" lon="6.20651">
        <ele>1320</ele>
        <time>2023-04-21T13:17:09.000Z</time>
      </trkpt>
      <trkpt lat="44.49096" lon="6.20651">
        <ele>1320</ele>
        <time>2023-04-21T13:17:10.000Z</time>
      </trkpt>
      <trkpt lat="44.49096" lon="6.20651">
        <ele>1319</ele>
        <time>2023-04-21T13:17:11.000Z</time>
      </trkpt>
      <trkpt lat="44.49096" lon="6.2065">
        <ele>1319</ele>
        <time>2023-04-21T13:17:12.000Z</time>
      </trkpt>
      <trkpt lat="44.49096" lon="6.2065">
        <ele>1319</ele>
        <time>2023-04-21T13:17:13.000Z</time>
      </trkpt>
      <trkpt lat="44.49096" lon="6.2065">
        <ele>1319</ele>
        <time>2023-04-21T13:17:14.000Z</time>
      </trkpt>
      <trkpt lat="44.49096" lon="6.2065">
        <ele>1319</ele>
        <time>2023-04-21T13:17:15.000Z</time>
      </trkpt>
      <trkpt lat="44.49096" lon="6.2065">
        <ele>1318</ele>
        <time>2023-04-21T13:17:16.000Z</time>
      </trkpt>
      <trkpt lat="44.49096" lon="6.2065">
        <ele>1318</ele>
        <time>2023-04-21T13:17:17.000Z</time>
      </trkpt>
      <trkpt lat="44.49097" lon="6.2065">
        <ele>1318</ele>
        <time>2023-04-21T13:17:18.000Z</time>
      </trkpt>
      <trkpt lat="44.49098" lon="6.2065">
        <ele>1319</ele>
        <time>2023-04-21T13:17:19.000Z</time>
      </trkpt>
      <trkpt lat="44.491" lon="6.20649">
        <ele>1319</ele>
        <time>2023-04-21T13:17:20.000Z</time>
      </trkpt>
      <trkpt lat="44.49101" lon="6.20649">
        <ele>1319</ele>
        <time>2023-04-21T13:17:21.000Z</time>
      </trkpt>
      <trkpt lat="44.49103" lon="6.20649">
        <ele>1319</ele>
        <time>2023-04-21T13:17:22.000Z</time>
      </trkpt>
      <trkpt lat="44.49105" lon="6.20649">
        <ele>1319</ele>
        <time>2023-04-21T13:17:23.000Z</time>
      </trkpt>
      <trkpt lat="44.49107" lon="6.20648">
        <ele>1319</ele>
        <time>2023-04-21T13:17:24.000Z</time>
      </trkpt>
      <trkpt lat="44.49108" lon="6.20648">
        <ele>1320</ele>
        <time>2023-04-21T13:17:25.000Z</time>
      </trkpt>
      <trkpt lat="44.4911" lon="6.20648">
        <ele>1320</ele>
        <time>2023-04-21T13:17:26.000Z</time>
      </trkpt>
      <trkpt lat="44.49112" lon="6.20648">
        <ele>1321</ele>
        <time>2023-04-21T13:17:27.000Z</time>
      </trkpt>
      <trkpt lat="44.49115" lon="6.20648">
        <ele>1321</ele>
        <time>2023-04-21T13:17:28.000Z</time>
      </trkpt>
      <trkpt lat="44.49117" lon="6.20648">
        <ele>1321</ele>
        <time>2023-04-21T13:17:29.000Z</time>
      </trkpt>
      <trkpt lat="44.49119" lon="6.20648">
        <ele>1322</ele>
        <time>2023-04-21T13:17:30.000Z</time>
      </trkpt>
      <trkpt lat="44.49121" lon="6.20649">
        <ele>1322</ele>
        <time>2023-04-21T13:17:31.000Z</time>
      </trkpt>
      <trkpt lat="44.49124" lon="6.20649">
        <ele>1322</ele>
        <time>2023-04-21T13:17:32.000Z</time>
      </trkpt>
      <trkpt lat="44.49126" lon="6.2065">
        <ele>1323</ele>
        <time>2023-04-21T13:17:33.000Z</time>
      </trkpt>
      <trkpt lat="44.49128" lon="6.20651">
        <ele>1324</ele>
        <time>2023-04-21T13:17:34.000Z</time>
      </trkpt>
      <trkpt lat="44.4913" lon="6.20651">
        <ele>1324</ele>
        <time>2023-04-21T13:17:35.000Z</time>
      </trkpt>
      <trkpt lat="44.49132" lon="6.20652">
        <ele>1325</ele>
        <time>2023-04-21T13:17:36.000Z</time>
      </trkpt>
      <trkpt lat="44.49134" lon="6.20653">
        <ele>1325</ele>
        <time>2023-04-21T13:17:37.000Z</time>
      </trkpt>
      <trkpt lat="44.49137" lon="6.20654">
        <ele>1326</ele>
        <time>2023-04-21T13:17:38.000Z</time>
      </trkpt>
      <trkpt lat="44.49139" lon="6.20654">
        <ele>1326</ele>
        <time>2023-04-21T13:17:39.000Z</time>
      </trkpt>
      <trkpt lat="44.49141" lon="6.20655">
        <ele>1327</ele>
        <time>2023-04-21T13:17:40.000Z</time>
      </trkpt>
      <trkpt lat="44.49143" lon="6.20656">
        <ele>1327</ele>
        <time>2023-04-21T13:17:41.000Z</time>
      </trkpt>
      <trkpt lat="44.49146" lon="6.20657">
        <ele>1328</ele>
        <time>2023-04-21T13:17:42.000Z</time>
      </trkpt>
      <trkpt lat="44.49148" lon="6.20657">
        <ele>1329</ele>
        <time>2023-04-21T13:17:43.000Z</time>
      </trkpt>
      <trkpt lat="44.4915" lon="6.20657">
        <ele>1329</ele>
        <time>2023-04-21T13:17:44.000Z</time>
      </trkpt>
      <trkpt lat="44.49152" lon="6.20658">
        <ele>1330</ele>
        <time>2023-04-21T13:17:45.000Z</time>
      </trkpt>
      <trkpt lat="44.49154" lon="6.20658">
        <ele>1331</ele>
        <time>2023-04-21T13:17:46.000Z</time>
      </trkpt>
      <trkpt lat="44.49157" lon="6.20659">
        <ele>1331</ele>
        <time>2023-04-21T13:17:47.000Z</time>
      </trkpt>
      <trkpt lat="44.49159" lon="6.2066">
        <ele>1331</ele>
        <time>2023-04-21T13:17:48.000Z</time>
      </trkpt>
      <trkpt lat="44.49161" lon="6.2066">
        <ele>1332</ele>
        <time>2023-04-21T13:17:49.000Z</time>
      </trkpt>
      <trkpt lat="44.49164" lon="6.20661">
        <ele>1333</ele>
        <time>2023-04-21T13:17:50.000Z</time>
      </trkpt>
      <trkpt lat="44.49166" lon="6.20661">
        <ele>1333</ele>
        <time>2023-04-21T13:17:51.000Z</time>
      </trkpt>
      <trkpt lat="44.49168" lon="6.20661">
        <ele>1333</ele>
        <time>2023-04-21T13:17:52.000Z</time>
      </trkpt>
      <trkpt lat="44.4917" lon="6.20661">
        <ele>1334</ele>
        <time>2023-04-21T13:17:53.000Z</time>
      </trkpt>
      <trkpt lat="44.49172" lon="6.20661">
        <ele>1335</ele>
        <time>2023-04-21T13:17:54.000Z</time>
      </trkpt>
      <trkpt lat="44.49174" lon="6.2066">
        <ele>1335</ele>
        <time>2023-04-21T13:17:55.000Z</time>
      </trkpt>
      <trkpt lat="44.49176" lon="6.20659">
        <ele>1335</ele>
        <time>2023-04-21T13:17:56.000Z</time>
      </trkpt>
      <trkpt lat="44.49178" lon="6.20658">
        <ele>1335</ele>
        <time>2023-04-21T13:17:57.000Z</time>
      </trkpt>
      <trkpt lat="44.4918" lon="6.20657">
        <ele>1335</ele>
        <time>2023-04-21T13:17:58.000Z</time>
      </trkpt>
      <trkpt lat="44.49182" lon="6.20655">
        <ele>1335</ele>
        <time>2023-04-21T13:17:59.000Z</time>
      </trkpt>
      <trkpt lat="44.49184" lon="6.20654">
        <ele>1335</ele>
        <time>2023-04-21T13:18:00.000Z</time>
      </trkpt>
      <trkpt lat="44.49186" lon="6.20652">
        <ele>1335</ele>
        <time>2023-04-21T13:18:01.000Z</time>
      </trkpt>
      <trkpt lat="44.49188" lon="6.20651">
        <ele>1335</ele>
        <time>2023-04-21T13:18:02.000Z</time>
      </trkpt>
      <trkpt lat="44.49189" lon="6.20649">
        <ele>1335</ele>
        <time>2023-04-21T13:18:03.000Z</time>
      </trkpt>
      <trkpt lat="44.49191" lon="6.20648">
        <ele>1335</ele>
        <time>2023-04-21T13:18:04.000Z</time>
      </trkpt>
      <trkpt lat="44.49193" lon="6.20646">
        <ele>1335</ele>
        <time>2023-04-21T13:18:05.000Z</time>
      </trkpt>
      <trkpt lat="44.49196" lon="6.20644">
        <ele>1335</ele>
        <time>2023-04-21T13:18:06.000Z</time>
      </trkpt>
      <trkpt lat="44.49198" lon="6.20642">
        <ele>1335</ele>
        <time>2023-04-21T13:18:07.000Z</time>
      </trkpt>
      <trkpt lat="44.49201" lon="6.2064">
        <ele>1334</ele>
        <time>2023-04-21T13:18:08.000Z</time>
      </trkpt>
      <trkpt lat="44.49203" lon="6.20639">
        <ele>1335</ele>
        <time>2023-04-21T13:18:09.000Z</time>
      </trkpt>
      <trkpt lat="44.49205" lon="6.20638">
        <ele>1335</ele>
        <time>2023-04-21T13:18:10.000Z</time>
      </trkpt>
      <trkpt lat="44.49208" lon="6.20637">
        <ele>1334</ele>
        <time>2023-04-21T13:18:11.000Z</time>
      </trkpt>
      <trkpt lat="44.4921" lon="6.20637">
        <ele>1334</ele>
        <time>2023-04-21T13:18:12.000Z</time>
      </trkpt>
      <trkpt lat="44.49213" lon="6.20636">
        <ele>1334</ele>
        <time>2023-04-21T13:18:13.000Z</time>
      </trkpt>
      <trkpt lat="44.49216" lon="6.20636">
        <ele>1334</ele>
        <time>2023-04-21T13:18:14.000Z</time>
      </trkpt>
      <trkpt lat="44.49218" lon="6.20635">
        <ele>1335</ele>
        <time>2023-04-21T13:18:15.000Z</time>
      </trkpt>
      <trkpt lat="44.49221" lon="6.20635">
        <ele>1335</ele>
        <time>2023-04-21T13:18:16.000Z</time>
      </trkpt>
      <trkpt lat="44.49223" lon="6.20634">
        <ele>1334</ele>
        <time>2023-04-21T13:18:17.000Z</time>
      </trkpt>
      <trkpt lat="44.49226" lon="6.20633">
        <ele>1335</ele>
        <time>2023-04-21T13:18:18.000Z</time>
      </trkpt>
      <trkpt lat="44.49228" lon="6.20633">
        <ele>1334</ele>
        <time>2023-04-21T13:18:19.000Z</time>
      </trkpt>
      <trkpt lat="44.49231" lon="6.20632">
        <ele>1335</ele>
        <time>2023-04-21T13:18:20.000Z</time>
      </trkpt>
      <trkpt lat="44.49234" lon="6.20632">
        <ele>1335</ele>
        <time>2023-04-21T13:18:21.000Z</time>
      </trkpt>
      <trkpt lat="44.49237" lon="6.20631">
        <ele>1335</ele>
        <time>2023-04-21T13:18:22.000Z</time>
      </trkpt>
      <trkpt lat="44.49239" lon="6.2063">
        <ele>1335</ele>
        <time>2023-04-21T13:18:23.000Z</time>
      </trkpt>
      <trkpt lat="44.49242" lon="6.20629">
        <ele>1335</ele>
        <time>2023-04-21T13:18:24.000Z</time>
      </trkpt>
      <trkpt lat="44.49245" lon="6.20628">
        <ele>1334</ele>
        <time>2023-04-21T13:18:25.000Z</time>
      </trkpt>
      <trkpt lat="44.49247" lon="6.20627">
        <ele>1335</ele>
        <time>2023-04-21T13:18:26.000Z</time>
      </trkpt>
      <trkpt lat="44.49249" lon="6.20626">
        <ele>1335</ele>
        <time>2023-04-21T13:18:27.000Z</time>
      </trkpt>
      <trkpt lat="44.49252" lon="6.20625">
        <ele>1334</ele>
        <time>2023-04-21T13:18:28.000Z</time>
      </trkpt>
      <trkpt lat="44.49255" lon="6.20624">
        <ele>1335</ele>
        <time>2023-04-21T13:18:29.000Z</time>
      </trkpt>
      <trkpt lat="44.49258" lon="6.20623">
        <ele>1335</ele>
        <time>2023-04-21T13:18:30.000Z</time>
      </trkpt>
      <trkpt lat="44.4926" lon="6.20622">
        <ele>1334</ele>
        <time>2023-04-21T13:18:31.000Z</time>
      </trkpt>
      <trkpt lat="44.49263" lon="6.20621">
        <ele>1335</ele>
        <time>2023-04-21T13:18:32.000Z</time>
      </trkpt>
      <trkpt lat="44.49266" lon="6.20621">
        <ele>1334</ele>
        <time>2023-04-21T13:18:33.000Z</time>
      </trkpt>
      <trkpt lat="44.49268" lon="6.20621">
        <ele>1335</ele>
        <time>2023-04-21T13:18:34.000Z</time>
      </trkpt>
      <trkpt lat="44.49271" lon="6.20622">
        <ele>1335</ele>
        <time>2023-04-21T13:18:35.000Z</time>
      </trkpt>
      <trkpt lat="44.49274" lon="6.20623">
        <ele>1335</ele>
        <time>2023-04-21T13:18:36.000Z</time>
      </trkpt>
      <trkpt lat="44.49276" lon="6.20624">
        <ele>1335</ele>
        <time>2023-04-21T13:18:37.000Z</time>
      </trkpt>
      <trkpt lat="44.49279" lon="6.20626">
        <ele>1335</ele>
        <time>2023-04-21T13:18:38.000Z</time>
      </trkpt>
      <trkpt lat="44.49281" lon="6.20628">
        <ele>1335</ele>
        <time>2023-04-21T13:18:39.000Z</time>
      </trkpt>
      <trkpt lat="44.49283" lon="6.2063">
        <ele>1335</ele>
        <time>2023-04-21T13:18:40.000Z</time>
      </trkpt>
      <trkpt lat="44.49284" lon="6.20633">
        <ele>1336</ele>
        <time>2023-04-21T13:18:41.000Z</time>
      </trkpt>
      <trkpt lat="44.49286" lon="6.20636">
        <ele>1336</ele>
        <time>2023-04-21T13:18:42.000Z</time>
      </trkpt>
      <trkpt lat="44.49287" lon="6.20639">
        <ele>1336</ele>
        <time>2023-04-21T13:18:43.000Z</time>
      </trkpt>
      <trkpt lat="44.49289" lon="6.20641">
        <ele>1336</ele>
        <time>2023-04-21T13:18:44.000Z</time>
      </trkpt>
      <trkpt lat="44.4929" lon="6.20643">
        <ele>1336</ele>
        <time>2023-04-21T13:18:45.000Z</time>
      </trkpt>
      <trkpt lat="44.49291" lon="6.20646">
        <ele>1336</ele>
        <time>2023-04-21T13:18:46.000Z</time>
      </trkpt>
      <trkpt lat="44.49293" lon="6.20648">
        <ele>1336</ele>
        <time>2023-04-21T13:18:47.000Z</time>
      </trkpt>
      <trkpt lat="44.49294" lon="6.2065">
        <ele>1337</ele>
        <time>2023-04-21T13:18:48.000Z</time>
      </trkpt>
      <trkpt lat="44.49296" lon="6.20652">
        <ele>1337</ele>
        <time>2023-04-21T13:18:49.000Z</time>
      </trkpt>
      <trkpt lat="44.49297" lon="6.20654">
        <ele>1337</ele>
        <time>2023-04-21T13:18:50.000Z</time>
      </trkpt>
      <trkpt lat="44.49299" lon="6.20655">
        <ele>1337</ele>
        <time>2023-04-21T13:18:51.000Z</time>
      </trkpt>
      <trkpt lat="44.49301" lon="6.20657">
        <ele>1338</ele>
        <time>2023-04-21T13:18:52.000Z</time>
      </trkpt>
      <trkpt lat="44.49302" lon="6.20658">
        <ele>1338</ele>
        <time>2023-04-21T13:18:53.000Z</time>
      </trkpt>
      <trkpt lat="44.49304" lon="6.20659">
        <ele>1338</ele>
        <time>2023-04-21T13:18:54.000Z</time>
      </trkpt>
      <trkpt lat="44.49305" lon="6.20659">
        <ele>1338</ele>
        <time>2023-04-21T13:18:55.000Z</time>
      </trkpt>
      <trkpt lat="44.49307" lon="6.20659">
        <ele>1338</ele>
        <time>2023-04-21T13:18:56.000Z</time>
      </trkpt>
      <trkpt lat="44.49307" lon="6.2066">
        <ele>1338</ele>
        <time>2023-04-21T13:18:57.000Z</time>
      </trkpt>
      <trkpt lat="44.49308" lon="6.20661">
        <ele>1338</ele>
        <time>2023-04-21T13:18:58.000Z</time>
      </trkpt>
      <trkpt lat="44.4931" lon="6.20661">
        <ele>1338</ele>
        <time>2023-04-21T13:18:59.000Z</time>
      </trkpt>
      <trkpt lat="44.49313" lon="6.2066">
        <ele>1337</ele>
        <time>2023-04-21T13:19:00.000Z</time>
      </trkpt>
      <trkpt lat="44.49317" lon="6.20659">
        <ele>1336</ele>
        <time>2023-04-21T13:19:01.000Z</time>
      </trkpt>
      <trkpt lat="44.49321" lon="6.20657">
        <ele>1336</ele>
        <time>2023-04-21T13:19:02.000Z</time>
      </trkpt>
      <trkpt lat="44.49325" lon="6.20653">
        <ele>1335</ele>
        <time>2023-04-21T13:19:03.000Z</time>
      </trkpt>
      <trkpt lat="44.49329" lon="6.20648">
        <ele>1335</ele>
        <time>2023-04-21T13:19:04.000Z</time>
      </trkpt>
      <trkpt lat="44.49334" lon="6.20643">
        <ele>1335</ele>
        <time>2023-04-21T13:19:05.000Z</time>
      </trkpt>
      <trkpt lat="44.4934" lon="6.20638">
        <ele>1335</ele>
        <time>2023-04-21T13:19:06.000Z</time>
      </trkpt>
      <trkpt lat="44.49344" lon="6.20634">
        <ele>1335</ele>
        <time>2023-04-21T13:19:07.000Z</time>
      </trkpt>
      <trkpt lat="44.49349" lon="6.2063">
        <ele>1335</ele>
        <time>2023-04-21T13:19:08.000Z</time>
      </trkpt>
      <trkpt lat="44.49354" lon="6.20626">
        <ele>1335</ele>
        <time>2023-04-21T13:19:09.000Z</time>
      </trkpt>
      <trkpt lat="44.49358" lon="6.20622">
        <ele>1336</ele>
        <time>2023-04-21T13:19:10.000Z</time>
      </trkpt>
      <trkpt lat="44.49364" lon="6.20623">
        <ele>1335</ele>
        <time>2023-04-21T13:19:11.000Z</time>
      </trkpt>
      <trkpt lat="44.49369" lon="6.20621">
        <ele>1337</ele>
        <time>2023-04-21T13:19:12.000Z</time>
      </trkpt>
      <trkpt lat="44.49374" lon="6.2062">
        <ele>1336</ele>
        <time>2023-04-21T13:19:13.000Z</time>
      </trkpt>
      <trkpt lat="44.49379" lon="6.20621">
        <ele>1337</ele>
        <time>2023-04-21T13:19:14.000Z</time>
      </trkpt>
      <trkpt lat="44.49386" lon="6.20624">
        <ele>1339</ele>
        <time>2023-04-21T13:19:15.000Z</time>
      </trkpt>
      <trkpt lat="44.49391" lon="6.20624">
        <ele>1340</ele>
        <time>2023-04-21T13:19:16.000Z</time>
      </trkpt>
      <trkpt lat="44.49396" lon="6.20624">
        <ele>1341</ele>
        <time>2023-04-21T13:19:17.000Z</time>
      </trkpt>
      <trkpt lat="44.49402" lon="6.20625">
        <ele>1342</ele>
        <time>2023-04-21T13:19:18.000Z</time>
      </trkpt>
      <trkpt lat="44.49408" lon="6.20625">
        <ele>1343</ele>
        <time>2023-04-21T13:19:19.000Z</time>
      </trkpt>
      <trkpt lat="44.49411" lon="6.20621">
        <ele>1348</ele>
        <time>2023-04-21T13:19:20.000Z</time>
      </trkpt>
      <trkpt lat="44.49411" lon="6.20614">
        <ele>1349</ele>
        <time>2023-04-21T13:19:21.000Z</time>
      </trkpt>
      <trkpt lat="44.49413" lon="6.2061">
        <ele>1351</ele>
        <time>2023-04-21T13:19:22.000Z</time>
      </trkpt>
      <trkpt lat="44.49411" lon="6.20609">
        <ele>1357</ele>
        <time>2023-04-21T13:19:23.000Z</time>
      </trkpt>
      <trkpt lat="44.49409" lon="6.20607">
        <ele>1361</ele>
        <time>2023-04-21T13:19:24.000Z</time>
      </trkpt>
      <trkpt lat="44.49407" lon="6.20606">
        <ele>1367</ele>
        <time>2023-04-21T13:19:25.000Z</time>
      </trkpt>
      <trkpt lat="44.49405" lon="6.20604">
        <ele>1369</ele>
        <time>2023-04-21T13:19:26.000Z</time>
      </trkpt>
      <trkpt lat="44.49404" lon="6.20603">
        <ele>1371</ele>
        <time>2023-04-21T13:19:27.000Z</time>
      </trkpt>
      <trkpt lat="44.494" lon="6.20602">
        <ele>1373</ele>
        <time>2023-04-21T13:19:28.000Z</time>
      </trkpt>
      <trkpt lat="44.49398" lon="6.20601">
        <ele>1374</ele>
        <time>2023-04-21T13:19:29.000Z</time>
      </trkpt>
      <trkpt lat="44.49396" lon="6.20599">
        <ele>1375</ele>
        <time>2023-04-21T13:19:30.000Z</time>
      </trkpt>
      <trkpt lat="44.49394" lon="6.20598">
        <ele>1376</ele>
        <time>2023-04-21T13:19:31.000Z</time>
      </trkpt>
      <trkpt lat="44.49393" lon="6.20596">
        <ele>1377</ele>
        <time>2023-04-21T13:19:32.000Z</time>
      </trkpt>
      <trkpt lat="44.49391" lon="6.20595">
        <ele>1379</ele>
        <time>2023-04-21T13:19:33.000Z</time>
      </trkpt>
      <trkpt lat="44.4939" lon="6.20593">
        <ele>1379</ele>
        <time>2023-04-21T13:19:34.000Z</time>
      </trkpt>
      <trkpt lat="44.49389" lon="6.20592">
        <ele>1379</ele>
        <time>2023-04-21T13:19:35.000Z</time>
      </trkpt>
      <trkpt lat="44.49387" lon="6.2059">
        <ele>1380</ele>
        <time>2023-04-21T13:19:36.000Z</time>
      </trkpt>
      <trkpt lat="44.49386" lon="6.20589">
        <ele>1380</ele>
        <time>2023-04-21T13:19:37.000Z</time>
      </trkpt>
      <trkpt lat="44.49382" lon="6.20587">
        <ele>1381</ele>
        <time>2023-04-21T13:19:38.000Z</time>
      </trkpt>
      <trkpt lat="44.49379" lon="6.20585">
        <ele>1381</ele>
        <time>2023-04-21T13:19:39.000Z</time>
      </trkpt>
      <trkpt lat="44.49376" lon="6.20584">
        <ele>1382</ele>
        <time>2023-04-21T13:19:40.000Z</time>
      </trkpt>
      <trkpt lat="44.49373" lon="6.20582">
        <ele>1381</ele>
        <time>2023-04-21T13:19:41.000Z</time>
      </trkpt>
      <trkpt lat="44.4937" lon="6.2058">
        <ele>1381</ele>
        <time>2023-04-21T13:19:42.000Z</time>
      </trkpt>
      <trkpt lat="44.49367" lon="6.20578">
        <ele>1381</ele>
        <time>2023-04-21T13:19:43.000Z</time>
      </trkpt>
      <trkpt lat="44.49365" lon="6.20576">
        <ele>1380</ele>
        <time>2023-04-21T13:19:44.000Z</time>
      </trkpt>
      <trkpt lat="44.49362" lon="6.20573">
        <ele>1380</ele>
        <time>2023-04-21T13:19:45.000Z</time>
      </trkpt>
      <trkpt lat="44.49361" lon="6.2057">
        <ele>1378</ele>
        <time>2023-04-21T13:19:46.000Z</time>
      </trkpt>
      <trkpt lat="44.4936" lon="6.20568">
        <ele>1376</ele>
        <time>2023-04-21T13:19:47.000Z</time>
      </trkpt>
      <trkpt lat="44.49359" lon="6.20562">
        <ele>1371</ele>
        <time>2023-04-21T13:19:48.000Z</time>
      </trkpt>
      <trkpt lat="44.49359" lon="6.20558">
        <ele>1370</ele>
        <time>2023-04-21T13:19:49.000Z</time>
      </trkpt>
      <trkpt lat="44.49359" lon="6.20554">
        <ele>1369</ele>
        <time>2023-04-21T13:19:50.000Z</time>
      </trkpt>
      <trkpt lat="44.4936" lon="6.20549">
        <ele>1367</ele>
        <time>2023-04-21T13:19:51.000Z</time>
      </trkpt>
      <trkpt lat="44.4936" lon="6.20544">
        <ele>1365</ele>
        <time>2023-04-21T13:19:52.000Z</time>
      </trkpt>
      <trkpt lat="44.4936" lon="6.20538">
        <ele>1363</ele>
        <time>2023-04-21T13:19:53.000Z</time>
      </trkpt>
      <trkpt lat="44.49361" lon="6.20534">
        <ele>1362</ele>
        <time>2023-04-21T13:19:54.000Z</time>
      </trkpt>
      <trkpt lat="44.49361" lon="6.2053">
        <ele>1362</ele>
        <time>2023-04-21T13:19:55.000Z</time>
      </trkpt>
      <trkpt lat="44.49361" lon="6.20525">
        <ele>1361</ele>
        <time>2023-04-21T13:19:56.000Z</time>
      </trkpt>
      <trkpt lat="44.49362" lon="6.20521">
        <ele>1361</ele>
        <time>2023-04-21T13:19:57.000Z</time>
      </trkpt>
      <trkpt lat="44.49363" lon="6.20517">
        <ele>1361</ele>
        <time>2023-04-21T13:19:58.000Z</time>
      </trkpt>
      <trkpt lat="44.49365" lon="6.20514">
        <ele>1361</ele>
        <time>2023-04-21T13:19:59.000Z</time>
      </trkpt>
      <trkpt lat="44.49367" lon="6.2051">
        <ele>1361</ele>
        <time>2023-04-21T13:20:00.000Z</time>
      </trkpt>
      <trkpt lat="44.49369" lon="6.20507">
        <ele>1361</ele>
        <time>2023-04-21T13:20:01.000Z</time>
      </trkpt>
      <trkpt lat="44.49371" lon="6.20504">
        <ele>1360</ele>
        <time>2023-04-21T13:20:02.000Z</time>
      </trkpt>
      <trkpt lat="44.49373" lon="6.20501">
        <ele>1360</ele>
        <time>2023-04-21T13:20:03.000Z</time>
      </trkpt>
      <trkpt lat="44.49375" lon="6.20498">
        <ele>1360</ele>
        <time>2023-04-21T13:20:04.000Z</time>
      </trkpt>
      <trkpt lat="44.49378" lon="6.20496">
        <ele>1360</ele>
        <time>2023-04-21T13:20:05.000Z</time>
      </trkpt>
      <trkpt lat="44.49379" lon="6.20493">
        <ele>1360</ele>
        <time>2023-04-21T13:20:06.000Z</time>
      </trkpt>
      <trkpt lat="44.49381" lon="6.20489">
        <ele>1359</ele>
        <time>2023-04-21T13:20:07.000Z</time>
      </trkpt>
      <trkpt lat="44.49382" lon="6.20485">
        <ele>1359</ele>
        <time>2023-04-21T13:20:08.000Z</time>
      </trkpt>
      <trkpt lat="44.49383" lon="6.20481">
        <ele>1359</ele>
        <time>2023-04-21T13:20:09.000Z</time>
      </trkpt>
      <trkpt lat="44.49384" lon="6.20477">
        <ele>1358</ele>
        <time>2023-04-21T13:20:10.000Z</time>
      </trkpt>
      <trkpt lat="44.49384" lon="6.20473">
        <ele>1358</ele>
        <time>2023-04-21T13:20:11.000Z</time>
      </trkpt>
      <trkpt lat="44.49385" lon="6.2047">
        <ele>1357</ele>
        <time>2023-04-21T13:20:12.000Z</time>
      </trkpt>
      <trkpt lat="44.49385" lon="6.20466">
        <ele>1357</ele>
        <time>2023-04-21T13:20:13.000Z</time>
      </trkpt>
      <trkpt lat="44.49386" lon="6.20462">
        <ele>1357</ele>
        <time>2023-04-21T13:20:14.000Z</time>
      </trkpt>
      <trkpt lat="44.49387" lon="6.20458">
        <ele>1357</ele>
        <time>2023-04-21T13:20:15.000Z</time>
      </trkpt>
      <trkpt lat="44.49388" lon="6.20455">
        <ele>1357</ele>
        <time>2023-04-21T13:20:16.000Z</time>
      </trkpt>
      <trkpt lat="44.49389" lon="6.20451">
        <ele>1357</ele>
        <time>2023-04-21T13:20:17.000Z</time>
      </trkpt>
      <trkpt lat="44.49391" lon="6.20448">
        <ele>1357</ele>
        <time>2023-04-21T13:20:18.000Z</time>
      </trkpt>
      <trkpt lat="44.49392" lon="6.20445">
        <ele>1357</ele>
        <time>2023-04-21T13:20:19.000Z</time>
      </trkpt>
      <trkpt lat="44.49394" lon="6.20443">
        <ele>1357</ele>
        <time>2023-04-21T13:20:20.000Z</time>
      </trkpt>
      <trkpt lat="44.49397" lon="6.20442">
        <ele>1357</ele>
        <time>2023-04-21T13:20:21.000Z</time>
      </trkpt>
      <trkpt lat="44.49399" lon="6.20441">
        <ele>1358</ele>
        <time>2023-04-21T13:20:22.000Z</time>
      </trkpt>
      <trkpt lat="44.49402" lon="6.2044">
        <ele>1358</ele>
        <time>2023-04-21T13:20:23.000Z</time>
      </trkpt>
      <trkpt lat="44.49404" lon="6.20439">
        <ele>1358</ele>
        <time>2023-04-21T13:20:24.000Z</time>
      </trkpt>
      <trkpt lat="44.49407" lon="6.20438">
        <ele>1358</ele>
        <time>2023-04-21T13:20:25.000Z</time>
      </trkpt>
      <trkpt lat="44.4941" lon="6.20438">
        <ele>1358</ele>
        <time>2023-04-21T13:20:26.000Z</time>
      </trkpt>
      <trkpt lat="44.49413" lon="6.20438">
        <ele>1358</ele>
        <time>2023-04-21T13:20:27.000Z</time>
      </trkpt>
      <trkpt lat="44.49415" lon="6.20438">
        <ele>1358</ele>
        <time>2023-04-21T13:20:28.000Z</time>
      </trkpt>
      <trkpt lat="44.49418" lon="6.20437">
        <ele>1357</ele>
        <time>2023-04-21T13:20:29.000Z</time>
      </trkpt>
      <trkpt lat="44.49421" lon="6.20437">
        <ele>1357</ele>
        <time>2023-04-21T13:20:30.000Z</time>
      </trkpt>
      <trkpt lat="44.49424" lon="6.20438">
        <ele>1357</ele>
        <time>2023-04-21T13:20:31.000Z</time>
      </trkpt>
      <trkpt lat="44.49426" lon="6.20438">
        <ele>1357</ele>
        <time>2023-04-21T13:20:32.000Z</time>
      </trkpt>
      <trkpt lat="44.49428" lon="6.20439">
        <ele>1357</ele>
        <time>2023-04-21T13:20:33.000Z</time>
      </trkpt>
      <trkpt lat="44.49431" lon="6.20439">
        <ele>1357</ele>
        <time>2023-04-21T13:20:34.000Z</time>
      </trkpt>
      <trkpt lat="44.49433" lon="6.2044">
        <ele>1357</ele>
        <time>2023-04-21T13:20:35.000Z</time>
      </trkpt>
      <trkpt lat="44.49435" lon="6.2044">
        <ele>1357</ele>
        <time>2023-04-21T13:20:36.000Z</time>
      </trkpt>
      <trkpt lat="44.49438" lon="6.2044">
        <ele>1357</ele>
        <time>2023-04-21T13:20:37.000Z</time>
      </trkpt>
      <trkpt lat="44.4944" lon="6.2044">
        <ele>1357</ele>
        <time>2023-04-21T13:20:38.000Z</time>
      </trkpt>
      <trkpt lat="44.49443" lon="6.2044">
        <ele>1356</ele>
        <time>2023-04-21T13:20:39.000Z</time>
      </trkpt>
      <trkpt lat="44.49445" lon="6.2044">
        <ele>1357</ele>
        <time>2023-04-21T13:20:40.000Z</time>
      </trkpt>
      <trkpt lat="44.49448" lon="6.20441">
        <ele>1357</ele>
        <time>2023-04-21T13:20:41.000Z</time>
      </trkpt>
      <trkpt lat="44.4945" lon="6.2044">
        <ele>1357</ele>
        <time>2023-04-21T13:20:42.000Z</time>
      </trkpt>
      <trkpt lat="44.49452" lon="6.2044">
        <ele>1357</ele>
        <time>2023-04-21T13:20:43.000Z</time>
      </trkpt>
      <trkpt lat="44.49455" lon="6.2044">
        <ele>1357</ele>
        <time>2023-04-21T13:20:44.000Z</time>
      </trkpt>
      <trkpt lat="44.49457" lon="6.20439">
        <ele>1357</ele>
        <time>2023-04-21T13:20:45.000Z</time>
      </trkpt>
      <trkpt lat="44.49459" lon="6.20437">
        <ele>1358</ele>
        <time>2023-04-21T13:20:46.000Z</time>
      </trkpt>
      <trkpt lat="44.49461" lon="6.20435">
        <ele>1358</ele>
        <time>2023-04-21T13:20:47.000Z</time>
      </trkpt>
      <trkpt lat="44.49462" lon="6.20433">
        <ele>1359</ele>
        <time>2023-04-21T13:20:48.000Z</time>
      </trkpt>
      <trkpt lat="44.49463" lon="6.20429">
        <ele>1359</ele>
        <time>2023-04-21T13:20:49.000Z</time>
      </trkpt>
      <trkpt lat="44.49464" lon="6.20426">
        <ele>1360</ele>
        <time>2023-04-21T13:20:50.000Z</time>
      </trkpt>
      <trkpt lat="44.49464" lon="6.20422">
        <ele>1360</ele>
        <time>2023-04-21T13:20:51.000Z</time>
      </trkpt>
      <trkpt lat="44.49465" lon="6.20419">
        <ele>1360</ele>
        <time>2023-04-21T13:20:52.000Z</time>
      </trkpt>
      <trkpt lat="44.49465" lon="6.20416">
        <ele>1361</ele>
        <time>2023-04-21T13:20:53.000Z</time>
      </trkpt>
      <trkpt lat="44.49466" lon="6.20412">
        <ele>1361</ele>
        <time>2023-04-21T13:20:54.000Z</time>
      </trkpt>
      <trkpt lat="44.49465" lon="6.20409">
        <ele>1361</ele>
        <time>2023-04-21T13:20:55.000Z</time>
      </trkpt>
      <trkpt lat="44.49465" lon="6.20405">
        <ele>1361</ele>
        <time>2023-04-21T13:20:56.000Z</time>
      </trkpt>
      <trkpt lat="44.49466" lon="6.20402">
        <ele>1361</ele>
        <time>2023-04-21T13:20:57.000Z</time>
      </trkpt>
      <trkpt lat="44.49466" lon="6.20399">
        <ele>1362</ele>
        <time>2023-04-21T13:20:58.000Z</time>
      </trkpt>
      <trkpt lat="44.49466" lon="6.20395">
        <ele>1362</ele>
        <time>2023-04-21T13:20:59.000Z</time>
      </trkpt>
      <trkpt lat="44.49466" lon="6.20392">
        <ele>1362</ele>
        <time>2023-04-21T13:21:00.000Z</time>
      </trkpt>
      <trkpt lat="44.49467" lon="6.20388">
        <ele>1363</ele>
        <time>2023-04-21T13:21:01.000Z</time>
      </trkpt>
      <trkpt lat="44.49467" lon="6.20385">
        <ele>1363</ele>
        <time>2023-04-21T13:21:02.000Z</time>
      </trkpt>
      <trkpt lat="44.49467" lon="6.20381">
        <ele>1363</ele>
        <time>2023-04-21T13:21:03.000Z</time>
      </trkpt>
      <trkpt lat="44.49467" lon="6.20378">
        <ele>1364</ele>
        <time>2023-04-21T13:21:04.000Z</time>
      </trkpt>
      <trkpt lat="44.49467" lon="6.20375">
        <ele>1365</ele>
        <time>2023-04-21T13:21:05.000Z</time>
      </trkpt>
      <trkpt lat="44.49467" lon="6.20372">
        <ele>1365</ele>
        <time>2023-04-21T13:21:06.000Z</time>
      </trkpt>
      <trkpt lat="44.49466" lon="6.20369">
        <ele>1366</ele>
        <time>2023-04-21T13:21:07.000Z</time>
      </trkpt>
      <trkpt lat="44.49466" lon="6.20365">
        <ele>1366</ele>
        <time>2023-04-21T13:21:08.000Z</time>
      </trkpt>
      <trkpt lat="44.49466" lon="6.20361">
        <ele>1367</ele>
        <time>2023-04-21T13:21:09.000Z</time>
      </trkpt>
      <trkpt lat="44.49466" lon="6.20358">
        <ele>1367</ele>
        <time>2023-04-21T13:21:10.000Z</time>
      </trkpt>
      <trkpt lat="44.49466" lon="6.20354">
        <ele>1367</ele>
        <time>2023-04-21T13:21:11.000Z</time>
      </trkpt>
      <trkpt lat="44.49465" lon="6.20351">
        <ele>1368</ele>
        <time>2023-04-21T13:21:12.000Z</time>
      </trkpt>
      <trkpt lat="44.49465" lon="6.20347">
        <ele>1368</ele>
        <time>2023-04-21T13:21:13.000Z</time>
      </trkpt>
      <trkpt lat="44.49464" lon="6.20344">
        <ele>1368</ele>
        <time>2023-04-21T13:21:14.000Z</time>
      </trkpt>
      <trkpt lat="44.49464" lon="6.20341">
        <ele>1369</ele>
        <time>2023-04-21T13:21:15.000Z</time>
      </trkpt>
      <trkpt lat="44.49463" lon="6.20337">
        <ele>1369</ele>
        <time>2023-04-21T13:21:16.000Z</time>
      </trkpt>
      <trkpt lat="44.49463" lon="6.20334">
        <ele>1369</ele>
        <time>2023-04-21T13:21:17.000Z</time>
      </trkpt>
      <trkpt lat="44.49462" lon="6.2033">
        <ele>1369</ele>
        <time>2023-04-21T13:21:18.000Z</time>
      </trkpt>
      <trkpt lat="44.49462" lon="6.20327">
        <ele>1370</ele>
        <time>2023-04-21T13:21:19.000Z</time>
      </trkpt>
      <trkpt lat="44.49461" lon="6.20324">
        <ele>1371</ele>
        <time>2023-04-21T13:21:20.000Z</time>
      </trkpt>
      <trkpt lat="44.49461" lon="6.20321">
        <ele>1371</ele>
        <time>2023-04-21T13:21:21.000Z</time>
      </trkpt>
      <trkpt lat="44.4946" lon="6.20317">
        <ele>1372</ele>
        <time>2023-04-21T13:21:22.000Z</time>
      </trkpt>
      <trkpt lat="44.4946" lon="6.20314">
        <ele>1372</ele>
        <time>2023-04-21T13:21:23.000Z</time>
      </trkpt>
      <trkpt lat="44.4946" lon="6.2031">
        <ele>1372</ele>
        <time>2023-04-21T13:21:24.000Z</time>
      </trkpt>
      <trkpt lat="44.4946" lon="6.20306">
        <ele>1372</ele>
        <time>2023-04-21T13:21:25.000Z</time>
      </trkpt>
      <trkpt lat="44.49461" lon="6.20302">
        <ele>1371</ele>
        <time>2023-04-21T13:21:26.000Z</time>
      </trkpt>
      <trkpt lat="44.49461" lon="6.20298">
        <ele>1371</ele>
        <time>2023-04-21T13:21:27.000Z</time>
      </trkpt>
      <trkpt lat="44.49461" lon="6.20295">
        <ele>1371</ele>
        <time>2023-04-21T13:21:28.000Z</time>
      </trkpt>
      <trkpt lat="44.49461" lon="6.20291">
        <ele>1371</ele>
        <time>2023-04-21T13:21:29.000Z</time>
      </trkpt>
      <trkpt lat="44.49462" lon="6.20287">
        <ele>1371</ele>
        <time>2023-04-21T13:21:30.000Z</time>
      </trkpt>
      <trkpt lat="44.49462" lon="6.20283">
        <ele>1370</ele>
        <time>2023-04-21T13:21:31.000Z</time>
      </trkpt>
      <trkpt lat="44.49463" lon="6.2028">
        <ele>1370</ele>
        <time>2023-04-21T13:21:32.000Z</time>
      </trkpt>
      <trkpt lat="44.49463" lon="6.20276">
        <ele>1370</ele>
        <time>2023-04-21T13:21:33.000Z</time>
      </trkpt>
      <trkpt lat="44.49464" lon="6.20272">
        <ele>1370</ele>
        <time>2023-04-21T13:21:34.000Z</time>
      </trkpt>
      <trkpt lat="44.49464" lon="6.20268">
        <ele>1370</ele>
        <time>2023-04-21T13:21:35.000Z</time>
      </trkpt>
      <trkpt lat="44.49465" lon="6.20265">
        <ele>1370</ele>
        <time>2023-04-21T13:21:36.000Z</time>
      </trkpt>
      <trkpt lat="44.49465" lon="6.20261">
        <ele>1370</ele>
        <time>2023-04-21T13:21:37.000Z</time>
      </trkpt>
      <trkpt lat="44.49466" lon="6.20257">
        <ele>1370</ele>
        <time>2023-04-21T13:21:38.000Z</time>
      </trkpt>
      <trkpt lat="44.49466" lon="6.20252">
        <ele>1370</ele>
        <time>2023-04-21T13:21:39.000Z</time>
      </trkpt>
      <trkpt lat="44.49467" lon="6.20249">
        <ele>1370</ele>
        <time>2023-04-21T13:21:40.000Z</time>
      </trkpt>
      <trkpt lat="44.49467" lon="6.20244">
        <ele>1370</ele>
        <time>2023-04-21T13:21:41.000Z</time>
      </trkpt>
      <trkpt lat="44.49467" lon="6.2024">
        <ele>1370</ele>
        <time>2023-04-21T13:21:42.000Z</time>
      </trkpt>
      <trkpt lat="44.49467" lon="6.20236">
        <ele>1370</ele>
        <time>2023-04-21T13:21:43.000Z</time>
      </trkpt>
      <trkpt lat="44.49467" lon="6.20232">
        <ele>1370</ele>
        <time>2023-04-21T13:21:44.000Z</time>
      </trkpt>
      <trkpt lat="44.49467" lon="6.20228">
        <ele>1371</ele>
        <time>2023-04-21T13:21:45.000Z</time>
      </trkpt>
      <trkpt lat="44.49467" lon="6.20224">
        <ele>1371</ele>
        <time>2023-04-21T13:21:46.000Z</time>
      </trkpt>
      <trkpt lat="44.49466" lon="6.20221">
        <ele>1372</ele>
        <time>2023-04-21T13:21:47.000Z</time>
      </trkpt>
      <trkpt lat="44.49465" lon="6.20217">
        <ele>1371</ele>
        <time>2023-04-21T13:21:48.000Z</time>
      </trkpt>
      <trkpt lat="44.49464" lon="6.20213">
        <ele>1372</ele>
        <time>2023-04-21T13:21:49.000Z</time>
      </trkpt>
      <trkpt lat="44.49464" lon="6.20209">
        <ele>1372</ele>
        <time>2023-04-21T13:21:50.000Z</time>
      </trkpt>
      <trkpt lat="44.49464" lon="6.20205">
        <ele>1372</ele>
        <time>2023-04-21T13:21:51.000Z</time>
      </trkpt>
      <trkpt lat="44.49466" lon="6.20201">
        <ele>1371</ele>
        <time>2023-04-21T13:21:52.000Z</time>
      </trkpt>
      <trkpt lat="44.49468" lon="6.20199">
        <ele>1371</ele>
        <time>2023-04-21T13:21:53.000Z</time>
      </trkpt>
      <trkpt lat="44.4947" lon="6.20198">
        <ele>1371</ele>
        <time>2023-04-21T13:21:54.000Z</time>
      </trkpt>
      <trkpt lat="44.49472" lon="6.20198">
        <ele>1371</ele>
        <time>2023-04-21T13:21:55.000Z</time>
      </trkpt>
      <trkpt lat="44.49475" lon="6.20198">
        <ele>1371</ele>
        <time>2023-04-21T13:21:56.000Z</time>
      </trkpt>
      <trkpt lat="44.49477" lon="6.20198">
        <ele>1371</ele>
        <time>2023-04-21T13:21:57.000Z</time>
      </trkpt>
      <trkpt lat="44.49479" lon="6.20197">
        <ele>1371</ele>
        <time>2023-04-21T13:21:58.000Z</time>
      </trkpt>
      <trkpt lat="44.49482" lon="6.20197">
        <ele>1372</ele>
        <time>2023-04-21T13:21:59.000Z</time>
      </trkpt>
      <trkpt lat="44.49485" lon="6.20196">
        <ele>1372</ele>
        <time>2023-04-21T13:22:00.000Z</time>
      </trkpt>
      <trkpt lat="44.49487" lon="6.20196">
        <ele>1373</ele>
        <time>2023-04-21T13:22:01.000Z</time>
      </trkpt>
      <trkpt lat="44.4949" lon="6.20195">
        <ele>1374</ele>
        <time>2023-04-21T13:22:02.000Z</time>
      </trkpt>
      <trkpt lat="44.49493" lon="6.20193">
        <ele>1374</ele>
        <time>2023-04-21T13:22:03.000Z</time>
      </trkpt>
      <trkpt lat="44.49496" lon="6.20192">
        <ele>1375</ele>
        <time>2023-04-21T13:22:04.000Z</time>
      </trkpt>
      <trkpt lat="44.49499" lon="6.2019">
        <ele>1375</ele>
        <time>2023-04-21T13:22:05.000Z</time>
      </trkpt>
      <trkpt lat="44.49501" lon="6.20189">
        <ele>1375</ele>
        <time>2023-04-21T13:22:06.000Z</time>
      </trkpt>
      <trkpt lat="44.49504" lon="6.20187">
        <ele>1375</ele>
        <time>2023-04-21T13:22:07.000Z</time>
      </trkpt>
      <trkpt lat="44.49506" lon="6.20185">
        <ele>1375</ele>
        <time>2023-04-21T13:22:08.000Z</time>
      </trkpt>
      <trkpt lat="44.49509" lon="6.20183">
        <ele>1376</ele>
        <time>2023-04-21T13:22:09.000Z</time>
      </trkpt>
      <trkpt lat="44.49512" lon="6.20182">
        <ele>1376</ele>
        <time>2023-04-21T13:22:10.000Z</time>
      </trkpt>
      <trkpt lat="44.49514" lon="6.2018">
        <ele>1378</ele>
        <time>2023-04-21T13:22:11.000Z</time>
      </trkpt>
      <trkpt lat="44.49517" lon="6.20178">
        <ele>1378</ele>
        <time>2023-04-21T13:22:12.000Z</time>
      </trkpt>
      <trkpt lat="44.49519" lon="6.20176">
        <ele>1379</ele>
        <time>2023-04-21T13:22:13.000Z</time>
      </trkpt>
      <trkpt lat="44.49522" lon="6.20174">
        <ele>1379</ele>
        <time>2023-04-21T13:22:14.000Z</time>
      </trkpt>
      <trkpt lat="44.49525" lon="6.20172">
        <ele>1380</ele>
        <time>2023-04-21T13:22:15.000Z</time>
      </trkpt>
      <trkpt lat="44.49527" lon="6.20169">
        <ele>1380</ele>
        <time>2023-04-21T13:22:16.000Z</time>
      </trkpt>
      <trkpt lat="44.49529" lon="6.20167">
        <ele>1381</ele>
        <time>2023-04-21T13:22:17.000Z</time>
      </trkpt>
      <trkpt lat="44.49531" lon="6.20165">
        <ele>1382</ele>
        <time>2023-04-21T13:22:18.000Z</time>
      </trkpt>
      <trkpt lat="44.49532" lon="6.20162">
        <ele>1383</ele>
        <time>2023-04-21T13:22:19.000Z</time>
      </trkpt>
      <trkpt lat="44.49534" lon="6.20161">
        <ele>1384</ele>
        <time>2023-04-21T13:22:20.000Z</time>
      </trkpt>
      <trkpt lat="44.49536" lon="6.20159">
        <ele>1385</ele>
        <time>2023-04-21T13:22:21.000Z</time>
      </trkpt>
      <trkpt lat="44.49538" lon="6.20157">
        <ele>1387</ele>
        <time>2023-04-21T13:22:22.000Z</time>
      </trkpt>
      <trkpt lat="44.49539" lon="6.20155">
        <ele>1388</ele>
        <time>2023-04-21T13:22:23.000Z</time>
      </trkpt>
      <trkpt lat="44.49541" lon="6.20153">
        <ele>1389</ele>
        <time>2023-04-21T13:22:24.000Z</time>
      </trkpt>
      <trkpt lat="44.49542" lon="6.2015">
        <ele>1390</ele>
        <time>2023-04-21T13:22:25.000Z</time>
      </trkpt>
      <trkpt lat="44.49544" lon="6.20147">
        <ele>1390</ele>
        <time>2023-04-21T13:22:26.000Z</time>
      </trkpt>
      <trkpt lat="44.49546" lon="6.20144">
        <ele>1391</ele>
        <time>2023-04-21T13:22:27.000Z</time>
      </trkpt>
      <trkpt lat="44.49547" lon="6.20142">
        <ele>1392</ele>
        <time>2023-04-21T13:22:28.000Z</time>
      </trkpt>
      <trkpt lat="44.49549" lon="6.20136">
        <ele>1391</ele>
        <time>2023-04-21T13:22:29.000Z</time>
      </trkpt>
      <trkpt lat="44.49549" lon="6.20132">
        <ele>1392</ele>
        <time>2023-04-21T13:22:30.000Z</time>
      </trkpt>
      <trkpt lat="44.4955" lon="6.20128">
        <ele>1392</ele>
        <time>2023-04-21T13:22:31.000Z</time>
      </trkpt>
      <trkpt lat="44.49551" lon="6.20124">
        <ele>1392</ele>
        <time>2023-04-21T13:22:32.000Z</time>
      </trkpt>
      <trkpt lat="44.49551" lon="6.20119">
        <ele>1391</ele>
        <time>2023-04-21T13:22:33.000Z</time>
      </trkpt>
      <trkpt lat="44.49551" lon="6.20115">
        <ele>1391</ele>
        <time>2023-04-21T13:22:34.000Z</time>
      </trkpt>
      <trkpt lat="44.49551" lon="6.20111">
        <ele>1392</ele>
        <time>2023-04-21T13:22:35.000Z</time>
      </trkpt>
      <trkpt lat="44.49551" lon="6.20107">
        <ele>1392</ele>
        <time>2023-04-21T13:22:36.000Z</time>
      </trkpt>
      <trkpt lat="44.49551" lon="6.20103">
        <ele>1392</ele>
        <time>2023-04-21T13:22:37.000Z</time>
      </trkpt>
      <trkpt lat="44.49551" lon="6.20098">
        <ele>1392</ele>
        <time>2023-04-21T13:22:38.000Z</time>
      </trkpt>
      <trkpt lat="44.49551" lon="6.20094">
        <ele>1392</ele>
        <time>2023-04-21T13:22:39.000Z</time>
      </trkpt>
      <trkpt lat="44.49552" lon="6.2009">
        <ele>1392</ele>
        <time>2023-04-21T13:22:40.000Z</time>
      </trkpt>
      <trkpt lat="44.49552" lon="6.20086">
        <ele>1392</ele>
        <time>2023-04-21T13:22:41.000Z</time>
      </trkpt>
      <trkpt lat="44.49552" lon="6.20081">
        <ele>1392</ele>
        <time>2023-04-21T13:22:42.000Z</time>
      </trkpt>
      <trkpt lat="44.49552" lon="6.20077">
        <ele>1392</ele>
        <time>2023-04-21T13:22:43.000Z</time>
      </trkpt>
      <trkpt lat="44.49552" lon="6.20073">
        <ele>1392</ele>
        <time>2023-04-21T13:22:44.000Z</time>
      </trkpt>
      <trkpt lat="44.49552" lon="6.20068">
        <ele>1393</ele>
        <time>2023-04-21T13:22:45.000Z</time>
      </trkpt>
      <trkpt lat="44.49552" lon="6.20064">
        <ele>1393</ele>
        <time>2023-04-21T13:22:46.000Z</time>
      </trkpt>
      <trkpt lat="44.49552" lon="6.2006">
        <ele>1393</ele>
        <time>2023-04-21T13:22:47.000Z</time>
      </trkpt>
      <trkpt lat="44.49553" lon="6.20056">
        <ele>1393</ele>
        <time>2023-04-21T13:22:48.000Z</time>
      </trkpt>
      <trkpt lat="44.49553" lon="6.20052">
        <ele>1394</ele>
        <time>2023-04-21T13:22:49.000Z</time>
      </trkpt>
      <trkpt lat="44.49554" lon="6.20048">
        <ele>1394</ele>
        <time>2023-04-21T13:22:50.000Z</time>
      </trkpt>
      <trkpt lat="44.49554" lon="6.20045">
        <ele>1394</ele>
        <time>2023-04-21T13:22:51.000Z</time>
      </trkpt>
      <trkpt lat="44.49555" lon="6.20041">
        <ele>1395</ele>
        <time>2023-04-21T13:22:52.000Z</time>
      </trkpt>
      <trkpt lat="44.49556" lon="6.20038">
        <ele>1395</ele>
        <time>2023-04-21T13:22:53.000Z</time>
      </trkpt>
      <trkpt lat="44.49557" lon="6.20034">
        <ele>1395</ele>
        <time>2023-04-21T13:22:54.000Z</time>
      </trkpt>
      <trkpt lat="44.49558" lon="6.20031">
        <ele>1395</ele>
        <time>2023-04-21T13:22:55.000Z</time>
      </trkpt>
      <trkpt lat="44.4956" lon="6.20028">
        <ele>1395</ele>
        <time>2023-04-21T13:22:56.000Z</time>
      </trkpt>
      <trkpt lat="44.49561" lon="6.20025">
        <ele>1396</ele>
        <time>2023-04-21T13:22:57.000Z</time>
      </trkpt>
      <trkpt lat="44.49563" lon="6.20022">
        <ele>1396</ele>
        <time>2023-04-21T13:22:58.000Z</time>
      </trkpt>
      <trkpt lat="44.49565" lon="6.20019">
        <ele>1396</ele>
        <time>2023-04-21T13:22:59.000Z</time>
      </trkpt>
      <trkpt lat="44.49566" lon="6.20016">
        <ele>1396</ele>
        <time>2023-04-21T13:23:00.000Z</time>
      </trkpt>
      <trkpt lat="44.49568" lon="6.20014">
        <ele>1397</ele>
        <time>2023-04-21T13:23:01.000Z</time>
      </trkpt>
      <trkpt lat="44.49569" lon="6.20011">
        <ele>1398</ele>
        <time>2023-04-21T13:23:02.000Z</time>
      </trkpt>
      <trkpt lat="44.49571" lon="6.20009">
        <ele>1398</ele>
        <time>2023-04-21T13:23:03.000Z</time>
      </trkpt>
      <trkpt lat="44.49572" lon="6.20006">
        <ele>1399</ele>
        <time>2023-04-21T13:23:04.000Z</time>
      </trkpt>
      <trkpt lat="44.49574" lon="6.20003">
        <ele>1400</ele>
        <time>2023-04-21T13:23:05.000Z</time>
      </trkpt>
      <trkpt lat="44.49575" lon="6.20001">
        <ele>1401</ele>
        <time>2023-04-21T13:23:06.000Z</time>
      </trkpt>
      <trkpt lat="44.49577" lon="6.19999">
        <ele>1402</ele>
        <time>2023-04-21T13:23:07.000Z</time>
      </trkpt>
      <trkpt lat="44.49579" lon="6.19996">
        <ele>1402</ele>
        <time>2023-04-21T13:23:08.000Z</time>
      </trkpt>
      <trkpt lat="44.49581" lon="6.19993">
        <ele>1402</ele>
        <time>2023-04-21T13:23:09.000Z</time>
      </trkpt>
      <trkpt lat="44.49582" lon="6.19991">
        <ele>1403</ele>
        <time>2023-04-21T13:23:10.000Z</time>
      </trkpt>
      <trkpt lat="44.49584" lon="6.19988">
        <ele>1404</ele>
        <time>2023-04-21T13:23:11.000Z</time>
      </trkpt>
      <trkpt lat="44.49585" lon="6.19985">
        <ele>1404</ele>
        <time>2023-04-21T13:23:12.000Z</time>
      </trkpt>
      <trkpt lat="44.49586" lon="6.19982">
        <ele>1405</ele>
        <time>2023-04-21T13:23:13.000Z</time>
      </trkpt>
      <trkpt lat="44.49588" lon="6.19979">
        <ele>1405</ele>
        <time>2023-04-21T13:23:14.000Z</time>
      </trkpt>
      <trkpt lat="44.49589" lon="6.19976">
        <ele>1406</ele>
        <time>2023-04-21T13:23:15.000Z</time>
      </trkpt>
      <trkpt lat="44.49591" lon="6.19973">
        <ele>1407</ele>
        <time>2023-04-21T13:23:16.000Z</time>
      </trkpt>
      <trkpt lat="44.49592" lon="6.19971">
        <ele>1408</ele>
        <time>2023-04-21T13:23:17.000Z</time>
      </trkpt>
      <trkpt lat="44.49594" lon="6.19968">
        <ele>1409</ele>
        <time>2023-04-21T13:23:18.000Z</time>
      </trkpt>
      <trkpt lat="44.49595" lon="6.19966">
        <ele>1410</ele>
        <time>2023-04-21T13:23:19.000Z</time>
      </trkpt>
      <trkpt lat="44.49597" lon="6.19963">
        <ele>1410</ele>
        <time>2023-04-21T13:23:20.000Z</time>
      </trkpt>
      <trkpt lat="44.49598" lon="6.1996">
        <ele>1411</ele>
        <time>2023-04-21T13:23:21.000Z</time>
      </trkpt>
      <trkpt lat="44.496" lon="6.19957">
        <ele>1412</ele>
        <time>2023-04-21T13:23:22.000Z</time>
      </trkpt>
      <trkpt lat="44.49601" lon="6.19954">
        <ele>1412</ele>
        <time>2023-04-21T13:23:23.000Z</time>
      </trkpt>
      <trkpt lat="44.49603" lon="6.19951">
        <ele>1413</ele>
        <time>2023-04-21T13:23:24.000Z</time>
      </trkpt>
      <trkpt lat="44.49605" lon="6.19948">
        <ele>1413</ele>
        <time>2023-04-21T13:23:25.000Z</time>
      </trkpt>
      <trkpt lat="44.49607" lon="6.19946">
        <ele>1414</ele>
        <time>2023-04-21T13:23:26.000Z</time>
      </trkpt>
      <trkpt lat="44.49609" lon="6.19944">
        <ele>1415</ele>
        <time>2023-04-21T13:23:27.000Z</time>
      </trkpt>
      <trkpt lat="44.4961" lon="6.19942">
        <ele>1416</ele>
        <time>2023-04-21T13:23:28.000Z</time>
      </trkpt>
      <trkpt lat="44.49612" lon="6.1994">
        <ele>1416</ele>
        <time>2023-04-21T13:23:29.000Z</time>
      </trkpt>
      <trkpt lat="44.49614" lon="6.19937">
        <ele>1417</ele>
        <time>2023-04-21T13:23:30.000Z</time>
      </trkpt>
      <trkpt lat="44.49616" lon="6.19935">
        <ele>1418</ele>
        <time>2023-04-21T13:23:31.000Z</time>
      </trkpt>
      <trkpt lat="44.49618" lon="6.19932">
        <ele>1418</ele>
        <time>2023-04-21T13:23:32.000Z</time>
      </trkpt>
      <trkpt lat="44.49621" lon="6.19929">
        <ele>1417</ele>
        <time>2023-04-21T13:23:33.000Z</time>
      </trkpt>
      <trkpt lat="44.49623" lon="6.19927">
        <ele>1416</ele>
        <time>2023-04-21T13:23:34.000Z</time>
      </trkpt>
      <trkpt lat="44.49626" lon="6.19924">
        <ele>1415</ele>
        <time>2023-04-21T13:23:35.000Z</time>
      </trkpt>
      <trkpt lat="44.49628" lon="6.19922">
        <ele>1415</ele>
        <time>2023-04-21T13:23:36.000Z</time>
      </trkpt>
      <trkpt lat="44.49631" lon="6.1992">
        <ele>1414</ele>
        <time>2023-04-21T13:23:37.000Z</time>
      </trkpt>
      <trkpt lat="44.49633" lon="6.19918">
        <ele>1414</ele>
        <time>2023-04-21T13:23:38.000Z</time>
      </trkpt>
      <trkpt lat="44.49636" lon="6.19916">
        <ele>1414</ele>
        <time>2023-04-21T13:23:39.000Z</time>
      </trkpt>
      <trkpt lat="44.49638" lon="6.19914">
        <ele>1414</ele>
        <time>2023-04-21T13:23:40.000Z</time>
      </trkpt>
      <trkpt lat="44.49641" lon="6.19912">
        <ele>1413</ele>
        <time>2023-04-21T13:23:41.000Z</time>
      </trkpt>
      <trkpt lat="44.49644" lon="6.1991">
        <ele>1413</ele>
        <time>2023-04-21T13:23:42.000Z</time>
      </trkpt>
      <trkpt lat="44.49646" lon="6.19908">
        <ele>1413</ele>
        <time>2023-04-21T13:23:43.000Z</time>
      </trkpt>
      <trkpt lat="44.49649" lon="6.19907">
        <ele>1413</ele>
        <time>2023-04-21T13:23:44.000Z</time>
      </trkpt>
      <trkpt lat="44.49651" lon="6.19905">
        <ele>1413</ele>
        <time>2023-04-21T13:23:45.000Z</time>
      </trkpt>
      <trkpt lat="44.49654" lon="6.19904">
        <ele>1413</ele>
        <time>2023-04-21T13:23:46.000Z</time>
      </trkpt>
      <trkpt lat="44.49657" lon="6.19903">
        <ele>1413</ele>
        <time>2023-04-21T13:23:47.000Z</time>
      </trkpt>
      <trkpt lat="44.4966" lon="6.19902">
        <ele>1413</ele>
        <time>2023-04-21T13:23:48.000Z</time>
      </trkpt>
      <trkpt lat="44.49663" lon="6.19901">
        <ele>1413</ele>
        <time>2023-04-21T13:23:49.000Z</time>
      </trkpt>
      <trkpt lat="44.49665" lon="6.19901">
        <ele>1413</ele>
        <time>2023-04-21T13:23:50.000Z</time>
      </trkpt>
      <trkpt lat="44.49668" lon="6.199">
        <ele>1412</ele>
        <time>2023-04-21T13:23:51.000Z</time>
      </trkpt>
      <trkpt lat="44.49671" lon="6.199">
        <ele>1412</ele>
        <time>2023-04-21T13:23:52.000Z</time>
      </trkpt>
      <trkpt lat="44.49674" lon="6.19901">
        <ele>1412</ele>
        <time>2023-04-21T13:23:53.000Z</time>
      </trkpt>
      <trkpt lat="44.49676" lon="6.19901">
        <ele>1412</ele>
        <time>2023-04-21T13:23:54.000Z</time>
      </trkpt>
      <trkpt lat="44.49679" lon="6.19902">
        <ele>1412</ele>
        <time>2023-04-21T13:23:55.000Z</time>
      </trkpt>
      <trkpt lat="44.49682" lon="6.19902">
        <ele>1412</ele>
        <time>2023-04-21T13:23:56.000Z</time>
      </trkpt>
      <trkpt lat="44.49684" lon="6.19903">
        <ele>1412</ele>
        <time>2023-04-21T13:23:57.000Z</time>
      </trkpt>
      <trkpt lat="44.49687" lon="6.19904">
        <ele>1412</ele>
        <time>2023-04-21T13:23:58.000Z</time>
      </trkpt>
      <trkpt lat="44.4969" lon="6.19904">
        <ele>1412</ele>
        <time>2023-04-21T13:23:59.000Z</time>
      </trkpt>
      <trkpt lat="44.49692" lon="6.19905">
        <ele>1412</ele>
        <time>2023-04-21T13:24:00.000Z</time>
      </trkpt>
      <trkpt lat="44.49695" lon="6.19905">
        <ele>1412</ele>
        <time>2023-04-21T13:24:01.000Z</time>
      </trkpt>
      <trkpt lat="44.49697" lon="6.19905">
        <ele>1412</ele>
        <time>2023-04-21T13:24:02.000Z</time>
      </trkpt>
      <trkpt lat="44.497" lon="6.19905">
        <ele>1412</ele>
        <time>2023-04-21T13:24:03.000Z</time>
      </trkpt>
      <trkpt lat="44.49702" lon="6.19906">
        <ele>1412</ele>
        <time>2023-04-21T13:24:04.000Z</time>
      </trkpt>
      <trkpt lat="44.49705" lon="6.19906">
        <ele>1412</ele>
        <time>2023-04-21T13:24:05.000Z</time>
      </trkpt>
      <trkpt lat="44.49707" lon="6.19906">
        <ele>1412</ele>
        <time>2023-04-21T13:24:06.000Z</time>
      </trkpt>
      <trkpt lat="44.49709" lon="6.19907">
        <ele>1412</ele>
        <time>2023-04-21T13:24:07.000Z</time>
      </trkpt>
      <trkpt lat="44.49712" lon="6.19908">
        <ele>1412</ele>
        <time>2023-04-21T13:24:08.000Z</time>
      </trkpt>
      <trkpt lat="44.49714" lon="6.19908">
        <ele>1412</ele>
        <time>2023-04-21T13:24:09.000Z</time>
      </trkpt>
      <trkpt lat="44.49717" lon="6.19908">
        <ele>1412</ele>
        <time>2023-04-21T13:24:10.000Z</time>
      </trkpt>
      <trkpt lat="44.49719" lon="6.19908">
        <ele>1412</ele>
        <time>2023-04-21T13:24:11.000Z</time>
      </trkpt>
      <trkpt lat="44.49722" lon="6.19908">
        <ele>1412</ele>
        <time>2023-04-21T13:24:12.000Z</time>
      </trkpt>
      <trkpt lat="44.49724" lon="6.19908">
        <ele>1413</ele>
        <time>2023-04-21T13:24:13.000Z</time>
      </trkpt>
      <trkpt lat="44.49726" lon="6.19908">
        <ele>1413</ele>
        <time>2023-04-21T13:24:14.000Z</time>
      </trkpt>
      <trkpt lat="44.49728" lon="6.19908">
        <ele>1413</ele>
        <time>2023-04-21T13:24:15.000Z</time>
      </trkpt>
      <trkpt lat="44.4973" lon="6.19907">
        <ele>1414</ele>
        <time>2023-04-21T13:24:16.000Z</time>
      </trkpt>
      <trkpt lat="44.49732" lon="6.19907">
        <ele>1414</ele>
        <time>2023-04-21T13:24:17.000Z</time>
      </trkpt>
      <trkpt lat="44.49735" lon="6.19907">
        <ele>1414</ele>
        <time>2023-04-21T13:24:18.000Z</time>
      </trkpt>
      <trkpt lat="44.49737" lon="6.19907">
        <ele>1414</ele>
        <time>2023-04-21T13:24:19.000Z</time>
      </trkpt>
      <trkpt lat="44.4974" lon="6.19906">
        <ele>1415</ele>
        <time>2023-04-21T13:24:20.000Z</time>
      </trkpt>
      <trkpt lat="44.49742" lon="6.19906">
        <ele>1415</ele>
        <time>2023-04-21T13:24:21.000Z</time>
      </trkpt>
      <trkpt lat="44.49745" lon="6.19905">
        <ele>1415</ele>
        <time>2023-04-21T13:24:22.000Z</time>
      </trkpt>
      <trkpt lat="44.49747" lon="6.19905">
        <ele>1415</ele>
        <time>2023-04-21T13:24:23.000Z</time>
      </trkpt>
      <trkpt lat="44.4975" lon="6.19904">
        <ele>1415</ele>
        <time>2023-04-21T13:24:24.000Z</time>
      </trkpt>
      <trkpt lat="44.49752" lon="6.19904">
        <ele>1416</ele>
        <time>2023-04-21T13:24:25.000Z</time>
      </trkpt>
      <trkpt lat="44.49755" lon="6.19904">
        <ele>1416</ele>
        <time>2023-04-21T13:24:26.000Z</time>
      </trkpt>
      <trkpt lat="44.49757" lon="6.19903">
        <ele>1416</ele>
        <time>2023-04-21T13:24:27.000Z</time>
      </trkpt>
      <trkpt lat="44.49759" lon="6.19903">
        <ele>1416</ele>
        <time>2023-04-21T13:24:28.000Z</time>
      </trkpt>
      <trkpt lat="44.49762" lon="6.19902">
        <ele>1416</ele>
        <time>2023-04-21T13:24:29.000Z</time>
      </trkpt>
      <trkpt lat="44.49764" lon="6.19902">
        <ele>1417</ele>
        <time>2023-04-21T13:24:30.000Z</time>
      </trkpt>
      <trkpt lat="44.49767" lon="6.19901">
        <ele>1416</ele>
        <time>2023-04-21T13:24:31.000Z</time>
      </trkpt>
      <trkpt lat="44.49769" lon="6.19901">
        <ele>1416</ele>
        <time>2023-04-21T13:24:32.000Z</time>
      </trkpt>
      <trkpt lat="44.49772" lon="6.199">
        <ele>1416</ele>
        <time>2023-04-21T13:24:33.000Z</time>
      </trkpt>
      <trkpt lat="44.49774" lon="6.199">
        <ele>1416</ele>
        <time>2023-04-21T13:24:34.000Z</time>
      </trkpt>
      <trkpt lat="44.49776" lon="6.19899">
        <ele>1416</ele>
        <time>2023-04-21T13:24:35.000Z</time>
      </trkpt>
      <trkpt lat="44.49779" lon="6.19899">
        <ele>1416</ele>
        <time>2023-04-21T13:24:36.000Z</time>
      </trkpt>
      <trkpt lat="44.49781" lon="6.19899">
        <ele>1416</ele>
        <time>2023-04-21T13:24:37.000Z</time>
      </trkpt>
      <trkpt lat="44.49784" lon="6.19898">
        <ele>1417</ele>
        <time>2023-04-21T13:24:38.000Z</time>
      </trkpt>
      <trkpt lat="44.49786" lon="6.19898">
        <ele>1417</ele>
        <time>2023-04-21T13:24:39.000Z</time>
      </trkpt>
      <trkpt lat="44.49788" lon="6.19898">
        <ele>1417</ele>
        <time>2023-04-21T13:24:40.000Z</time>
      </trkpt>
      <trkpt lat="44.49791" lon="6.19897">
        <ele>1417</ele>
        <time>2023-04-21T13:24:41.000Z</time>
      </trkpt>
      <trkpt lat="44.49794" lon="6.19897">
        <ele>1417</ele>
        <time>2023-04-21T13:24:42.000Z</time>
      </trkpt>
      <trkpt lat="44.49796" lon="6.19896">
        <ele>1417</ele>
        <time>2023-04-21T13:24:43.000Z</time>
      </trkpt>
      <trkpt lat="44.49799" lon="6.19896">
        <ele>1417</ele>
        <time>2023-04-21T13:24:44.000Z</time>
      </trkpt>
      <trkpt lat="44.49801" lon="6.19896">
        <ele>1417</ele>
        <time>2023-04-21T13:24:45.000Z</time>
      </trkpt>
      <trkpt lat="44.49803" lon="6.19895">
        <ele>1417</ele>
        <time>2023-04-21T13:24:46.000Z</time>
      </trkpt>
      <trkpt lat="44.49806" lon="6.19895">
        <ele>1418</ele>
        <time>2023-04-21T13:24:47.000Z</time>
      </trkpt>
      <trkpt lat="44.49808" lon="6.19895">
        <ele>1418</ele>
        <time>2023-04-21T13:24:48.000Z</time>
      </trkpt>
      <trkpt lat="44.49811" lon="6.19895">
        <ele>1418</ele>
        <time>2023-04-21T13:24:49.000Z</time>
      </trkpt>
      <trkpt lat="44.49813" lon="6.19895">
        <ele>1418</ele>
        <time>2023-04-21T13:24:50.000Z</time>
      </trkpt>
      <trkpt lat="44.49816" lon="6.19894">
        <ele>1418</ele>
        <time>2023-04-21T13:24:51.000Z</time>
      </trkpt>
      <trkpt lat="44.49818" lon="6.19895">
        <ele>1418</ele>
        <time>2023-04-21T13:24:52.000Z</time>
      </trkpt>
      <trkpt lat="44.4982" lon="6.19895">
        <ele>1418</ele>
        <time>2023-04-21T13:24:53.000Z</time>
      </trkpt>
      <trkpt lat="44.49823" lon="6.19896">
        <ele>1418</ele>
        <time>2023-04-21T13:24:54.000Z</time>
      </trkpt>
      <trkpt lat="44.49825" lon="6.19897">
        <ele>1419</ele>
        <time>2023-04-21T13:24:55.000Z</time>
      </trkpt>
      <trkpt lat="44.49827" lon="6.19897">
        <ele>1419</ele>
        <time>2023-04-21T13:24:56.000Z</time>
      </trkpt>
      <trkpt lat="44.4983" lon="6.19897">
        <ele>1419</ele>
        <time>2023-04-21T13:24:57.000Z</time>
      </trkpt>
      <trkpt lat="44.49832" lon="6.19897">
        <ele>1419</ele>
        <time>2023-04-21T13:24:58.000Z</time>
      </trkpt>
      <trkpt lat="44.49834" lon="6.19898">
        <ele>1419</ele>
        <time>2023-04-21T13:24:59.000Z</time>
      </trkpt>
      <trkpt lat="44.49837" lon="6.19899">
        <ele>1420</ele>
        <time>2023-04-21T13:25:00.000Z</time>
      </trkpt>
      <trkpt lat="44.49839" lon="6.19899">
        <ele>1420</ele>
        <time>2023-04-21T13:25:01.000Z</time>
      </trkpt>
      <trkpt lat="44.49841" lon="6.199">
        <ele>1420</ele>
        <time>2023-04-21T13:25:02.000Z</time>
      </trkpt>
      <trkpt lat="44.49843" lon="6.199">
        <ele>1420</ele>
        <time>2023-04-21T13:25:03.000Z</time>
      </trkpt>
      <trkpt lat="44.49845" lon="6.19899">
        <ele>1420</ele>
        <time>2023-04-21T13:25:04.000Z</time>
      </trkpt>
      <trkpt lat="44.49847" lon="6.19899">
        <ele>1420</ele>
        <time>2023-04-21T13:25:05.000Z</time>
      </trkpt>
      <trkpt lat="44.49849" lon="6.19899">
        <ele>1420</ele>
        <time>2023-04-21T13:25:06.000Z</time>
      </trkpt>
      <trkpt lat="44.49851" lon="6.199">
        <ele>1420</ele>
        <time>2023-04-21T13:25:07.000Z</time>
      </trkpt>
      <trkpt lat="44.49853" lon="6.19902">
        <ele>1421</ele>
        <time>2023-04-21T13:25:08.000Z</time>
      </trkpt>
      <trkpt lat="44.49854" lon="6.19903">
        <ele>1421</ele>
        <time>2023-04-21T13:25:09.000Z</time>
      </trkpt>
      <trkpt lat="44.49856" lon="6.19904">
        <ele>1421</ele>
        <time>2023-04-21T13:25:10.000Z</time>
      </trkpt>
      <trkpt lat="44.49858" lon="6.19906">
        <ele>1421</ele>
        <time>2023-04-21T13:25:11.000Z</time>
      </trkpt>
      <trkpt lat="44.49859" lon="6.19907">
        <ele>1421</ele>
        <time>2023-04-21T13:25:12.000Z</time>
      </trkpt>
      <trkpt lat="44.49861" lon="6.19907">
        <ele>1421</ele>
        <time>2023-04-21T13:25:13.000Z</time>
      </trkpt>
      <trkpt lat="44.49864" lon="6.19907">
        <ele>1422</ele>
        <time>2023-04-21T13:25:14.000Z</time>
      </trkpt>
      <trkpt lat="44.49866" lon="6.19907">
        <ele>1422</ele>
        <time>2023-04-21T13:25:15.000Z</time>
      </trkpt>
      <trkpt lat="44.49868" lon="6.19906">
        <ele>1422</ele>
        <time>2023-04-21T13:25:16.000Z</time>
      </trkpt>
      <trkpt lat="44.4987" lon="6.19905">
        <ele>1422</ele>
        <time>2023-04-21T13:25:17.000Z</time>
      </trkpt>
      <trkpt lat="44.49872" lon="6.19903">
        <ele>1423</ele>
        <time>2023-04-21T13:25:18.000Z</time>
      </trkpt>
      <trkpt lat="44.49875" lon="6.19902">
        <ele>1423</ele>
        <time>2023-04-21T13:25:19.000Z</time>
      </trkpt>
      <trkpt lat="44.49876" lon="6.199">
        <ele>1423</ele>
        <time>2023-04-21T13:25:20.000Z</time>
      </trkpt>
      <trkpt lat="44.49878" lon="6.19897">
        <ele>1423</ele>
        <time>2023-04-21T13:25:21.000Z</time>
      </trkpt>
      <trkpt lat="44.49879" lon="6.19894">
        <ele>1423</ele>
        <time>2023-04-21T13:25:22.000Z</time>
      </trkpt>
      <trkpt lat="44.4988" lon="6.19892">
        <ele>1423</ele>
        <time>2023-04-21T13:25:23.000Z</time>
      </trkpt>
      <trkpt lat="44.49882" lon="6.19889">
        <ele>1423</ele>
        <time>2023-04-21T13:25:24.000Z</time>
      </trkpt>
      <trkpt lat="44.49882" lon="6.19886">
        <ele>1423</ele>
        <time>2023-04-21T13:25:25.000Z</time>
      </trkpt>
      <trkpt lat="44.49883" lon="6.19882">
        <ele>1423</ele>
        <time>2023-04-21T13:25:26.000Z</time>
      </trkpt>
      <trkpt lat="44.49883" lon="6.19879">
        <ele>1423</ele>
        <time>2023-04-21T13:25:27.000Z</time>
      </trkpt>
      <trkpt lat="44.49883" lon="6.19875">
        <ele>1424</ele>
        <time>2023-04-21T13:25:28.000Z</time>
      </trkpt>
      <trkpt lat="44.49884" lon="6.19872">
        <ele>1424</ele>
        <time>2023-04-21T13:25:29.000Z</time>
      </trkpt>
      <trkpt lat="44.49885" lon="6.1987">
        <ele>1425</ele>
        <time>2023-04-21T13:25:30.000Z</time>
      </trkpt>
      <trkpt lat="44.49886" lon="6.19868">
        <ele>1426</ele>
        <time>2023-04-21T13:25:31.000Z</time>
      </trkpt>
      <trkpt lat="44.49888" lon="6.19867">
        <ele>1426</ele>
        <time>2023-04-21T13:25:32.000Z</time>
      </trkpt>
      <trkpt lat="44.49889" lon="6.19867">
        <ele>1426</ele>
        <time>2023-04-21T13:25:33.000Z</time>
      </trkpt>
      <trkpt lat="44.49891" lon="6.19867">
        <ele>1427</ele>
        <time>2023-04-21T13:25:34.000Z</time>
      </trkpt>
      <trkpt lat="44.49893" lon="6.19867">
        <ele>1427</ele>
        <time>2023-04-21T13:25:35.000Z</time>
      </trkpt>
      <trkpt lat="44.49896" lon="6.19867">
        <ele>1427</ele>
        <time>2023-04-21T13:25:36.000Z</time>
      </trkpt>
      <trkpt lat="44.49898" lon="6.19868">
        <ele>1427</ele>
        <time>2023-04-21T13:25:37.000Z</time>
      </trkpt>
      <trkpt lat="44.49901" lon="6.19869">
        <ele>1427</ele>
        <time>2023-04-21T13:25:38.000Z</time>
      </trkpt>
      <trkpt lat="44.49904" lon="6.19871">
        <ele>1427</ele>
        <time>2023-04-21T13:25:39.000Z</time>
      </trkpt>
      <trkpt lat="44.49906" lon="6.19872">
        <ele>1427</ele>
        <time>2023-04-21T13:25:40.000Z</time>
      </trkpt>
      <trkpt lat="44.49909" lon="6.19872">
        <ele>1427</ele>
        <time>2023-04-21T13:25:41.000Z</time>
      </trkpt>
      <trkpt lat="44.49911" lon="6.19874">
        <ele>1427</ele>
        <time>2023-04-21T13:25:42.000Z</time>
      </trkpt>
      <trkpt lat="44.49914" lon="6.19875">
        <ele>1427</ele>
        <time>2023-04-21T13:25:43.000Z</time>
      </trkpt>
      <trkpt lat="44.49916" lon="6.19875">
        <ele>1428</ele>
        <time>2023-04-21T13:25:44.000Z</time>
      </trkpt>
      <trkpt lat="44.49918" lon="6.19876">
        <ele>1429</ele>
        <time>2023-04-21T13:25:45.000Z</time>
      </trkpt>
      <trkpt lat="44.49921" lon="6.19877">
        <ele>1429</ele>
        <time>2023-04-21T13:25:46.000Z</time>
      </trkpt>
      <trkpt lat="44.49923" lon="6.19877">
        <ele>1430</ele>
        <time>2023-04-21T13:25:47.000Z</time>
      </trkpt>
      <trkpt lat="44.49925" lon="6.19877">
        <ele>1430</ele>
        <time>2023-04-21T13:25:48.000Z</time>
      </trkpt>
      <trkpt lat="44.49928" lon="6.19878">
        <ele>1431</ele>
        <time>2023-04-21T13:25:49.000Z</time>
      </trkpt>
      <trkpt lat="44.4993" lon="6.19878">
        <ele>1432</ele>
        <time>2023-04-21T13:25:50.000Z</time>
      </trkpt>
      <trkpt lat="44.49933" lon="6.19879">
        <ele>1433</ele>
        <time>2023-04-21T13:25:51.000Z</time>
      </trkpt>
      <trkpt lat="44.49935" lon="6.19879">
        <ele>1434</ele>
        <time>2023-04-21T13:25:52.000Z</time>
      </trkpt>
      <trkpt lat="44.49938" lon="6.19879">
        <ele>1435</ele>
        <time>2023-04-21T13:25:53.000Z</time>
      </trkpt>
      <trkpt lat="44.4994" lon="6.19879">
        <ele>1435</ele>
        <time>2023-04-21T13:25:54.000Z</time>
      </trkpt>
      <trkpt lat="44.49943" lon="6.19879">
        <ele>1434</ele>
        <time>2023-04-21T13:25:55.000Z</time>
      </trkpt>
      <trkpt lat="44.49945" lon="6.19879">
        <ele>1434</ele>
        <time>2023-04-21T13:25:56.000Z</time>
      </trkpt>
      <trkpt lat="44.49948" lon="6.19879">
        <ele>1434</ele>
        <time>2023-04-21T13:25:57.000Z</time>
      </trkpt>
      <trkpt lat="44.49951" lon="6.19878">
        <ele>1434</ele>
        <time>2023-04-21T13:25:58.000Z</time>
      </trkpt>
      <trkpt lat="44.49954" lon="6.19879">
        <ele>1434</ele>
        <time>2023-04-21T13:25:59.000Z</time>
      </trkpt>
      <trkpt lat="44.49957" lon="6.19879">
        <ele>1434</ele>
        <time>2023-04-21T13:26:00.000Z</time>
      </trkpt>
      <trkpt lat="44.49959" lon="6.19879">
        <ele>1434</ele>
        <time>2023-04-21T13:26:01.000Z</time>
      </trkpt>
      <trkpt lat="44.49962" lon="6.1988">
        <ele>1435</ele>
        <time>2023-04-21T13:26:02.000Z</time>
      </trkpt>
      <trkpt lat="44.49965" lon="6.19879">
        <ele>1435</ele>
        <time>2023-04-21T13:26:03.000Z</time>
      </trkpt>
      <trkpt lat="44.49967" lon="6.19879">
        <ele>1436</ele>
        <time>2023-04-21T13:26:04.000Z</time>
      </trkpt>
      <trkpt lat="44.4997" lon="6.19879">
        <ele>1436</ele>
        <time>2023-04-21T13:26:05.000Z</time>
      </trkpt>
      <trkpt lat="44.49973" lon="6.19879">
        <ele>1435</ele>
        <time>2023-04-21T13:26:06.000Z</time>
      </trkpt>
      <trkpt lat="44.49976" lon="6.19878">
        <ele>1436</ele>
        <time>2023-04-21T13:26:07.000Z</time>
      </trkpt>
      <trkpt lat="44.49979" lon="6.19878">
        <ele>1435</ele>
        <time>2023-04-21T13:26:08.000Z</time>
      </trkpt>
      <trkpt lat="44.49982" lon="6.19878">
        <ele>1435</ele>
        <time>2023-04-21T13:26:09.000Z</time>
      </trkpt>
      <trkpt lat="44.49984" lon="6.19878">
        <ele>1435</ele>
        <time>2023-04-21T13:26:10.000Z</time>
      </trkpt>
      <trkpt lat="44.49986" lon="6.19879">
        <ele>1434</ele>
        <time>2023-04-21T13:26:11.000Z</time>
      </trkpt>
      <trkpt lat="44.49989" lon="6.19879">
        <ele>1434</ele>
        <time>2023-04-21T13:26:12.000Z</time>
      </trkpt>
      <trkpt lat="44.49992" lon="6.19879">
        <ele>1433</ele>
        <time>2023-04-21T13:26:13.000Z</time>
      </trkpt>
      <trkpt lat="44.49995" lon="6.1988">
        <ele>1433</ele>
        <time>2023-04-21T13:26:14.000Z</time>
      </trkpt>
      <trkpt lat="44.49998" lon="6.19881">
        <ele>1433</ele>
        <time>2023-04-21T13:26:15.000Z</time>
      </trkpt>
      <trkpt lat="44.50001" lon="6.19881">
        <ele>1433</ele>
        <time>2023-04-21T13:26:16.000Z</time>
      </trkpt>
      <trkpt lat="44.50004" lon="6.19882">
        <ele>1433</ele>
        <time>2023-04-21T13:26:17.000Z</time>
      </trkpt>
      <trkpt lat="44.50006" lon="6.19882">
        <ele>1433</ele>
        <time>2023-04-21T13:26:18.000Z</time>
      </trkpt>
      <trkpt lat="44.50009" lon="6.19882">
        <ele>1432</ele>
        <time>2023-04-21T13:26:19.000Z</time>
      </trkpt>
      <trkpt lat="44.50011" lon="6.19882">
        <ele>1432</ele>
        <time>2023-04-21T13:26:20.000Z</time>
      </trkpt>
      <trkpt lat="44.50013" lon="6.19883">
        <ele>1432</ele>
        <time>2023-04-21T13:26:21.000Z</time>
      </trkpt>
      <trkpt lat="44.50015" lon="6.19883">
        <ele>1432</ele>
        <time>2023-04-21T13:26:22.000Z</time>
      </trkpt>
      <trkpt lat="44.50016" lon="6.19883">
        <ele>1432</ele>
        <time>2023-04-21T13:26:23.000Z</time>
      </trkpt>
      <trkpt lat="44.50018" lon="6.19884">
        <ele>1432</ele>
        <time>2023-04-21T13:26:24.000Z</time>
      </trkpt>
      <trkpt lat="44.50018" lon="6.19884">
        <ele>1431</ele>
        <time>2023-04-21T13:26:25.000Z</time>
      </trkpt>
      <trkpt lat="44.50019" lon="6.19884">
        <ele>1432</ele>
        <time>2023-04-21T13:26:26.000Z</time>
      </trkpt>
      <trkpt lat="44.50019" lon="6.19884">
        <ele>1432</ele>
        <time>2023-04-21T13:26:27.000Z</time>
      </trkpt>
      <trkpt lat="44.50019" lon="6.19884">
        <ele>1431</ele>
        <time>2023-04-21T13:26:28.000Z</time>
      </trkpt>
      <trkpt lat="44.50019" lon="6.19884">
        <ele>1431</ele>
        <time>2023-04-21T13:26:29.000Z</time>
      </trkpt>
      <trkpt lat="44.50019" lon="6.19884">
        <ele>1431</ele>
        <time>2023-04-21T13:26:30.000Z</time>
      </trkpt>
      <trkpt lat="44.50019" lon="6.19884">
        <ele>1431</ele>
        <time>2023-04-21T13:26:31.000Z</time>
      </trkpt>
      <trkpt lat="44.50019" lon="6.19884">
        <ele>1430</ele>
        <time>2023-04-21T13:26:32.000Z</time>
      </trkpt>
      <trkpt lat="44.50019" lon="6.19884">
        <ele>1430</ele>
        <time>2023-04-21T13:26:33.000Z</time>
      </trkpt>
      <trkpt lat="44.50019" lon="6.19884">
        <ele>1430</ele>
        <time>2023-04-21T13:26:34.000Z</time>
      </trkpt>
      <trkpt lat="44.50019" lon="6.19884">
        <ele>1430</ele>
        <time>2023-04-21T13:26:35.000Z</time>
      </trkpt>
      <trkpt lat="44.50019" lon="6.19884">
        <ele>1430</ele>
        <time>2023-04-21T13:26:36.000Z</time>
      </trkpt>
      <trkpt lat="44.50019" lon="6.19884">
        <ele>1430</ele>
        <time>2023-04-21T13:26:37.000Z</time>
      </trkpt>
      <trkpt lat="44.50019" lon="6.19884">
        <ele>1430</ele>
        <time>2023-04-21T13:26:38.000Z</time>
      </trkpt>
      <trkpt lat="44.50019" lon="6.19884">
        <ele>1429</ele>
        <time>2023-04-21T13:26:39.000Z</time>
      </trkpt>
      <trkpt lat="44.50019" lon="6.19884">
        <ele>1429</ele>
        <time>2023-04-21T13:26:40.000Z</time>
      </trkpt>
      <trkpt lat="44.50019" lon="6.19884">
        <ele>1429</ele>
        <time>2023-04-21T13:26:41.000Z</time>
      </trkpt>
      <trkpt lat="44.50019" lon="6.19884">
        <ele>1429</ele>
        <time>2023-04-21T13:26:42.000Z</time>
      </trkpt>
      <trkpt lat="44.50019" lon="6.19884">
        <ele>1429</ele>
        <time>2023-04-21T13:26:43.000Z</time>
      </trkpt>
      <trkpt lat="44.50019" lon="6.19884">
        <ele>1429</ele>
        <time>2023-04-21T13:26:44.000Z</time>
      </trkpt>
      <trkpt lat="44.50019" lon="6.19884">
        <ele>1429</ele>
        <time>2023-04-21T13:26:45.000Z</time>
      </trkpt>
      <trkpt lat="44.50019" lon="6.19884">
        <ele>1429</ele>
        <time>2023-04-21T13:26:46.000Z</time>
      </trkpt>
      <trkpt lat="44.5002" lon="6.19883">
        <ele>1429</ele>
        <time>2023-04-21T13:26:47.000Z</time>
      </trkpt>
      <trkpt lat="44.50021" lon="6.19882">
        <ele>1429</ele>
        <time>2023-04-21T13:26:48.000Z</time>
      </trkpt>
      <trkpt lat="44.50022" lon="6.1988">
        <ele>1429</ele>
        <time>2023-04-21T13:26:49.000Z</time>
      </trkpt>
      <trkpt lat="44.50022" lon="6.19877">
        <ele>1430</ele>
        <time>2023-04-21T13:26:50.000Z</time>
      </trkpt>
      <trkpt lat="44.50022" lon="6.19874">
        <ele>1430</ele>
        <time>2023-04-21T13:26:51.000Z</time>
      </trkpt>
      <trkpt lat="44.50022" lon="6.19871">
        <ele>1430</ele>
        <time>2023-04-21T13:26:52.000Z</time>
      </trkpt>
      <trkpt lat="44.50022" lon="6.19867">
        <ele>1430</ele>
        <time>2023-04-21T13:26:53.000Z</time>
      </trkpt>
      <trkpt lat="44.50023" lon="6.19863">
        <ele>1430</ele>
        <time>2023-04-21T13:26:54.000Z</time>
      </trkpt>
      <trkpt lat="44.50024" lon="6.19859">
        <ele>1430</ele>
        <time>2023-04-21T13:26:55.000Z</time>
      </trkpt>
      <trkpt lat="44.50026" lon="6.19855">
        <ele>1430</ele>
        <time>2023-04-21T13:26:56.000Z</time>
      </trkpt>
      <trkpt lat="44.50028" lon="6.1985">
        <ele>1429</ele>
        <time>2023-04-21T13:26:57.000Z</time>
      </trkpt>
      <trkpt lat="44.50031" lon="6.19846">
        <ele>1429</ele>
        <time>2023-04-21T13:26:58.000Z</time>
      </trkpt>
      <trkpt lat="44.50034" lon="6.19842">
        <ele>1429</ele>
        <time>2023-04-21T13:26:59.000Z</time>
      </trkpt>
      <trkpt lat="44.50037" lon="6.19839">
        <ele>1429</ele>
        <time>2023-04-21T13:27:00.000Z</time>
      </trkpt>
      <trkpt lat="44.5004" lon="6.19835">
        <ele>1428</ele>
        <time>2023-04-21T13:27:01.000Z</time>
      </trkpt>
      <trkpt lat="44.50043" lon="6.19832">
        <ele>1428</ele>
        <time>2023-04-21T13:27:02.000Z</time>
      </trkpt>
      <trkpt lat="44.50045" lon="6.19829">
        <ele>1428</ele>
        <time>2023-04-21T13:27:03.000Z</time>
      </trkpt>
      <trkpt lat="44.50047" lon="6.19826">
        <ele>1428</ele>
        <time>2023-04-21T13:27:04.000Z</time>
      </trkpt>
      <trkpt lat="44.5005" lon="6.19824">
        <ele>1428</ele>
        <time>2023-04-21T13:27:05.000Z</time>
      </trkpt>
      <trkpt lat="44.50052" lon="6.19821">
        <ele>1428</ele>
        <time>2023-04-21T13:27:06.000Z</time>
      </trkpt>
      <trkpt lat="44.50054" lon="6.1982">
        <ele>1428</ele>
        <time>2023-04-21T13:27:07.000Z</time>
      </trkpt>
      <trkpt lat="44.50056" lon="6.19819">
        <ele>1430</ele>
        <time>2023-04-21T13:27:08.000Z</time>
      </trkpt>
      <trkpt lat="44.50059" lon="6.1982">
        <ele>1431</ele>
        <time>2023-04-21T13:27:09.000Z</time>
      </trkpt>
      <trkpt lat="44.50061" lon="6.1982">
        <ele>1431</ele>
        <time>2023-04-21T13:27:10.000Z</time>
      </trkpt>
      <trkpt lat="44.50063" lon="6.19821">
        <ele>1431</ele>
        <time>2023-04-21T13:27:11.000Z</time>
      </trkpt>
      <trkpt lat="44.50066" lon="6.19822">
        <ele>1431</ele>
        <time>2023-04-21T13:27:12.000Z</time>
      </trkpt>
      <trkpt lat="44.50067" lon="6.19825">
        <ele>1431</ele>
        <time>2023-04-21T13:27:13.000Z</time>
      </trkpt>
      <trkpt lat="44.50069" lon="6.19827">
        <ele>1432</ele>
        <time>2023-04-21T13:27:14.000Z</time>
      </trkpt>
      <trkpt lat="44.5007" lon="6.19829">
        <ele>1432</ele>
        <time>2023-04-21T13:27:15.000Z</time>
      </trkpt>
      <trkpt lat="44.50072" lon="6.19831">
        <ele>1432</ele>
        <time>2023-04-21T13:27:16.000Z</time>
      </trkpt>
      <trkpt lat="44.50074" lon="6.19833">
        <ele>1432</ele>
        <time>2023-04-21T13:27:17.000Z</time>
      </trkpt>
      <trkpt lat="44.50076" lon="6.19835">
        <ele>1432</ele>
        <time>2023-04-21T13:27:18.000Z</time>
      </trkpt>
      <trkpt lat="44.50078" lon="6.19837">
        <ele>1433</ele>
        <time>2023-04-21T13:27:19.000Z</time>
      </trkpt>
      <trkpt lat="44.5008" lon="6.19839">
        <ele>1433</ele>
        <time>2023-04-21T13:27:20.000Z</time>
      </trkpt>
      <trkpt lat="44.50082" lon="6.19841">
        <ele>1433</ele>
        <time>2023-04-21T13:27:21.000Z</time>
      </trkpt>
      <trkpt lat="44.50084" lon="6.19843">
        <ele>1433</ele>
        <time>2023-04-21T13:27:22.000Z</time>
      </trkpt>
      <trkpt lat="44.50086" lon="6.19845">
        <ele>1433</ele>
        <time>2023-04-21T13:27:23.000Z</time>
      </trkpt>
      <trkpt lat="44.50087" lon="6.19847">
        <ele>1433</ele>
        <time>2023-04-21T13:27:24.000Z</time>
      </trkpt>
      <trkpt lat="44.50089" lon="6.19849">
        <ele>1433</ele>
        <time>2023-04-21T13:27:25.000Z</time>
      </trkpt>
      <trkpt lat="44.50091" lon="6.19851">
        <ele>1433</ele>
        <time>2023-04-21T13:27:26.000Z</time>
      </trkpt>
      <trkpt lat="44.50093" lon="6.19853">
        <ele>1433</ele>
        <time>2023-04-21T13:27:27.000Z</time>
      </trkpt>
      <trkpt lat="44.50095" lon="6.19855">
        <ele>1433</ele>
        <time>2023-04-21T13:27:28.000Z</time>
      </trkpt>
      <trkpt lat="44.50097" lon="6.19857">
        <ele>1433</ele>
        <time>2023-04-21T13:27:29.000Z</time>
      </trkpt>
      <trkpt lat="44.50099" lon="6.19858">
        <ele>1433</ele>
        <time>2023-04-21T13:27:30.000Z</time>
      </trkpt>
      <trkpt lat="44.50101" lon="6.1986">
        <ele>1433</ele>
        <time>2023-04-21T13:27:31.000Z</time>
      </trkpt>
      <trkpt lat="44.50103" lon="6.19861">
        <ele>1433</ele>
        <time>2023-04-21T13:27:32.000Z</time>
      </trkpt>
      <trkpt lat="44.50105" lon="6.19863">
        <ele>1433</ele>
        <time>2023-04-21T13:27:33.000Z</time>
      </trkpt>
      <trkpt lat="44.50107" lon="6.19864">
        <ele>1433</ele>
        <time>2023-04-21T13:27:34.000Z</time>
      </trkpt>
      <trkpt lat="44.50109" lon="6.19865">
        <ele>1433</ele>
        <time>2023-04-21T13:27:35.000Z</time>
      </trkpt>
      <trkpt lat="44.50111" lon="6.19866">
        <ele>1434</ele>
        <time>2023-04-21T13:27:36.000Z</time>
      </trkpt>
      <trkpt lat="44.50113" lon="6.19867">
        <ele>1434</ele>
        <time>2023-04-21T13:27:37.000Z</time>
      </trkpt>
      <trkpt lat="44.50115" lon="6.19866">
        <ele>1434</ele>
        <time>2023-04-21T13:27:38.000Z</time>
      </trkpt>
      <trkpt lat="44.50117" lon="6.19867">
        <ele>1434</ele>
        <time>2023-04-21T13:27:39.000Z</time>
      </trkpt>
      <trkpt lat="44.50119" lon="6.19866">
        <ele>1434</ele>
        <time>2023-04-21T13:27:40.000Z</time>
      </trkpt>
      <trkpt lat="44.50121" lon="6.19865">
        <ele>1435</ele>
        <time>2023-04-21T13:27:41.000Z</time>
      </trkpt>
      <trkpt lat="44.50123" lon="6.19864">
        <ele>1435</ele>
        <time>2023-04-21T13:27:42.000Z</time>
      </trkpt>
      <trkpt lat="44.50126" lon="6.19864">
        <ele>1435</ele>
        <time>2023-04-21T13:27:43.000Z</time>
      </trkpt>
      <trkpt lat="44.50128" lon="6.19864">
        <ele>1435</ele>
        <time>2023-04-21T13:27:44.000Z</time>
      </trkpt>
      <trkpt lat="44.50131" lon="6.19864">
        <ele>1435</ele>
        <time>2023-04-21T13:27:45.000Z</time>
      </trkpt>
      <trkpt lat="44.50133" lon="6.19864">
        <ele>1435</ele>
        <time>2023-04-21T13:27:46.000Z</time>
      </trkpt>
      <trkpt lat="44.50135" lon="6.19865">
        <ele>1436</ele>
        <time>2023-04-21T13:27:47.000Z</time>
      </trkpt>
      <trkpt lat="44.50138" lon="6.19866">
        <ele>1436</ele>
        <time>2023-04-21T13:27:48.000Z</time>
      </trkpt>
      <trkpt lat="44.5014" lon="6.19867">
        <ele>1436</ele>
        <time>2023-04-21T13:27:49.000Z</time>
      </trkpt>
      <trkpt lat="44.50142" lon="6.19868">
        <ele>1436</ele>
        <time>2023-04-21T13:27:50.000Z</time>
      </trkpt>
      <trkpt lat="44.50144" lon="6.19869">
        <ele>1436</ele>
        <time>2023-04-21T13:27:51.000Z</time>
      </trkpt>
      <trkpt lat="44.50146" lon="6.1987">
        <ele>1436</ele>
        <time>2023-04-21T13:27:52.000Z</time>
      </trkpt>
      <trkpt lat="44.50148" lon="6.19872">
        <ele>1436</ele>
        <time>2023-04-21T13:27:53.000Z</time>
      </trkpt>
      <trkpt lat="44.5015" lon="6.19873">
        <ele>1436</ele>
        <time>2023-04-21T13:27:54.000Z</time>
      </trkpt>
      <trkpt lat="44.50152" lon="6.19875">
        <ele>1436</ele>
        <time>2023-04-21T13:27:55.000Z</time>
      </trkpt>
      <trkpt lat="44.50153" lon="6.19876">
        <ele>1436</ele>
        <time>2023-04-21T13:27:56.000Z</time>
      </trkpt>
      <trkpt lat="44.50155" lon="6.19877">
        <ele>1436</ele>
        <time>2023-04-21T13:27:57.000Z</time>
      </trkpt>
      <trkpt lat="44.50157" lon="6.19878">
        <ele>1436</ele>
        <time>2023-04-21T13:27:58.000Z</time>
      </trkpt>
      <trkpt lat="44.50159" lon="6.1988">
        <ele>1436</ele>
        <time>2023-04-21T13:27:59.000Z</time>
      </trkpt>
      <trkpt lat="44.5016" lon="6.19882">
        <ele>1436</ele>
        <time>2023-04-21T13:28:00.000Z</time>
      </trkpt>
      <trkpt lat="44.50162" lon="6.19884">
        <ele>1436</ele>
        <time>2023-04-21T13:28:01.000Z</time>
      </trkpt>
      <trkpt lat="44.50164" lon="6.19886">
        <ele>1436</ele>
        <time>2023-04-21T13:28:02.000Z</time>
      </trkpt>
      <trkpt lat="44.50166" lon="6.19888">
        <ele>1436</ele>
        <time>2023-04-21T13:28:03.000Z</time>
      </trkpt>
      <trkpt lat="44.50167" lon="6.1989">
        <ele>1436</ele>
        <time>2023-04-21T13:28:04.000Z</time>
      </trkpt>
      <trkpt lat="44.50169" lon="6.19892">
        <ele>1436</ele>
        <time>2023-04-21T13:28:05.000Z</time>
      </trkpt>
      <trkpt lat="44.50171" lon="6.19893">
        <ele>1435</ele>
        <time>2023-04-21T13:28:06.000Z</time>
      </trkpt>
      <trkpt lat="44.50173" lon="6.19895">
        <ele>1435</ele>
        <time>2023-04-21T13:28:07.000Z</time>
      </trkpt>
      <trkpt lat="44.50175" lon="6.19897">
        <ele>1435</ele>
        <time>2023-04-21T13:28:08.000Z</time>
      </trkpt>
      <trkpt lat="44.50177" lon="6.19899">
        <ele>1435</ele>
        <time>2023-04-21T13:28:09.000Z</time>
      </trkpt>
      <trkpt lat="44.50179" lon="6.19901">
        <ele>1435</ele>
        <time>2023-04-21T13:28:10.000Z</time>
      </trkpt>
      <trkpt lat="44.50181" lon="6.19902">
        <ele>1435</ele>
        <time>2023-04-21T13:28:11.000Z</time>
      </trkpt>
      <trkpt lat="44.50183" lon="6.19904">
        <ele>1435</ele>
        <time>2023-04-21T13:28:12.000Z</time>
      </trkpt>
      <trkpt lat="44.50185" lon="6.19906">
        <ele>1434</ele>
        <time>2023-04-21T13:28:13.000Z</time>
      </trkpt>
      <trkpt lat="44.50187" lon="6.19908">
        <ele>1435</ele>
        <time>2023-04-21T13:28:14.000Z</time>
      </trkpt>
      <trkpt lat="44.50189" lon="6.1991">
        <ele>1435</ele>
        <time>2023-04-21T13:28:15.000Z</time>
      </trkpt>
      <trkpt lat="44.50191" lon="6.19912">
        <ele>1435</ele>
        <time>2023-04-21T13:28:16.000Z</time>
      </trkpt>
      <trkpt lat="44.50193" lon="6.19913">
        <ele>1435</ele>
        <time>2023-04-21T13:28:17.000Z</time>
      </trkpt>
      <trkpt lat="44.50195" lon="6.19915">
        <ele>1435</ele>
        <time>2023-04-21T13:28:18.000Z</time>
      </trkpt>
      <trkpt lat="44.50197" lon="6.19917">
        <ele>1435</ele>
        <time>2023-04-21T13:28:19.000Z</time>
      </trkpt>
      <trkpt lat="44.502" lon="6.19919">
        <ele>1435</ele>
        <time>2023-04-21T13:28:20.000Z</time>
      </trkpt>
      <trkpt lat="44.50202" lon="6.19921">
        <ele>1435</ele>
        <time>2023-04-21T13:28:21.000Z</time>
      </trkpt>
      <trkpt lat="44.50204" lon="6.19923">
        <ele>1435</ele>
        <time>2023-04-21T13:28:22.000Z</time>
      </trkpt>
      <trkpt lat="44.50207" lon="6.19925">
        <ele>1435</ele>
        <time>2023-04-21T13:28:23.000Z</time>
      </trkpt>
      <trkpt lat="44.50209" lon="6.19927">
        <ele>1435</ele>
        <time>2023-04-21T13:28:24.000Z</time>
      </trkpt>
      <trkpt lat="44.50212" lon="6.19928">
        <ele>1435</ele>
        <time>2023-04-21T13:28:25.000Z</time>
      </trkpt>
      <trkpt lat="44.50214" lon="6.19929">
        <ele>1435</ele>
        <time>2023-04-21T13:28:26.000Z</time>
      </trkpt>
      <trkpt lat="44.50217" lon="6.1993">
        <ele>1435</ele>
        <time>2023-04-21T13:28:27.000Z</time>
      </trkpt>
      <trkpt lat="44.50219" lon="6.1993">
        <ele>1435</ele>
        <time>2023-04-21T13:28:28.000Z</time>
      </trkpt>
      <trkpt lat="44.50222" lon="6.19931">
        <ele>1435</ele>
        <time>2023-04-21T13:28:29.000Z</time>
      </trkpt>
      <trkpt lat="44.50225" lon="6.19931">
        <ele>1435</ele>
        <time>2023-04-21T13:28:30.000Z</time>
      </trkpt>
      <trkpt lat="44.50228" lon="6.19932">
        <ele>1435</ele>
        <time>2023-04-21T13:28:31.000Z</time>
      </trkpt>
      <trkpt lat="44.50231" lon="6.19932">
        <ele>1435</ele>
        <time>2023-04-21T13:28:32.000Z</time>
      </trkpt>
      <trkpt lat="44.50233" lon="6.19932">
        <ele>1435</ele>
        <time>2023-04-21T13:28:33.000Z</time>
      </trkpt>
      <trkpt lat="44.50236" lon="6.19933">
        <ele>1435</ele>
        <time>2023-04-21T13:28:34.000Z</time>
      </trkpt>
      <trkpt lat="44.50238" lon="6.19933">
        <ele>1435</ele>
        <time>2023-04-21T13:28:35.000Z</time>
      </trkpt>
      <trkpt lat="44.50241" lon="6.19933">
        <ele>1435</ele>
        <time>2023-04-21T13:28:36.000Z</time>
      </trkpt>
      <trkpt lat="44.50243" lon="6.19933">
        <ele>1435</ele>
        <time>2023-04-21T13:28:37.000Z</time>
      </trkpt>
      <trkpt lat="44.50245" lon="6.19934">
        <ele>1436</ele>
        <time>2023-04-21T13:28:38.000Z</time>
      </trkpt>
      <trkpt lat="44.50247" lon="6.19934">
        <ele>1436</ele>
        <time>2023-04-21T13:28:39.000Z</time>
      </trkpt>
      <trkpt lat="44.5025" lon="6.19933">
        <ele>1435</ele>
        <time>2023-04-21T13:28:40.000Z</time>
      </trkpt>
      <trkpt lat="44.50253" lon="6.19933">
        <ele>1435</ele>
        <time>2023-04-21T13:28:41.000Z</time>
      </trkpt>
      <trkpt lat="44.50256" lon="6.19933">
        <ele>1437</ele>
        <time>2023-04-21T13:28:42.000Z</time>
      </trkpt>
      <trkpt lat="44.5026" lon="6.19933">
        <ele>1437</ele>
        <time>2023-04-21T13:28:43.000Z</time>
      </trkpt>
      <trkpt lat="44.50264" lon="6.19933">
        <ele>1437</ele>
        <time>2023-04-21T13:28:44.000Z</time>
      </trkpt>
      <trkpt lat="44.50265" lon="6.19931">
        <ele>1439</ele>
        <time>2023-04-21T13:28:45.000Z</time>
      </trkpt>
      <trkpt lat="44.50268" lon="6.1993">
        <ele>1441</ele>
        <time>2023-04-21T13:28:46.000Z</time>
      </trkpt>
      <trkpt lat="44.5027" lon="6.19927">
        <ele>1443</ele>
        <time>2023-04-21T13:28:47.000Z</time>
      </trkpt>
      <trkpt lat="44.50272" lon="6.19924">
        <ele>1445</ele>
        <time>2023-04-21T13:28:48.000Z</time>
      </trkpt>
      <trkpt lat="44.50275" lon="6.1992">
        <ele>1447</ele>
        <time>2023-04-21T13:28:49.000Z</time>
      </trkpt>
      <trkpt lat="44.50277" lon="6.19917">
        <ele>1448</ele>
        <time>2023-04-21T13:28:50.000Z</time>
      </trkpt>
      <trkpt lat="44.50279" lon="6.19912">
        <ele>1447</ele>
        <time>2023-04-21T13:28:51.000Z</time>
      </trkpt>
      <trkpt lat="44.50281" lon="6.19908">
        <ele>1446</ele>
        <time>2023-04-21T13:28:52.000Z</time>
      </trkpt>
      <trkpt lat="44.50282" lon="6.19904">
        <ele>1446</ele>
        <time>2023-04-21T13:28:53.000Z</time>
      </trkpt>
      <trkpt lat="44.50283" lon="6.19901">
        <ele>1445</ele>
        <time>2023-04-21T13:28:54.000Z</time>
      </trkpt>
      <trkpt lat="44.50283" lon="6.19899">
        <ele>1446</ele>
        <time>2023-04-21T13:28:55.000Z</time>
      </trkpt>
      <trkpt lat="44.50283" lon="6.19898">
        <ele>1445</ele>
        <time>2023-04-21T13:28:56.000Z</time>
      </trkpt>
      <trkpt lat="44.50283" lon="6.19898">
        <ele>1445</ele>
        <time>2023-04-21T13:28:57.000Z</time>
      </trkpt>
      <trkpt lat="44.50284" lon="6.19897">
        <ele>1443</ele>
        <time>2023-04-21T13:28:58.000Z</time>
      </trkpt>
      <trkpt lat="44.50284" lon="6.19897">
        <ele>1442</ele>
        <time>2023-04-21T13:28:59.000Z</time>
      </trkpt>
      <trkpt lat="44.50284" lon="6.19896">
        <ele>1441</ele>
        <time>2023-04-21T13:29:00.000Z</time>
      </trkpt>
      <trkpt lat="44.50284" lon="6.19896">
        <ele>1441</ele>
        <time>2023-04-21T13:29:01.000Z</time>
      </trkpt>
      <trkpt lat="44.50284" lon="6.19896">
        <ele>1441</ele>
        <time>2023-04-21T13:29:02.000Z</time>
      </trkpt>
      <trkpt lat="44.50285" lon="6.19896">
        <ele>1440</ele>
        <time>2023-04-21T13:29:03.000Z</time>
      </trkpt>
      <trkpt lat="44.50285" lon="6.19896">
        <ele>1440</ele>
        <time>2023-04-21T13:29:04.000Z</time>
      </trkpt>
      <trkpt lat="44.50285" lon="6.19896">
        <ele>1440</ele>
        <time>2023-04-21T13:29:05.000Z</time>
      </trkpt>
      <trkpt lat="44.50285" lon="6.19896">
        <ele>1440</ele>
        <time>2023-04-21T13:29:06.000Z</time>
      </trkpt>
      <trkpt lat="44.50286" lon="6.19896">
        <ele>1440</ele>
        <time>2023-04-21T13:29:07.000Z</time>
      </trkpt>
      <trkpt lat="44.50286" lon="6.19896">
        <ele>1441</ele>
        <time>2023-04-21T13:29:08.000Z</time>
      </trkpt>
      <trkpt lat="44.50286" lon="6.19896">
        <ele>1441</ele>
        <time>2023-04-21T13:29:09.000Z</time>
      </trkpt>
      <trkpt lat="44.50287" lon="6.19895">
        <ele>1440</ele>
        <time>2023-04-21T13:29:10.000Z</time>
      </trkpt>
      <trkpt lat="44.50287" lon="6.19896">
        <ele>1441</ele>
        <time>2023-04-21T13:29:11.000Z</time>
      </trkpt>
      <trkpt lat="44.50287" lon="6.19896">
        <ele>1441</ele>
        <time>2023-04-21T13:29:12.000Z</time>
      </trkpt>
      <trkpt lat="44.50287" lon="6.19895">
        <ele>1442</ele>
        <time>2023-04-21T13:29:13.000Z</time>
      </trkpt>
      <trkpt lat="44.50288" lon="6.19895">
        <ele>1442</ele>
        <time>2023-04-21T13:29:14.000Z</time>
      </trkpt>
      <trkpt lat="44.50288" lon="6.19895">
        <ele>1442</ele>
        <time>2023-04-21T13:29:15.000Z</time>
      </trkpt>
      <trkpt lat="44.50288" lon="6.19895">
        <ele>1442</ele>
        <time>2023-04-21T13:29:16.000Z</time>
      </trkpt>
      <trkpt lat="44.50288" lon="6.19895">
        <ele>1442</ele>
        <time>2023-04-21T13:29:17.000Z</time>
      </trkpt>
      <trkpt lat="44.50288" lon="6.19895">
        <ele>1442</ele>
        <time>2023-04-21T13:29:18.000Z</time>
      </trkpt>
      <trkpt lat="44.50289" lon="6.19895">
        <ele>1442</ele>
        <time>2023-04-21T13:29:19.000Z</time>
      </trkpt>
      <trkpt lat="44.50289" lon="6.19895">
        <ele>1442</ele>
        <time>2023-04-21T13:29:20.000Z</time>
      </trkpt>
      <trkpt lat="44.50289" lon="6.19895">
        <ele>1443</ele>
        <time>2023-04-21T13:29:21.000Z</time>
      </trkpt>
      <trkpt lat="44.50289" lon="6.19895">
        <ele>1442</ele>
        <time>2023-04-21T13:29:22.000Z</time>
      </trkpt>
      <trkpt lat="44.50289" lon="6.19895">
        <ele>1442</ele>
        <time>2023-04-21T13:29:23.000Z</time>
      </trkpt>
      <trkpt lat="44.50289" lon="6.19895">
        <ele>1442</ele>
        <time>2023-04-21T13:29:24.000Z</time>
      </trkpt>
      <trkpt lat="44.50289" lon="6.19894">
        <ele>1442</ele>
        <time>2023-04-21T13:29:25.000Z</time>
      </trkpt>
      <trkpt lat="44.50289" lon="6.19894">
        <ele>1441</ele>
        <time>2023-04-21T13:29:26.000Z</time>
      </trkpt>
      <trkpt lat="44.50289" lon="6.19894">
        <ele>1441</ele>
        <time>2023-04-21T13:29:27.000Z</time>
      </trkpt>
      <trkpt lat="44.50289" lon="6.19894">
        <ele>1441</ele>
        <time>2023-04-21T13:29:28.000Z</time>
      </trkpt>
      <trkpt lat="44.50289" lon="6.19894">
        <ele>1441</ele>
        <time>2023-04-21T13:29:29.000Z</time>
      </trkpt>
      <trkpt lat="44.50289" lon="6.19894">
        <ele>1441</ele>
        <time>2023-04-21T13:29:30.000Z</time>
      </trkpt>
      <trkpt lat="44.5029" lon="6.19894">
        <ele>1441</ele>
        <time>2023-04-21T13:29:31.000Z</time>
      </trkpt>
      <trkpt lat="44.5029" lon="6.19894">
        <ele>1441</ele>
        <time>2023-04-21T13:29:32.000Z</time>
      </trkpt>
      <trkpt lat="44.5029" lon="6.19894">
        <ele>1439</ele>
        <time>2023-04-21T13:29:33.000Z</time>
      </trkpt>
      <trkpt lat="44.5029" lon="6.19893">
        <ele>1438</ele>
        <time>2023-04-21T13:29:34.000Z</time>
      </trkpt>
      <trkpt lat="44.5029" lon="6.19893">
        <ele>1437</ele>
        <time>2023-04-21T13:29:35.000Z</time>
      </trkpt>
      <trkpt lat="44.5029" lon="6.19893">
        <ele>1435</ele>
        <time>2023-04-21T13:29:36.000Z</time>
      </trkpt>
      <trkpt lat="44.5029" lon="6.19893">
        <ele>1435</ele>
        <time>2023-04-21T13:29:37.000Z</time>
      </trkpt>
      <trkpt lat="44.50291" lon="6.19893">
        <ele>1435</ele>
        <time>2023-04-21T13:29:38.000Z</time>
      </trkpt>
      <trkpt lat="44.50291" lon="6.19893">
        <ele>1434</ele>
        <time>2023-04-21T13:29:39.000Z</time>
      </trkpt>
      <trkpt lat="44.50291" lon="6.19893">
        <ele>1434</ele>
        <time>2023-04-21T13:29:40.000Z</time>
      </trkpt>
      <trkpt lat="44.50291" lon="6.19893">
        <ele>1435</ele>
        <time>2023-04-21T13:29:41.000Z</time>
      </trkpt>
      <trkpt lat="44.50291" lon="6.19892">
        <ele>1435</ele>
        <time>2023-04-21T13:29:42.000Z</time>
      </trkpt>
      <trkpt lat="44.50291" lon="6.19892">
        <ele>1435</ele>
        <time>2023-04-21T13:29:43.000Z</time>
      </trkpt>
      <trkpt lat="44.50292" lon="6.19891">
        <ele>1435</ele>
        <time>2023-04-21T13:29:44.000Z</time>
      </trkpt>
      <trkpt lat="44.50293" lon="6.19889">
        <ele>1434</ele>
        <time>2023-04-21T13:29:45.000Z</time>
      </trkpt>
      <trkpt lat="44.50295" lon="6.19887">
        <ele>1435</ele>
        <time>2023-04-21T13:29:46.000Z</time>
      </trkpt>
      <trkpt lat="44.50299" lon="6.19883">
        <ele>1435</ele>
        <time>2023-04-21T13:29:47.000Z</time>
      </trkpt>
      <trkpt lat="44.50304" lon="6.19878">
        <ele>1432</ele>
        <time>2023-04-21T13:29:48.000Z</time>
      </trkpt>
      <trkpt lat="44.50308" lon="6.19872">
        <ele>1430</ele>
        <time>2023-04-21T13:29:49.000Z</time>
      </trkpt>
      <trkpt lat="44.50313" lon="6.19868">
        <ele>1428</ele>
        <time>2023-04-21T13:29:50.000Z</time>
      </trkpt>
      <trkpt lat="44.50321" lon="6.19863">
        <ele>1428</ele>
        <time>2023-04-21T13:29:51.000Z</time>
      </trkpt>
      <trkpt lat="44.50328" lon="6.19858">
        <ele>1426</ele>
        <time>2023-04-21T13:29:52.000Z</time>
      </trkpt>
      <trkpt lat="44.50334" lon="6.19853">
        <ele>1425</ele>
        <time>2023-04-21T13:29:53.000Z</time>
      </trkpt>
      <trkpt lat="44.5034" lon="6.19848">
        <ele>1424</ele>
        <time>2023-04-21T13:29:54.000Z</time>
      </trkpt>
      <trkpt lat="44.50345" lon="6.19842">
        <ele>1423</ele>
        <time>2023-04-21T13:29:55.000Z</time>
      </trkpt>
      <trkpt lat="44.50349" lon="6.19836">
        <ele>1422</ele>
        <time>2023-04-21T13:29:56.000Z</time>
      </trkpt>
      <trkpt lat="44.50354" lon="6.19829">
        <ele>1422</ele>
        <time>2023-04-21T13:29:57.000Z</time>
      </trkpt>
      <trkpt lat="44.50357" lon="6.19823">
        <ele>1421</ele>
        <time>2023-04-21T13:29:58.000Z</time>
      </trkpt>
      <trkpt lat="44.50359" lon="6.19817">
        <ele>1421</ele>
        <time>2023-04-21T13:29:59.000Z</time>
      </trkpt>
      <trkpt lat="44.50361" lon="6.19813">
        <ele>1421</ele>
        <time>2023-04-21T13:30:00.000Z</time>
      </trkpt>
      <trkpt lat="44.50363" lon="6.1981">
        <ele>1421</ele>
        <time>2023-04-21T13:30:01.000Z</time>
      </trkpt>
      <trkpt lat="44.50365" lon="6.19807">
        <ele>1421</ele>
        <time>2023-04-21T13:30:02.000Z</time>
      </trkpt>
      <trkpt lat="44.50367" lon="6.19804">
        <ele>1420</ele>
        <time>2023-04-21T13:30:03.000Z</time>
      </trkpt>
      <trkpt lat="44.5037" lon="6.19803">
        <ele>1420</ele>
        <time>2023-04-21T13:30:04.000Z</time>
      </trkpt>
      <trkpt lat="44.50372" lon="6.198">
        <ele>1420</ele>
        <time>2023-04-21T13:30:05.000Z</time>
      </trkpt>
      <trkpt lat="44.50375" lon="6.19798">
        <ele>1420</ele>
        <time>2023-04-21T13:30:06.000Z</time>
      </trkpt>
      <trkpt lat="44.50378" lon="6.19796">
        <ele>1420</ele>
        <time>2023-04-21T13:30:07.000Z</time>
      </trkpt>
      <trkpt lat="44.50381" lon="6.19794">
        <ele>1419</ele>
        <time>2023-04-21T13:30:08.000Z</time>
      </trkpt>
      <trkpt lat="44.50385" lon="6.19793">
        <ele>1419</ele>
        <time>2023-04-21T13:30:09.000Z</time>
      </trkpt>
      <trkpt lat="44.5039" lon="6.19792">
        <ele>1420</ele>
        <time>2023-04-21T13:30:10.000Z</time>
      </trkpt>
      <trkpt lat="44.50395" lon="6.19791">
        <ele>1421</ele>
        <time>2023-04-21T13:30:11.000Z</time>
      </trkpt>
      <trkpt lat="44.50401" lon="6.19789">
        <ele>1420</ele>
        <time>2023-04-21T13:30:12.000Z</time>
      </trkpt>
      <trkpt lat="44.50407" lon="6.19786">
        <ele>1419</ele>
        <time>2023-04-21T13:30:13.000Z</time>
      </trkpt>
      <trkpt lat="44.50413" lon="6.19783">
        <ele>1419</ele>
        <time>2023-04-21T13:30:14.000Z</time>
      </trkpt>
      <trkpt lat="44.50419" lon="6.1978">
        <ele>1418</ele>
        <time>2023-04-21T13:30:15.000Z</time>
      </trkpt>
      <trkpt lat="44.50425" lon="6.19777">
        <ele>1417</ele>
        <time>2023-04-21T13:30:16.000Z</time>
      </trkpt>
      <trkpt lat="44.50431" lon="6.19775">
        <ele>1416</ele>
        <time>2023-04-21T13:30:17.000Z</time>
      </trkpt>
      <trkpt lat="44.50436" lon="6.19773">
        <ele>1415</ele>
        <time>2023-04-21T13:30:18.000Z</time>
      </trkpt>
      <trkpt lat="44.50441" lon="6.19773">
        <ele>1414</ele>
        <time>2023-04-21T13:30:19.000Z</time>
      </trkpt>
      <trkpt lat="44.50445" lon="6.19774">
        <ele>1414</ele>
        <time>2023-04-21T13:30:20.000Z</time>
      </trkpt>
      <trkpt lat="44.50449" lon="6.19777">
        <ele>1415</ele>
        <time>2023-04-21T13:30:21.000Z</time>
      </trkpt>
      <trkpt lat="44.5045" lon="6.19782">
        <ele>1413</ele>
        <time>2023-04-21T13:30:22.000Z</time>
      </trkpt>
      <trkpt lat="44.50452" lon="6.19787">
        <ele>1412</ele>
        <time>2023-04-21T13:30:23.000Z</time>
      </trkpt>
      <trkpt lat="44.50453" lon="6.19793">
        <ele>1411</ele>
        <time>2023-04-21T13:30:24.000Z</time>
      </trkpt>
      <trkpt lat="44.50452" lon="6.19797">
        <ele>1411</ele>
        <time>2023-04-21T13:30:25.000Z</time>
      </trkpt>
      <trkpt lat="44.50452" lon="6.19801">
        <ele>1410</ele>
        <time>2023-04-21T13:30:26.000Z</time>
      </trkpt>
      <trkpt lat="44.50452" lon="6.19805">
        <ele>1409</ele>
        <time>2023-04-21T13:30:27.000Z</time>
      </trkpt>
      <trkpt lat="44.50453" lon="6.1981">
        <ele>1408</ele>
        <time>2023-04-21T13:30:28.000Z</time>
      </trkpt>
      <trkpt lat="44.50454" lon="6.19817">
        <ele>1406</ele>
        <time>2023-04-21T13:30:29.000Z</time>
      </trkpt>
      <trkpt lat="44.50455" lon="6.19824">
        <ele>1404</ele>
        <time>2023-04-21T13:30:30.000Z</time>
      </trkpt>
      <trkpt lat="44.50456" lon="6.19832">
        <ele>1403</ele>
        <time>2023-04-21T13:30:31.000Z</time>
      </trkpt>
      <trkpt lat="44.50457" lon="6.19841">
        <ele>1401</ele>
        <time>2023-04-21T13:30:32.000Z</time>
      </trkpt>
      <trkpt lat="44.50458" lon="6.19851">
        <ele>1399</ele>
        <time>2023-04-21T13:30:33.000Z</time>
      </trkpt>
      <trkpt lat="44.50459" lon="6.19862">
        <ele>1397</ele>
        <time>2023-04-21T13:30:34.000Z</time>
      </trkpt>
      <trkpt lat="44.5046" lon="6.19874">
        <ele>1396</ele>
        <time>2023-04-21T13:30:35.000Z</time>
      </trkpt>
      <trkpt lat="44.50461" lon="6.19885">
        <ele>1394</ele>
        <time>2023-04-21T13:30:36.000Z</time>
      </trkpt>
      <trkpt lat="44.50461" lon="6.19896">
        <ele>1394</ele>
        <time>2023-04-21T13:30:37.000Z</time>
      </trkpt>
      <trkpt lat="44.50461" lon="6.19906">
        <ele>1394</ele>
        <time>2023-04-21T13:30:38.000Z</time>
      </trkpt>
      <trkpt lat="44.5046" lon="6.19916">
        <ele>1393</ele>
        <time>2023-04-21T13:30:39.000Z</time>
      </trkpt>
      <trkpt lat="44.50458" lon="6.19921">
        <ele>1393</ele>
        <time>2023-04-21T13:30:40.000Z</time>
      </trkpt>
      <trkpt lat="44.50458" lon="6.19926">
        <ele>1394</ele>
        <time>2023-04-21T13:30:41.000Z</time>
      </trkpt>
      <trkpt lat="44.50457" lon="6.19929">
        <ele>1394</ele>
        <time>2023-04-21T13:30:42.000Z</time>
      </trkpt>
      <trkpt lat="44.50458" lon="6.19932">
        <ele>1393</ele>
        <time>2023-04-21T13:30:43.000Z</time>
      </trkpt>
      <trkpt lat="44.50459" lon="6.19935">
        <ele>1393</ele>
        <time>2023-04-21T13:30:44.000Z</time>
      </trkpt>
      <trkpt lat="44.5046" lon="6.19938">
        <ele>1392</ele>
        <time>2023-04-21T13:30:45.000Z</time>
      </trkpt>
      <trkpt lat="44.5046" lon="6.19942">
        <ele>1392</ele>
        <time>2023-04-21T13:30:46.000Z</time>
      </trkpt>
      <trkpt lat="44.50461" lon="6.19946">
        <ele>1391</ele>
        <time>2023-04-21T13:30:47.000Z</time>
      </trkpt>
      <trkpt lat="44.50461" lon="6.1995">
        <ele>1391</ele>
        <time>2023-04-21T13:30:48.000Z</time>
      </trkpt>
      <trkpt lat="44.50462" lon="6.19954">
        <ele>1390</ele>
        <time>2023-04-21T13:30:49.000Z</time>
      </trkpt>
      <trkpt lat="44.50463" lon="6.19959">
        <ele>1390</ele>
        <time>2023-04-21T13:30:50.000Z</time>
      </trkpt>
      <trkpt lat="44.50464" lon="6.19963">
        <ele>1389</ele>
        <time>2023-04-21T13:30:51.000Z</time>
      </trkpt>
      <trkpt lat="44.50465" lon="6.19968">
        <ele>1389</ele>
        <time>2023-04-21T13:30:52.000Z</time>
      </trkpt>
      <trkpt lat="44.50466" lon="6.19971">
        <ele>1389</ele>
        <time>2023-04-21T13:30:53.000Z</time>
      </trkpt>
      <trkpt lat="44.50467" lon="6.19975">
        <ele>1388</ele>
        <time>2023-04-21T13:30:54.000Z</time>
      </trkpt>
      <trkpt lat="44.50469" lon="6.19979">
        <ele>1388</ele>
        <time>2023-04-21T13:30:55.000Z</time>
      </trkpt>
      <trkpt lat="44.5047" lon="6.19982">
        <ele>1388</ele>
        <time>2023-04-21T13:30:56.000Z</time>
      </trkpt>
      <trkpt lat="44.50471" lon="6.19984">
        <ele>1387</ele>
        <time>2023-04-21T13:30:57.000Z</time>
      </trkpt>
      <trkpt lat="44.50471" lon="6.19987">
        <ele>1387</ele>
        <time>2023-04-21T13:30:58.000Z</time>
      </trkpt>
      <trkpt lat="44.50472" lon="6.19988">
        <ele>1387</ele>
        <time>2023-04-21T13:30:59.000Z</time>
      </trkpt>
      <trkpt lat="44.50472" lon="6.19987">
        <ele>1387</ele>
        <time>2023-04-21T13:31:00.000Z</time>
      </trkpt>
      <trkpt lat="44.50472" lon="6.19987">
        <ele>1387</ele>
        <time>2023-04-21T13:31:01.000Z</time>
      </trkpt>
      <trkpt lat="44.50472" lon="6.19987">
        <ele>1387</ele>
        <time>2023-04-21T13:31:02.000Z</time>
      </trkpt>
      <trkpt lat="44.50472" lon="6.19987">
        <ele>1387</ele>
        <time>2023-04-21T13:31:03.000Z</time>
      </trkpt>
      <trkpt lat="44.50472" lon="6.19987">
        <ele>1387</ele>
        <time>2023-04-21T13:31:04.000Z</time>
      </trkpt>
      <trkpt lat="44.50472" lon="6.19987">
        <ele>1387</ele>
        <time>2023-04-21T13:31:05.000Z</time>
      </trkpt>
      <trkpt lat="44.50472" lon="6.19987">
        <ele>1387</ele>
        <time>2023-04-21T13:31:06.000Z</time>
      </trkpt>
      <trkpt lat="44.50472" lon="6.19987">
        <ele>1387</ele>
        <time>2023-04-21T13:31:07.000Z</time>
      </trkpt>
      <trkpt lat="44.50472" lon="6.19987">
        <ele>1387</ele>
        <time>2023-04-21T13:31:08.000Z</time>
      </trkpt>
      <trkpt lat="44.50472" lon="6.19987">
        <ele>1387</ele>
        <time>2023-04-21T13:31:09.000Z</time>
      </trkpt>
      <trkpt lat="44.50472" lon="6.19987">
        <ele>1387</ele>
        <time>2023-04-21T13:31:10.000Z</time>
      </trkpt>
      <trkpt lat="44.50472" lon="6.19987">
        <ele>1387</ele>
        <time>2023-04-21T13:31:11.000Z</time>
      </trkpt>
      <trkpt lat="44.50472" lon="6.19987">
        <ele>1387</ele>
        <time>2023-04-21T13:31:12.000Z</time>
      </trkpt>
      <trkpt lat="44.50472" lon="6.19987">
        <ele>1387</ele>
        <time>2023-04-21T13:31:13.000Z</time>
      </trkpt>
      <trkpt lat="44.50472" lon="6.19987">
        <ele>1387</ele>
        <time>2023-04-21T13:31:14.000Z</time>
      </trkpt>
      <trkpt lat="44.50472" lon="6.19987">
        <ele>1387</ele>
        <time>2023-04-21T13:31:15.000Z</time>
      </trkpt>
      <trkpt lat="44.50472" lon="6.19987">
        <ele>1387</ele>
        <time>2023-04-21T13:31:16.000Z</time>
      </trkpt>
      <trkpt lat="44.50472" lon="6.19986">
        <ele>1387</ele>
        <time>2023-04-21T13:31:17.000Z</time>
      </trkpt>
      <trkpt lat="44.50472" lon="6.19986">
        <ele>1388</ele>
        <time>2023-04-21T13:31:18.000Z</time>
      </trkpt>
      <trkpt lat="44.50472" lon="6.19986">
        <ele>1387</ele>
        <time>2023-04-21T13:31:19.000Z</time>
      </trkpt>
      <trkpt lat="44.50472" lon="6.19986">
        <ele>1387</ele>
        <time>2023-04-21T13:31:20.000Z</time>
      </trkpt>
      <trkpt lat="44.50472" lon="6.19986">
        <ele>1388</ele>
        <time>2023-04-21T13:31:21.000Z</time>
      </trkpt>
      <trkpt lat="44.50472" lon="6.19986">
        <ele>1388</ele>
        <time>2023-04-21T13:31:22.000Z</time>
      </trkpt>
      <trkpt lat="44.50472" lon="6.19986">
        <ele>1388</ele>
        <time>2023-04-21T13:31:23.000Z</time>
      </trkpt>
      <trkpt lat="44.50473" lon="6.19986">
        <ele>1388</ele>
        <time>2023-04-21T13:31:24.000Z</time>
      </trkpt>
      <trkpt lat="44.50473" lon="6.19985">
        <ele>1387</ele>
        <time>2023-04-21T13:31:25.000Z</time>
      </trkpt>
      <trkpt lat="44.50475" lon="6.19983">
        <ele>1388</ele>
        <time>2023-04-21T13:31:26.000Z</time>
      </trkpt>
      <trkpt lat="44.50476" lon="6.19981">
        <ele>1389</ele>
        <time>2023-04-21T13:31:27.000Z</time>
      </trkpt>
      <trkpt lat="44.50477" lon="6.19978">
        <ele>1390</ele>
        <time>2023-04-21T13:31:28.000Z</time>
      </trkpt>
      <trkpt lat="44.50478" lon="6.19975">
        <ele>1390</ele>
        <time>2023-04-21T13:31:29.000Z</time>
      </trkpt>
      <trkpt lat="44.5048" lon="6.19972">
        <ele>1390</ele>
        <time>2023-04-21T13:31:30.000Z</time>
      </trkpt>
      <trkpt lat="44.50482" lon="6.19969">
        <ele>1390</ele>
        <time>2023-04-21T13:31:31.000Z</time>
      </trkpt>
      <trkpt lat="44.50484" lon="6.19965">
        <ele>1390</ele>
        <time>2023-04-21T13:31:32.000Z</time>
      </trkpt>
      <trkpt lat="44.50485" lon="6.19962">
        <ele>1390</ele>
        <time>2023-04-21T13:31:33.000Z</time>
      </trkpt>
      <trkpt lat="44.50486" lon="6.19959">
        <ele>1391</ele>
        <time>2023-04-21T13:31:34.000Z</time>
      </trkpt>
      <trkpt lat="44.50487" lon="6.19956">
        <ele>1391</ele>
        <time>2023-04-21T13:31:35.000Z</time>
      </trkpt>
      <trkpt lat="44.50489" lon="6.19954">
        <ele>1391</ele>
        <time>2023-04-21T13:31:36.000Z</time>
      </trkpt>
      <trkpt lat="44.50491" lon="6.19952">
        <ele>1391</ele>
        <time>2023-04-21T13:31:37.000Z</time>
      </trkpt>
      <trkpt lat="44.50492" lon="6.19949">
        <ele>1391</ele>
        <time>2023-04-21T13:31:38.000Z</time>
      </trkpt>
      <trkpt lat="44.50493" lon="6.19946">
        <ele>1391</ele>
        <time>2023-04-21T13:31:39.000Z</time>
      </trkpt>
      <trkpt lat="44.50495" lon="6.19943">
        <ele>1391</ele>
        <time>2023-04-21T13:31:40.000Z</time>
      </trkpt>
      <trkpt lat="44.50497" lon="6.19939">
        <ele>1392</ele>
        <time>2023-04-21T13:31:41.000Z</time>
      </trkpt>
      <trkpt lat="44.50499" lon="6.19936">
        <ele>1391</ele>
        <time>2023-04-21T13:31:42.000Z</time>
      </trkpt>
      <trkpt lat="44.505" lon="6.19934">
        <ele>1392</ele>
        <time>2023-04-21T13:31:43.000Z</time>
      </trkpt>
      <trkpt lat="44.50502" lon="6.19932">
        <ele>1392</ele>
        <time>2023-04-21T13:31:44.000Z</time>
      </trkpt>
      <trkpt lat="44.50503" lon="6.19931">
        <ele>1392</ele>
        <time>2023-04-21T13:31:45.000Z</time>
      </trkpt>
      <trkpt lat="44.50505" lon="6.19932">
        <ele>1392</ele>
        <time>2023-04-21T13:31:46.000Z</time>
      </trkpt>
      <trkpt lat="44.50506" lon="6.19935">
        <ele>1392</ele>
        <time>2023-04-21T13:31:47.000Z</time>
      </trkpt>
      <trkpt lat="44.50505" lon="6.19937">
        <ele>1392</ele>
        <time>2023-04-21T13:31:48.000Z</time>
      </trkpt>
      <trkpt lat="44.50504" lon="6.1994">
        <ele>1393</ele>
        <time>2023-04-21T13:31:49.000Z</time>
      </trkpt>
      <trkpt lat="44.50502" lon="6.19943">
        <ele>1394</ele>
        <time>2023-04-21T13:31:50.000Z</time>
      </trkpt>
      <trkpt lat="44.50501" lon="6.19946">
        <ele>1393</ele>
        <time>2023-04-21T13:31:51.000Z</time>
      </trkpt>
      <trkpt lat="44.50499" lon="6.19949">
        <ele>1393</ele>
        <time>2023-04-21T13:31:52.000Z</time>
      </trkpt>
      <trkpt lat="44.50497" lon="6.19952">
        <ele>1393</ele>
        <time>2023-04-21T13:31:53.000Z</time>
      </trkpt>
      <trkpt lat="44.50496" lon="6.19956">
        <ele>1393</ele>
        <time>2023-04-21T13:31:54.000Z</time>
      </trkpt>
      <trkpt lat="44.50494" lon="6.1996">
        <ele>1392</ele>
        <time>2023-04-21T13:31:55.000Z</time>
      </trkpt>
      <trkpt lat="44.50493" lon="6.19964">
        <ele>1392</ele>
        <time>2023-04-21T13:31:56.000Z</time>
      </trkpt>
      <trkpt lat="44.50492" lon="6.19968">
        <ele>1392</ele>
        <time>2023-04-21T13:31:57.000Z</time>
      </trkpt>
      <trkpt lat="44.50491" lon="6.19971">
        <ele>1392</ele>
        <time>2023-04-21T13:31:58.000Z</time>
      </trkpt>
      <trkpt lat="44.50489" lon="6.19974">
        <ele>1392</ele>
        <time>2023-04-21T13:31:59.000Z</time>
      </trkpt>
      <trkpt lat="44.50488" lon="6.19977">
        <ele>1392</ele>
        <time>2023-04-21T13:32:00.000Z</time>
      </trkpt>
      <trkpt lat="44.50487" lon="6.1998">
        <ele>1392</ele>
        <time>2023-04-21T13:32:01.000Z</time>
      </trkpt>
      <trkpt lat="44.50486" lon="6.19982">
        <ele>1392</ele>
        <time>2023-04-21T13:32:02.000Z</time>
      </trkpt>
      <trkpt lat="44.50486" lon="6.19985">
        <ele>1392</ele>
        <time>2023-04-21T13:32:03.000Z</time>
      </trkpt>
      <trkpt lat="44.50484" lon="6.19987">
        <ele>1392</ele>
        <time>2023-04-21T13:32:04.000Z</time>
      </trkpt>
      <trkpt lat="44.50482" lon="6.19991">
        <ele>1392</ele>
        <time>2023-04-21T13:32:05.000Z</time>
      </trkpt>
      <trkpt lat="44.50481" lon="6.19993">
        <ele>1391</ele>
        <time>2023-04-21T13:32:06.000Z</time>
      </trkpt>
      <trkpt lat="44.50479" lon="6.19995">
        <ele>1391</ele>
        <time>2023-04-21T13:32:07.000Z</time>
      </trkpt>
      <trkpt lat="44.50477" lon="6.19998">
        <ele>1391</ele>
        <time>2023-04-21T13:32:08.000Z</time>
      </trkpt>
      <trkpt lat="44.50475" lon="6.2">
        <ele>1391</ele>
        <time>2023-04-21T13:32:09.000Z</time>
      </trkpt>
      <trkpt lat="44.50473" lon="6.20005">
        <ele>1389</ele>
        <time>2023-04-21T13:32:10.000Z</time>
      </trkpt>
      <trkpt lat="44.50467" lon="6.20008">
        <ele>1386</ele>
        <time>2023-04-21T13:32:11.000Z</time>
      </trkpt>
      <trkpt lat="44.50463" lon="6.20012">
        <ele>1384</ele>
        <time>2023-04-21T13:32:12.000Z</time>
      </trkpt>
      <trkpt lat="44.50459" lon="6.20016">
        <ele>1382</ele>
        <time>2023-04-21T13:32:13.000Z</time>
      </trkpt>
      <trkpt lat="44.50455" lon="6.20019">
        <ele>1381</ele>
        <time>2023-04-21T13:32:14.000Z</time>
      </trkpt>
      <trkpt lat="44.50452" lon="6.20022">
        <ele>1380</ele>
        <time>2023-04-21T13:32:15.000Z</time>
      </trkpt>
      <trkpt lat="44.50449" lon="6.20026">
        <ele>1380</ele>
        <time>2023-04-21T13:32:16.000Z</time>
      </trkpt>
      <trkpt lat="44.50446" lon="6.20029">
        <ele>1379</ele>
        <time>2023-04-21T13:32:17.000Z</time>
      </trkpt>
      <trkpt lat="44.50443" lon="6.20032">
        <ele>1380</ele>
        <time>2023-04-21T13:32:18.000Z</time>
      </trkpt>
      <trkpt lat="44.50441" lon="6.20035">
        <ele>1379</ele>
        <time>2023-04-21T13:32:19.000Z</time>
      </trkpt>
      <trkpt lat="44.50438" lon="6.20038">
        <ele>1378</ele>
        <time>2023-04-21T13:32:20.000Z</time>
      </trkpt>
      <trkpt lat="44.50436" lon="6.20041">
        <ele>1377</ele>
        <time>2023-04-21T13:32:21.000Z</time>
      </trkpt>
      <trkpt lat="44.50433" lon="6.20043">
        <ele>1377</ele>
        <time>2023-04-21T13:32:22.000Z</time>
      </trkpt>
      <trkpt lat="44.50431" lon="6.20046">
        <ele>1376</ele>
        <time>2023-04-21T13:32:23.000Z</time>
      </trkpt>
      <trkpt lat="44.50428" lon="6.2005">
        <ele>1376</ele>
        <time>2023-04-21T13:32:24.000Z</time>
      </trkpt>
      <trkpt lat="44.50425" lon="6.20053">
        <ele>1376</ele>
        <time>2023-04-21T13:32:25.000Z</time>
      </trkpt>
      <trkpt lat="44.50423" lon="6.20056">
        <ele>1376</ele>
        <time>2023-04-21T13:32:26.000Z</time>
      </trkpt>
      <trkpt lat="44.50419" lon="6.20061">
        <ele>1379</ele>
        <time>2023-04-21T13:32:27.000Z</time>
      </trkpt>
      <trkpt lat="44.50418" lon="6.20065">
        <ele>1381</ele>
        <time>2023-04-21T13:32:28.000Z</time>
      </trkpt>
      <trkpt lat="44.50416" lon="6.20069">
        <ele>1381</ele>
        <time>2023-04-21T13:32:29.000Z</time>
      </trkpt>
      <trkpt lat="44.50414" lon="6.20073">
        <ele>1383</ele>
        <time>2023-04-21T13:32:30.000Z</time>
      </trkpt>
      <trkpt lat="44.50412" lon="6.20077">
        <ele>1383</ele>
        <time>2023-04-21T13:32:31.000Z</time>
      </trkpt>
      <trkpt lat="44.50409" lon="6.20081">
        <ele>1384</ele>
        <time>2023-04-21T13:32:32.000Z</time>
      </trkpt>
      <trkpt lat="44.50407" lon="6.20084">
        <ele>1384</ele>
        <time>2023-04-21T13:32:33.000Z</time>
      </trkpt>
      <trkpt lat="44.50405" lon="6.20088">
        <ele>1385</ele>
        <time>2023-04-21T13:32:34.000Z</time>
      </trkpt>
      <trkpt lat="44.50404" lon="6.20092">
        <ele>1385</ele>
        <time>2023-04-21T13:32:35.000Z</time>
      </trkpt>
      <trkpt lat="44.50402" lon="6.20098">
        <ele>1385</ele>
        <time>2023-04-21T13:32:36.000Z</time>
      </trkpt>
      <trkpt lat="44.50401" lon="6.20103">
        <ele>1385</ele>
        <time>2023-04-21T13:32:37.000Z</time>
      </trkpt>
      <trkpt lat="44.50399" lon="6.20109">
        <ele>1385</ele>
        <time>2023-04-21T13:32:38.000Z</time>
      </trkpt>
      <trkpt lat="44.50397" lon="6.20114">
        <ele>1385</ele>
        <time>2023-04-21T13:32:39.000Z</time>
      </trkpt>
      <trkpt lat="44.50396" lon="6.20119">
        <ele>1384</ele>
        <time>2023-04-21T13:32:40.000Z</time>
      </trkpt>
      <trkpt lat="44.50395" lon="6.20125">
        <ele>1384</ele>
        <time>2023-04-21T13:32:41.000Z</time>
      </trkpt>
      <trkpt lat="44.50394" lon="6.2013">
        <ele>1384</ele>
        <time>2023-04-21T13:32:42.000Z</time>
      </trkpt>
      <trkpt lat="44.50392" lon="6.20135">
        <ele>1384</ele>
        <time>2023-04-21T13:32:43.000Z</time>
      </trkpt>
      <trkpt lat="44.50391" lon="6.2014">
        <ele>1384</ele>
        <time>2023-04-21T13:32:44.000Z</time>
      </trkpt>
      <trkpt lat="44.5039" lon="6.20145">
        <ele>1384</ele>
        <time>2023-04-21T13:32:45.000Z</time>
      </trkpt>
      <trkpt lat="44.5039" lon="6.2015">
        <ele>1384</ele>
        <time>2023-04-21T13:32:46.000Z</time>
      </trkpt>
      <trkpt lat="44.50389" lon="6.20156">
        <ele>1384</ele>
        <time>2023-04-21T13:32:47.000Z</time>
      </trkpt>
      <trkpt lat="44.50389" lon="6.20161">
        <ele>1384</ele>
        <time>2023-04-21T13:32:48.000Z</time>
      </trkpt>
      <trkpt lat="44.50388" lon="6.20167">
        <ele>1384</ele>
        <time>2023-04-21T13:32:49.000Z</time>
      </trkpt>
      <trkpt lat="44.50389" lon="6.20171">
        <ele>1384</ele>
        <time>2023-04-21T13:32:50.000Z</time>
      </trkpt>
      <trkpt lat="44.5039" lon="6.20176">
        <ele>1385</ele>
        <time>2023-04-21T13:32:51.000Z</time>
      </trkpt>
      <trkpt lat="44.50391" lon="6.2018">
        <ele>1385</ele>
        <time>2023-04-21T13:32:52.000Z</time>
      </trkpt>
      <trkpt lat="44.50391" lon="6.20184">
        <ele>1385</ele>
        <time>2023-04-21T13:32:53.000Z</time>
      </trkpt>
      <trkpt lat="44.50392" lon="6.20188">
        <ele>1385</ele>
        <time>2023-04-21T13:32:54.000Z</time>
      </trkpt>
      <trkpt lat="44.50393" lon="6.20193">
        <ele>1385</ele>
        <time>2023-04-21T13:32:55.000Z</time>
      </trkpt>
      <trkpt lat="44.50394" lon="6.20198">
        <ele>1385</ele>
        <time>2023-04-21T13:32:56.000Z</time>
      </trkpt>
      <trkpt lat="44.50395" lon="6.20203">
        <ele>1385</ele>
        <time>2023-04-21T13:32:57.000Z</time>
      </trkpt>
      <trkpt lat="44.50396" lon="6.20208">
        <ele>1385</ele>
        <time>2023-04-21T13:32:58.000Z</time>
      </trkpt>
      <trkpt lat="44.50397" lon="6.20213">
        <ele>1386</ele>
        <time>2023-04-21T13:32:59.000Z</time>
      </trkpt>
      <trkpt lat="44.50398" lon="6.20217">
        <ele>1386</ele>
        <time>2023-04-21T13:33:00.000Z</time>
      </trkpt>
      <trkpt lat="44.50399" lon="6.20223">
        <ele>1386</ele>
        <time>2023-04-21T13:33:01.000Z</time>
      </trkpt>
      <trkpt lat="44.50399" lon="6.20228">
        <ele>1386</ele>
        <time>2023-04-21T13:33:02.000Z</time>
      </trkpt>
      <trkpt lat="44.504" lon="6.20233">
        <ele>1386</ele>
        <time>2023-04-21T13:33:03.000Z</time>
      </trkpt>
      <trkpt lat="44.50401" lon="6.20239">
        <ele>1386</ele>
        <time>2023-04-21T13:33:04.000Z</time>
      </trkpt>
      <trkpt lat="44.50401" lon="6.20244">
        <ele>1386</ele>
        <time>2023-04-21T13:33:05.000Z</time>
      </trkpt>
      <trkpt lat="44.50402" lon="6.20249">
        <ele>1386</ele>
        <time>2023-04-21T13:33:06.000Z</time>
      </trkpt>
      <trkpt lat="44.50403" lon="6.20254">
        <ele>1386</ele>
        <time>2023-04-21T13:33:07.000Z</time>
      </trkpt>
      <trkpt lat="44.50404" lon="6.20259">
        <ele>1386</ele>
        <time>2023-04-21T13:33:08.000Z</time>
      </trkpt>
      <trkpt lat="44.50405" lon="6.20264">
        <ele>1386</ele>
        <time>2023-04-21T13:33:09.000Z</time>
      </trkpt>
      <trkpt lat="44.50406" lon="6.20269">
        <ele>1386</ele>
        <time>2023-04-21T13:33:10.000Z</time>
      </trkpt>
      <trkpt lat="44.50408" lon="6.20273">
        <ele>1386</ele>
        <time>2023-04-21T13:33:11.000Z</time>
      </trkpt>
      <trkpt lat="44.5041" lon="6.20278">
        <ele>1386</ele>
        <time>2023-04-21T13:33:12.000Z</time>
      </trkpt>
      <trkpt lat="44.50412" lon="6.20282">
        <ele>1386</ele>
        <time>2023-04-21T13:33:13.000Z</time>
      </trkpt>
      <trkpt lat="44.50414" lon="6.20285">
        <ele>1386</ele>
        <time>2023-04-21T13:33:14.000Z</time>
      </trkpt>
      <trkpt lat="44.50416" lon="6.20289">
        <ele>1387</ele>
        <time>2023-04-21T13:33:15.000Z</time>
      </trkpt>
      <trkpt lat="44.50419" lon="6.20293">
        <ele>1387</ele>
        <time>2023-04-21T13:33:16.000Z</time>
      </trkpt>
      <trkpt lat="44.50421" lon="6.20296">
        <ele>1387</ele>
        <time>2023-04-21T13:33:17.000Z</time>
      </trkpt>
      <trkpt lat="44.50424" lon="6.203">
        <ele>1387</ele>
        <time>2023-04-21T13:33:18.000Z</time>
      </trkpt>
      <trkpt lat="44.50427" lon="6.20303">
        <ele>1387</ele>
        <time>2023-04-21T13:33:19.000Z</time>
      </trkpt>
      <trkpt lat="44.5043" lon="6.20307">
        <ele>1387</ele>
        <time>2023-04-21T13:33:20.000Z</time>
      </trkpt>
      <trkpt lat="44.50433" lon="6.20311">
        <ele>1387</ele>
        <time>2023-04-21T13:33:21.000Z</time>
      </trkpt>
      <trkpt lat="44.50436" lon="6.20314">
        <ele>1387</ele>
        <time>2023-04-21T13:33:22.000Z</time>
      </trkpt>
      <trkpt lat="44.50439" lon="6.20316">
        <ele>1387</ele>
        <time>2023-04-21T13:33:23.000Z</time>
      </trkpt>
      <trkpt lat="44.50442" lon="6.20319">
        <ele>1387</ele>
        <time>2023-04-21T13:33:24.000Z</time>
      </trkpt>
      <trkpt lat="44.50446" lon="6.20322">
        <ele>1387</ele>
        <time>2023-04-21T13:33:25.000Z</time>
      </trkpt>
      <trkpt lat="44.50449" lon="6.20324">
        <ele>1387</ele>
        <time>2023-04-21T13:33:26.000Z</time>
      </trkpt>
      <trkpt lat="44.50453" lon="6.20325">
        <ele>1387</ele>
        <time>2023-04-21T13:33:27.000Z</time>
      </trkpt>
      <trkpt lat="44.50457" lon="6.20326">
        <ele>1387</ele>
        <time>2023-04-21T13:33:28.000Z</time>
      </trkpt>
      <trkpt lat="44.5046" lon="6.20327">
        <ele>1387</ele>
        <time>2023-04-21T13:33:29.000Z</time>
      </trkpt>
      <trkpt lat="44.50464" lon="6.20328">
        <ele>1388</ele>
        <time>2023-04-21T13:33:30.000Z</time>
      </trkpt>
      <trkpt lat="44.50468" lon="6.20329">
        <ele>1389</ele>
        <time>2023-04-21T13:33:31.000Z</time>
      </trkpt>
      <trkpt lat="44.50471" lon="6.2033">
        <ele>1389</ele>
        <time>2023-04-21T13:33:32.000Z</time>
      </trkpt>
      <trkpt lat="44.50475" lon="6.20331">
        <ele>1388</ele>
        <time>2023-04-21T13:33:33.000Z</time>
      </trkpt>
      <trkpt lat="44.50479" lon="6.20331">
        <ele>1388</ele>
        <time>2023-04-21T13:33:34.000Z</time>
      </trkpt>
      <trkpt lat="44.50482" lon="6.20333">
        <ele>1388</ele>
        <time>2023-04-21T13:33:35.000Z</time>
      </trkpt>
      <trkpt lat="44.50486" lon="6.20334">
        <ele>1388</ele>
        <time>2023-04-21T13:33:36.000Z</time>
      </trkpt>
      <trkpt lat="44.50489" lon="6.20335">
        <ele>1388</ele>
        <time>2023-04-21T13:33:37.000Z</time>
      </trkpt>
      <trkpt lat="44.50493" lon="6.20335">
        <ele>1388</ele>
        <time>2023-04-21T13:33:38.000Z</time>
      </trkpt>
      <trkpt lat="44.50496" lon="6.20336">
        <ele>1389</ele>
        <time>2023-04-21T13:33:39.000Z</time>
      </trkpt>
      <trkpt lat="44.505" lon="6.20336">
        <ele>1389</ele>
        <time>2023-04-21T13:33:40.000Z</time>
      </trkpt>
      <trkpt lat="44.50504" lon="6.20336">
        <ele>1389</ele>
        <time>2023-04-21T13:33:41.000Z</time>
      </trkpt>
      <trkpt lat="44.50507" lon="6.20336">
        <ele>1389</ele>
        <time>2023-04-21T13:33:42.000Z</time>
      </trkpt>
      <trkpt lat="44.50511" lon="6.20336">
        <ele>1389</ele>
        <time>2023-04-21T13:33:43.000Z</time>
      </trkpt>
      <trkpt lat="44.50514" lon="6.20336">
        <ele>1390</ele>
        <time>2023-04-21T13:33:44.000Z</time>
      </trkpt>
      <trkpt lat="44.50518" lon="6.20336">
        <ele>1390</ele>
        <time>2023-04-21T13:33:45.000Z</time>
      </trkpt>
      <trkpt lat="44.50521" lon="6.20335">
        <ele>1391</ele>
        <time>2023-04-21T13:33:46.000Z</time>
      </trkpt>
      <trkpt lat="44.50525" lon="6.20334">
        <ele>1391</ele>
        <time>2023-04-21T13:33:47.000Z</time>
      </trkpt>
      <trkpt lat="44.50529" lon="6.20334">
        <ele>1392</ele>
        <time>2023-04-21T13:33:48.000Z</time>
      </trkpt>
      <trkpt lat="44.50532" lon="6.20333">
        <ele>1392</ele>
        <time>2023-04-21T13:33:49.000Z</time>
      </trkpt>
      <trkpt lat="44.50536" lon="6.20332">
        <ele>1393</ele>
        <time>2023-04-21T13:33:50.000Z</time>
      </trkpt>
      <trkpt lat="44.50539" lon="6.20331">
        <ele>1393</ele>
        <time>2023-04-21T13:33:51.000Z</time>
      </trkpt>
      <trkpt lat="44.50543" lon="6.2033">
        <ele>1393</ele>
        <time>2023-04-21T13:33:52.000Z</time>
      </trkpt>
      <trkpt lat="44.50546" lon="6.20328">
        <ele>1393</ele>
        <time>2023-04-21T13:33:53.000Z</time>
      </trkpt>
      <trkpt lat="44.5055" lon="6.20327">
        <ele>1394</ele>
        <time>2023-04-21T13:33:54.000Z</time>
      </trkpt>
      <trkpt lat="44.50554" lon="6.20326">
        <ele>1394</ele>
        <time>2023-04-21T13:33:55.000Z</time>
      </trkpt>
      <trkpt lat="44.50557" lon="6.20325">
        <ele>1394</ele>
        <time>2023-04-21T13:33:56.000Z</time>
      </trkpt>
      <trkpt lat="44.5056" lon="6.20324">
        <ele>1395</ele>
        <time>2023-04-21T13:33:57.000Z</time>
      </trkpt>
      <trkpt lat="44.50564" lon="6.20323">
        <ele>1395</ele>
        <time>2023-04-21T13:33:58.000Z</time>
      </trkpt>
      <trkpt lat="44.50567" lon="6.20322">
        <ele>1395</ele>
        <time>2023-04-21T13:33:59.000Z</time>
      </trkpt>
      <trkpt lat="44.50571" lon="6.20322">
        <ele>1395</ele>
        <time>2023-04-21T13:34:00.000Z</time>
      </trkpt>
      <trkpt lat="44.50574" lon="6.20321">
        <ele>1395</ele>
        <time>2023-04-21T13:34:01.000Z</time>
      </trkpt>
      <trkpt lat="44.50578" lon="6.20321">
        <ele>1396</ele>
        <time>2023-04-21T13:34:02.000Z</time>
      </trkpt>
      <trkpt lat="44.50583" lon="6.2032">
        <ele>1396</ele>
        <time>2023-04-21T13:34:03.000Z</time>
      </trkpt>
      <trkpt lat="44.50587" lon="6.2032">
        <ele>1396</ele>
        <time>2023-04-21T13:34:04.000Z</time>
      </trkpt>
      <trkpt lat="44.50591" lon="6.20319">
        <ele>1396</ele>
        <time>2023-04-21T13:34:05.000Z</time>
      </trkpt>
      <trkpt lat="44.50595" lon="6.20318">
        <ele>1397</ele>
        <time>2023-04-21T13:34:06.000Z</time>
      </trkpt>
      <trkpt lat="44.50598" lon="6.20318">
        <ele>1398</ele>
        <time>2023-04-21T13:34:07.000Z</time>
      </trkpt>
      <trkpt lat="44.50602" lon="6.20317">
        <ele>1400</ele>
        <time>2023-04-21T13:34:08.000Z</time>
      </trkpt>
      <trkpt lat="44.50605" lon="6.20316">
        <ele>1401</ele>
        <time>2023-04-21T13:34:09.000Z</time>
      </trkpt>
      <trkpt lat="44.50608" lon="6.20316">
        <ele>1402</ele>
        <time>2023-04-21T13:34:10.000Z</time>
      </trkpt>
      <trkpt lat="44.50612" lon="6.20315">
        <ele>1402</ele>
        <time>2023-04-21T13:34:11.000Z</time>
      </trkpt>
      <trkpt lat="44.50617" lon="6.20315">
        <ele>1403</ele>
        <time>2023-04-21T13:34:12.000Z</time>
      </trkpt>
      <trkpt lat="44.50621" lon="6.20315">
        <ele>1403</ele>
        <time>2023-04-21T13:34:13.000Z</time>
      </trkpt>
      <trkpt lat="44.50625" lon="6.20314">
        <ele>1404</ele>
        <time>2023-04-21T13:34:14.000Z</time>
      </trkpt>
      <trkpt lat="44.50628" lon="6.20314">
        <ele>1405</ele>
        <time>2023-04-21T13:34:15.000Z</time>
      </trkpt>
      <trkpt lat="44.50632" lon="6.20313">
        <ele>1407</ele>
        <time>2023-04-21T13:34:16.000Z</time>
      </trkpt>
      <trkpt lat="44.50635" lon="6.20312">
        <ele>1408</ele>
        <time>2023-04-21T13:34:17.000Z</time>
      </trkpt>
      <trkpt lat="44.50638" lon="6.2031">
        <ele>1409</ele>
        <time>2023-04-21T13:34:18.000Z</time>
      </trkpt>
      <trkpt lat="44.50641" lon="6.20309">
        <ele>1411</ele>
        <time>2023-04-21T13:34:19.000Z</time>
      </trkpt>
      <trkpt lat="44.50643" lon="6.20306">
        <ele>1413</ele>
        <time>2023-04-21T13:34:20.000Z</time>
      </trkpt>
      <trkpt lat="44.50645" lon="6.20304">
        <ele>1415</ele>
        <time>2023-04-21T13:34:21.000Z</time>
      </trkpt>
      <trkpt lat="44.50648" lon="6.20302">
        <ele>1418</ele>
        <time>2023-04-21T13:34:22.000Z</time>
      </trkpt>
      <trkpt lat="44.50651" lon="6.20301">
        <ele>1419</ele>
        <time>2023-04-21T13:34:23.000Z</time>
      </trkpt>
      <trkpt lat="44.50654" lon="6.20299">
        <ele>1421</ele>
        <time>2023-04-21T13:34:24.000Z</time>
      </trkpt>
      <trkpt lat="44.50657" lon="6.20297">
        <ele>1421</ele>
        <time>2023-04-21T13:34:25.000Z</time>
      </trkpt>
      <trkpt lat="44.50661" lon="6.20296">
        <ele>1423</ele>
        <time>2023-04-21T13:34:26.000Z</time>
      </trkpt>
      <trkpt lat="44.50664" lon="6.20295">
        <ele>1427</ele>
        <time>2023-04-21T13:34:27.000Z</time>
      </trkpt>
      <trkpt lat="44.50667" lon="6.20294">
        <ele>1428</ele>
        <time>2023-04-21T13:34:28.000Z</time>
      </trkpt>
      <trkpt lat="44.5067" lon="6.20292">
        <ele>1430</ele>
        <time>2023-04-21T13:34:29.000Z</time>
      </trkpt>
      <trkpt lat="44.50672" lon="6.2029">
        <ele>1430</ele>
        <time>2023-04-21T13:34:30.000Z</time>
      </trkpt>
      <trkpt lat="44.50675" lon="6.20289">
        <ele>1431</ele>
        <time>2023-04-21T13:34:31.000Z</time>
      </trkpt>
      <trkpt lat="44.50678" lon="6.20288">
        <ele>1431</ele>
        <time>2023-04-21T13:34:32.000Z</time>
      </trkpt>
      <trkpt lat="44.50681" lon="6.20286">
        <ele>1431</ele>
        <time>2023-04-21T13:34:33.000Z</time>
      </trkpt>
      <trkpt lat="44.50683" lon="6.20286">
        <ele>1432</ele>
        <time>2023-04-21T13:34:34.000Z</time>
      </trkpt>
      <trkpt lat="44.50686" lon="6.20286">
        <ele>1432</ele>
        <time>2023-04-21T13:34:35.000Z</time>
      </trkpt>
      <trkpt lat="44.50688" lon="6.20286">
        <ele>1432</ele>
        <time>2023-04-21T13:34:36.000Z</time>
      </trkpt>
      <trkpt lat="44.5069" lon="6.20287">
        <ele>1431</ele>
        <time>2023-04-21T13:34:37.000Z</time>
      </trkpt>
      <trkpt lat="44.50693" lon="6.20287">
        <ele>1428</ele>
        <time>2023-04-21T13:34:38.000Z</time>
      </trkpt>
      <trkpt lat="44.50695" lon="6.20288">
        <ele>1428</ele>
        <time>2023-04-21T13:34:39.000Z</time>
      </trkpt>
      <trkpt lat="44.50698" lon="6.20289">
        <ele>1429</ele>
        <time>2023-04-21T13:34:40.000Z</time>
      </trkpt>
      <trkpt lat="44.507" lon="6.20289">
        <ele>1429</ele>
        <time>2023-04-21T13:34:41.000Z</time>
      </trkpt>
      <trkpt lat="44.50703" lon="6.20289">
        <ele>1429</ele>
        <time>2023-04-21T13:34:42.000Z</time>
      </trkpt>
      <trkpt lat="44.50705" lon="6.20289">
        <ele>1429</ele>
        <time>2023-04-21T13:34:43.000Z</time>
      </trkpt>
      <trkpt lat="44.50707" lon="6.20289">
        <ele>1430</ele>
        <time>2023-04-21T13:34:44.000Z</time>
      </trkpt>
      <trkpt lat="44.5071" lon="6.20291">
        <ele>1430</ele>
        <time>2023-04-21T13:34:45.000Z</time>
      </trkpt>
      <trkpt lat="44.50712" lon="6.20291">
        <ele>1431</ele>
        <time>2023-04-21T13:34:46.000Z</time>
      </trkpt>
      <trkpt lat="44.50716" lon="6.20293">
        <ele>1431</ele>
        <time>2023-04-21T13:34:47.000Z</time>
      </trkpt>
      <trkpt lat="44.50718" lon="6.20294">
        <ele>1431</ele>
        <time>2023-04-21T13:34:48.000Z</time>
      </trkpt>
      <trkpt lat="44.50721" lon="6.20296">
        <ele>1431</ele>
        <time>2023-04-21T13:34:49.000Z</time>
      </trkpt>
      <trkpt lat="44.50725" lon="6.20299">
        <ele>1432</ele>
        <time>2023-04-21T13:34:50.000Z</time>
      </trkpt>
      <trkpt lat="44.50728" lon="6.20301">
        <ele>1432</ele>
        <time>2023-04-21T13:34:51.000Z</time>
      </trkpt>
      <trkpt lat="44.50731" lon="6.20302">
        <ele>1433</ele>
        <time>2023-04-21T13:34:52.000Z</time>
      </trkpt>
      <trkpt lat="44.50734" lon="6.20303">
        <ele>1432</ele>
        <time>2023-04-21T13:34:53.000Z</time>
      </trkpt>
      <trkpt lat="44.50737" lon="6.20303">
        <ele>1430</ele>
        <time>2023-04-21T13:34:54.000Z</time>
      </trkpt>
      <trkpt lat="44.5074" lon="6.20304">
        <ele>1429</ele>
        <time>2023-04-21T13:34:55.000Z</time>
      </trkpt>
      <trkpt lat="44.50745" lon="6.20305">
        <ele>1429</ele>
        <time>2023-04-21T13:34:56.000Z</time>
      </trkpt>
      <trkpt lat="44.50748" lon="6.20307">
        <ele>1429</ele>
        <time>2023-04-21T13:34:57.000Z</time>
      </trkpt>
      <trkpt lat="44.50752" lon="6.20308">
        <ele>1429</ele>
        <time>2023-04-21T13:34:58.000Z</time>
      </trkpt>
      <trkpt lat="44.50755" lon="6.20308">
        <ele>1428</ele>
        <time>2023-04-21T13:34:59.000Z</time>
      </trkpt>
      <trkpt lat="44.50758" lon="6.20308">
        <ele>1427</ele>
        <time>2023-04-21T13:35:00.000Z</time>
      </trkpt>
      <trkpt lat="44.50762" lon="6.20309">
        <ele>1427</ele>
        <time>2023-04-21T13:35:01.000Z</time>
      </trkpt>
      <trkpt lat="44.50765" lon="6.20309">
        <ele>1426</ele>
        <time>2023-04-21T13:35:02.000Z</time>
      </trkpt>
      <trkpt lat="44.50768" lon="6.20309">
        <ele>1426</ele>
        <time>2023-04-21T13:35:03.000Z</time>
      </trkpt>
      <trkpt lat="44.50772" lon="6.2031">
        <ele>1426</ele>
        <time>2023-04-21T13:35:04.000Z</time>
      </trkpt>
      <trkpt lat="44.50775" lon="6.2031">
        <ele>1426</ele>
        <time>2023-04-21T13:35:05.000Z</time>
      </trkpt>
      <trkpt lat="44.50778" lon="6.20311">
        <ele>1425</ele>
        <time>2023-04-21T13:35:06.000Z</time>
      </trkpt>
      <trkpt lat="44.50781" lon="6.20312">
        <ele>1425</ele>
        <time>2023-04-21T13:35:07.000Z</time>
      </trkpt>
      <trkpt lat="44.50784" lon="6.20312">
        <ele>1423</ele>
        <time>2023-04-21T13:35:08.000Z</time>
      </trkpt>
      <trkpt lat="44.50787" lon="6.20313">
        <ele>1423</ele>
        <time>2023-04-21T13:35:09.000Z</time>
      </trkpt>
      <trkpt lat="44.5079" lon="6.20314">
        <ele>1422</ele>
        <time>2023-04-21T13:35:10.000Z</time>
      </trkpt>
      <trkpt lat="44.50793" lon="6.20315">
        <ele>1422</ele>
        <time>2023-04-21T13:35:11.000Z</time>
      </trkpt>
      <trkpt lat="44.50796" lon="6.20316">
        <ele>1421</ele>
        <time>2023-04-21T13:35:12.000Z</time>
      </trkpt>
      <trkpt lat="44.50799" lon="6.20317">
        <ele>1421</ele>
        <time>2023-04-21T13:35:13.000Z</time>
      </trkpt>
      <trkpt lat="44.50802" lon="6.20318">
        <ele>1420</ele>
        <time>2023-04-21T13:35:14.000Z</time>
      </trkpt>
      <trkpt lat="44.50804" lon="6.20319">
        <ele>1420</ele>
        <time>2023-04-21T13:35:15.000Z</time>
      </trkpt>
      <trkpt lat="44.50807" lon="6.20321">
        <ele>1420</ele>
        <time>2023-04-21T13:35:16.000Z</time>
      </trkpt>
      <trkpt lat="44.50809" lon="6.20323">
        <ele>1419</ele>
        <time>2023-04-21T13:35:17.000Z</time>
      </trkpt>
      <trkpt lat="44.50811" lon="6.20325">
        <ele>1419</ele>
        <time>2023-04-21T13:35:18.000Z</time>
      </trkpt>
      <trkpt lat="44.50813" lon="6.20327">
        <ele>1419</ele>
        <time>2023-04-21T13:35:19.000Z</time>
      </trkpt>
      <trkpt lat="44.50815" lon="6.20329">
        <ele>1418</ele>
        <time>2023-04-21T13:35:20.000Z</time>
      </trkpt>
      <trkpt lat="44.50818" lon="6.20332">
        <ele>1418</ele>
        <time>2023-04-21T13:35:21.000Z</time>
      </trkpt>
      <trkpt lat="44.50821" lon="6.20337">
        <ele>1417</ele>
        <time>2023-04-21T13:35:22.000Z</time>
      </trkpt>
      <trkpt lat="44.50826" lon="6.20343">
        <ele>1415</ele>
        <time>2023-04-21T13:35:23.000Z</time>
      </trkpt>
      <trkpt lat="44.5083" lon="6.20348">
        <ele>1414</ele>
        <time>2023-04-21T13:35:24.000Z</time>
      </trkpt>
      <trkpt lat="44.50834" lon="6.20353">
        <ele>1413</ele>
        <time>2023-04-21T13:35:25.000Z</time>
      </trkpt>
      <trkpt lat="44.50839" lon="6.20357">
        <ele>1412</ele>
        <time>2023-04-21T13:35:26.000Z</time>
      </trkpt>
      <trkpt lat="44.50845" lon="6.20355">
        <ele>1414</ele>
        <time>2023-04-21T13:35:27.000Z</time>
      </trkpt>
      <trkpt lat="44.5085" lon="6.20354">
        <ele>1413</ele>
        <time>2023-04-21T13:35:28.000Z</time>
      </trkpt>
      <trkpt lat="44.50853" lon="6.20351">
        <ele>1413</ele>
        <time>2023-04-21T13:35:29.000Z</time>
      </trkpt>
      <trkpt lat="44.50856" lon="6.2035">
        <ele>1412</ele>
        <time>2023-04-21T13:35:30.000Z</time>
      </trkpt>
      <trkpt lat="44.50859" lon="6.20347">
        <ele>1412</ele>
        <time>2023-04-21T13:35:31.000Z</time>
      </trkpt>
      <trkpt lat="44.5086" lon="6.20344">
        <ele>1413</ele>
        <time>2023-04-21T13:35:32.000Z</time>
      </trkpt>
      <trkpt lat="44.50862" lon="6.20341">
        <ele>1413</ele>
        <time>2023-04-21T13:35:33.000Z</time>
      </trkpt>
      <trkpt lat="44.50862" lon="6.20335">
        <ele>1414</ele>
        <time>2023-04-21T13:35:34.000Z</time>
      </trkpt>
      <trkpt lat="44.50864" lon="6.20332">
        <ele>1415</ele>
        <time>2023-04-21T13:35:35.000Z</time>
      </trkpt>
      <trkpt lat="44.50866" lon="6.20328">
        <ele>1413</ele>
        <time>2023-04-21T13:35:36.000Z</time>
      </trkpt>
      <trkpt lat="44.50868" lon="6.20324">
        <ele>1412</ele>
        <time>2023-04-21T13:35:37.000Z</time>
      </trkpt>
      <trkpt lat="44.50872" lon="6.20319">
        <ele>1410</ele>
        <time>2023-04-21T13:35:38.000Z</time>
      </trkpt>
      <trkpt lat="44.50876" lon="6.20315">
        <ele>1407</ele>
        <time>2023-04-21T13:35:39.000Z</time>
      </trkpt>
      <trkpt lat="44.50881" lon="6.2031">
        <ele>1409</ele>
        <time>2023-04-21T13:35:40.000Z</time>
      </trkpt>
      <trkpt lat="44.50884" lon="6.20304">
        <ele>1410</ele>
        <time>2023-04-21T13:35:41.000Z</time>
      </trkpt>
      <trkpt lat="44.50886" lon="6.20297">
        <ele>1411</ele>
        <time>2023-04-21T13:35:42.000Z</time>
      </trkpt>
      <trkpt lat="44.50889" lon="6.2029">
        <ele>1408</ele>
        <time>2023-04-21T13:35:43.000Z</time>
      </trkpt>
      <trkpt lat="44.50892" lon="6.20283">
        <ele>1409</ele>
        <time>2023-04-21T13:35:44.000Z</time>
      </trkpt>
      <trkpt lat="44.50896" lon="6.20276">
        <ele>1406</ele>
        <time>2023-04-21T13:35:45.000Z</time>
      </trkpt>
      <trkpt lat="44.50901" lon="6.20269">
        <ele>1406</ele>
        <time>2023-04-21T13:35:46.000Z</time>
      </trkpt>
      <trkpt lat="44.5091" lon="6.20264">
        <ele>1409</ele>
        <time>2023-04-21T13:35:47.000Z</time>
      </trkpt>
      <trkpt lat="44.50916" lon="6.20261">
        <ele>1409</ele>
        <time>2023-04-21T13:35:48.000Z</time>
      </trkpt>
      <trkpt lat="44.50924" lon="6.2026">
        <ele>1409</ele>
        <time>2023-04-21T13:35:49.000Z</time>
      </trkpt>
      <trkpt lat="44.50931" lon="6.20259">
        <ele>1409</ele>
        <time>2023-04-21T13:35:50.000Z</time>
      </trkpt>
      <trkpt lat="44.50939" lon="6.20259">
        <ele>1409</ele>
        <time>2023-04-21T13:35:51.000Z</time>
      </trkpt>
      <trkpt lat="44.50948" lon="6.20259">
        <ele>1407</ele>
        <time>2023-04-21T13:35:52.000Z</time>
      </trkpt>
      <trkpt lat="44.50956" lon="6.20258">
        <ele>1406</ele>
        <time>2023-04-21T13:35:53.000Z</time>
      </trkpt>
      <trkpt lat="44.50964" lon="6.20257">
        <ele>1406</ele>
        <time>2023-04-21T13:35:54.000Z</time>
      </trkpt>
      <trkpt lat="44.50973" lon="6.20255">
        <ele>1405</ele>
        <time>2023-04-21T13:35:55.000Z</time>
      </trkpt>
      <trkpt lat="44.50981" lon="6.20254">
        <ele>1405</ele>
        <time>2023-04-21T13:35:56.000Z</time>
      </trkpt>
      <trkpt lat="44.50989" lon="6.20252">
        <ele>1404</ele>
        <time>2023-04-21T13:35:57.000Z</time>
      </trkpt>
      <trkpt lat="44.50997" lon="6.2025">
        <ele>1403</ele>
        <time>2023-04-21T13:35:58.000Z</time>
      </trkpt>
      <trkpt lat="44.51005" lon="6.20247">
        <ele>1403</ele>
        <time>2023-04-21T13:35:59.000Z</time>
      </trkpt>
      <trkpt lat="44.51013" lon="6.20244">
        <ele>1402</ele>
        <time>2023-04-21T13:36:00.000Z</time>
      </trkpt>
      <trkpt lat="44.51021" lon="6.20242">
        <ele>1401</ele>
        <time>2023-04-21T13:36:01.000Z</time>
      </trkpt>
      <trkpt lat="44.5103" lon="6.20239">
        <ele>1400</ele>
        <time>2023-04-21T13:36:02.000Z</time>
      </trkpt>
      <trkpt lat="44.51039" lon="6.20236">
        <ele>1400</ele>
        <time>2023-04-21T13:36:03.000Z</time>
      </trkpt>
      <trkpt lat="44.51048" lon="6.20233">
        <ele>1399</ele>
        <time>2023-04-21T13:36:04.000Z</time>
      </trkpt>
      <trkpt lat="44.51056" lon="6.20231">
        <ele>1397</ele>
        <time>2023-04-21T13:36:05.000Z</time>
      </trkpt>
      <trkpt lat="44.51065" lon="6.20228">
        <ele>1396</ele>
        <time>2023-04-21T13:36:06.000Z</time>
      </trkpt>
      <trkpt lat="44.51075" lon="6.20225">
        <ele>1395</ele>
        <time>2023-04-21T13:36:07.000Z</time>
      </trkpt>
      <trkpt lat="44.51084" lon="6.20223">
        <ele>1395</ele>
        <time>2023-04-21T13:36:08.000Z</time>
      </trkpt>
      <trkpt lat="44.51094" lon="6.20222">
        <ele>1393</ele>
        <time>2023-04-21T13:36:09.000Z</time>
      </trkpt>
      <trkpt lat="44.51104" lon="6.20221">
        <ele>1392</ele>
        <time>2023-04-21T13:36:10.000Z</time>
      </trkpt>
      <trkpt lat="44.51117" lon="6.20224">
        <ele>1391</ele>
        <time>2023-04-21T13:36:11.000Z</time>
      </trkpt>
      <trkpt lat="44.51127" lon="6.20223">
        <ele>1391</ele>
        <time>2023-04-21T13:36:12.000Z</time>
      </trkpt>
      <trkpt lat="44.51137" lon="6.20222">
        <ele>1390</ele>
        <time>2023-04-21T13:36:13.000Z</time>
      </trkpt>
      <trkpt lat="44.51146" lon="6.20221">
        <ele>1389</ele>
        <time>2023-04-21T13:36:14.000Z</time>
      </trkpt>
      <trkpt lat="44.51155" lon="6.2022">
        <ele>1388</ele>
        <time>2023-04-21T13:36:15.000Z</time>
      </trkpt>
      <trkpt lat="44.51164" lon="6.20218">
        <ele>1386</ele>
        <time>2023-04-21T13:36:16.000Z</time>
      </trkpt>
      <trkpt lat="44.51174" lon="6.20216">
        <ele>1385</ele>
        <time>2023-04-21T13:36:17.000Z</time>
      </trkpt>
      <trkpt lat="44.51184" lon="6.20215">
        <ele>1383</ele>
        <time>2023-04-21T13:36:18.000Z</time>
      </trkpt>
      <trkpt lat="44.51193" lon="6.20214">
        <ele>1382</ele>
        <time>2023-04-21T13:36:19.000Z</time>
      </trkpt>
      <trkpt lat="44.51203" lon="6.20213">
        <ele>1381</ele>
        <time>2023-04-21T13:36:20.000Z</time>
      </trkpt>
      <trkpt lat="44.51212" lon="6.20213">
        <ele>1379</ele>
        <time>2023-04-21T13:36:21.000Z</time>
      </trkpt>
      <trkpt lat="44.51222" lon="6.20212">
        <ele>1379</ele>
        <time>2023-04-21T13:36:22.000Z</time>
      </trkpt>
      <trkpt lat="44.5123" lon="6.20212">
        <ele>1379</ele>
        <time>2023-04-21T13:36:23.000Z</time>
      </trkpt>
      <trkpt lat="44.51239" lon="6.20214">
        <ele>1379</ele>
        <time>2023-04-21T13:36:24.000Z</time>
      </trkpt>
      <trkpt lat="44.51247" lon="6.20215">
        <ele>1378</ele>
        <time>2023-04-21T13:36:25.000Z</time>
      </trkpt>
      <trkpt lat="44.51256" lon="6.20215">
        <ele>1378</ele>
        <time>2023-04-21T13:36:26.000Z</time>
      </trkpt>
      <trkpt lat="44.51265" lon="6.20216">
        <ele>1376</ele>
        <time>2023-04-21T13:36:27.000Z</time>
      </trkpt>
      <trkpt lat="44.51275" lon="6.20217">
        <ele>1375</ele>
        <time>2023-04-21T13:36:28.000Z</time>
      </trkpt>
      <trkpt lat="44.51285" lon="6.20218">
        <ele>1374</ele>
        <time>2023-04-21T13:36:29.000Z</time>
      </trkpt>
      <trkpt lat="44.51295" lon="6.2022">
        <ele>1375</ele>
        <time>2023-04-21T13:36:30.000Z</time>
      </trkpt>
      <trkpt lat="44.51304" lon="6.20224">
        <ele>1373</ele>
        <time>2023-04-21T13:36:31.000Z</time>
      </trkpt>
      <trkpt lat="44.51312" lon="6.20227">
        <ele>1372</ele>
        <time>2023-04-21T13:36:32.000Z</time>
      </trkpt>
      <trkpt lat="44.5132" lon="6.20229">
        <ele>1371</ele>
        <time>2023-04-21T13:36:33.000Z</time>
      </trkpt>
      <trkpt lat="44.51327" lon="6.20232">
        <ele>1369</ele>
        <time>2023-04-21T13:36:34.000Z</time>
      </trkpt>
      <trkpt lat="44.51332" lon="6.20238">
        <ele>1370</ele>
        <time>2023-04-21T13:36:35.000Z</time>
      </trkpt>
      <trkpt lat="44.51338" lon="6.20243">
        <ele>1371</ele>
        <time>2023-04-21T13:36:36.000Z</time>
      </trkpt>
      <trkpt lat="44.51345" lon="6.20246">
        <ele>1371</ele>
        <time>2023-04-21T13:36:37.000Z</time>
      </trkpt>
      <trkpt lat="44.51352" lon="6.20249">
        <ele>1371</ele>
        <time>2023-04-21T13:36:38.000Z</time>
      </trkpt>
      <trkpt lat="44.51357" lon="6.20253">
        <ele>1371</ele>
        <time>2023-04-21T13:36:39.000Z</time>
      </trkpt>
      <trkpt lat="44.51363" lon="6.20258">
        <ele>1370</ele>
        <time>2023-04-21T13:36:40.000Z</time>
      </trkpt>
      <trkpt lat="44.51368" lon="6.20262">
        <ele>1370</ele>
        <time>2023-04-21T13:36:41.000Z</time>
      </trkpt>
      <trkpt lat="44.51373" lon="6.20268">
        <ele>1370</ele>
        <time>2023-04-21T13:36:42.000Z</time>
      </trkpt>
      <trkpt lat="44.51382" lon="6.20279">
        <ele>1372</ele>
        <time>2023-04-21T13:36:43.000Z</time>
      </trkpt>
      <trkpt lat="44.51387" lon="6.20285">
        <ele>1373</ele>
        <time>2023-04-21T13:36:44.000Z</time>
      </trkpt>
      <trkpt lat="44.51392" lon="6.20292">
        <ele>1374</ele>
        <time>2023-04-21T13:36:45.000Z</time>
      </trkpt>
      <trkpt lat="44.51397" lon="6.20299">
        <ele>1374</ele>
        <time>2023-04-21T13:36:46.000Z</time>
      </trkpt>
      <trkpt lat="44.51401" lon="6.20306">
        <ele>1374</ele>
        <time>2023-04-21T13:36:47.000Z</time>
      </trkpt>
      <trkpt lat="44.51404" lon="6.20312">
        <ele>1374</ele>
        <time>2023-04-21T13:36:48.000Z</time>
      </trkpt>
      <trkpt lat="44.51406" lon="6.20317">
        <ele>1374</ele>
        <time>2023-04-21T13:36:49.000Z</time>
      </trkpt>
      <trkpt lat="44.51409" lon="6.20321">
        <ele>1375</ele>
        <time>2023-04-21T13:36:50.000Z</time>
      </trkpt>
      <trkpt lat="44.51412" lon="6.20327">
        <ele>1375</ele>
        <time>2023-04-21T13:36:51.000Z</time>
      </trkpt>
      <trkpt lat="44.51414" lon="6.20331">
        <ele>1375</ele>
        <time>2023-04-21T13:36:52.000Z</time>
      </trkpt>
      <trkpt lat="44.51417" lon="6.20335">
        <ele>1374</ele>
        <time>2023-04-21T13:36:53.000Z</time>
      </trkpt>
      <trkpt lat="44.51419" lon="6.2034">
        <ele>1375</ele>
        <time>2023-04-21T13:36:54.000Z</time>
      </trkpt>
      <trkpt lat="44.51421" lon="6.20344">
        <ele>1374</ele>
        <time>2023-04-21T13:36:55.000Z</time>
      </trkpt>
      <trkpt lat="44.51423" lon="6.20347">
        <ele>1374</ele>
        <time>2023-04-21T13:36:56.000Z</time>
      </trkpt>
      <trkpt lat="44.51425" lon="6.20352">
        <ele>1374</ele>
        <time>2023-04-21T13:36:57.000Z</time>
      </trkpt>
      <trkpt lat="44.51428" lon="6.20355">
        <ele>1373</ele>
        <time>2023-04-21T13:36:58.000Z</time>
      </trkpt>
      <trkpt lat="44.51429" lon="6.20358">
        <ele>1374</ele>
        <time>2023-04-21T13:36:59.000Z</time>
      </trkpt>
      <trkpt lat="44.51431" lon="6.20362">
        <ele>1374</ele>
        <time>2023-04-21T13:37:00.000Z</time>
      </trkpt>
      <trkpt lat="44.51434" lon="6.20367">
        <ele>1374</ele>
        <time>2023-04-21T13:37:01.000Z</time>
      </trkpt>
      <trkpt lat="44.51437" lon="6.20371">
        <ele>1374</ele>
        <time>2023-04-21T13:37:02.000Z</time>
      </trkpt>
      <trkpt lat="44.5144" lon="6.20377">
        <ele>1373</ele>
        <time>2023-04-21T13:37:03.000Z</time>
      </trkpt>
      <trkpt lat="44.51443" lon="6.20382">
        <ele>1372</ele>
        <time>2023-04-21T13:37:04.000Z</time>
      </trkpt>
      <trkpt lat="44.51445" lon="6.20386">
        <ele>1372</ele>
        <time>2023-04-21T13:37:05.000Z</time>
      </trkpt>
      <trkpt lat="44.51448" lon="6.20391">
        <ele>1372</ele>
        <time>2023-04-21T13:37:06.000Z</time>
      </trkpt>
      <trkpt lat="44.51451" lon="6.20396">
        <ele>1371</ele>
        <time>2023-04-21T13:37:07.000Z</time>
      </trkpt>
      <trkpt lat="44.51453" lon="6.204">
        <ele>1372</ele>
        <time>2023-04-21T13:37:08.000Z</time>
      </trkpt>
      <trkpt lat="44.51455" lon="6.20404">
        <ele>1371</ele>
        <time>2023-04-21T13:37:09.000Z</time>
      </trkpt>
      <trkpt lat="44.51457" lon="6.20408">
        <ele>1371</ele>
        <time>2023-04-21T13:37:10.000Z</time>
      </trkpt>
      <trkpt lat="44.5146" lon="6.20413">
        <ele>1370</ele>
        <time>2023-04-21T13:37:11.000Z</time>
      </trkpt>
      <trkpt lat="44.51462" lon="6.20418">
        <ele>1368</ele>
        <time>2023-04-21T13:37:12.000Z</time>
      </trkpt>
      <trkpt lat="44.51468" lon="6.20433">
        <ele>1370</ele>
        <time>2023-04-21T13:37:13.000Z</time>
      </trkpt>
      <trkpt lat="44.51469" lon="6.20441">
        <ele>1370</ele>
        <time>2023-04-21T13:37:14.000Z</time>
      </trkpt>
      <trkpt lat="44.51471" lon="6.20448">
        <ele>1370</ele>
        <time>2023-04-21T13:37:15.000Z</time>
      </trkpt>
      <trkpt lat="44.51473" lon="6.20456">
        <ele>1371</ele>
        <time>2023-04-21T13:37:16.000Z</time>
      </trkpt>
      <trkpt lat="44.51474" lon="6.20463">
        <ele>1371</ele>
        <time>2023-04-21T13:37:17.000Z</time>
      </trkpt>
      <trkpt lat="44.51476" lon="6.2047">
        <ele>1372</ele>
        <time>2023-04-21T13:37:18.000Z</time>
      </trkpt>
      <trkpt lat="44.51478" lon="6.20477">
        <ele>1372</ele>
        <time>2023-04-21T13:37:19.000Z</time>
      </trkpt>
      <trkpt lat="44.51478" lon="6.20485">
        <ele>1373</ele>
        <time>2023-04-21T13:37:20.000Z</time>
      </trkpt>
      <trkpt lat="44.51478" lon="6.20494">
        <ele>1374</ele>
        <time>2023-04-21T13:37:21.000Z</time>
      </trkpt>
      <trkpt lat="44.51481" lon="6.20501">
        <ele>1376</ele>
        <time>2023-04-21T13:37:22.000Z</time>
      </trkpt>
      <trkpt lat="44.51481" lon="6.20509">
        <ele>1378</ele>
        <time>2023-04-21T13:37:23.000Z</time>
      </trkpt>
      <trkpt lat="44.51481" lon="6.20518">
        <ele>1377</ele>
        <time>2023-04-21T13:37:24.000Z</time>
      </trkpt>
      <trkpt lat="44.5148" lon="6.20525">
        <ele>1376</ele>
        <time>2023-04-21T13:37:25.000Z</time>
      </trkpt>
      <trkpt lat="44.51479" lon="6.20532">
        <ele>1374</ele>
        <time>2023-04-21T13:37:26.000Z</time>
      </trkpt>
      <trkpt lat="44.51477" lon="6.20539">
        <ele>1371</ele>
        <time>2023-04-21T13:37:27.000Z</time>
      </trkpt>
      <trkpt lat="44.51476" lon="6.20546">
        <ele>1369</ele>
        <time>2023-04-21T13:37:28.000Z</time>
      </trkpt>
      <trkpt lat="44.51474" lon="6.20552">
        <ele>1368</ele>
        <time>2023-04-21T13:37:29.000Z</time>
      </trkpt>
      <trkpt lat="44.51474" lon="6.20558">
        <ele>1366</ele>
        <time>2023-04-21T13:37:30.000Z</time>
      </trkpt>
      <trkpt lat="44.51474" lon="6.20564">
        <ele>1365</ele>
        <time>2023-04-21T13:37:31.000Z</time>
      </trkpt>
      <trkpt lat="44.51473" lon="6.2057">
        <ele>1365</ele>
        <time>2023-04-21T13:37:32.000Z</time>
      </trkpt>
      <trkpt lat="44.51473" lon="6.20576">
        <ele>1364</ele>
        <time>2023-04-21T13:37:33.000Z</time>
      </trkpt>
      <trkpt lat="44.51474" lon="6.20581">
        <ele>1364</ele>
        <time>2023-04-21T13:37:34.000Z</time>
      </trkpt>
      <trkpt lat="44.51475" lon="6.20588">
        <ele>1363</ele>
        <time>2023-04-21T13:37:35.000Z</time>
      </trkpt>
      <trkpt lat="44.51475" lon="6.20594">
        <ele>1363</ele>
        <time>2023-04-21T13:37:36.000Z</time>
      </trkpt>
      <trkpt lat="44.51475" lon="6.20599">
        <ele>1362</ele>
        <time>2023-04-21T13:37:37.000Z</time>
      </trkpt>
      <trkpt lat="44.51475" lon="6.20604">
        <ele>1362</ele>
        <time>2023-04-21T13:37:38.000Z</time>
      </trkpt>
      <trkpt lat="44.51476" lon="6.2061">
        <ele>1361</ele>
        <time>2023-04-21T13:37:39.000Z</time>
      </trkpt>
      <trkpt lat="44.51476" lon="6.20616">
        <ele>1361</ele>
        <time>2023-04-21T13:37:40.000Z</time>
      </trkpt>
      <trkpt lat="44.51477" lon="6.20622">
        <ele>1361</ele>
        <time>2023-04-21T13:37:41.000Z</time>
      </trkpt>
      <trkpt lat="44.51477" lon="6.20628">
        <ele>1360</ele>
        <time>2023-04-21T13:37:42.000Z</time>
      </trkpt>
      <trkpt lat="44.51478" lon="6.20633">
        <ele>1360</ele>
        <time>2023-04-21T13:37:43.000Z</time>
      </trkpt>
      <trkpt lat="44.51477" lon="6.20639">
        <ele>1362</ele>
        <time>2023-04-21T13:37:44.000Z</time>
      </trkpt>
      <trkpt lat="44.51476" lon="6.20642">
        <ele>1362</ele>
        <time>2023-04-21T13:37:45.000Z</time>
      </trkpt>
      <trkpt lat="44.51474" lon="6.20645">
        <ele>1362</ele>
        <time>2023-04-21T13:37:46.000Z</time>
      </trkpt>
      <trkpt lat="44.51472" lon="6.20649">
        <ele>1362</ele>
        <time>2023-04-21T13:37:47.000Z</time>
      </trkpt>
      <trkpt lat="44.51471" lon="6.20652">
        <ele>1364</ele>
        <time>2023-04-21T13:37:48.000Z</time>
      </trkpt>
      <trkpt lat="44.51471" lon="6.20655">
        <ele>1365</ele>
        <time>2023-04-21T13:37:49.000Z</time>
      </trkpt>
      <trkpt lat="44.5147" lon="6.2066">
        <ele>1365</ele>
        <time>2023-04-21T13:37:50.000Z</time>
      </trkpt>
      <trkpt lat="44.51468" lon="6.20664">
        <ele>1366</ele>
        <time>2023-04-21T13:37:51.000Z</time>
      </trkpt>
      <trkpt lat="44.51466" lon="6.20667">
        <ele>1367</ele>
        <time>2023-04-21T13:37:52.000Z</time>
      </trkpt>
      <trkpt lat="44.51465" lon="6.20671">
        <ele>1369</ele>
        <time>2023-04-21T13:37:53.000Z</time>
      </trkpt>
      <trkpt lat="44.51464" lon="6.20674">
        <ele>1371</ele>
        <time>2023-04-21T13:37:54.000Z</time>
      </trkpt>
      <trkpt lat="44.51463" lon="6.20677">
        <ele>1371</ele>
        <time>2023-04-21T13:37:55.000Z</time>
      </trkpt>
      <trkpt lat="44.51462" lon="6.2068">
        <ele>1373</ele>
        <time>2023-04-21T13:37:56.000Z</time>
      </trkpt>
      <trkpt lat="44.51461" lon="6.20683">
        <ele>1374</ele>
        <time>2023-04-21T13:37:57.000Z</time>
      </trkpt>
      <trkpt lat="44.5146" lon="6.20686">
        <ele>1376</ele>
        <time>2023-04-21T13:37:58.000Z</time>
      </trkpt>
      <trkpt lat="44.51458" lon="6.2069">
        <ele>1377</ele>
        <time>2023-04-21T13:37:59.000Z</time>
      </trkpt>
      <trkpt lat="44.51456" lon="6.20695">
        <ele>1377</ele>
        <time>2023-04-21T13:38:00.000Z</time>
      </trkpt>
      <trkpt lat="44.51455" lon="6.20701">
        <ele>1378</ele>
        <time>2023-04-21T13:38:01.000Z</time>
      </trkpt>
      <trkpt lat="44.51455" lon="6.20705">
        <ele>1380</ele>
        <time>2023-04-21T13:38:02.000Z</time>
      </trkpt>
      <trkpt lat="44.51455" lon="6.20709">
        <ele>1382</ele>
        <time>2023-04-21T13:38:03.000Z</time>
      </trkpt>
      <trkpt lat="44.51454" lon="6.20714">
        <ele>1383</ele>
        <time>2023-04-21T13:38:04.000Z</time>
      </trkpt>
      <trkpt lat="44.51454" lon="6.20718">
        <ele>1384</ele>
        <time>2023-04-21T13:38:05.000Z</time>
      </trkpt>
      <trkpt lat="44.51453" lon="6.20724">
        <ele>1385</ele>
        <time>2023-04-21T13:38:06.000Z</time>
      </trkpt>
      <trkpt lat="44.51452" lon="6.2073">
        <ele>1386</ele>
        <time>2023-04-21T13:38:07.000Z</time>
      </trkpt>
      <trkpt lat="44.51451" lon="6.20735">
        <ele>1386</ele>
        <time>2023-04-21T13:38:08.000Z</time>
      </trkpt>
      <trkpt lat="44.51451" lon="6.20739">
        <ele>1387</ele>
        <time>2023-04-21T13:38:09.000Z</time>
      </trkpt>
      <trkpt lat="44.5145" lon="6.20745">
        <ele>1387</ele>
        <time>2023-04-21T13:38:10.000Z</time>
      </trkpt>
      <trkpt lat="44.51449" lon="6.20749">
        <ele>1387</ele>
        <time>2023-04-21T13:38:11.000Z</time>
      </trkpt>
      <trkpt lat="44.51449" lon="6.20754">
        <ele>1388</ele>
        <time>2023-04-21T13:38:12.000Z</time>
      </trkpt>
      <trkpt lat="44.51448" lon="6.20757">
        <ele>1389</ele>
        <time>2023-04-21T13:38:13.000Z</time>
      </trkpt>
      <trkpt lat="44.51447" lon="6.20762">
        <ele>1389</ele>
        <time>2023-04-21T13:38:14.000Z</time>
      </trkpt>
      <trkpt lat="44.51445" lon="6.20767">
        <ele>1389</ele>
        <time>2023-04-21T13:38:15.000Z</time>
      </trkpt>
      <trkpt lat="44.51444" lon="6.20771">
        <ele>1389</ele>
        <time>2023-04-21T13:38:16.000Z</time>
      </trkpt>
      <trkpt lat="44.51443" lon="6.20775">
        <ele>1391</ele>
        <time>2023-04-21T13:38:17.000Z</time>
      </trkpt>
      <trkpt lat="44.51442" lon="6.20779">
        <ele>1393</ele>
        <time>2023-04-21T13:38:18.000Z</time>
      </trkpt>
      <trkpt lat="44.51441" lon="6.20782">
        <ele>1393</ele>
        <time>2023-04-21T13:38:19.000Z</time>
      </trkpt>
      <trkpt lat="44.51439" lon="6.20786">
        <ele>1394</ele>
        <time>2023-04-21T13:38:20.000Z</time>
      </trkpt>
      <trkpt lat="44.51438" lon="6.20791">
        <ele>1394</ele>
        <time>2023-04-21T13:38:21.000Z</time>
      </trkpt>
      <trkpt lat="44.51437" lon="6.20795">
        <ele>1395</ele>
        <time>2023-04-21T13:38:22.000Z</time>
      </trkpt>
      <trkpt lat="44.51435" lon="6.20799">
        <ele>1396</ele>
        <time>2023-04-21T13:38:23.000Z</time>
      </trkpt>
      <trkpt lat="44.51434" lon="6.20803">
        <ele>1396</ele>
        <time>2023-04-21T13:38:24.000Z</time>
      </trkpt>
      <trkpt lat="44.51434" lon="6.20806">
        <ele>1397</ele>
        <time>2023-04-21T13:38:25.000Z</time>
      </trkpt>
      <trkpt lat="44.51434" lon="6.20811">
        <ele>1397</ele>
        <time>2023-04-21T13:38:26.000Z</time>
      </trkpt>
      <trkpt lat="44.51434" lon="6.20813">
        <ele>1399</ele>
        <time>2023-04-21T13:38:27.000Z</time>
      </trkpt>
      <trkpt lat="44.51434" lon="6.20815">
        <ele>1400</ele>
        <time>2023-04-21T13:38:28.000Z</time>
      </trkpt>
      <trkpt lat="44.51434" lon="6.20815">
        <ele>1399</ele>
        <time>2023-04-21T13:38:29.000Z</time>
      </trkpt>
      <trkpt lat="44.51435" lon="6.20815">
        <ele>1400</ele>
        <time>2023-04-21T13:38:30.000Z</time>
      </trkpt>
      <trkpt lat="44.51435" lon="6.20815">
        <ele>1401</ele>
        <time>2023-04-21T13:38:31.000Z</time>
      </trkpt>
      <trkpt lat="44.51436" lon="6.20815">
        <ele>1401</ele>
        <time>2023-04-21T13:38:32.000Z</time>
      </trkpt>
      <trkpt lat="44.51436" lon="6.20815">
        <ele>1400</ele>
        <time>2023-04-21T13:38:33.000Z</time>
      </trkpt>
      <trkpt lat="44.51436" lon="6.20814">
        <ele>1399</ele>
        <time>2023-04-21T13:38:34.000Z</time>
      </trkpt>
      <trkpt lat="44.51436" lon="6.20812">
        <ele>1398</ele>
        <time>2023-04-21T13:38:35.000Z</time>
      </trkpt>
      <trkpt lat="44.51436" lon="6.20811">
        <ele>1398</ele>
        <time>2023-04-21T13:38:36.000Z</time>
      </trkpt>
      <trkpt lat="44.51436" lon="6.2081">
        <ele>1397</ele>
        <time>2023-04-21T13:38:37.000Z</time>
      </trkpt>
      <trkpt lat="44.51437" lon="6.20808">
        <ele>1397</ele>
        <time>2023-04-21T13:38:38.000Z</time>
      </trkpt>
      <trkpt lat="44.51438" lon="6.20806">
        <ele>1397</ele>
        <time>2023-04-21T13:38:39.000Z</time>
      </trkpt>
      <trkpt lat="44.51439" lon="6.20805">
        <ele>1397</ele>
        <time>2023-04-21T13:38:40.000Z</time>
      </trkpt>
      <trkpt lat="44.5144" lon="6.20805">
        <ele>1396</ele>
        <time>2023-04-21T13:38:41.000Z</time>
      </trkpt>
      <trkpt lat="44.51441" lon="6.20804">
        <ele>1397</ele>
        <time>2023-04-21T13:38:42.000Z</time>
      </trkpt>
      <trkpt lat="44.51442" lon="6.20803">
        <ele>1396</ele>
        <time>2023-04-21T13:38:43.000Z</time>
      </trkpt>
      <trkpt lat="44.51444" lon="6.20802">
        <ele>1396</ele>
        <time>2023-04-21T13:38:44.000Z</time>
      </trkpt>
      <trkpt lat="44.51446" lon="6.20803">
        <ele>1396</ele>
        <time>2023-04-21T13:38:45.000Z</time>
      </trkpt>
      <trkpt lat="44.51448" lon="6.20803">
        <ele>1396</ele>
        <time>2023-04-21T13:38:46.000Z</time>
      </trkpt>
      <trkpt lat="44.5145" lon="6.20804">
        <ele>1396</ele>
        <time>2023-04-21T13:38:47.000Z</time>
      </trkpt>
      <trkpt lat="44.51452" lon="6.20806">
        <ele>1395</ele>
        <time>2023-04-21T13:38:48.000Z</time>
      </trkpt>
      <trkpt lat="44.51454" lon="6.20807">
        <ele>1395</ele>
        <time>2023-04-21T13:38:49.000Z</time>
      </trkpt>
      <trkpt lat="44.51457" lon="6.20807">
        <ele>1396</ele>
        <time>2023-04-21T13:38:50.000Z</time>
      </trkpt>
      <trkpt lat="44.51461" lon="6.20813">
        <ele>1395</ele>
        <time>2023-04-21T13:38:51.000Z</time>
      </trkpt>
      <trkpt lat="44.51466" lon="6.20817">
        <ele>1395</ele>
        <time>2023-04-21T13:38:52.000Z</time>
      </trkpt>
      <trkpt lat="44.51469" lon="6.2082">
        <ele>1394</ele>
        <time>2023-04-21T13:38:53.000Z</time>
      </trkpt>
      <trkpt lat="44.51474" lon="6.20824">
        <ele>1393</ele>
        <time>2023-04-21T13:38:54.000Z</time>
      </trkpt>
      <trkpt lat="44.51477" lon="6.20826">
        <ele>1392</ele>
        <time>2023-04-21T13:38:55.000Z</time>
      </trkpt>
      <trkpt lat="44.51479" lon="6.20827">
        <ele>1392</ele>
        <time>2023-04-21T13:38:56.000Z</time>
      </trkpt>
      <trkpt lat="44.51482" lon="6.20828">
        <ele>1392</ele>
        <time>2023-04-21T13:38:57.000Z</time>
      </trkpt>
      <trkpt lat="44.51485" lon="6.20829">
        <ele>1392</ele>
        <time>2023-04-21T13:38:58.000Z</time>
      </trkpt>
      <trkpt lat="44.51488" lon="6.2083">
        <ele>1392</ele>
        <time>2023-04-21T13:38:59.000Z</time>
      </trkpt>
      <trkpt lat="44.5149" lon="6.2083">
        <ele>1391</ele>
        <time>2023-04-21T13:39:00.000Z</time>
      </trkpt>
      <trkpt lat="44.51493" lon="6.20831">
        <ele>1391</ele>
        <time>2023-04-21T13:39:01.000Z</time>
      </trkpt>
      <trkpt lat="44.51495" lon="6.20831">
        <ele>1390</ele>
        <time>2023-04-21T13:39:02.000Z</time>
      </trkpt>
      <trkpt lat="44.51499" lon="6.20832">
        <ele>1391</ele>
        <time>2023-04-21T13:39:03.000Z</time>
      </trkpt>
      <trkpt lat="44.51503" lon="6.20833">
        <ele>1390</ele>
        <time>2023-04-21T13:39:04.000Z</time>
      </trkpt>
      <trkpt lat="44.51506" lon="6.20834">
        <ele>1390</ele>
        <time>2023-04-21T13:39:05.000Z</time>
      </trkpt>
      <trkpt lat="44.51509" lon="6.20835">
        <ele>1389</ele>
        <time>2023-04-21T13:39:06.000Z</time>
      </trkpt>
      <trkpt lat="44.51512" lon="6.20836">
        <ele>1389</ele>
        <time>2023-04-21T13:39:07.000Z</time>
      </trkpt>
      <trkpt lat="44.51514" lon="6.20837">
        <ele>1389</ele>
        <time>2023-04-21T13:39:08.000Z</time>
      </trkpt>
      <trkpt lat="44.51516" lon="6.20838">
        <ele>1388</ele>
        <time>2023-04-21T13:39:09.000Z</time>
      </trkpt>
      <trkpt lat="44.51519" lon="6.20839">
        <ele>1388</ele>
        <time>2023-04-21T13:39:10.000Z</time>
      </trkpt>
      <trkpt lat="44.5152" lon="6.2084">
        <ele>1387</ele>
        <time>2023-04-21T13:39:11.000Z</time>
      </trkpt>
      <trkpt lat="44.51521" lon="6.2084">
        <ele>1387</ele>
        <time>2023-04-21T13:39:12.000Z</time>
      </trkpt>
      <trkpt lat="44.51522" lon="6.20841">
        <ele>1387</ele>
        <time>2023-04-21T13:39:13.000Z</time>
      </trkpt>
      <trkpt lat="44.51523" lon="6.20842">
        <ele>1387</ele>
        <time>2023-04-21T13:39:14.000Z</time>
      </trkpt>
      <trkpt lat="44.51523" lon="6.20842">
        <ele>1387</ele>
        <time>2023-04-21T13:39:15.000Z</time>
      </trkpt>
      <trkpt lat="44.51523" lon="6.20842">
        <ele>1386</ele>
        <time>2023-04-21T13:39:16.000Z</time>
      </trkpt>
      <trkpt lat="44.51524" lon="6.20843">
        <ele>1386</ele>
        <time>2023-04-21T13:39:17.000Z</time>
      </trkpt>
      <trkpt lat="44.51524" lon="6.20843">
        <ele>1386</ele>
        <time>2023-04-21T13:39:18.000Z</time>
      </trkpt>
      <trkpt lat="44.51524" lon="6.20843">
        <ele>1386</ele>
        <time>2023-04-21T13:39:19.000Z</time>
      </trkpt>
      <trkpt lat="44.51524" lon="6.20843">
        <ele>1385</ele>
        <time>2023-04-21T13:39:20.000Z</time>
      </trkpt>
      <trkpt lat="44.51524" lon="6.20843">
        <ele>1385</ele>
        <time>2023-04-21T13:39:21.000Z</time>
      </trkpt>
      <trkpt lat="44.51524" lon="6.20843">
        <ele>1385</ele>
        <time>2023-04-21T13:39:22.000Z</time>
      </trkpt>
      <trkpt lat="44.51524" lon="6.20843">
        <ele>1384</ele>
        <time>2023-04-21T13:39:23.000Z</time>
      </trkpt>
      <trkpt lat="44.51524" lon="6.20843">
        <ele>1384</ele>
        <time>2023-04-21T13:39:24.000Z</time>
      </trkpt>
      <trkpt lat="44.51524" lon="6.20843">
        <ele>1384</ele>
        <time>2023-04-21T13:39:25.000Z</time>
      </trkpt>
      <trkpt lat="44.51525" lon="6.20844">
        <ele>1384</ele>
        <time>2023-04-21T13:39:26.000Z</time>
      </trkpt>
      <trkpt lat="44.51525" lon="6.20843">
        <ele>1383</ele>
        <time>2023-04-21T13:39:27.000Z</time>
      </trkpt>
      <trkpt lat="44.51525" lon="6.20843">
        <ele>1383</ele>
        <time>2023-04-21T13:39:28.000Z</time>
      </trkpt>
      <trkpt lat="44.51525" lon="6.20843">
        <ele>1383</ele>
        <time>2023-04-21T13:39:29.000Z</time>
      </trkpt>
      <trkpt lat="44.51525" lon="6.20844">
        <ele>1383</ele>
        <time>2023-04-21T13:39:30.000Z</time>
      </trkpt>
      <trkpt lat="44.51525" lon="6.20844">
        <ele>1383</ele>
        <time>2023-04-21T13:39:31.000Z</time>
      </trkpt>
      <trkpt lat="44.51525" lon="6.20844">
        <ele>1382</ele>
        <time>2023-04-21T13:39:32.000Z</time>
      </trkpt>
      <trkpt lat="44.51525" lon="6.20844">
        <ele>1382</ele>
        <time>2023-04-21T13:39:33.000Z</time>
      </trkpt>
      <trkpt lat="44.51525" lon="6.20844">
        <ele>1382</ele>
        <time>2023-04-21T13:39:34.000Z</time>
      </trkpt>
      <trkpt lat="44.51525" lon="6.20844">
        <ele>1382</ele>
        <time>2023-04-21T13:39:35.000Z</time>
      </trkpt>
      <trkpt lat="44.51525" lon="6.20844">
        <ele>1381</ele>
        <time>2023-04-21T13:39:36.000Z</time>
      </trkpt>
      <trkpt lat="44.51525" lon="6.20844">
        <ele>1381</ele>
        <time>2023-04-21T13:39:37.000Z</time>
      </trkpt>
      <trkpt lat="44.51525" lon="6.20845">
        <ele>1381</ele>
        <time>2023-04-21T13:39:38.000Z</time>
      </trkpt>
      <trkpt lat="44.51525" lon="6.20845">
        <ele>1381</ele>
        <time>2023-04-21T13:39:39.000Z</time>
      </trkpt>
      <trkpt lat="44.51525" lon="6.20845">
        <ele>1381</ele>
        <time>2023-04-21T13:39:40.000Z</time>
      </trkpt>
      <trkpt lat="44.51525" lon="6.20845">
        <ele>1380</ele>
        <time>2023-04-21T13:39:41.000Z</time>
      </trkpt>
      <trkpt lat="44.51525" lon="6.20845">
        <ele>1380</ele>
        <time>2023-04-21T13:39:42.000Z</time>
      </trkpt>
      <trkpt lat="44.51525" lon="6.20845">
        <ele>1380</ele>
        <time>2023-04-21T13:39:43.000Z</time>
      </trkpt>
      <trkpt lat="44.51526" lon="6.20845">
        <ele>1380</ele>
        <time>2023-04-21T13:39:44.000Z</time>
      </trkpt>
      <trkpt lat="44.51526" lon="6.20845">
        <ele>1380</ele>
        <time>2023-04-21T13:39:45.000Z</time>
      </trkpt>
      <trkpt lat="44.51526" lon="6.20845">
        <ele>1380</ele>
        <time>2023-04-21T13:39:46.000Z</time>
      </trkpt>
      <trkpt lat="44.51526" lon="6.20845">
        <ele>1380</ele>
        <time>2023-04-21T13:39:47.000Z</time>
      </trkpt>
      <trkpt lat="44.51526" lon="6.20845">
        <ele>1379</ele>
        <time>2023-04-21T13:39:48.000Z</time>
      </trkpt>
      <trkpt lat="44.51526" lon="6.20845">
        <ele>1379</ele>
        <time>2023-04-21T13:39:49.000Z</time>
      </trkpt>
      <trkpt lat="44.51526" lon="6.20845">
        <ele>1379</ele>
        <time>2023-04-21T13:39:50.000Z</time>
      </trkpt>
      <trkpt lat="44.51526" lon="6.20845">
        <ele>1379</ele>
        <time>2023-04-21T13:39:51.000Z</time>
      </trkpt>
      <trkpt lat="44.51526" lon="6.20845">
        <ele>1379</ele>
        <time>2023-04-21T13:39:52.000Z</time>
      </trkpt>
      <trkpt lat="44.51526" lon="6.20845">
        <ele>1379</ele>
        <time>2023-04-21T13:39:53.000Z</time>
      </trkpt>
      <trkpt lat="44.51526" lon="6.20845">
        <ele>1379</ele>
        <time>2023-04-21T13:39:54.000Z</time>
      </trkpt>
      <trkpt lat="44.51526" lon="6.20846">
        <ele>1379</ele>
        <time>2023-04-21T13:39:55.000Z</time>
      </trkpt>
      <trkpt lat="44.51526" lon="6.20846">
        <ele>1379</ele>
        <time>2023-04-21T13:39:56.000Z</time>
      </trkpt>
      <trkpt lat="44.51526" lon="6.20846">
        <ele>1379</ele>
        <time>2023-04-21T13:39:57.000Z</time>
      </trkpt>
      <trkpt lat="44.51526" lon="6.20846">
        <ele>1379</ele>
        <time>2023-04-21T13:39:58.000Z</time>
      </trkpt>
      <trkpt lat="44.51526" lon="6.20846">
        <ele>1379</ele>
        <time>2023-04-21T13:39:59.000Z</time>
      </trkpt>
      <trkpt lat="44.51526" lon="6.20846">
        <ele>1379</ele>
        <time>2023-04-21T13:40:00.000Z</time>
      </trkpt>
      <trkpt lat="44.51526" lon="6.20846">
        <ele>1378</ele>
        <time>2023-04-21T13:40:01.000Z</time>
      </trkpt>
      <trkpt lat="44.51526" lon="6.20846">
        <ele>1379</ele>
        <time>2023-04-21T13:40:02.000Z</time>
      </trkpt>
      <trkpt lat="44.51526" lon="6.20846">
        <ele>1379</ele>
        <time>2023-04-21T13:40:03.000Z</time>
      </trkpt>
      <trkpt lat="44.51526" lon="6.20846">
        <ele>1379</ele>
        <time>2023-04-21T13:40:04.000Z</time>
      </trkpt>
      <trkpt lat="44.51526" lon="6.20846">
        <ele>1379</ele>
        <time>2023-04-21T13:40:05.000Z</time>
      </trkpt>
      <trkpt lat="44.51526" lon="6.20846">
        <ele>1379</ele>
        <time>2023-04-21T13:40:06.000Z</time>
      </trkpt>
      <trkpt lat="44.51526" lon="6.20846">
        <ele>1379</ele>
        <time>2023-04-21T13:40:07.000Z</time>
      </trkpt>
      <trkpt lat="44.51526" lon="6.20846">
        <ele>1379</ele>
        <time>2023-04-21T13:40:08.000Z</time>
      </trkpt>
      <trkpt lat="44.51526" lon="6.20846">
        <ele>1379</ele>
        <time>2023-04-21T13:40:09.000Z</time>
      </trkpt>
      <trkpt lat="44.51526" lon="6.20846">
        <ele>1379</ele>
        <time>2023-04-21T13:40:10.000Z</time>
      </trkpt>
      <trkpt lat="44.51526" lon="6.20846">
        <ele>1379</ele>
        <time>2023-04-21T13:40:11.000Z</time>
      </trkpt>
      <trkpt lat="44.51526" lon="6.20846">
        <ele>1380</ele>
        <time>2023-04-21T13:40:12.000Z</time>
      </trkpt>
      <trkpt lat="44.51526" lon="6.20846">
        <ele>1380</ele>
        <time>2023-04-21T13:40:13.000Z</time>
      </trkpt>
      <trkpt lat="44.51526" lon="6.20846">
        <ele>1380</ele>
        <time>2023-04-21T13:40:14.000Z</time>
      </trkpt>
      <trkpt lat="44.51526" lon="6.20846">
        <ele>1380</ele>
        <time>2023-04-21T13:40:15.000Z</time>
      </trkpt>
      <trkpt lat="44.51526" lon="6.20846">
        <ele>1380</ele>
        <time>2023-04-21T13:40:16.000Z</time>
      </trkpt>
      <trkpt lat="44.51526" lon="6.20846">
        <ele>1380</ele>
        <time>2023-04-21T13:40:17.000Z</time>
      </trkpt>
      <trkpt lat="44.51526" lon="6.20846">
        <ele>1380</ele>
        <time>2023-04-21T13:40:18.000Z</time>
      </trkpt>
      <trkpt lat="44.51526" lon="6.20846">
        <ele>1380</ele>
        <time>2023-04-21T13:40:19.000Z</time>
      </trkpt>
      <trkpt lat="44.51526" lon="6.20847">
        <ele>1381</ele>
        <time>2023-04-21T13:40:20.000Z</time>
      </trkpt>
      <trkpt lat="44.51526" lon="6.20847">
        <ele>1381</ele>
        <time>2023-04-21T13:40:21.000Z</time>
      </trkpt>
      <trkpt lat="44.51526" lon="6.20847">
        <ele>1381</ele>
        <time>2023-04-21T13:40:22.000Z</time>
      </trkpt>
      <trkpt lat="44.51526" lon="6.20847">
        <ele>1381</ele>
        <time>2023-04-21T13:40:23.000Z</time>
      </trkpt>
      <trkpt lat="44.51526" lon="6.20847">
        <ele>1382</ele>
        <time>2023-04-21T13:40:24.000Z</time>
      </trkpt>
      <trkpt lat="44.51526" lon="6.20847">
        <ele>1382</ele>
        <time>2023-04-21T13:40:25.000Z</time>
      </trkpt>
      <trkpt lat="44.51526" lon="6.20847">
        <ele>1382</ele>
        <time>2023-04-21T13:40:26.000Z</time>
      </trkpt>
      <trkpt lat="44.51526" lon="6.20846">
        <ele>1382</ele>
        <time>2023-04-21T13:40:27.000Z</time>
      </trkpt>
      <trkpt lat="44.51526" lon="6.20846">
        <ele>1382</ele>
        <time>2023-04-21T13:40:28.000Z</time>
      </trkpt>
      <trkpt lat="44.51526" lon="6.20846">
        <ele>1382</ele>
        <time>2023-04-21T13:40:29.000Z</time>
      </trkpt>
      <trkpt lat="44.51526" lon="6.20846">
        <ele>1382</ele>
        <time>2023-04-21T13:40:30.000Z</time>
      </trkpt>
      <trkpt lat="44.51526" lon="6.20846">
        <ele>1382</ele>
        <time>2023-04-21T13:40:31.000Z</time>
      </trkpt>
      <trkpt lat="44.51526" lon="6.20846">
        <ele>1383</ele>
        <time>2023-04-21T13:40:32.000Z</time>
      </trkpt>
      <trkpt lat="44.51526" lon="6.20846">
        <ele>1383</ele>
        <time>2023-04-21T13:40:33.000Z</time>
      </trkpt>
      <trkpt lat="44.51526" lon="6.20846">
        <ele>1383</ele>
        <time>2023-04-21T13:40:34.000Z</time>
      </trkpt>
      <trkpt lat="44.51526" lon="6.20846">
        <ele>1383</ele>
        <time>2023-04-21T13:40:35.000Z</time>
      </trkpt>
      <trkpt lat="44.51526" lon="6.20846">
        <ele>1383</ele>
        <time>2023-04-21T13:40:36.000Z</time>
      </trkpt>
      <trkpt lat="44.51526" lon="6.20846">
        <ele>1383</ele>
        <time>2023-04-21T13:40:37.000Z</time>
      </trkpt>
      <trkpt lat="44.51526" lon="6.20846">
        <ele>1383</ele>
        <time>2023-04-21T13:40:38.000Z</time>
      </trkpt>
      <trkpt lat="44.51526" lon="6.20846">
        <ele>1383</ele>
        <time>2023-04-21T13:40:39.000Z</time>
      </trkpt>
      <trkpt lat="44.51526" lon="6.20846">
        <ele>1383</ele>
        <time>2023-04-21T13:40:40.000Z</time>
      </trkpt>
      <trkpt lat="44.51526" lon="6.20846">
        <ele>1383</ele>
        <time>2023-04-21T13:40:41.000Z</time>
      </trkpt>
      <trkpt lat="44.51526" lon="6.20846">
        <ele>1383</ele>
        <time>2023-04-21T13:40:42.000Z</time>
      </trkpt>
      <trkpt lat="44.51526" lon="6.20846">
        <ele>1383</ele>
        <time>2023-04-21T13:40:43.000Z</time>
      </trkpt>
      <trkpt lat="44.51526" lon="6.20846">
        <ele>1383</ele>
        <time>2023-04-21T13:40:44.000Z</time>
      </trkpt>
      <trkpt lat="44.51526" lon="6.20846">
        <ele>1383</ele>
        <time>2023-04-21T13:40:45.000Z</time>
      </trkpt>
      <trkpt lat="44.51526" lon="6.20846">
        <ele>1383</ele>
        <time>2023-04-21T13:40:46.000Z</time>
      </trkpt>
      <trkpt lat="44.51526" lon="6.20846">
        <ele>1383</ele>
        <time>2023-04-21T13:40:47.000Z</time>
      </trkpt>
      <trkpt lat="44.51526" lon="6.20846">
        <ele>1383</ele>
        <time>2023-04-21T13:40:48.000Z</time>
      </trkpt>
      <trkpt lat="44.51526" lon="6.20846">
        <ele>1383</ele>
        <time>2023-04-21T13:40:49.000Z</time>
      </trkpt>
      <trkpt lat="44.51526" lon="6.20846">
        <ele>1383</ele>
        <time>2023-04-21T13:40:50.000Z</time>
      </trkpt>
      <trkpt lat="44.51526" lon="6.20846">
        <ele>1383</ele>
        <time>2023-04-21T13:40:51.000Z</time>
      </trkpt>
      <trkpt lat="44.51526" lon="6.20846">
        <ele>1383</ele>
        <time>2023-04-21T13:40:52.000Z</time>
      </trkpt>
      <trkpt lat="44.51526" lon="6.20846">
        <ele>1383</ele>
        <time>2023-04-21T13:40:53.000Z</time>
      </trkpt>
      <trkpt lat="44.51526" lon="6.20846">
        <ele>1383</ele>
        <time>2023-04-21T13:40:54.000Z</time>
      </trkpt>
      <trkpt lat="44.51526" lon="6.20846">
        <ele>1383</ele>
        <time>2023-04-21T13:40:55.000Z</time>
      </trkpt>
      <trkpt lat="44.51526" lon="6.20846">
        <ele>1383</ele>
        <time>2023-04-21T13:40:56.000Z</time>
      </trkpt>
      <trkpt lat="44.51526" lon="6.20847">
        <ele>1383</ele>
        <time>2023-04-21T13:40:57.000Z</time>
      </trkpt>
      <trkpt lat="44.51527" lon="6.20847">
        <ele>1383</ele>
        <time>2023-04-21T13:40:58.000Z</time>
      </trkpt>
      <trkpt lat="44.51527" lon="6.20847">
        <ele>1383</ele>
        <time>2023-04-21T13:40:59.000Z</time>
      </trkpt>
      <trkpt lat="44.51527" lon="6.20847">
        <ele>1383</ele>
        <time>2023-04-21T13:41:00.000Z</time>
      </trkpt>
      <trkpt lat="44.51527" lon="6.20847">
        <ele>1383</ele>
        <time>2023-04-21T13:41:01.000Z</time>
      </trkpt>
      <trkpt lat="44.51527" lon="6.20847">
        <ele>1383</ele>
        <time>2023-04-21T13:41:02.000Z</time>
      </trkpt>
      <trkpt lat="44.51527" lon="6.20847">
        <ele>1383</ele>
        <time>2023-04-21T13:41:03.000Z</time>
      </trkpt>
      <trkpt lat="44.51527" lon="6.20847">
        <ele>1383</ele>
        <time>2023-04-21T13:41:04.000Z</time>
      </trkpt>
      <trkpt lat="44.51527" lon="6.20847">
        <ele>1383</ele>
        <time>2023-04-21T13:41:05.000Z</time>
      </trkpt>
      <trkpt lat="44.51527" lon="6.20847">
        <ele>1383</ele>
        <time>2023-04-21T13:41:06.000Z</time>
      </trkpt>
      <trkpt lat="44.51527" lon="6.20847">
        <ele>1383</ele>
        <time>2023-04-21T13:41:07.000Z</time>
      </trkpt>
      <trkpt lat="44.51527" lon="6.20847">
        <ele>1383</ele>
        <time>2023-04-21T13:41:08.000Z</time>
      </trkpt>
      <trkpt lat="44.51527" lon="6.20848">
        <ele>1383</ele>
        <time>2023-04-21T13:41:09.000Z</time>
      </trkpt>
      <trkpt lat="44.51527" lon="6.20848">
        <ele>1383</ele>
        <time>2023-04-21T13:41:10.000Z</time>
      </trkpt>
      <trkpt lat="44.51527" lon="6.20848">
        <ele>1383</ele>
        <time>2023-04-21T13:41:11.000Z</time>
      </trkpt>
      <trkpt lat="44.51527" lon="6.20848">
        <ele>1383</ele>
        <time>2023-04-21T13:41:12.000Z</time>
      </trkpt>
      <trkpt lat="44.51527" lon="6.20848">
        <ele>1383</ele>
        <time>2023-04-21T13:41:13.000Z</time>
      </trkpt>
      <trkpt lat="44.51527" lon="6.20848">
        <ele>1384</ele>
        <time>2023-04-21T13:41:14.000Z</time>
      </trkpt>
      <trkpt lat="44.51527" lon="6.20848">
        <ele>1384</ele>
        <time>2023-04-21T13:41:15.000Z</time>
      </trkpt>
      <trkpt lat="44.51527" lon="6.20848">
        <ele>1384</ele>
        <time>2023-04-21T13:41:16.000Z</time>
      </trkpt>
      <trkpt lat="44.51527" lon="6.20848">
        <ele>1384</ele>
        <time>2023-04-21T13:41:17.000Z</time>
      </trkpt>
      <trkpt lat="44.51527" lon="6.20848">
        <ele>1384</ele>
        <time>2023-04-21T13:41:18.000Z</time>
      </trkpt>
      <trkpt lat="44.51527" lon="6.20848">
        <ele>1384</ele>
        <time>2023-04-21T13:41:19.000Z</time>
      </trkpt>
      <trkpt lat="44.51527" lon="6.20848">
        <ele>1384</ele>
        <time>2023-04-21T13:41:20.000Z</time>
      </trkpt>
      <trkpt lat="44.51527" lon="6.20848">
        <ele>1384</ele>
        <time>2023-04-21T13:41:21.000Z</time>
      </trkpt>
      <trkpt lat="44.51527" lon="6.20848">
        <ele>1384</ele>
        <time>2023-04-21T13:41:22.000Z</time>
      </trkpt>
      <trkpt lat="44.51527" lon="6.20848">
        <ele>1384</ele>
        <time>2023-04-21T13:41:23.000Z</time>
      </trkpt>
      <trkpt lat="44.51527" lon="6.20848">
        <ele>1384</ele>
        <time>2023-04-21T13:41:24.000Z</time>
      </trkpt>
      <trkpt lat="44.51527" lon="6.20847">
        <ele>1384</ele>
        <time>2023-04-21T13:41:25.000Z</time>
      </trkpt>
      <trkpt lat="44.51527" lon="6.20847">
        <ele>1384</ele>
        <time>2023-04-21T13:41:26.000Z</time>
      </trkpt>
      <trkpt lat="44.51527" lon="6.20847">
        <ele>1383</ele>
        <time>2023-04-21T13:41:27.000Z</time>
      </trkpt>
      <trkpt lat="44.51526" lon="6.20847">
        <ele>1383</ele>
        <time>2023-04-21T13:41:28.000Z</time>
      </trkpt>
      <trkpt lat="44.51526" lon="6.20847">
        <ele>1383</ele>
        <time>2023-04-21T13:41:29.000Z</time>
      </trkpt>
      <trkpt lat="44.51526" lon="6.20847">
        <ele>1383</ele>
        <time>2023-04-21T13:41:30.000Z</time>
      </trkpt>
      <trkpt lat="44.51526" lon="6.20847">
        <ele>1383</ele>
        <time>2023-04-21T13:41:31.000Z</time>
      </trkpt>
      <trkpt lat="44.51526" lon="6.20846">
        <ele>1382</ele>
        <time>2023-04-21T13:41:32.000Z</time>
      </trkpt>
      <trkpt lat="44.51526" lon="6.20846">
        <ele>1382</ele>
        <time>2023-04-21T13:41:33.000Z</time>
      </trkpt>
      <trkpt lat="44.51526" lon="6.20846">
        <ele>1382</ele>
        <time>2023-04-21T13:41:34.000Z</time>
      </trkpt>
      <trkpt lat="44.51526" lon="6.20846">
        <ele>1382</ele>
        <time>2023-04-21T13:41:35.000Z</time>
      </trkpt>
      <trkpt lat="44.51526" lon="6.20846">
        <ele>1382</ele>
        <time>2023-04-21T13:41:36.000Z</time>
      </trkpt>
      <trkpt lat="44.51526" lon="6.20846">
        <ele>1382</ele>
        <time>2023-04-21T13:41:37.000Z</time>
      </trkpt>
      <trkpt lat="44.51526" lon="6.20846">
        <ele>1383</ele>
        <time>2023-04-21T13:41:38.000Z</time>
      </trkpt>
      <trkpt lat="44.51526" lon="6.20846">
        <ele>1383</ele>
        <time>2023-04-21T13:41:39.000Z</time>
      </trkpt>
      <trkpt lat="44.51526" lon="6.20846">
        <ele>1383</ele>
        <time>2023-04-21T13:41:40.000Z</time>
      </trkpt>
      <trkpt lat="44.51526" lon="6.20846">
        <ele>1383</ele>
        <time>2023-04-21T13:41:41.000Z</time>
      </trkpt>
      <trkpt lat="44.51526" lon="6.20846">
        <ele>1383</ele>
        <time>2023-04-21T13:41:42.000Z</time>
      </trkpt>
      <trkpt lat="44.51527" lon="6.20846">
        <ele>1383</ele>
        <time>2023-04-21T13:41:43.000Z</time>
      </trkpt>
      <trkpt lat="44.51528" lon="6.20846">
        <ele>1383</ele>
        <time>2023-04-21T13:41:44.000Z</time>
      </trkpt>
      <trkpt lat="44.51529" lon="6.20846">
        <ele>1383</ele>
        <time>2023-04-21T13:41:45.000Z</time>
      </trkpt>
      <trkpt lat="44.51531" lon="6.20846">
        <ele>1383</ele>
        <time>2023-04-21T13:41:46.000Z</time>
      </trkpt>
      <trkpt lat="44.51533" lon="6.20847">
        <ele>1383</ele>
        <time>2023-04-21T13:41:47.000Z</time>
      </trkpt>
      <trkpt lat="44.51535" lon="6.20847">
        <ele>1383</ele>
        <time>2023-04-21T13:41:48.000Z</time>
      </trkpt>
      <trkpt lat="44.51537" lon="6.20847">
        <ele>1383</ele>
        <time>2023-04-21T13:41:49.000Z</time>
      </trkpt>
      <trkpt lat="44.51539" lon="6.20846">
        <ele>1383</ele>
        <time>2023-04-21T13:41:50.000Z</time>
      </trkpt>
      <trkpt lat="44.51542" lon="6.20846">
        <ele>1383</ele>
        <time>2023-04-21T13:41:51.000Z</time>
      </trkpt>
      <trkpt lat="44.51545" lon="6.20848">
        <ele>1382</ele>
        <time>2023-04-21T13:41:52.000Z</time>
      </trkpt>
      <trkpt lat="44.51548" lon="6.20849">
        <ele>1382</ele>
        <time>2023-04-21T13:41:53.000Z</time>
      </trkpt>
      <trkpt lat="44.51551" lon="6.20849">
        <ele>1382</ele>
        <time>2023-04-21T13:41:54.000Z</time>
      </trkpt>
      <trkpt lat="44.51555" lon="6.20849">
        <ele>1382</ele>
        <time>2023-04-21T13:41:55.000Z</time>
      </trkpt>
      <trkpt lat="44.5156" lon="6.20851">
        <ele>1383</ele>
        <time>2023-04-21T13:41:56.000Z</time>
      </trkpt>
      <trkpt lat="44.51564" lon="6.20852">
        <ele>1385</ele>
        <time>2023-04-21T13:41:57.000Z</time>
      </trkpt>
      <trkpt lat="44.51573" lon="6.20853">
        <ele>1388</ele>
        <time>2023-04-21T13:41:58.000Z</time>
      </trkpt>
      <trkpt lat="44.51579" lon="6.20855">
        <ele>1390</ele>
        <time>2023-04-21T13:41:59.000Z</time>
      </trkpt>
      <trkpt lat="44.51584" lon="6.20855">
        <ele>1392</ele>
        <time>2023-04-21T13:42:00.000Z</time>
      </trkpt>
      <trkpt lat="44.5159" lon="6.20855">
        <ele>1393</ele>
        <time>2023-04-21T13:42:01.000Z</time>
      </trkpt>
      <trkpt lat="44.51596" lon="6.20855">
        <ele>1395</ele>
        <time>2023-04-21T13:42:02.000Z</time>
      </trkpt>
      <trkpt lat="44.51604" lon="6.20856">
        <ele>1396</ele>
        <time>2023-04-21T13:42:03.000Z</time>
      </trkpt>
      <trkpt lat="44.51612" lon="6.20856">
        <ele>1399</ele>
        <time>2023-04-21T13:42:04.000Z</time>
      </trkpt>
      <trkpt lat="44.51622" lon="6.20856">
        <ele>1403</ele>
        <time>2023-04-21T13:42:05.000Z</time>
      </trkpt>
      <trkpt lat="44.5163" lon="6.20857">
        <ele>1406</ele>
        <time>2023-04-21T13:42:06.000Z</time>
      </trkpt>
      <trkpt lat="44.51637" lon="6.20856">
        <ele>1408</ele>
        <time>2023-04-21T13:42:07.000Z</time>
      </trkpt>
      <trkpt lat="44.51645" lon="6.20855">
        <ele>1408</ele>
        <time>2023-04-21T13:42:08.000Z</time>
      </trkpt>
      <trkpt lat="44.51651" lon="6.20854">
        <ele>1410</ele>
        <time>2023-04-21T13:42:09.000Z</time>
      </trkpt>
      <trkpt lat="44.51657" lon="6.20853">
        <ele>1412</ele>
        <time>2023-04-21T13:42:10.000Z</time>
      </trkpt>
      <trkpt lat="44.51664" lon="6.20852">
        <ele>1415</ele>
        <time>2023-04-21T13:42:11.000Z</time>
      </trkpt>
      <trkpt lat="44.5167" lon="6.20851">
        <ele>1417</ele>
        <time>2023-04-21T13:42:12.000Z</time>
      </trkpt>
      <trkpt lat="44.51677" lon="6.20851">
        <ele>1418</ele>
        <time>2023-04-21T13:42:13.000Z</time>
      </trkpt>
      <trkpt lat="44.51683" lon="6.20851">
        <ele>1418</ele>
        <time>2023-04-21T13:42:14.000Z</time>
      </trkpt>
      <trkpt lat="44.51689" lon="6.20852">
        <ele>1420</ele>
        <time>2023-04-21T13:42:15.000Z</time>
      </trkpt>
      <trkpt lat="44.51694" lon="6.20852">
        <ele>1420</ele>
        <time>2023-04-21T13:42:16.000Z</time>
      </trkpt>
      <trkpt lat="44.51699" lon="6.20854">
        <ele>1419</ele>
        <time>2023-04-21T13:42:17.000Z</time>
      </trkpt>
      <trkpt lat="44.51702" lon="6.20854">
        <ele>1416</ele>
        <time>2023-04-21T13:42:18.000Z</time>
      </trkpt>
      <trkpt lat="44.51706" lon="6.20856">
        <ele>1415</ele>
        <time>2023-04-21T13:42:19.000Z</time>
      </trkpt>
      <trkpt lat="44.5171" lon="6.20857">
        <ele>1412</ele>
        <time>2023-04-21T13:42:20.000Z</time>
      </trkpt>
      <trkpt lat="44.51713" lon="6.20859">
        <ele>1411</ele>
        <time>2023-04-21T13:42:21.000Z</time>
      </trkpt>
      <trkpt lat="44.51718" lon="6.20861">
        <ele>1409</ele>
        <time>2023-04-21T13:42:22.000Z</time>
      </trkpt>
      <trkpt lat="44.51723" lon="6.20866">
        <ele>1408</ele>
        <time>2023-04-21T13:42:23.000Z</time>
      </trkpt>
      <trkpt lat="44.51727" lon="6.20871">
        <ele>1405</ele>
        <time>2023-04-21T13:42:24.000Z</time>
      </trkpt>
      <trkpt lat="44.5173" lon="6.20874">
        <ele>1404</ele>
        <time>2023-04-21T13:42:25.000Z</time>
      </trkpt>
      <trkpt lat="44.51731" lon="6.2088">
        <ele>1403</ele>
        <time>2023-04-21T13:42:26.000Z</time>
      </trkpt>
      <trkpt lat="44.51733" lon="6.20885">
        <ele>1402</ele>
        <time>2023-04-21T13:42:27.000Z</time>
      </trkpt>
      <trkpt lat="44.51735" lon="6.20891">
        <ele>1400</ele>
        <time>2023-04-21T13:42:28.000Z</time>
      </trkpt>
      <trkpt lat="44.51737" lon="6.20896">
        <ele>1399</ele>
        <time>2023-04-21T13:42:29.000Z</time>
      </trkpt>
      <trkpt lat="44.51738" lon="6.20901">
        <ele>1399</ele>
        <time>2023-04-21T13:42:30.000Z</time>
      </trkpt>
      <trkpt lat="44.51739" lon="6.20905">
        <ele>1398</ele>
        <time>2023-04-21T13:42:31.000Z</time>
      </trkpt>
      <trkpt lat="44.51739" lon="6.20908">
        <ele>1399</ele>
        <time>2023-04-21T13:42:32.000Z</time>
      </trkpt>
      <trkpt lat="44.51739" lon="6.20912">
        <ele>1398</ele>
        <time>2023-04-21T13:42:33.000Z</time>
      </trkpt>
      <trkpt lat="44.51739" lon="6.20916">
        <ele>1399</ele>
        <time>2023-04-21T13:42:34.000Z</time>
      </trkpt>
      <trkpt lat="44.51739" lon="6.20921">
        <ele>1400</ele>
        <time>2023-04-21T13:42:35.000Z</time>
      </trkpt>
      <trkpt lat="44.51739" lon="6.20926">
        <ele>1399</ele>
        <time>2023-04-21T13:42:36.000Z</time>
      </trkpt>
      <trkpt lat="44.51739" lon="6.20931">
        <ele>1400</ele>
        <time>2023-04-21T13:42:37.000Z</time>
      </trkpt>
      <trkpt lat="44.51739" lon="6.20936">
        <ele>1400</ele>
        <time>2023-04-21T13:42:38.000Z</time>
      </trkpt>
      <trkpt lat="44.51738" lon="6.2094">
        <ele>1401</ele>
        <time>2023-04-21T13:42:39.000Z</time>
      </trkpt>
      <trkpt lat="44.51738" lon="6.20944">
        <ele>1402</ele>
        <time>2023-04-21T13:42:40.000Z</time>
      </trkpt>
      <trkpt lat="44.51737" lon="6.20948">
        <ele>1402</ele>
        <time>2023-04-21T13:42:41.000Z</time>
      </trkpt>
      <trkpt lat="44.51737" lon="6.20952">
        <ele>1403</ele>
        <time>2023-04-21T13:42:42.000Z</time>
      </trkpt>
      <trkpt lat="44.51736" lon="6.20955">
        <ele>1404</ele>
        <time>2023-04-21T13:42:43.000Z</time>
      </trkpt>
      <trkpt lat="44.51736" lon="6.20958">
        <ele>1405</ele>
        <time>2023-04-21T13:42:44.000Z</time>
      </trkpt>
      <trkpt lat="44.51736" lon="6.20961">
        <ele>1406</ele>
        <time>2023-04-21T13:42:45.000Z</time>
      </trkpt>
      <trkpt lat="44.51735" lon="6.20965">
        <ele>1407</ele>
        <time>2023-04-21T13:42:46.000Z</time>
      </trkpt>
      <trkpt lat="44.51734" lon="6.20969">
        <ele>1407</ele>
        <time>2023-04-21T13:42:47.000Z</time>
      </trkpt>
      <trkpt lat="44.51734" lon="6.20973">
        <ele>1408</ele>
        <time>2023-04-21T13:42:48.000Z</time>
      </trkpt>
      <trkpt lat="44.51734" lon="6.20976">
        <ele>1410</ele>
        <time>2023-04-21T13:42:49.000Z</time>
      </trkpt>
      <trkpt lat="44.51733" lon="6.2098">
        <ele>1410</ele>
        <time>2023-04-21T13:42:50.000Z</time>
      </trkpt>
      <trkpt lat="44.51733" lon="6.20984">
        <ele>1411</ele>
        <time>2023-04-21T13:42:51.000Z</time>
      </trkpt>
      <trkpt lat="44.51731" lon="6.20988">
        <ele>1411</ele>
        <time>2023-04-21T13:42:52.000Z</time>
      </trkpt>
      <trkpt lat="44.5173" lon="6.20991">
        <ele>1411</ele>
        <time>2023-04-21T13:42:53.000Z</time>
      </trkpt>
      <trkpt lat="44.51729" lon="6.20994">
        <ele>1411</ele>
        <time>2023-04-21T13:42:54.000Z</time>
      </trkpt>
      <trkpt lat="44.51728" lon="6.20997">
        <ele>1411</ele>
        <time>2023-04-21T13:42:55.000Z</time>
      </trkpt>
      <trkpt lat="44.51727" lon="6.21">
        <ele>1411</ele>
        <time>2023-04-21T13:42:56.000Z</time>
      </trkpt>
      <trkpt lat="44.51726" lon="6.21003">
        <ele>1412</ele>
        <time>2023-04-21T13:42:57.000Z</time>
      </trkpt>
      <trkpt lat="44.51724" lon="6.21006">
        <ele>1412</ele>
        <time>2023-04-21T13:42:58.000Z</time>
      </trkpt>
      <trkpt lat="44.51722" lon="6.21009">
        <ele>1412</ele>
        <time>2023-04-21T13:42:59.000Z</time>
      </trkpt>
      <trkpt lat="44.51721" lon="6.21011">
        <ele>1413</ele>
        <time>2023-04-21T13:43:00.000Z</time>
      </trkpt>
      <trkpt lat="44.5172" lon="6.21014">
        <ele>1414</ele>
        <time>2023-04-21T13:43:01.000Z</time>
      </trkpt>
      <trkpt lat="44.51719" lon="6.21017">
        <ele>1413</ele>
        <time>2023-04-21T13:43:02.000Z</time>
      </trkpt>
      <trkpt lat="44.51718" lon="6.2102">
        <ele>1414</ele>
        <time>2023-04-21T13:43:03.000Z</time>
      </trkpt>
      <trkpt lat="44.51716" lon="6.21024">
        <ele>1414</ele>
        <time>2023-04-21T13:43:04.000Z</time>
      </trkpt>
      <trkpt lat="44.51715" lon="6.21028">
        <ele>1415</ele>
        <time>2023-04-21T13:43:05.000Z</time>
      </trkpt>
      <trkpt lat="44.51715" lon="6.21032">
        <ele>1415</ele>
        <time>2023-04-21T13:43:06.000Z</time>
      </trkpt>
      <trkpt lat="44.51714" lon="6.21035">
        <ele>1415</ele>
        <time>2023-04-21T13:43:07.000Z</time>
      </trkpt>
      <trkpt lat="44.51713" lon="6.21039">
        <ele>1416</ele>
        <time>2023-04-21T13:43:08.000Z</time>
      </trkpt>
      <trkpt lat="44.51713" lon="6.21043">
        <ele>1417</ele>
        <time>2023-04-21T13:43:09.000Z</time>
      </trkpt>
      <trkpt lat="44.51711" lon="6.21046">
        <ele>1417</ele>
        <time>2023-04-21T13:43:10.000Z</time>
      </trkpt>
      <trkpt lat="44.51709" lon="6.21051">
        <ele>1417</ele>
        <time>2023-04-21T13:43:11.000Z</time>
      </trkpt>
      <trkpt lat="44.51708" lon="6.21054">
        <ele>1416</ele>
        <time>2023-04-21T13:43:12.000Z</time>
      </trkpt>
      <trkpt lat="44.51706" lon="6.21058">
        <ele>1416</ele>
        <time>2023-04-21T13:43:13.000Z</time>
      </trkpt>
      <trkpt lat="44.51705" lon="6.21062">
        <ele>1416</ele>
        <time>2023-04-21T13:43:14.000Z</time>
      </trkpt>
      <trkpt lat="44.51704" lon="6.21066">
        <ele>1416</ele>
        <time>2023-04-21T13:43:15.000Z</time>
      </trkpt>
      <trkpt lat="44.51702" lon="6.2107">
        <ele>1415</ele>
        <time>2023-04-21T13:43:16.000Z</time>
      </trkpt>
      <trkpt lat="44.51701" lon="6.21072">
        <ele>1415</ele>
        <time>2023-04-21T13:43:17.000Z</time>
      </trkpt>
      <trkpt lat="44.517" lon="6.21076">
        <ele>1416</ele>
        <time>2023-04-21T13:43:18.000Z</time>
      </trkpt>
      <trkpt lat="44.51699" lon="6.2108">
        <ele>1416</ele>
        <time>2023-04-21T13:43:19.000Z</time>
      </trkpt>
      <trkpt lat="44.51698" lon="6.21084">
        <ele>1416</ele>
        <time>2023-04-21T13:43:20.000Z</time>
      </trkpt>
      <trkpt lat="44.51697" lon="6.21089">
        <ele>1417</ele>
        <time>2023-04-21T13:43:21.000Z</time>
      </trkpt>
      <trkpt lat="44.51696" lon="6.21092">
        <ele>1417</ele>
        <time>2023-04-21T13:43:22.000Z</time>
      </trkpt>
      <trkpt lat="44.51695" lon="6.21096">
        <ele>1417</ele>
        <time>2023-04-21T13:43:23.000Z</time>
      </trkpt>
      <trkpt lat="44.51694" lon="6.211">
        <ele>1417</ele>
        <time>2023-04-21T13:43:24.000Z</time>
      </trkpt>
      <trkpt lat="44.51692" lon="6.21104">
        <ele>1416</ele>
        <time>2023-04-21T13:43:25.000Z</time>
      </trkpt>
      <trkpt lat="44.5169" lon="6.21109">
        <ele>1415</ele>
        <time>2023-04-21T13:43:26.000Z</time>
      </trkpt>
      <trkpt lat="44.51688" lon="6.21113">
        <ele>1414</ele>
        <time>2023-04-21T13:43:27.000Z</time>
      </trkpt>
      <trkpt lat="44.51684" lon="6.21117">
        <ele>1412</ele>
        <time>2023-04-21T13:43:28.000Z</time>
      </trkpt>
      <trkpt lat="44.51681" lon="6.21121">
        <ele>1412</ele>
        <time>2023-04-21T13:43:29.000Z</time>
      </trkpt>
      <trkpt lat="44.5168" lon="6.21125">
        <ele>1412</ele>
        <time>2023-04-21T13:43:30.000Z</time>
      </trkpt>
      <trkpt lat="44.5168" lon="6.21128">
        <ele>1413</ele>
        <time>2023-04-21T13:43:31.000Z</time>
      </trkpt>
      <trkpt lat="44.51679" lon="6.21132">
        <ele>1415</ele>
        <time>2023-04-21T13:43:32.000Z</time>
      </trkpt>
      <trkpt lat="44.51678" lon="6.21135">
        <ele>1416</ele>
        <time>2023-04-21T13:43:33.000Z</time>
      </trkpt>
      <trkpt lat="44.51677" lon="6.21138">
        <ele>1417</ele>
        <time>2023-04-21T13:43:34.000Z</time>
      </trkpt>
      <trkpt lat="44.51676" lon="6.21142">
        <ele>1417</ele>
        <time>2023-04-21T13:43:35.000Z</time>
      </trkpt>
      <trkpt lat="44.51675" lon="6.21146">
        <ele>1418</ele>
        <time>2023-04-21T13:43:36.000Z</time>
      </trkpt>
      <trkpt lat="44.51674" lon="6.2115">
        <ele>1419</ele>
        <time>2023-04-21T13:43:37.000Z</time>
      </trkpt>
      <trkpt lat="44.51673" lon="6.21154">
        <ele>1419</ele>
        <time>2023-04-21T13:43:38.000Z</time>
      </trkpt>
      <trkpt lat="44.51672" lon="6.21158">
        <ele>1420</ele>
        <time>2023-04-21T13:43:39.000Z</time>
      </trkpt>
      <trkpt lat="44.51672" lon="6.21163">
        <ele>1420</ele>
        <time>2023-04-21T13:43:40.000Z</time>
      </trkpt>
      <trkpt lat="44.51671" lon="6.21167">
        <ele>1420</ele>
        <time>2023-04-21T13:43:41.000Z</time>
      </trkpt>
      <trkpt lat="44.51669" lon="6.21171">
        <ele>1420</ele>
        <time>2023-04-21T13:43:42.000Z</time>
      </trkpt>
      <trkpt lat="44.51668" lon="6.21175">
        <ele>1420</ele>
        <time>2023-04-21T13:43:43.000Z</time>
      </trkpt>
      <trkpt lat="44.51666" lon="6.21179">
        <ele>1420</ele>
        <time>2023-04-21T13:43:44.000Z</time>
      </trkpt>
      <trkpt lat="44.51665" lon="6.21183">
        <ele>1421</ele>
        <time>2023-04-21T13:43:45.000Z</time>
      </trkpt>
      <trkpt lat="44.51664" lon="6.21187">
        <ele>1422</ele>
        <time>2023-04-21T13:43:46.000Z</time>
      </trkpt>
      <trkpt lat="44.51663" lon="6.21193">
        <ele>1422</ele>
        <time>2023-04-21T13:43:47.000Z</time>
      </trkpt>
      <trkpt lat="44.51662" lon="6.21197">
        <ele>1421</ele>
        <time>2023-04-21T13:43:48.000Z</time>
      </trkpt>
      <trkpt lat="44.5166" lon="6.21202">
        <ele>1421</ele>
        <time>2023-04-21T13:43:49.000Z</time>
      </trkpt>
      <trkpt lat="44.51658" lon="6.21206">
        <ele>1421</ele>
        <time>2023-04-21T13:43:50.000Z</time>
      </trkpt>
      <trkpt lat="44.51657" lon="6.21211">
        <ele>1420</ele>
        <time>2023-04-21T13:43:51.000Z</time>
      </trkpt>
      <trkpt lat="44.51655" lon="6.21215">
        <ele>1421</ele>
        <time>2023-04-21T13:43:52.000Z</time>
      </trkpt>
      <trkpt lat="44.51653" lon="6.21219">
        <ele>1420</ele>
        <time>2023-04-21T13:43:53.000Z</time>
      </trkpt>
      <trkpt lat="44.5165" lon="6.21223">
        <ele>1419</ele>
        <time>2023-04-21T13:43:54.000Z</time>
      </trkpt>
      <trkpt lat="44.51649" lon="6.21228">
        <ele>1420</ele>
        <time>2023-04-21T13:43:55.000Z</time>
      </trkpt>
      <trkpt lat="44.51647" lon="6.21232">
        <ele>1420</ele>
        <time>2023-04-21T13:43:56.000Z</time>
      </trkpt>
      <trkpt lat="44.51645" lon="6.21236">
        <ele>1420</ele>
        <time>2023-04-21T13:43:57.000Z</time>
      </trkpt>
      <trkpt lat="44.51644" lon="6.2124">
        <ele>1420</ele>
        <time>2023-04-21T13:43:58.000Z</time>
      </trkpt>
      <trkpt lat="44.51643" lon="6.21244">
        <ele>1420</ele>
        <time>2023-04-21T13:43:59.000Z</time>
      </trkpt>
      <trkpt lat="44.51642" lon="6.21247">
        <ele>1420</ele>
        <time>2023-04-21T13:44:00.000Z</time>
      </trkpt>
      <trkpt lat="44.51639" lon="6.21251">
        <ele>1420</ele>
        <time>2023-04-21T13:44:01.000Z</time>
      </trkpt>
      <trkpt lat="44.51638" lon="6.21255">
        <ele>1420</ele>
        <time>2023-04-21T13:44:02.000Z</time>
      </trkpt>
      <trkpt lat="44.51637" lon="6.2126">
        <ele>1421</ele>
        <time>2023-04-21T13:44:03.000Z</time>
      </trkpt>
      <trkpt lat="44.51636" lon="6.21263">
        <ele>1421</ele>
        <time>2023-04-21T13:44:04.000Z</time>
      </trkpt>
      <trkpt lat="44.51635" lon="6.21268">
        <ele>1420</ele>
        <time>2023-04-21T13:44:05.000Z</time>
      </trkpt>
      <trkpt lat="44.51632" lon="6.21271">
        <ele>1419</ele>
        <time>2023-04-21T13:44:06.000Z</time>
      </trkpt>
      <trkpt lat="44.51631" lon="6.21275">
        <ele>1419</ele>
        <time>2023-04-21T13:44:07.000Z</time>
      </trkpt>
      <trkpt lat="44.5163" lon="6.21279">
        <ele>1419</ele>
        <time>2023-04-21T13:44:08.000Z</time>
      </trkpt>
      <trkpt lat="44.5163" lon="6.21282">
        <ele>1419</ele>
        <time>2023-04-21T13:44:09.000Z</time>
      </trkpt>
      <trkpt lat="44.51629" lon="6.21287">
        <ele>1419</ele>
        <time>2023-04-21T13:44:10.000Z</time>
      </trkpt>
      <trkpt lat="44.51629" lon="6.21292">
        <ele>1420</ele>
        <time>2023-04-21T13:44:11.000Z</time>
      </trkpt>
      <trkpt lat="44.51628" lon="6.21298">
        <ele>1421</ele>
        <time>2023-04-21T13:44:12.000Z</time>
      </trkpt>
      <trkpt lat="44.51627" lon="6.21302">
        <ele>1422</ele>
        <time>2023-04-21T13:44:13.000Z</time>
      </trkpt>
      <trkpt lat="44.51626" lon="6.21306">
        <ele>1422</ele>
        <time>2023-04-21T13:44:14.000Z</time>
      </trkpt>
      <trkpt lat="44.51625" lon="6.2131">
        <ele>1422</ele>
        <time>2023-04-21T13:44:15.000Z</time>
      </trkpt>
      <trkpt lat="44.51623" lon="6.21315">
        <ele>1422</ele>
        <time>2023-04-21T13:44:16.000Z</time>
      </trkpt>
      <trkpt lat="44.51622" lon="6.21319">
        <ele>1422</ele>
        <time>2023-04-21T13:44:17.000Z</time>
      </trkpt>
      <trkpt lat="44.51622" lon="6.21324">
        <ele>1422</ele>
        <time>2023-04-21T13:44:18.000Z</time>
      </trkpt>
      <trkpt lat="44.5162" lon="6.21328">
        <ele>1422</ele>
        <time>2023-04-21T13:44:19.000Z</time>
      </trkpt>
      <trkpt lat="44.51618" lon="6.21332">
        <ele>1421</ele>
        <time>2023-04-21T13:44:20.000Z</time>
      </trkpt>
      <trkpt lat="44.51617" lon="6.21336">
        <ele>1421</ele>
        <time>2023-04-21T13:44:21.000Z</time>
      </trkpt>
      <trkpt lat="44.51616" lon="6.21341">
        <ele>1420</ele>
        <time>2023-04-21T13:44:22.000Z</time>
      </trkpt>
      <trkpt lat="44.51614" lon="6.21346">
        <ele>1419</ele>
        <time>2023-04-21T13:44:23.000Z</time>
      </trkpt>
      <trkpt lat="44.51613" lon="6.2135">
        <ele>1419</ele>
        <time>2023-04-21T13:44:24.000Z</time>
      </trkpt>
      <trkpt lat="44.51612" lon="6.21355">
        <ele>1419</ele>
        <time>2023-04-21T13:44:25.000Z</time>
      </trkpt>
      <trkpt lat="44.51611" lon="6.21359">
        <ele>1420</ele>
        <time>2023-04-21T13:44:26.000Z</time>
      </trkpt>
      <trkpt lat="44.5161" lon="6.21363">
        <ele>1419</ele>
        <time>2023-04-21T13:44:27.000Z</time>
      </trkpt>
      <trkpt lat="44.51609" lon="6.21367">
        <ele>1420</ele>
        <time>2023-04-21T13:44:28.000Z</time>
      </trkpt>
      <trkpt lat="44.51607" lon="6.2137">
        <ele>1420</ele>
        <time>2023-04-21T13:44:29.000Z</time>
      </trkpt>
      <trkpt lat="44.51604" lon="6.21374">
        <ele>1420</ele>
        <time>2023-04-21T13:44:30.000Z</time>
      </trkpt>
      <trkpt lat="44.51601" lon="6.21378">
        <ele>1418</ele>
        <time>2023-04-21T13:44:31.000Z</time>
      </trkpt>
      <trkpt lat="44.51598" lon="6.21381">
        <ele>1418</ele>
        <time>2023-04-21T13:44:32.000Z</time>
      </trkpt>
      <trkpt lat="44.51595" lon="6.21384">
        <ele>1417</ele>
        <time>2023-04-21T13:44:33.000Z</time>
      </trkpt>
      <trkpt lat="44.51593" lon="6.21387">
        <ele>1416</ele>
        <time>2023-04-21T13:44:34.000Z</time>
      </trkpt>
      <trkpt lat="44.51589" lon="6.21389">
        <ele>1415</ele>
        <time>2023-04-21T13:44:35.000Z</time>
      </trkpt>
      <trkpt lat="44.51585" lon="6.21392">
        <ele>1414</ele>
        <time>2023-04-21T13:44:36.000Z</time>
      </trkpt>
      <trkpt lat="44.51582" lon="6.21395">
        <ele>1413</ele>
        <time>2023-04-21T13:44:37.000Z</time>
      </trkpt>
      <trkpt lat="44.51578" lon="6.21397">
        <ele>1411</ele>
        <time>2023-04-21T13:44:38.000Z</time>
      </trkpt>
      <trkpt lat="44.51574" lon="6.21399">
        <ele>1410</ele>
        <time>2023-04-21T13:44:39.000Z</time>
      </trkpt>
      <trkpt lat="44.51571" lon="6.21401">
        <ele>1408</ele>
        <time>2023-04-21T13:44:40.000Z</time>
      </trkpt>
      <trkpt lat="44.51568" lon="6.21404">
        <ele>1407</ele>
        <time>2023-04-21T13:44:41.000Z</time>
      </trkpt>
      <trkpt lat="44.51564" lon="6.21407">
        <ele>1405</ele>
        <time>2023-04-21T13:44:42.000Z</time>
      </trkpt>
      <trkpt lat="44.51561" lon="6.21409">
        <ele>1405</ele>
        <time>2023-04-21T13:44:43.000Z</time>
      </trkpt>
      <trkpt lat="44.51559" lon="6.21412">
        <ele>1404</ele>
        <time>2023-04-21T13:44:44.000Z</time>
      </trkpt>
      <trkpt lat="44.51557" lon="6.21414">
        <ele>1405</ele>
        <time>2023-04-21T13:44:45.000Z</time>
      </trkpt>
      <trkpt lat="44.51554" lon="6.21418">
        <ele>1405</ele>
        <time>2023-04-21T13:44:46.000Z</time>
      </trkpt>
      <trkpt lat="44.51551" lon="6.21422">
        <ele>1405</ele>
        <time>2023-04-21T13:44:47.000Z</time>
      </trkpt>
      <trkpt lat="44.51549" lon="6.21426">
        <ele>1406</ele>
        <time>2023-04-21T13:44:48.000Z</time>
      </trkpt>
      <trkpt lat="44.51546" lon="6.2143">
        <ele>1405</ele>
        <time>2023-04-21T13:44:49.000Z</time>
      </trkpt>
      <trkpt lat="44.51545" lon="6.21434">
        <ele>1405</ele>
        <time>2023-04-21T13:44:50.000Z</time>
      </trkpt>
      <trkpt lat="44.51545" lon="6.21438">
        <ele>1406</ele>
        <time>2023-04-21T13:44:51.000Z</time>
      </trkpt>
      <trkpt lat="44.51545" lon="6.21444">
        <ele>1407</ele>
        <time>2023-04-21T13:44:52.000Z</time>
      </trkpt>
      <trkpt lat="44.51545" lon="6.2145">
        <ele>1407</ele>
        <time>2023-04-21T13:44:53.000Z</time>
      </trkpt>
      <trkpt lat="44.51545" lon="6.21455">
        <ele>1407</ele>
        <time>2023-04-21T13:44:54.000Z</time>
      </trkpt>
      <trkpt lat="44.51547" lon="6.2146">
        <ele>1408</ele>
        <time>2023-04-21T13:44:55.000Z</time>
      </trkpt>
      <trkpt lat="44.51549" lon="6.21465">
        <ele>1408</ele>
        <time>2023-04-21T13:44:56.000Z</time>
      </trkpt>
      <trkpt lat="44.5155" lon="6.21469">
        <ele>1409</ele>
        <time>2023-04-21T13:44:57.000Z</time>
      </trkpt>
      <trkpt lat="44.51551" lon="6.21472">
        <ele>1409</ele>
        <time>2023-04-21T13:44:58.000Z</time>
      </trkpt>
      <trkpt lat="44.51553" lon="6.21475">
        <ele>1408</ele>
        <time>2023-04-21T13:44:59.000Z</time>
      </trkpt>
      <trkpt lat="44.51554" lon="6.21478">
        <ele>1407</ele>
        <time>2023-04-21T13:45:00.000Z</time>
      </trkpt>
      <trkpt lat="44.51556" lon="6.21481">
        <ele>1407</ele>
        <time>2023-04-21T13:45:01.000Z</time>
      </trkpt>
      <trkpt lat="44.51558" lon="6.21482">
        <ele>1408</ele>
        <time>2023-04-21T13:45:02.000Z</time>
      </trkpt>
      <trkpt lat="44.5156" lon="6.21483">
        <ele>1408</ele>
        <time>2023-04-21T13:45:03.000Z</time>
      </trkpt>
      <trkpt lat="44.51563" lon="6.21483">
        <ele>1409</ele>
        <time>2023-04-21T13:45:04.000Z</time>
      </trkpt>
      <trkpt lat="44.51565" lon="6.21484">
        <ele>1409</ele>
        <time>2023-04-21T13:45:05.000Z</time>
      </trkpt>
      <trkpt lat="44.51568" lon="6.21484">
        <ele>1409</ele>
        <time>2023-04-21T13:45:06.000Z</time>
      </trkpt>
      <trkpt lat="44.5157" lon="6.21485">
        <ele>1409</ele>
        <time>2023-04-21T13:45:07.000Z</time>
      </trkpt>
      <trkpt lat="44.51572" lon="6.21484">
        <ele>1409</ele>
        <time>2023-04-21T13:45:08.000Z</time>
      </trkpt>
      <trkpt lat="44.51574" lon="6.21483">
        <ele>1410</ele>
        <time>2023-04-21T13:45:09.000Z</time>
      </trkpt>
      <trkpt lat="44.51577" lon="6.21483">
        <ele>1412</ele>
        <time>2023-04-21T13:45:10.000Z</time>
      </trkpt>
      <trkpt lat="44.51579" lon="6.21482">
        <ele>1414</ele>
        <time>2023-04-21T13:45:11.000Z</time>
      </trkpt>
      <trkpt lat="44.51582" lon="6.21483">
        <ele>1415</ele>
        <time>2023-04-21T13:45:12.000Z</time>
      </trkpt>
      <trkpt lat="44.51585" lon="6.21484">
        <ele>1416</ele>
        <time>2023-04-21T13:45:13.000Z</time>
      </trkpt>
      <trkpt lat="44.51588" lon="6.21484">
        <ele>1417</ele>
        <time>2023-04-21T13:45:14.000Z</time>
      </trkpt>
      <trkpt lat="44.51591" lon="6.21484">
        <ele>1417</ele>
        <time>2023-04-21T13:45:15.000Z</time>
      </trkpt>
      <trkpt lat="44.51594" lon="6.21484">
        <ele>1419</ele>
        <time>2023-04-21T13:45:16.000Z</time>
      </trkpt>
      <trkpt lat="44.51597" lon="6.21484">
        <ele>1420</ele>
        <time>2023-04-21T13:45:17.000Z</time>
      </trkpt>
      <trkpt lat="44.51599" lon="6.21484">
        <ele>1421</ele>
        <time>2023-04-21T13:45:18.000Z</time>
      </trkpt>
      <trkpt lat="44.51602" lon="6.21485">
        <ele>1421</ele>
        <time>2023-04-21T13:45:19.000Z</time>
      </trkpt>
      <trkpt lat="44.51607" lon="6.2149">
        <ele>1421</ele>
        <time>2023-04-21T13:45:20.000Z</time>
      </trkpt>
      <trkpt lat="44.5161" lon="6.21493">
        <ele>1422</ele>
        <time>2023-04-21T13:45:21.000Z</time>
      </trkpt>
      <trkpt lat="44.51613" lon="6.21496">
        <ele>1421</ele>
        <time>2023-04-21T13:45:22.000Z</time>
      </trkpt>
      <trkpt lat="44.51615" lon="6.21498">
        <ele>1421</ele>
        <time>2023-04-21T13:45:23.000Z</time>
      </trkpt>
      <trkpt lat="44.51616" lon="6.215">
        <ele>1420</ele>
        <time>2023-04-21T13:45:24.000Z</time>
      </trkpt>
      <trkpt lat="44.51617" lon="6.21503">
        <ele>1420</ele>
        <time>2023-04-21T13:45:25.000Z</time>
      </trkpt>
      <trkpt lat="44.51618" lon="6.21506">
        <ele>1419</ele>
        <time>2023-04-21T13:45:26.000Z</time>
      </trkpt>
      <trkpt lat="44.5162" lon="6.2151">
        <ele>1420</ele>
        <time>2023-04-21T13:45:27.000Z</time>
      </trkpt>
      <trkpt lat="44.51621" lon="6.21513">
        <ele>1420</ele>
        <time>2023-04-21T13:45:28.000Z</time>
      </trkpt>
      <trkpt lat="44.51623" lon="6.21515">
        <ele>1419</ele>
        <time>2023-04-21T13:45:29.000Z</time>
      </trkpt>
      <trkpt lat="44.51624" lon="6.21519">
        <ele>1419</ele>
        <time>2023-04-21T13:45:30.000Z</time>
      </trkpt>
      <trkpt lat="44.51626" lon="6.21521">
        <ele>1420</ele>
        <time>2023-04-21T13:45:31.000Z</time>
      </trkpt>
      <trkpt lat="44.51627" lon="6.21524">
        <ele>1420</ele>
        <time>2023-04-21T13:45:32.000Z</time>
      </trkpt>
      <trkpt lat="44.51629" lon="6.21527">
        <ele>1420</ele>
        <time>2023-04-21T13:45:33.000Z</time>
      </trkpt>
      <trkpt lat="44.51631" lon="6.21532">
        <ele>1419</ele>
        <time>2023-04-21T13:45:34.000Z</time>
      </trkpt>
      <trkpt lat="44.51633" lon="6.21535">
        <ele>1420</ele>
        <time>2023-04-21T13:45:35.000Z</time>
      </trkpt>
      <trkpt lat="44.51635" lon="6.21538">
        <ele>1420</ele>
        <time>2023-04-21T13:45:36.000Z</time>
      </trkpt>
      <trkpt lat="44.51637" lon="6.21543">
        <ele>1420</ele>
        <time>2023-04-21T13:45:37.000Z</time>
      </trkpt>
      <trkpt lat="44.5164" lon="6.21549">
        <ele>1420</ele>
        <time>2023-04-21T13:45:38.000Z</time>
      </trkpt>
      <trkpt lat="44.51642" lon="6.21552">
        <ele>1419</ele>
        <time>2023-04-21T13:45:39.000Z</time>
      </trkpt>
      <trkpt lat="44.51645" lon="6.21556">
        <ele>1419</ele>
        <time>2023-04-21T13:45:40.000Z</time>
      </trkpt>
      <trkpt lat="44.51647" lon="6.2156">
        <ele>1419</ele>
        <time>2023-04-21T13:45:41.000Z</time>
      </trkpt>
      <trkpt lat="44.51649" lon="6.21564">
        <ele>1419</ele>
        <time>2023-04-21T13:45:42.000Z</time>
      </trkpt>
      <trkpt lat="44.51651" lon="6.21567">
        <ele>1419</ele>
        <time>2023-04-21T13:45:43.000Z</time>
      </trkpt>
      <trkpt lat="44.51653" lon="6.21571">
        <ele>1420</ele>
        <time>2023-04-21T13:45:44.000Z</time>
      </trkpt>
      <trkpt lat="44.51655" lon="6.21573">
        <ele>1419</ele>
        <time>2023-04-21T13:45:45.000Z</time>
      </trkpt>
      <trkpt lat="44.51658" lon="6.21578">
        <ele>1419</ele>
        <time>2023-04-21T13:45:46.000Z</time>
      </trkpt>
      <trkpt lat="44.5166" lon="6.21581">
        <ele>1420</ele>
        <time>2023-04-21T13:45:47.000Z</time>
      </trkpt>
      <trkpt lat="44.51663" lon="6.21585">
        <ele>1420</ele>
        <time>2023-04-21T13:45:48.000Z</time>
      </trkpt>
      <trkpt lat="44.51665" lon="6.21588">
        <ele>1420</ele>
        <time>2023-04-21T13:45:49.000Z</time>
      </trkpt>
      <trkpt lat="44.51667" lon="6.21591">
        <ele>1421</ele>
        <time>2023-04-21T13:45:50.000Z</time>
      </trkpt>
      <trkpt lat="44.51669" lon="6.21593">
        <ele>1422</ele>
        <time>2023-04-21T13:45:51.000Z</time>
      </trkpt>
      <trkpt lat="44.51673" lon="6.21596">
        <ele>1422</ele>
        <time>2023-04-21T13:45:52.000Z</time>
      </trkpt>
      <trkpt lat="44.51676" lon="6.216">
        <ele>1423</ele>
        <time>2023-04-21T13:45:53.000Z</time>
      </trkpt>
      <trkpt lat="44.51679" lon="6.21604">
        <ele>1423</ele>
        <time>2023-04-21T13:45:54.000Z</time>
      </trkpt>
      <trkpt lat="44.51683" lon="6.21608">
        <ele>1422</ele>
        <time>2023-04-21T13:45:55.000Z</time>
      </trkpt>
      <trkpt lat="44.51686" lon="6.21612">
        <ele>1422</ele>
        <time>2023-04-21T13:45:56.000Z</time>
      </trkpt>
      <trkpt lat="44.51691" lon="6.21618">
        <ele>1422</ele>
        <time>2023-04-21T13:45:57.000Z</time>
      </trkpt>
      <trkpt lat="44.51697" lon="6.21625">
        <ele>1422</ele>
        <time>2023-04-21T13:45:58.000Z</time>
      </trkpt>
      <trkpt lat="44.51701" lon="6.2163">
        <ele>1421</ele>
        <time>2023-04-21T13:45:59.000Z</time>
      </trkpt>
      <trkpt lat="44.51705" lon="6.21634">
        <ele>1421</ele>
        <time>2023-04-21T13:46:00.000Z</time>
      </trkpt>
      <trkpt lat="44.51708" lon="6.21638">
        <ele>1421</ele>
        <time>2023-04-21T13:46:01.000Z</time>
      </trkpt>
      <trkpt lat="44.51711" lon="6.21642">
        <ele>1420</ele>
        <time>2023-04-21T13:46:02.000Z</time>
      </trkpt>
      <trkpt lat="44.51713" lon="6.21644">
        <ele>1418</ele>
        <time>2023-04-21T13:46:03.000Z</time>
      </trkpt>
      <trkpt lat="44.51715" lon="6.21648">
        <ele>1418</ele>
        <time>2023-04-21T13:46:04.000Z</time>
      </trkpt>
      <trkpt lat="44.51717" lon="6.21652">
        <ele>1418</ele>
        <time>2023-04-21T13:46:05.000Z</time>
      </trkpt>
      <trkpt lat="44.51718" lon="6.21656">
        <ele>1418</ele>
        <time>2023-04-21T13:46:06.000Z</time>
      </trkpt>
      <trkpt lat="44.51718" lon="6.2166">
        <ele>1417</ele>
        <time>2023-04-21T13:46:07.000Z</time>
      </trkpt>
      <trkpt lat="44.51719" lon="6.21664">
        <ele>1417</ele>
        <time>2023-04-21T13:46:08.000Z</time>
      </trkpt>
      <trkpt lat="44.51719" lon="6.21668">
        <ele>1416</ele>
        <time>2023-04-21T13:46:09.000Z</time>
      </trkpt>
      <trkpt lat="44.5172" lon="6.21671">
        <ele>1415</ele>
        <time>2023-04-21T13:46:10.000Z</time>
      </trkpt>
      <trkpt lat="44.5172" lon="6.21675">
        <ele>1414</ele>
        <time>2023-04-21T13:46:11.000Z</time>
      </trkpt>
      <trkpt lat="44.51719" lon="6.21678">
        <ele>1414</ele>
        <time>2023-04-21T13:46:12.000Z</time>
      </trkpt>
      <trkpt lat="44.51719" lon="6.21682">
        <ele>1414</ele>
        <time>2023-04-21T13:46:13.000Z</time>
      </trkpt>
      <trkpt lat="44.51718" lon="6.21685">
        <ele>1413</ele>
        <time>2023-04-21T13:46:14.000Z</time>
      </trkpt>
      <trkpt lat="44.51718" lon="6.21689">
        <ele>1413</ele>
        <time>2023-04-21T13:46:15.000Z</time>
      </trkpt>
      <trkpt lat="44.51717" lon="6.21693">
        <ele>1412</ele>
        <time>2023-04-21T13:46:16.000Z</time>
      </trkpt>
      <trkpt lat="44.51717" lon="6.21696">
        <ele>1412</ele>
        <time>2023-04-21T13:46:17.000Z</time>
      </trkpt>
      <trkpt lat="44.51716" lon="6.21701">
        <ele>1412</ele>
        <time>2023-04-21T13:46:18.000Z</time>
      </trkpt>
      <trkpt lat="44.51715" lon="6.21705">
        <ele>1412</ele>
        <time>2023-04-21T13:46:19.000Z</time>
      </trkpt>
      <trkpt lat="44.51715" lon="6.2171">
        <ele>1412</ele>
        <time>2023-04-21T13:46:20.000Z</time>
      </trkpt>
      <trkpt lat="44.51714" lon="6.21713">
        <ele>1412</ele>
        <time>2023-04-21T13:46:21.000Z</time>
      </trkpt>
      <trkpt lat="44.51714" lon="6.21717">
        <ele>1412</ele>
        <time>2023-04-21T13:46:22.000Z</time>
      </trkpt>
      <trkpt lat="44.51714" lon="6.21721">
        <ele>1412</ele>
        <time>2023-04-21T13:46:23.000Z</time>
      </trkpt>
      <trkpt lat="44.51712" lon="6.21725">
        <ele>1412</ele>
        <time>2023-04-21T13:46:24.000Z</time>
      </trkpt>
      <trkpt lat="44.51712" lon="6.21728">
        <ele>1412</ele>
        <time>2023-04-21T13:46:25.000Z</time>
      </trkpt>
      <trkpt lat="44.51711" lon="6.21732">
        <ele>1412</ele>
        <time>2023-04-21T13:46:26.000Z</time>
      </trkpt>
      <trkpt lat="44.51711" lon="6.21737">
        <ele>1412</ele>
        <time>2023-04-21T13:46:27.000Z</time>
      </trkpt>
      <trkpt lat="44.5171" lon="6.21741">
        <ele>1411</ele>
        <time>2023-04-21T13:46:28.000Z</time>
      </trkpt>
      <trkpt lat="44.51709" lon="6.21744">
        <ele>1411</ele>
        <time>2023-04-21T13:46:29.000Z</time>
      </trkpt>
      <trkpt lat="44.51708" lon="6.21748">
        <ele>1411</ele>
        <time>2023-04-21T13:46:30.000Z</time>
      </trkpt>
      <trkpt lat="44.51707" lon="6.21751">
        <ele>1412</ele>
        <time>2023-04-21T13:46:31.000Z</time>
      </trkpt>
      <trkpt lat="44.51707" lon="6.21756">
        <ele>1412</ele>
        <time>2023-04-21T13:46:32.000Z</time>
      </trkpt>
      <trkpt lat="44.51706" lon="6.21759">
        <ele>1412</ele>
        <time>2023-04-21T13:46:33.000Z</time>
      </trkpt>
      <trkpt lat="44.51705" lon="6.21763">
        <ele>1412</ele>
        <time>2023-04-21T13:46:34.000Z</time>
      </trkpt>
      <trkpt lat="44.51705" lon="6.21767">
        <ele>1412</ele>
        <time>2023-04-21T13:46:35.000Z</time>
      </trkpt>
      <trkpt lat="44.51704" lon="6.21771">
        <ele>1412</ele>
        <time>2023-04-21T13:46:36.000Z</time>
      </trkpt>
      <trkpt lat="44.51704" lon="6.21775">
        <ele>1411</ele>
        <time>2023-04-21T13:46:37.000Z</time>
      </trkpt>
      <trkpt lat="44.51703" lon="6.21778">
        <ele>1411</ele>
        <time>2023-04-21T13:46:38.000Z</time>
      </trkpt>
      <trkpt lat="44.51702" lon="6.21781">
        <ele>1411</ele>
        <time>2023-04-21T13:46:39.000Z</time>
      </trkpt>
      <trkpt lat="44.51701" lon="6.21784">
        <ele>1411</ele>
        <time>2023-04-21T13:46:40.000Z</time>
      </trkpt>
      <trkpt lat="44.517" lon="6.21787">
        <ele>1410</ele>
        <time>2023-04-21T13:46:41.000Z</time>
      </trkpt>
      <trkpt lat="44.51699" lon="6.21789">
        <ele>1410</ele>
        <time>2023-04-21T13:46:42.000Z</time>
      </trkpt>
      <trkpt lat="44.51698" lon="6.21793">
        <ele>1411</ele>
        <time>2023-04-21T13:46:43.000Z</time>
      </trkpt>
      <trkpt lat="44.51697" lon="6.21797">
        <ele>1410</ele>
        <time>2023-04-21T13:46:44.000Z</time>
      </trkpt>
      <trkpt lat="44.51696" lon="6.21801">
        <ele>1409</ele>
        <time>2023-04-21T13:46:45.000Z</time>
      </trkpt>
      <trkpt lat="44.51695" lon="6.21804">
        <ele>1410</ele>
        <time>2023-04-21T13:46:46.000Z</time>
      </trkpt>
      <trkpt lat="44.51693" lon="6.21807">
        <ele>1409</ele>
        <time>2023-04-21T13:46:47.000Z</time>
      </trkpt>
      <trkpt lat="44.5169" lon="6.21811">
        <ele>1408</ele>
        <time>2023-04-21T13:46:48.000Z</time>
      </trkpt>
      <trkpt lat="44.51689" lon="6.21816">
        <ele>1407</ele>
        <time>2023-04-21T13:46:49.000Z</time>
      </trkpt>
      <trkpt lat="44.51687" lon="6.21819">
        <ele>1407</ele>
        <time>2023-04-21T13:46:50.000Z</time>
      </trkpt>
      <trkpt lat="44.51685" lon="6.21823">
        <ele>1404</ele>
        <time>2023-04-21T13:46:51.000Z</time>
      </trkpt>
      <trkpt lat="44.51684" lon="6.21827">
        <ele>1403</ele>
        <time>2023-04-21T13:46:52.000Z</time>
      </trkpt>
      <trkpt lat="44.51682" lon="6.2183">
        <ele>1401</ele>
        <time>2023-04-21T13:46:53.000Z</time>
      </trkpt>
      <trkpt lat="44.5168" lon="6.21835">
        <ele>1402</ele>
        <time>2023-04-21T13:46:54.000Z</time>
      </trkpt>
      <trkpt lat="44.51677" lon="6.21838">
        <ele>1400</ele>
        <time>2023-04-21T13:46:55.000Z</time>
      </trkpt>
      <trkpt lat="44.51675" lon="6.21843">
        <ele>1399</ele>
        <time>2023-04-21T13:46:56.000Z</time>
      </trkpt>
      <trkpt lat="44.51672" lon="6.21847">
        <ele>1399</ele>
        <time>2023-04-21T13:46:57.000Z</time>
      </trkpt>
      <trkpt lat="44.5167" lon="6.2185">
        <ele>1397</ele>
        <time>2023-04-21T13:46:58.000Z</time>
      </trkpt>
      <trkpt lat="44.51669" lon="6.21855">
        <ele>1395</ele>
        <time>2023-04-21T13:46:59.000Z</time>
      </trkpt>
      <trkpt lat="44.51667" lon="6.21858">
        <ele>1394</ele>
        <time>2023-04-21T13:47:00.000Z</time>
      </trkpt>
      <trkpt lat="44.51666" lon="6.21862">
        <ele>1394</ele>
        <time>2023-04-21T13:47:01.000Z</time>
      </trkpt>
      <trkpt lat="44.51665" lon="6.21865">
        <ele>1394</ele>
        <time>2023-04-21T13:47:02.000Z</time>
      </trkpt>
      <trkpt lat="44.51663" lon="6.21869">
        <ele>1394</ele>
        <time>2023-04-21T13:47:03.000Z</time>
      </trkpt>
      <trkpt lat="44.51661" lon="6.21872">
        <ele>1393</ele>
        <time>2023-04-21T13:47:04.000Z</time>
      </trkpt>
      <trkpt lat="44.51659" lon="6.21876">
        <ele>1393</ele>
        <time>2023-04-21T13:47:05.000Z</time>
      </trkpt>
      <trkpt lat="44.51657" lon="6.2188">
        <ele>1393</ele>
        <time>2023-04-21T13:47:06.000Z</time>
      </trkpt>
      <trkpt lat="44.51655" lon="6.21883">
        <ele>1391</ele>
        <time>2023-04-21T13:47:07.000Z</time>
      </trkpt>
      <trkpt lat="44.51653" lon="6.21886">
        <ele>1390</ele>
        <time>2023-04-21T13:47:08.000Z</time>
      </trkpt>
      <trkpt lat="44.5165" lon="6.2189">
        <ele>1389</ele>
        <time>2023-04-21T13:47:09.000Z</time>
      </trkpt>
      <trkpt lat="44.51648" lon="6.21892">
        <ele>1388</ele>
        <time>2023-04-21T13:47:10.000Z</time>
      </trkpt>
      <trkpt lat="44.51646" lon="6.21895">
        <ele>1388</ele>
        <time>2023-04-21T13:47:11.000Z</time>
      </trkpt>
      <trkpt lat="44.51644" lon="6.21899">
        <ele>1388</ele>
        <time>2023-04-21T13:47:12.000Z</time>
      </trkpt>
      <trkpt lat="44.51642" lon="6.21902">
        <ele>1387</ele>
        <time>2023-04-21T13:47:13.000Z</time>
      </trkpt>
      <trkpt lat="44.5164" lon="6.21906">
        <ele>1387</ele>
        <time>2023-04-21T13:47:14.000Z</time>
      </trkpt>
      <trkpt lat="44.51638" lon="6.2191">
        <ele>1388</ele>
        <time>2023-04-21T13:47:15.000Z</time>
      </trkpt>
      <trkpt lat="44.51636" lon="6.21914">
        <ele>1387</ele>
        <time>2023-04-21T13:47:16.000Z</time>
      </trkpt>
      <trkpt lat="44.51633" lon="6.21917">
        <ele>1386</ele>
        <time>2023-04-21T13:47:17.000Z</time>
      </trkpt>
      <trkpt lat="44.51629" lon="6.2192">
        <ele>1385</ele>
        <time>2023-04-21T13:47:18.000Z</time>
      </trkpt>
      <trkpt lat="44.51627" lon="6.21924">
        <ele>1385</ele>
        <time>2023-04-21T13:47:19.000Z</time>
      </trkpt>
      <trkpt lat="44.51625" lon="6.21927">
        <ele>1385</ele>
        <time>2023-04-21T13:47:20.000Z</time>
      </trkpt>
      <trkpt lat="44.51622" lon="6.21929">
        <ele>1386</ele>
        <time>2023-04-21T13:47:21.000Z</time>
      </trkpt>
      <trkpt lat="44.5162" lon="6.21932">
        <ele>1386</ele>
        <time>2023-04-21T13:47:22.000Z</time>
      </trkpt>
      <trkpt lat="44.51617" lon="6.21934">
        <ele>1388</ele>
        <time>2023-04-21T13:47:23.000Z</time>
      </trkpt>
      <trkpt lat="44.51615" lon="6.21937">
        <ele>1388</ele>
        <time>2023-04-21T13:47:24.000Z</time>
      </trkpt>
      <trkpt lat="44.51613" lon="6.21939">
        <ele>1389</ele>
        <time>2023-04-21T13:47:25.000Z</time>
      </trkpt>
      <trkpt lat="44.5161" lon="6.21942">
        <ele>1388</ele>
        <time>2023-04-21T13:47:26.000Z</time>
      </trkpt>
      <trkpt lat="44.51608" lon="6.21944">
        <ele>1388</ele>
        <time>2023-04-21T13:47:27.000Z</time>
      </trkpt>
      <trkpt lat="44.51605" lon="6.21948">
        <ele>1388</ele>
        <time>2023-04-21T13:47:28.000Z</time>
      </trkpt>
      <trkpt lat="44.51602" lon="6.21951">
        <ele>1388</ele>
        <time>2023-04-21T13:47:29.000Z</time>
      </trkpt>
      <trkpt lat="44.516" lon="6.21954">
        <ele>1388</ele>
        <time>2023-04-21T13:47:30.000Z</time>
      </trkpt>
      <trkpt lat="44.51597" lon="6.21956">
        <ele>1387</ele>
        <time>2023-04-21T13:47:31.000Z</time>
      </trkpt>
      <trkpt lat="44.51594" lon="6.21959">
        <ele>1387</ele>
        <time>2023-04-21T13:47:32.000Z</time>
      </trkpt>
      <trkpt lat="44.51591" lon="6.21961">
        <ele>1386</ele>
        <time>2023-04-21T13:47:33.000Z</time>
      </trkpt>
      <trkpt lat="44.51587" lon="6.21964">
        <ele>1386</ele>
        <time>2023-04-21T13:47:34.000Z</time>
      </trkpt>
      <trkpt lat="44.51583" lon="6.21967">
        <ele>1385</ele>
        <time>2023-04-21T13:47:35.000Z</time>
      </trkpt>
      <trkpt lat="44.5158" lon="6.2197">
        <ele>1384</ele>
        <time>2023-04-21T13:47:36.000Z</time>
      </trkpt>
      <trkpt lat="44.51576" lon="6.21972">
        <ele>1382</ele>
        <time>2023-04-21T13:47:37.000Z</time>
      </trkpt>
      <trkpt lat="44.51573" lon="6.21974">
        <ele>1382</ele>
        <time>2023-04-21T13:47:38.000Z</time>
      </trkpt>
      <trkpt lat="44.5157" lon="6.21976">
        <ele>1382</ele>
        <time>2023-04-21T13:47:39.000Z</time>
      </trkpt>
      <trkpt lat="44.51566" lon="6.21977">
        <ele>1383</ele>
        <time>2023-04-21T13:47:40.000Z</time>
      </trkpt>
      <trkpt lat="44.51562" lon="6.21979">
        <ele>1381</ele>
        <time>2023-04-21T13:47:41.000Z</time>
      </trkpt>
      <trkpt lat="44.51559" lon="6.21981">
        <ele>1381</ele>
        <time>2023-04-21T13:47:42.000Z</time>
      </trkpt>
      <trkpt lat="44.51555" lon="6.21984">
        <ele>1380</ele>
        <time>2023-04-21T13:47:43.000Z</time>
      </trkpt>
      <trkpt lat="44.51551" lon="6.21987">
        <ele>1379</ele>
        <time>2023-04-21T13:47:44.000Z</time>
      </trkpt>
      <trkpt lat="44.51547" lon="6.21991">
        <ele>1379</ele>
        <time>2023-04-21T13:47:45.000Z</time>
      </trkpt>
      <trkpt lat="44.51543" lon="6.21994">
        <ele>1378</ele>
        <time>2023-04-21T13:47:46.000Z</time>
      </trkpt>
      <trkpt lat="44.51539" lon="6.21997">
        <ele>1379</ele>
        <time>2023-04-21T13:47:47.000Z</time>
      </trkpt>
      <trkpt lat="44.51535" lon="6.22">
        <ele>1378</ele>
        <time>2023-04-21T13:47:48.000Z</time>
      </trkpt>
      <trkpt lat="44.51532" lon="6.22002">
        <ele>1377</ele>
        <time>2023-04-21T13:47:49.000Z</time>
      </trkpt>
      <trkpt lat="44.51529" lon="6.22005">
        <ele>1376</ele>
        <time>2023-04-21T13:47:50.000Z</time>
      </trkpt>
      <trkpt lat="44.51526" lon="6.22007">
        <ele>1375</ele>
        <time>2023-04-21T13:47:51.000Z</time>
      </trkpt>
      <trkpt lat="44.51523" lon="6.22009">
        <ele>1374</ele>
        <time>2023-04-21T13:47:52.000Z</time>
      </trkpt>
      <trkpt lat="44.51521" lon="6.2201">
        <ele>1372</ele>
        <time>2023-04-21T13:47:53.000Z</time>
      </trkpt>
      <trkpt lat="44.51518" lon="6.22012">
        <ele>1369</ele>
        <time>2023-04-21T13:47:54.000Z</time>
      </trkpt>
      <trkpt lat="44.51515" lon="6.22014">
        <ele>1367</ele>
        <time>2023-04-21T13:47:55.000Z</time>
      </trkpt>
      <trkpt lat="44.51512" lon="6.22017">
        <ele>1368</ele>
        <time>2023-04-21T13:47:56.000Z</time>
      </trkpt>
      <trkpt lat="44.51507" lon="6.2202">
        <ele>1368</ele>
        <time>2023-04-21T13:47:57.000Z</time>
      </trkpt>
      <trkpt lat="44.51503" lon="6.22023">
        <ele>1368</ele>
        <time>2023-04-21T13:47:58.000Z</time>
      </trkpt>
      <trkpt lat="44.515" lon="6.22026">
        <ele>1369</ele>
        <time>2023-04-21T13:47:59.000Z</time>
      </trkpt>
      <trkpt lat="44.51495" lon="6.22029">
        <ele>1369</ele>
        <time>2023-04-21T13:48:00.000Z</time>
      </trkpt>
      <trkpt lat="44.51491" lon="6.22032">
        <ele>1368</ele>
        <time>2023-04-21T13:48:01.000Z</time>
      </trkpt>
      <trkpt lat="44.51488" lon="6.22034">
        <ele>1367</ele>
        <time>2023-04-21T13:48:02.000Z</time>
      </trkpt>
      <trkpt lat="44.51484" lon="6.22037">
        <ele>1366</ele>
        <time>2023-04-21T13:48:03.000Z</time>
      </trkpt>
      <trkpt lat="44.51481" lon="6.22039">
        <ele>1366</ele>
        <time>2023-04-21T13:48:04.000Z</time>
      </trkpt>
      <trkpt lat="44.51478" lon="6.22042">
        <ele>1367</ele>
        <time>2023-04-21T13:48:05.000Z</time>
      </trkpt>
      <trkpt lat="44.51474" lon="6.22046">
        <ele>1367</ele>
        <time>2023-04-21T13:48:06.000Z</time>
      </trkpt>
      <trkpt lat="44.51471" lon="6.22049">
        <ele>1367</ele>
        <time>2023-04-21T13:48:07.000Z</time>
      </trkpt>
      <trkpt lat="44.51468" lon="6.22053">
        <ele>1367</ele>
        <time>2023-04-21T13:48:08.000Z</time>
      </trkpt>
      <trkpt lat="44.51465" lon="6.22057">
        <ele>1367</ele>
        <time>2023-04-21T13:48:09.000Z</time>
      </trkpt>
      <trkpt lat="44.51464" lon="6.22061">
        <ele>1367</ele>
        <time>2023-04-21T13:48:10.000Z</time>
      </trkpt>
      <trkpt lat="44.51459" lon="6.22064">
        <ele>1367</ele>
        <time>2023-04-21T13:48:11.000Z</time>
      </trkpt>
      <trkpt lat="44.51452" lon="6.22069">
        <ele>1365</ele>
        <time>2023-04-21T13:48:12.000Z</time>
      </trkpt>
      <trkpt lat="44.51446" lon="6.22073">
        <ele>1363</ele>
        <time>2023-04-21T13:48:13.000Z</time>
      </trkpt>
      <trkpt lat="44.51439" lon="6.22076">
        <ele>1362</ele>
        <time>2023-04-21T13:48:14.000Z</time>
      </trkpt>
      <trkpt lat="44.51432" lon="6.22079">
        <ele>1362</ele>
        <time>2023-04-21T13:48:15.000Z</time>
      </trkpt>
      <trkpt lat="44.51425" lon="6.22082">
        <ele>1361</ele>
        <time>2023-04-21T13:48:16.000Z</time>
      </trkpt>
      <trkpt lat="44.51419" lon="6.22086">
        <ele>1360</ele>
        <time>2023-04-21T13:48:17.000Z</time>
      </trkpt>
      <trkpt lat="44.51413" lon="6.22091">
        <ele>1360</ele>
        <time>2023-04-21T13:48:18.000Z</time>
      </trkpt>
      <trkpt lat="44.51407" lon="6.22096">
        <ele>1360</ele>
        <time>2023-04-21T13:48:19.000Z</time>
      </trkpt>
      <trkpt lat="44.514" lon="6.22104">
        <ele>1359</ele>
        <time>2023-04-21T13:48:20.000Z</time>
      </trkpt>
      <trkpt lat="44.51394" lon="6.2211">
        <ele>1359</ele>
        <time>2023-04-21T13:48:21.000Z</time>
      </trkpt>
      <trkpt lat="44.51388" lon="6.22114">
        <ele>1357</ele>
        <time>2023-04-21T13:48:22.000Z</time>
      </trkpt>
      <trkpt lat="44.51381" lon="6.22118">
        <ele>1356</ele>
        <time>2023-04-21T13:48:23.000Z</time>
      </trkpt>
      <trkpt lat="44.51374" lon="6.22122">
        <ele>1354</ele>
        <time>2023-04-21T13:48:24.000Z</time>
      </trkpt>
      <trkpt lat="44.51367" lon="6.22125">
        <ele>1352</ele>
        <time>2023-04-21T13:48:25.000Z</time>
      </trkpt>
      <trkpt lat="44.51361" lon="6.22129">
        <ele>1351</ele>
        <time>2023-04-21T13:48:26.000Z</time>
      </trkpt>
      <trkpt lat="44.51356" lon="6.22135">
        <ele>1349</ele>
        <time>2023-04-21T13:48:27.000Z</time>
      </trkpt>
      <trkpt lat="44.51352" lon="6.2214">
        <ele>1349</ele>
        <time>2023-04-21T13:48:28.000Z</time>
      </trkpt>
      <trkpt lat="44.51352" lon="6.22148">
        <ele>1347</ele>
        <time>2023-04-21T13:48:29.000Z</time>
      </trkpt>
      <trkpt lat="44.51353" lon="6.22154">
        <ele>1349</ele>
        <time>2023-04-21T13:48:30.000Z</time>
      </trkpt>
      <trkpt lat="44.51356" lon="6.22158">
        <ele>1349</ele>
        <time>2023-04-21T13:48:31.000Z</time>
      </trkpt>
      <trkpt lat="44.51358" lon="6.22159">
        <ele>1349</ele>
        <time>2023-04-21T13:48:32.000Z</time>
      </trkpt>
      <trkpt lat="44.5136" lon="6.22161">
        <ele>1351</ele>
        <time>2023-04-21T13:48:33.000Z</time>
      </trkpt>
      <trkpt lat="44.51362" lon="6.22164">
        <ele>1352</ele>
        <time>2023-04-21T13:48:34.000Z</time>
      </trkpt>
      <trkpt lat="44.51363" lon="6.22166">
        <ele>1352</ele>
        <time>2023-04-21T13:48:35.000Z</time>
      </trkpt>
      <trkpt lat="44.51365" lon="6.22169">
        <ele>1353</ele>
        <time>2023-04-21T13:48:36.000Z</time>
      </trkpt>
      <trkpt lat="44.51367" lon="6.22173">
        <ele>1355</ele>
        <time>2023-04-21T13:48:37.000Z</time>
      </trkpt>
      <trkpt lat="44.51369" lon="6.22176">
        <ele>1359</ele>
        <time>2023-04-21T13:48:38.000Z</time>
      </trkpt>
      <trkpt lat="44.51371" lon="6.22179">
        <ele>1362</ele>
        <time>2023-04-21T13:48:39.000Z</time>
      </trkpt>
      <trkpt lat="44.51373" lon="6.22184">
        <ele>1367</ele>
        <time>2023-04-21T13:48:40.000Z</time>
      </trkpt>
      <trkpt lat="44.51376" lon="6.22188">
        <ele>1369</ele>
        <time>2023-04-21T13:48:41.000Z</time>
      </trkpt>
      <trkpt lat="44.51378" lon="6.22194">
        <ele>1374</ele>
        <time>2023-04-21T13:48:42.000Z</time>
      </trkpt>
      <trkpt lat="44.5138" lon="6.22198">
        <ele>1380</ele>
        <time>2023-04-21T13:48:43.000Z</time>
      </trkpt>
      <trkpt lat="44.51382" lon="6.22202">
        <ele>1383</ele>
        <time>2023-04-21T13:48:44.000Z</time>
      </trkpt>
      <trkpt lat="44.51383" lon="6.22206">
        <ele>1385</ele>
        <time>2023-04-21T13:48:45.000Z</time>
      </trkpt>
      <trkpt lat="44.51385" lon="6.2221">
        <ele>1386</ele>
        <time>2023-04-21T13:48:46.000Z</time>
      </trkpt>
      <trkpt lat="44.51387" lon="6.22215">
        <ele>1388</ele>
        <time>2023-04-21T13:48:47.000Z</time>
      </trkpt>
      <trkpt lat="44.51389" lon="6.22219">
        <ele>1389</ele>
        <time>2023-04-21T13:48:48.000Z</time>
      </trkpt>
      <trkpt lat="44.5139" lon="6.2222">
        <ele>1390</ele>
        <time>2023-04-21T13:48:49.000Z</time>
      </trkpt>
      <trkpt lat="44.51391" lon="6.22225">
        <ele>1390</ele>
        <time>2023-04-21T13:48:50.000Z</time>
      </trkpt>
      <trkpt lat="44.51393" lon="6.22229">
        <ele>1391</ele>
        <time>2023-04-21T13:48:51.000Z</time>
      </trkpt>
      <trkpt lat="44.51394" lon="6.22234">
        <ele>1392</ele>
        <time>2023-04-21T13:48:52.000Z</time>
      </trkpt>
      <trkpt lat="44.51396" lon="6.22238">
        <ele>1393</ele>
        <time>2023-04-21T13:48:53.000Z</time>
      </trkpt>
      <trkpt lat="44.51397" lon="6.22243">
        <ele>1394</ele>
        <time>2023-04-21T13:48:54.000Z</time>
      </trkpt>
      <trkpt lat="44.51399" lon="6.22247">
        <ele>1395</ele>
        <time>2023-04-21T13:48:55.000Z</time>
      </trkpt>
      <trkpt lat="44.514" lon="6.22251">
        <ele>1395</ele>
        <time>2023-04-21T13:48:56.000Z</time>
      </trkpt>
      <trkpt lat="44.51401" lon="6.22254">
        <ele>1396</ele>
        <time>2023-04-21T13:48:57.000Z</time>
      </trkpt>
      <trkpt lat="44.51403" lon="6.22258">
        <ele>1397</ele>
        <time>2023-04-21T13:48:58.000Z</time>
      </trkpt>
      <trkpt lat="44.51405" lon="6.2226">
        <ele>1398</ele>
        <time>2023-04-21T13:48:59.000Z</time>
      </trkpt>
      <trkpt lat="44.51405" lon="6.22262">
        <ele>1399</ele>
        <time>2023-04-21T13:49:00.000Z</time>
      </trkpt>
      <trkpt lat="44.51406" lon="6.22264">
        <ele>1399</ele>
        <time>2023-04-21T13:49:01.000Z</time>
      </trkpt>
      <trkpt lat="44.51406" lon="6.22267">
        <ele>1400</ele>
        <time>2023-04-21T13:49:02.000Z</time>
      </trkpt>
      <trkpt lat="44.51407" lon="6.22269">
        <ele>1400</ele>
        <time>2023-04-21T13:49:03.000Z</time>
      </trkpt>
      <trkpt lat="44.51408" lon="6.2227">
        <ele>1400</ele>
        <time>2023-04-21T13:49:04.000Z</time>
      </trkpt>
      <trkpt lat="44.51408" lon="6.22271">
        <ele>1400</ele>
        <time>2023-04-21T13:49:05.000Z</time>
      </trkpt>
      <trkpt lat="44.51408" lon="6.22272">
        <ele>1401</ele>
        <time>2023-04-21T13:49:06.000Z</time>
      </trkpt>
      <trkpt lat="44.51408" lon="6.22272">
        <ele>1401</ele>
        <time>2023-04-21T13:49:07.000Z</time>
      </trkpt>
      <trkpt lat="44.51409" lon="6.22272">
        <ele>1402</ele>
        <time>2023-04-21T13:49:08.000Z</time>
      </trkpt>
      <trkpt lat="44.51409" lon="6.22272">
        <ele>1402</ele>
        <time>2023-04-21T13:49:09.000Z</time>
      </trkpt>
      <trkpt lat="44.51409" lon="6.22273">
        <ele>1402</ele>
        <time>2023-04-21T13:49:10.000Z</time>
      </trkpt>
      <trkpt lat="44.51409" lon="6.22273">
        <ele>1402</ele>
        <time>2023-04-21T13:49:11.000Z</time>
      </trkpt>
      <trkpt lat="44.51409" lon="6.22273">
        <ele>1402</ele>
        <time>2023-04-21T13:49:12.000Z</time>
      </trkpt>
      <trkpt lat="44.51409" lon="6.22273">
        <ele>1402</ele>
        <time>2023-04-21T13:49:13.000Z</time>
      </trkpt>
      <trkpt lat="44.51409" lon="6.22273">
        <ele>1402</ele>
        <time>2023-04-21T13:49:14.000Z</time>
      </trkpt>
      <trkpt lat="44.51408" lon="6.22273">
        <ele>1402</ele>
        <time>2023-04-21T13:49:15.000Z</time>
      </trkpt>
      <trkpt lat="44.51408" lon="6.22273">
        <ele>1402</ele>
        <time>2023-04-21T13:49:16.000Z</time>
      </trkpt>
      <trkpt lat="44.51408" lon="6.22274">
        <ele>1403</ele>
        <time>2023-04-21T13:49:17.000Z</time>
      </trkpt>
      <trkpt lat="44.51408" lon="6.22274">
        <ele>1403</ele>
        <time>2023-04-21T13:49:18.000Z</time>
      </trkpt>
      <trkpt lat="44.51408" lon="6.22274">
        <ele>1403</ele>
        <time>2023-04-21T13:49:19.000Z</time>
      </trkpt>
      <trkpt lat="44.51408" lon="6.22275">
        <ele>1403</ele>
        <time>2023-04-21T13:49:20.000Z</time>
      </trkpt>
      <trkpt lat="44.51408" lon="6.22275">
        <ele>1403</ele>
        <time>2023-04-21T13:49:21.000Z</time>
      </trkpt>
      <trkpt lat="44.51409" lon="6.22276">
        <ele>1403</ele>
        <time>2023-04-21T13:49:22.000Z</time>
      </trkpt>
      <trkpt lat="44.51409" lon="6.22276">
        <ele>1403</ele>
        <time>2023-04-21T13:49:23.000Z</time>
      </trkpt>
      <trkpt lat="44.51408" lon="6.22276">
        <ele>1403</ele>
        <time>2023-04-21T13:49:24.000Z</time>
      </trkpt>
      <trkpt lat="44.51408" lon="6.22276">
        <ele>1403</ele>
        <time>2023-04-21T13:49:25.000Z</time>
      </trkpt>
      <trkpt lat="44.51408" lon="6.22276">
        <ele>1404</ele>
        <time>2023-04-21T13:49:26.000Z</time>
      </trkpt>
      <trkpt lat="44.51408" lon="6.22277">
        <ele>1404</ele>
        <time>2023-04-21T13:49:27.000Z</time>
      </trkpt>
      <trkpt lat="44.51408" lon="6.22277">
        <ele>1404</ele>
        <time>2023-04-21T13:49:28.000Z</time>
      </trkpt>
      <trkpt lat="44.51408" lon="6.22277">
        <ele>1404</ele>
        <time>2023-04-21T13:49:29.000Z</time>
      </trkpt>
      <trkpt lat="44.51408" lon="6.22277">
        <ele>1404</ele>
        <time>2023-04-21T13:49:30.000Z</time>
      </trkpt>
      <trkpt lat="44.51408" lon="6.22277">
        <ele>1404</ele>
        <time>2023-04-21T13:49:31.000Z</time>
      </trkpt>
      <trkpt lat="44.51408" lon="6.22278">
        <ele>1404</ele>
        <time>2023-04-21T13:49:32.000Z</time>
      </trkpt>
      <trkpt lat="44.51408" lon="6.22278">
        <ele>1404</ele>
        <time>2023-04-21T13:49:33.000Z</time>
      </trkpt>
      <trkpt lat="44.51408" lon="6.22278">
        <ele>1405</ele>
        <time>2023-04-21T13:49:34.000Z</time>
      </trkpt>
      <trkpt lat="44.51408" lon="6.22278">
        <ele>1405</ele>
        <time>2023-04-21T13:49:35.000Z</time>
      </trkpt>
      <trkpt lat="44.51408" lon="6.22278">
        <ele>1405</ele>
        <time>2023-04-21T13:49:36.000Z</time>
      </trkpt>
      <trkpt lat="44.51408" lon="6.22278">
        <ele>1405</ele>
        <time>2023-04-21T13:49:37.000Z</time>
      </trkpt>
      <trkpt lat="44.51408" lon="6.22279">
        <ele>1405</ele>
        <time>2023-04-21T13:49:38.000Z</time>
      </trkpt>
      <trkpt lat="44.51408" lon="6.22279">
        <ele>1405</ele>
        <time>2023-04-21T13:49:39.000Z</time>
      </trkpt>
      <trkpt lat="44.51407" lon="6.2228">
        <ele>1405</ele>
        <time>2023-04-21T13:49:40.000Z</time>
      </trkpt>
      <trkpt lat="44.51407" lon="6.2228">
        <ele>1405</ele>
        <time>2023-04-21T13:49:41.000Z</time>
      </trkpt>
      <trkpt lat="44.51407" lon="6.2228">
        <ele>1405</ele>
        <time>2023-04-21T13:49:42.000Z</time>
      </trkpt>
      <trkpt lat="44.51407" lon="6.22281">
        <ele>1404</ele>
        <time>2023-04-21T13:49:43.000Z</time>
      </trkpt>
      <trkpt lat="44.51407" lon="6.22281">
        <ele>1404</ele>
        <time>2023-04-21T13:49:44.000Z</time>
      </trkpt>
      <trkpt lat="44.51406" lon="6.22281">
        <ele>1405</ele>
        <time>2023-04-21T13:49:45.000Z</time>
      </trkpt>
      <trkpt lat="44.51406" lon="6.22282">
        <ele>1405</ele>
        <time>2023-04-21T13:49:46.000Z</time>
      </trkpt>
      <trkpt lat="44.51406" lon="6.22282">
        <ele>1405</ele>
        <time>2023-04-21T13:49:47.000Z</time>
      </trkpt>
      <trkpt lat="44.51406" lon="6.22282">
        <ele>1405</ele>
        <time>2023-04-21T13:49:48.000Z</time>
      </trkpt>
      <trkpt lat="44.51406" lon="6.22283">
        <ele>1406</ele>
        <time>2023-04-21T13:49:49.000Z</time>
      </trkpt>
      <trkpt lat="44.51406" lon="6.22283">
        <ele>1406</ele>
        <time>2023-04-21T13:49:50.000Z</time>
      </trkpt>
      <trkpt lat="44.51406" lon="6.22284">
        <ele>1406</ele>
        <time>2023-04-21T13:49:51.000Z</time>
      </trkpt>
      <trkpt lat="44.51406" lon="6.22284">
        <ele>1406</ele>
        <time>2023-04-21T13:49:52.000Z</time>
      </trkpt>
      <trkpt lat="44.51406" lon="6.22285">
        <ele>1406</ele>
        <time>2023-04-21T13:49:53.000Z</time>
      </trkpt>
      <trkpt lat="44.51406" lon="6.22285">
        <ele>1406</ele>
        <time>2023-04-21T13:49:54.000Z</time>
      </trkpt>
      <trkpt lat="44.51406" lon="6.22285">
        <ele>1406</ele>
        <time>2023-04-21T13:49:55.000Z</time>
      </trkpt>
      <trkpt lat="44.51406" lon="6.22284">
        <ele>1406</ele>
        <time>2023-04-21T13:49:56.000Z</time>
      </trkpt>
      <trkpt lat="44.51406" lon="6.22283">
        <ele>1406</ele>
        <time>2023-04-21T13:49:57.000Z</time>
      </trkpt>
      <trkpt lat="44.51406" lon="6.22283">
        <ele>1406</ele>
        <time>2023-04-21T13:49:58.000Z</time>
      </trkpt>
      <trkpt lat="44.51406" lon="6.22282">
        <ele>1406</ele>
        <time>2023-04-21T13:49:59.000Z</time>
      </trkpt>
      <trkpt lat="44.51406" lon="6.22282">
        <ele>1406</ele>
        <time>2023-04-21T13:50:00.000Z</time>
      </trkpt>
      <trkpt lat="44.51406" lon="6.22283">
        <ele>1405</ele>
        <time>2023-04-21T13:50:01.000Z</time>
      </trkpt>
      <trkpt lat="44.51406" lon="6.22283">
        <ele>1405</ele>
        <time>2023-04-21T13:50:02.000Z</time>
      </trkpt>
      <trkpt lat="44.51406" lon="6.22283">
        <ele>1405</ele>
        <time>2023-04-21T13:50:03.000Z</time>
      </trkpt>
      <trkpt lat="44.51406" lon="6.22283">
        <ele>1404</ele>
        <time>2023-04-21T13:50:04.000Z</time>
      </trkpt>
      <trkpt lat="44.51406" lon="6.22283">
        <ele>1404</ele>
        <time>2023-04-21T13:50:05.000Z</time>
      </trkpt>
      <trkpt lat="44.51406" lon="6.22283">
        <ele>1404</ele>
        <time>2023-04-21T13:50:06.000Z</time>
      </trkpt>
      <trkpt lat="44.51406" lon="6.22284">
        <ele>1403</ele>
        <time>2023-04-21T13:50:07.000Z</time>
      </trkpt>
      <trkpt lat="44.51406" lon="6.22284">
        <ele>1403</ele>
        <time>2023-04-21T13:50:08.000Z</time>
      </trkpt>
      <trkpt lat="44.51406" lon="6.22284">
        <ele>1403</ele>
        <time>2023-04-21T13:50:09.000Z</time>
      </trkpt>
      <trkpt lat="44.51406" lon="6.22284">
        <ele>1403</ele>
        <time>2023-04-21T13:50:10.000Z</time>
      </trkpt>
      <trkpt lat="44.51406" lon="6.22284">
        <ele>1403</ele>
        <time>2023-04-21T13:50:11.000Z</time>
      </trkpt>
      <trkpt lat="44.51406" lon="6.22284">
        <ele>1402</ele>
        <time>2023-04-21T13:50:12.000Z</time>
      </trkpt>
      <trkpt lat="44.51406" lon="6.22284">
        <ele>1402</ele>
        <time>2023-04-21T13:50:13.000Z</time>
      </trkpt>
      <trkpt lat="44.51406" lon="6.22284">
        <ele>1402</ele>
        <time>2023-04-21T13:50:14.000Z</time>
      </trkpt>
      <trkpt lat="44.51407" lon="6.22284">
        <ele>1402</ele>
        <time>2023-04-21T13:50:15.000Z</time>
      </trkpt>
      <trkpt lat="44.51407" lon="6.22284">
        <ele>1402</ele>
        <time>2023-04-21T13:50:16.000Z</time>
      </trkpt>
      <trkpt lat="44.51407" lon="6.22284">
        <ele>1401</ele>
        <time>2023-04-21T13:50:17.000Z</time>
      </trkpt>
      <trkpt lat="44.51407" lon="6.22284">
        <ele>1401</ele>
        <time>2023-04-21T13:50:18.000Z</time>
      </trkpt>
      <trkpt lat="44.51407" lon="6.22283">
        <ele>1401</ele>
        <time>2023-04-21T13:50:19.000Z</time>
      </trkpt>
      <trkpt lat="44.51407" lon="6.22283">
        <ele>1401</ele>
        <time>2023-04-21T13:50:20.000Z</time>
      </trkpt>
      <trkpt lat="44.51407" lon="6.22283">
        <ele>1401</ele>
        <time>2023-04-21T13:50:21.000Z</time>
      </trkpt>
      <trkpt lat="44.51407" lon="6.22283">
        <ele>1401</ele>
        <time>2023-04-21T13:50:22.000Z</time>
      </trkpt>
      <trkpt lat="44.51407" lon="6.22283">
        <ele>1401</ele>
        <time>2023-04-21T13:50:23.000Z</time>
      </trkpt>
      <trkpt lat="44.51407" lon="6.22283">
        <ele>1401</ele>
        <time>2023-04-21T13:50:24.000Z</time>
      </trkpt>
      <trkpt lat="44.51407" lon="6.22283">
        <ele>1401</ele>
        <time>2023-04-21T13:50:25.000Z</time>
      </trkpt>
      <trkpt lat="44.51407" lon="6.22282">
        <ele>1400</ele>
        <time>2023-04-21T13:50:26.000Z</time>
      </trkpt>
      <trkpt lat="44.51407" lon="6.22282">
        <ele>1400</ele>
        <time>2023-04-21T13:50:27.000Z</time>
      </trkpt>
      <trkpt lat="44.51407" lon="6.22282">
        <ele>1400</ele>
        <time>2023-04-21T13:50:28.000Z</time>
      </trkpt>
      <trkpt lat="44.51407" lon="6.22282">
        <ele>1400</ele>
        <time>2023-04-21T13:50:29.000Z</time>
      </trkpt>
      <trkpt lat="44.51407" lon="6.22282">
        <ele>1401</ele>
        <time>2023-04-21T13:50:30.000Z</time>
      </trkpt>
      <trkpt lat="44.51407" lon="6.22282">
        <ele>1401</ele>
        <time>2023-04-21T13:50:31.000Z</time>
      </trkpt>
      <trkpt lat="44.51407" lon="6.22281">
        <ele>1401</ele>
        <time>2023-04-21T13:50:32.000Z</time>
      </trkpt>
      <trkpt lat="44.51407" lon="6.22281">
        <ele>1401</ele>
        <time>2023-04-21T13:50:33.000Z</time>
      </trkpt>
      <trkpt lat="44.51407" lon="6.22281">
        <ele>1401</ele>
        <time>2023-04-21T13:50:34.000Z</time>
      </trkpt>
      <trkpt lat="44.51407" lon="6.22281">
        <ele>1401</ele>
        <time>2023-04-21T13:50:35.000Z</time>
      </trkpt>
      <trkpt lat="44.51407" lon="6.22281">
        <ele>1401</ele>
        <time>2023-04-21T13:50:36.000Z</time>
      </trkpt>
      <trkpt lat="44.51407" lon="6.22281">
        <ele>1401</ele>
        <time>2023-04-21T13:50:37.000Z</time>
      </trkpt>
      <trkpt lat="44.51407" lon="6.22281">
        <ele>1401</ele>
        <time>2023-04-21T13:50:38.000Z</time>
      </trkpt>
      <trkpt lat="44.51407" lon="6.22281">
        <ele>1401</ele>
        <time>2023-04-21T13:50:39.000Z</time>
      </trkpt>
      <trkpt lat="44.51407" lon="6.22281">
        <ele>1401</ele>
        <time>2023-04-21T13:50:40.000Z</time>
      </trkpt>
      <trkpt lat="44.51408" lon="6.22281">
        <ele>1401</ele>
        <time>2023-04-21T13:50:41.000Z</time>
      </trkpt>
      <trkpt lat="44.51409" lon="6.22281">
        <ele>1402</ele>
        <time>2023-04-21T13:50:42.000Z</time>
      </trkpt>
      <trkpt lat="44.5141" lon="6.22282">
        <ele>1402</ele>
        <time>2023-04-21T13:50:43.000Z</time>
      </trkpt>
      <trkpt lat="44.51411" lon="6.22282">
        <ele>1402</ele>
        <time>2023-04-21T13:50:44.000Z</time>
      </trkpt>
      <trkpt lat="44.51413" lon="6.22284">
        <ele>1402</ele>
        <time>2023-04-21T13:50:45.000Z</time>
      </trkpt>
      <trkpt lat="44.51414" lon="6.22285">
        <ele>1402</ele>
        <time>2023-04-21T13:50:46.000Z</time>
      </trkpt>
      <trkpt lat="44.51416" lon="6.22286">
        <ele>1402</ele>
        <time>2023-04-21T13:50:47.000Z</time>
      </trkpt>
      <trkpt lat="44.51418" lon="6.22287">
        <ele>1403</ele>
        <time>2023-04-21T13:50:48.000Z</time>
      </trkpt>
      <trkpt lat="44.5142" lon="6.22288">
        <ele>1404</ele>
        <time>2023-04-21T13:50:49.000Z</time>
      </trkpt>
      <trkpt lat="44.51423" lon="6.22289">
        <ele>1404</ele>
        <time>2023-04-21T13:50:50.000Z</time>
      </trkpt>
      <trkpt lat="44.51425" lon="6.2229">
        <ele>1404</ele>
        <time>2023-04-21T13:50:51.000Z</time>
      </trkpt>
      <trkpt lat="44.51427" lon="6.2229">
        <ele>1404</ele>
        <time>2023-04-21T13:50:52.000Z</time>
      </trkpt>
      <trkpt lat="44.51429" lon="6.22291">
        <ele>1405</ele>
        <time>2023-04-21T13:50:53.000Z</time>
      </trkpt>
      <trkpt lat="44.51432" lon="6.22291">
        <ele>1406</ele>
        <time>2023-04-21T13:50:54.000Z</time>
      </trkpt>
      <trkpt lat="44.51434" lon="6.22292">
        <ele>1406</ele>
        <time>2023-04-21T13:50:55.000Z</time>
      </trkpt>
      <trkpt lat="44.51437" lon="6.22293">
        <ele>1406</ele>
        <time>2023-04-21T13:50:56.000Z</time>
      </trkpt>
      <trkpt lat="44.51439" lon="6.22294">
        <ele>1407</ele>
        <time>2023-04-21T13:50:57.000Z</time>
      </trkpt>
      <trkpt lat="44.51442" lon="6.22295">
        <ele>1407</ele>
        <time>2023-04-21T13:50:58.000Z</time>
      </trkpt>
      <trkpt lat="44.51444" lon="6.22297">
        <ele>1406</ele>
        <time>2023-04-21T13:50:59.000Z</time>
      </trkpt>
      <trkpt lat="44.51446" lon="6.22299">
        <ele>1406</ele>
        <time>2023-04-21T13:51:00.000Z</time>
      </trkpt>
      <trkpt lat="44.51449" lon="6.22301">
        <ele>1406</ele>
        <time>2023-04-21T13:51:01.000Z</time>
      </trkpt>
      <trkpt lat="44.51451" lon="6.22303">
        <ele>1407</ele>
        <time>2023-04-21T13:51:02.000Z</time>
      </trkpt>
      <trkpt lat="44.51454" lon="6.22305">
        <ele>1407</ele>
        <time>2023-04-21T13:51:03.000Z</time>
      </trkpt>
      <trkpt lat="44.51456" lon="6.22307">
        <ele>1407</ele>
        <time>2023-04-21T13:51:04.000Z</time>
      </trkpt>
      <trkpt lat="44.51459" lon="6.2231">
        <ele>1407</ele>
        <time>2023-04-21T13:51:05.000Z</time>
      </trkpt>
      <trkpt lat="44.51461" lon="6.22312">
        <ele>1407</ele>
        <time>2023-04-21T13:51:06.000Z</time>
      </trkpt>
      <trkpt lat="44.51464" lon="6.22316">
        <ele>1407</ele>
        <time>2023-04-21T13:51:07.000Z</time>
      </trkpt>
      <trkpt lat="44.51467" lon="6.2232">
        <ele>1408</ele>
        <time>2023-04-21T13:51:08.000Z</time>
      </trkpt>
      <trkpt lat="44.5147" lon="6.22325">
        <ele>1408</ele>
        <time>2023-04-21T13:51:09.000Z</time>
      </trkpt>
      <trkpt lat="44.51473" lon="6.22329">
        <ele>1408</ele>
        <time>2023-04-21T13:51:10.000Z</time>
      </trkpt>
      <trkpt lat="44.51475" lon="6.22333">
        <ele>1408</ele>
        <time>2023-04-21T13:51:11.000Z</time>
      </trkpt>
      <trkpt lat="44.51477" lon="6.22337">
        <ele>1408</ele>
        <time>2023-04-21T13:51:12.000Z</time>
      </trkpt>
      <trkpt lat="44.5148" lon="6.22341">
        <ele>1407</ele>
        <time>2023-04-21T13:51:13.000Z</time>
      </trkpt>
      <trkpt lat="44.51481" lon="6.22344">
        <ele>1407</ele>
        <time>2023-04-21T13:51:14.000Z</time>
      </trkpt>
      <trkpt lat="44.51483" lon="6.22347">
        <ele>1408</ele>
        <time>2023-04-21T13:51:15.000Z</time>
      </trkpt>
      <trkpt lat="44.51485" lon="6.2235">
        <ele>1408</ele>
        <time>2023-04-21T13:51:16.000Z</time>
      </trkpt>
      <trkpt lat="44.51486" lon="6.22354">
        <ele>1408</ele>
        <time>2023-04-21T13:51:17.000Z</time>
      </trkpt>
      <trkpt lat="44.51487" lon="6.22357">
        <ele>1408</ele>
        <time>2023-04-21T13:51:18.000Z</time>
      </trkpt>
      <trkpt lat="44.51489" lon="6.2236">
        <ele>1409</ele>
        <time>2023-04-21T13:51:19.000Z</time>
      </trkpt>
      <trkpt lat="44.51491" lon="6.22364">
        <ele>1409</ele>
        <time>2023-04-21T13:51:20.000Z</time>
      </trkpt>
      <trkpt lat="44.51492" lon="6.22367">
        <ele>1409</ele>
        <time>2023-04-21T13:51:21.000Z</time>
      </trkpt>
      <trkpt lat="44.51494" lon="6.2237">
        <ele>1409</ele>
        <time>2023-04-21T13:51:22.000Z</time>
      </trkpt>
      <trkpt lat="44.51496" lon="6.22374">
        <ele>1409</ele>
        <time>2023-04-21T13:51:23.000Z</time>
      </trkpt>
      <trkpt lat="44.51498" lon="6.22377">
        <ele>1409</ele>
        <time>2023-04-21T13:51:24.000Z</time>
      </trkpt>
      <trkpt lat="44.515" lon="6.2238">
        <ele>1409</ele>
        <time>2023-04-21T13:51:25.000Z</time>
      </trkpt>
      <trkpt lat="44.51502" lon="6.22383">
        <ele>1409</ele>
        <time>2023-04-21T13:51:26.000Z</time>
      </trkpt>
      <trkpt lat="44.51504" lon="6.22386">
        <ele>1409</ele>
        <time>2023-04-21T13:51:27.000Z</time>
      </trkpt>
      <trkpt lat="44.51505" lon="6.22389">
        <ele>1409</ele>
        <time>2023-04-21T13:51:28.000Z</time>
      </trkpt>
      <trkpt lat="44.51507" lon="6.22392">
        <ele>1409</ele>
        <time>2023-04-21T13:51:29.000Z</time>
      </trkpt>
      <trkpt lat="44.51509" lon="6.22395">
        <ele>1409</ele>
        <time>2023-04-21T13:51:30.000Z</time>
      </trkpt>
      <trkpt lat="44.51511" lon="6.22397">
        <ele>1409</ele>
        <time>2023-04-21T13:51:31.000Z</time>
      </trkpt>
      <trkpt lat="44.51512" lon="6.224">
        <ele>1409</ele>
        <time>2023-04-21T13:51:32.000Z</time>
      </trkpt>
      <trkpt lat="44.51514" lon="6.22403">
        <ele>1410</ele>
        <time>2023-04-21T13:51:33.000Z</time>
      </trkpt>
      <trkpt lat="44.51515" lon="6.22406">
        <ele>1410</ele>
        <time>2023-04-21T13:51:34.000Z</time>
      </trkpt>
      <trkpt lat="44.51516" lon="6.22408">
        <ele>1410</ele>
        <time>2023-04-21T13:51:35.000Z</time>
      </trkpt>
      <trkpt lat="44.51518" lon="6.22411">
        <ele>1411</ele>
        <time>2023-04-21T13:51:36.000Z</time>
      </trkpt>
      <trkpt lat="44.51518" lon="6.22415">
        <ele>1410</ele>
        <time>2023-04-21T13:51:37.000Z</time>
      </trkpt>
      <trkpt lat="44.5152" lon="6.22419">
        <ele>1411</ele>
        <time>2023-04-21T13:51:38.000Z</time>
      </trkpt>
      <trkpt lat="44.5152" lon="6.22422">
        <ele>1411</ele>
        <time>2023-04-21T13:51:39.000Z</time>
      </trkpt>
      <trkpt lat="44.51521" lon="6.22426">
        <ele>1411</ele>
        <time>2023-04-21T13:51:40.000Z</time>
      </trkpt>
      <trkpt lat="44.51522" lon="6.22429">
        <ele>1411</ele>
        <time>2023-04-21T13:51:41.000Z</time>
      </trkpt>
      <trkpt lat="44.51521" lon="6.22432">
        <ele>1412</ele>
        <time>2023-04-21T13:51:42.000Z</time>
      </trkpt>
      <trkpt lat="44.51521" lon="6.22435">
        <ele>1412</ele>
        <time>2023-04-21T13:51:43.000Z</time>
      </trkpt>
      <trkpt lat="44.51522" lon="6.22438">
        <ele>1413</ele>
        <time>2023-04-21T13:51:44.000Z</time>
      </trkpt>
      <trkpt lat="44.51522" lon="6.22442">
        <ele>1413</ele>
        <time>2023-04-21T13:51:45.000Z</time>
      </trkpt>
      <trkpt lat="44.51522" lon="6.22447">
        <ele>1413</ele>
        <time>2023-04-21T13:51:46.000Z</time>
      </trkpt>
      <trkpt lat="44.51522" lon="6.22451">
        <ele>1414</ele>
        <time>2023-04-21T13:51:47.000Z</time>
      </trkpt>
      <trkpt lat="44.51522" lon="6.22456">
        <ele>1413</ele>
        <time>2023-04-21T13:51:48.000Z</time>
      </trkpt>
      <trkpt lat="44.51521" lon="6.22462">
        <ele>1413</ele>
        <time>2023-04-21T13:51:49.000Z</time>
      </trkpt>
      <trkpt lat="44.51521" lon="6.22466">
        <ele>1413</ele>
        <time>2023-04-21T13:51:50.000Z</time>
      </trkpt>
      <trkpt lat="44.5152" lon="6.22471">
        <ele>1413</ele>
        <time>2023-04-21T13:51:51.000Z</time>
      </trkpt>
      <trkpt lat="44.51518" lon="6.22476">
        <ele>1412</ele>
        <time>2023-04-21T13:51:52.000Z</time>
      </trkpt>
      <trkpt lat="44.51516" lon="6.22483">
        <ele>1412</ele>
        <time>2023-04-21T13:51:53.000Z</time>
      </trkpt>
      <trkpt lat="44.51514" lon="6.22488">
        <ele>1412</ele>
        <time>2023-04-21T13:51:54.000Z</time>
      </trkpt>
      <trkpt lat="44.51513" lon="6.22494">
        <ele>1411</ele>
        <time>2023-04-21T13:51:55.000Z</time>
      </trkpt>
      <trkpt lat="44.51512" lon="6.22499">
        <ele>1411</ele>
        <time>2023-04-21T13:51:56.000Z</time>
      </trkpt>
      <trkpt lat="44.51509" lon="6.22504">
        <ele>1410</ele>
        <time>2023-04-21T13:51:57.000Z</time>
      </trkpt>
      <trkpt lat="44.51508" lon="6.22509">
        <ele>1410</ele>
        <time>2023-04-21T13:51:58.000Z</time>
      </trkpt>
      <trkpt lat="44.51507" lon="6.22514">
        <ele>1410</ele>
        <time>2023-04-21T13:51:59.000Z</time>
      </trkpt>
      <trkpt lat="44.51505" lon="6.22519">
        <ele>1409</ele>
        <time>2023-04-21T13:52:00.000Z</time>
      </trkpt>
      <trkpt lat="44.51503" lon="6.22525">
        <ele>1409</ele>
        <time>2023-04-21T13:52:01.000Z</time>
      </trkpt>
      <trkpt lat="44.51501" lon="6.22529">
        <ele>1409</ele>
        <time>2023-04-21T13:52:02.000Z</time>
      </trkpt>
      <trkpt lat="44.515" lon="6.22533">
        <ele>1409</ele>
        <time>2023-04-21T13:52:03.000Z</time>
      </trkpt>
      <trkpt lat="44.51498" lon="6.22538">
        <ele>1408</ele>
        <time>2023-04-21T13:52:04.000Z</time>
      </trkpt>
      <trkpt lat="44.51497" lon="6.22543">
        <ele>1410</ele>
        <time>2023-04-21T13:52:05.000Z</time>
      </trkpt>
      <trkpt lat="44.51495" lon="6.22548">
        <ele>1409</ele>
        <time>2023-04-21T13:52:06.000Z</time>
      </trkpt>
      <trkpt lat="44.51493" lon="6.22553">
        <ele>1407</ele>
        <time>2023-04-21T13:52:07.000Z</time>
      </trkpt>
      <trkpt lat="44.5149" lon="6.22559">
        <ele>1406</ele>
        <time>2023-04-21T13:52:08.000Z</time>
      </trkpt>
      <trkpt lat="44.51488" lon="6.22563">
        <ele>1405</ele>
        <time>2023-04-21T13:52:09.000Z</time>
      </trkpt>
      <trkpt lat="44.51486" lon="6.22569">
        <ele>1405</ele>
        <time>2023-04-21T13:52:10.000Z</time>
      </trkpt>
      <trkpt lat="44.51485" lon="6.22574">
        <ele>1404</ele>
        <time>2023-04-21T13:52:11.000Z</time>
      </trkpt>
      <trkpt lat="44.51482" lon="6.22579">
        <ele>1403</ele>
        <time>2023-04-21T13:52:12.000Z</time>
      </trkpt>
      <trkpt lat="44.5148" lon="6.22583">
        <ele>1402</ele>
        <time>2023-04-21T13:52:13.000Z</time>
      </trkpt>
      <trkpt lat="44.51478" lon="6.22588">
        <ele>1402</ele>
        <time>2023-04-21T13:52:14.000Z</time>
      </trkpt>
      <trkpt lat="44.51476" lon="6.22594">
        <ele>1403</ele>
        <time>2023-04-21T13:52:15.000Z</time>
      </trkpt>
      <trkpt lat="44.51475" lon="6.22599">
        <ele>1403</ele>
        <time>2023-04-21T13:52:16.000Z</time>
      </trkpt>
      <trkpt lat="44.51472" lon="6.22605">
        <ele>1403</ele>
        <time>2023-04-21T13:52:17.000Z</time>
      </trkpt>
      <trkpt lat="44.51469" lon="6.2261">
        <ele>1401</ele>
        <time>2023-04-21T13:52:18.000Z</time>
      </trkpt>
      <trkpt lat="44.51466" lon="6.22614">
        <ele>1400</ele>
        <time>2023-04-21T13:52:19.000Z</time>
      </trkpt>
      <trkpt lat="44.51463" lon="6.22619">
        <ele>1398</ele>
        <time>2023-04-21T13:52:20.000Z</time>
      </trkpt>
      <trkpt lat="44.5146" lon="6.22624">
        <ele>1396</ele>
        <time>2023-04-21T13:52:21.000Z</time>
      </trkpt>
      <trkpt lat="44.51456" lon="6.22628">
        <ele>1394</ele>
        <time>2023-04-21T13:52:22.000Z</time>
      </trkpt>
      <trkpt lat="44.51453" lon="6.22632">
        <ele>1393</ele>
        <time>2023-04-21T13:52:23.000Z</time>
      </trkpt>
      <trkpt lat="44.5145" lon="6.22636">
        <ele>1392</ele>
        <time>2023-04-21T13:52:24.000Z</time>
      </trkpt>
      <trkpt lat="44.51447" lon="6.2264">
        <ele>1390</ele>
        <time>2023-04-21T13:52:25.000Z</time>
      </trkpt>
      <trkpt lat="44.51444" lon="6.22644">
        <ele>1389</ele>
        <time>2023-04-21T13:52:26.000Z</time>
      </trkpt>
      <trkpt lat="44.5144" lon="6.22649">
        <ele>1387</ele>
        <time>2023-04-21T13:52:27.000Z</time>
      </trkpt>
      <trkpt lat="44.51437" lon="6.22653">
        <ele>1387</ele>
        <time>2023-04-21T13:52:28.000Z</time>
      </trkpt>
      <trkpt lat="44.51435" lon="6.22658">
        <ele>1387</ele>
        <time>2023-04-21T13:52:29.000Z</time>
      </trkpt>
      <trkpt lat="44.51432" lon="6.22662">
        <ele>1386</ele>
        <time>2023-04-21T13:52:30.000Z</time>
      </trkpt>
      <trkpt lat="44.51429" lon="6.22668">
        <ele>1387</ele>
        <time>2023-04-21T13:52:31.000Z</time>
      </trkpt>
      <trkpt lat="44.51426" lon="6.22676">
        <ele>1385</ele>
        <time>2023-04-21T13:52:32.000Z</time>
      </trkpt>
      <trkpt lat="44.51423" lon="6.22681">
        <ele>1385</ele>
        <time>2023-04-21T13:52:33.000Z</time>
      </trkpt>
      <trkpt lat="44.5142" lon="6.22687">
        <ele>1384</ele>
        <time>2023-04-21T13:52:34.000Z</time>
      </trkpt>
      <trkpt lat="44.51418" lon="6.22693">
        <ele>1383</ele>
        <time>2023-04-21T13:52:35.000Z</time>
      </trkpt>
      <trkpt lat="44.51415" lon="6.227">
        <ele>1382</ele>
        <time>2023-04-21T13:52:36.000Z</time>
      </trkpt>
      <trkpt lat="44.51413" lon="6.22707">
        <ele>1381</ele>
        <time>2023-04-21T13:52:37.000Z</time>
      </trkpt>
      <trkpt lat="44.51411" lon="6.22721">
        <ele>1382</ele>
        <time>2023-04-21T13:52:38.000Z</time>
      </trkpt>
      <trkpt lat="44.51409" lon="6.22731">
        <ele>1382</ele>
        <time>2023-04-21T13:52:39.000Z</time>
      </trkpt>
      <trkpt lat="44.51407" lon="6.22741">
        <ele>1383</ele>
        <time>2023-04-21T13:52:40.000Z</time>
      </trkpt>
      <trkpt lat="44.51405" lon="6.22751">
        <ele>1382</ele>
        <time>2023-04-21T13:52:41.000Z</time>
      </trkpt>
      <trkpt lat="44.51403" lon="6.22763">
        <ele>1380</ele>
        <time>2023-04-21T13:52:42.000Z</time>
      </trkpt>
      <trkpt lat="44.514" lon="6.22775">
        <ele>1380</ele>
        <time>2023-04-21T13:52:43.000Z</time>
      </trkpt>
      <trkpt lat="44.51395" lon="6.22786">
        <ele>1379</ele>
        <time>2023-04-21T13:52:44.000Z</time>
      </trkpt>
      <trkpt lat="44.51393" lon="6.22796">
        <ele>1379</ele>
        <time>2023-04-21T13:52:45.000Z</time>
      </trkpt>
      <trkpt lat="44.5139" lon="6.22805">
        <ele>1377</ele>
        <time>2023-04-21T13:52:46.000Z</time>
      </trkpt>
      <trkpt lat="44.51388" lon="6.22814">
        <ele>1377</ele>
        <time>2023-04-21T13:52:47.000Z</time>
      </trkpt>
      <trkpt lat="44.51385" lon="6.22823">
        <ele>1377</ele>
        <time>2023-04-21T13:52:48.000Z</time>
      </trkpt>
      <trkpt lat="44.51383" lon="6.22832">
        <ele>1378</ele>
        <time>2023-04-21T13:52:49.000Z</time>
      </trkpt>
      <trkpt lat="44.51381" lon="6.22841">
        <ele>1378</ele>
        <time>2023-04-21T13:52:50.000Z</time>
      </trkpt>
      <trkpt lat="44.51379" lon="6.22848">
        <ele>1377</ele>
        <time>2023-04-21T13:52:51.000Z</time>
      </trkpt>
      <trkpt lat="44.51378" lon="6.22855">
        <ele>1378</ele>
        <time>2023-04-21T13:52:52.000Z</time>
      </trkpt>
      <trkpt lat="44.51378" lon="6.22861">
        <ele>1380</ele>
        <time>2023-04-21T13:52:53.000Z</time>
      </trkpt>
      <trkpt lat="44.5138" lon="6.22868">
        <ele>1382</ele>
        <time>2023-04-21T13:52:54.000Z</time>
      </trkpt>
      <trkpt lat="44.51381" lon="6.22874">
        <ele>1383</ele>
        <time>2023-04-21T13:52:55.000Z</time>
      </trkpt>
      <trkpt lat="44.51381" lon="6.2288">
        <ele>1384</ele>
        <time>2023-04-21T13:52:56.000Z</time>
      </trkpt>
      <trkpt lat="44.51382" lon="6.22887">
        <ele>1385</ele>
        <time>2023-04-21T13:52:57.000Z</time>
      </trkpt>
      <trkpt lat="44.51383" lon="6.22893">
        <ele>1386</ele>
        <time>2023-04-21T13:52:58.000Z</time>
      </trkpt>
      <trkpt lat="44.51384" lon="6.22899">
        <ele>1387</ele>
        <time>2023-04-21T13:52:59.000Z</time>
      </trkpt>
      <trkpt lat="44.51385" lon="6.22905">
        <ele>1387</ele>
        <time>2023-04-21T13:53:00.000Z</time>
      </trkpt>
      <trkpt lat="44.51385" lon="6.22911">
        <ele>1387</ele>
        <time>2023-04-21T13:53:01.000Z</time>
      </trkpt>
      <trkpt lat="44.51386" lon="6.22917">
        <ele>1389</ele>
        <time>2023-04-21T13:53:02.000Z</time>
      </trkpt>
      <trkpt lat="44.51386" lon="6.22923">
        <ele>1391</ele>
        <time>2023-04-21T13:53:03.000Z</time>
      </trkpt>
      <trkpt lat="44.51386" lon="6.22928">
        <ele>1392</ele>
        <time>2023-04-21T13:53:04.000Z</time>
      </trkpt>
      <trkpt lat="44.51385" lon="6.22934">
        <ele>1393</ele>
        <time>2023-04-21T13:53:05.000Z</time>
      </trkpt>
      <trkpt lat="44.51382" lon="6.22939">
        <ele>1392</ele>
        <time>2023-04-21T13:53:06.000Z</time>
      </trkpt>
      <trkpt lat="44.5138" lon="6.22944">
        <ele>1392</ele>
        <time>2023-04-21T13:53:07.000Z</time>
      </trkpt>
      <trkpt lat="44.51378" lon="6.2295">
        <ele>1392</ele>
        <time>2023-04-21T13:53:08.000Z</time>
      </trkpt>
      <trkpt lat="44.51376" lon="6.22955">
        <ele>1393</ele>
        <time>2023-04-21T13:53:09.000Z</time>
      </trkpt>
      <trkpt lat="44.51373" lon="6.22959">
        <ele>1393</ele>
        <time>2023-04-21T13:53:10.000Z</time>
      </trkpt>
      <trkpt lat="44.5137" lon="6.22963">
        <ele>1393</ele>
        <time>2023-04-21T13:53:11.000Z</time>
      </trkpt>
      <trkpt lat="44.51367" lon="6.22967">
        <ele>1393</ele>
        <time>2023-04-21T13:53:12.000Z</time>
      </trkpt>
      <trkpt lat="44.51365" lon="6.22971">
        <ele>1394</ele>
        <time>2023-04-21T13:53:13.000Z</time>
      </trkpt>
      <trkpt lat="44.51362" lon="6.22974">
        <ele>1394</ele>
        <time>2023-04-21T13:53:14.000Z</time>
      </trkpt>
      <trkpt lat="44.51359" lon="6.22978">
        <ele>1394</ele>
        <time>2023-04-21T13:53:15.000Z</time>
      </trkpt>
      <trkpt lat="44.51357" lon="6.22981">
        <ele>1394</ele>
        <time>2023-04-21T13:53:16.000Z</time>
      </trkpt>
      <trkpt lat="44.51355" lon="6.22984">
        <ele>1394</ele>
        <time>2023-04-21T13:53:17.000Z</time>
      </trkpt>
      <trkpt lat="44.51353" lon="6.22986">
        <ele>1394</ele>
        <time>2023-04-21T13:53:18.000Z</time>
      </trkpt>
      <trkpt lat="44.5135" lon="6.22989">
        <ele>1395</ele>
        <time>2023-04-21T13:53:19.000Z</time>
      </trkpt>
      <trkpt lat="44.51348" lon="6.22992">
        <ele>1395</ele>
        <time>2023-04-21T13:53:20.000Z</time>
      </trkpt>
      <trkpt lat="44.51346" lon="6.22995">
        <ele>1396</ele>
        <time>2023-04-21T13:53:21.000Z</time>
      </trkpt>
      <trkpt lat="44.51343" lon="6.22998">
        <ele>1397</ele>
        <time>2023-04-21T13:53:22.000Z</time>
      </trkpt>
      <trkpt lat="44.51341" lon="6.23001">
        <ele>1398</ele>
        <time>2023-04-21T13:53:23.000Z</time>
      </trkpt>
      <trkpt lat="44.51339" lon="6.23003">
        <ele>1399</ele>
        <time>2023-04-21T13:53:24.000Z</time>
      </trkpt>
      <trkpt lat="44.51335" lon="6.23006">
        <ele>1399</ele>
        <time>2023-04-21T13:53:25.000Z</time>
      </trkpt>
      <trkpt lat="44.51332" lon="6.23009">
        <ele>1399</ele>
        <time>2023-04-21T13:53:26.000Z</time>
      </trkpt>
      <trkpt lat="44.5133" lon="6.23012">
        <ele>1399</ele>
        <time>2023-04-21T13:53:27.000Z</time>
      </trkpt>
      <trkpt lat="44.51327" lon="6.23014">
        <ele>1399</ele>
        <time>2023-04-21T13:53:28.000Z</time>
      </trkpt>
      <trkpt lat="44.51324" lon="6.23017">
        <ele>1399</ele>
        <time>2023-04-21T13:53:29.000Z</time>
      </trkpt>
      <trkpt lat="44.51322" lon="6.23019">
        <ele>1399</ele>
        <time>2023-04-21T13:53:30.000Z</time>
      </trkpt>
      <trkpt lat="44.51319" lon="6.23021">
        <ele>1398</ele>
        <time>2023-04-21T13:53:31.000Z</time>
      </trkpt>
      <trkpt lat="44.51317" lon="6.23024">
        <ele>1398</ele>
        <time>2023-04-21T13:53:32.000Z</time>
      </trkpt>
      <trkpt lat="44.51314" lon="6.23026">
        <ele>1398</ele>
        <time>2023-04-21T13:53:33.000Z</time>
      </trkpt>
      <trkpt lat="44.51311" lon="6.2303">
        <ele>1398</ele>
        <time>2023-04-21T13:53:34.000Z</time>
      </trkpt>
      <trkpt lat="44.51309" lon="6.23033">
        <ele>1398</ele>
        <time>2023-04-21T13:53:35.000Z</time>
      </trkpt>
      <trkpt lat="44.51307" lon="6.23037">
        <ele>1398</ele>
        <time>2023-04-21T13:53:36.000Z</time>
      </trkpt>
      <trkpt lat="44.51307" lon="6.23041">
        <ele>1398</ele>
        <time>2023-04-21T13:53:37.000Z</time>
      </trkpt>
      <trkpt lat="44.51306" lon="6.23045">
        <ele>1397</ele>
        <time>2023-04-21T13:53:38.000Z</time>
      </trkpt>
      <trkpt lat="44.51305" lon="6.23049">
        <ele>1397</ele>
        <time>2023-04-21T13:53:39.000Z</time>
      </trkpt>
      <trkpt lat="44.51304" lon="6.23053">
        <ele>1397</ele>
        <time>2023-04-21T13:53:40.000Z</time>
      </trkpt>
      <trkpt lat="44.51303" lon="6.23057">
        <ele>1398</ele>
        <time>2023-04-21T13:53:41.000Z</time>
      </trkpt>
      <trkpt lat="44.51303" lon="6.23061">
        <ele>1398</ele>
        <time>2023-04-21T13:53:42.000Z</time>
      </trkpt>
      <trkpt lat="44.51302" lon="6.23065">
        <ele>1398</ele>
        <time>2023-04-21T13:53:43.000Z</time>
      </trkpt>
      <trkpt lat="44.51302" lon="6.23069">
        <ele>1399</ele>
        <time>2023-04-21T13:53:44.000Z</time>
      </trkpt>
      <trkpt lat="44.51301" lon="6.23074">
        <ele>1399</ele>
        <time>2023-04-21T13:53:45.000Z</time>
      </trkpt>
      <trkpt lat="44.51301" lon="6.23078">
        <ele>1399</ele>
        <time>2023-04-21T13:53:46.000Z</time>
      </trkpt>
      <trkpt lat="44.513" lon="6.23082">
        <ele>1400</ele>
        <time>2023-04-21T13:53:47.000Z</time>
      </trkpt>
      <trkpt lat="44.51299" lon="6.23086">
        <ele>1400</ele>
        <time>2023-04-21T13:53:48.000Z</time>
      </trkpt>
      <trkpt lat="44.51299" lon="6.2309">
        <ele>1401</ele>
        <time>2023-04-21T13:53:49.000Z</time>
      </trkpt>
      <trkpt lat="44.51298" lon="6.23095">
        <ele>1401</ele>
        <time>2023-04-21T13:53:50.000Z</time>
      </trkpt>
      <trkpt lat="44.51297" lon="6.23099">
        <ele>1402</ele>
        <time>2023-04-21T13:53:51.000Z</time>
      </trkpt>
      <trkpt lat="44.51297" lon="6.23103">
        <ele>1402</ele>
        <time>2023-04-21T13:53:52.000Z</time>
      </trkpt>
      <trkpt lat="44.51296" lon="6.23107">
        <ele>1403</ele>
        <time>2023-04-21T13:53:53.000Z</time>
      </trkpt>
      <trkpt lat="44.51296" lon="6.23111">
        <ele>1403</ele>
        <time>2023-04-21T13:53:54.000Z</time>
      </trkpt>
      <trkpt lat="44.51295" lon="6.23115">
        <ele>1404</ele>
        <time>2023-04-21T13:53:55.000Z</time>
      </trkpt>
      <trkpt lat="44.51295" lon="6.23118">
        <ele>1404</ele>
        <time>2023-04-21T13:53:56.000Z</time>
      </trkpt>
      <trkpt lat="44.51295" lon="6.23121">
        <ele>1405</ele>
        <time>2023-04-21T13:53:57.000Z</time>
      </trkpt>
      <trkpt lat="44.51295" lon="6.23126">
        <ele>1405</ele>
        <time>2023-04-21T13:53:58.000Z</time>
      </trkpt>
      <trkpt lat="44.51295" lon="6.2313">
        <ele>1406</ele>
        <time>2023-04-21T13:53:59.000Z</time>
      </trkpt>
      <trkpt lat="44.51295" lon="6.23135">
        <ele>1406</ele>
        <time>2023-04-21T13:54:00.000Z</time>
      </trkpt>
      <trkpt lat="44.51294" lon="6.23139">
        <ele>1405</ele>
        <time>2023-04-21T13:54:01.000Z</time>
      </trkpt>
      <trkpt lat="44.51295" lon="6.23143">
        <ele>1406</ele>
        <time>2023-04-21T13:54:02.000Z</time>
      </trkpt>
      <trkpt lat="44.51295" lon="6.23148">
        <ele>1407</ele>
        <time>2023-04-21T13:54:03.000Z</time>
      </trkpt>
      <trkpt lat="44.51296" lon="6.23154">
        <ele>1407</ele>
        <time>2023-04-21T13:54:04.000Z</time>
      </trkpt>
      <trkpt lat="44.51297" lon="6.23159">
        <ele>1407</ele>
        <time>2023-04-21T13:54:05.000Z</time>
      </trkpt>
      <trkpt lat="44.51298" lon="6.23164">
        <ele>1408</ele>
        <time>2023-04-21T13:54:06.000Z</time>
      </trkpt>
      <trkpt lat="44.51299" lon="6.23169">
        <ele>1408</ele>
        <time>2023-04-21T13:54:07.000Z</time>
      </trkpt>
      <trkpt lat="44.513" lon="6.23174">
        <ele>1408</ele>
        <time>2023-04-21T13:54:08.000Z</time>
      </trkpt>
      <trkpt lat="44.51301" lon="6.23178">
        <ele>1408</ele>
        <time>2023-04-21T13:54:09.000Z</time>
      </trkpt>
      <trkpt lat="44.51302" lon="6.23181">
        <ele>1408</ele>
        <time>2023-04-21T13:54:10.000Z</time>
      </trkpt>
      <trkpt lat="44.51303" lon="6.23185">
        <ele>1408</ele>
        <time>2023-04-21T13:54:11.000Z</time>
      </trkpt>
      <trkpt lat="44.51304" lon="6.23189">
        <ele>1408</ele>
        <time>2023-04-21T13:54:12.000Z</time>
      </trkpt>
      <trkpt lat="44.51305" lon="6.23192">
        <ele>1409</ele>
        <time>2023-04-21T13:54:13.000Z</time>
      </trkpt>
      <trkpt lat="44.51306" lon="6.23196">
        <ele>1409</ele>
        <time>2023-04-21T13:54:14.000Z</time>
      </trkpt>
      <trkpt lat="44.51307" lon="6.23199">
        <ele>1410</ele>
        <time>2023-04-21T13:54:15.000Z</time>
      </trkpt>
      <trkpt lat="44.51307" lon="6.23202">
        <ele>1409</ele>
        <time>2023-04-21T13:54:16.000Z</time>
      </trkpt>
      <trkpt lat="44.51308" lon="6.23206">
        <ele>1410</ele>
        <time>2023-04-21T13:54:17.000Z</time>
      </trkpt>
      <trkpt lat="44.51309" lon="6.23209">
        <ele>1411</ele>
        <time>2023-04-21T13:54:18.000Z</time>
      </trkpt>
      <trkpt lat="44.5131" lon="6.23212">
        <ele>1411</ele>
        <time>2023-04-21T13:54:19.000Z</time>
      </trkpt>
      <trkpt lat="44.51311" lon="6.23215">
        <ele>1412</ele>
        <time>2023-04-21T13:54:20.000Z</time>
      </trkpt>
      <trkpt lat="44.51312" lon="6.2322">
        <ele>1412</ele>
        <time>2023-04-21T13:54:21.000Z</time>
      </trkpt>
      <trkpt lat="44.51313" lon="6.23223">
        <ele>1412</ele>
        <time>2023-04-21T13:54:22.000Z</time>
      </trkpt>
      <trkpt lat="44.51314" lon="6.23227">
        <ele>1413</ele>
        <time>2023-04-21T13:54:23.000Z</time>
      </trkpt>
      <trkpt lat="44.51315" lon="6.2323">
        <ele>1414</ele>
        <time>2023-04-21T13:54:24.000Z</time>
      </trkpt>
      <trkpt lat="44.51315" lon="6.23234">
        <ele>1414</ele>
        <time>2023-04-21T13:54:25.000Z</time>
      </trkpt>
      <trkpt lat="44.51316" lon="6.23237">
        <ele>1414</ele>
        <time>2023-04-21T13:54:26.000Z</time>
      </trkpt>
      <trkpt lat="44.51317" lon="6.23241">
        <ele>1414</ele>
        <time>2023-04-21T13:54:27.000Z</time>
      </trkpt>
      <trkpt lat="44.51318" lon="6.23244">
        <ele>1414</ele>
        <time>2023-04-21T13:54:28.000Z</time>
      </trkpt>
      <trkpt lat="44.51318" lon="6.23247">
        <ele>1415</ele>
        <time>2023-04-21T13:54:29.000Z</time>
      </trkpt>
      <trkpt lat="44.51319" lon="6.23251">
        <ele>1415</ele>
        <time>2023-04-21T13:54:30.000Z</time>
      </trkpt>
      <trkpt lat="44.5132" lon="6.23254">
        <ele>1416</ele>
        <time>2023-04-21T13:54:31.000Z</time>
      </trkpt>
      <trkpt lat="44.5132" lon="6.23258">
        <ele>1416</ele>
        <time>2023-04-21T13:54:32.000Z</time>
      </trkpt>
      <trkpt lat="44.51321" lon="6.23263">
        <ele>1416</ele>
        <time>2023-04-21T13:54:33.000Z</time>
      </trkpt>
      <trkpt lat="44.51321" lon="6.23266">
        <ele>1417</ele>
        <time>2023-04-21T13:54:34.000Z</time>
      </trkpt>
      <trkpt lat="44.51321" lon="6.23269">
        <ele>1417</ele>
        <time>2023-04-21T13:54:35.000Z</time>
      </trkpt>
      <trkpt lat="44.51322" lon="6.23272">
        <ele>1418</ele>
        <time>2023-04-21T13:54:36.000Z</time>
      </trkpt>
      <trkpt lat="44.51323" lon="6.23277">
        <ele>1418</ele>
        <time>2023-04-21T13:54:37.000Z</time>
      </trkpt>
      <trkpt lat="44.51323" lon="6.2328">
        <ele>1418</ele>
        <time>2023-04-21T13:54:38.000Z</time>
      </trkpt>
      <trkpt lat="44.51323" lon="6.23284">
        <ele>1419</ele>
        <time>2023-04-21T13:54:39.000Z</time>
      </trkpt>
      <trkpt lat="44.51323" lon="6.23287">
        <ele>1419</ele>
        <time>2023-04-21T13:54:40.000Z</time>
      </trkpt>
      <trkpt lat="44.51323" lon="6.23291">
        <ele>1420</ele>
        <time>2023-04-21T13:54:41.000Z</time>
      </trkpt>
      <trkpt lat="44.51323" lon="6.23295">
        <ele>1420</ele>
        <time>2023-04-21T13:54:42.000Z</time>
      </trkpt>
      <trkpt lat="44.51324" lon="6.23298">
        <ele>1421</ele>
        <time>2023-04-21T13:54:43.000Z</time>
      </trkpt>
      <trkpt lat="44.51323" lon="6.23301">
        <ele>1421</ele>
        <time>2023-04-21T13:54:44.000Z</time>
      </trkpt>
      <trkpt lat="44.51323" lon="6.23305">
        <ele>1421</ele>
        <time>2023-04-21T13:54:45.000Z</time>
      </trkpt>
      <trkpt lat="44.51324" lon="6.23308">
        <ele>1421</ele>
        <time>2023-04-21T13:54:46.000Z</time>
      </trkpt>
      <trkpt lat="44.51324" lon="6.23312">
        <ele>1422</ele>
        <time>2023-04-21T13:54:47.000Z</time>
      </trkpt>
      <trkpt lat="44.51324" lon="6.23316">
        <ele>1422</ele>
        <time>2023-04-21T13:54:48.000Z</time>
      </trkpt>
      <trkpt lat="44.51324" lon="6.23319">
        <ele>1422</ele>
        <time>2023-04-21T13:54:49.000Z</time>
      </trkpt>
      <trkpt lat="44.51324" lon="6.23322">
        <ele>1422</ele>
        <time>2023-04-21T13:54:50.000Z</time>
      </trkpt>
      <trkpt lat="44.51324" lon="6.23325">
        <ele>1422</ele>
        <time>2023-04-21T13:54:51.000Z</time>
      </trkpt>
      <trkpt lat="44.51325" lon="6.2333">
        <ele>1423</ele>
        <time>2023-04-21T13:54:52.000Z</time>
      </trkpt>
      <trkpt lat="44.51326" lon="6.23333">
        <ele>1424</ele>
        <time>2023-04-21T13:54:53.000Z</time>
      </trkpt>
      <trkpt lat="44.51326" lon="6.23337">
        <ele>1424</ele>
        <time>2023-04-21T13:54:54.000Z</time>
      </trkpt>
      <trkpt lat="44.51326" lon="6.23342">
        <ele>1424</ele>
        <time>2023-04-21T13:54:55.000Z</time>
      </trkpt>
      <trkpt lat="44.51327" lon="6.23347">
        <ele>1424</ele>
        <time>2023-04-21T13:54:56.000Z</time>
      </trkpt>
      <trkpt lat="44.51328" lon="6.23351">
        <ele>1425</ele>
        <time>2023-04-21T13:54:57.000Z</time>
      </trkpt>
      <trkpt lat="44.51328" lon="6.23356">
        <ele>1425</ele>
        <time>2023-04-21T13:54:58.000Z</time>
      </trkpt>
      <trkpt lat="44.51329" lon="6.2336">
        <ele>1425</ele>
        <time>2023-04-21T13:54:59.000Z</time>
      </trkpt>
      <trkpt lat="44.5133" lon="6.23364">
        <ele>1425</ele>
        <time>2023-04-21T13:55:00.000Z</time>
      </trkpt>
      <trkpt lat="44.5133" lon="6.23368">
        <ele>1425</ele>
        <time>2023-04-21T13:55:01.000Z</time>
      </trkpt>
      <trkpt lat="44.51331" lon="6.23371">
        <ele>1426</ele>
        <time>2023-04-21T13:55:02.000Z</time>
      </trkpt>
      <trkpt lat="44.51331" lon="6.23375">
        <ele>1426</ele>
        <time>2023-04-21T13:55:03.000Z</time>
      </trkpt>
      <trkpt lat="44.51332" lon="6.23379">
        <ele>1425</ele>
        <time>2023-04-21T13:55:04.000Z</time>
      </trkpt>
      <trkpt lat="44.51333" lon="6.23383">
        <ele>1425</ele>
        <time>2023-04-21T13:55:05.000Z</time>
      </trkpt>
      <trkpt lat="44.51335" lon="6.23388">
        <ele>1425</ele>
        <time>2023-04-21T13:55:06.000Z</time>
      </trkpt>
      <trkpt lat="44.51336" lon="6.23391">
        <ele>1425</ele>
        <time>2023-04-21T13:55:07.000Z</time>
      </trkpt>
      <trkpt lat="44.51338" lon="6.23395">
        <ele>1425</ele>
        <time>2023-04-21T13:55:08.000Z</time>
      </trkpt>
      <trkpt lat="44.51339" lon="6.23398">
        <ele>1425</ele>
        <time>2023-04-21T13:55:09.000Z</time>
      </trkpt>
      <trkpt lat="44.51341" lon="6.23402">
        <ele>1426</ele>
        <time>2023-04-21T13:55:10.000Z</time>
      </trkpt>
      <trkpt lat="44.51343" lon="6.23405">
        <ele>1425</ele>
        <time>2023-04-21T13:55:11.000Z</time>
      </trkpt>
      <trkpt lat="44.51345" lon="6.23408">
        <ele>1426</ele>
        <time>2023-04-21T13:55:12.000Z</time>
      </trkpt>
      <trkpt lat="44.51347" lon="6.23412">
        <ele>1426</ele>
        <time>2023-04-21T13:55:13.000Z</time>
      </trkpt>
      <trkpt lat="44.51349" lon="6.23415">
        <ele>1427</ele>
        <time>2023-04-21T13:55:14.000Z</time>
      </trkpt>
      <trkpt lat="44.51351" lon="6.23418">
        <ele>1427</ele>
        <time>2023-04-21T13:55:15.000Z</time>
      </trkpt>
      <trkpt lat="44.51353" lon="6.2342">
        <ele>1427</ele>
        <time>2023-04-21T13:55:16.000Z</time>
      </trkpt>
      <trkpt lat="44.51356" lon="6.23423">
        <ele>1427</ele>
        <time>2023-04-21T13:55:17.000Z</time>
      </trkpt>
      <trkpt lat="44.51358" lon="6.23425">
        <ele>1427</ele>
        <time>2023-04-21T13:55:18.000Z</time>
      </trkpt>
      <trkpt lat="44.5136" lon="6.23428">
        <ele>1428</ele>
        <time>2023-04-21T13:55:19.000Z</time>
      </trkpt>
      <trkpt lat="44.51363" lon="6.23431">
        <ele>1427</ele>
        <time>2023-04-21T13:55:20.000Z</time>
      </trkpt>
      <trkpt lat="44.51366" lon="6.23434">
        <ele>1427</ele>
        <time>2023-04-21T13:55:21.000Z</time>
      </trkpt>
      <trkpt lat="44.51369" lon="6.23437">
        <ele>1427</ele>
        <time>2023-04-21T13:55:22.000Z</time>
      </trkpt>
      <trkpt lat="44.51371" lon="6.23441">
        <ele>1426</ele>
        <time>2023-04-21T13:55:23.000Z</time>
      </trkpt>
      <trkpt lat="44.51374" lon="6.23444">
        <ele>1426</ele>
        <time>2023-04-21T13:55:24.000Z</time>
      </trkpt>
      <trkpt lat="44.51377" lon="6.23448">
        <ele>1425</ele>
        <time>2023-04-21T13:55:25.000Z</time>
      </trkpt>
      <trkpt lat="44.51379" lon="6.23453">
        <ele>1425</ele>
        <time>2023-04-21T13:55:26.000Z</time>
      </trkpt>
      <trkpt lat="44.51382" lon="6.23458">
        <ele>1424</ele>
        <time>2023-04-21T13:55:27.000Z</time>
      </trkpt>
      <trkpt lat="44.51384" lon="6.23462">
        <ele>1424</ele>
        <time>2023-04-21T13:55:28.000Z</time>
      </trkpt>
      <trkpt lat="44.51386" lon="6.23468">
        <ele>1424</ele>
        <time>2023-04-21T13:55:29.000Z</time>
      </trkpt>
      <trkpt lat="44.51388" lon="6.23473">
        <ele>1424</ele>
        <time>2023-04-21T13:55:30.000Z</time>
      </trkpt>
      <trkpt lat="44.51389" lon="6.23478">
        <ele>1424</ele>
        <time>2023-04-21T13:55:31.000Z</time>
      </trkpt>
      <trkpt lat="44.51391" lon="6.23483">
        <ele>1424</ele>
        <time>2023-04-21T13:55:32.000Z</time>
      </trkpt>
      <trkpt lat="44.51393" lon="6.23489">
        <ele>1424</ele>
        <time>2023-04-21T13:55:33.000Z</time>
      </trkpt>
      <trkpt lat="44.51395" lon="6.23494">
        <ele>1424</ele>
        <time>2023-04-21T13:55:34.000Z</time>
      </trkpt>
      <trkpt lat="44.51397" lon="6.23499">
        <ele>1424</ele>
        <time>2023-04-21T13:55:35.000Z</time>
      </trkpt>
      <trkpt lat="44.51399" lon="6.23503">
        <ele>1424</ele>
        <time>2023-04-21T13:55:36.000Z</time>
      </trkpt>
      <trkpt lat="44.51401" lon="6.23507">
        <ele>1424</ele>
        <time>2023-04-21T13:55:37.000Z</time>
      </trkpt>
      <trkpt lat="44.51402" lon="6.2351">
        <ele>1424</ele>
        <time>2023-04-21T13:55:38.000Z</time>
      </trkpt>
      <trkpt lat="44.51404" lon="6.23514">
        <ele>1424</ele>
        <time>2023-04-21T13:55:39.000Z</time>
      </trkpt>
      <trkpt lat="44.51406" lon="6.23517">
        <ele>1424</ele>
        <time>2023-04-21T13:55:40.000Z</time>
      </trkpt>
      <trkpt lat="44.51408" lon="6.23521">
        <ele>1424</ele>
        <time>2023-04-21T13:55:41.000Z</time>
      </trkpt>
      <trkpt lat="44.51411" lon="6.23525">
        <ele>1424</ele>
        <time>2023-04-21T13:55:42.000Z</time>
      </trkpt>
      <trkpt lat="44.51413" lon="6.23529">
        <ele>1424</ele>
        <time>2023-04-21T13:55:43.000Z</time>
      </trkpt>
      <trkpt lat="44.51415" lon="6.23533">
        <ele>1425</ele>
        <time>2023-04-21T13:55:44.000Z</time>
      </trkpt>
      <trkpt lat="44.51418" lon="6.23537">
        <ele>1425</ele>
        <time>2023-04-21T13:55:45.000Z</time>
      </trkpt>
      <trkpt lat="44.5142" lon="6.2354">
        <ele>1425</ele>
        <time>2023-04-21T13:55:46.000Z</time>
      </trkpt>
      <trkpt lat="44.51423" lon="6.23543">
        <ele>1425</ele>
        <time>2023-04-21T13:55:47.000Z</time>
      </trkpt>
      <trkpt lat="44.51425" lon="6.23547">
        <ele>1425</ele>
        <time>2023-04-21T13:55:48.000Z</time>
      </trkpt>
      <trkpt lat="44.51428" lon="6.23551">
        <ele>1426</ele>
        <time>2023-04-21T13:55:49.000Z</time>
      </trkpt>
      <trkpt lat="44.5143" lon="6.23555">
        <ele>1426</ele>
        <time>2023-04-21T13:55:50.000Z</time>
      </trkpt>
      <trkpt lat="44.51432" lon="6.23559">
        <ele>1426</ele>
        <time>2023-04-21T13:55:51.000Z</time>
      </trkpt>
      <trkpt lat="44.51434" lon="6.23563">
        <ele>1426</ele>
        <time>2023-04-21T13:55:52.000Z</time>
      </trkpt>
      <trkpt lat="44.51436" lon="6.23567">
        <ele>1427</ele>
        <time>2023-04-21T13:55:53.000Z</time>
      </trkpt>
      <trkpt lat="44.51438" lon="6.23571">
        <ele>1427</ele>
        <time>2023-04-21T13:55:54.000Z</time>
      </trkpt>
      <trkpt lat="44.5144" lon="6.23575">
        <ele>1428</ele>
        <time>2023-04-21T13:55:55.000Z</time>
      </trkpt>
      <trkpt lat="44.51442" lon="6.23579">
        <ele>1428</ele>
        <time>2023-04-21T13:55:56.000Z</time>
      </trkpt>
      <trkpt lat="44.51444" lon="6.23583">
        <ele>1429</ele>
        <time>2023-04-21T13:55:57.000Z</time>
      </trkpt>
      <trkpt lat="44.51446" lon="6.23586">
        <ele>1429</ele>
        <time>2023-04-21T13:55:58.000Z</time>
      </trkpt>
      <trkpt lat="44.51448" lon="6.23589">
        <ele>1429</ele>
        <time>2023-04-21T13:55:59.000Z</time>
      </trkpt>
      <trkpt lat="44.5145" lon="6.23593">
        <ele>1429</ele>
        <time>2023-04-21T13:56:00.000Z</time>
      </trkpt>
      <trkpt lat="44.51452" lon="6.23596">
        <ele>1430</ele>
        <time>2023-04-21T13:56:01.000Z</time>
      </trkpt>
      <trkpt lat="44.51454" lon="6.23599">
        <ele>1431</ele>
        <time>2023-04-21T13:56:02.000Z</time>
      </trkpt>
      <trkpt lat="44.51456" lon="6.23603">
        <ele>1431</ele>
        <time>2023-04-21T13:56:03.000Z</time>
      </trkpt>
      <trkpt lat="44.51458" lon="6.23607">
        <ele>1431</ele>
        <time>2023-04-21T13:56:04.000Z</time>
      </trkpt>
      <trkpt lat="44.5146" lon="6.23611">
        <ele>1432</ele>
        <time>2023-04-21T13:56:05.000Z</time>
      </trkpt>
      <trkpt lat="44.51461" lon="6.23615">
        <ele>1432</ele>
        <time>2023-04-21T13:56:06.000Z</time>
      </trkpt>
      <trkpt lat="44.51463" lon="6.23619">
        <ele>1433</ele>
        <time>2023-04-21T13:56:07.000Z</time>
      </trkpt>
      <trkpt lat="44.51464" lon="6.23623">
        <ele>1434</ele>
        <time>2023-04-21T13:56:08.000Z</time>
      </trkpt>
      <trkpt lat="44.51466" lon="6.23627">
        <ele>1434</ele>
        <time>2023-04-21T13:56:09.000Z</time>
      </trkpt>
      <trkpt lat="44.51467" lon="6.2363">
        <ele>1434</ele>
        <time>2023-04-21T13:56:10.000Z</time>
      </trkpt>
      <trkpt lat="44.51469" lon="6.23634">
        <ele>1435</ele>
        <time>2023-04-21T13:56:11.000Z</time>
      </trkpt>
      <trkpt lat="44.5147" lon="6.23638">
        <ele>1435</ele>
        <time>2023-04-21T13:56:12.000Z</time>
      </trkpt>
      <trkpt lat="44.51471" lon="6.23643">
        <ele>1435</ele>
        <time>2023-04-21T13:56:13.000Z</time>
      </trkpt>
      <trkpt lat="44.51471" lon="6.23647">
        <ele>1435</ele>
        <time>2023-04-21T13:56:14.000Z</time>
      </trkpt>
      <trkpt lat="44.51472" lon="6.23652">
        <ele>1436</ele>
        <time>2023-04-21T13:56:15.000Z</time>
      </trkpt>
      <trkpt lat="44.51472" lon="6.23656">
        <ele>1437</ele>
        <time>2023-04-21T13:56:16.000Z</time>
      </trkpt>
      <trkpt lat="44.51471" lon="6.2366">
        <ele>1438</ele>
        <time>2023-04-21T13:56:17.000Z</time>
      </trkpt>
      <trkpt lat="44.5147" lon="6.23664">
        <ele>1438</ele>
        <time>2023-04-21T13:56:18.000Z</time>
      </trkpt>
      <trkpt lat="44.51469" lon="6.23668">
        <ele>1439</ele>
        <time>2023-04-21T13:56:19.000Z</time>
      </trkpt>
      <trkpt lat="44.51468" lon="6.23672">
        <ele>1438</ele>
        <time>2023-04-21T13:56:20.000Z</time>
      </trkpt>
      <trkpt lat="44.51466" lon="6.23676">
        <ele>1438</ele>
        <time>2023-04-21T13:56:21.000Z</time>
      </trkpt>
      <trkpt lat="44.51465" lon="6.23678">
        <ele>1438</ele>
        <time>2023-04-21T13:56:22.000Z</time>
      </trkpt>
      <trkpt lat="44.51464" lon="6.23682">
        <ele>1438</ele>
        <time>2023-04-21T13:56:23.000Z</time>
      </trkpt>
      <trkpt lat="44.51463" lon="6.23685">
        <ele>1438</ele>
        <time>2023-04-21T13:56:24.000Z</time>
      </trkpt>
      <trkpt lat="44.51462" lon="6.23689">
        <ele>1439</ele>
        <time>2023-04-21T13:56:25.000Z</time>
      </trkpt>
      <trkpt lat="44.51462" lon="6.23692">
        <ele>1439</ele>
        <time>2023-04-21T13:56:26.000Z</time>
      </trkpt>
      <trkpt lat="44.51461" lon="6.23696">
        <ele>1440</ele>
        <time>2023-04-21T13:56:27.000Z</time>
      </trkpt>
      <trkpt lat="44.51462" lon="6.23702">
        <ele>1440</ele>
        <time>2023-04-21T13:56:28.000Z</time>
      </trkpt>
      <trkpt lat="44.51462" lon="6.23706">
        <ele>1440</ele>
        <time>2023-04-21T13:56:29.000Z</time>
      </trkpt>
      <trkpt lat="44.51463" lon="6.2371">
        <ele>1440</ele>
        <time>2023-04-21T13:56:30.000Z</time>
      </trkpt>
      <trkpt lat="44.51463" lon="6.23715">
        <ele>1439</ele>
        <time>2023-04-21T13:56:31.000Z</time>
      </trkpt>
      <trkpt lat="44.51464" lon="6.23719">
        <ele>1440</ele>
        <time>2023-04-21T13:56:32.000Z</time>
      </trkpt>
      <trkpt lat="44.51464" lon="6.23723">
        <ele>1440</ele>
        <time>2023-04-21T13:56:33.000Z</time>
      </trkpt>
      <trkpt lat="44.51464" lon="6.23727">
        <ele>1440</ele>
        <time>2023-04-21T13:56:34.000Z</time>
      </trkpt>
      <trkpt lat="44.51464" lon="6.23731">
        <ele>1440</ele>
        <time>2023-04-21T13:56:35.000Z</time>
      </trkpt>
      <trkpt lat="44.51464" lon="6.23735">
        <ele>1440</ele>
        <time>2023-04-21T13:56:36.000Z</time>
      </trkpt>
      <trkpt lat="44.51464" lon="6.23739">
        <ele>1440</ele>
        <time>2023-04-21T13:56:37.000Z</time>
      </trkpt>
      <trkpt lat="44.51464" lon="6.23743">
        <ele>1440</ele>
        <time>2023-04-21T13:56:38.000Z</time>
      </trkpt>
      <trkpt lat="44.51463" lon="6.23747">
        <ele>1439</ele>
        <time>2023-04-21T13:56:39.000Z</time>
      </trkpt>
      <trkpt lat="44.51463" lon="6.23751">
        <ele>1439</ele>
        <time>2023-04-21T13:56:40.000Z</time>
      </trkpt>
      <trkpt lat="44.51462" lon="6.23755">
        <ele>1439</ele>
        <time>2023-04-21T13:56:41.000Z</time>
      </trkpt>
      <trkpt lat="44.51461" lon="6.23759">
        <ele>1439</ele>
        <time>2023-04-21T13:56:42.000Z</time>
      </trkpt>
      <trkpt lat="44.51461" lon="6.23763">
        <ele>1439</ele>
        <time>2023-04-21T13:56:43.000Z</time>
      </trkpt>
      <trkpt lat="44.5146" lon="6.23767">
        <ele>1439</ele>
        <time>2023-04-21T13:56:44.000Z</time>
      </trkpt>
      <trkpt lat="44.51459" lon="6.2377">
        <ele>1439</ele>
        <time>2023-04-21T13:56:45.000Z</time>
      </trkpt>
      <trkpt lat="44.51458" lon="6.23774">
        <ele>1439</ele>
        <time>2023-04-21T13:56:46.000Z</time>
      </trkpt>
      <trkpt lat="44.51458" lon="6.23778">
        <ele>1438</ele>
        <time>2023-04-21T13:56:47.000Z</time>
      </trkpt>
      <trkpt lat="44.51456" lon="6.23781">
        <ele>1438</ele>
        <time>2023-04-21T13:56:48.000Z</time>
      </trkpt>
      <trkpt lat="44.51455" lon="6.23784">
        <ele>1438</ele>
        <time>2023-04-21T13:56:49.000Z</time>
      </trkpt>
      <trkpt lat="44.51454" lon="6.23787">
        <ele>1438</ele>
        <time>2023-04-21T13:56:50.000Z</time>
      </trkpt>
      <trkpt lat="44.51454" lon="6.23792">
        <ele>1438</ele>
        <time>2023-04-21T13:56:51.000Z</time>
      </trkpt>
      <trkpt lat="44.51453" lon="6.23796">
        <ele>1438</ele>
        <time>2023-04-21T13:56:52.000Z</time>
      </trkpt>
      <trkpt lat="44.51452" lon="6.238">
        <ele>1438</ele>
        <time>2023-04-21T13:56:53.000Z</time>
      </trkpt>
      <trkpt lat="44.51451" lon="6.23803">
        <ele>1437</ele>
        <time>2023-04-21T13:56:54.000Z</time>
      </trkpt>
      <trkpt lat="44.5145" lon="6.23807">
        <ele>1437</ele>
        <time>2023-04-21T13:56:55.000Z</time>
      </trkpt>
      <trkpt lat="44.51449" lon="6.23811">
        <ele>1437</ele>
        <time>2023-04-21T13:56:56.000Z</time>
      </trkpt>
      <trkpt lat="44.51448" lon="6.23815">
        <ele>1436</ele>
        <time>2023-04-21T13:56:57.000Z</time>
      </trkpt>
      <trkpt lat="44.51447" lon="6.23819">
        <ele>1437</ele>
        <time>2023-04-21T13:56:58.000Z</time>
      </trkpt>
      <trkpt lat="44.51445" lon="6.23823">
        <ele>1438</ele>
        <time>2023-04-21T13:56:59.000Z</time>
      </trkpt>
      <trkpt lat="44.51443" lon="6.23827">
        <ele>1438</ele>
        <time>2023-04-21T13:57:00.000Z</time>
      </trkpt>
      <trkpt lat="44.5144" lon="6.23829">
        <ele>1438</ele>
        <time>2023-04-21T13:57:01.000Z</time>
      </trkpt>
      <trkpt lat="44.51438" lon="6.23832">
        <ele>1439</ele>
        <time>2023-04-21T13:57:02.000Z</time>
      </trkpt>
      <trkpt lat="44.51436" lon="6.23835">
        <ele>1439</ele>
        <time>2023-04-21T13:57:03.000Z</time>
      </trkpt>
      <trkpt lat="44.51433" lon="6.23837">
        <ele>1439</ele>
        <time>2023-04-21T13:57:04.000Z</time>
      </trkpt>
      <trkpt lat="44.5143" lon="6.23839">
        <ele>1440</ele>
        <time>2023-04-21T13:57:05.000Z</time>
      </trkpt>
      <trkpt lat="44.51427" lon="6.23841">
        <ele>1440</ele>
        <time>2023-04-21T13:57:06.000Z</time>
      </trkpt>
      <trkpt lat="44.51425" lon="6.23843">
        <ele>1440</ele>
        <time>2023-04-21T13:57:07.000Z</time>
      </trkpt>
      <trkpt lat="44.51422" lon="6.23845">
        <ele>1441</ele>
        <time>2023-04-21T13:57:08.000Z</time>
      </trkpt>
      <trkpt lat="44.51419" lon="6.23845">
        <ele>1440</ele>
        <time>2023-04-21T13:57:09.000Z</time>
      </trkpt>
      <trkpt lat="44.51416" lon="6.23847">
        <ele>1440</ele>
        <time>2023-04-21T13:57:10.000Z</time>
      </trkpt>
      <trkpt lat="44.51413" lon="6.23848">
        <ele>1441</ele>
        <time>2023-04-21T13:57:11.000Z</time>
      </trkpt>
      <trkpt lat="44.51411" lon="6.2385">
        <ele>1441</ele>
        <time>2023-04-21T13:57:12.000Z</time>
      </trkpt>
      <trkpt lat="44.51408" lon="6.23852">
        <ele>1442</ele>
        <time>2023-04-21T13:57:13.000Z</time>
      </trkpt>
      <trkpt lat="44.51405" lon="6.23855">
        <ele>1441</ele>
        <time>2023-04-21T13:57:14.000Z</time>
      </trkpt>
      <trkpt lat="44.51402" lon="6.23857">
        <ele>1441</ele>
        <time>2023-04-21T13:57:15.000Z</time>
      </trkpt>
      <trkpt lat="44.514" lon="6.23859">
        <ele>1441</ele>
        <time>2023-04-21T13:57:16.000Z</time>
      </trkpt>
      <trkpt lat="44.51397" lon="6.2386">
        <ele>1442</ele>
        <time>2023-04-21T13:57:17.000Z</time>
      </trkpt>
      <trkpt lat="44.51394" lon="6.23862">
        <ele>1442</ele>
        <time>2023-04-21T13:57:18.000Z</time>
      </trkpt>
      <trkpt lat="44.51391" lon="6.23863">
        <ele>1442</ele>
        <time>2023-04-21T13:57:19.000Z</time>
      </trkpt>
      <trkpt lat="44.51388" lon="6.23864">
        <ele>1442</ele>
        <time>2023-04-21T13:57:20.000Z</time>
      </trkpt>
      <trkpt lat="44.51385" lon="6.23865">
        <ele>1442</ele>
        <time>2023-04-21T13:57:21.000Z</time>
      </trkpt>
      <trkpt lat="44.51382" lon="6.23867">
        <ele>1441</ele>
        <time>2023-04-21T13:57:22.000Z</time>
      </trkpt>
      <trkpt lat="44.51379" lon="6.23868">
        <ele>1441</ele>
        <time>2023-04-21T13:57:23.000Z</time>
      </trkpt>
      <trkpt lat="44.51376" lon="6.23869">
        <ele>1441</ele>
        <time>2023-04-21T13:57:24.000Z</time>
      </trkpt>
      <trkpt lat="44.51374" lon="6.23871">
        <ele>1441</ele>
        <time>2023-04-21T13:57:25.000Z</time>
      </trkpt>
      <trkpt lat="44.51371" lon="6.23873">
        <ele>1441</ele>
        <time>2023-04-21T13:57:26.000Z</time>
      </trkpt>
      <trkpt lat="44.51369" lon="6.23875">
        <ele>1441</ele>
        <time>2023-04-21T13:57:27.000Z</time>
      </trkpt>
      <trkpt lat="44.51365" lon="6.23876">
        <ele>1441</ele>
        <time>2023-04-21T13:57:28.000Z</time>
      </trkpt>
      <trkpt lat="44.51362" lon="6.23878">
        <ele>1441</ele>
        <time>2023-04-21T13:57:29.000Z</time>
      </trkpt>
      <trkpt lat="44.51359" lon="6.2388">
        <ele>1440</ele>
        <time>2023-04-21T13:57:30.000Z</time>
      </trkpt>
      <trkpt lat="44.51356" lon="6.23884">
        <ele>1439</ele>
        <time>2023-04-21T13:57:31.000Z</time>
      </trkpt>
      <trkpt lat="44.51353" lon="6.23887">
        <ele>1438</ele>
        <time>2023-04-21T13:57:32.000Z</time>
      </trkpt>
      <trkpt lat="44.51349" lon="6.2389">
        <ele>1437</ele>
        <time>2023-04-21T13:57:33.000Z</time>
      </trkpt>
      <trkpt lat="44.51346" lon="6.23893">
        <ele>1437</ele>
        <time>2023-04-21T13:57:34.000Z</time>
      </trkpt>
      <trkpt lat="44.51343" lon="6.23897">
        <ele>1436</ele>
        <time>2023-04-21T13:57:35.000Z</time>
      </trkpt>
      <trkpt lat="44.5134" lon="6.23901">
        <ele>1437</ele>
        <time>2023-04-21T13:57:36.000Z</time>
      </trkpt>
      <trkpt lat="44.51337" lon="6.23904">
        <ele>1437</ele>
        <time>2023-04-21T13:57:37.000Z</time>
      </trkpt>
      <trkpt lat="44.51334" lon="6.23908">
        <ele>1437</ele>
        <time>2023-04-21T13:57:38.000Z</time>
      </trkpt>
      <trkpt lat="44.51331" lon="6.2391">
        <ele>1437</ele>
        <time>2023-04-21T13:57:39.000Z</time>
      </trkpt>
      <trkpt lat="44.51328" lon="6.23912">
        <ele>1437</ele>
        <time>2023-04-21T13:57:40.000Z</time>
      </trkpt>
      <trkpt lat="44.51325" lon="6.23916">
        <ele>1438</ele>
        <time>2023-04-21T13:57:41.000Z</time>
      </trkpt>
      <trkpt lat="44.51322" lon="6.2392">
        <ele>1439</ele>
        <time>2023-04-21T13:57:42.000Z</time>
      </trkpt>
      <trkpt lat="44.51319" lon="6.23922">
        <ele>1440</ele>
        <time>2023-04-21T13:57:43.000Z</time>
      </trkpt>
      <trkpt lat="44.51315" lon="6.23924">
        <ele>1440</ele>
        <time>2023-04-21T13:57:44.000Z</time>
      </trkpt>
      <trkpt lat="44.51311" lon="6.23925">
        <ele>1440</ele>
        <time>2023-04-21T13:57:45.000Z</time>
      </trkpt>
      <trkpt lat="44.51307" lon="6.23926">
        <ele>1442</ele>
        <time>2023-04-21T13:57:46.000Z</time>
      </trkpt>
      <trkpt lat="44.51303" lon="6.23927">
        <ele>1441</ele>
        <time>2023-04-21T13:57:47.000Z</time>
      </trkpt>
      <trkpt lat="44.51298" lon="6.23926">
        <ele>1441</ele>
        <time>2023-04-21T13:57:48.000Z</time>
      </trkpt>
      <trkpt lat="44.51294" lon="6.23926">
        <ele>1442</ele>
        <time>2023-04-21T13:57:49.000Z</time>
      </trkpt>
      <trkpt lat="44.5129" lon="6.23927">
        <ele>1442</ele>
        <time>2023-04-21T13:57:50.000Z</time>
      </trkpt>
      <trkpt lat="44.51287" lon="6.23926">
        <ele>1441</ele>
        <time>2023-04-21T13:57:51.000Z</time>
      </trkpt>
      <trkpt lat="44.51284" lon="6.23926">
        <ele>1442</ele>
        <time>2023-04-21T13:57:52.000Z</time>
      </trkpt>
      <trkpt lat="44.51281" lon="6.23925">
        <ele>1443</ele>
        <time>2023-04-21T13:57:53.000Z</time>
      </trkpt>
      <trkpt lat="44.51278" lon="6.23925">
        <ele>1445</ele>
        <time>2023-04-21T13:57:54.000Z</time>
      </trkpt>
      <trkpt lat="44.51275" lon="6.23924">
        <ele>1445</ele>
        <time>2023-04-21T13:57:55.000Z</time>
      </trkpt>
      <trkpt lat="44.51271" lon="6.23923">
        <ele>1445</ele>
        <time>2023-04-21T13:57:56.000Z</time>
      </trkpt>
      <trkpt lat="44.51267" lon="6.23923">
        <ele>1444</ele>
        <time>2023-04-21T13:57:57.000Z</time>
      </trkpt>
      <trkpt lat="44.51262" lon="6.23923">
        <ele>1444</ele>
        <time>2023-04-21T13:57:58.000Z</time>
      </trkpt>
      <trkpt lat="44.51259" lon="6.23925">
        <ele>1445</ele>
        <time>2023-04-21T13:57:59.000Z</time>
      </trkpt>
      <trkpt lat="44.51255" lon="6.23926">
        <ele>1445</ele>
        <time>2023-04-21T13:58:00.000Z</time>
      </trkpt>
      <trkpt lat="44.51251" lon="6.23927">
        <ele>1445</ele>
        <time>2023-04-21T13:58:01.000Z</time>
      </trkpt>
      <trkpt lat="44.51248" lon="6.23929">
        <ele>1445</ele>
        <time>2023-04-21T13:58:02.000Z</time>
      </trkpt>
      <trkpt lat="44.51245" lon="6.23932">
        <ele>1445</ele>
        <time>2023-04-21T13:58:03.000Z</time>
      </trkpt>
      <trkpt lat="44.51242" lon="6.23935">
        <ele>1445</ele>
        <time>2023-04-21T13:58:04.000Z</time>
      </trkpt>
      <trkpt lat="44.51239" lon="6.23939">
        <ele>1445</ele>
        <time>2023-04-21T13:58:05.000Z</time>
      </trkpt>
      <trkpt lat="44.51236" lon="6.23943">
        <ele>1444</ele>
        <time>2023-04-21T13:58:06.000Z</time>
      </trkpt>
      <trkpt lat="44.51232" lon="6.23947">
        <ele>1444</ele>
        <time>2023-04-21T13:58:07.000Z</time>
      </trkpt>
      <trkpt lat="44.51229" lon="6.23952">
        <ele>1444</ele>
        <time>2023-04-21T13:58:08.000Z</time>
      </trkpt>
      <trkpt lat="44.51226" lon="6.23956">
        <ele>1444</ele>
        <time>2023-04-21T13:58:09.000Z</time>
      </trkpt>
      <trkpt lat="44.51224" lon="6.2396">
        <ele>1444</ele>
        <time>2023-04-21T13:58:10.000Z</time>
      </trkpt>
      <trkpt lat="44.51221" lon="6.23964">
        <ele>1443</ele>
        <time>2023-04-21T13:58:11.000Z</time>
      </trkpt>
      <trkpt lat="44.51217" lon="6.23969">
        <ele>1442</ele>
        <time>2023-04-21T13:58:12.000Z</time>
      </trkpt>
      <trkpt lat="44.51214" lon="6.23973">
        <ele>1441</ele>
        <time>2023-04-21T13:58:13.000Z</time>
      </trkpt>
      <trkpt lat="44.51211" lon="6.23977">
        <ele>1440</ele>
        <time>2023-04-21T13:58:14.000Z</time>
      </trkpt>
      <trkpt lat="44.51208" lon="6.2398">
        <ele>1439</ele>
        <time>2023-04-21T13:58:15.000Z</time>
      </trkpt>
      <trkpt lat="44.51206" lon="6.23984">
        <ele>1438</ele>
        <time>2023-04-21T13:58:16.000Z</time>
      </trkpt>
      <trkpt lat="44.51203" lon="6.23987">
        <ele>1436</ele>
        <time>2023-04-21T13:58:17.000Z</time>
      </trkpt>
      <trkpt lat="44.512" lon="6.2399">
        <ele>1436</ele>
        <time>2023-04-21T13:58:18.000Z</time>
      </trkpt>
      <trkpt lat="44.51198" lon="6.23993">
        <ele>1436</ele>
        <time>2023-04-21T13:58:19.000Z</time>
      </trkpt>
      <trkpt lat="44.51195" lon="6.23996">
        <ele>1436</ele>
        <time>2023-04-21T13:58:20.000Z</time>
      </trkpt>
      <trkpt lat="44.51192" lon="6.24001">
        <ele>1436</ele>
        <time>2023-04-21T13:58:21.000Z</time>
      </trkpt>
      <trkpt lat="44.51189" lon="6.24005">
        <ele>1439</ele>
        <time>2023-04-21T13:58:22.000Z</time>
      </trkpt>
      <trkpt lat="44.51186" lon="6.24009">
        <ele>1441</ele>
        <time>2023-04-21T13:58:23.000Z</time>
      </trkpt>
      <trkpt lat="44.51183" lon="6.24012">
        <ele>1441</ele>
        <time>2023-04-21T13:58:24.000Z</time>
      </trkpt>
      <trkpt lat="44.5118" lon="6.24015">
        <ele>1442</ele>
        <time>2023-04-21T13:58:25.000Z</time>
      </trkpt>
      <trkpt lat="44.51176" lon="6.24017">
        <ele>1442</ele>
        <time>2023-04-21T13:58:26.000Z</time>
      </trkpt>
      <trkpt lat="44.51173" lon="6.2402">
        <ele>1442</ele>
        <time>2023-04-21T13:58:27.000Z</time>
      </trkpt>
      <trkpt lat="44.5117" lon="6.24024">
        <ele>1442</ele>
        <time>2023-04-21T13:58:28.000Z</time>
      </trkpt>
      <trkpt lat="44.51168" lon="6.24028">
        <ele>1442</ele>
        <time>2023-04-21T13:58:29.000Z</time>
      </trkpt>
      <trkpt lat="44.51167" lon="6.24033">
        <ele>1442</ele>
        <time>2023-04-21T13:58:30.000Z</time>
      </trkpt>
      <trkpt lat="44.51165" lon="6.24038">
        <ele>1442</ele>
        <time>2023-04-21T13:58:31.000Z</time>
      </trkpt>
      <trkpt lat="44.51163" lon="6.24042">
        <ele>1443</ele>
        <time>2023-04-21T13:58:32.000Z</time>
      </trkpt>
      <trkpt lat="44.51163" lon="6.24047">
        <ele>1444</ele>
        <time>2023-04-21T13:58:33.000Z</time>
      </trkpt>
      <trkpt lat="44.51164" lon="6.24054">
        <ele>1445</ele>
        <time>2023-04-21T13:58:34.000Z</time>
      </trkpt>
      <trkpt lat="44.51167" lon="6.24059">
        <ele>1447</ele>
        <time>2023-04-21T13:58:35.000Z</time>
      </trkpt>
      <trkpt lat="44.5117" lon="6.24065">
        <ele>1446</ele>
        <time>2023-04-21T13:58:36.000Z</time>
      </trkpt>
      <trkpt lat="44.51172" lon="6.2407">
        <ele>1446</ele>
        <time>2023-04-21T13:58:37.000Z</time>
      </trkpt>
      <trkpt lat="44.51175" lon="6.24075">
        <ele>1446</ele>
        <time>2023-04-21T13:58:38.000Z</time>
      </trkpt>
      <trkpt lat="44.51177" lon="6.2408">
        <ele>1446</ele>
        <time>2023-04-21T13:58:39.000Z</time>
      </trkpt>
      <trkpt lat="44.5118" lon="6.24084">
        <ele>1446</ele>
        <time>2023-04-21T13:58:40.000Z</time>
      </trkpt>
      <trkpt lat="44.51183" lon="6.24089">
        <ele>1446</ele>
        <time>2023-04-21T13:58:41.000Z</time>
      </trkpt>
      <trkpt lat="44.51185" lon="6.24094">
        <ele>1446</ele>
        <time>2023-04-21T13:58:42.000Z</time>
      </trkpt>
      <trkpt lat="44.51187" lon="6.24099">
        <ele>1446</ele>
        <time>2023-04-21T13:58:43.000Z</time>
      </trkpt>
      <trkpt lat="44.51189" lon="6.24103">
        <ele>1447</ele>
        <time>2023-04-21T13:58:44.000Z</time>
      </trkpt>
      <trkpt lat="44.51191" lon="6.24108">
        <ele>1447</ele>
        <time>2023-04-21T13:58:45.000Z</time>
      </trkpt>
      <trkpt lat="44.51191" lon="6.24113">
        <ele>1448</ele>
        <time>2023-04-21T13:58:46.000Z</time>
      </trkpt>
      <trkpt lat="44.51193" lon="6.24118">
        <ele>1449</ele>
        <time>2023-04-21T13:58:47.000Z</time>
      </trkpt>
      <trkpt lat="44.51194" lon="6.24124">
        <ele>1449</ele>
        <time>2023-04-21T13:58:48.000Z</time>
      </trkpt>
      <trkpt lat="44.51197" lon="6.24136">
        <ele>1446</ele>
        <time>2023-04-21T13:58:49.000Z</time>
      </trkpt>
      <trkpt lat="44.51199" lon="6.24146">
        <ele>1445</ele>
        <time>2023-04-21T13:58:50.000Z</time>
      </trkpt>
      <trkpt lat="44.51201" lon="6.24155">
        <ele>1445</ele>
        <time>2023-04-21T13:58:51.000Z</time>
      </trkpt>
      <trkpt lat="44.51203" lon="6.24164">
        <ele>1445</ele>
        <time>2023-04-21T13:58:52.000Z</time>
      </trkpt>
      <trkpt lat="44.51204" lon="6.24173">
        <ele>1445</ele>
        <time>2023-04-21T13:58:53.000Z</time>
      </trkpt>
      <trkpt lat="44.51205" lon="6.24182">
        <ele>1445</ele>
        <time>2023-04-21T13:58:54.000Z</time>
      </trkpt>
      <trkpt lat="44.51206" lon="6.2419">
        <ele>1445</ele>
        <time>2023-04-21T13:58:55.000Z</time>
      </trkpt>
      <trkpt lat="44.51207" lon="6.24199">
        <ele>1445</ele>
        <time>2023-04-21T13:58:56.000Z</time>
      </trkpt>
      <trkpt lat="44.51208" lon="6.24207">
        <ele>1444</ele>
        <time>2023-04-21T13:58:57.000Z</time>
      </trkpt>
      <trkpt lat="44.51208" lon="6.24215">
        <ele>1444</ele>
        <time>2023-04-21T13:58:58.000Z</time>
      </trkpt>
      <trkpt lat="44.51208" lon="6.24222">
        <ele>1444</ele>
        <time>2023-04-21T13:58:59.000Z</time>
      </trkpt>
      <trkpt lat="44.51207" lon="6.24228">
        <ele>1444</ele>
        <time>2023-04-21T13:59:00.000Z</time>
      </trkpt>
      <trkpt lat="44.51206" lon="6.24233">
        <ele>1443</ele>
        <time>2023-04-21T13:59:01.000Z</time>
      </trkpt>
      <trkpt lat="44.51205" lon="6.24238">
        <ele>1444</ele>
        <time>2023-04-21T13:59:02.000Z</time>
      </trkpt>
      <trkpt lat="44.51203" lon="6.24241">
        <ele>1445</ele>
        <time>2023-04-21T13:59:03.000Z</time>
      </trkpt>
      <trkpt lat="44.51202" lon="6.24243">
        <ele>1447</ele>
        <time>2023-04-21T13:59:04.000Z</time>
      </trkpt>
      <trkpt lat="44.51201" lon="6.24246">
        <ele>1446</ele>
        <time>2023-04-21T13:59:05.000Z</time>
      </trkpt>
      <trkpt lat="44.51198" lon="6.24249">
        <ele>1444</ele>
        <time>2023-04-21T13:59:06.000Z</time>
      </trkpt>
      <trkpt lat="44.51197" lon="6.24251">
        <ele>1446</ele>
        <time>2023-04-21T13:59:07.000Z</time>
      </trkpt>
      <trkpt lat="44.51196" lon="6.24254">
        <ele>1446</ele>
        <time>2023-04-21T13:59:08.000Z</time>
      </trkpt>
      <trkpt lat="44.51193" lon="6.24257">
        <ele>1445</ele>
        <time>2023-04-21T13:59:09.000Z</time>
      </trkpt>
      <trkpt lat="44.51192" lon="6.2426">
        <ele>1446</ele>
        <time>2023-04-21T13:59:10.000Z</time>
      </trkpt>
      <trkpt lat="44.51191" lon="6.24263">
        <ele>1448</ele>
        <time>2023-04-21T13:59:11.000Z</time>
      </trkpt>
      <trkpt lat="44.51189" lon="6.24266">
        <ele>1448</ele>
        <time>2023-04-21T13:59:12.000Z</time>
      </trkpt>
      <trkpt lat="44.51187" lon="6.24268">
        <ele>1448</ele>
        <time>2023-04-21T13:59:13.000Z</time>
      </trkpt>
      <trkpt lat="44.51185" lon="6.24271">
        <ele>1448</ele>
        <time>2023-04-21T13:59:14.000Z</time>
      </trkpt>
      <trkpt lat="44.51182" lon="6.24273">
        <ele>1448</ele>
        <time>2023-04-21T13:59:15.000Z</time>
      </trkpt>
      <trkpt lat="44.5118" lon="6.24276">
        <ele>1448</ele>
        <time>2023-04-21T13:59:16.000Z</time>
      </trkpt>
      <trkpt lat="44.51177" lon="6.24277">
        <ele>1448</ele>
        <time>2023-04-21T13:59:17.000Z</time>
      </trkpt>
      <trkpt lat="44.51174" lon="6.24279">
        <ele>1449</ele>
        <time>2023-04-21T13:59:18.000Z</time>
      </trkpt>
      <trkpt lat="44.51172" lon="6.24281">
        <ele>1450</ele>
        <time>2023-04-21T13:59:19.000Z</time>
      </trkpt>
      <trkpt lat="44.51169" lon="6.24282">
        <ele>1451</ele>
        <time>2023-04-21T13:59:20.000Z</time>
      </trkpt>
      <trkpt lat="44.51167" lon="6.24284">
        <ele>1453</ele>
        <time>2023-04-21T13:59:21.000Z</time>
      </trkpt>
      <trkpt lat="44.51165" lon="6.24285">
        <ele>1453</ele>
        <time>2023-04-21T13:59:22.000Z</time>
      </trkpt>
      <trkpt lat="44.51162" lon="6.24287">
        <ele>1453</ele>
        <time>2023-04-21T13:59:23.000Z</time>
      </trkpt>
      <trkpt lat="44.51159" lon="6.24288">
        <ele>1453</ele>
        <time>2023-04-21T13:59:24.000Z</time>
      </trkpt>
      <trkpt lat="44.51157" lon="6.2429">
        <ele>1453</ele>
        <time>2023-04-21T13:59:25.000Z</time>
      </trkpt>
      <trkpt lat="44.51155" lon="6.24293">
        <ele>1453</ele>
        <time>2023-04-21T13:59:26.000Z</time>
      </trkpt>
      <trkpt lat="44.51152" lon="6.24295">
        <ele>1453</ele>
        <time>2023-04-21T13:59:27.000Z</time>
      </trkpt>
      <trkpt lat="44.51151" lon="6.24297">
        <ele>1453</ele>
        <time>2023-04-21T13:59:28.000Z</time>
      </trkpt>
      <trkpt lat="44.51149" lon="6.24299">
        <ele>1453</ele>
        <time>2023-04-21T13:59:29.000Z</time>
      </trkpt>
      <trkpt lat="44.51148" lon="6.24301">
        <ele>1453</ele>
        <time>2023-04-21T13:59:30.000Z</time>
      </trkpt>
      <trkpt lat="44.51146" lon="6.24303">
        <ele>1453</ele>
        <time>2023-04-21T13:59:31.000Z</time>
      </trkpt>
      <trkpt lat="44.51145" lon="6.24306">
        <ele>1454</ele>
        <time>2023-04-21T13:59:32.000Z</time>
      </trkpt>
      <trkpt lat="44.51143" lon="6.24308">
        <ele>1454</ele>
        <time>2023-04-21T13:59:33.000Z</time>
      </trkpt>
      <trkpt lat="44.51142" lon="6.2431">
        <ele>1454</ele>
        <time>2023-04-21T13:59:34.000Z</time>
      </trkpt>
      <trkpt lat="44.5114" lon="6.24313">
        <ele>1454</ele>
        <time>2023-04-21T13:59:35.000Z</time>
      </trkpt>
      <trkpt lat="44.51139" lon="6.24316">
        <ele>1456</ele>
        <time>2023-04-21T13:59:36.000Z</time>
      </trkpt>
      <trkpt lat="44.51137" lon="6.24319">
        <ele>1456</ele>
        <time>2023-04-21T13:59:37.000Z</time>
      </trkpt>
      <trkpt lat="44.51136" lon="6.24322">
        <ele>1456</ele>
        <time>2023-04-21T13:59:38.000Z</time>
      </trkpt>
      <trkpt lat="44.51134" lon="6.24325">
        <ele>1456</ele>
        <time>2023-04-21T13:59:39.000Z</time>
      </trkpt>
      <trkpt lat="44.51133" lon="6.24327">
        <ele>1456</ele>
        <time>2023-04-21T13:59:40.000Z</time>
      </trkpt>
      <trkpt lat="44.51131" lon="6.2433">
        <ele>1456</ele>
        <time>2023-04-21T13:59:41.000Z</time>
      </trkpt>
      <trkpt lat="44.5113" lon="6.24333">
        <ele>1456</ele>
        <time>2023-04-21T13:59:42.000Z</time>
      </trkpt>
      <trkpt lat="44.51128" lon="6.24336">
        <ele>1456</ele>
        <time>2023-04-21T13:59:43.000Z</time>
      </trkpt>
      <trkpt lat="44.51126" lon="6.24338">
        <ele>1457</ele>
        <time>2023-04-21T13:59:44.000Z</time>
      </trkpt>
      <trkpt lat="44.51125" lon="6.24341">
        <ele>1457</ele>
        <time>2023-04-21T13:59:45.000Z</time>
      </trkpt>
      <trkpt lat="44.51123" lon="6.24343">
        <ele>1458</ele>
        <time>2023-04-21T13:59:46.000Z</time>
      </trkpt>
      <trkpt lat="44.51121" lon="6.24346">
        <ele>1459</ele>
        <time>2023-04-21T13:59:47.000Z</time>
      </trkpt>
      <trkpt lat="44.5112" lon="6.24348">
        <ele>1459</ele>
        <time>2023-04-21T13:59:48.000Z</time>
      </trkpt>
      <trkpt lat="44.51118" lon="6.24351">
        <ele>1459</ele>
        <time>2023-04-21T13:59:49.000Z</time>
      </trkpt>
      <trkpt lat="44.51117" lon="6.24353">
        <ele>1460</ele>
        <time>2023-04-21T13:59:50.000Z</time>
      </trkpt>
      <trkpt lat="44.51115" lon="6.24356">
        <ele>1460</ele>
        <time>2023-04-21T13:59:51.000Z</time>
      </trkpt>
      <trkpt lat="44.51113" lon="6.24359">
        <ele>1461</ele>
        <time>2023-04-21T13:59:52.000Z</time>
      </trkpt>
      <trkpt lat="44.51112" lon="6.24362">
        <ele>1461</ele>
        <time>2023-04-21T13:59:53.000Z</time>
      </trkpt>
      <trkpt lat="44.51111" lon="6.24365">
        <ele>1462</ele>
        <time>2023-04-21T13:59:54.000Z</time>
      </trkpt>
      <trkpt lat="44.51109" lon="6.24368">
        <ele>1463</ele>
        <time>2023-04-21T13:59:55.000Z</time>
      </trkpt>
      <trkpt lat="44.51108" lon="6.24371">
        <ele>1463</ele>
        <time>2023-04-21T13:59:56.000Z</time>
      </trkpt>
      <trkpt lat="44.51107" lon="6.24374">
        <ele>1464</ele>
        <time>2023-04-21T13:59:57.000Z</time>
      </trkpt>
      <trkpt lat="44.51105" lon="6.24376">
        <ele>1465</ele>
        <time>2023-04-21T13:59:58.000Z</time>
      </trkpt>
      <trkpt lat="44.51104" lon="6.24379">
        <ele>1465</ele>
        <time>2023-04-21T13:59:59.000Z</time>
      </trkpt>
      <trkpt lat="44.51103" lon="6.24382">
        <ele>1466</ele>
        <time>2023-04-21T14:00:00.000Z</time>
      </trkpt>
      <trkpt lat="44.51102" lon="6.24385">
        <ele>1467</ele>
        <time>2023-04-21T14:00:01.000Z</time>
      </trkpt>
      <trkpt lat="44.51101" lon="6.24387">
        <ele>1468</ele>
        <time>2023-04-21T14:00:02.000Z</time>
      </trkpt>
      <trkpt lat="44.511" lon="6.2439">
        <ele>1468</ele>
        <time>2023-04-21T14:00:03.000Z</time>
      </trkpt>
      <trkpt lat="44.511" lon="6.24393">
        <ele>1469</ele>
        <time>2023-04-21T14:00:04.000Z</time>
      </trkpt>
      <trkpt lat="44.51098" lon="6.24395">
        <ele>1469</ele>
        <time>2023-04-21T14:00:05.000Z</time>
      </trkpt>
      <trkpt lat="44.51097" lon="6.24398">
        <ele>1469</ele>
        <time>2023-04-21T14:00:06.000Z</time>
      </trkpt>
      <trkpt lat="44.51096" lon="6.24401">
        <ele>1470</ele>
        <time>2023-04-21T14:00:07.000Z</time>
      </trkpt>
      <trkpt lat="44.51095" lon="6.24404">
        <ele>1471</ele>
        <time>2023-04-21T14:00:08.000Z</time>
      </trkpt>
      <trkpt lat="44.51094" lon="6.24406">
        <ele>1471</ele>
        <time>2023-04-21T14:00:09.000Z</time>
      </trkpt>
      <trkpt lat="44.51093" lon="6.24409">
        <ele>1471</ele>
        <time>2023-04-21T14:00:10.000Z</time>
      </trkpt>
      <trkpt lat="44.51093" lon="6.24411">
        <ele>1471</ele>
        <time>2023-04-21T14:00:11.000Z</time>
      </trkpt>
      <trkpt lat="44.51092" lon="6.24414">
        <ele>1471</ele>
        <time>2023-04-21T14:00:12.000Z</time>
      </trkpt>
      <trkpt lat="44.51092" lon="6.24417">
        <ele>1472</ele>
        <time>2023-04-21T14:00:13.000Z</time>
      </trkpt>
      <trkpt lat="44.51091" lon="6.24419">
        <ele>1472</ele>
        <time>2023-04-21T14:00:14.000Z</time>
      </trkpt>
      <trkpt lat="44.51091" lon="6.24422">
        <ele>1473</ele>
        <time>2023-04-21T14:00:15.000Z</time>
      </trkpt>
      <trkpt lat="44.5109" lon="6.24424">
        <ele>1473</ele>
        <time>2023-04-21T14:00:16.000Z</time>
      </trkpt>
      <trkpt lat="44.51089" lon="6.24427">
        <ele>1473</ele>
        <time>2023-04-21T14:00:17.000Z</time>
      </trkpt>
      <trkpt lat="44.51089" lon="6.2443">
        <ele>1474</ele>
        <time>2023-04-21T14:00:18.000Z</time>
      </trkpt>
      <trkpt lat="44.51088" lon="6.24433">
        <ele>1474</ele>
        <time>2023-04-21T14:00:19.000Z</time>
      </trkpt>
      <trkpt lat="44.51087" lon="6.24435">
        <ele>1475</ele>
        <time>2023-04-21T14:00:20.000Z</time>
      </trkpt>
      <trkpt lat="44.51086" lon="6.24438">
        <ele>1475</ele>
        <time>2023-04-21T14:00:21.000Z</time>
      </trkpt>
      <trkpt lat="44.51085" lon="6.24441">
        <ele>1475</ele>
        <time>2023-04-21T14:00:22.000Z</time>
      </trkpt>
      <trkpt lat="44.51085" lon="6.24444">
        <ele>1476</ele>
        <time>2023-04-21T14:00:23.000Z</time>
      </trkpt>
      <trkpt lat="44.51084" lon="6.24447">
        <ele>1476</ele>
        <time>2023-04-21T14:00:24.000Z</time>
      </trkpt>
      <trkpt lat="44.51083" lon="6.2445">
        <ele>1476</ele>
        <time>2023-04-21T14:00:25.000Z</time>
      </trkpt>
      <trkpt lat="44.51083" lon="6.24453">
        <ele>1476</ele>
        <time>2023-04-21T14:00:26.000Z</time>
      </trkpt>
      <trkpt lat="44.51082" lon="6.24456">
        <ele>1477</ele>
        <time>2023-04-21T14:00:27.000Z</time>
      </trkpt>
      <trkpt lat="44.51081" lon="6.24459">
        <ele>1477</ele>
        <time>2023-04-21T14:00:28.000Z</time>
      </trkpt>
      <trkpt lat="44.51081" lon="6.24461">
        <ele>1477</ele>
        <time>2023-04-21T14:00:29.000Z</time>
      </trkpt>
      <trkpt lat="44.5108" lon="6.24464">
        <ele>1478</ele>
        <time>2023-04-21T14:00:30.000Z</time>
      </trkpt>
      <trkpt lat="44.5108" lon="6.24467">
        <ele>1478</ele>
        <time>2023-04-21T14:00:31.000Z</time>
      </trkpt>
      <trkpt lat="44.5108" lon="6.2447">
        <ele>1479</ele>
        <time>2023-04-21T14:00:32.000Z</time>
      </trkpt>
      <trkpt lat="44.51079" lon="6.24473">
        <ele>1479</ele>
        <time>2023-04-21T14:00:33.000Z</time>
      </trkpt>
      <trkpt lat="44.51079" lon="6.24475">
        <ele>1479</ele>
        <time>2023-04-21T14:00:34.000Z</time>
      </trkpt>
      <trkpt lat="44.51079" lon="6.24478">
        <ele>1480</ele>
        <time>2023-04-21T14:00:35.000Z</time>
      </trkpt>
      <trkpt lat="44.51078" lon="6.24481">
        <ele>1480</ele>
        <time>2023-04-21T14:00:36.000Z</time>
      </trkpt>
      <trkpt lat="44.51078" lon="6.24484">
        <ele>1480</ele>
        <time>2023-04-21T14:00:37.000Z</time>
      </trkpt>
      <trkpt lat="44.51078" lon="6.24486">
        <ele>1481</ele>
        <time>2023-04-21T14:00:38.000Z</time>
      </trkpt>
      <trkpt lat="44.51078" lon="6.24489">
        <ele>1481</ele>
        <time>2023-04-21T14:00:39.000Z</time>
      </trkpt>
      <trkpt lat="44.51078" lon="6.24492">
        <ele>1481</ele>
        <time>2023-04-21T14:00:40.000Z</time>
      </trkpt>
      <trkpt lat="44.51077" lon="6.24495">
        <ele>1482</ele>
        <time>2023-04-21T14:00:41.000Z</time>
      </trkpt>
      <trkpt lat="44.51077" lon="6.24497">
        <ele>1482</ele>
        <time>2023-04-21T14:00:42.000Z</time>
      </trkpt>
      <trkpt lat="44.51077" lon="6.245">
        <ele>1482</ele>
        <time>2023-04-21T14:00:43.000Z</time>
      </trkpt>
      <trkpt lat="44.51077" lon="6.24503">
        <ele>1483</ele>
        <time>2023-04-21T14:00:44.000Z</time>
      </trkpt>
      <trkpt lat="44.51077" lon="6.24506">
        <ele>1484</ele>
        <time>2023-04-21T14:00:45.000Z</time>
      </trkpt>
      <trkpt lat="44.51077" lon="6.24508">
        <ele>1484</ele>
        <time>2023-04-21T14:00:46.000Z</time>
      </trkpt>
      <trkpt lat="44.51077" lon="6.24511">
        <ele>1484</ele>
        <time>2023-04-21T14:00:47.000Z</time>
      </trkpt>
      <trkpt lat="44.51077" lon="6.24514">
        <ele>1485</ele>
        <time>2023-04-21T14:00:48.000Z</time>
      </trkpt>
      <trkpt lat="44.51077" lon="6.24517">
        <ele>1485</ele>
        <time>2023-04-21T14:00:49.000Z</time>
      </trkpt>
      <trkpt lat="44.51077" lon="6.2452">
        <ele>1486</ele>
        <time>2023-04-21T14:00:50.000Z</time>
      </trkpt>
      <trkpt lat="44.51077" lon="6.24523">
        <ele>1486</ele>
        <time>2023-04-21T14:00:51.000Z</time>
      </trkpt>
      <trkpt lat="44.51077" lon="6.24525">
        <ele>1487</ele>
        <time>2023-04-21T14:00:52.000Z</time>
      </trkpt>
      <trkpt lat="44.51077" lon="6.24528">
        <ele>1487</ele>
        <time>2023-04-21T14:00:53.000Z</time>
      </trkpt>
      <trkpt lat="44.51077" lon="6.2453">
        <ele>1488</ele>
        <time>2023-04-21T14:00:54.000Z</time>
      </trkpt>
      <trkpt lat="44.51077" lon="6.24533">
        <ele>1488</ele>
        <time>2023-04-21T14:00:55.000Z</time>
      </trkpt>
      <trkpt lat="44.51077" lon="6.24536">
        <ele>1489</ele>
        <time>2023-04-21T14:00:56.000Z</time>
      </trkpt>
      <trkpt lat="44.51078" lon="6.24538">
        <ele>1489</ele>
        <time>2023-04-21T14:00:57.000Z</time>
      </trkpt>
      <trkpt lat="44.51078" lon="6.24541">
        <ele>1490</ele>
        <time>2023-04-21T14:00:58.000Z</time>
      </trkpt>
      <trkpt lat="44.51078" lon="6.24543">
        <ele>1490</ele>
        <time>2023-04-21T14:00:59.000Z</time>
      </trkpt>
      <trkpt lat="44.51079" lon="6.24546">
        <ele>1491</ele>
        <time>2023-04-21T14:01:00.000Z</time>
      </trkpt>
      <trkpt lat="44.51079" lon="6.24548">
        <ele>1491</ele>
        <time>2023-04-21T14:01:01.000Z</time>
      </trkpt>
      <trkpt lat="44.5108" lon="6.2455">
        <ele>1492</ele>
        <time>2023-04-21T14:01:02.000Z</time>
      </trkpt>
      <trkpt lat="44.5108" lon="6.24553">
        <ele>1492</ele>
        <time>2023-04-21T14:01:03.000Z</time>
      </trkpt>
      <trkpt lat="44.51081" lon="6.24555">
        <ele>1493</ele>
        <time>2023-04-21T14:01:04.000Z</time>
      </trkpt>
      <trkpt lat="44.51082" lon="6.24557">
        <ele>1493</ele>
        <time>2023-04-21T14:01:05.000Z</time>
      </trkpt>
      <trkpt lat="44.51082" lon="6.2456">
        <ele>1494</ele>
        <time>2023-04-21T14:01:06.000Z</time>
      </trkpt>
      <trkpt lat="44.51083" lon="6.24562">
        <ele>1495</ele>
        <time>2023-04-21T14:01:07.000Z</time>
      </trkpt>
      <trkpt lat="44.51083" lon="6.24565">
        <ele>1495</ele>
        <time>2023-04-21T14:01:08.000Z</time>
      </trkpt>
      <trkpt lat="44.51083" lon="6.24568">
        <ele>1495</ele>
        <time>2023-04-21T14:01:09.000Z</time>
      </trkpt>
      <trkpt lat="44.51083" lon="6.24571">
        <ele>1496</ele>
        <time>2023-04-21T14:01:10.000Z</time>
      </trkpt>
      <trkpt lat="44.51083" lon="6.24573">
        <ele>1496</ele>
        <time>2023-04-21T14:01:11.000Z</time>
      </trkpt>
      <trkpt lat="44.51084" lon="6.24576">
        <ele>1497</ele>
        <time>2023-04-21T14:01:12.000Z</time>
      </trkpt>
      <trkpt lat="44.51083" lon="6.24578">
        <ele>1498</ele>
        <time>2023-04-21T14:01:13.000Z</time>
      </trkpt>
      <trkpt lat="44.51083" lon="6.2458">
        <ele>1498</ele>
        <time>2023-04-21T14:01:14.000Z</time>
      </trkpt>
      <trkpt lat="44.51083" lon="6.24582">
        <ele>1499</ele>
        <time>2023-04-21T14:01:15.000Z</time>
      </trkpt>
      <trkpt lat="44.51082" lon="6.24585">
        <ele>1499</ele>
        <time>2023-04-21T14:01:16.000Z</time>
      </trkpt>
      <trkpt lat="44.51082" lon="6.24588">
        <ele>1500</ele>
        <time>2023-04-21T14:01:17.000Z</time>
      </trkpt>
      <trkpt lat="44.51082" lon="6.2459">
        <ele>1500</ele>
        <time>2023-04-21T14:01:18.000Z</time>
      </trkpt>
      <trkpt lat="44.51081" lon="6.24592">
        <ele>1501</ele>
        <time>2023-04-21T14:01:19.000Z</time>
      </trkpt>
      <trkpt lat="44.51081" lon="6.24595">
        <ele>1501</ele>
        <time>2023-04-21T14:01:20.000Z</time>
      </trkpt>
      <trkpt lat="44.51081" lon="6.24597">
        <ele>1501</ele>
        <time>2023-04-21T14:01:21.000Z</time>
      </trkpt>
      <trkpt lat="44.5108" lon="6.24599">
        <ele>1502</ele>
        <time>2023-04-21T14:01:22.000Z</time>
      </trkpt>
      <trkpt lat="44.5108" lon="6.24602">
        <ele>1502</ele>
        <time>2023-04-21T14:01:23.000Z</time>
      </trkpt>
      <trkpt lat="44.5108" lon="6.24605">
        <ele>1503</ele>
        <time>2023-04-21T14:01:24.000Z</time>
      </trkpt>
      <trkpt lat="44.51079" lon="6.24607">
        <ele>1503</ele>
        <time>2023-04-21T14:01:25.000Z</time>
      </trkpt>
      <trkpt lat="44.51079" lon="6.2461">
        <ele>1503</ele>
        <time>2023-04-21T14:01:26.000Z</time>
      </trkpt>
      <trkpt lat="44.51079" lon="6.24613">
        <ele>1503</ele>
        <time>2023-04-21T14:01:27.000Z</time>
      </trkpt>
      <trkpt lat="44.51079" lon="6.24615">
        <ele>1504</ele>
        <time>2023-04-21T14:01:28.000Z</time>
      </trkpt>
      <trkpt lat="44.51079" lon="6.24618">
        <ele>1504</ele>
        <time>2023-04-21T14:01:29.000Z</time>
      </trkpt>
      <trkpt lat="44.51079" lon="6.24621">
        <ele>1504</ele>
        <time>2023-04-21T14:01:30.000Z</time>
      </trkpt>
      <trkpt lat="44.51078" lon="6.24623">
        <ele>1504</ele>
        <time>2023-04-21T14:01:31.000Z</time>
      </trkpt>
      <trkpt lat="44.51078" lon="6.24626">
        <ele>1504</ele>
        <time>2023-04-21T14:01:32.000Z</time>
      </trkpt>
      <trkpt lat="44.51078" lon="6.24629">
        <ele>1505</ele>
        <time>2023-04-21T14:01:33.000Z</time>
      </trkpt>
      <trkpt lat="44.51077" lon="6.24631">
        <ele>1505</ele>
        <time>2023-04-21T14:01:34.000Z</time>
      </trkpt>
      <trkpt lat="44.51077" lon="6.24633">
        <ele>1505</ele>
        <time>2023-04-21T14:01:35.000Z</time>
      </trkpt>
      <trkpt lat="44.51076" lon="6.24635">
        <ele>1506</ele>
        <time>2023-04-21T14:01:36.000Z</time>
      </trkpt>
      <trkpt lat="44.51076" lon="6.24637">
        <ele>1506</ele>
        <time>2023-04-21T14:01:37.000Z</time>
      </trkpt>
      <trkpt lat="44.51075" lon="6.24639">
        <ele>1506</ele>
        <time>2023-04-21T14:01:38.000Z</time>
      </trkpt>
      <trkpt lat="44.51074" lon="6.2464">
        <ele>1507</ele>
        <time>2023-04-21T14:01:39.000Z</time>
      </trkpt>
      <trkpt lat="44.51074" lon="6.24643">
        <ele>1507</ele>
        <time>2023-04-21T14:01:40.000Z</time>
      </trkpt>
      <trkpt lat="44.51073" lon="6.24647">
        <ele>1507</ele>
        <time>2023-04-21T14:01:41.000Z</time>
      </trkpt>
      <trkpt lat="44.51073" lon="6.2465">
        <ele>1507</ele>
        <time>2023-04-21T14:01:42.000Z</time>
      </trkpt>
      <trkpt lat="44.51072" lon="6.24652">
        <ele>1507</ele>
        <time>2023-04-21T14:01:43.000Z</time>
      </trkpt>
      <trkpt lat="44.51071" lon="6.24655">
        <ele>1508</ele>
        <time>2023-04-21T14:01:44.000Z</time>
      </trkpt>
      <trkpt lat="44.51071" lon="6.24657">
        <ele>1508</ele>
        <time>2023-04-21T14:01:45.000Z</time>
      </trkpt>
      <trkpt lat="44.5107" lon="6.24659">
        <ele>1508</ele>
        <time>2023-04-21T14:01:46.000Z</time>
      </trkpt>
      <trkpt lat="44.5107" lon="6.24662">
        <ele>1508</ele>
        <time>2023-04-21T14:01:47.000Z</time>
      </trkpt>
      <trkpt lat="44.51069" lon="6.24664">
        <ele>1509</ele>
        <time>2023-04-21T14:01:48.000Z</time>
      </trkpt>
      <trkpt lat="44.51068" lon="6.24667">
        <ele>1509</ele>
        <time>2023-04-21T14:01:49.000Z</time>
      </trkpt>
      <trkpt lat="44.51068" lon="6.2467">
        <ele>1509</ele>
        <time>2023-04-21T14:01:50.000Z</time>
      </trkpt>
      <trkpt lat="44.51067" lon="6.24672">
        <ele>1509</ele>
        <time>2023-04-21T14:01:51.000Z</time>
      </trkpt>
      <trkpt lat="44.51066" lon="6.24674">
        <ele>1510</ele>
        <time>2023-04-21T14:01:52.000Z</time>
      </trkpt>
      <trkpt lat="44.51066" lon="6.24677">
        <ele>1510</ele>
        <time>2023-04-21T14:01:53.000Z</time>
      </trkpt>
      <trkpt lat="44.51065" lon="6.24679">
        <ele>1510</ele>
        <time>2023-04-21T14:01:54.000Z</time>
      </trkpt>
      <trkpt lat="44.51065" lon="6.24682">
        <ele>1510</ele>
        <time>2023-04-21T14:01:55.000Z</time>
      </trkpt>
      <trkpt lat="44.51064" lon="6.24684">
        <ele>1511</ele>
        <time>2023-04-21T14:01:56.000Z</time>
      </trkpt>
      <trkpt lat="44.51064" lon="6.24687">
        <ele>1511</ele>
        <time>2023-04-21T14:01:57.000Z</time>
      </trkpt>
      <trkpt lat="44.51064" lon="6.24689">
        <ele>1512</ele>
        <time>2023-04-21T14:01:58.000Z</time>
      </trkpt>
      <trkpt lat="44.51063" lon="6.24691">
        <ele>1512</ele>
        <time>2023-04-21T14:01:59.000Z</time>
      </trkpt>
      <trkpt lat="44.51063" lon="6.24694">
        <ele>1512</ele>
        <time>2023-04-21T14:02:00.000Z</time>
      </trkpt>
      <trkpt lat="44.51063" lon="6.24697">
        <ele>1512</ele>
        <time>2023-04-21T14:02:01.000Z</time>
      </trkpt>
      <trkpt lat="44.51063" lon="6.24699">
        <ele>1512</ele>
        <time>2023-04-21T14:02:02.000Z</time>
      </trkpt>
      <trkpt lat="44.51063" lon="6.24702">
        <ele>1512</ele>
        <time>2023-04-21T14:02:03.000Z</time>
      </trkpt>
      <trkpt lat="44.51063" lon="6.24704">
        <ele>1512</ele>
        <time>2023-04-21T14:02:04.000Z</time>
      </trkpt>
      <trkpt lat="44.51063" lon="6.24706">
        <ele>1512</ele>
        <time>2023-04-21T14:02:05.000Z</time>
      </trkpt>
      <trkpt lat="44.51062" lon="6.24709">
        <ele>1512</ele>
        <time>2023-04-21T14:02:06.000Z</time>
      </trkpt>
      <trkpt lat="44.51062" lon="6.24711">
        <ele>1512</ele>
        <time>2023-04-21T14:02:07.000Z</time>
      </trkpt>
      <trkpt lat="44.51062" lon="6.24714">
        <ele>1513</ele>
        <time>2023-04-21T14:02:08.000Z</time>
      </trkpt>
      <trkpt lat="44.51062" lon="6.24717">
        <ele>1513</ele>
        <time>2023-04-21T14:02:09.000Z</time>
      </trkpt>
      <trkpt lat="44.51061" lon="6.24721">
        <ele>1514</ele>
        <time>2023-04-21T14:02:10.000Z</time>
      </trkpt>
      <trkpt lat="44.51061" lon="6.24723">
        <ele>1514</ele>
        <time>2023-04-21T14:02:11.000Z</time>
      </trkpt>
      <trkpt lat="44.5106" lon="6.24726">
        <ele>1514</ele>
        <time>2023-04-21T14:02:12.000Z</time>
      </trkpt>
      <trkpt lat="44.5106" lon="6.24729">
        <ele>1514</ele>
        <time>2023-04-21T14:02:13.000Z</time>
      </trkpt>
      <trkpt lat="44.5106" lon="6.24732">
        <ele>1515</ele>
        <time>2023-04-21T14:02:14.000Z</time>
      </trkpt>
      <trkpt lat="44.51059" lon="6.24736">
        <ele>1515</ele>
        <time>2023-04-21T14:02:15.000Z</time>
      </trkpt>
      <trkpt lat="44.51059" lon="6.24739">
        <ele>1516</ele>
        <time>2023-04-21T14:02:16.000Z</time>
      </trkpt>
      <trkpt lat="44.51058" lon="6.24743">
        <ele>1516</ele>
        <time>2023-04-21T14:02:17.000Z</time>
      </trkpt>
      <trkpt lat="44.51058" lon="6.24747">
        <ele>1516</ele>
        <time>2023-04-21T14:02:18.000Z</time>
      </trkpt>
      <trkpt lat="44.51058" lon="6.24751">
        <ele>1516</ele>
        <time>2023-04-21T14:02:19.000Z</time>
      </trkpt>
      <trkpt lat="44.51059" lon="6.24756">
        <ele>1516</ele>
        <time>2023-04-21T14:02:20.000Z</time>
      </trkpt>
      <trkpt lat="44.51058" lon="6.24759">
        <ele>1517</ele>
        <time>2023-04-21T14:02:21.000Z</time>
      </trkpt>
      <trkpt lat="44.51057" lon="6.24763">
        <ele>1517</ele>
        <time>2023-04-21T14:02:22.000Z</time>
      </trkpt>
      <trkpt lat="44.51057" lon="6.24766">
        <ele>1517</ele>
        <time>2023-04-21T14:02:23.000Z</time>
      </trkpt>
      <trkpt lat="44.51056" lon="6.2477">
        <ele>1517</ele>
        <time>2023-04-21T14:02:24.000Z</time>
      </trkpt>
      <trkpt lat="44.51056" lon="6.24774">
        <ele>1518</ele>
        <time>2023-04-21T14:02:25.000Z</time>
      </trkpt>
      <trkpt lat="44.51055" lon="6.24779">
        <ele>1518</ele>
        <time>2023-04-21T14:02:26.000Z</time>
      </trkpt>
      <trkpt lat="44.51054" lon="6.24782">
        <ele>1518</ele>
        <time>2023-04-21T14:02:27.000Z</time>
      </trkpt>
      <trkpt lat="44.51054" lon="6.24786">
        <ele>1519</ele>
        <time>2023-04-21T14:02:28.000Z</time>
      </trkpt>
      <trkpt lat="44.51053" lon="6.24789">
        <ele>1519</ele>
        <time>2023-04-21T14:02:29.000Z</time>
      </trkpt>
      <trkpt lat="44.51053" lon="6.24792">
        <ele>1520</ele>
        <time>2023-04-21T14:02:30.000Z</time>
      </trkpt>
      <trkpt lat="44.51052" lon="6.24795">
        <ele>1520</ele>
        <time>2023-04-21T14:02:31.000Z</time>
      </trkpt>
      <trkpt lat="44.51052" lon="6.24798">
        <ele>1521</ele>
        <time>2023-04-21T14:02:32.000Z</time>
      </trkpt>
      <trkpt lat="44.51051" lon="6.24802">
        <ele>1521</ele>
        <time>2023-04-21T14:02:33.000Z</time>
      </trkpt>
      <trkpt lat="44.5105" lon="6.24805">
        <ele>1521</ele>
        <time>2023-04-21T14:02:34.000Z</time>
      </trkpt>
      <trkpt lat="44.5105" lon="6.24809">
        <ele>1522</ele>
        <time>2023-04-21T14:02:35.000Z</time>
      </trkpt>
      <trkpt lat="44.51049" lon="6.24811">
        <ele>1522</ele>
        <time>2023-04-21T14:02:36.000Z</time>
      </trkpt>
      <trkpt lat="44.51048" lon="6.24814">
        <ele>1522</ele>
        <time>2023-04-21T14:02:37.000Z</time>
      </trkpt>
      <trkpt lat="44.51048" lon="6.24817">
        <ele>1522</ele>
        <time>2023-04-21T14:02:38.000Z</time>
      </trkpt>
      <trkpt lat="44.51047" lon="6.2482">
        <ele>1523</ele>
        <time>2023-04-21T14:02:39.000Z</time>
      </trkpt>
      <trkpt lat="44.51046" lon="6.24822">
        <ele>1523</ele>
        <time>2023-04-21T14:02:40.000Z</time>
      </trkpt>
      <trkpt lat="44.51045" lon="6.24825">
        <ele>1524</ele>
        <time>2023-04-21T14:02:41.000Z</time>
      </trkpt>
      <trkpt lat="44.51045" lon="6.24827">
        <ele>1524</ele>
        <time>2023-04-21T14:02:42.000Z</time>
      </trkpt>
      <trkpt lat="44.51044" lon="6.2483">
        <ele>1524</ele>
        <time>2023-04-21T14:02:43.000Z</time>
      </trkpt>
      <trkpt lat="44.51043" lon="6.24832">
        <ele>1525</ele>
        <time>2023-04-21T14:02:44.000Z</time>
      </trkpt>
      <trkpt lat="44.51042" lon="6.24834">
        <ele>1525</ele>
        <time>2023-04-21T14:02:45.000Z</time>
      </trkpt>
      <trkpt lat="44.51042" lon="6.24836">
        <ele>1525</ele>
        <time>2023-04-21T14:02:46.000Z</time>
      </trkpt>
      <trkpt lat="44.51042" lon="6.24839">
        <ele>1525</ele>
        <time>2023-04-21T14:02:47.000Z</time>
      </trkpt>
      <trkpt lat="44.51041" lon="6.24842">
        <ele>1525</ele>
        <time>2023-04-21T14:02:48.000Z</time>
      </trkpt>
      <trkpt lat="44.51041" lon="6.24843">
        <ele>1525</ele>
        <time>2023-04-21T14:02:49.000Z</time>
      </trkpt>
      <trkpt lat="44.51041" lon="6.24845">
        <ele>1526</ele>
        <time>2023-04-21T14:02:50.000Z</time>
      </trkpt>
      <trkpt lat="44.5104" lon="6.24847">
        <ele>1527</ele>
        <time>2023-04-21T14:02:51.000Z</time>
      </trkpt>
      <trkpt lat="44.5104" lon="6.24849">
        <ele>1528</ele>
        <time>2023-04-21T14:02:52.000Z</time>
      </trkpt>
      <trkpt lat="44.51039" lon="6.24852">
        <ele>1528</ele>
        <time>2023-04-21T14:02:53.000Z</time>
      </trkpt>
      <trkpt lat="44.51038" lon="6.24854">
        <ele>1528</ele>
        <time>2023-04-21T14:02:54.000Z</time>
      </trkpt>
      <trkpt lat="44.51037" lon="6.24856">
        <ele>1528</ele>
        <time>2023-04-21T14:02:55.000Z</time>
      </trkpt>
      <trkpt lat="44.51036" lon="6.24859">
        <ele>1528</ele>
        <time>2023-04-21T14:02:56.000Z</time>
      </trkpt>
      <trkpt lat="44.51036" lon="6.24862">
        <ele>1528</ele>
        <time>2023-04-21T14:02:57.000Z</time>
      </trkpt>
      <trkpt lat="44.51035" lon="6.24865">
        <ele>1529</ele>
        <time>2023-04-21T14:02:58.000Z</time>
      </trkpt>
      <trkpt lat="44.51034" lon="6.24868">
        <ele>1529</ele>
        <time>2023-04-21T14:02:59.000Z</time>
      </trkpt>
      <trkpt lat="44.51033" lon="6.2487">
        <ele>1530</ele>
        <time>2023-04-21T14:03:00.000Z</time>
      </trkpt>
      <trkpt lat="44.51032" lon="6.24873">
        <ele>1530</ele>
        <time>2023-04-21T14:03:01.000Z</time>
      </trkpt>
      <trkpt lat="44.51031" lon="6.24876">
        <ele>1530</ele>
        <time>2023-04-21T14:03:02.000Z</time>
      </trkpt>
      <trkpt lat="44.5103" lon="6.2488">
        <ele>1531</ele>
        <time>2023-04-21T14:03:03.000Z</time>
      </trkpt>
      <trkpt lat="44.5103" lon="6.24885">
        <ele>1530</ele>
        <time>2023-04-21T14:03:04.000Z</time>
      </trkpt>
      <trkpt lat="44.5103" lon="6.24889">
        <ele>1531</ele>
        <time>2023-04-21T14:03:05.000Z</time>
      </trkpt>
      <trkpt lat="44.51029" lon="6.24894">
        <ele>1531</ele>
        <time>2023-04-21T14:03:06.000Z</time>
      </trkpt>
      <trkpt lat="44.51028" lon="6.24898">
        <ele>1531</ele>
        <time>2023-04-21T14:03:07.000Z</time>
      </trkpt>
      <trkpt lat="44.51027" lon="6.24902">
        <ele>1532</ele>
        <time>2023-04-21T14:03:08.000Z</time>
      </trkpt>
      <trkpt lat="44.51026" lon="6.24905">
        <ele>1533</ele>
        <time>2023-04-21T14:03:09.000Z</time>
      </trkpt>
      <trkpt lat="44.51025" lon="6.24908">
        <ele>1533</ele>
        <time>2023-04-21T14:03:10.000Z</time>
      </trkpt>
      <trkpt lat="44.51024" lon="6.24912">
        <ele>1533</ele>
        <time>2023-04-21T14:03:11.000Z</time>
      </trkpt>
      <trkpt lat="44.51022" lon="6.24915">
        <ele>1533</ele>
        <time>2023-04-21T14:03:12.000Z</time>
      </trkpt>
      <trkpt lat="44.51021" lon="6.24918">
        <ele>1534</ele>
        <time>2023-04-21T14:03:13.000Z</time>
      </trkpt>
      <trkpt lat="44.51019" lon="6.24921">
        <ele>1535</ele>
        <time>2023-04-21T14:03:14.000Z</time>
      </trkpt>
      <trkpt lat="44.51017" lon="6.24923">
        <ele>1535</ele>
        <time>2023-04-21T14:03:15.000Z</time>
      </trkpt>
      <trkpt lat="44.51015" lon="6.24926">
        <ele>1536</ele>
        <time>2023-04-21T14:03:16.000Z</time>
      </trkpt>
      <trkpt lat="44.51013" lon="6.24928">
        <ele>1536</ele>
        <time>2023-04-21T14:03:17.000Z</time>
      </trkpt>
      <trkpt lat="44.51012" lon="6.24931">
        <ele>1535</ele>
        <time>2023-04-21T14:03:18.000Z</time>
      </trkpt>
      <trkpt lat="44.51011" lon="6.24933">
        <ele>1536</ele>
        <time>2023-04-21T14:03:19.000Z</time>
      </trkpt>
      <trkpt lat="44.51009" lon="6.24936">
        <ele>1536</ele>
        <time>2023-04-21T14:03:20.000Z</time>
      </trkpt>
      <trkpt lat="44.51007" lon="6.24939">
        <ele>1536</ele>
        <time>2023-04-21T14:03:21.000Z</time>
      </trkpt>
      <trkpt lat="44.51004" lon="6.24941">
        <ele>1536</ele>
        <time>2023-04-21T14:03:22.000Z</time>
      </trkpt>
      <trkpt lat="44.51002" lon="6.24944">
        <ele>1536</ele>
        <time>2023-04-21T14:03:23.000Z</time>
      </trkpt>
      <trkpt lat="44.51" lon="6.24946">
        <ele>1536</ele>
        <time>2023-04-21T14:03:24.000Z</time>
      </trkpt>
      <trkpt lat="44.50998" lon="6.24948">
        <ele>1536</ele>
        <time>2023-04-21T14:03:25.000Z</time>
      </trkpt>
      <trkpt lat="44.50996" lon="6.2495">
        <ele>1536</ele>
        <time>2023-04-21T14:03:26.000Z</time>
      </trkpt>
      <trkpt lat="44.50995" lon="6.24953">
        <ele>1537</ele>
        <time>2023-04-21T14:03:27.000Z</time>
      </trkpt>
      <trkpt lat="44.50993" lon="6.24956">
        <ele>1536</ele>
        <time>2023-04-21T14:03:28.000Z</time>
      </trkpt>
      <trkpt lat="44.50992" lon="6.24959">
        <ele>1537</ele>
        <time>2023-04-21T14:03:29.000Z</time>
      </trkpt>
      <trkpt lat="44.5099" lon="6.24962">
        <ele>1538</ele>
        <time>2023-04-21T14:03:30.000Z</time>
      </trkpt>
      <trkpt lat="44.50988" lon="6.24965">
        <ele>1539</ele>
        <time>2023-04-21T14:03:31.000Z</time>
      </trkpt>
      <trkpt lat="44.50987" lon="6.24967">
        <ele>1539</ele>
        <time>2023-04-21T14:03:32.000Z</time>
      </trkpt>
      <trkpt lat="44.50985" lon="6.2497">
        <ele>1539</ele>
        <time>2023-04-21T14:03:33.000Z</time>
      </trkpt>
      <trkpt lat="44.50982" lon="6.24972">
        <ele>1539</ele>
        <time>2023-04-21T14:03:34.000Z</time>
      </trkpt>
      <trkpt lat="44.50981" lon="6.24975">
        <ele>1539</ele>
        <time>2023-04-21T14:03:35.000Z</time>
      </trkpt>
      <trkpt lat="44.50979" lon="6.24977">
        <ele>1540</ele>
        <time>2023-04-21T14:03:36.000Z</time>
      </trkpt>
      <trkpt lat="44.50977" lon="6.24979">
        <ele>1540</ele>
        <time>2023-04-21T14:03:37.000Z</time>
      </trkpt>
      <trkpt lat="44.50976" lon="6.24981">
        <ele>1540</ele>
        <time>2023-04-21T14:03:38.000Z</time>
      </trkpt>
      <trkpt lat="44.50975" lon="6.24983">
        <ele>1540</ele>
        <time>2023-04-21T14:03:39.000Z</time>
      </trkpt>
      <trkpt lat="44.50974" lon="6.24985">
        <ele>1541</ele>
        <time>2023-04-21T14:03:40.000Z</time>
      </trkpt>
      <trkpt lat="44.50972" lon="6.24987">
        <ele>1541</ele>
        <time>2023-04-21T14:03:41.000Z</time>
      </trkpt>
      <trkpt lat="44.5097" lon="6.24988">
        <ele>1541</ele>
        <time>2023-04-21T14:03:42.000Z</time>
      </trkpt>
      <trkpt lat="44.50969" lon="6.24991">
        <ele>1541</ele>
        <time>2023-04-21T14:03:43.000Z</time>
      </trkpt>
      <trkpt lat="44.50966" lon="6.24993">
        <ele>1541</ele>
        <time>2023-04-21T14:03:44.000Z</time>
      </trkpt>
      <trkpt lat="44.50963" lon="6.24995">
        <ele>1541</ele>
        <time>2023-04-21T14:03:45.000Z</time>
      </trkpt>
      <trkpt lat="44.50961" lon="6.24996">
        <ele>1541</ele>
        <time>2023-04-21T14:03:46.000Z</time>
      </trkpt>
      <trkpt lat="44.50959" lon="6.24998">
        <ele>1540</ele>
        <time>2023-04-21T14:03:47.000Z</time>
      </trkpt>
      <trkpt lat="44.50958" lon="6.24999">
        <ele>1540</ele>
        <time>2023-04-21T14:03:48.000Z</time>
      </trkpt>
      <trkpt lat="44.50956" lon="6.25001">
        <ele>1540</ele>
        <time>2023-04-21T14:03:49.000Z</time>
      </trkpt>
      <trkpt lat="44.50954" lon="6.25002">
        <ele>1540</ele>
        <time>2023-04-21T14:03:50.000Z</time>
      </trkpt>
      <trkpt lat="44.50952" lon="6.25004">
        <ele>1540</ele>
        <time>2023-04-21T14:03:51.000Z</time>
      </trkpt>
      <trkpt lat="44.50949" lon="6.25005">
        <ele>1540</ele>
        <time>2023-04-21T14:03:52.000Z</time>
      </trkpt>
      <trkpt lat="44.50947" lon="6.25006">
        <ele>1539</ele>
        <time>2023-04-21T14:03:53.000Z</time>
      </trkpt>
      <trkpt lat="44.50945" lon="6.25007">
        <ele>1540</ele>
        <time>2023-04-21T14:03:54.000Z</time>
      </trkpt>
      <trkpt lat="44.50943" lon="6.25009">
        <ele>1540</ele>
        <time>2023-04-21T14:03:55.000Z</time>
      </trkpt>
      <trkpt lat="44.50941" lon="6.2501">
        <ele>1539</ele>
        <time>2023-04-21T14:03:56.000Z</time>
      </trkpt>
      <trkpt lat="44.50939" lon="6.25011">
        <ele>1540</ele>
        <time>2023-04-21T14:03:57.000Z</time>
      </trkpt>
      <trkpt lat="44.50937" lon="6.25013">
        <ele>1540</ele>
        <time>2023-04-21T14:03:58.000Z</time>
      </trkpt>
      <trkpt lat="44.50935" lon="6.25014">
        <ele>1540</ele>
        <time>2023-04-21T14:03:59.000Z</time>
      </trkpt>
      <trkpt lat="44.50933" lon="6.25014">
        <ele>1541</ele>
        <time>2023-04-21T14:04:00.000Z</time>
      </trkpt>
      <trkpt lat="44.50931" lon="6.25015">
        <ele>1541</ele>
        <time>2023-04-21T14:04:01.000Z</time>
      </trkpt>
      <trkpt lat="44.50929" lon="6.25015">
        <ele>1542</ele>
        <time>2023-04-21T14:04:02.000Z</time>
      </trkpt>
      <trkpt lat="44.50926" lon="6.25016">
        <ele>1542</ele>
        <time>2023-04-21T14:04:03.000Z</time>
      </trkpt>
      <trkpt lat="44.50924" lon="6.25017">
        <ele>1542</ele>
        <time>2023-04-21T14:04:04.000Z</time>
      </trkpt>
      <trkpt lat="44.50923" lon="6.25018">
        <ele>1543</ele>
        <time>2023-04-21T14:04:05.000Z</time>
      </trkpt>
      <trkpt lat="44.5092" lon="6.25019">
        <ele>1543</ele>
        <time>2023-04-21T14:04:06.000Z</time>
      </trkpt>
      <trkpt lat="44.50918" lon="6.2502">
        <ele>1544</ele>
        <time>2023-04-21T14:04:07.000Z</time>
      </trkpt>
      <trkpt lat="44.50917" lon="6.25021">
        <ele>1544</ele>
        <time>2023-04-21T14:04:08.000Z</time>
      </trkpt>
      <trkpt lat="44.50915" lon="6.25022">
        <ele>1545</ele>
        <time>2023-04-21T14:04:09.000Z</time>
      </trkpt>
      <trkpt lat="44.50914" lon="6.25023">
        <ele>1545</ele>
        <time>2023-04-21T14:04:10.000Z</time>
      </trkpt>
      <trkpt lat="44.50912" lon="6.25024">
        <ele>1546</ele>
        <time>2023-04-21T14:04:11.000Z</time>
      </trkpt>
      <trkpt lat="44.5091" lon="6.25026">
        <ele>1546</ele>
        <time>2023-04-21T14:04:12.000Z</time>
      </trkpt>
      <trkpt lat="44.50909" lon="6.25028">
        <ele>1548</ele>
        <time>2023-04-21T14:04:13.000Z</time>
      </trkpt>
      <trkpt lat="44.50907" lon="6.2503">
        <ele>1548</ele>
        <time>2023-04-21T14:04:14.000Z</time>
      </trkpt>
      <trkpt lat="44.50906" lon="6.25031">
        <ele>1548</ele>
        <time>2023-04-21T14:04:15.000Z</time>
      </trkpt>
      <trkpt lat="44.50904" lon="6.25034">
        <ele>1548</ele>
        <time>2023-04-21T14:04:16.000Z</time>
      </trkpt>
      <trkpt lat="44.50902" lon="6.25036">
        <ele>1548</ele>
        <time>2023-04-21T14:04:17.000Z</time>
      </trkpt>
      <trkpt lat="44.509" lon="6.25038">
        <ele>1548</ele>
        <time>2023-04-21T14:04:18.000Z</time>
      </trkpt>
      <trkpt lat="44.50898" lon="6.2504">
        <ele>1549</ele>
        <time>2023-04-21T14:04:19.000Z</time>
      </trkpt>
      <trkpt lat="44.50897" lon="6.25042">
        <ele>1550</ele>
        <time>2023-04-21T14:04:20.000Z</time>
      </trkpt>
      <trkpt lat="44.50896" lon="6.25045">
        <ele>1550</ele>
        <time>2023-04-21T14:04:21.000Z</time>
      </trkpt>
      <trkpt lat="44.50895" lon="6.25046">
        <ele>1552</ele>
        <time>2023-04-21T14:04:22.000Z</time>
      </trkpt>
      <trkpt lat="44.50894" lon="6.25048">
        <ele>1553</ele>
        <time>2023-04-21T14:04:23.000Z</time>
      </trkpt>
      <trkpt lat="44.50893" lon="6.2505">
        <ele>1554</ele>
        <time>2023-04-21T14:04:24.000Z</time>
      </trkpt>
      <trkpt lat="44.50892" lon="6.25052">
        <ele>1555</ele>
        <time>2023-04-21T14:04:25.000Z</time>
      </trkpt>
      <trkpt lat="44.50891" lon="6.25054">
        <ele>1555</ele>
        <time>2023-04-21T14:04:26.000Z</time>
      </trkpt>
      <trkpt lat="44.50889" lon="6.25055">
        <ele>1556</ele>
        <time>2023-04-21T14:04:27.000Z</time>
      </trkpt>
      <trkpt lat="44.50888" lon="6.25057">
        <ele>1557</ele>
        <time>2023-04-21T14:04:28.000Z</time>
      </trkpt>
      <trkpt lat="44.50886" lon="6.25059">
        <ele>1557</ele>
        <time>2023-04-21T14:04:29.000Z</time>
      </trkpt>
      <trkpt lat="44.50884" lon="6.25061">
        <ele>1557</ele>
        <time>2023-04-21T14:04:30.000Z</time>
      </trkpt>
      <trkpt lat="44.50882" lon="6.25062">
        <ele>1559</ele>
        <time>2023-04-21T14:04:31.000Z</time>
      </trkpt>
      <trkpt lat="44.5088" lon="6.25063">
        <ele>1560</ele>
        <time>2023-04-21T14:04:32.000Z</time>
      </trkpt>
      <trkpt lat="44.50879" lon="6.25064">
        <ele>1561</ele>
        <time>2023-04-21T14:04:33.000Z</time>
      </trkpt>
      <trkpt lat="44.50877" lon="6.25065">
        <ele>1562</ele>
        <time>2023-04-21T14:04:34.000Z</time>
      </trkpt>
      <trkpt lat="44.50875" lon="6.25067">
        <ele>1561</ele>
        <time>2023-04-21T14:04:35.000Z</time>
      </trkpt>
      <trkpt lat="44.50874" lon="6.25068">
        <ele>1562</ele>
        <time>2023-04-21T14:04:36.000Z</time>
      </trkpt>
      <trkpt lat="44.50872" lon="6.25069">
        <ele>1561</ele>
        <time>2023-04-21T14:04:37.000Z</time>
      </trkpt>
      <trkpt lat="44.50871" lon="6.25071">
        <ele>1562</ele>
        <time>2023-04-21T14:04:38.000Z</time>
      </trkpt>
      <trkpt lat="44.50869" lon="6.25073">
        <ele>1562</ele>
        <time>2023-04-21T14:04:39.000Z</time>
      </trkpt>
      <trkpt lat="44.50867" lon="6.25075">
        <ele>1563</ele>
        <time>2023-04-21T14:04:40.000Z</time>
      </trkpt>
      <trkpt lat="44.50866" lon="6.25078">
        <ele>1564</ele>
        <time>2023-04-21T14:04:41.000Z</time>
      </trkpt>
      <trkpt lat="44.50864" lon="6.2508">
        <ele>1563</ele>
        <time>2023-04-21T14:04:42.000Z</time>
      </trkpt>
      <trkpt lat="44.50863" lon="6.25083">
        <ele>1563</ele>
        <time>2023-04-21T14:04:43.000Z</time>
      </trkpt>
      <trkpt lat="44.50861" lon="6.25085">
        <ele>1563</ele>
        <time>2023-04-21T14:04:44.000Z</time>
      </trkpt>
      <trkpt lat="44.50859" lon="6.25087">
        <ele>1563</ele>
        <time>2023-04-21T14:04:45.000Z</time>
      </trkpt>
      <trkpt lat="44.50857" lon="6.2509">
        <ele>1563</ele>
        <time>2023-04-21T14:04:46.000Z</time>
      </trkpt>
      <trkpt lat="44.50856" lon="6.25093">
        <ele>1564</ele>
        <time>2023-04-21T14:04:47.000Z</time>
      </trkpt>
      <trkpt lat="44.50854" lon="6.25095">
        <ele>1564</ele>
        <time>2023-04-21T14:04:48.000Z</time>
      </trkpt>
      <trkpt lat="44.50852" lon="6.25098">
        <ele>1564</ele>
        <time>2023-04-21T14:04:49.000Z</time>
      </trkpt>
      <trkpt lat="44.50851" lon="6.25101">
        <ele>1564</ele>
        <time>2023-04-21T14:04:50.000Z</time>
      </trkpt>
      <trkpt lat="44.50849" lon="6.25103">
        <ele>1564</ele>
        <time>2023-04-21T14:04:51.000Z</time>
      </trkpt>
      <trkpt lat="44.50848" lon="6.25106">
        <ele>1564</ele>
        <time>2023-04-21T14:04:52.000Z</time>
      </trkpt>
      <trkpt lat="44.50846" lon="6.25108">
        <ele>1564</ele>
        <time>2023-04-21T14:04:53.000Z</time>
      </trkpt>
      <trkpt lat="44.50845" lon="6.2511">
        <ele>1564</ele>
        <time>2023-04-21T14:04:54.000Z</time>
      </trkpt>
      <trkpt lat="44.50844" lon="6.25113">
        <ele>1564</ele>
        <time>2023-04-21T14:04:55.000Z</time>
      </trkpt>
      <trkpt lat="44.50842" lon="6.25115">
        <ele>1564</ele>
        <time>2023-04-21T14:04:56.000Z</time>
      </trkpt>
      <trkpt lat="44.50841" lon="6.25117">
        <ele>1564</ele>
        <time>2023-04-21T14:04:57.000Z</time>
      </trkpt>
      <trkpt lat="44.5084" lon="6.25119">
        <ele>1564</ele>
        <time>2023-04-21T14:04:58.000Z</time>
      </trkpt>
      <trkpt lat="44.50839" lon="6.2512">
        <ele>1564</ele>
        <time>2023-04-21T14:04:59.000Z</time>
      </trkpt>
      <trkpt lat="44.50839" lon="6.25122">
        <ele>1564</ele>
        <time>2023-04-21T14:05:00.000Z</time>
      </trkpt>
      <trkpt lat="44.50837" lon="6.25124">
        <ele>1564</ele>
        <time>2023-04-21T14:05:01.000Z</time>
      </trkpt>
      <trkpt lat="44.50836" lon="6.25126">
        <ele>1564</ele>
        <time>2023-04-21T14:05:02.000Z</time>
      </trkpt>
      <trkpt lat="44.50834" lon="6.25128">
        <ele>1564</ele>
        <time>2023-04-21T14:05:03.000Z</time>
      </trkpt>
      <trkpt lat="44.50832" lon="6.2513">
        <ele>1564</ele>
        <time>2023-04-21T14:05:04.000Z</time>
      </trkpt>
      <trkpt lat="44.5083" lon="6.25132">
        <ele>1564</ele>
        <time>2023-04-21T14:05:05.000Z</time>
      </trkpt>
      <trkpt lat="44.50828" lon="6.25135">
        <ele>1564</ele>
        <time>2023-04-21T14:05:06.000Z</time>
      </trkpt>
      <trkpt lat="44.50826" lon="6.25138">
        <ele>1564</ele>
        <time>2023-04-21T14:05:07.000Z</time>
      </trkpt>
      <trkpt lat="44.50823" lon="6.25141">
        <ele>1564</ele>
        <time>2023-04-21T14:05:08.000Z</time>
      </trkpt>
      <trkpt lat="44.50821" lon="6.25144">
        <ele>1565</ele>
        <time>2023-04-21T14:05:09.000Z</time>
      </trkpt>
      <trkpt lat="44.50819" lon="6.25147">
        <ele>1565</ele>
        <time>2023-04-21T14:05:10.000Z</time>
      </trkpt>
      <trkpt lat="44.50818" lon="6.2515">
        <ele>1565</ele>
        <time>2023-04-21T14:05:11.000Z</time>
      </trkpt>
      <trkpt lat="44.50816" lon="6.25153">
        <ele>1565</ele>
        <time>2023-04-21T14:05:12.000Z</time>
      </trkpt>
      <trkpt lat="44.50815" lon="6.25157">
        <ele>1564</ele>
        <time>2023-04-21T14:05:13.000Z</time>
      </trkpt>
      <trkpt lat="44.50813" lon="6.25161">
        <ele>1563</ele>
        <time>2023-04-21T14:05:14.000Z</time>
      </trkpt>
      <trkpt lat="44.50812" lon="6.25164">
        <ele>1563</ele>
        <time>2023-04-21T14:05:15.000Z</time>
      </trkpt>
      <trkpt lat="44.50811" lon="6.25168">
        <ele>1562</ele>
        <time>2023-04-21T14:05:16.000Z</time>
      </trkpt>
      <trkpt lat="44.50809" lon="6.25171">
        <ele>1563</ele>
        <time>2023-04-21T14:05:17.000Z</time>
      </trkpt>
      <trkpt lat="44.50805" lon="6.25174">
        <ele>1564</ele>
        <time>2023-04-21T14:05:18.000Z</time>
      </trkpt>
      <trkpt lat="44.50803" lon="6.25175">
        <ele>1564</ele>
        <time>2023-04-21T14:05:19.000Z</time>
      </trkpt>
      <trkpt lat="44.50801" lon="6.25177">
        <ele>1565</ele>
        <time>2023-04-21T14:05:20.000Z</time>
      </trkpt>
      <trkpt lat="44.50799" lon="6.25179">
        <ele>1566</ele>
        <time>2023-04-21T14:05:21.000Z</time>
      </trkpt>
      <trkpt lat="44.50799" lon="6.25181">
        <ele>1567</ele>
        <time>2023-04-21T14:05:22.000Z</time>
      </trkpt>
      <trkpt lat="44.50797" lon="6.25183">
        <ele>1567</ele>
        <time>2023-04-21T14:05:23.000Z</time>
      </trkpt>
      <trkpt lat="44.50796" lon="6.25186">
        <ele>1567</ele>
        <time>2023-04-21T14:05:24.000Z</time>
      </trkpt>
      <trkpt lat="44.50794" lon="6.25189">
        <ele>1567</ele>
        <time>2023-04-21T14:05:25.000Z</time>
      </trkpt>
      <trkpt lat="44.50792" lon="6.25191">
        <ele>1568</ele>
        <time>2023-04-21T14:05:26.000Z</time>
      </trkpt>
      <trkpt lat="44.5079" lon="6.25194">
        <ele>1568</ele>
        <time>2023-04-21T14:05:27.000Z</time>
      </trkpt>
      <trkpt lat="44.50789" lon="6.25197">
        <ele>1568</ele>
        <time>2023-04-21T14:05:28.000Z</time>
      </trkpt>
      <trkpt lat="44.50787" lon="6.25198">
        <ele>1568</ele>
        <time>2023-04-21T14:05:29.000Z</time>
      </trkpt>
      <trkpt lat="44.50784" lon="6.25201">
        <ele>1568</ele>
        <time>2023-04-21T14:05:30.000Z</time>
      </trkpt>
      <trkpt lat="44.50782" lon="6.25203">
        <ele>1568</ele>
        <time>2023-04-21T14:05:31.000Z</time>
      </trkpt>
      <trkpt lat="44.5078" lon="6.25205">
        <ele>1569</ele>
        <time>2023-04-21T14:05:32.000Z</time>
      </trkpt>
      <trkpt lat="44.50778" lon="6.25207">
        <ele>1569</ele>
        <time>2023-04-21T14:05:33.000Z</time>
      </trkpt>
      <trkpt lat="44.50776" lon="6.25209">
        <ele>1569</ele>
        <time>2023-04-21T14:05:34.000Z</time>
      </trkpt>
      <trkpt lat="44.50774" lon="6.25212">
        <ele>1570</ele>
        <time>2023-04-21T14:05:35.000Z</time>
      </trkpt>
      <trkpt lat="44.50772" lon="6.25213">
        <ele>1570</ele>
        <time>2023-04-21T14:05:36.000Z</time>
      </trkpt>
      <trkpt lat="44.5077" lon="6.25215">
        <ele>1571</ele>
        <time>2023-04-21T14:05:37.000Z</time>
      </trkpt>
      <trkpt lat="44.50768" lon="6.25217">
        <ele>1571</ele>
        <time>2023-04-21T14:05:38.000Z</time>
      </trkpt>
      <trkpt lat="44.50766" lon="6.25221">
        <ele>1572</ele>
        <time>2023-04-21T14:05:39.000Z</time>
      </trkpt>
      <trkpt lat="44.50764" lon="6.25224">
        <ele>1573</ele>
        <time>2023-04-21T14:05:40.000Z</time>
      </trkpt>
      <trkpt lat="44.50761" lon="6.25228">
        <ele>1573</ele>
        <time>2023-04-21T14:05:41.000Z</time>
      </trkpt>
      <trkpt lat="44.50759" lon="6.25231">
        <ele>1573</ele>
        <time>2023-04-21T14:05:42.000Z</time>
      </trkpt>
      <trkpt lat="44.50755" lon="6.25235">
        <ele>1572</ele>
        <time>2023-04-21T14:05:43.000Z</time>
      </trkpt>
      <trkpt lat="44.50752" lon="6.25239">
        <ele>1573</ele>
        <time>2023-04-21T14:05:44.000Z</time>
      </trkpt>
      <trkpt lat="44.50749" lon="6.25243">
        <ele>1573</ele>
        <time>2023-04-21T14:05:45.000Z</time>
      </trkpt>
      <trkpt lat="44.50746" lon="6.25247">
        <ele>1573</ele>
        <time>2023-04-21T14:05:46.000Z</time>
      </trkpt>
      <trkpt lat="44.50743" lon="6.25252">
        <ele>1573</ele>
        <time>2023-04-21T14:05:47.000Z</time>
      </trkpt>
      <trkpt lat="44.5074" lon="6.25257">
        <ele>1571</ele>
        <time>2023-04-21T14:05:48.000Z</time>
      </trkpt>
      <trkpt lat="44.50736" lon="6.25261">
        <ele>1569</ele>
        <time>2023-04-21T14:05:49.000Z</time>
      </trkpt>
      <trkpt lat="44.50733" lon="6.25265">
        <ele>1569</ele>
        <time>2023-04-21T14:05:50.000Z</time>
      </trkpt>
      <trkpt lat="44.50731" lon="6.25268">
        <ele>1568</ele>
        <time>2023-04-21T14:05:51.000Z</time>
      </trkpt>
      <trkpt lat="44.50727" lon="6.25272">
        <ele>1567</ele>
        <time>2023-04-21T14:05:52.000Z</time>
      </trkpt>
      <trkpt lat="44.50725" lon="6.25274">
        <ele>1568</ele>
        <time>2023-04-21T14:05:53.000Z</time>
      </trkpt>
      <trkpt lat="44.50725" lon="6.25279">
        <ele>1566</ele>
        <time>2023-04-21T14:05:54.000Z</time>
      </trkpt>
      <trkpt lat="44.50723" lon="6.25282">
        <ele>1567</ele>
        <time>2023-04-21T14:05:55.000Z</time>
      </trkpt>
      <trkpt lat="44.50721" lon="6.25286">
        <ele>1567</ele>
        <time>2023-04-21T14:05:56.000Z</time>
      </trkpt>
      <trkpt lat="44.50718" lon="6.2529">
        <ele>1568</ele>
        <time>2023-04-21T14:05:57.000Z</time>
      </trkpt>
      <trkpt lat="44.50716" lon="6.25294">
        <ele>1568</ele>
        <time>2023-04-21T14:05:58.000Z</time>
      </trkpt>
      <trkpt lat="44.50713" lon="6.25299">
        <ele>1568</ele>
        <time>2023-04-21T14:05:59.000Z</time>
      </trkpt>
      <trkpt lat="44.5071" lon="6.25303">
        <ele>1567</ele>
        <time>2023-04-21T14:06:00.000Z</time>
      </trkpt>
      <trkpt lat="44.50708" lon="6.25307">
        <ele>1567</ele>
        <time>2023-04-21T14:06:01.000Z</time>
      </trkpt>
      <trkpt lat="44.50706" lon="6.2531">
        <ele>1567</ele>
        <time>2023-04-21T14:06:02.000Z</time>
      </trkpt>
      <trkpt lat="44.50703" lon="6.25313">
        <ele>1567</ele>
        <time>2023-04-21T14:06:03.000Z</time>
      </trkpt>
      <trkpt lat="44.50701" lon="6.25317">
        <ele>1567</ele>
        <time>2023-04-21T14:06:04.000Z</time>
      </trkpt>
      <trkpt lat="44.50699" lon="6.2532">
        <ele>1567</ele>
        <time>2023-04-21T14:06:05.000Z</time>
      </trkpt>
      <trkpt lat="44.50697" lon="6.25324">
        <ele>1566</ele>
        <time>2023-04-21T14:06:06.000Z</time>
      </trkpt>
      <trkpt lat="44.50694" lon="6.25328">
        <ele>1567</ele>
        <time>2023-04-21T14:06:07.000Z</time>
      </trkpt>
      <trkpt lat="44.50692" lon="6.25331">
        <ele>1566</ele>
        <time>2023-04-21T14:06:08.000Z</time>
      </trkpt>
      <trkpt lat="44.5069" lon="6.25335">
        <ele>1566</ele>
        <time>2023-04-21T14:06:09.000Z</time>
      </trkpt>
      <trkpt lat="44.50689" lon="6.25338">
        <ele>1565</ele>
        <time>2023-04-21T14:06:10.000Z</time>
      </trkpt>
      <trkpt lat="44.50688" lon="6.2534">
        <ele>1566</ele>
        <time>2023-04-21T14:06:11.000Z</time>
      </trkpt>
      <trkpt lat="44.50687" lon="6.25344">
        <ele>1566</ele>
        <time>2023-04-21T14:06:12.000Z</time>
      </trkpt>
      <trkpt lat="44.50686" lon="6.25347">
        <ele>1566</ele>
        <time>2023-04-21T14:06:13.000Z</time>
      </trkpt>
      <trkpt lat="44.50684" lon="6.25349">
        <ele>1566</ele>
        <time>2023-04-21T14:06:14.000Z</time>
      </trkpt>
      <trkpt lat="44.50684" lon="6.25352">
        <ele>1566</ele>
        <time>2023-04-21T14:06:15.000Z</time>
      </trkpt>
      <trkpt lat="44.50682" lon="6.25356">
        <ele>1565</ele>
        <time>2023-04-21T14:06:16.000Z</time>
      </trkpt>
      <trkpt lat="44.50682" lon="6.2536">
        <ele>1565</ele>
        <time>2023-04-21T14:06:17.000Z</time>
      </trkpt>
      <trkpt lat="44.5068" lon="6.25362">
        <ele>1566</ele>
        <time>2023-04-21T14:06:18.000Z</time>
      </trkpt>
      <trkpt lat="44.50679" lon="6.25365">
        <ele>1567</ele>
        <time>2023-04-21T14:06:19.000Z</time>
      </trkpt>
      <trkpt lat="44.50678" lon="6.25368">
        <ele>1566</ele>
        <time>2023-04-21T14:06:20.000Z</time>
      </trkpt>
      <trkpt lat="44.50677" lon="6.25371">
        <ele>1567</ele>
        <time>2023-04-21T14:06:21.000Z</time>
      </trkpt>
      <trkpt lat="44.50676" lon="6.25374">
        <ele>1567</ele>
        <time>2023-04-21T14:06:22.000Z</time>
      </trkpt>
      <trkpt lat="44.50676" lon="6.25378">
        <ele>1567</ele>
        <time>2023-04-21T14:06:23.000Z</time>
      </trkpt>
      <trkpt lat="44.50675" lon="6.2538">
        <ele>1567</ele>
        <time>2023-04-21T14:06:24.000Z</time>
      </trkpt>
      <trkpt lat="44.50674" lon="6.25383">
        <ele>1568</ele>
        <time>2023-04-21T14:06:25.000Z</time>
      </trkpt>
      <trkpt lat="44.50673" lon="6.25385">
        <ele>1569</ele>
        <time>2023-04-21T14:06:26.000Z</time>
      </trkpt>
      <trkpt lat="44.50672" lon="6.25387">
        <ele>1570</ele>
        <time>2023-04-21T14:06:27.000Z</time>
      </trkpt>
      <trkpt lat="44.50672" lon="6.2539">
        <ele>1570</ele>
        <time>2023-04-21T14:06:28.000Z</time>
      </trkpt>
      <trkpt lat="44.50671" lon="6.25393">
        <ele>1570</ele>
        <time>2023-04-21T14:06:29.000Z</time>
      </trkpt>
      <trkpt lat="44.5067" lon="6.25397">
        <ele>1569</ele>
        <time>2023-04-21T14:06:30.000Z</time>
      </trkpt>
      <trkpt lat="44.50669" lon="6.25402">
        <ele>1569</ele>
        <time>2023-04-21T14:06:31.000Z</time>
      </trkpt>
      <trkpt lat="44.50668" lon="6.25407">
        <ele>1569</ele>
        <time>2023-04-21T14:06:32.000Z</time>
      </trkpt>
      <trkpt lat="44.50666" lon="6.25411">
        <ele>1568</ele>
        <time>2023-04-21T14:06:33.000Z</time>
      </trkpt>
      <trkpt lat="44.50666" lon="6.25414">
        <ele>1568</ele>
        <time>2023-04-21T14:06:34.000Z</time>
      </trkpt>
      <trkpt lat="44.50664" lon="6.25419">
        <ele>1567</ele>
        <time>2023-04-21T14:06:35.000Z</time>
      </trkpt>
      <trkpt lat="44.50663" lon="6.25423">
        <ele>1566</ele>
        <time>2023-04-21T14:06:36.000Z</time>
      </trkpt>
      <trkpt lat="44.50662" lon="6.25426">
        <ele>1566</ele>
        <time>2023-04-21T14:06:37.000Z</time>
      </trkpt>
      <trkpt lat="44.50662" lon="6.2543">
        <ele>1565</ele>
        <time>2023-04-21T14:06:38.000Z</time>
      </trkpt>
      <trkpt lat="44.50661" lon="6.25436">
        <ele>1563</ele>
        <time>2023-04-21T14:06:39.000Z</time>
      </trkpt>
      <trkpt lat="44.5066" lon="6.25442">
        <ele>1562</ele>
        <time>2023-04-21T14:06:40.000Z</time>
      </trkpt>
      <trkpt lat="44.50661" lon="6.25446">
        <ele>1562</ele>
        <time>2023-04-21T14:06:41.000Z</time>
      </trkpt>
      <trkpt lat="44.50661" lon="6.2545">
        <ele>1560</ele>
        <time>2023-04-21T14:06:42.000Z</time>
      </trkpt>
      <trkpt lat="44.50661" lon="6.25454">
        <ele>1559</ele>
        <time>2023-04-21T14:06:43.000Z</time>
      </trkpt>
      <trkpt lat="44.50661" lon="6.25458">
        <ele>1558</ele>
        <time>2023-04-21T14:06:44.000Z</time>
      </trkpt>
      <trkpt lat="44.50661" lon="6.25461">
        <ele>1557</ele>
        <time>2023-04-21T14:06:45.000Z</time>
      </trkpt>
      <trkpt lat="44.50661" lon="6.25466">
        <ele>1558</ele>
        <time>2023-04-21T14:06:46.000Z</time>
      </trkpt>
      <trkpt lat="44.50661" lon="6.2547">
        <ele>1557</ele>
        <time>2023-04-21T14:06:47.000Z</time>
      </trkpt>
      <trkpt lat="44.5066" lon="6.25475">
        <ele>1556</ele>
        <time>2023-04-21T14:06:48.000Z</time>
      </trkpt>
      <trkpt lat="44.50657" lon="6.2548">
        <ele>1553</ele>
        <time>2023-04-21T14:06:49.000Z</time>
      </trkpt>
      <trkpt lat="44.50656" lon="6.25485">
        <ele>1552</ele>
        <time>2023-04-21T14:06:50.000Z</time>
      </trkpt>
      <trkpt lat="44.50656" lon="6.25491">
        <ele>1549</ele>
        <time>2023-04-21T14:06:51.000Z</time>
      </trkpt>
      <trkpt lat="44.50655" lon="6.25496">
        <ele>1549</ele>
        <time>2023-04-21T14:06:52.000Z</time>
      </trkpt>
      <trkpt lat="44.50654" lon="6.25501">
        <ele>1548</ele>
        <time>2023-04-21T14:06:53.000Z</time>
      </trkpt>
      <trkpt lat="44.50653" lon="6.25507">
        <ele>1547</ele>
        <time>2023-04-21T14:06:54.000Z</time>
      </trkpt>
      <trkpt lat="44.50652" lon="6.25513">
        <ele>1546</ele>
        <time>2023-04-21T14:06:55.000Z</time>
      </trkpt>
      <trkpt lat="44.5065" lon="6.2552">
        <ele>1546</ele>
        <time>2023-04-21T14:06:56.000Z</time>
      </trkpt>
      <trkpt lat="44.50649" lon="6.25526">
        <ele>1545</ele>
        <time>2023-04-21T14:06:57.000Z</time>
      </trkpt>
      <trkpt lat="44.50646" lon="6.25533">
        <ele>1544</ele>
        <time>2023-04-21T14:06:58.000Z</time>
      </trkpt>
      <trkpt lat="44.50644" lon="6.2554">
        <ele>1544</ele>
        <time>2023-04-21T14:06:59.000Z</time>
      </trkpt>
      <trkpt lat="44.50643" lon="6.25548">
        <ele>1543</ele>
        <time>2023-04-21T14:07:00.000Z</time>
      </trkpt>
      <trkpt lat="44.5064" lon="6.25556">
        <ele>1540</ele>
        <time>2023-04-21T14:07:01.000Z</time>
      </trkpt>
      <trkpt lat="44.50639" lon="6.25566">
        <ele>1539</ele>
        <time>2023-04-21T14:07:02.000Z</time>
      </trkpt>
      <trkpt lat="44.50637" lon="6.25577">
        <ele>1538</ele>
        <time>2023-04-21T14:07:03.000Z</time>
      </trkpt>
      <trkpt lat="44.50631" lon="6.25591">
        <ele>1541</ele>
        <time>2023-04-21T14:07:04.000Z</time>
      </trkpt>
      <trkpt lat="44.50628" lon="6.256">
        <ele>1542</ele>
        <time>2023-04-21T14:07:05.000Z</time>
      </trkpt>
      <trkpt lat="44.50626" lon="6.25608">
        <ele>1541</ele>
        <time>2023-04-21T14:07:06.000Z</time>
      </trkpt>
      <trkpt lat="44.50624" lon="6.25612">
        <ele>1545</ele>
        <time>2023-04-21T14:07:07.000Z</time>
      </trkpt>
      <trkpt lat="44.50622" lon="6.25613">
        <ele>1542</ele>
        <time>2023-04-21T14:07:08.000Z</time>
      </trkpt>
      <trkpt lat="44.50622" lon="6.25614">
        <ele>1543</ele>
        <time>2023-04-21T14:07:09.000Z</time>
      </trkpt>
      <trkpt lat="44.50622" lon="6.25616">
        <ele>1545</ele>
        <time>2023-04-21T14:07:10.000Z</time>
      </trkpt>
      <trkpt lat="44.50623" lon="6.25616">
        <ele>1546</ele>
        <time>2023-04-21T14:07:11.000Z</time>
      </trkpt>
      <trkpt lat="44.50623" lon="6.25617">
        <ele>1547</ele>
        <time>2023-04-21T14:07:12.000Z</time>
      </trkpt>
      <trkpt lat="44.50623" lon="6.25617">
        <ele>1548</ele>
        <time>2023-04-21T14:07:13.000Z</time>
      </trkpt>
      <trkpt lat="44.50623" lon="6.25618">
        <ele>1548</ele>
        <time>2023-04-21T14:07:14.000Z</time>
      </trkpt>
      <trkpt lat="44.50623" lon="6.25618">
        <ele>1549</ele>
        <time>2023-04-21T14:07:15.000Z</time>
      </trkpt>
      <trkpt lat="44.50623" lon="6.25618">
        <ele>1549</ele>
        <time>2023-04-21T14:07:16.000Z</time>
      </trkpt>
      <trkpt lat="44.50623" lon="6.25618">
        <ele>1549</ele>
        <time>2023-04-21T14:07:17.000Z</time>
      </trkpt>
      <trkpt lat="44.50623" lon="6.25619">
        <ele>1549</ele>
        <time>2023-04-21T14:07:18.000Z</time>
      </trkpt>
      <trkpt lat="44.50622" lon="6.25619">
        <ele>1549</ele>
        <time>2023-04-21T14:07:19.000Z</time>
      </trkpt>
      <trkpt lat="44.50622" lon="6.25619">
        <ele>1549</ele>
        <time>2023-04-21T14:07:20.000Z</time>
      </trkpt>
      <trkpt lat="44.50622" lon="6.25619">
        <ele>1549</ele>
        <time>2023-04-21T14:07:21.000Z</time>
      </trkpt>
      <trkpt lat="44.50622" lon="6.25619">
        <ele>1549</ele>
        <time>2023-04-21T14:07:22.000Z</time>
      </trkpt>
      <trkpt lat="44.50622" lon="6.25619">
        <ele>1549</ele>
        <time>2023-04-21T14:07:23.000Z</time>
      </trkpt>
      <trkpt lat="44.50622" lon="6.25619">
        <ele>1548</ele>
        <time>2023-04-21T14:07:24.000Z</time>
      </trkpt>
      <trkpt lat="44.50622" lon="6.25619">
        <ele>1548</ele>
        <time>2023-04-21T14:07:25.000Z</time>
      </trkpt>
      <trkpt lat="44.50622" lon="6.25619">
        <ele>1548</ele>
        <time>2023-04-21T14:07:26.000Z</time>
      </trkpt>
      <trkpt lat="44.50622" lon="6.25619">
        <ele>1548</ele>
        <time>2023-04-21T14:07:27.000Z</time>
      </trkpt>
      <trkpt lat="44.50622" lon="6.25619">
        <ele>1548</ele>
        <time>2023-04-21T14:07:28.000Z</time>
      </trkpt>
      <trkpt lat="44.50622" lon="6.25619">
        <ele>1548</ele>
        <time>2023-04-21T14:07:29.000Z</time>
      </trkpt>
      <trkpt lat="44.50622" lon="6.25619">
        <ele>1548</ele>
        <time>2023-04-21T14:07:30.000Z</time>
      </trkpt>
      <trkpt lat="44.50622" lon="6.25619">
        <ele>1548</ele>
        <time>2023-04-21T14:07:31.000Z</time>
      </trkpt>
      <trkpt lat="44.50622" lon="6.25619">
        <ele>1548</ele>
        <time>2023-04-21T14:07:32.000Z</time>
      </trkpt>
      <trkpt lat="44.50622" lon="6.25619">
        <ele>1548</ele>
        <time>2023-04-21T14:07:33.000Z</time>
      </trkpt>
      <trkpt lat="44.50622" lon="6.25619">
        <ele>1548</ele>
        <time>2023-04-21T14:07:34.000Z</time>
      </trkpt>
      <trkpt lat="44.50621" lon="6.25619">
        <ele>1548</ele>
        <time>2023-04-21T14:07:35.000Z</time>
      </trkpt>
      <trkpt lat="44.50621" lon="6.25619">
        <ele>1548</ele>
        <time>2023-04-21T14:07:36.000Z</time>
      </trkpt>
      <trkpt lat="44.50621" lon="6.25619">
        <ele>1548</ele>
        <time>2023-04-21T14:07:37.000Z</time>
      </trkpt>
      <trkpt lat="44.50621" lon="6.25619">
        <ele>1548</ele>
        <time>2023-04-21T14:07:38.000Z</time>
      </trkpt>
      <trkpt lat="44.50621" lon="6.25619">
        <ele>1548</ele>
        <time>2023-04-21T14:07:39.000Z</time>
      </trkpt>
      <trkpt lat="44.50621" lon="6.25619">
        <ele>1548</ele>
        <time>2023-04-21T14:07:40.000Z</time>
      </trkpt>
      <trkpt lat="44.50621" lon="6.25619">
        <ele>1548</ele>
        <time>2023-04-21T14:07:41.000Z</time>
      </trkpt>
      <trkpt lat="44.50621" lon="6.25619">
        <ele>1548</ele>
        <time>2023-04-21T14:07:42.000Z</time>
      </trkpt>
      <trkpt lat="44.50621" lon="6.25619">
        <ele>1548</ele>
        <time>2023-04-21T14:07:43.000Z</time>
      </trkpt>
      <trkpt lat="44.50621" lon="6.25619">
        <ele>1548</ele>
        <time>2023-04-21T14:07:44.000Z</time>
      </trkpt>
      <trkpt lat="44.50621" lon="6.25619">
        <ele>1548</ele>
        <time>2023-04-21T14:07:45.000Z</time>
      </trkpt>
      <trkpt lat="44.50621" lon="6.25619">
        <ele>1548</ele>
        <time>2023-04-21T14:07:46.000Z</time>
      </trkpt>
      <trkpt lat="44.50621" lon="6.2562">
        <ele>1548</ele>
        <time>2023-04-21T14:07:47.000Z</time>
      </trkpt>
      <trkpt lat="44.50621" lon="6.2562">
        <ele>1548</ele>
        <time>2023-04-21T14:07:48.000Z</time>
      </trkpt>
      <trkpt lat="44.50621" lon="6.2562">
        <ele>1548</ele>
        <time>2023-04-21T14:07:49.000Z</time>
      </trkpt>
      <trkpt lat="44.50621" lon="6.2562">
        <ele>1548</ele>
        <time>2023-04-21T14:07:50.000Z</time>
      </trkpt>
      <trkpt lat="44.50621" lon="6.2562">
        <ele>1548</ele>
        <time>2023-04-21T14:07:51.000Z</time>
      </trkpt>
      <trkpt lat="44.50621" lon="6.2562">
        <ele>1548</ele>
        <time>2023-04-21T14:07:52.000Z</time>
      </trkpt>
      <trkpt lat="44.50621" lon="6.2562">
        <ele>1548</ele>
        <time>2023-04-21T14:07:53.000Z</time>
      </trkpt>
      <trkpt lat="44.50621" lon="6.2562">
        <ele>1548</ele>
        <time>2023-04-21T14:07:54.000Z</time>
      </trkpt>
      <trkpt lat="44.50621" lon="6.2562">
        <ele>1548</ele>
        <time>2023-04-21T14:07:55.000Z</time>
      </trkpt>
      <trkpt lat="44.50621" lon="6.2562">
        <ele>1548</ele>
        <time>2023-04-21T14:07:56.000Z</time>
      </trkpt>
      <trkpt lat="44.50621" lon="6.2562">
        <ele>1548</ele>
        <time>2023-04-21T14:07:57.000Z</time>
      </trkpt>
      <trkpt lat="44.50621" lon="6.2562">
        <ele>1548</ele>
        <time>2023-04-21T14:07:58.000Z</time>
      </trkpt>
      <trkpt lat="44.50621" lon="6.2562">
        <ele>1548</ele>
        <time>2023-04-21T14:07:59.000Z</time>
      </trkpt>
      <trkpt lat="44.50621" lon="6.25621">
        <ele>1548</ele>
        <time>2023-04-21T14:08:00.000Z</time>
      </trkpt>
      <trkpt lat="44.50621" lon="6.25621">
        <ele>1548</ele>
        <time>2023-04-21T14:08:01.000Z</time>
      </trkpt>
      <trkpt lat="44.50621" lon="6.25621">
        <ele>1548</ele>
        <time>2023-04-21T14:08:02.000Z</time>
      </trkpt>
      <trkpt lat="44.50621" lon="6.25621">
        <ele>1548</ele>
        <time>2023-04-21T14:08:03.000Z</time>
      </trkpt>
      <trkpt lat="44.50621" lon="6.25621">
        <ele>1548</ele>
        <time>2023-04-21T14:08:04.000Z</time>
      </trkpt>
      <trkpt lat="44.50621" lon="6.25621">
        <ele>1548</ele>
        <time>2023-04-21T14:08:05.000Z</time>
      </trkpt>
      <trkpt lat="44.50621" lon="6.25621">
        <ele>1548</ele>
        <time>2023-04-21T14:08:06.000Z</time>
      </trkpt>
      <trkpt lat="44.50621" lon="6.25621">
        <ele>1548</ele>
        <time>2023-04-21T14:08:07.000Z</time>
      </trkpt>
      <trkpt lat="44.50621" lon="6.25621">
        <ele>1548</ele>
        <time>2023-04-21T14:08:08.000Z</time>
      </trkpt>
      <trkpt lat="44.50621" lon="6.25621">
        <ele>1548</ele>
        <time>2023-04-21T14:08:09.000Z</time>
      </trkpt>
      <trkpt lat="44.50621" lon="6.25622">
        <ele>1548</ele>
        <time>2023-04-21T14:08:10.000Z</time>
      </trkpt>
      <trkpt lat="44.50621" lon="6.25622">
        <ele>1548</ele>
        <time>2023-04-21T14:08:11.000Z</time>
      </trkpt>
      <trkpt lat="44.50621" lon="6.25622">
        <ele>1548</ele>
        <time>2023-04-21T14:08:12.000Z</time>
      </trkpt>
      <trkpt lat="44.5062" lon="6.25622">
        <ele>1548</ele>
        <time>2023-04-21T14:08:13.000Z</time>
      </trkpt>
      <trkpt lat="44.5062" lon="6.25622">
        <ele>1548</ele>
        <time>2023-04-21T14:08:14.000Z</time>
      </trkpt>
      <trkpt lat="44.5062" lon="6.25622">
        <ele>1548</ele>
        <time>2023-04-21T14:08:15.000Z</time>
      </trkpt>
      <trkpt lat="44.5062" lon="6.25622">
        <ele>1548</ele>
        <time>2023-04-21T14:08:16.000Z</time>
      </trkpt>
      <trkpt lat="44.5062" lon="6.25622">
        <ele>1548</ele>
        <time>2023-04-21T14:08:17.000Z</time>
      </trkpt>
      <trkpt lat="44.5062" lon="6.25622">
        <ele>1548</ele>
        <time>2023-04-21T14:08:18.000Z</time>
      </trkpt>
      <trkpt lat="44.5062" lon="6.25622">
        <ele>1548</ele>
        <time>2023-04-21T14:08:19.000Z</time>
      </trkpt>
      <trkpt lat="44.5062" lon="6.25622">
        <ele>1548</ele>
        <time>2023-04-21T14:08:20.000Z</time>
      </trkpt>
      <trkpt lat="44.5062" lon="6.25622">
        <ele>1548</ele>
        <time>2023-04-21T14:08:21.000Z</time>
      </trkpt>
      <trkpt lat="44.5062" lon="6.25621">
        <ele>1548</ele>
        <time>2023-04-21T14:08:22.000Z</time>
      </trkpt>
      <trkpt lat="44.5062" lon="6.25621">
        <ele>1548</ele>
        <time>2023-04-21T14:08:23.000Z</time>
      </trkpt>
      <trkpt lat="44.5062" lon="6.25621">
        <ele>1548</ele>
        <time>2023-04-21T14:08:24.000Z</time>
      </trkpt>
      <trkpt lat="44.5062" lon="6.25621">
        <ele>1549</ele>
        <time>2023-04-21T14:08:25.000Z</time>
      </trkpt>
      <trkpt lat="44.5062" lon="6.25621">
        <ele>1549</ele>
        <time>2023-04-21T14:08:26.000Z</time>
      </trkpt>
      <trkpt lat="44.5062" lon="6.25621">
        <ele>1549</ele>
        <time>2023-04-21T14:08:27.000Z</time>
      </trkpt>
      <trkpt lat="44.5062" lon="6.25621">
        <ele>1549</ele>
        <time>2023-04-21T14:08:28.000Z</time>
      </trkpt>
      <trkpt lat="44.5062" lon="6.25621">
        <ele>1549</ele>
        <time>2023-04-21T14:08:29.000Z</time>
      </trkpt>
      <trkpt lat="44.5062" lon="6.25621">
        <ele>1549</ele>
        <time>2023-04-21T14:08:30.000Z</time>
      </trkpt>
      <trkpt lat="44.5062" lon="6.25621">
        <ele>1549</ele>
        <time>2023-04-21T14:08:31.000Z</time>
      </trkpt>
      <trkpt lat="44.5062" lon="6.25621">
        <ele>1549</ele>
        <time>2023-04-21T14:08:32.000Z</time>
      </trkpt>
      <trkpt lat="44.5062" lon="6.25621">
        <ele>1549</ele>
        <time>2023-04-21T14:08:33.000Z</time>
      </trkpt>
      <trkpt lat="44.5062" lon="6.25621">
        <ele>1549</ele>
        <time>2023-04-21T14:08:34.000Z</time>
      </trkpt>
      <trkpt lat="44.5062" lon="6.25621">
        <ele>1549</ele>
        <time>2023-04-21T14:08:35.000Z</time>
      </trkpt>
      <trkpt lat="44.5062" lon="6.25621">
        <ele>1549</ele>
        <time>2023-04-21T14:08:36.000Z</time>
      </trkpt>
      <trkpt lat="44.5062" lon="6.25621">
        <ele>1549</ele>
        <time>2023-04-21T14:08:37.000Z</time>
      </trkpt>
      <trkpt lat="44.5062" lon="6.25621">
        <ele>1550</ele>
        <time>2023-04-21T14:08:38.000Z</time>
      </trkpt>
      <trkpt lat="44.5062" lon="6.25621">
        <ele>1550</ele>
        <time>2023-04-21T14:08:39.000Z</time>
      </trkpt>
      <trkpt lat="44.5062" lon="6.25621">
        <ele>1550</ele>
        <time>2023-04-21T14:08:40.000Z</time>
      </trkpt>
      <trkpt lat="44.5062" lon="6.25621">
        <ele>1550</ele>
        <time>2023-04-21T14:08:41.000Z</time>
      </trkpt>
      <trkpt lat="44.5062" lon="6.25621">
        <ele>1550</ele>
        <time>2023-04-21T14:08:42.000Z</time>
      </trkpt>
      <trkpt lat="44.5062" lon="6.25621">
        <ele>1550</ele>
        <time>2023-04-21T14:08:43.000Z</time>
      </trkpt>
      <trkpt lat="44.5062" lon="6.25621">
        <ele>1550</ele>
        <time>2023-04-21T14:08:44.000Z</time>
      </trkpt>
      <trkpt lat="44.5062" lon="6.25621">
        <ele>1550</ele>
        <time>2023-04-21T14:08:45.000Z</time>
      </trkpt>
      <trkpt lat="44.5062" lon="6.25621">
        <ele>1550</ele>
        <time>2023-04-21T14:08:46.000Z</time>
      </trkpt>
      <trkpt lat="44.50621" lon="6.25621">
        <ele>1550</ele>
        <time>2023-04-21T14:08:47.000Z</time>
      </trkpt>
      <trkpt lat="44.50621" lon="6.25621">
        <ele>1550</ele>
        <time>2023-04-21T14:08:48.000Z</time>
      </trkpt>
      <trkpt lat="44.50621" lon="6.25621">
        <ele>1550</ele>
        <time>2023-04-21T14:08:49.000Z</time>
      </trkpt>
      <trkpt lat="44.50621" lon="6.25621">
        <ele>1550</ele>
        <time>2023-04-21T14:08:50.000Z</time>
      </trkpt>
      <trkpt lat="44.50621" lon="6.25621">
        <ele>1551</ele>
        <time>2023-04-21T14:08:51.000Z</time>
      </trkpt>
      <trkpt lat="44.50621" lon="6.25621">
        <ele>1551</ele>
        <time>2023-04-21T14:08:52.000Z</time>
      </trkpt>
      <trkpt lat="44.50621" lon="6.25621">
        <ele>1551</ele>
        <time>2023-04-21T14:08:53.000Z</time>
      </trkpt>
      <trkpt lat="44.50621" lon="6.25621">
        <ele>1551</ele>
        <time>2023-04-21T14:08:54.000Z</time>
      </trkpt>
      <trkpt lat="44.50621" lon="6.25621">
        <ele>1551</ele>
        <time>2023-04-21T14:08:55.000Z</time>
      </trkpt>
      <trkpt lat="44.50621" lon="6.25621">
        <ele>1551</ele>
        <time>2023-04-21T14:08:56.000Z</time>
      </trkpt>
      <trkpt lat="44.50621" lon="6.25621">
        <ele>1551</ele>
        <time>2023-04-21T14:08:57.000Z</time>
      </trkpt>
      <trkpt lat="44.50621" lon="6.25621">
        <ele>1551</ele>
        <time>2023-04-21T14:08:58.000Z</time>
      </trkpt>
      <trkpt lat="44.50621" lon="6.25621">
        <ele>1551</ele>
        <time>2023-04-21T14:08:59.000Z</time>
      </trkpt>
      <trkpt lat="44.50621" lon="6.25621">
        <ele>1551</ele>
        <time>2023-04-21T14:09:00.000Z</time>
      </trkpt>
      <trkpt lat="44.50621" lon="6.25621">
        <ele>1551</ele>
        <time>2023-04-21T14:09:01.000Z</time>
      </trkpt>
      <trkpt lat="44.50621" lon="6.25621">
        <ele>1551</ele>
        <time>2023-04-21T14:09:02.000Z</time>
      </trkpt>
      <trkpt lat="44.50621" lon="6.25621">
        <ele>1551</ele>
        <time>2023-04-21T14:09:03.000Z</time>
      </trkpt>
      <trkpt lat="44.50621" lon="6.25621">
        <ele>1551</ele>
        <time>2023-04-21T14:09:04.000Z</time>
      </trkpt>
      <trkpt lat="44.50621" lon="6.25622">
        <ele>1551</ele>
        <time>2023-04-21T14:09:05.000Z</time>
      </trkpt>
      <trkpt lat="44.50621" lon="6.25622">
        <ele>1551</ele>
        <time>2023-04-21T14:09:06.000Z</time>
      </trkpt>
      <trkpt lat="44.50622" lon="6.25622">
        <ele>1551</ele>
        <time>2023-04-21T14:09:07.000Z</time>
      </trkpt>
      <trkpt lat="44.50622" lon="6.25622">
        <ele>1551</ele>
        <time>2023-04-21T14:09:08.000Z</time>
      </trkpt>
      <trkpt lat="44.50622" lon="6.25622">
        <ele>1551</ele>
        <time>2023-04-21T14:09:09.000Z</time>
      </trkpt>
      <trkpt lat="44.50622" lon="6.25622">
        <ele>1550</ele>
        <time>2023-04-21T14:09:10.000Z</time>
      </trkpt>
      <trkpt lat="44.50622" lon="6.25622">
        <ele>1550</ele>
        <time>2023-04-21T14:09:11.000Z</time>
      </trkpt>
      <trkpt lat="44.50622" lon="6.25622">
        <ele>1550</ele>
        <time>2023-04-21T14:09:12.000Z</time>
      </trkpt>
      <trkpt lat="44.50622" lon="6.25622">
        <ele>1550</ele>
        <time>2023-04-21T14:09:13.000Z</time>
      </trkpt>
      <trkpt lat="44.50622" lon="6.25622">
        <ele>1550</ele>
        <time>2023-04-21T14:09:14.000Z</time>
      </trkpt>
      <trkpt lat="44.50622" lon="6.25622">
        <ele>1550</ele>
        <time>2023-04-21T14:09:15.000Z</time>
      </trkpt>
      <trkpt lat="44.50622" lon="6.25622">
        <ele>1550</ele>
        <time>2023-04-21T14:09:16.000Z</time>
      </trkpt>
      <trkpt lat="44.50622" lon="6.25622">
        <ele>1550</ele>
        <time>2023-04-21T14:09:17.000Z</time>
      </trkpt>
      <trkpt lat="44.50622" lon="6.25622">
        <ele>1550</ele>
        <time>2023-04-21T14:09:18.000Z</time>
      </trkpt>
      <trkpt lat="44.50622" lon="6.25622">
        <ele>1550</ele>
        <time>2023-04-21T14:09:19.000Z</time>
      </trkpt>
      <trkpt lat="44.50622" lon="6.25622">
        <ele>1550</ele>
        <time>2023-04-21T14:09:20.000Z</time>
      </trkpt>
      <trkpt lat="44.50622" lon="6.25622">
        <ele>1550</ele>
        <time>2023-04-21T14:09:21.000Z</time>
      </trkpt>
      <trkpt lat="44.50622" lon="6.25622">
        <ele>1550</ele>
        <time>2023-04-21T14:09:22.000Z</time>
      </trkpt>
      <trkpt lat="44.50622" lon="6.25622">
        <ele>1550</ele>
        <time>2023-04-21T14:09:23.000Z</time>
      </trkpt>
      <trkpt lat="44.50622" lon="6.25622">
        <ele>1550</ele>
        <time>2023-04-21T14:09:24.000Z</time>
      </trkpt>
      <trkpt lat="44.50622" lon="6.25622">
        <ele>1550</ele>
        <time>2023-04-21T14:09:25.000Z</time>
      </trkpt>
      <trkpt lat="44.50622" lon="6.25622">
        <ele>1550</ele>
        <time>2023-04-21T14:09:26.000Z</time>
      </trkpt>
      <trkpt lat="44.50622" lon="6.25622">
        <ele>1550</ele>
        <time>2023-04-21T14:09:27.000Z</time>
      </trkpt>
      <trkpt lat="44.50622" lon="6.25622">
        <ele>1549</ele>
        <time>2023-04-21T14:09:28.000Z</time>
      </trkpt>
      <trkpt lat="44.50622" lon="6.25622">
        <ele>1549</ele>
        <time>2023-04-21T14:09:29.000Z</time>
      </trkpt>
      <trkpt lat="44.50622" lon="6.25622">
        <ele>1549</ele>
        <time>2023-04-21T14:09:30.000Z</time>
      </trkpt>
      <trkpt lat="44.50622" lon="6.25622">
        <ele>1549</ele>
        <time>2023-04-21T14:09:31.000Z</time>
      </trkpt>
      <trkpt lat="44.50622" lon="6.25622">
        <ele>1549</ele>
        <time>2023-04-21T14:09:32.000Z</time>
      </trkpt>
      <trkpt lat="44.50622" lon="6.25622">
        <ele>1549</ele>
        <time>2023-04-21T14:09:33.000Z</time>
      </trkpt>
      <trkpt lat="44.50622" lon="6.25622">
        <ele>1549</ele>
        <time>2023-04-21T14:09:34.000Z</time>
      </trkpt>
      <trkpt lat="44.50622" lon="6.25622">
        <ele>1549</ele>
        <time>2023-04-21T14:09:35.000Z</time>
      </trkpt>
      <trkpt lat="44.50622" lon="6.25622">
        <ele>1549</ele>
        <time>2023-04-21T14:09:36.000Z</time>
      </trkpt>
      <trkpt lat="44.50622" lon="6.25622">
        <ele>1550</ele>
        <time>2023-04-21T14:09:37.000Z</time>
      </trkpt>
      <trkpt lat="44.50622" lon="6.25622">
        <ele>1550</ele>
        <time>2023-04-21T14:09:38.000Z</time>
      </trkpt>
      <trkpt lat="44.50622" lon="6.25622">
        <ele>1550</ele>
        <time>2023-04-21T14:09:39.000Z</time>
      </trkpt>
      <trkpt lat="44.50622" lon="6.25622">
        <ele>1550</ele>
        <time>2023-04-21T14:09:40.000Z</time>
      </trkpt>
      <trkpt lat="44.50622" lon="6.25622">
        <ele>1550</ele>
        <time>2023-04-21T14:09:41.000Z</time>
      </trkpt>
      <trkpt lat="44.50623" lon="6.25622">
        <ele>1550</ele>
        <time>2023-04-21T14:09:42.000Z</time>
      </trkpt>
      <trkpt lat="44.50623" lon="6.25622">
        <ele>1550</ele>
        <time>2023-04-21T14:09:43.000Z</time>
      </trkpt>
      <trkpt lat="44.50623" lon="6.25622">
        <ele>1550</ele>
        <time>2023-04-21T14:09:44.000Z</time>
      </trkpt>
      <trkpt lat="44.50623" lon="6.25622">
        <ele>1551</ele>
        <time>2023-04-21T14:09:45.000Z</time>
      </trkpt>
      <trkpt lat="44.50623" lon="6.25622">
        <ele>1551</ele>
        <time>2023-04-21T14:09:46.000Z</time>
      </trkpt>
      <trkpt lat="44.50623" lon="6.25622">
        <ele>1551</ele>
        <time>2023-04-21T14:09:47.000Z</time>
      </trkpt>
      <trkpt lat="44.50623" lon="6.25622">
        <ele>1551</ele>
        <time>2023-04-21T14:09:48.000Z</time>
      </trkpt>
      <trkpt lat="44.50623" lon="6.25622">
        <ele>1551</ele>
        <time>2023-04-21T14:09:49.000Z</time>
      </trkpt>
      <trkpt lat="44.50623" lon="6.25622">
        <ele>1551</ele>
        <time>2023-04-21T14:09:50.000Z</time>
      </trkpt>
      <trkpt lat="44.50623" lon="6.25622">
        <ele>1551</ele>
        <time>2023-04-21T14:09:51.000Z</time>
      </trkpt>
      <trkpt lat="44.50623" lon="6.25622">
        <ele>1551</ele>
        <time>2023-04-21T14:09:52.000Z</time>
      </trkpt>
      <trkpt lat="44.50623" lon="6.25622">
        <ele>1551</ele>
        <time>2023-04-21T14:09:53.000Z</time>
      </trkpt>
      <trkpt lat="44.50623" lon="6.25622">
        <ele>1551</ele>
        <time>2023-04-21T14:09:54.000Z</time>
      </trkpt>
      <trkpt lat="44.50623" lon="6.25622">
        <ele>1551</ele>
        <time>2023-04-21T14:09:55.000Z</time>
      </trkpt>
      <trkpt lat="44.50623" lon="6.25622">
        <ele>1551</ele>
        <time>2023-04-21T14:09:56.000Z</time>
      </trkpt>
      <trkpt lat="44.50623" lon="6.25622">
        <ele>1551</ele>
        <time>2023-04-21T14:09:57.000Z</time>
      </trkpt>
      <trkpt lat="44.50623" lon="6.25622">
        <ele>1551</ele>
        <time>2023-04-21T14:09:58.000Z</time>
      </trkpt>
      <trkpt lat="44.50623" lon="6.25622">
        <ele>1551</ele>
        <time>2023-04-21T14:09:59.000Z</time>
      </trkpt>
      <trkpt lat="44.50623" lon="6.25622">
        <ele>1551</ele>
        <time>2023-04-21T14:10:00.000Z</time>
      </trkpt>
      <trkpt lat="44.50623" lon="6.25622">
        <ele>1551</ele>
        <time>2023-04-21T14:10:01.000Z</time>
      </trkpt>
      <trkpt lat="44.50623" lon="6.25622">
        <ele>1551</ele>
        <time>2023-04-21T14:10:02.000Z</time>
      </trkpt>
      <trkpt lat="44.50623" lon="6.25622">
        <ele>1551</ele>
        <time>2023-04-21T14:10:03.000Z</time>
      </trkpt>
      <trkpt lat="44.50623" lon="6.25622">
        <ele>1551</ele>
        <time>2023-04-21T14:10:04.000Z</time>
      </trkpt>
      <trkpt lat="44.50623" lon="6.25622">
        <ele>1551</ele>
        <time>2023-04-21T14:10:05.000Z</time>
      </trkpt>
      <trkpt lat="44.50623" lon="6.25622">
        <ele>1551</ele>
        <time>2023-04-21T14:10:06.000Z</time>
      </trkpt>
      <trkpt lat="44.50623" lon="6.25622">
        <ele>1551</ele>
        <time>2023-04-21T14:10:07.000Z</time>
      </trkpt>
      <trkpt lat="44.50623" lon="6.25622">
        <ele>1551</ele>
        <time>2023-04-21T14:10:08.000Z</time>
      </trkpt>
      <trkpt lat="44.50623" lon="6.25622">
        <ele>1551</ele>
        <time>2023-04-21T14:10:09.000Z</time>
      </trkpt>
      <trkpt lat="44.50623" lon="6.25622">
        <ele>1551</ele>
        <time>2023-04-21T14:10:10.000Z</time>
      </trkpt>
      <trkpt lat="44.50623" lon="6.25622">
        <ele>1551</ele>
        <time>2023-04-21T14:10:11.000Z</time>
      </trkpt>
      <trkpt lat="44.50623" lon="6.25622">
        <ele>1551</ele>
        <time>2023-04-21T14:10:12.000Z</time>
      </trkpt>
      <trkpt lat="44.50623" lon="6.25622">
        <ele>1551</ele>
        <time>2023-04-21T14:10:13.000Z</time>
      </trkpt>
      <trkpt lat="44.50624" lon="6.25622">
        <ele>1551</ele>
        <time>2023-04-21T14:10:14.000Z</time>
      </trkpt>
      <trkpt lat="44.50624" lon="6.25622">
        <ele>1551</ele>
        <time>2023-04-21T14:10:15.000Z</time>
      </trkpt>
      <trkpt lat="44.50624" lon="6.25622">
        <ele>1551</ele>
        <time>2023-04-21T14:10:16.000Z</time>
      </trkpt>
      <trkpt lat="44.50624" lon="6.25622">
        <ele>1551</ele>
        <time>2023-04-21T14:10:17.000Z</time>
      </trkpt>
      <trkpt lat="44.50624" lon="6.25621">
        <ele>1551</ele>
        <time>2023-04-21T14:10:18.000Z</time>
      </trkpt>
      <trkpt lat="44.50624" lon="6.25621">
        <ele>1551</ele>
        <time>2023-04-21T14:10:19.000Z</time>
      </trkpt>
      <trkpt lat="44.50624" lon="6.25621">
        <ele>1551</ele>
        <time>2023-04-21T14:10:20.000Z</time>
      </trkpt>
      <trkpt lat="44.50624" lon="6.25621">
        <ele>1551</ele>
        <time>2023-04-21T14:10:21.000Z</time>
      </trkpt>
      <trkpt lat="44.50624" lon="6.25621">
        <ele>1551</ele>
        <time>2023-04-21T14:10:22.000Z</time>
      </trkpt>
      <trkpt lat="44.50624" lon="6.25621">
        <ele>1551</ele>
        <time>2023-04-21T14:10:23.000Z</time>
      </trkpt>
      <trkpt lat="44.50624" lon="6.25621">
        <ele>1551</ele>
        <time>2023-04-21T14:10:24.000Z</time>
      </trkpt>
      <trkpt lat="44.50624" lon="6.25621">
        <ele>1551</ele>
        <time>2023-04-21T14:10:25.000Z</time>
      </trkpt>
      <trkpt lat="44.50624" lon="6.25621">
        <ele>1551</ele>
        <time>2023-04-21T14:10:26.000Z</time>
      </trkpt>
      <trkpt lat="44.50624" lon="6.25621">
        <ele>1551</ele>
        <time>2023-04-21T14:10:27.000Z</time>
      </trkpt>
      <trkpt lat="44.50624" lon="6.25621">
        <ele>1551</ele>
        <time>2023-04-21T14:10:28.000Z</time>
      </trkpt>
      <trkpt lat="44.50624" lon="6.25621">
        <ele>1551</ele>
        <time>2023-04-21T14:10:29.000Z</time>
      </trkpt>
      <trkpt lat="44.50624" lon="6.25621">
        <ele>1551</ele>
        <time>2023-04-21T14:10:30.000Z</time>
      </trkpt>
      <trkpt lat="44.50624" lon="6.25621">
        <ele>1551</ele>
        <time>2023-04-21T14:10:31.000Z</time>
      </trkpt>
      <trkpt lat="44.50624" lon="6.25621">
        <ele>1551</ele>
        <time>2023-04-21T14:10:32.000Z</time>
      </trkpt>
      <trkpt lat="44.50624" lon="6.25621">
        <ele>1551</ele>
        <time>2023-04-21T14:10:33.000Z</time>
      </trkpt>
      <trkpt lat="44.50624" lon="6.25621">
        <ele>1551</ele>
        <time>2023-04-21T14:10:34.000Z</time>
      </trkpt>
      <trkpt lat="44.50624" lon="6.25621">
        <ele>1551</ele>
        <time>2023-04-21T14:10:35.000Z</time>
      </trkpt>
      <trkpt lat="44.50624" lon="6.25621">
        <ele>1551</ele>
        <time>2023-04-21T14:10:36.000Z</time>
      </trkpt>
      <trkpt lat="44.50624" lon="6.25621">
        <ele>1551</ele>
        <time>2023-04-21T14:10:37.000Z</time>
      </trkpt>
      <trkpt lat="44.50624" lon="6.25621">
        <ele>1551</ele>
        <time>2023-04-21T14:10:38.000Z</time>
      </trkpt>
      <trkpt lat="44.50624" lon="6.25621">
        <ele>1551</ele>
        <time>2023-04-21T14:10:39.000Z</time>
      </trkpt>
      <trkpt lat="44.50624" lon="6.25621">
        <ele>1551</ele>
        <time>2023-04-21T14:10:40.000Z</time>
      </trkpt>
      <trkpt lat="44.50624" lon="6.25621">
        <ele>1550</ele>
        <time>2023-04-21T14:10:41.000Z</time>
      </trkpt>
      <trkpt lat="44.50624" lon="6.25621">
        <ele>1550</ele>
        <time>2023-04-21T14:10:42.000Z</time>
      </trkpt>
      <trkpt lat="44.50624" lon="6.25621">
        <ele>1550</ele>
        <time>2023-04-21T14:10:43.000Z</time>
      </trkpt>
      <trkpt lat="44.50624" lon="6.25621">
        <ele>1550</ele>
        <time>2023-04-21T14:10:44.000Z</time>
      </trkpt>
      <trkpt lat="44.50624" lon="6.25621">
        <ele>1550</ele>
        <time>2023-04-21T14:10:45.000Z</time>
      </trkpt>
      <trkpt lat="44.50624" lon="6.25621">
        <ele>1550</ele>
        <time>2023-04-21T14:10:46.000Z</time>
      </trkpt>
      <trkpt lat="44.50624" lon="6.25621">
        <ele>1550</ele>
        <time>2023-04-21T14:10:47.000Z</time>
      </trkpt>
      <trkpt lat="44.50624" lon="6.25621">
        <ele>1550</ele>
        <time>2023-04-21T14:10:48.000Z</time>
      </trkpt>
      <trkpt lat="44.50624" lon="6.25621">
        <ele>1550</ele>
        <time>2023-04-21T14:10:49.000Z</time>
      </trkpt>
      <trkpt lat="44.50624" lon="6.25621">
        <ele>1550</ele>
        <time>2023-04-21T14:10:50.000Z</time>
      </trkpt>
      <trkpt lat="44.50624" lon="6.25621">
        <ele>1550</ele>
        <time>2023-04-21T14:10:51.000Z</time>
      </trkpt>
      <trkpt lat="44.50624" lon="6.25621">
        <ele>1550</ele>
        <time>2023-04-21T14:10:52.000Z</time>
      </trkpt>
      <trkpt lat="44.50624" lon="6.25621">
        <ele>1550</ele>
        <time>2023-04-21T14:10:53.000Z</time>
      </trkpt>
      <trkpt lat="44.50624" lon="6.25621">
        <ele>1550</ele>
        <time>2023-04-21T14:10:54.000Z</time>
      </trkpt>
      <trkpt lat="44.50624" lon="6.25621">
        <ele>1550</ele>
        <time>2023-04-21T14:10:55.000Z</time>
      </trkpt>
      <trkpt lat="44.50624" lon="6.25621">
        <ele>1549</ele>
        <time>2023-04-21T14:10:56.000Z</time>
      </trkpt>
      <trkpt lat="44.50624" lon="6.25621">
        <ele>1549</ele>
        <time>2023-04-21T14:10:57.000Z</time>
      </trkpt>
      <trkpt lat="44.50624" lon="6.25621">
        <ele>1549</ele>
        <time>2023-04-21T14:10:58.000Z</time>
      </trkpt>
      <trkpt lat="44.50624" lon="6.25621">
        <ele>1549</ele>
        <time>2023-04-21T14:10:59.000Z</time>
      </trkpt>
      <trkpt lat="44.50624" lon="6.25621">
        <ele>1549</ele>
        <time>2023-04-21T14:11:00.000Z</time>
      </trkpt>
      <trkpt lat="44.50624" lon="6.25621">
        <ele>1549</ele>
        <time>2023-04-21T14:11:01.000Z</time>
      </trkpt>
      <trkpt lat="44.50624" lon="6.25621">
        <ele>1549</ele>
        <time>2023-04-21T14:11:02.000Z</time>
      </trkpt>
      <trkpt lat="44.50624" lon="6.25621">
        <ele>1549</ele>
        <time>2023-04-21T14:11:03.000Z</time>
      </trkpt>
      <trkpt lat="44.50624" lon="6.25621">
        <ele>1549</ele>
        <time>2023-04-21T14:11:04.000Z</time>
      </trkpt>
      <trkpt lat="44.50624" lon="6.25621">
        <ele>1549</ele>
        <time>2023-04-21T14:11:05.000Z</time>
      </trkpt>
      <trkpt lat="44.50624" lon="6.25622">
        <ele>1549</ele>
        <time>2023-04-21T14:11:06.000Z</time>
      </trkpt>
      <trkpt lat="44.50624" lon="6.25622">
        <ele>1549</ele>
        <time>2023-04-21T14:11:07.000Z</time>
      </trkpt>
      <trkpt lat="44.50624" lon="6.25622">
        <ele>1549</ele>
        <time>2023-04-21T14:11:08.000Z</time>
      </trkpt>
      <trkpt lat="44.50624" lon="6.25622">
        <ele>1549</ele>
        <time>2023-04-21T14:11:09.000Z</time>
      </trkpt>
      <trkpt lat="44.50623" lon="6.25622">
        <ele>1549</ele>
        <time>2023-04-21T14:11:10.000Z</time>
      </trkpt>
      <trkpt lat="44.50623" lon="6.25622">
        <ele>1549</ele>
        <time>2023-04-21T14:11:11.000Z</time>
      </trkpt>
      <trkpt lat="44.50623" lon="6.25622">
        <ele>1549</ele>
        <time>2023-04-21T14:11:12.000Z</time>
      </trkpt>
      <trkpt lat="44.50623" lon="6.25622">
        <ele>1549</ele>
        <time>2023-04-21T14:11:13.000Z</time>
      </trkpt>
      <trkpt lat="44.50623" lon="6.25622">
        <ele>1549</ele>
        <time>2023-04-21T14:11:14.000Z</time>
      </trkpt>
      <trkpt lat="44.50623" lon="6.25622">
        <ele>1549</ele>
        <time>2023-04-21T14:11:15.000Z</time>
      </trkpt>
      <trkpt lat="44.50623" lon="6.25622">
        <ele>1549</ele>
        <time>2023-04-21T14:11:16.000Z</time>
      </trkpt>
      <trkpt lat="44.50623" lon="6.25623">
        <ele>1549</ele>
        <time>2023-04-21T14:11:17.000Z</time>
      </trkpt>
      <trkpt lat="44.50623" lon="6.25623">
        <ele>1549</ele>
        <time>2023-04-21T14:11:18.000Z</time>
      </trkpt>
      <trkpt lat="44.50623" lon="6.25623">
        <ele>1550</ele>
        <time>2023-04-21T14:11:19.000Z</time>
      </trkpt>
      <trkpt lat="44.50623" lon="6.25623">
        <ele>1550</ele>
        <time>2023-04-21T14:11:20.000Z</time>
      </trkpt>
      <trkpt lat="44.50623" lon="6.25623">
        <ele>1550</ele>
        <time>2023-04-21T14:11:21.000Z</time>
      </trkpt>
      <trkpt lat="44.50623" lon="6.25623">
        <ele>1550</ele>
        <time>2023-04-21T14:11:22.000Z</time>
      </trkpt>
      <trkpt lat="44.50623" lon="6.25623">
        <ele>1550</ele>
        <time>2023-04-21T14:11:23.000Z</time>
      </trkpt>
      <trkpt lat="44.50623" lon="6.25623">
        <ele>1550</ele>
        <time>2023-04-21T14:11:24.000Z</time>
      </trkpt>
      <trkpt lat="44.50623" lon="6.25623">
        <ele>1550</ele>
        <time>2023-04-21T14:11:25.000Z</time>
      </trkpt>
      <trkpt lat="44.50623" lon="6.25623">
        <ele>1550</ele>
        <time>2023-04-21T14:11:26.000Z</time>
      </trkpt>
      <trkpt lat="44.50623" lon="6.25623">
        <ele>1550</ele>
        <time>2023-04-21T14:11:27.000Z</time>
      </trkpt>
      <trkpt lat="44.50623" lon="6.25623">
        <ele>1550</ele>
        <time>2023-04-21T14:11:28.000Z</time>
      </trkpt>
      <trkpt lat="44.50623" lon="6.25623">
        <ele>1550</ele>
        <time>2023-04-21T14:11:29.000Z</time>
      </trkpt>
      <trkpt lat="44.50622" lon="6.25624">
        <ele>1550</ele>
        <time>2023-04-21T14:11:30.000Z</time>
      </trkpt>
      <trkpt lat="44.50622" lon="6.25624">
        <ele>1550</ele>
        <time>2023-04-21T14:11:31.000Z</time>
      </trkpt>
      <trkpt lat="44.50622" lon="6.25624">
        <ele>1550</ele>
        <time>2023-04-21T14:11:32.000Z</time>
      </trkpt>
      <trkpt lat="44.50622" lon="6.25624">
        <ele>1550</ele>
        <time>2023-04-21T14:11:33.000Z</time>
      </trkpt>
      <trkpt lat="44.50622" lon="6.25624">
        <ele>1549</ele>
        <time>2023-04-21T14:11:34.000Z</time>
      </trkpt>
      <trkpt lat="44.50622" lon="6.25624">
        <ele>1549</ele>
        <time>2023-04-21T14:11:35.000Z</time>
      </trkpt>
      <trkpt lat="44.50622" lon="6.25624">
        <ele>1549</ele>
        <time>2023-04-21T14:11:36.000Z</time>
      </trkpt>
      <trkpt lat="44.50622" lon="6.25624">
        <ele>1549</ele>
        <time>2023-04-21T14:11:37.000Z</time>
      </trkpt>
      <trkpt lat="44.50622" lon="6.25624">
        <ele>1549</ele>
        <time>2023-04-21T14:11:38.000Z</time>
      </trkpt>
      <trkpt lat="44.50622" lon="6.25624">
        <ele>1549</ele>
        <time>2023-04-21T14:11:39.000Z</time>
      </trkpt>
      <trkpt lat="44.50622" lon="6.25624">
        <ele>1549</ele>
        <time>2023-04-21T14:11:40.000Z</time>
      </trkpt>
      <trkpt lat="44.50622" lon="6.25624">
        <ele>1549</ele>
        <time>2023-04-21T14:11:41.000Z</time>
      </trkpt>
      <trkpt lat="44.50621" lon="6.25624">
        <ele>1549</ele>
        <time>2023-04-21T14:11:42.000Z</time>
      </trkpt>
      <trkpt lat="44.50621" lon="6.25624">
        <ele>1549</ele>
        <time>2023-04-21T14:11:43.000Z</time>
      </trkpt>
      <trkpt lat="44.50621" lon="6.25624">
        <ele>1549</ele>
        <time>2023-04-21T14:11:44.000Z</time>
      </trkpt>
      <trkpt lat="44.50621" lon="6.25624">
        <ele>1548</ele>
        <time>2023-04-21T14:11:45.000Z</time>
      </trkpt>
      <trkpt lat="44.50621" lon="6.25624">
        <ele>1548</ele>
        <time>2023-04-21T14:11:46.000Z</time>
      </trkpt>
      <trkpt lat="44.50621" lon="6.25624">
        <ele>1548</ele>
        <time>2023-04-21T14:11:47.000Z</time>
      </trkpt>
      <trkpt lat="44.50621" lon="6.25624">
        <ele>1548</ele>
        <time>2023-04-21T14:11:48.000Z</time>
      </trkpt>
      <trkpt lat="44.50621" lon="6.25624">
        <ele>1548</ele>
        <time>2023-04-21T14:11:49.000Z</time>
      </trkpt>
      <trkpt lat="44.50621" lon="6.25624">
        <ele>1548</ele>
        <time>2023-04-21T14:11:50.000Z</time>
      </trkpt>
      <trkpt lat="44.50621" lon="6.25624">
        <ele>1548</ele>
        <time>2023-04-21T14:11:51.000Z</time>
      </trkpt>
      <trkpt lat="44.50621" lon="6.25624">
        <ele>1548</ele>
        <time>2023-04-21T14:11:52.000Z</time>
      </trkpt>
      <trkpt lat="44.50621" lon="6.25624">
        <ele>1548</ele>
        <time>2023-04-21T14:11:53.000Z</time>
      </trkpt>
      <trkpt lat="44.50621" lon="6.25624">
        <ele>1548</ele>
        <time>2023-04-21T14:11:54.000Z</time>
      </trkpt>
      <trkpt lat="44.50621" lon="6.25624">
        <ele>1548</ele>
        <time>2023-04-21T14:11:55.000Z</time>
      </trkpt>
      <trkpt lat="44.50621" lon="6.25624">
        <ele>1548</ele>
        <time>2023-04-21T14:11:56.000Z</time>
      </trkpt>
      <trkpt lat="44.50621" lon="6.25624">
        <ele>1547</ele>
        <time>2023-04-21T14:11:57.000Z</time>
      </trkpt>
      <trkpt lat="44.50621" lon="6.25624">
        <ele>1547</ele>
        <time>2023-04-21T14:11:58.000Z</time>
      </trkpt>
      <trkpt lat="44.50622" lon="6.25624">
        <ele>1547</ele>
        <time>2023-04-21T14:11:59.000Z</time>
      </trkpt>
      <trkpt lat="44.50622" lon="6.25624">
        <ele>1547</ele>
        <time>2023-04-21T14:12:00.000Z</time>
      </trkpt>
      <trkpt lat="44.50622" lon="6.25624">
        <ele>1547</ele>
        <time>2023-04-21T14:12:01.000Z</time>
      </trkpt>
      <trkpt lat="44.50622" lon="6.25624">
        <ele>1547</ele>
        <time>2023-04-21T14:12:02.000Z</time>
      </trkpt>
      <trkpt lat="44.50622" lon="6.25624">
        <ele>1547</ele>
        <time>2023-04-21T14:12:03.000Z</time>
      </trkpt>
      <trkpt lat="44.50622" lon="6.25624">
        <ele>1547</ele>
        <time>2023-04-21T14:12:04.000Z</time>
      </trkpt>
      <trkpt lat="44.50622" lon="6.25624">
        <ele>1547</ele>
        <time>2023-04-21T14:12:05.000Z</time>
      </trkpt>
      <trkpt lat="44.50622" lon="6.25624">
        <ele>1547</ele>
        <time>2023-04-21T14:12:06.000Z</time>
      </trkpt>
      <trkpt lat="44.50622" lon="6.25624">
        <ele>1547</ele>
        <time>2023-04-21T14:12:07.000Z</time>
      </trkpt>
      <trkpt lat="44.50622" lon="6.25624">
        <ele>1547</ele>
        <time>2023-04-21T14:12:08.000Z</time>
      </trkpt>
      <trkpt lat="44.50622" lon="6.25624">
        <ele>1547</ele>
        <time>2023-04-21T14:12:09.000Z</time>
      </trkpt>
      <trkpt lat="44.50622" lon="6.25624">
        <ele>1547</ele>
        <time>2023-04-21T14:12:10.000Z</time>
      </trkpt>
      <trkpt lat="44.50622" lon="6.25624">
        <ele>1547</ele>
        <time>2023-04-21T14:12:11.000Z</time>
      </trkpt>
      <trkpt lat="44.50623" lon="6.25624">
        <ele>1547</ele>
        <time>2023-04-21T14:12:12.000Z</time>
      </trkpt>
      <trkpt lat="44.50623" lon="6.25624">
        <ele>1547</ele>
        <time>2023-04-21T14:12:13.000Z</time>
      </trkpt>
      <trkpt lat="44.50623" lon="6.25624">
        <ele>1546</ele>
        <time>2023-04-21T14:12:14.000Z</time>
      </trkpt>
      <trkpt lat="44.50623" lon="6.25624">
        <ele>1546</ele>
        <time>2023-04-21T14:12:15.000Z</time>
      </trkpt>
      <trkpt lat="44.50623" lon="6.25624">
        <ele>1546</ele>
        <time>2023-04-21T14:12:16.000Z</time>
      </trkpt>
      <trkpt lat="44.50623" lon="6.25624">
        <ele>1546</ele>
        <time>2023-04-21T14:12:17.000Z</time>
      </trkpt>
      <trkpt lat="44.50623" lon="6.25624">
        <ele>1546</ele>
        <time>2023-04-21T14:12:18.000Z</time>
      </trkpt>
      <trkpt lat="44.50623" lon="6.25624">
        <ele>1546</ele>
        <time>2023-04-21T14:12:19.000Z</time>
      </trkpt>
      <trkpt lat="44.50623" lon="6.25624">
        <ele>1546</ele>
        <time>2023-04-21T14:12:20.000Z</time>
      </trkpt>
      <trkpt lat="44.50623" lon="6.25624">
        <ele>1546</ele>
        <time>2023-04-21T14:12:21.000Z</time>
      </trkpt>
      <trkpt lat="44.50623" lon="6.25624">
        <ele>1546</ele>
        <time>2023-04-21T14:12:22.000Z</time>
      </trkpt>
      <trkpt lat="44.50623" lon="6.25624">
        <ele>1546</ele>
        <time>2023-04-21T14:12:23.000Z</time>
      </trkpt>
      <trkpt lat="44.50623" lon="6.25624">
        <ele>1547</ele>
        <time>2023-04-21T14:12:24.000Z</time>
      </trkpt>
      <trkpt lat="44.50623" lon="6.25624">
        <ele>1547</ele>
        <time>2023-04-21T14:12:25.000Z</time>
      </trkpt>
      <trkpt lat="44.50623" lon="6.25625">
        <ele>1547</ele>
        <time>2023-04-21T14:12:26.000Z</time>
      </trkpt>
      <trkpt lat="44.50623" lon="6.25625">
        <ele>1547</ele>
        <time>2023-04-21T14:12:27.000Z</time>
      </trkpt>
      <trkpt lat="44.50623" lon="6.25626">
        <ele>1548</ele>
        <time>2023-04-21T14:12:28.000Z</time>
      </trkpt>
      <trkpt lat="44.50622" lon="6.25627">
        <ele>1548</ele>
        <time>2023-04-21T14:12:29.000Z</time>
      </trkpt>
      <trkpt lat="44.50622" lon="6.25627">
        <ele>1548</ele>
        <time>2023-04-21T14:12:30.000Z</time>
      </trkpt>
      <trkpt lat="44.50622" lon="6.25627">
        <ele>1548</ele>
        <time>2023-04-21T14:12:31.000Z</time>
      </trkpt>
      <trkpt lat="44.50622" lon="6.25627">
        <ele>1548</ele>
        <time>2023-04-21T14:12:32.000Z</time>
      </trkpt>
      <trkpt lat="44.50622" lon="6.25627">
        <ele>1548</ele>
        <time>2023-04-21T14:12:33.000Z</time>
      </trkpt>
      <trkpt lat="44.50622" lon="6.25628">
        <ele>1548</ele>
        <time>2023-04-21T14:12:34.000Z</time>
      </trkpt>
      <trkpt lat="44.50621" lon="6.25628">
        <ele>1548</ele>
        <time>2023-04-21T14:12:35.000Z</time>
      </trkpt>
      <trkpt lat="44.50621" lon="6.2563">
        <ele>1548</ele>
        <time>2023-04-21T14:12:36.000Z</time>
      </trkpt>
      <trkpt lat="44.5062" lon="6.25633">
        <ele>1549</ele>
        <time>2023-04-21T14:12:37.000Z</time>
      </trkpt>
      <trkpt lat="44.50618" lon="6.25636">
        <ele>1549</ele>
        <time>2023-04-21T14:12:38.000Z</time>
      </trkpt>
      <trkpt lat="44.50617" lon="6.2564">
        <ele>1549</ele>
        <time>2023-04-21T14:12:39.000Z</time>
      </trkpt>
      <trkpt lat="44.50615" lon="6.25644">
        <ele>1548</ele>
        <time>2023-04-21T14:12:40.000Z</time>
      </trkpt>
      <trkpt lat="44.50613" lon="6.25647">
        <ele>1548</ele>
        <time>2023-04-21T14:12:41.000Z</time>
      </trkpt>
      <trkpt lat="44.50612" lon="6.25651">
        <ele>1548</ele>
        <time>2023-04-21T14:12:42.000Z</time>
      </trkpt>
      <trkpt lat="44.50611" lon="6.25654">
        <ele>1548</ele>
        <time>2023-04-21T14:12:43.000Z</time>
      </trkpt>
      <trkpt lat="44.50609" lon="6.25657">
        <ele>1548</ele>
        <time>2023-04-21T14:12:44.000Z</time>
      </trkpt>
      <trkpt lat="44.50608" lon="6.25661">
        <ele>1548</ele>
        <time>2023-04-21T14:12:45.000Z</time>
      </trkpt>
      <trkpt lat="44.50607" lon="6.25664">
        <ele>1548</ele>
        <time>2023-04-21T14:12:46.000Z</time>
      </trkpt>
      <trkpt lat="44.50605" lon="6.25669">
        <ele>1548</ele>
        <time>2023-04-21T14:12:47.000Z</time>
      </trkpt>
      <trkpt lat="44.50604" lon="6.25673">
        <ele>1548</ele>
        <time>2023-04-21T14:12:48.000Z</time>
      </trkpt>
      <trkpt lat="44.50602" lon="6.25676">
        <ele>1548</ele>
        <time>2023-04-21T14:12:49.000Z</time>
      </trkpt>
      <trkpt lat="44.50601" lon="6.2568">
        <ele>1547</ele>
        <time>2023-04-21T14:12:50.000Z</time>
      </trkpt>
      <trkpt lat="44.50599" lon="6.25684">
        <ele>1547</ele>
        <time>2023-04-21T14:12:51.000Z</time>
      </trkpt>
      <trkpt lat="44.50598" lon="6.25688">
        <ele>1547</ele>
        <time>2023-04-21T14:12:52.000Z</time>
      </trkpt>
      <trkpt lat="44.50597" lon="6.25691">
        <ele>1547</ele>
        <time>2023-04-21T14:12:53.000Z</time>
      </trkpt>
      <trkpt lat="44.50596" lon="6.25695">
        <ele>1547</ele>
        <time>2023-04-21T14:12:54.000Z</time>
      </trkpt>
      <trkpt lat="44.50595" lon="6.25698">
        <ele>1547</ele>
        <time>2023-04-21T14:12:55.000Z</time>
      </trkpt>
      <trkpt lat="44.50594" lon="6.25702">
        <ele>1547</ele>
        <time>2023-04-21T14:12:56.000Z</time>
      </trkpt>
      <trkpt lat="44.50593" lon="6.25705">
        <ele>1546</ele>
        <time>2023-04-21T14:12:57.000Z</time>
      </trkpt>
      <trkpt lat="44.50592" lon="6.25709">
        <ele>1547</ele>
        <time>2023-04-21T14:12:58.000Z</time>
      </trkpt>
      <trkpt lat="44.50591" lon="6.25713">
        <ele>1546</ele>
        <time>2023-04-21T14:12:59.000Z</time>
      </trkpt>
      <trkpt lat="44.50591" lon="6.25716">
        <ele>1547</ele>
        <time>2023-04-21T14:13:00.000Z</time>
      </trkpt>
      <trkpt lat="44.5059" lon="6.2572">
        <ele>1546</ele>
        <time>2023-04-21T14:13:01.000Z</time>
      </trkpt>
      <trkpt lat="44.5059" lon="6.25724">
        <ele>1545</ele>
        <time>2023-04-21T14:13:02.000Z</time>
      </trkpt>
      <trkpt lat="44.5059" lon="6.25728">
        <ele>1545</ele>
        <time>2023-04-21T14:13:03.000Z</time>
      </trkpt>
      <trkpt lat="44.50588" lon="6.25733">
        <ele>1545</ele>
        <time>2023-04-21T14:13:04.000Z</time>
      </trkpt>
      <trkpt lat="44.50587" lon="6.25738">
        <ele>1544</ele>
        <time>2023-04-21T14:13:05.000Z</time>
      </trkpt>
      <trkpt lat="44.50585" lon="6.25743">
        <ele>1543</ele>
        <time>2023-04-21T14:13:06.000Z</time>
      </trkpt>
      <trkpt lat="44.50584" lon="6.25748">
        <ele>1543</ele>
        <time>2023-04-21T14:13:07.000Z</time>
      </trkpt>
      <trkpt lat="44.50583" lon="6.25754">
        <ele>1543</ele>
        <time>2023-04-21T14:13:08.000Z</time>
      </trkpt>
      <trkpt lat="44.50581" lon="6.25759">
        <ele>1542</ele>
        <time>2023-04-21T14:13:09.000Z</time>
      </trkpt>
      <trkpt lat="44.5058" lon="6.25764">
        <ele>1541</ele>
        <time>2023-04-21T14:13:10.000Z</time>
      </trkpt>
      <trkpt lat="44.50578" lon="6.25769">
        <ele>1541</ele>
        <time>2023-04-21T14:13:11.000Z</time>
      </trkpt>
      <trkpt lat="44.50576" lon="6.25774">
        <ele>1540</ele>
        <time>2023-04-21T14:13:12.000Z</time>
      </trkpt>
      <trkpt lat="44.50575" lon="6.25778">
        <ele>1539</ele>
        <time>2023-04-21T14:13:13.000Z</time>
      </trkpt>
      <trkpt lat="44.50575" lon="6.25783">
        <ele>1538</ele>
        <time>2023-04-21T14:13:14.000Z</time>
      </trkpt>
      <trkpt lat="44.50574" lon="6.25789">
        <ele>1536</ele>
        <time>2023-04-21T14:13:15.000Z</time>
      </trkpt>
      <trkpt lat="44.50576" lon="6.25797">
        <ele>1534</ele>
        <time>2023-04-21T14:13:16.000Z</time>
      </trkpt>
      <trkpt lat="44.50577" lon="6.25803">
        <ele>1534</ele>
        <time>2023-04-21T14:13:17.000Z</time>
      </trkpt>
      <trkpt lat="44.50578" lon="6.2581">
        <ele>1533</ele>
        <time>2023-04-21T14:13:18.000Z</time>
      </trkpt>
      <trkpt lat="44.50577" lon="6.25816">
        <ele>1532</ele>
        <time>2023-04-21T14:13:19.000Z</time>
      </trkpt>
      <trkpt lat="44.50578" lon="6.25823">
        <ele>1530</ele>
        <time>2023-04-21T14:13:20.000Z</time>
      </trkpt>
      <trkpt lat="44.50577" lon="6.25831">
        <ele>1529</ele>
        <time>2023-04-21T14:13:21.000Z</time>
      </trkpt>
      <trkpt lat="44.50576" lon="6.25837">
        <ele>1528</ele>
        <time>2023-04-21T14:13:22.000Z</time>
      </trkpt>
      <trkpt lat="44.50575" lon="6.25845">
        <ele>1527</ele>
        <time>2023-04-21T14:13:23.000Z</time>
      </trkpt>
      <trkpt lat="44.50575" lon="6.25853">
        <ele>1527</ele>
        <time>2023-04-21T14:13:24.000Z</time>
      </trkpt>
      <trkpt lat="44.50577" lon="6.25863">
        <ele>1526</ele>
        <time>2023-04-21T14:13:25.000Z</time>
      </trkpt>
      <trkpt lat="44.50577" lon="6.25871">
        <ele>1525</ele>
        <time>2023-04-21T14:13:26.000Z</time>
      </trkpt>
      <trkpt lat="44.50577" lon="6.25879">
        <ele>1524</ele>
        <time>2023-04-21T14:13:27.000Z</time>
      </trkpt>
      <trkpt lat="44.50578" lon="6.25888">
        <ele>1523</ele>
        <time>2023-04-21T14:13:28.000Z</time>
      </trkpt>
      <trkpt lat="44.50578" lon="6.25899">
        <ele>1522</ele>
        <time>2023-04-21T14:13:29.000Z</time>
      </trkpt>
      <trkpt lat="44.50578" lon="6.25907">
        <ele>1521</ele>
        <time>2023-04-21T14:13:30.000Z</time>
      </trkpt>
      <trkpt lat="44.50578" lon="6.25916">
        <ele>1521</ele>
        <time>2023-04-21T14:13:31.000Z</time>
      </trkpt>
      <trkpt lat="44.50577" lon="6.25926">
        <ele>1520</ele>
        <time>2023-04-21T14:13:32.000Z</time>
      </trkpt>
      <trkpt lat="44.50575" lon="6.25935">
        <ele>1519</ele>
        <time>2023-04-21T14:13:33.000Z</time>
      </trkpt>
      <trkpt lat="44.50575" lon="6.25945">
        <ele>1519</ele>
        <time>2023-04-21T14:13:34.000Z</time>
      </trkpt>
      <trkpt lat="44.50573" lon="6.25954">
        <ele>1518</ele>
        <time>2023-04-21T14:13:35.000Z</time>
      </trkpt>
      <trkpt lat="44.50572" lon="6.25963">
        <ele>1517</ele>
        <time>2023-04-21T14:13:36.000Z</time>
      </trkpt>
      <trkpt lat="44.50569" lon="6.25972">
        <ele>1517</ele>
        <time>2023-04-21T14:13:37.000Z</time>
      </trkpt>
      <trkpt lat="44.50567" lon="6.2598">
        <ele>1516</ele>
        <time>2023-04-21T14:13:38.000Z</time>
      </trkpt>
      <trkpt lat="44.50564" lon="6.25988">
        <ele>1515</ele>
        <time>2023-04-21T14:13:39.000Z</time>
      </trkpt>
      <trkpt lat="44.50561" lon="6.25995">
        <ele>1515</ele>
        <time>2023-04-21T14:13:40.000Z</time>
      </trkpt>
      <trkpt lat="44.50559" lon="6.26004">
        <ele>1513</ele>
        <time>2023-04-21T14:13:41.000Z</time>
      </trkpt>
      <trkpt lat="44.50555" lon="6.26013">
        <ele>1512</ele>
        <time>2023-04-21T14:13:42.000Z</time>
      </trkpt>
      <trkpt lat="44.50552" lon="6.26022">
        <ele>1512</ele>
        <time>2023-04-21T14:13:43.000Z</time>
      </trkpt>
      <trkpt lat="44.50549" lon="6.26031">
        <ele>1512</ele>
        <time>2023-04-21T14:13:44.000Z</time>
      </trkpt>
      <trkpt lat="44.50546" lon="6.26039">
        <ele>1512</ele>
        <time>2023-04-21T14:13:45.000Z</time>
      </trkpt>
      <trkpt lat="44.50543" lon="6.26042">
        <ele>1515</ele>
        <time>2023-04-21T14:13:46.000Z</time>
      </trkpt>
      <trkpt lat="44.50538" lon="6.26044">
        <ele>1521</ele>
        <time>2023-04-21T14:13:47.000Z</time>
      </trkpt>
      <trkpt lat="44.50535" lon="6.26048">
        <ele>1521</ele>
        <time>2023-04-21T14:13:48.000Z</time>
      </trkpt>
      <trkpt lat="44.50534" lon="6.26049">
        <ele>1521</ele>
        <time>2023-04-21T14:13:49.000Z</time>
      </trkpt>
      <trkpt lat="44.50535" lon="6.26051">
        <ele>1520</ele>
        <time>2023-04-21T14:13:50.000Z</time>
      </trkpt>
      <trkpt lat="44.50535" lon="6.26052">
        <ele>1521</ele>
        <time>2023-04-21T14:13:51.000Z</time>
      </trkpt>
      <trkpt lat="44.50536" lon="6.26053">
        <ele>1521</ele>
        <time>2023-04-21T14:13:52.000Z</time>
      </trkpt>
      <trkpt lat="44.50536" lon="6.26054">
        <ele>1520</ele>
        <time>2023-04-21T14:13:53.000Z</time>
      </trkpt>
      <trkpt lat="44.50536" lon="6.26054">
        <ele>1520</ele>
        <time>2023-04-21T14:13:54.000Z</time>
      </trkpt>
      <trkpt lat="44.50535" lon="6.26055">
        <ele>1519</ele>
        <time>2023-04-21T14:13:55.000Z</time>
      </trkpt>
      <trkpt lat="44.50535" lon="6.26056">
        <ele>1519</ele>
        <time>2023-04-21T14:13:56.000Z</time>
      </trkpt>
      <trkpt lat="44.50535" lon="6.26056">
        <ele>1519</ele>
        <time>2023-04-21T14:13:57.000Z</time>
      </trkpt>
      <trkpt lat="44.50535" lon="6.26056">
        <ele>1518</ele>
        <time>2023-04-21T14:13:58.000Z</time>
      </trkpt>
      <trkpt lat="44.50535" lon="6.26056">
        <ele>1518</ele>
        <time>2023-04-21T14:13:59.000Z</time>
      </trkpt>
      <trkpt lat="44.50535" lon="6.26057">
        <ele>1518</ele>
        <time>2023-04-21T14:14:00.000Z</time>
      </trkpt>
      <trkpt lat="44.50535" lon="6.26057">
        <ele>1518</ele>
        <time>2023-04-21T14:14:01.000Z</time>
      </trkpt>
      <trkpt lat="44.50535" lon="6.26057">
        <ele>1518</ele>
        <time>2023-04-21T14:14:02.000Z</time>
      </trkpt>
      <trkpt lat="44.50534" lon="6.26057">
        <ele>1518</ele>
        <time>2023-04-21T14:14:03.000Z</time>
      </trkpt>
      <trkpt lat="44.50534" lon="6.26057">
        <ele>1518</ele>
        <time>2023-04-21T14:14:04.000Z</time>
      </trkpt>
      <trkpt lat="44.50534" lon="6.26057">
        <ele>1518</ele>
        <time>2023-04-21T14:14:05.000Z</time>
      </trkpt>
      <trkpt lat="44.50534" lon="6.26057">
        <ele>1518</ele>
        <time>2023-04-21T14:14:06.000Z</time>
      </trkpt>
      <trkpt lat="44.50534" lon="6.26057">
        <ele>1518</ele>
        <time>2023-04-21T14:14:07.000Z</time>
      </trkpt>
      <trkpt lat="44.50534" lon="6.26058">
        <ele>1518</ele>
        <time>2023-04-21T14:14:08.000Z</time>
      </trkpt>
      <trkpt lat="44.50534" lon="6.26058">
        <ele>1517</ele>
        <time>2023-04-21T14:14:09.000Z</time>
      </trkpt>
      <trkpt lat="44.50534" lon="6.26058">
        <ele>1517</ele>
        <time>2023-04-21T14:14:10.000Z</time>
      </trkpt>
      <trkpt lat="44.50534" lon="6.26058">
        <ele>1517</ele>
        <time>2023-04-21T14:14:11.000Z</time>
      </trkpt>
      <trkpt lat="44.50534" lon="6.26058">
        <ele>1517</ele>
        <time>2023-04-21T14:14:12.000Z</time>
      </trkpt>
      <trkpt lat="44.50533" lon="6.26058">
        <ele>1517</ele>
        <time>2023-04-21T14:14:13.000Z</time>
      </trkpt>
      <trkpt lat="44.50533" lon="6.26058">
        <ele>1517</ele>
        <time>2023-04-21T14:14:14.000Z</time>
      </trkpt>
      <trkpt lat="44.50533" lon="6.26058">
        <ele>1517</ele>
        <time>2023-04-21T14:14:15.000Z</time>
      </trkpt>
      <trkpt lat="44.50533" lon="6.26058">
        <ele>1517</ele>
        <time>2023-04-21T14:14:16.000Z</time>
      </trkpt>
      <trkpt lat="44.50533" lon="6.26058">
        <ele>1517</ele>
        <time>2023-04-21T14:14:17.000Z</time>
      </trkpt>
      <trkpt lat="44.50533" lon="6.26058">
        <ele>1517</ele>
        <time>2023-04-21T14:14:18.000Z</time>
      </trkpt>
      <trkpt lat="44.50533" lon="6.26058">
        <ele>1516</ele>
        <time>2023-04-21T14:14:19.000Z</time>
      </trkpt>
      <trkpt lat="44.50533" lon="6.26058">
        <ele>1516</ele>
        <time>2023-04-21T14:14:20.000Z</time>
      </trkpt>
      <trkpt lat="44.50533" lon="6.26058">
        <ele>1516</ele>
        <time>2023-04-21T14:14:21.000Z</time>
      </trkpt>
      <trkpt lat="44.50533" lon="6.26059">
        <ele>1516</ele>
        <time>2023-04-21T14:14:22.000Z</time>
      </trkpt>
      <trkpt lat="44.50533" lon="6.26059">
        <ele>1516</ele>
        <time>2023-04-21T14:14:23.000Z</time>
      </trkpt>
      <trkpt lat="44.50533" lon="6.26059">
        <ele>1516</ele>
        <time>2023-04-21T14:14:24.000Z</time>
      </trkpt>
      <trkpt lat="44.50532" lon="6.26059">
        <ele>1516</ele>
        <time>2023-04-21T14:14:25.000Z</time>
      </trkpt>
      <trkpt lat="44.50532" lon="6.26059">
        <ele>1516</ele>
        <time>2023-04-21T14:14:26.000Z</time>
      </trkpt>
      <trkpt lat="44.50532" lon="6.26059">
        <ele>1516</ele>
        <time>2023-04-21T14:14:27.000Z</time>
      </trkpt>
      <trkpt lat="44.50532" lon="6.26059">
        <ele>1516</ele>
        <time>2023-04-21T14:14:28.000Z</time>
      </trkpt>
      <trkpt lat="44.50532" lon="6.26059">
        <ele>1516</ele>
        <time>2023-04-21T14:14:29.000Z</time>
      </trkpt>
      <trkpt lat="44.50532" lon="6.26059">
        <ele>1516</ele>
        <time>2023-04-21T14:14:30.000Z</time>
      </trkpt>
      <trkpt lat="44.50532" lon="6.26059">
        <ele>1516</ele>
        <time>2023-04-21T14:14:31.000Z</time>
      </trkpt>
      <trkpt lat="44.50532" lon="6.26059">
        <ele>1516</ele>
        <time>2023-04-21T14:14:32.000Z</time>
      </trkpt>
      <trkpt lat="44.50532" lon="6.26059">
        <ele>1516</ele>
        <time>2023-04-21T14:14:33.000Z</time>
      </trkpt>
      <trkpt lat="44.50532" lon="6.2606">
        <ele>1515</ele>
        <time>2023-04-21T14:14:34.000Z</time>
      </trkpt>
      <trkpt lat="44.50532" lon="6.2606">
        <ele>1515</ele>
        <time>2023-04-21T14:14:35.000Z</time>
      </trkpt>
      <trkpt lat="44.50532" lon="6.2606">
        <ele>1515</ele>
        <time>2023-04-21T14:14:36.000Z</time>
      </trkpt>
      <trkpt lat="44.50532" lon="6.2606">
        <ele>1515</ele>
        <time>2023-04-21T14:14:37.000Z</time>
      </trkpt>
      <trkpt lat="44.50532" lon="6.2606">
        <ele>1515</ele>
        <time>2023-04-21T14:14:38.000Z</time>
      </trkpt>
      <trkpt lat="44.50532" lon="6.2606">
        <ele>1515</ele>
        <time>2023-04-21T14:14:39.000Z</time>
      </trkpt>
      <trkpt lat="44.50532" lon="6.2606">
        <ele>1515</ele>
        <time>2023-04-21T14:14:40.000Z</time>
      </trkpt>
      <trkpt lat="44.50532" lon="6.2606">
        <ele>1515</ele>
        <time>2023-04-21T14:14:41.000Z</time>
      </trkpt>
      <trkpt lat="44.50532" lon="6.2606">
        <ele>1515</ele>
        <time>2023-04-21T14:14:42.000Z</time>
      </trkpt>
      <trkpt lat="44.50532" lon="6.2606">
        <ele>1515</ele>
        <time>2023-04-21T14:14:43.000Z</time>
      </trkpt>
      <trkpt lat="44.50532" lon="6.2606">
        <ele>1515</ele>
        <time>2023-04-21T14:14:44.000Z</time>
      </trkpt>
      <trkpt lat="44.50532" lon="6.2606">
        <ele>1515</ele>
        <time>2023-04-21T14:14:45.000Z</time>
      </trkpt>
      <trkpt lat="44.50531" lon="6.2606">
        <ele>1515</ele>
        <time>2023-04-21T14:14:46.000Z</time>
      </trkpt>
      <trkpt lat="44.50531" lon="6.2606">
        <ele>1515</ele>
        <time>2023-04-21T14:14:47.000Z</time>
      </trkpt>
      <trkpt lat="44.50531" lon="6.26061">
        <ele>1515</ele>
        <time>2023-04-21T14:14:48.000Z</time>
      </trkpt>
      <trkpt lat="44.50531" lon="6.26061">
        <ele>1515</ele>
        <time>2023-04-21T14:14:49.000Z</time>
      </trkpt>
      <trkpt lat="44.50531" lon="6.26061">
        <ele>1515</ele>
        <time>2023-04-21T14:14:50.000Z</time>
      </trkpt>
      <trkpt lat="44.50531" lon="6.26061">
        <ele>1515</ele>
        <time>2023-04-21T14:14:51.000Z</time>
      </trkpt>
      <trkpt lat="44.50531" lon="6.26061">
        <ele>1515</ele>
        <time>2023-04-21T14:14:52.000Z</time>
      </trkpt>
      <trkpt lat="44.50531" lon="6.26061">
        <ele>1515</ele>
        <time>2023-04-21T14:14:53.000Z</time>
      </trkpt>
      <trkpt lat="44.50531" lon="6.26061">
        <ele>1515</ele>
        <time>2023-04-21T14:14:54.000Z</time>
      </trkpt>
      <trkpt lat="44.50531" lon="6.26061">
        <ele>1515</ele>
        <time>2023-04-21T14:14:55.000Z</time>
      </trkpt>
      <trkpt lat="44.50531" lon="6.26061">
        <ele>1515</ele>
        <time>2023-04-21T14:14:56.000Z</time>
      </trkpt>
      <trkpt lat="44.50531" lon="6.26061">
        <ele>1515</ele>
        <time>2023-04-21T14:14:57.000Z</time>
      </trkpt>
      <trkpt lat="44.50531" lon="6.26061">
        <ele>1514</ele>
        <time>2023-04-21T14:14:58.000Z</time>
      </trkpt>
      <trkpt lat="44.50531" lon="6.26061">
        <ele>1514</ele>
        <time>2023-04-21T14:14:59.000Z</time>
      </trkpt>
      <trkpt lat="44.50531" lon="6.26061">
        <ele>1514</ele>
        <time>2023-04-21T14:15:00.000Z</time>
      </trkpt>
      <trkpt lat="44.50531" lon="6.26062">
        <ele>1514</ele>
        <time>2023-04-21T14:15:01.000Z</time>
      </trkpt>
      <trkpt lat="44.50531" lon="6.26062">
        <ele>1514</ele>
        <time>2023-04-21T14:15:02.000Z</time>
      </trkpt>
      <trkpt lat="44.50531" lon="6.26062">
        <ele>1514</ele>
        <time>2023-04-21T14:15:03.000Z</time>
      </trkpt>
      <trkpt lat="44.50531" lon="6.26062">
        <ele>1514</ele>
        <time>2023-04-21T14:15:04.000Z</time>
      </trkpt>
      <trkpt lat="44.50531" lon="6.26062">
        <ele>1514</ele>
        <time>2023-04-21T14:15:05.000Z</time>
      </trkpt>
      <trkpt lat="44.50531" lon="6.26062">
        <ele>1514</ele>
        <time>2023-04-21T14:15:06.000Z</time>
      </trkpt>
      <trkpt lat="44.50531" lon="6.26062">
        <ele>1514</ele>
        <time>2023-04-21T14:15:07.000Z</time>
      </trkpt>
      <trkpt lat="44.50531" lon="6.26062">
        <ele>1514</ele>
        <time>2023-04-21T14:15:08.000Z</time>
      </trkpt>
      <trkpt lat="44.50531" lon="6.26062">
        <ele>1514</ele>
        <time>2023-04-21T14:15:09.000Z</time>
      </trkpt>
      <trkpt lat="44.50531" lon="6.26062">
        <ele>1514</ele>
        <time>2023-04-21T14:15:10.000Z</time>
      </trkpt>
      <trkpt lat="44.50531" lon="6.26062">
        <ele>1514</ele>
        <time>2023-04-21T14:15:11.000Z</time>
      </trkpt>
      <trkpt lat="44.50531" lon="6.26062">
        <ele>1514</ele>
        <time>2023-04-21T14:15:12.000Z</time>
      </trkpt>
      <trkpt lat="44.50531" lon="6.26063">
        <ele>1514</ele>
        <time>2023-04-21T14:15:13.000Z</time>
      </trkpt>
      <trkpt lat="44.50531" lon="6.26063">
        <ele>1514</ele>
        <time>2023-04-21T14:15:14.000Z</time>
      </trkpt>
      <trkpt lat="44.50531" lon="6.26063">
        <ele>1514</ele>
        <time>2023-04-21T14:15:15.000Z</time>
      </trkpt>
      <trkpt lat="44.50531" lon="6.26063">
        <ele>1514</ele>
        <time>2023-04-21T14:15:16.000Z</time>
      </trkpt>
      <trkpt lat="44.50531" lon="6.26063">
        <ele>1514</ele>
        <time>2023-04-21T14:15:17.000Z</time>
      </trkpt>
      <trkpt lat="44.50531" lon="6.26063">
        <ele>1514</ele>
        <time>2023-04-21T14:15:18.000Z</time>
      </trkpt>
      <trkpt lat="44.50531" lon="6.26063">
        <ele>1514</ele>
        <time>2023-04-21T14:15:19.000Z</time>
      </trkpt>
      <trkpt lat="44.50531" lon="6.26063">
        <ele>1514</ele>
        <time>2023-04-21T14:15:20.000Z</time>
      </trkpt>
      <trkpt lat="44.50531" lon="6.26063">
        <ele>1514</ele>
        <time>2023-04-21T14:15:21.000Z</time>
      </trkpt>
      <trkpt lat="44.50531" lon="6.26063">
        <ele>1514</ele>
        <time>2023-04-21T14:15:22.000Z</time>
      </trkpt>
      <trkpt lat="44.50531" lon="6.26063">
        <ele>1514</ele>
        <time>2023-04-21T14:15:23.000Z</time>
      </trkpt>
      <trkpt lat="44.50531" lon="6.26063">
        <ele>1514</ele>
        <time>2023-04-21T14:15:24.000Z</time>
      </trkpt>
      <trkpt lat="44.50531" lon="6.26063">
        <ele>1514</ele>
        <time>2023-04-21T14:15:25.000Z</time>
      </trkpt>
      <trkpt lat="44.50531" lon="6.26063">
        <ele>1514</ele>
        <time>2023-04-21T14:15:26.000Z</time>
      </trkpt>
      <trkpt lat="44.50531" lon="6.26063">
        <ele>1514</ele>
        <time>2023-04-21T14:15:27.000Z</time>
      </trkpt>
      <trkpt lat="44.50531" lon="6.26063">
        <ele>1514</ele>
        <time>2023-04-21T14:15:28.000Z</time>
      </trkpt>
      <trkpt lat="44.50531" lon="6.26063">
        <ele>1514</ele>
        <time>2023-04-21T14:15:29.000Z</time>
      </trkpt>
      <trkpt lat="44.50531" lon="6.26063">
        <ele>1514</ele>
        <time>2023-04-21T14:15:30.000Z</time>
      </trkpt>
      <trkpt lat="44.50531" lon="6.26063">
        <ele>1514</ele>
        <time>2023-04-21T14:15:31.000Z</time>
      </trkpt>
      <trkpt lat="44.50531" lon="6.26063">
        <ele>1514</ele>
        <time>2023-04-21T14:15:32.000Z</time>
      </trkpt>
      <trkpt lat="44.50531" lon="6.26063">
        <ele>1514</ele>
        <time>2023-04-21T14:15:33.000Z</time>
      </trkpt>
      <trkpt lat="44.50531" lon="6.26063">
        <ele>1514</ele>
        <time>2023-04-21T14:15:34.000Z</time>
      </trkpt>
      <trkpt lat="44.50531" lon="6.26063">
        <ele>1514</ele>
        <time>2023-04-21T14:15:35.000Z</time>
      </trkpt>
      <trkpt lat="44.50531" lon="6.26063">
        <ele>1514</ele>
        <time>2023-04-21T14:15:36.000Z</time>
      </trkpt>
      <trkpt lat="44.50531" lon="6.26063">
        <ele>1514</ele>
        <time>2023-04-21T14:15:37.000Z</time>
      </trkpt>
      <trkpt lat="44.50531" lon="6.26063">
        <ele>1514</ele>
        <time>2023-04-21T14:15:38.000Z</time>
      </trkpt>
      <trkpt lat="44.50531" lon="6.26063">
        <ele>1514</ele>
        <time>2023-04-21T14:15:39.000Z</time>
      </trkpt>
      <trkpt lat="44.50531" lon="6.26063">
        <ele>1514</ele>
        <time>2023-04-21T14:15:40.000Z</time>
      </trkpt>
      <trkpt lat="44.50531" lon="6.26063">
        <ele>1514</ele>
        <time>2023-04-21T14:15:41.000Z</time>
      </trkpt>
      <trkpt lat="44.50531" lon="6.26063">
        <ele>1514</ele>
        <time>2023-04-21T14:15:42.000Z</time>
      </trkpt>
      <trkpt lat="44.50531" lon="6.26063">
        <ele>1514</ele>
        <time>2023-04-21T14:15:43.000Z</time>
      </trkpt>
      <trkpt lat="44.50531" lon="6.26064">
        <ele>1514</ele>
        <time>2023-04-21T14:15:44.000Z</time>
      </trkpt>
      <trkpt lat="44.50531" lon="6.26063">
        <ele>1514</ele>
        <time>2023-04-21T14:15:45.000Z</time>
      </trkpt>
      <trkpt lat="44.50531" lon="6.26064">
        <ele>1514</ele>
        <time>2023-04-21T14:15:46.000Z</time>
      </trkpt>
      <trkpt lat="44.5053" lon="6.26064">
        <ele>1514</ele>
        <time>2023-04-21T14:15:47.000Z</time>
      </trkpt>
      <trkpt lat="44.5053" lon="6.26065">
        <ele>1514</ele>
        <time>2023-04-21T14:15:48.000Z</time>
      </trkpt>
      <trkpt lat="44.5053" lon="6.26065">
        <ele>1514</ele>
        <time>2023-04-21T14:15:49.000Z</time>
      </trkpt>
      <trkpt lat="44.5053" lon="6.26065">
        <ele>1514</ele>
        <time>2023-04-21T14:15:50.000Z</time>
      </trkpt>
      <trkpt lat="44.5053" lon="6.26065">
        <ele>1514</ele>
        <time>2023-04-21T14:15:51.000Z</time>
      </trkpt>
      <trkpt lat="44.5053" lon="6.26067">
        <ele>1514</ele>
        <time>2023-04-21T14:15:52.000Z</time>
      </trkpt>
      <trkpt lat="44.5053" lon="6.26067">
        <ele>1514</ele>
        <time>2023-04-21T14:15:53.000Z</time>
      </trkpt>
      <trkpt lat="44.5053" lon="6.26067">
        <ele>1514</ele>
        <time>2023-04-21T14:15:54.000Z</time>
      </trkpt>
      <trkpt lat="44.5053" lon="6.26067">
        <ele>1514</ele>
        <time>2023-04-21T14:15:55.000Z</time>
      </trkpt>
      <trkpt lat="44.5053" lon="6.26067">
        <ele>1514</ele>
        <time>2023-04-21T14:15:56.000Z</time>
      </trkpt>
      <trkpt lat="44.5053" lon="6.26067">
        <ele>1514</ele>
        <time>2023-04-21T14:15:57.000Z</time>
      </trkpt>
      <trkpt lat="44.5053" lon="6.26067">
        <ele>1514</ele>
        <time>2023-04-21T14:15:58.000Z</time>
      </trkpt>
      <trkpt lat="44.50531" lon="6.26068">
        <ele>1514</ele>
        <time>2023-04-21T14:15:59.000Z</time>
      </trkpt>
      <trkpt lat="44.50532" lon="6.26069">
        <ele>1514</ele>
        <time>2023-04-21T14:16:00.000Z</time>
      </trkpt>
      <trkpt lat="44.50533" lon="6.26072">
        <ele>1514</ele>
        <time>2023-04-21T14:16:01.000Z</time>
      </trkpt>
      <trkpt lat="44.50535" lon="6.26077">
        <ele>1515</ele>
        <time>2023-04-21T14:16:02.000Z</time>
      </trkpt>
      <trkpt lat="44.50536" lon="6.26081">
        <ele>1515</ele>
        <time>2023-04-21T14:16:03.000Z</time>
      </trkpt>
      <trkpt lat="44.50536" lon="6.26087">
        <ele>1515</ele>
        <time>2023-04-21T14:16:04.000Z</time>
      </trkpt>
      <trkpt lat="44.50537" lon="6.26092">
        <ele>1515</ele>
        <time>2023-04-21T14:16:05.000Z</time>
      </trkpt>
      <trkpt lat="44.50537" lon="6.26097">
        <ele>1515</ele>
        <time>2023-04-21T14:16:06.000Z</time>
      </trkpt>
      <trkpt lat="44.50536" lon="6.26102">
        <ele>1515</ele>
        <time>2023-04-21T14:16:07.000Z</time>
      </trkpt>
      <trkpt lat="44.50536" lon="6.26106">
        <ele>1515</ele>
        <time>2023-04-21T14:16:08.000Z</time>
      </trkpt>
      <trkpt lat="44.50534" lon="6.26108">
        <ele>1514</ele>
        <time>2023-04-21T14:16:09.000Z</time>
      </trkpt>
      <trkpt lat="44.50533" lon="6.26109">
        <ele>1515</ele>
        <time>2023-04-21T14:16:10.000Z</time>
      </trkpt>
      <trkpt lat="44.50532" lon="6.2611">
        <ele>1514</ele>
        <time>2023-04-21T14:16:11.000Z</time>
      </trkpt>
      <trkpt lat="44.50532" lon="6.2611">
        <ele>1514</ele>
        <time>2023-04-21T14:16:12.000Z</time>
      </trkpt>
      <trkpt lat="44.50532" lon="6.2611">
        <ele>1514</ele>
        <time>2023-04-21T14:16:13.000Z</time>
      </trkpt>
      <trkpt lat="44.50532" lon="6.26111">
        <ele>1513</ele>
        <time>2023-04-21T14:16:14.000Z</time>
      </trkpt>
      <trkpt lat="44.50532" lon="6.26111">
        <ele>1513</ele>
        <time>2023-04-21T14:16:15.000Z</time>
      </trkpt>
      <trkpt lat="44.50533" lon="6.26111">
        <ele>1513</ele>
        <time>2023-04-21T14:16:16.000Z</time>
      </trkpt>
      <trkpt lat="44.50533" lon="6.26112">
        <ele>1513</ele>
        <time>2023-04-21T14:16:17.000Z</time>
      </trkpt>
      <trkpt lat="44.50533" lon="6.26113">
        <ele>1512</ele>
        <time>2023-04-21T14:16:18.000Z</time>
      </trkpt>
      <trkpt lat="44.50534" lon="6.26115">
        <ele>1512</ele>
        <time>2023-04-21T14:16:19.000Z</time>
      </trkpt>
      <trkpt lat="44.50534" lon="6.26116">
        <ele>1512</ele>
        <time>2023-04-21T14:16:20.000Z</time>
      </trkpt>
      <trkpt lat="44.50536" lon="6.26121">
        <ele>1513</ele>
        <time>2023-04-21T14:16:21.000Z</time>
      </trkpt>
      <trkpt lat="44.50538" lon="6.26126">
        <ele>1512</ele>
        <time>2023-04-21T14:16:22.000Z</time>
      </trkpt>
      <trkpt lat="44.5054" lon="6.26131">
        <ele>1511</ele>
        <time>2023-04-21T14:16:23.000Z</time>
      </trkpt>
      <trkpt lat="44.50542" lon="6.26136">
        <ele>1510</ele>
        <time>2023-04-21T14:16:24.000Z</time>
      </trkpt>
      <trkpt lat="44.50545" lon="6.26143">
        <ele>1508</ele>
        <time>2023-04-21T14:16:25.000Z</time>
      </trkpt>
      <trkpt lat="44.50546" lon="6.26151">
        <ele>1507</ele>
        <time>2023-04-21T14:16:26.000Z</time>
      </trkpt>
      <trkpt lat="44.50548" lon="6.26158">
        <ele>1506</ele>
        <time>2023-04-21T14:16:27.000Z</time>
      </trkpt>
      <trkpt lat="44.5055" lon="6.26165">
        <ele>1506</ele>
        <time>2023-04-21T14:16:28.000Z</time>
      </trkpt>
      <trkpt lat="44.50551" lon="6.26174">
        <ele>1506</ele>
        <time>2023-04-21T14:16:29.000Z</time>
      </trkpt>
      <trkpt lat="44.50551" lon="6.26183">
        <ele>1505</ele>
        <time>2023-04-21T14:16:30.000Z</time>
      </trkpt>
      <trkpt lat="44.50552" lon="6.26191">
        <ele>1504</ele>
        <time>2023-04-21T14:16:31.000Z</time>
      </trkpt>
      <trkpt lat="44.50553" lon="6.26201">
        <ele>1504</ele>
        <time>2023-04-21T14:16:32.000Z</time>
      </trkpt>
      <trkpt lat="44.50553" lon="6.26209">
        <ele>1503</ele>
        <time>2023-04-21T14:16:33.000Z</time>
      </trkpt>
      <trkpt lat="44.50555" lon="6.26217">
        <ele>1503</ele>
        <time>2023-04-21T14:16:34.000Z</time>
      </trkpt>
      <trkpt lat="44.50555" lon="6.26225">
        <ele>1503</ele>
        <time>2023-04-21T14:16:35.000Z</time>
      </trkpt>
      <trkpt lat="44.50555" lon="6.26231">
        <ele>1502</ele>
        <time>2023-04-21T14:16:36.000Z</time>
      </trkpt>
      <trkpt lat="44.50555" lon="6.26239">
        <ele>1502</ele>
        <time>2023-04-21T14:16:37.000Z</time>
      </trkpt>
      <trkpt lat="44.50555" lon="6.26244">
        <ele>1502</ele>
        <time>2023-04-21T14:16:38.000Z</time>
      </trkpt>
      <trkpt lat="44.50554" lon="6.2625">
        <ele>1501</ele>
        <time>2023-04-21T14:16:39.000Z</time>
      </trkpt>
      <trkpt lat="44.50554" lon="6.26255">
        <ele>1500</ele>
        <time>2023-04-21T14:16:40.000Z</time>
      </trkpt>
      <trkpt lat="44.50553" lon="6.2626">
        <ele>1499</ele>
        <time>2023-04-21T14:16:41.000Z</time>
      </trkpt>
      <trkpt lat="44.50551" lon="6.26264">
        <ele>1497</ele>
        <time>2023-04-21T14:16:42.000Z</time>
      </trkpt>
      <trkpt lat="44.5055" lon="6.26269">
        <ele>1495</ele>
        <time>2023-04-21T14:16:43.000Z</time>
      </trkpt>
      <trkpt lat="44.50549" lon="6.26274">
        <ele>1494</ele>
        <time>2023-04-21T14:16:44.000Z</time>
      </trkpt>
      <trkpt lat="44.50548" lon="6.26277">
        <ele>1495</ele>
        <time>2023-04-21T14:16:45.000Z</time>
      </trkpt>
      <trkpt lat="44.50548" lon="6.2628">
        <ele>1495</ele>
        <time>2023-04-21T14:16:46.000Z</time>
      </trkpt>
      <trkpt lat="44.50548" lon="6.26284">
        <ele>1495</ele>
        <time>2023-04-21T14:16:47.000Z</time>
      </trkpt>
      <trkpt lat="44.50548" lon="6.2629">
        <ele>1492</ele>
        <time>2023-04-21T14:16:48.000Z</time>
      </trkpt>
      <trkpt lat="44.50549" lon="6.26295">
        <ele>1490</ele>
        <time>2023-04-21T14:16:49.000Z</time>
      </trkpt>
      <trkpt lat="44.50549" lon="6.26299">
        <ele>1489</ele>
        <time>2023-04-21T14:16:50.000Z</time>
      </trkpt>
      <trkpt lat="44.5055" lon="6.26303">
        <ele>1488</ele>
        <time>2023-04-21T14:16:51.000Z</time>
      </trkpt>
      <trkpt lat="44.5055" lon="6.26307">
        <ele>1487</ele>
        <time>2023-04-21T14:16:52.000Z</time>
      </trkpt>
      <trkpt lat="44.50551" lon="6.26311">
        <ele>1486</ele>
        <time>2023-04-21T14:16:53.000Z</time>
      </trkpt>
      <trkpt lat="44.50552" lon="6.26315">
        <ele>1486</ele>
        <time>2023-04-21T14:16:54.000Z</time>
      </trkpt>
      <trkpt lat="44.50554" lon="6.26319">
        <ele>1485</ele>
        <time>2023-04-21T14:16:55.000Z</time>
      </trkpt>
      <trkpt lat="44.50555" lon="6.26323">
        <ele>1485</ele>
        <time>2023-04-21T14:16:56.000Z</time>
      </trkpt>
      <trkpt lat="44.50555" lon="6.26327">
        <ele>1484</ele>
        <time>2023-04-21T14:16:57.000Z</time>
      </trkpt>
      <trkpt lat="44.50555" lon="6.2633">
        <ele>1483</ele>
        <time>2023-04-21T14:16:58.000Z</time>
      </trkpt>
      <trkpt lat="44.50556" lon="6.26334">
        <ele>1482</ele>
        <time>2023-04-21T14:16:59.000Z</time>
      </trkpt>
      <trkpt lat="44.50556" lon="6.26338">
        <ele>1481</ele>
        <time>2023-04-21T14:17:00.000Z</time>
      </trkpt>
      <trkpt lat="44.50556" lon="6.26342">
        <ele>1480</ele>
        <time>2023-04-21T14:17:01.000Z</time>
      </trkpt>
      <trkpt lat="44.50557" lon="6.26346">
        <ele>1478</ele>
        <time>2023-04-21T14:17:02.000Z</time>
      </trkpt>
      <trkpt lat="44.50557" lon="6.26351">
        <ele>1477</ele>
        <time>2023-04-21T14:17:03.000Z</time>
      </trkpt>
      <trkpt lat="44.50557" lon="6.26356">
        <ele>1476</ele>
        <time>2023-04-21T14:17:04.000Z</time>
      </trkpt>
      <trkpt lat="44.50556" lon="6.26361">
        <ele>1475</ele>
        <time>2023-04-21T14:17:05.000Z</time>
      </trkpt>
      <trkpt lat="44.50556" lon="6.26366">
        <ele>1474</ele>
        <time>2023-04-21T14:17:06.000Z</time>
      </trkpt>
      <trkpt lat="44.50555" lon="6.26371">
        <ele>1472</ele>
        <time>2023-04-21T14:17:07.000Z</time>
      </trkpt>
      <trkpt lat="44.50553" lon="6.26377">
        <ele>1470</ele>
        <time>2023-04-21T14:17:08.000Z</time>
      </trkpt>
      <trkpt lat="44.50553" lon="6.26383">
        <ele>1468</ele>
        <time>2023-04-21T14:17:09.000Z</time>
      </trkpt>
      <trkpt lat="44.50552" lon="6.26388">
        <ele>1467</ele>
        <time>2023-04-21T14:17:10.000Z</time>
      </trkpt>
      <trkpt lat="44.50552" lon="6.26393">
        <ele>1466</ele>
        <time>2023-04-21T14:17:11.000Z</time>
      </trkpt>
      <trkpt lat="44.50552" lon="6.26397">
        <ele>1467</ele>
        <time>2023-04-21T14:17:12.000Z</time>
      </trkpt>
      <trkpt lat="44.50553" lon="6.26401">
        <ele>1466</ele>
        <time>2023-04-21T14:17:13.000Z</time>
      </trkpt>
      <trkpt lat="44.50552" lon="6.26407">
        <ele>1465</ele>
        <time>2023-04-21T14:17:14.000Z</time>
      </trkpt>
      <trkpt lat="44.50552" lon="6.26414">
        <ele>1463</ele>
        <time>2023-04-21T14:17:15.000Z</time>
      </trkpt>
      <trkpt lat="44.50553" lon="6.26419">
        <ele>1460</ele>
        <time>2023-04-21T14:17:16.000Z</time>
      </trkpt>
      <trkpt lat="44.50553" lon="6.26424">
        <ele>1459</ele>
        <time>2023-04-21T14:17:17.000Z</time>
      </trkpt>
      <trkpt lat="44.50555" lon="6.2643">
        <ele>1458</ele>
        <time>2023-04-21T14:17:18.000Z</time>
      </trkpt>
      <trkpt lat="44.50556" lon="6.26435">
        <ele>1457</ele>
        <time>2023-04-21T14:17:19.000Z</time>
      </trkpt>
      <trkpt lat="44.50558" lon="6.26439">
        <ele>1457</ele>
        <time>2023-04-21T14:17:20.000Z</time>
      </trkpt>
      <trkpt lat="44.50559" lon="6.26443">
        <ele>1455</ele>
        <time>2023-04-21T14:17:21.000Z</time>
      </trkpt>
      <trkpt lat="44.50561" lon="6.26447">
        <ele>1454</ele>
        <time>2023-04-21T14:17:22.000Z</time>
      </trkpt>
      <trkpt lat="44.50563" lon="6.26452">
        <ele>1453</ele>
        <time>2023-04-21T14:17:23.000Z</time>
      </trkpt>
      <trkpt lat="44.50565" lon="6.26457">
        <ele>1452</ele>
        <time>2023-04-21T14:17:24.000Z</time>
      </trkpt>
      <trkpt lat="44.50568" lon="6.26463">
        <ele>1451</ele>
        <time>2023-04-21T14:17:25.000Z</time>
      </trkpt>
      <trkpt lat="44.50569" lon="6.26469">
        <ele>1450</ele>
        <time>2023-04-21T14:17:26.000Z</time>
      </trkpt>
      <trkpt lat="44.50571" lon="6.26475">
        <ele>1449</ele>
        <time>2023-04-21T14:17:27.000Z</time>
      </trkpt>
      <trkpt lat="44.50572" lon="6.26482">
        <ele>1449</ele>
        <time>2023-04-21T14:17:28.000Z</time>
      </trkpt>
      <trkpt lat="44.50574" lon="6.26489">
        <ele>1446</ele>
        <time>2023-04-21T14:17:29.000Z</time>
      </trkpt>
      <trkpt lat="44.50577" lon="6.26495">
        <ele>1443</ele>
        <time>2023-04-21T14:17:30.000Z</time>
      </trkpt>
      <trkpt lat="44.50578" lon="6.26502">
        <ele>1443</ele>
        <time>2023-04-21T14:17:31.000Z</time>
      </trkpt>
      <trkpt lat="44.50578" lon="6.26509">
        <ele>1442</ele>
        <time>2023-04-21T14:17:32.000Z</time>
      </trkpt>
      <trkpt lat="44.50581" lon="6.26518">
        <ele>1440</ele>
        <time>2023-04-21T14:17:33.000Z</time>
      </trkpt>
      <trkpt lat="44.50581" lon="6.26526">
        <ele>1440</ele>
        <time>2023-04-21T14:17:34.000Z</time>
      </trkpt>
      <trkpt lat="44.50581" lon="6.26537">
        <ele>1438</ele>
        <time>2023-04-21T14:17:35.000Z</time>
      </trkpt>
      <trkpt lat="44.5058" lon="6.26545">
        <ele>1437</ele>
        <time>2023-04-21T14:17:36.000Z</time>
      </trkpt>
      <trkpt lat="44.50579" lon="6.26553">
        <ele>1433</ele>
        <time>2023-04-21T14:17:37.000Z</time>
      </trkpt>
      <trkpt lat="44.50579" lon="6.26561">
        <ele>1433</ele>
        <time>2023-04-21T14:17:38.000Z</time>
      </trkpt>
      <trkpt lat="44.50581" lon="6.26571">
        <ele>1433</ele>
        <time>2023-04-21T14:17:39.000Z</time>
      </trkpt>
      <trkpt lat="44.50584" lon="6.2658">
        <ele>1433</ele>
        <time>2023-04-21T14:17:40.000Z</time>
      </trkpt>
      <trkpt lat="44.50585" lon="6.26588">
        <ele>1431</ele>
        <time>2023-04-21T14:17:41.000Z</time>
      </trkpt>
      <trkpt lat="44.50587" lon="6.26595">
        <ele>1432</ele>
        <time>2023-04-21T14:17:42.000Z</time>
      </trkpt>
      <trkpt lat="44.50591" lon="6.26602">
        <ele>1432</ele>
        <time>2023-04-21T14:17:43.000Z</time>
      </trkpt>
      <trkpt lat="44.50593" lon="6.26608">
        <ele>1432</ele>
        <time>2023-04-21T14:17:44.000Z</time>
      </trkpt>
      <trkpt lat="44.50593" lon="6.26616">
        <ele>1433</ele>
        <time>2023-04-21T14:17:45.000Z</time>
      </trkpt>
      <trkpt lat="44.50594" lon="6.26622">
        <ele>1433</ele>
        <time>2023-04-21T14:17:46.000Z</time>
      </trkpt>
      <trkpt lat="44.50595" lon="6.26627">
        <ele>1433</ele>
        <time>2023-04-21T14:17:47.000Z</time>
      </trkpt>
      <trkpt lat="44.50593" lon="6.26632">
        <ele>1433</ele>
        <time>2023-04-21T14:17:48.000Z</time>
      </trkpt>
      <trkpt lat="44.50593" lon="6.26636">
        <ele>1432</ele>
        <time>2023-04-21T14:17:49.000Z</time>
      </trkpt>
      <trkpt lat="44.50593" lon="6.26641">
        <ele>1431</ele>
        <time>2023-04-21T14:17:50.000Z</time>
      </trkpt>
      <trkpt lat="44.50592" lon="6.26645">
        <ele>1429</ele>
        <time>2023-04-21T14:17:51.000Z</time>
      </trkpt>
      <trkpt lat="44.50592" lon="6.2665">
        <ele>1428</ele>
        <time>2023-04-21T14:17:52.000Z</time>
      </trkpt>
      <trkpt lat="44.50592" lon="6.26655">
        <ele>1426</ele>
        <time>2023-04-21T14:17:53.000Z</time>
      </trkpt>
      <trkpt lat="44.50592" lon="6.2666">
        <ele>1426</ele>
        <time>2023-04-21T14:17:54.000Z</time>
      </trkpt>
      <trkpt lat="44.50592" lon="6.26664">
        <ele>1425</ele>
        <time>2023-04-21T14:17:55.000Z</time>
      </trkpt>
      <trkpt lat="44.50591" lon="6.2667">
        <ele>1425</ele>
        <time>2023-04-21T14:17:56.000Z</time>
      </trkpt>
      <trkpt lat="44.50591" lon="6.26675">
        <ele>1423</ele>
        <time>2023-04-21T14:17:57.000Z</time>
      </trkpt>
      <trkpt lat="44.50589" lon="6.2668">
        <ele>1421</ele>
        <time>2023-04-21T14:17:58.000Z</time>
      </trkpt>
      <trkpt lat="44.50587" lon="6.26685">
        <ele>1421</ele>
        <time>2023-04-21T14:17:59.000Z</time>
      </trkpt>
      <trkpt lat="44.50586" lon="6.26691">
        <ele>1420</ele>
        <time>2023-04-21T14:18:00.000Z</time>
      </trkpt>
      <trkpt lat="44.50585" lon="6.26696">
        <ele>1419</ele>
        <time>2023-04-21T14:18:01.000Z</time>
      </trkpt>
      <trkpt lat="44.50583" lon="6.26701">
        <ele>1419</ele>
        <time>2023-04-21T14:18:02.000Z</time>
      </trkpt>
      <trkpt lat="44.50583" lon="6.26706">
        <ele>1418</ele>
        <time>2023-04-21T14:18:03.000Z</time>
      </trkpt>
      <trkpt lat="44.50584" lon="6.26712">
        <ele>1418</ele>
        <time>2023-04-21T14:18:04.000Z</time>
      </trkpt>
      <trkpt lat="44.50583" lon="6.26717">
        <ele>1417</ele>
        <time>2023-04-21T14:18:05.000Z</time>
      </trkpt>
      <trkpt lat="44.50582" lon="6.26722">
        <ele>1415</ele>
        <time>2023-04-21T14:18:06.000Z</time>
      </trkpt>
      <trkpt lat="44.50582" lon="6.26728">
        <ele>1415</ele>
        <time>2023-04-21T14:18:07.000Z</time>
      </trkpt>
      <trkpt lat="44.50581" lon="6.26734">
        <ele>1414</ele>
        <time>2023-04-21T14:18:08.000Z</time>
      </trkpt>
      <trkpt lat="44.5058" lon="6.26739">
        <ele>1414</ele>
        <time>2023-04-21T14:18:09.000Z</time>
      </trkpt>
      <trkpt lat="44.50579" lon="6.26747">
        <ele>1411</ele>
        <time>2023-04-21T14:18:10.000Z</time>
      </trkpt>
      <trkpt lat="44.50579" lon="6.26753">
        <ele>1410</ele>
        <time>2023-04-21T14:18:11.000Z</time>
      </trkpt>
      <trkpt lat="44.50577" lon="6.26759">
        <ele>1409</ele>
        <time>2023-04-21T14:18:12.000Z</time>
      </trkpt>
      <trkpt lat="44.50575" lon="6.26764">
        <ele>1407</ele>
        <time>2023-04-21T14:18:13.000Z</time>
      </trkpt>
      <trkpt lat="44.50575" lon="6.26768">
        <ele>1406</ele>
        <time>2023-04-21T14:18:14.000Z</time>
      </trkpt>
      <trkpt lat="44.50575" lon="6.26772">
        <ele>1405</ele>
        <time>2023-04-21T14:18:15.000Z</time>
      </trkpt>
      <trkpt lat="44.50574" lon="6.26776">
        <ele>1404</ele>
        <time>2023-04-21T14:18:16.000Z</time>
      </trkpt>
      <trkpt lat="44.50573" lon="6.2678">
        <ele>1404</ele>
        <time>2023-04-21T14:18:17.000Z</time>
      </trkpt>
      <trkpt lat="44.5057" lon="6.26785">
        <ele>1405</ele>
        <time>2023-04-21T14:18:18.000Z</time>
      </trkpt>
      <trkpt lat="44.50568" lon="6.26792">
        <ele>1407</ele>
        <time>2023-04-21T14:18:19.000Z</time>
      </trkpt>
      <trkpt lat="44.50566" lon="6.26796">
        <ele>1406</ele>
        <time>2023-04-21T14:18:20.000Z</time>
      </trkpt>
      <trkpt lat="44.50566" lon="6.26801">
        <ele>1406</ele>
        <time>2023-04-21T14:18:21.000Z</time>
      </trkpt>
      <trkpt lat="44.50568" lon="6.26806">
        <ele>1409</ele>
        <time>2023-04-21T14:18:22.000Z</time>
      </trkpt>
      <trkpt lat="44.5057" lon="6.26813">
        <ele>1409</ele>
        <time>2023-04-21T14:18:23.000Z</time>
      </trkpt>
      <trkpt lat="44.50571" lon="6.26821">
        <ele>1408</ele>
        <time>2023-04-21T14:18:24.000Z</time>
      </trkpt>
      <trkpt lat="44.50572" lon="6.26827">
        <ele>1407</ele>
        <time>2023-04-21T14:18:25.000Z</time>
      </trkpt>
      <trkpt lat="44.50573" lon="6.26834">
        <ele>1406</ele>
        <time>2023-04-21T14:18:26.000Z</time>
      </trkpt>
      <trkpt lat="44.50573" lon="6.26841">
        <ele>1407</ele>
        <time>2023-04-21T14:18:27.000Z</time>
      </trkpt>
      <trkpt lat="44.50573" lon="6.26848">
        <ele>1407</ele>
        <time>2023-04-21T14:18:28.000Z</time>
      </trkpt>
      <trkpt lat="44.50572" lon="6.26854">
        <ele>1408</ele>
        <time>2023-04-21T14:18:29.000Z</time>
      </trkpt>
      <trkpt lat="44.50573" lon="6.26862">
        <ele>1407</ele>
        <time>2023-04-21T14:18:30.000Z</time>
      </trkpt>
      <trkpt lat="44.50572" lon="6.2687">
        <ele>1407</ele>
        <time>2023-04-21T14:18:31.000Z</time>
      </trkpt>
      <trkpt lat="44.50571" lon="6.26879">
        <ele>1405</ele>
        <time>2023-04-21T14:18:32.000Z</time>
      </trkpt>
      <trkpt lat="44.50569" lon="6.26886">
        <ele>1405</ele>
        <time>2023-04-21T14:18:33.000Z</time>
      </trkpt>
      <trkpt lat="44.50568" lon="6.26894">
        <ele>1405</ele>
        <time>2023-04-21T14:18:34.000Z</time>
      </trkpt>
      <trkpt lat="44.50567" lon="6.26901">
        <ele>1404</ele>
        <time>2023-04-21T14:18:35.000Z</time>
      </trkpt>
      <trkpt lat="44.50566" lon="6.26906">
        <ele>1404</ele>
        <time>2023-04-21T14:18:36.000Z</time>
      </trkpt>
      <trkpt lat="44.50567" lon="6.26913">
        <ele>1402</ele>
        <time>2023-04-21T14:18:37.000Z</time>
      </trkpt>
      <trkpt lat="44.50567" lon="6.2692">
        <ele>1400</ele>
        <time>2023-04-21T14:18:38.000Z</time>
      </trkpt>
      <trkpt lat="44.50567" lon="6.26927">
        <ele>1400</ele>
        <time>2023-04-21T14:18:39.000Z</time>
      </trkpt>
      <trkpt lat="44.50566" lon="6.26932">
        <ele>1399</ele>
        <time>2023-04-21T14:18:40.000Z</time>
      </trkpt>
      <trkpt lat="44.50566" lon="6.26938">
        <ele>1398</ele>
        <time>2023-04-21T14:18:41.000Z</time>
      </trkpt>
      <trkpt lat="44.50566" lon="6.26943">
        <ele>1397</ele>
        <time>2023-04-21T14:18:42.000Z</time>
      </trkpt>
      <trkpt lat="44.50566" lon="6.26949">
        <ele>1396</ele>
        <time>2023-04-21T14:18:43.000Z</time>
      </trkpt>
      <trkpt lat="44.50566" lon="6.26954">
        <ele>1395</ele>
        <time>2023-04-21T14:18:44.000Z</time>
      </trkpt>
      <trkpt lat="44.50564" lon="6.2696">
        <ele>1395</ele>
        <time>2023-04-21T14:18:45.000Z</time>
      </trkpt>
      <trkpt lat="44.50563" lon="6.26966">
        <ele>1395</ele>
        <time>2023-04-21T14:18:46.000Z</time>
      </trkpt>
      <trkpt lat="44.50561" lon="6.26973">
        <ele>1391</ele>
        <time>2023-04-21T14:18:47.000Z</time>
      </trkpt>
      <trkpt lat="44.50559" lon="6.26979">
        <ele>1391</ele>
        <time>2023-04-21T14:18:48.000Z</time>
      </trkpt>
      <trkpt lat="44.50559" lon="6.26987">
        <ele>1390</ele>
        <time>2023-04-21T14:18:49.000Z</time>
      </trkpt>
      <trkpt lat="44.50558" lon="6.26994">
        <ele>1389</ele>
        <time>2023-04-21T14:18:50.000Z</time>
      </trkpt>
      <trkpt lat="44.50556" lon="6.27">
        <ele>1388</ele>
        <time>2023-04-21T14:18:51.000Z</time>
      </trkpt>
      <trkpt lat="44.50554" lon="6.27007">
        <ele>1388</ele>
        <time>2023-04-21T14:18:52.000Z</time>
      </trkpt>
      <trkpt lat="44.50551" lon="6.27013">
        <ele>1388</ele>
        <time>2023-04-21T14:18:53.000Z</time>
      </trkpt>
      <trkpt lat="44.5055" lon="6.27019">
        <ele>1387</ele>
        <time>2023-04-21T14:18:54.000Z</time>
      </trkpt>
      <trkpt lat="44.50548" lon="6.27026">
        <ele>1385</ele>
        <time>2023-04-21T14:18:55.000Z</time>
      </trkpt>
      <trkpt lat="44.50547" lon="6.27031">
        <ele>1383</ele>
        <time>2023-04-21T14:18:56.000Z</time>
      </trkpt>
      <trkpt lat="44.50546" lon="6.27035">
        <ele>1381</ele>
        <time>2023-04-21T14:18:57.000Z</time>
      </trkpt>
      <trkpt lat="44.50548" lon="6.27039">
        <ele>1381</ele>
        <time>2023-04-21T14:18:58.000Z</time>
      </trkpt>
      <trkpt lat="44.50549" lon="6.27042">
        <ele>1380</ele>
        <time>2023-04-21T14:18:59.000Z</time>
      </trkpt>
      <trkpt lat="44.50551" lon="6.27044">
        <ele>1380</ele>
        <time>2023-04-21T14:19:00.000Z</time>
      </trkpt>
      <trkpt lat="44.50551" lon="6.27045">
        <ele>1381</ele>
        <time>2023-04-21T14:19:01.000Z</time>
      </trkpt>
      <trkpt lat="44.50551" lon="6.27046">
        <ele>1380</ele>
        <time>2023-04-21T14:19:02.000Z</time>
      </trkpt>
      <trkpt lat="44.50551" lon="6.27046">
        <ele>1380</ele>
        <time>2023-04-21T14:19:03.000Z</time>
      </trkpt>
      <trkpt lat="44.50551" lon="6.27047">
        <ele>1380</ele>
        <time>2023-04-21T14:19:04.000Z</time>
      </trkpt>
      <trkpt lat="44.50551" lon="6.27048">
        <ele>1380</ele>
        <time>2023-04-21T14:19:05.000Z</time>
      </trkpt>
      <trkpt lat="44.50551" lon="6.27048">
        <ele>1380</ele>
        <time>2023-04-21T14:19:06.000Z</time>
      </trkpt>
      <trkpt lat="44.5055" lon="6.27049">
        <ele>1379</ele>
        <time>2023-04-21T14:19:07.000Z</time>
      </trkpt>
      <trkpt lat="44.5055" lon="6.2705">
        <ele>1379</ele>
        <time>2023-04-21T14:19:08.000Z</time>
      </trkpt>
      <trkpt lat="44.5055" lon="6.2705">
        <ele>1379</ele>
        <time>2023-04-21T14:19:09.000Z</time>
      </trkpt>
      <trkpt lat="44.5055" lon="6.27051">
        <ele>1378</ele>
        <time>2023-04-21T14:19:10.000Z</time>
      </trkpt>
      <trkpt lat="44.5055" lon="6.27051">
        <ele>1378</ele>
        <time>2023-04-21T14:19:11.000Z</time>
      </trkpt>
      <trkpt lat="44.5055" lon="6.27052">
        <ele>1377</ele>
        <time>2023-04-21T14:19:12.000Z</time>
      </trkpt>
      <trkpt lat="44.5055" lon="6.27053">
        <ele>1376</ele>
        <time>2023-04-21T14:19:13.000Z</time>
      </trkpt>
      <trkpt lat="44.5055" lon="6.27053">
        <ele>1376</ele>
        <time>2023-04-21T14:19:14.000Z</time>
      </trkpt>
      <trkpt lat="44.5055" lon="6.27054">
        <ele>1376</ele>
        <time>2023-04-21T14:19:15.000Z</time>
      </trkpt>
      <trkpt lat="44.5055" lon="6.27054">
        <ele>1375</ele>
        <time>2023-04-21T14:19:16.000Z</time>
      </trkpt>
      <trkpt lat="44.5055" lon="6.27054">
        <ele>1375</ele>
        <time>2023-04-21T14:19:17.000Z</time>
      </trkpt>
      <trkpt lat="44.5055" lon="6.27055">
        <ele>1375</ele>
        <time>2023-04-21T14:19:18.000Z</time>
      </trkpt>
      <trkpt lat="44.5055" lon="6.27055">
        <ele>1374</ele>
        <time>2023-04-21T14:19:19.000Z</time>
      </trkpt>
      <trkpt lat="44.5055" lon="6.27055">
        <ele>1374</ele>
        <time>2023-04-21T14:19:20.000Z</time>
      </trkpt>
      <trkpt lat="44.5055" lon="6.27056">
        <ele>1374</ele>
        <time>2023-04-21T14:19:21.000Z</time>
      </trkpt>
      <trkpt lat="44.5055" lon="6.27056">
        <ele>1373</ele>
        <time>2023-04-21T14:19:22.000Z</time>
      </trkpt>
      <trkpt lat="44.5055" lon="6.27056">
        <ele>1373</ele>
        <time>2023-04-21T14:19:23.000Z</time>
      </trkpt>
      <trkpt lat="44.5055" lon="6.27057">
        <ele>1373</ele>
        <time>2023-04-21T14:19:24.000Z</time>
      </trkpt>
      <trkpt lat="44.5055" lon="6.27057">
        <ele>1373</ele>
        <time>2023-04-21T14:19:25.000Z</time>
      </trkpt>
      <trkpt lat="44.5055" lon="6.27057">
        <ele>1373</ele>
        <time>2023-04-21T14:19:26.000Z</time>
      </trkpt>
      <trkpt lat="44.5055" lon="6.27058">
        <ele>1373</ele>
        <time>2023-04-21T14:19:27.000Z</time>
      </trkpt>
      <trkpt lat="44.5055" lon="6.27058">
        <ele>1373</ele>
        <time>2023-04-21T14:19:28.000Z</time>
      </trkpt>
      <trkpt lat="44.5055" lon="6.27058">
        <ele>1372</ele>
        <time>2023-04-21T14:19:29.000Z</time>
      </trkpt>
      <trkpt lat="44.5055" lon="6.27058">
        <ele>1372</ele>
        <time>2023-04-21T14:19:30.000Z</time>
      </trkpt>
      <trkpt lat="44.5055" lon="6.27058">
        <ele>1372</ele>
        <time>2023-04-21T14:19:31.000Z</time>
      </trkpt>
      <trkpt lat="44.5055" lon="6.27059">
        <ele>1372</ele>
        <time>2023-04-21T14:19:32.000Z</time>
      </trkpt>
      <trkpt lat="44.5055" lon="6.27059">
        <ele>1372</ele>
        <time>2023-04-21T14:19:33.000Z</time>
      </trkpt>
      <trkpt lat="44.5055" lon="6.27059">
        <ele>1372</ele>
        <time>2023-04-21T14:19:34.000Z</time>
      </trkpt>
      <trkpt lat="44.5055" lon="6.27059">
        <ele>1372</ele>
        <time>2023-04-21T14:19:35.000Z</time>
      </trkpt>
      <trkpt lat="44.5055" lon="6.2706">
        <ele>1372</ele>
        <time>2023-04-21T14:19:36.000Z</time>
      </trkpt>
      <trkpt lat="44.5055" lon="6.2706">
        <ele>1371</ele>
        <time>2023-04-21T14:19:37.000Z</time>
      </trkpt>
      <trkpt lat="44.5055" lon="6.2706">
        <ele>1371</ele>
        <time>2023-04-21T14:19:38.000Z</time>
      </trkpt>
      <trkpt lat="44.5055" lon="6.2706">
        <ele>1371</ele>
        <time>2023-04-21T14:19:39.000Z</time>
      </trkpt>
      <trkpt lat="44.5055" lon="6.2706">
        <ele>1371</ele>
        <time>2023-04-21T14:19:40.000Z</time>
      </trkpt>
      <trkpt lat="44.5055" lon="6.2706">
        <ele>1371</ele>
        <time>2023-04-21T14:19:41.000Z</time>
      </trkpt>
      <trkpt lat="44.5055" lon="6.27061">
        <ele>1371</ele>
        <time>2023-04-21T14:19:42.000Z</time>
      </trkpt>
      <trkpt lat="44.5055" lon="6.27061">
        <ele>1371</ele>
        <time>2023-04-21T14:19:43.000Z</time>
      </trkpt>
      <trkpt lat="44.50551" lon="6.27061">
        <ele>1371</ele>
        <time>2023-04-21T14:19:44.000Z</time>
      </trkpt>
      <trkpt lat="44.50551" lon="6.27061">
        <ele>1371</ele>
        <time>2023-04-21T14:19:45.000Z</time>
      </trkpt>
      <trkpt lat="44.50551" lon="6.27061">
        <ele>1372</ele>
        <time>2023-04-21T14:19:46.000Z</time>
      </trkpt>
      <trkpt lat="44.50551" lon="6.27061">
        <ele>1372</ele>
        <time>2023-04-21T14:19:47.000Z</time>
      </trkpt>
      <trkpt lat="44.50551" lon="6.27061">
        <ele>1372</ele>
        <time>2023-04-21T14:19:48.000Z</time>
      </trkpt>
      <trkpt lat="44.50551" lon="6.27061">
        <ele>1372</ele>
        <time>2023-04-21T14:19:49.000Z</time>
      </trkpt>
      <trkpt lat="44.50551" lon="6.27061">
        <ele>1372</ele>
        <time>2023-04-21T14:19:50.000Z</time>
      </trkpt>
      <trkpt lat="44.50551" lon="6.27061">
        <ele>1372</ele>
        <time>2023-04-21T14:19:51.000Z</time>
      </trkpt>
      <trkpt lat="44.50551" lon="6.27061">
        <ele>1372</ele>
        <time>2023-04-21T14:19:52.000Z</time>
      </trkpt>
      <trkpt lat="44.50551" lon="6.27061">
        <ele>1372</ele>
        <time>2023-04-21T14:19:53.000Z</time>
      </trkpt>
      <trkpt lat="44.50551" lon="6.27062">
        <ele>1372</ele>
        <time>2023-04-21T14:19:54.000Z</time>
      </trkpt>
      <trkpt lat="44.50551" lon="6.27062">
        <ele>1372</ele>
        <time>2023-04-21T14:19:55.000Z</time>
      </trkpt>
      <trkpt lat="44.50552" lon="6.27062">
        <ele>1373</ele>
        <time>2023-04-21T14:19:56.000Z</time>
      </trkpt>
      <trkpt lat="44.50553" lon="6.27063">
        <ele>1373</ele>
        <time>2023-04-21T14:19:57.000Z</time>
      </trkpt>
      <trkpt lat="44.50554" lon="6.27062">
        <ele>1374</ele>
        <time>2023-04-21T14:19:58.000Z</time>
      </trkpt>
      <trkpt lat="44.50554" lon="6.27061">
        <ele>1375</ele>
        <time>2023-04-21T14:19:59.000Z</time>
      </trkpt>
      <trkpt lat="44.50556" lon="6.27061">
        <ele>1376</ele>
        <time>2023-04-21T14:20:00.000Z</time>
      </trkpt>
      <trkpt lat="44.50557" lon="6.27059">
        <ele>1377</ele>
        <time>2023-04-21T14:20:01.000Z</time>
      </trkpt>
      <trkpt lat="44.50559" lon="6.27057">
        <ele>1378</ele>
        <time>2023-04-21T14:20:02.000Z</time>
      </trkpt>
      <trkpt lat="44.5056" lon="6.27055">
        <ele>1378</ele>
        <time>2023-04-21T14:20:03.000Z</time>
      </trkpt>
      <trkpt lat="44.50561" lon="6.27054">
        <ele>1379</ele>
        <time>2023-04-21T14:20:04.000Z</time>
      </trkpt>
      <trkpt lat="44.50563" lon="6.27054">
        <ele>1379</ele>
        <time>2023-04-21T14:20:05.000Z</time>
      </trkpt>
      <trkpt lat="44.50564" lon="6.27052">
        <ele>1379</ele>
        <time>2023-04-21T14:20:06.000Z</time>
      </trkpt>
      <trkpt lat="44.50563" lon="6.27051">
        <ele>1380</ele>
        <time>2023-04-21T14:20:07.000Z</time>
      </trkpt>
      <trkpt lat="44.50564" lon="6.27051">
        <ele>1381</ele>
        <time>2023-04-21T14:20:08.000Z</time>
      </trkpt>
      <trkpt lat="44.50564" lon="6.27052">
        <ele>1383</ele>
        <time>2023-04-21T14:20:09.000Z</time>
      </trkpt>
      <trkpt lat="44.50564" lon="6.27052">
        <ele>1383</ele>
        <time>2023-04-21T14:20:10.000Z</time>
      </trkpt>
      <trkpt lat="44.50565" lon="6.27054">
        <ele>1383</ele>
        <time>2023-04-21T14:20:11.000Z</time>
      </trkpt>
      <trkpt lat="44.50565" lon="6.27055">
        <ele>1384</ele>
        <time>2023-04-21T14:20:12.000Z</time>
      </trkpt>
      <trkpt lat="44.50565" lon="6.27057">
        <ele>1384</ele>
        <time>2023-04-21T14:20:13.000Z</time>
      </trkpt>
      <trkpt lat="44.50564" lon="6.27061">
        <ele>1384</ele>
        <time>2023-04-21T14:20:14.000Z</time>
      </trkpt>
      <trkpt lat="44.50565" lon="6.27065">
        <ele>1384</ele>
        <time>2023-04-21T14:20:15.000Z</time>
      </trkpt>
      <trkpt lat="44.50564" lon="6.27069">
        <ele>1384</ele>
        <time>2023-04-21T14:20:16.000Z</time>
      </trkpt>
      <trkpt lat="44.50563" lon="6.27074">
        <ele>1383</ele>
        <time>2023-04-21T14:20:17.000Z</time>
      </trkpt>
      <trkpt lat="44.50561" lon="6.27079">
        <ele>1382</ele>
        <time>2023-04-21T14:20:18.000Z</time>
      </trkpt>
      <trkpt lat="44.5056" lon="6.27083">
        <ele>1381</ele>
        <time>2023-04-21T14:20:19.000Z</time>
      </trkpt>
      <trkpt lat="44.50558" lon="6.27085">
        <ele>1381</ele>
        <time>2023-04-21T14:20:20.000Z</time>
      </trkpt>
      <trkpt lat="44.50557" lon="6.27089">
        <ele>1380</ele>
        <time>2023-04-21T14:20:21.000Z</time>
      </trkpt>
      <trkpt lat="44.50556" lon="6.27092">
        <ele>1380</ele>
        <time>2023-04-21T14:20:22.000Z</time>
      </trkpt>
      <trkpt lat="44.50556" lon="6.27093">
        <ele>1380</ele>
        <time>2023-04-21T14:20:23.000Z</time>
      </trkpt>
      <trkpt lat="44.50556" lon="6.27096">
        <ele>1379</ele>
        <time>2023-04-21T14:20:24.000Z</time>
      </trkpt>
      <trkpt lat="44.50558" lon="6.27098">
        <ele>1379</ele>
        <time>2023-04-21T14:20:25.000Z</time>
      </trkpt>
      <trkpt lat="44.50559" lon="6.271">
        <ele>1379</ele>
        <time>2023-04-21T14:20:26.000Z</time>
      </trkpt>
      <trkpt lat="44.50561" lon="6.27099">
        <ele>1377</ele>
        <time>2023-04-21T14:20:27.000Z</time>
      </trkpt>
      <trkpt lat="44.50561" lon="6.27099">
        <ele>1377</ele>
        <time>2023-04-21T14:20:28.000Z</time>
      </trkpt>
      <trkpt lat="44.50562" lon="6.271">
        <ele>1377</ele>
        <time>2023-04-21T14:20:29.000Z</time>
      </trkpt>
      <trkpt lat="44.50563" lon="6.271">
        <ele>1376</ele>
        <time>2023-04-21T14:20:30.000Z</time>
      </trkpt>
      <trkpt lat="44.50563" lon="6.27102">
        <ele>1376</ele>
        <time>2023-04-21T14:20:31.000Z</time>
      </trkpt>
      <trkpt lat="44.50563" lon="6.27104">
        <ele>1375</ele>
        <time>2023-04-21T14:20:32.000Z</time>
      </trkpt>
      <trkpt lat="44.50563" lon="6.27106">
        <ele>1374</ele>
        <time>2023-04-21T14:20:33.000Z</time>
      </trkpt>
      <trkpt lat="44.50562" lon="6.27106">
        <ele>1375</ele>
        <time>2023-04-21T14:20:34.000Z</time>
      </trkpt>
      <trkpt lat="44.50562" lon="6.27108">
        <ele>1375</ele>
        <time>2023-04-21T14:20:35.000Z</time>
      </trkpt>
      <trkpt lat="44.50561" lon="6.2711">
        <ele>1374</ele>
        <time>2023-04-21T14:20:36.000Z</time>
      </trkpt>
      <trkpt lat="44.50562" lon="6.27111">
        <ele>1374</ele>
        <time>2023-04-21T14:20:37.000Z</time>
      </trkpt>
      <trkpt lat="44.50563" lon="6.27112">
        <ele>1374</ele>
        <time>2023-04-21T14:20:38.000Z</time>
      </trkpt>
      <trkpt lat="44.50563" lon="6.27113">
        <ele>1374</ele>
        <time>2023-04-21T14:20:39.000Z</time>
      </trkpt>
      <trkpt lat="44.50565" lon="6.27112">
        <ele>1374</ele>
        <time>2023-04-21T14:20:40.000Z</time>
      </trkpt>
      <trkpt lat="44.50566" lon="6.27112">
        <ele>1374</ele>
        <time>2023-04-21T14:20:41.000Z</time>
      </trkpt>
      <trkpt lat="44.50567" lon="6.27112">
        <ele>1375</ele>
        <time>2023-04-21T14:20:42.000Z</time>
      </trkpt>
      <trkpt lat="44.50568" lon="6.27113">
        <ele>1375</ele>
        <time>2023-04-21T14:20:43.000Z</time>
      </trkpt>
      <trkpt lat="44.50568" lon="6.27113">
        <ele>1374</ele>
        <time>2023-04-21T14:20:44.000Z</time>
      </trkpt>
      <trkpt lat="44.50569" lon="6.27115">
        <ele>1373</ele>
        <time>2023-04-21T14:20:45.000Z</time>
      </trkpt>
      <trkpt lat="44.50569" lon="6.27115">
        <ele>1372</ele>
        <time>2023-04-21T14:20:46.000Z</time>
      </trkpt>
      <trkpt lat="44.50569" lon="6.27116">
        <ele>1372</ele>
        <time>2023-04-21T14:20:47.000Z</time>
      </trkpt>
      <trkpt lat="44.50569" lon="6.27116">
        <ele>1373</ele>
        <time>2023-04-21T14:20:48.000Z</time>
      </trkpt>
      <trkpt lat="44.50569" lon="6.27117">
        <ele>1372</ele>
        <time>2023-04-21T14:20:49.000Z</time>
      </trkpt>
      <trkpt lat="44.50569" lon="6.27117">
        <ele>1373</ele>
        <time>2023-04-21T14:20:50.000Z</time>
      </trkpt>
      <trkpt lat="44.50569" lon="6.27117">
        <ele>1371</ele>
        <time>2023-04-21T14:20:51.000Z</time>
      </trkpt>
      <trkpt lat="44.50569" lon="6.27118">
        <ele>1370</ele>
        <time>2023-04-21T14:20:52.000Z</time>
      </trkpt>
      <trkpt lat="44.50569" lon="6.27119">
        <ele>1370</ele>
        <time>2023-04-21T14:20:53.000Z</time>
      </trkpt>
      <trkpt lat="44.50568" lon="6.2712">
        <ele>1370</ele>
        <time>2023-04-21T14:20:54.000Z</time>
      </trkpt>
      <trkpt lat="44.50569" lon="6.2712">
        <ele>1370</ele>
        <time>2023-04-21T14:20:55.000Z</time>
      </trkpt>
      <trkpt lat="44.50569" lon="6.27121">
        <ele>1370</ele>
        <time>2023-04-21T14:20:56.000Z</time>
      </trkpt>
      <trkpt lat="44.50568" lon="6.2712">
        <ele>1370</ele>
        <time>2023-04-21T14:20:57.000Z</time>
      </trkpt>
      <trkpt lat="44.50569" lon="6.2712">
        <ele>1370</ele>
        <time>2023-04-21T14:20:58.000Z</time>
      </trkpt>
      <trkpt lat="44.50569" lon="6.27121">
        <ele>1370</ele>
        <time>2023-04-21T14:20:59.000Z</time>
      </trkpt>
      <trkpt lat="44.50568" lon="6.27121">
        <ele>1369</ele>
        <time>2023-04-21T14:21:00.000Z</time>
      </trkpt>
      <trkpt lat="44.50569" lon="6.27122">
        <ele>1369</ele>
        <time>2023-04-21T14:21:01.000Z</time>
      </trkpt>
      <trkpt lat="44.50568" lon="6.27122">
        <ele>1368</ele>
        <time>2023-04-21T14:21:02.000Z</time>
      </trkpt>
      <trkpt lat="44.50568" lon="6.27125">
        <ele>1369</ele>
        <time>2023-04-21T14:21:03.000Z</time>
      </trkpt>
      <trkpt lat="44.50567" lon="6.27128">
        <ele>1368</ele>
        <time>2023-04-21T14:21:04.000Z</time>
      </trkpt>
      <trkpt lat="44.50566" lon="6.2713">
        <ele>1368</ele>
        <time>2023-04-21T14:21:05.000Z</time>
      </trkpt>
      <trkpt lat="44.50565" lon="6.27132">
        <ele>1368</ele>
        <time>2023-04-21T14:21:06.000Z</time>
      </trkpt>
      <trkpt lat="44.50564" lon="6.27134">
        <ele>1368</ele>
        <time>2023-04-21T14:21:07.000Z</time>
      </trkpt>
      <trkpt lat="44.50563" lon="6.27136">
        <ele>1368</ele>
        <time>2023-04-21T14:21:08.000Z</time>
      </trkpt>
      <trkpt lat="44.50562" lon="6.27139">
        <ele>1367</ele>
        <time>2023-04-21T14:21:09.000Z</time>
      </trkpt>
      <trkpt lat="44.5056" lon="6.2714">
        <ele>1368</ele>
        <time>2023-04-21T14:21:10.000Z</time>
      </trkpt>
      <trkpt lat="44.50557" lon="6.27142">
        <ele>1368</ele>
        <time>2023-04-21T14:21:11.000Z</time>
      </trkpt>
      <trkpt lat="44.50552" lon="6.27146">
        <ele>1369</ele>
        <time>2023-04-21T14:21:12.000Z</time>
      </trkpt>
      <trkpt lat="44.50549" lon="6.27148">
        <ele>1369</ele>
        <time>2023-04-21T14:21:13.000Z</time>
      </trkpt>
      <trkpt lat="44.50547" lon="6.27151">
        <ele>1369</ele>
        <time>2023-04-21T14:21:14.000Z</time>
      </trkpt>
      <trkpt lat="44.50546" lon="6.27154">
        <ele>1370</ele>
        <time>2023-04-21T14:21:15.000Z</time>
      </trkpt>
      <trkpt lat="44.50547" lon="6.27157">
        <ele>1367</ele>
        <time>2023-04-21T14:21:16.000Z</time>
      </trkpt>
      <trkpt lat="44.50548" lon="6.27158">
        <ele>1370</ele>
        <time>2023-04-21T14:21:17.000Z</time>
      </trkpt>
      <trkpt lat="44.50549" lon="6.2716">
        <ele>1369</ele>
        <time>2023-04-21T14:21:18.000Z</time>
      </trkpt>
      <trkpt lat="44.50549" lon="6.27162">
        <ele>1369</ele>
        <time>2023-04-21T14:21:19.000Z</time>
      </trkpt>
      <trkpt lat="44.5055" lon="6.27163">
        <ele>1369</ele>
        <time>2023-04-21T14:21:20.000Z</time>
      </trkpt>
      <trkpt lat="44.5055" lon="6.27164">
        <ele>1368</ele>
        <time>2023-04-21T14:21:21.000Z</time>
      </trkpt>
      <trkpt lat="44.5055" lon="6.27167">
        <ele>1367</ele>
        <time>2023-04-21T14:21:22.000Z</time>
      </trkpt>
      <trkpt lat="44.50551" lon="6.27169">
        <ele>1367</ele>
        <time>2023-04-21T14:21:23.000Z</time>
      </trkpt>
      <trkpt lat="44.50551" lon="6.2717">
        <ele>1366</ele>
        <time>2023-04-21T14:21:24.000Z</time>
      </trkpt>
      <trkpt lat="44.50552" lon="6.27172">
        <ele>1363</ele>
        <time>2023-04-21T14:21:25.000Z</time>
      </trkpt>
      <trkpt lat="44.50553" lon="6.27175">
        <ele>1363</ele>
        <time>2023-04-21T14:21:26.000Z</time>
      </trkpt>
      <trkpt lat="44.50553" lon="6.27176">
        <ele>1363</ele>
        <time>2023-04-21T14:21:27.000Z</time>
      </trkpt>
      <trkpt lat="44.50552" lon="6.27176">
        <ele>1364</ele>
        <time>2023-04-21T14:21:28.000Z</time>
      </trkpt>
      <trkpt lat="44.50552" lon="6.27178">
        <ele>1364</ele>
        <time>2023-04-21T14:21:29.000Z</time>
      </trkpt>
      <trkpt lat="44.50549" lon="6.2718">
        <ele>1364</ele>
        <time>2023-04-21T14:21:30.000Z</time>
      </trkpt>
      <trkpt lat="44.50547" lon="6.27182">
        <ele>1364</ele>
        <time>2023-04-21T14:21:31.000Z</time>
      </trkpt>
      <trkpt lat="44.50546" lon="6.27183">
        <ele>1364</ele>
        <time>2023-04-21T14:21:32.000Z</time>
      </trkpt>
      <trkpt lat="44.50543" lon="6.27183">
        <ele>1364</ele>
        <time>2023-04-21T14:21:33.000Z</time>
      </trkpt>
      <trkpt lat="44.50541" lon="6.27183">
        <ele>1364</ele>
        <time>2023-04-21T14:21:34.000Z</time>
      </trkpt>
      <trkpt lat="44.50539" lon="6.27184">
        <ele>1363</ele>
        <time>2023-04-21T14:21:35.000Z</time>
      </trkpt>
      <trkpt lat="44.50538" lon="6.27184">
        <ele>1363</ele>
        <time>2023-04-21T14:21:36.000Z</time>
      </trkpt>
      <trkpt lat="44.50538" lon="6.27188">
        <ele>1361</ele>
        <time>2023-04-21T14:21:37.000Z</time>
      </trkpt>
      <trkpt lat="44.50538" lon="6.2719">
        <ele>1360</ele>
        <time>2023-04-21T14:21:38.000Z</time>
      </trkpt>
      <trkpt lat="44.50538" lon="6.27193">
        <ele>1359</ele>
        <time>2023-04-21T14:21:39.000Z</time>
      </trkpt>
      <trkpt lat="44.50539" lon="6.27195">
        <ele>1358</ele>
        <time>2023-04-21T14:21:40.000Z</time>
      </trkpt>
      <trkpt lat="44.50542" lon="6.27198">
        <ele>1357</ele>
        <time>2023-04-21T14:21:41.000Z</time>
      </trkpt>
      <trkpt lat="44.50543" lon="6.27201">
        <ele>1356</ele>
        <time>2023-04-21T14:21:42.000Z</time>
      </trkpt>
      <trkpt lat="44.50544" lon="6.27205">
        <ele>1356</ele>
        <time>2023-04-21T14:21:43.000Z</time>
      </trkpt>
      <trkpt lat="44.50546" lon="6.27209">
        <ele>1356</ele>
        <time>2023-04-21T14:21:44.000Z</time>
      </trkpt>
      <trkpt lat="44.50548" lon="6.27211">
        <ele>1357</ele>
        <time>2023-04-21T14:21:45.000Z</time>
      </trkpt>
      <trkpt lat="44.5055" lon="6.27212">
        <ele>1357</ele>
        <time>2023-04-21T14:21:46.000Z</time>
      </trkpt>
      <trkpt lat="44.50552" lon="6.27214">
        <ele>1356</ele>
        <time>2023-04-21T14:21:47.000Z</time>
      </trkpt>
      <trkpt lat="44.50553" lon="6.27214">
        <ele>1355</ele>
        <time>2023-04-21T14:21:48.000Z</time>
      </trkpt>
      <trkpt lat="44.50554" lon="6.27217">
        <ele>1353</ele>
        <time>2023-04-21T14:21:49.000Z</time>
      </trkpt>
      <trkpt lat="44.50554" lon="6.27218">
        <ele>1352</ele>
        <time>2023-04-21T14:21:50.000Z</time>
      </trkpt>
      <trkpt lat="44.50552" lon="6.27217">
        <ele>1353</ele>
        <time>2023-04-21T14:21:51.000Z</time>
      </trkpt>
      <trkpt lat="44.50551" lon="6.27218">
        <ele>1352</ele>
        <time>2023-04-21T14:21:52.000Z</time>
      </trkpt>
      <trkpt lat="44.5055" lon="6.27218">
        <ele>1353</ele>
        <time>2023-04-21T14:21:53.000Z</time>
      </trkpt>
      <trkpt lat="44.50546" lon="6.2722">
        <ele>1352</ele>
        <time>2023-04-21T14:21:54.000Z</time>
      </trkpt>
      <trkpt lat="44.50544" lon="6.27221">
        <ele>1351</ele>
        <time>2023-04-21T14:21:55.000Z</time>
      </trkpt>
      <trkpt lat="44.50542" lon="6.27222">
        <ele>1351</ele>
        <time>2023-04-21T14:21:56.000Z</time>
      </trkpt>
      <trkpt lat="44.5054" lon="6.27223">
        <ele>1350</ele>
        <time>2023-04-21T14:21:57.000Z</time>
      </trkpt>
      <trkpt lat="44.50537" lon="6.27224">
        <ele>1349</ele>
        <time>2023-04-21T14:21:58.000Z</time>
      </trkpt>
      <trkpt lat="44.50535" lon="6.27224">
        <ele>1348</ele>
        <time>2023-04-21T14:21:59.000Z</time>
      </trkpt>
      <trkpt lat="44.50533" lon="6.27223">
        <ele>1347</ele>
        <time>2023-04-21T14:22:00.000Z</time>
      </trkpt>
      <trkpt lat="44.50531" lon="6.27224">
        <ele>1347</ele>
        <time>2023-04-21T14:22:01.000Z</time>
      </trkpt>
      <trkpt lat="44.5053" lon="6.27224">
        <ele>1346</ele>
        <time>2023-04-21T14:22:02.000Z</time>
      </trkpt>
      <trkpt lat="44.5053" lon="6.27227">
        <ele>1348</ele>
        <time>2023-04-21T14:22:03.000Z</time>
      </trkpt>
      <trkpt lat="44.5053" lon="6.27228">
        <ele>1349</ele>
        <time>2023-04-21T14:22:04.000Z</time>
      </trkpt>
      <trkpt lat="44.50532" lon="6.27229">
        <ele>1352</ele>
        <time>2023-04-21T14:22:05.000Z</time>
      </trkpt>
      <trkpt lat="44.50532" lon="6.27231">
        <ele>1352</ele>
        <time>2023-04-21T14:22:06.000Z</time>
      </trkpt>
      <trkpt lat="44.50532" lon="6.27233">
        <ele>1352</ele>
        <time>2023-04-21T14:22:07.000Z</time>
      </trkpt>
      <trkpt lat="44.50533" lon="6.27235">
        <ele>1351</ele>
        <time>2023-04-21T14:22:08.000Z</time>
      </trkpt>
      <trkpt lat="44.50534" lon="6.27237">
        <ele>1351</ele>
        <time>2023-04-21T14:22:09.000Z</time>
      </trkpt>
      <trkpt lat="44.50536" lon="6.27238">
        <ele>1351</ele>
        <time>2023-04-21T14:22:10.000Z</time>
      </trkpt>
      <trkpt lat="44.50538" lon="6.27239">
        <ele>1351</ele>
        <time>2023-04-21T14:22:11.000Z</time>
      </trkpt>
      <trkpt lat="44.5054" lon="6.2724">
        <ele>1351</ele>
        <time>2023-04-21T14:22:12.000Z</time>
      </trkpt>
      <trkpt lat="44.50542" lon="6.27241">
        <ele>1352</ele>
        <time>2023-04-21T14:22:13.000Z</time>
      </trkpt>
      <trkpt lat="44.50545" lon="6.27241">
        <ele>1352</ele>
        <time>2023-04-21T14:22:14.000Z</time>
      </trkpt>
      <trkpt lat="44.50547" lon="6.27242">
        <ele>1351</ele>
        <time>2023-04-21T14:22:15.000Z</time>
      </trkpt>
      <trkpt lat="44.50551" lon="6.27244">
        <ele>1351</ele>
        <time>2023-04-21T14:22:16.000Z</time>
      </trkpt>
      <trkpt lat="44.50554" lon="6.27246">
        <ele>1350</ele>
        <time>2023-04-21T14:22:17.000Z</time>
      </trkpt>
      <trkpt lat="44.50557" lon="6.27247">
        <ele>1350</ele>
        <time>2023-04-21T14:22:18.000Z</time>
      </trkpt>
      <trkpt lat="44.5056" lon="6.27248">
        <ele>1351</ele>
        <time>2023-04-21T14:22:19.000Z</time>
      </trkpt>
      <trkpt lat="44.50563" lon="6.27249">
        <ele>1349</ele>
        <time>2023-04-21T14:22:20.000Z</time>
      </trkpt>
      <trkpt lat="44.50565" lon="6.2725">
        <ele>1349</ele>
        <time>2023-04-21T14:22:21.000Z</time>
      </trkpt>
      <trkpt lat="44.50568" lon="6.2725">
        <ele>1347</ele>
        <time>2023-04-21T14:22:22.000Z</time>
      </trkpt>
      <trkpt lat="44.50571" lon="6.27251">
        <ele>1346</ele>
        <time>2023-04-21T14:22:23.000Z</time>
      </trkpt>
      <trkpt lat="44.50574" lon="6.27251">
        <ele>1345</ele>
        <time>2023-04-21T14:22:24.000Z</time>
      </trkpt>
      <trkpt lat="44.50578" lon="6.27251">
        <ele>1343</ele>
        <time>2023-04-21T14:22:25.000Z</time>
      </trkpt>
      <trkpt lat="44.50581" lon="6.2725">
        <ele>1343</ele>
        <time>2023-04-21T14:22:26.000Z</time>
      </trkpt>
      <trkpt lat="44.50584" lon="6.27251">
        <ele>1340</ele>
        <time>2023-04-21T14:22:27.000Z</time>
      </trkpt>
      <trkpt lat="44.50586" lon="6.27253">
        <ele>1338</ele>
        <time>2023-04-21T14:22:28.000Z</time>
      </trkpt>
      <trkpt lat="44.50588" lon="6.27256">
        <ele>1337</ele>
        <time>2023-04-21T14:22:29.000Z</time>
      </trkpt>
      <trkpt lat="44.50589" lon="6.2726">
        <ele>1336</ele>
        <time>2023-04-21T14:22:30.000Z</time>
      </trkpt>
      <trkpt lat="44.50589" lon="6.27264">
        <ele>1336</ele>
        <time>2023-04-21T14:22:31.000Z</time>
      </trkpt>
      <trkpt lat="44.5059" lon="6.27267">
        <ele>1336</ele>
        <time>2023-04-21T14:22:32.000Z</time>
      </trkpt>
      <trkpt lat="44.50591" lon="6.27271">
        <ele>1335</ele>
        <time>2023-04-21T14:22:33.000Z</time>
      </trkpt>
      <trkpt lat="44.50591" lon="6.27272">
        <ele>1332</ele>
        <time>2023-04-21T14:22:34.000Z</time>
      </trkpt>
      <trkpt lat="44.50591" lon="6.27274">
        <ele>1331</ele>
        <time>2023-04-21T14:22:35.000Z</time>
      </trkpt>
      <trkpt lat="44.50591" lon="6.27276">
        <ele>1330</ele>
        <time>2023-04-21T14:22:36.000Z</time>
      </trkpt>
      <trkpt lat="44.5059" lon="6.27278">
        <ele>1330</ele>
        <time>2023-04-21T14:22:37.000Z</time>
      </trkpt>
      <trkpt lat="44.50584" lon="6.27277">
        <ele>1329</ele>
        <time>2023-04-21T14:22:38.000Z</time>
      </trkpt>
      <trkpt lat="44.50581" lon="6.27279">
        <ele>1328</ele>
        <time>2023-04-21T14:22:39.000Z</time>
      </trkpt>
      <trkpt lat="44.50578" lon="6.27282">
        <ele>1327</ele>
        <time>2023-04-21T14:22:40.000Z</time>
      </trkpt>
      <trkpt lat="44.50576" lon="6.27285">
        <ele>1328</ele>
        <time>2023-04-21T14:22:41.000Z</time>
      </trkpt>
      <trkpt lat="44.50574" lon="6.27288">
        <ele>1328</ele>
        <time>2023-04-21T14:22:42.000Z</time>
      </trkpt>
      <trkpt lat="44.50572" lon="6.27291">
        <ele>1328</ele>
        <time>2023-04-21T14:22:43.000Z</time>
      </trkpt>
      <trkpt lat="44.50569" lon="6.27294">
        <ele>1326</ele>
        <time>2023-04-21T14:22:44.000Z</time>
      </trkpt>
      <trkpt lat="44.50562" lon="6.27293">
        <ele>1323</ele>
        <time>2023-04-21T14:22:45.000Z</time>
      </trkpt>
      <trkpt lat="44.50557" lon="6.27294">
        <ele>1322</ele>
        <time>2023-04-21T14:22:46.000Z</time>
      </trkpt>
      <trkpt lat="44.50553" lon="6.27295">
        <ele>1321</ele>
        <time>2023-04-21T14:22:47.000Z</time>
      </trkpt>
      <trkpt lat="44.50549" lon="6.27297">
        <ele>1320</ele>
        <time>2023-04-21T14:22:48.000Z</time>
      </trkpt>
      <trkpt lat="44.50547" lon="6.27299">
        <ele>1318</ele>
        <time>2023-04-21T14:22:49.000Z</time>
      </trkpt>
      <trkpt lat="44.50543" lon="6.27302">
        <ele>1319</ele>
        <time>2023-04-21T14:22:50.000Z</time>
      </trkpt>
      <trkpt lat="44.50541" lon="6.27304">
        <ele>1319</ele>
        <time>2023-04-21T14:22:51.000Z</time>
      </trkpt>
      <trkpt lat="44.50538" lon="6.27308">
        <ele>1319</ele>
        <time>2023-04-21T14:22:52.000Z</time>
      </trkpt>
      <trkpt lat="44.50535" lon="6.27311">
        <ele>1320</ele>
        <time>2023-04-21T14:22:53.000Z</time>
      </trkpt>
      <trkpt lat="44.50531" lon="6.27312">
        <ele>1318</ele>
        <time>2023-04-21T14:22:54.000Z</time>
      </trkpt>
      <trkpt lat="44.50523" lon="6.27318">
        <ele>1318</ele>
        <time>2023-04-21T14:22:55.000Z</time>
      </trkpt>
      <trkpt lat="44.50518" lon="6.27322">
        <ele>1316</ele>
        <time>2023-04-21T14:22:56.000Z</time>
      </trkpt>
      <trkpt lat="44.50513" lon="6.27325">
        <ele>1314</ele>
        <time>2023-04-21T14:22:57.000Z</time>
      </trkpt>
      <trkpt lat="44.50508" lon="6.27328">
        <ele>1313</ele>
        <time>2023-04-21T14:22:58.000Z</time>
      </trkpt>
      <trkpt lat="44.50503" lon="6.27331">
        <ele>1312</ele>
        <time>2023-04-21T14:22:59.000Z</time>
      </trkpt>
      <trkpt lat="44.50499" lon="6.27333">
        <ele>1311</ele>
        <time>2023-04-21T14:23:00.000Z</time>
      </trkpt>
      <trkpt lat="44.50495" lon="6.27336">
        <ele>1310</ele>
        <time>2023-04-21T14:23:01.000Z</time>
      </trkpt>
      <trkpt lat="44.50492" lon="6.27338">
        <ele>1309</ele>
        <time>2023-04-21T14:23:02.000Z</time>
      </trkpt>
      <trkpt lat="44.50491" lon="6.27339">
        <ele>1309</ele>
        <time>2023-04-21T14:23:03.000Z</time>
      </trkpt>
      <trkpt lat="44.50487" lon="6.27341">
        <ele>1308</ele>
        <time>2023-04-21T14:23:04.000Z</time>
      </trkpt>
      <trkpt lat="44.50484" lon="6.27343">
        <ele>1308</ele>
        <time>2023-04-21T14:23:05.000Z</time>
      </trkpt>
      <trkpt lat="44.50481" lon="6.27346">
        <ele>1307</ele>
        <time>2023-04-21T14:23:06.000Z</time>
      </trkpt>
      <trkpt lat="44.50479" lon="6.27348">
        <ele>1307</ele>
        <time>2023-04-21T14:23:07.000Z</time>
      </trkpt>
      <trkpt lat="44.50477" lon="6.27352">
        <ele>1306</ele>
        <time>2023-04-21T14:23:08.000Z</time>
      </trkpt>
      <trkpt lat="44.50475" lon="6.27355">
        <ele>1304</ele>
        <time>2023-04-21T14:23:09.000Z</time>
      </trkpt>
      <trkpt lat="44.50475" lon="6.2736">
        <ele>1304</ele>
        <time>2023-04-21T14:23:10.000Z</time>
      </trkpt>
      <trkpt lat="44.50473" lon="6.27365">
        <ele>1302</ele>
        <time>2023-04-21T14:23:11.000Z</time>
      </trkpt>
      <trkpt lat="44.50471" lon="6.27372">
        <ele>1299</ele>
        <time>2023-04-21T14:23:12.000Z</time>
      </trkpt>
      <trkpt lat="44.5047" lon="6.27376">
        <ele>1298</ele>
        <time>2023-04-21T14:23:13.000Z</time>
      </trkpt>
      <trkpt lat="44.50468" lon="6.2738">
        <ele>1296</ele>
        <time>2023-04-21T14:23:14.000Z</time>
      </trkpt>
      <trkpt lat="44.50464" lon="6.27383">
        <ele>1296</ele>
        <time>2023-04-21T14:23:15.000Z</time>
      </trkpt>
      <trkpt lat="44.50461" lon="6.27386">
        <ele>1294</ele>
        <time>2023-04-21T14:23:16.000Z</time>
      </trkpt>
      <trkpt lat="44.50458" lon="6.27388">
        <ele>1293</ele>
        <time>2023-04-21T14:23:17.000Z</time>
      </trkpt>
      <trkpt lat="44.50455" lon="6.27392">
        <ele>1292</ele>
        <time>2023-04-21T14:23:18.000Z</time>
      </trkpt>
      <trkpt lat="44.50452" lon="6.27397">
        <ele>1291</ele>
        <time>2023-04-21T14:23:19.000Z</time>
      </trkpt>
      <trkpt lat="44.50449" lon="6.27401">
        <ele>1291</ele>
        <time>2023-04-21T14:23:20.000Z</time>
      </trkpt>
      <trkpt lat="44.50445" lon="6.27405">
        <ele>1291</ele>
        <time>2023-04-21T14:23:21.000Z</time>
      </trkpt>
      <trkpt lat="44.5044" lon="6.27407">
        <ele>1291</ele>
        <time>2023-04-21T14:23:22.000Z</time>
      </trkpt>
      <trkpt lat="44.50434" lon="6.2741">
        <ele>1290</ele>
        <time>2023-04-21T14:23:23.000Z</time>
      </trkpt>
      <trkpt lat="44.50428" lon="6.27411">
        <ele>1290</ele>
        <time>2023-04-21T14:23:24.000Z</time>
      </trkpt>
      <trkpt lat="44.50422" lon="6.2741">
        <ele>1291</ele>
        <time>2023-04-21T14:23:25.000Z</time>
      </trkpt>
      <trkpt lat="44.50417" lon="6.27411">
        <ele>1290</ele>
        <time>2023-04-21T14:23:26.000Z</time>
      </trkpt>
      <trkpt lat="44.50413" lon="6.27413">
        <ele>1290</ele>
        <time>2023-04-21T14:23:27.000Z</time>
      </trkpt>
      <trkpt lat="44.50408" lon="6.27416">
        <ele>1290</ele>
        <time>2023-04-21T14:23:28.000Z</time>
      </trkpt>
      <trkpt lat="44.50404" lon="6.27418">
        <ele>1290</ele>
        <time>2023-04-21T14:23:29.000Z</time>
      </trkpt>
      <trkpt lat="44.50401" lon="6.27421">
        <ele>1291</ele>
        <time>2023-04-21T14:23:30.000Z</time>
      </trkpt>
      <trkpt lat="44.50398" lon="6.27424">
        <ele>1292</ele>
        <time>2023-04-21T14:23:31.000Z</time>
      </trkpt>
      <trkpt lat="44.50396" lon="6.27426">
        <ele>1292</ele>
        <time>2023-04-21T14:23:32.000Z</time>
      </trkpt>
      <trkpt lat="44.50394" lon="6.27428">
        <ele>1292</ele>
        <time>2023-04-21T14:23:33.000Z</time>
      </trkpt>
      <trkpt lat="44.50392" lon="6.27432">
        <ele>1292</ele>
        <time>2023-04-21T14:23:34.000Z</time>
      </trkpt>
      <trkpt lat="44.50391" lon="6.27434">
        <ele>1292</ele>
        <time>2023-04-21T14:23:35.000Z</time>
      </trkpt>
      <trkpt lat="44.50389" lon="6.27437">
        <ele>1293</ele>
        <time>2023-04-21T14:23:36.000Z</time>
      </trkpt>
      <trkpt lat="44.50387" lon="6.2744">
        <ele>1293</ele>
        <time>2023-04-21T14:23:37.000Z</time>
      </trkpt>
      <trkpt lat="44.50386" lon="6.27443">
        <ele>1293</ele>
        <time>2023-04-21T14:23:38.000Z</time>
      </trkpt>
      <trkpt lat="44.50384" lon="6.27447">
        <ele>1293</ele>
        <time>2023-04-21T14:23:39.000Z</time>
      </trkpt>
      <trkpt lat="44.50382" lon="6.27449">
        <ele>1294</ele>
        <time>2023-04-21T14:23:40.000Z</time>
      </trkpt>
      <trkpt lat="44.50381" lon="6.27451">
        <ele>1295</ele>
        <time>2023-04-21T14:23:41.000Z</time>
      </trkpt>
      <trkpt lat="44.5038" lon="6.27453">
        <ele>1296</ele>
        <time>2023-04-21T14:23:42.000Z</time>
      </trkpt>
      <trkpt lat="44.50379" lon="6.27458">
        <ele>1296</ele>
        <time>2023-04-21T14:23:43.000Z</time>
      </trkpt>
      <trkpt lat="44.50379" lon="6.27461">
        <ele>1296</ele>
        <time>2023-04-21T14:23:44.000Z</time>
      </trkpt>
      <trkpt lat="44.50378" lon="6.27464">
        <ele>1297</ele>
        <time>2023-04-21T14:23:45.000Z</time>
      </trkpt>
      <trkpt lat="44.50377" lon="6.27467">
        <ele>1297</ele>
        <time>2023-04-21T14:23:46.000Z</time>
      </trkpt>
      <trkpt lat="44.50376" lon="6.2747">
        <ele>1297</ele>
        <time>2023-04-21T14:23:47.000Z</time>
      </trkpt>
      <trkpt lat="44.50375" lon="6.27473">
        <ele>1298</ele>
        <time>2023-04-21T14:23:48.000Z</time>
      </trkpt>
      <trkpt lat="44.50372" lon="6.27477">
        <ele>1299</ele>
        <time>2023-04-21T14:23:49.000Z</time>
      </trkpt>
      <trkpt lat="44.50371" lon="6.27481">
        <ele>1299</ele>
        <time>2023-04-21T14:23:50.000Z</time>
      </trkpt>
      <trkpt lat="44.50371" lon="6.27484">
        <ele>1298</ele>
        <time>2023-04-21T14:23:51.000Z</time>
      </trkpt>
      <trkpt lat="44.50371" lon="6.27489">
        <ele>1297</ele>
        <time>2023-04-21T14:23:52.000Z</time>
      </trkpt>
      <trkpt lat="44.5037" lon="6.27493">
        <ele>1298</ele>
        <time>2023-04-21T14:23:53.000Z</time>
      </trkpt>
      <trkpt lat="44.50369" lon="6.27496">
        <ele>1297</ele>
        <time>2023-04-21T14:23:54.000Z</time>
      </trkpt>
      <trkpt lat="44.50369" lon="6.27499">
        <ele>1297</ele>
        <time>2023-04-21T14:23:55.000Z</time>
      </trkpt>
      <trkpt lat="44.50368" lon="6.27501">
        <ele>1297</ele>
        <time>2023-04-21T14:23:56.000Z</time>
      </trkpt>
      <trkpt lat="44.50368" lon="6.27504">
        <ele>1297</ele>
        <time>2023-04-21T14:23:57.000Z</time>
      </trkpt>
      <trkpt lat="44.50368" lon="6.27506">
        <ele>1298</ele>
        <time>2023-04-21T14:23:58.000Z</time>
      </trkpt>
      <trkpt lat="44.50368" lon="6.27508">
        <ele>1297</ele>
        <time>2023-04-21T14:23:59.000Z</time>
      </trkpt>
      <trkpt lat="44.50368" lon="6.27512">
        <ele>1298</ele>
        <time>2023-04-21T14:24:00.000Z</time>
      </trkpt>
      <trkpt lat="44.50368" lon="6.27515">
        <ele>1297</ele>
        <time>2023-04-21T14:24:01.000Z</time>
      </trkpt>
      <trkpt lat="44.50369" lon="6.27517">
        <ele>1297</ele>
        <time>2023-04-21T14:24:02.000Z</time>
      </trkpt>
      <trkpt lat="44.50369" lon="6.27519">
        <ele>1297</ele>
        <time>2023-04-21T14:24:03.000Z</time>
      </trkpt>
      <trkpt lat="44.5037" lon="6.27523">
        <ele>1297</ele>
        <time>2023-04-21T14:24:04.000Z</time>
      </trkpt>
      <trkpt lat="44.5037" lon="6.27526">
        <ele>1299</ele>
        <time>2023-04-21T14:24:05.000Z</time>
      </trkpt>
      <trkpt lat="44.5037" lon="6.27529">
        <ele>1299</ele>
        <time>2023-04-21T14:24:06.000Z</time>
      </trkpt>
      <trkpt lat="44.50371" lon="6.27533">
        <ele>1299</ele>
        <time>2023-04-21T14:24:07.000Z</time>
      </trkpt>
      <trkpt lat="44.50371" lon="6.27536">
        <ele>1299</ele>
        <time>2023-04-21T14:24:08.000Z</time>
      </trkpt>
      <trkpt lat="44.50371" lon="6.27537">
        <ele>1301</ele>
        <time>2023-04-21T14:24:09.000Z</time>
      </trkpt>
      <trkpt lat="44.5037" lon="6.27541">
        <ele>1300</ele>
        <time>2023-04-21T14:24:10.000Z</time>
      </trkpt>
      <trkpt lat="44.5037" lon="6.27543">
        <ele>1300</ele>
        <time>2023-04-21T14:24:11.000Z</time>
      </trkpt>
      <trkpt lat="44.5037" lon="6.27547">
        <ele>1303</ele>
        <time>2023-04-21T14:24:12.000Z</time>
      </trkpt>
      <trkpt lat="44.5037" lon="6.2755">
        <ele>1303</ele>
        <time>2023-04-21T14:24:13.000Z</time>
      </trkpt>
      <trkpt lat="44.50369" lon="6.27554">
        <ele>1303</ele>
        <time>2023-04-21T14:24:14.000Z</time>
      </trkpt>
      <trkpt lat="44.50369" lon="6.27558">
        <ele>1304</ele>
        <time>2023-04-21T14:24:15.000Z</time>
      </trkpt>
      <trkpt lat="44.50368" lon="6.27561">
        <ele>1305</ele>
        <time>2023-04-21T14:24:16.000Z</time>
      </trkpt>
      <trkpt lat="44.50366" lon="6.27565">
        <ele>1306</ele>
        <time>2023-04-21T14:24:17.000Z</time>
      </trkpt>
      <trkpt lat="44.50366" lon="6.27569">
        <ele>1307</ele>
        <time>2023-04-21T14:24:18.000Z</time>
      </trkpt>
      <trkpt lat="44.50366" lon="6.27573">
        <ele>1307</ele>
        <time>2023-04-21T14:24:19.000Z</time>
      </trkpt>
      <trkpt lat="44.50365" lon="6.27576">
        <ele>1307</ele>
        <time>2023-04-21T14:24:20.000Z</time>
      </trkpt>
      <trkpt lat="44.50366" lon="6.27581">
        <ele>1306</ele>
        <time>2023-04-21T14:24:21.000Z</time>
      </trkpt>
      <trkpt lat="44.50366" lon="6.27585">
        <ele>1305</ele>
        <time>2023-04-21T14:24:22.000Z</time>
      </trkpt>
      <trkpt lat="44.50367" lon="6.27591">
        <ele>1304</ele>
        <time>2023-04-21T14:24:23.000Z</time>
      </trkpt>
      <trkpt lat="44.50367" lon="6.27596">
        <ele>1304</ele>
        <time>2023-04-21T14:24:24.000Z</time>
      </trkpt>
      <trkpt lat="44.50367" lon="6.276">
        <ele>1304</ele>
        <time>2023-04-21T14:24:25.000Z</time>
      </trkpt>
      <trkpt lat="44.50367" lon="6.27605">
        <ele>1304</ele>
        <time>2023-04-21T14:24:26.000Z</time>
      </trkpt>
      <trkpt lat="44.50367" lon="6.27609">
        <ele>1304</ele>
        <time>2023-04-21T14:24:27.000Z</time>
      </trkpt>
      <trkpt lat="44.50367" lon="6.27614">
        <ele>1305</ele>
        <time>2023-04-21T14:24:28.000Z</time>
      </trkpt>
      <trkpt lat="44.50366" lon="6.27617">
        <ele>1305</ele>
        <time>2023-04-21T14:24:29.000Z</time>
      </trkpt>
      <trkpt lat="44.50366" lon="6.2762">
        <ele>1305</ele>
        <time>2023-04-21T14:24:30.000Z</time>
      </trkpt>
      <trkpt lat="44.50367" lon="6.27624">
        <ele>1305</ele>
        <time>2023-04-21T14:24:31.000Z</time>
      </trkpt>
      <trkpt lat="44.50366" lon="6.27629">
        <ele>1305</ele>
        <time>2023-04-21T14:24:32.000Z</time>
      </trkpt>
      <trkpt lat="44.50367" lon="6.27633">
        <ele>1304</ele>
        <time>2023-04-21T14:24:33.000Z</time>
      </trkpt>
      <trkpt lat="44.50367" lon="6.27638">
        <ele>1303</ele>
        <time>2023-04-21T14:24:34.000Z</time>
      </trkpt>
      <trkpt lat="44.50368" lon="6.27642">
        <ele>1303</ele>
        <time>2023-04-21T14:24:35.000Z</time>
      </trkpt>
      <trkpt lat="44.5037" lon="6.27646">
        <ele>1302</ele>
        <time>2023-04-21T14:24:36.000Z</time>
      </trkpt>
      <trkpt lat="44.50371" lon="6.27651">
        <ele>1301</ele>
        <time>2023-04-21T14:24:37.000Z</time>
      </trkpt>
      <trkpt lat="44.50372" lon="6.27656">
        <ele>1301</ele>
        <time>2023-04-21T14:24:38.000Z</time>
      </trkpt>
      <trkpt lat="44.50374" lon="6.27659">
        <ele>1302</ele>
        <time>2023-04-21T14:24:39.000Z</time>
      </trkpt>
      <trkpt lat="44.50375" lon="6.27663">
        <ele>1302</ele>
        <time>2023-04-21T14:24:40.000Z</time>
      </trkpt>
      <trkpt lat="44.50376" lon="6.27666">
        <ele>1304</ele>
        <time>2023-04-21T14:24:41.000Z</time>
      </trkpt>
      <trkpt lat="44.50378" lon="6.27669">
        <ele>1304</ele>
        <time>2023-04-21T14:24:42.000Z</time>
      </trkpt>
      <trkpt lat="44.5038" lon="6.27673">
        <ele>1302</ele>
        <time>2023-04-21T14:24:43.000Z</time>
      </trkpt>
      <trkpt lat="44.50383" lon="6.27679">
        <ele>1300</ele>
        <time>2023-04-21T14:24:44.000Z</time>
      </trkpt>
      <trkpt lat="44.50385" lon="6.27683">
        <ele>1300</ele>
        <time>2023-04-21T14:24:45.000Z</time>
      </trkpt>
      <trkpt lat="44.50387" lon="6.27689">
        <ele>1300</ele>
        <time>2023-04-21T14:24:46.000Z</time>
      </trkpt>
      <trkpt lat="44.50389" lon="6.27694">
        <ele>1299</ele>
        <time>2023-04-21T14:24:47.000Z</time>
      </trkpt>
      <trkpt lat="44.50392" lon="6.277">
        <ele>1298</ele>
        <time>2023-04-21T14:24:48.000Z</time>
      </trkpt>
      <trkpt lat="44.50394" lon="6.27711">
        <ele>1294</ele>
        <time>2023-04-21T14:24:49.000Z</time>
      </trkpt>
      <trkpt lat="44.50396" lon="6.27718">
        <ele>1294</ele>
        <time>2023-04-21T14:24:50.000Z</time>
      </trkpt>
      <trkpt lat="44.50398" lon="6.27726">
        <ele>1294</ele>
        <time>2023-04-21T14:24:51.000Z</time>
      </trkpt>
      <trkpt lat="44.50401" lon="6.27735">
        <ele>1294</ele>
        <time>2023-04-21T14:24:52.000Z</time>
      </trkpt>
      <trkpt lat="44.50402" lon="6.27745">
        <ele>1292</ele>
        <time>2023-04-21T14:24:53.000Z</time>
      </trkpt>
      <trkpt lat="44.50404" lon="6.27755">
        <ele>1292</ele>
        <time>2023-04-21T14:24:54.000Z</time>
      </trkpt>
      <trkpt lat="44.50405" lon="6.27764">
        <ele>1291</ele>
        <time>2023-04-21T14:24:55.000Z</time>
      </trkpt>
      <trkpt lat="44.50406" lon="6.27775">
        <ele>1290</ele>
        <time>2023-04-21T14:24:56.000Z</time>
      </trkpt>
      <trkpt lat="44.50406" lon="6.27785">
        <ele>1289</ele>
        <time>2023-04-21T14:24:57.000Z</time>
      </trkpt>
      <trkpt lat="44.50403" lon="6.27795">
        <ele>1288</ele>
        <time>2023-04-21T14:24:58.000Z</time>
      </trkpt>
      <trkpt lat="44.50402" lon="6.27806">
        <ele>1287</ele>
        <time>2023-04-21T14:24:59.000Z</time>
      </trkpt>
      <trkpt lat="44.50401" lon="6.27816">
        <ele>1286</ele>
        <time>2023-04-21T14:25:00.000Z</time>
      </trkpt>
      <trkpt lat="44.50401" lon="6.27827">
        <ele>1284</ele>
        <time>2023-04-21T14:25:01.000Z</time>
      </trkpt>
      <trkpt lat="44.504" lon="6.27838">
        <ele>1282</ele>
        <time>2023-04-21T14:25:02.000Z</time>
      </trkpt>
      <trkpt lat="44.50399" lon="6.27848">
        <ele>1281</ele>
        <time>2023-04-21T14:25:03.000Z</time>
      </trkpt>
      <trkpt lat="44.50398" lon="6.27858">
        <ele>1280</ele>
        <time>2023-04-21T14:25:04.000Z</time>
      </trkpt>
      <trkpt lat="44.50397" lon="6.27867">
        <ele>1278</ele>
        <time>2023-04-21T14:25:05.000Z</time>
      </trkpt>
      <trkpt lat="44.50396" lon="6.27876">
        <ele>1278</ele>
        <time>2023-04-21T14:25:06.000Z</time>
      </trkpt>
      <trkpt lat="44.50389" lon="6.27879">
        <ele>1279</ele>
        <time>2023-04-21T14:25:07.000Z</time>
      </trkpt>
      <trkpt lat="44.50384" lon="6.27883">
        <ele>1279</ele>
        <time>2023-04-21T14:25:08.000Z</time>
      </trkpt>
      <trkpt lat="44.50379" lon="6.27889">
        <ele>1277</ele>
        <time>2023-04-21T14:25:09.000Z</time>
      </trkpt>
      <trkpt lat="44.50375" lon="6.27897">
        <ele>1275</ele>
        <time>2023-04-21T14:25:10.000Z</time>
      </trkpt>
      <trkpt lat="44.5037" lon="6.27904">
        <ele>1273</ele>
        <time>2023-04-21T14:25:11.000Z</time>
      </trkpt>
      <trkpt lat="44.50366" lon="6.27914">
        <ele>1272</ele>
        <time>2023-04-21T14:25:12.000Z</time>
      </trkpt>
      <trkpt lat="44.50362" lon="6.27923">
        <ele>1271</ele>
        <time>2023-04-21T14:25:13.000Z</time>
      </trkpt>
      <trkpt lat="44.50359" lon="6.27931">
        <ele>1269</ele>
        <time>2023-04-21T14:25:14.000Z</time>
      </trkpt>
      <trkpt lat="44.50358" lon="6.27936">
        <ele>1271</ele>
        <time>2023-04-21T14:25:15.000Z</time>
      </trkpt>
      <trkpt lat="44.50357" lon="6.27939">
        <ele>1271</ele>
        <time>2023-04-21T14:25:16.000Z</time>
      </trkpt>
      <trkpt lat="44.50356" lon="6.27941">
        <ele>1270</ele>
        <time>2023-04-21T14:25:17.000Z</time>
      </trkpt>
      <trkpt lat="44.50355" lon="6.27942">
        <ele>1269</ele>
        <time>2023-04-21T14:25:18.000Z</time>
      </trkpt>
      <trkpt lat="44.50355" lon="6.27943">
        <ele>1268</ele>
        <time>2023-04-21T14:25:19.000Z</time>
      </trkpt>
      <trkpt lat="44.50354" lon="6.27946">
        <ele>1268</ele>
        <time>2023-04-21T14:25:20.000Z</time>
      </trkpt>
      <trkpt lat="44.50353" lon="6.27949">
        <ele>1268</ele>
        <time>2023-04-21T14:25:21.000Z</time>
      </trkpt>
      <trkpt lat="44.50352" lon="6.27953">
        <ele>1267</ele>
        <time>2023-04-21T14:25:22.000Z</time>
      </trkpt>
      <trkpt lat="44.50351" lon="6.27956">
        <ele>1266</ele>
        <time>2023-04-21T14:25:23.000Z</time>
      </trkpt>
      <trkpt lat="44.5035" lon="6.27958">
        <ele>1266</ele>
        <time>2023-04-21T14:25:24.000Z</time>
      </trkpt>
      <trkpt lat="44.50348" lon="6.27961">
        <ele>1265</ele>
        <time>2023-04-21T14:25:25.000Z</time>
      </trkpt>
      <trkpt lat="44.50346" lon="6.27964">
        <ele>1265</ele>
        <time>2023-04-21T14:25:26.000Z</time>
      </trkpt>
      <trkpt lat="44.50346" lon="6.27966">
        <ele>1266</ele>
        <time>2023-04-21T14:25:27.000Z</time>
      </trkpt>
      <trkpt lat="44.50345" lon="6.27967">
        <ele>1266</ele>
        <time>2023-04-21T14:25:28.000Z</time>
      </trkpt>
      <trkpt lat="44.50345" lon="6.27968">
        <ele>1266</ele>
        <time>2023-04-21T14:25:29.000Z</time>
      </trkpt>
      <trkpt lat="44.50345" lon="6.27969">
        <ele>1266</ele>
        <time>2023-04-21T14:25:30.000Z</time>
      </trkpt>
      <trkpt lat="44.50345" lon="6.27969">
        <ele>1265</ele>
        <time>2023-04-21T14:25:31.000Z</time>
      </trkpt>
      <trkpt lat="44.50345" lon="6.27969">
        <ele>1265</ele>
        <time>2023-04-21T14:25:32.000Z</time>
      </trkpt>
      <trkpt lat="44.50345" lon="6.27969">
        <ele>1265</ele>
        <time>2023-04-21T14:25:33.000Z</time>
      </trkpt>
      <trkpt lat="44.50345" lon="6.27969">
        <ele>1265</ele>
        <time>2023-04-21T14:25:34.000Z</time>
      </trkpt>
      <trkpt lat="44.50345" lon="6.27969">
        <ele>1265</ele>
        <time>2023-04-21T14:25:35.000Z</time>
      </trkpt>
      <trkpt lat="44.50344" lon="6.2797">
        <ele>1265</ele>
        <time>2023-04-21T14:25:36.000Z</time>
      </trkpt>
      <trkpt lat="44.50344" lon="6.2797">
        <ele>1264</ele>
        <time>2023-04-21T14:25:37.000Z</time>
      </trkpt>
      <trkpt lat="44.50344" lon="6.2797">
        <ele>1264</ele>
        <time>2023-04-21T14:25:38.000Z</time>
      </trkpt>
      <trkpt lat="44.50344" lon="6.2797">
        <ele>1264</ele>
        <time>2023-04-21T14:25:39.000Z</time>
      </trkpt>
      <trkpt lat="44.50344" lon="6.2797">
        <ele>1264</ele>
        <time>2023-04-21T14:25:40.000Z</time>
      </trkpt>
      <trkpt lat="44.50344" lon="6.2797">
        <ele>1264</ele>
        <time>2023-04-21T14:25:41.000Z</time>
      </trkpt>
      <trkpt lat="44.50344" lon="6.2797">
        <ele>1264</ele>
        <time>2023-04-21T14:25:42.000Z</time>
      </trkpt>
      <trkpt lat="44.50344" lon="6.2797">
        <ele>1264</ele>
        <time>2023-04-21T14:25:43.000Z</time>
      </trkpt>
      <trkpt lat="44.50344" lon="6.27971">
        <ele>1264</ele>
        <time>2023-04-21T14:25:44.000Z</time>
      </trkpt>
      <trkpt lat="44.50344" lon="6.27971">
        <ele>1265</ele>
        <time>2023-04-21T14:25:45.000Z</time>
      </trkpt>
      <trkpt lat="44.50344" lon="6.27971">
        <ele>1265</ele>
        <time>2023-04-21T14:25:46.000Z</time>
      </trkpt>
      <trkpt lat="44.50343" lon="6.27971">
        <ele>1265</ele>
        <time>2023-04-21T14:25:47.000Z</time>
      </trkpt>
      <trkpt lat="44.50343" lon="6.27971">
        <ele>1265</ele>
        <time>2023-04-21T14:25:48.000Z</time>
      </trkpt>
      <trkpt lat="44.50343" lon="6.27971">
        <ele>1265</ele>
        <time>2023-04-21T14:25:49.000Z</time>
      </trkpt>
      <trkpt lat="44.50343" lon="6.27971">
        <ele>1265</ele>
        <time>2023-04-21T14:25:50.000Z</time>
      </trkpt>
      <trkpt lat="44.50343" lon="6.27971">
        <ele>1265</ele>
        <time>2023-04-21T14:25:51.000Z</time>
      </trkpt>
      <trkpt lat="44.50343" lon="6.27972">
        <ele>1265</ele>
        <time>2023-04-21T14:25:52.000Z</time>
      </trkpt>
      <trkpt lat="44.50343" lon="6.27972">
        <ele>1265</ele>
        <time>2023-04-21T14:25:53.000Z</time>
      </trkpt>
      <trkpt lat="44.50343" lon="6.27972">
        <ele>1265</ele>
        <time>2023-04-21T14:25:54.000Z</time>
      </trkpt>
      <trkpt lat="44.50343" lon="6.27972">
        <ele>1265</ele>
        <time>2023-04-21T14:25:55.000Z</time>
      </trkpt>
      <trkpt lat="44.50343" lon="6.27972">
        <ele>1264</ele>
        <time>2023-04-21T14:25:56.000Z</time>
      </trkpt>
      <trkpt lat="44.50343" lon="6.27972">
        <ele>1264</ele>
        <time>2023-04-21T14:25:57.000Z</time>
      </trkpt>
      <trkpt lat="44.50343" lon="6.27972">
        <ele>1264</ele>
        <time>2023-04-21T14:25:58.000Z</time>
      </trkpt>
      <trkpt lat="44.50343" lon="6.27972">
        <ele>1263</ele>
        <time>2023-04-21T14:25:59.000Z</time>
      </trkpt>
      <trkpt lat="44.50343" lon="6.27973">
        <ele>1263</ele>
        <time>2023-04-21T14:26:00.000Z</time>
      </trkpt>
      <trkpt lat="44.50343" lon="6.27973">
        <ele>1263</ele>
        <time>2023-04-21T14:26:01.000Z</time>
      </trkpt>
      <trkpt lat="44.50343" lon="6.27973">
        <ele>1263</ele>
        <time>2023-04-21T14:26:02.000Z</time>
      </trkpt>
      <trkpt lat="44.50343" lon="6.27973">
        <ele>1262</ele>
        <time>2023-04-21T14:26:03.000Z</time>
      </trkpt>
      <trkpt lat="44.50343" lon="6.27973">
        <ele>1262</ele>
        <time>2023-04-21T14:26:04.000Z</time>
      </trkpt>
      <trkpt lat="44.50343" lon="6.27973">
        <ele>1262</ele>
        <time>2023-04-21T14:26:05.000Z</time>
      </trkpt>
      <trkpt lat="44.50342" lon="6.27973">
        <ele>1262</ele>
        <time>2023-04-21T14:26:06.000Z</time>
      </trkpt>
      <trkpt lat="44.50342" lon="6.27973">
        <ele>1262</ele>
        <time>2023-04-21T14:26:07.000Z</time>
      </trkpt>
      <trkpt lat="44.50342" lon="6.27973">
        <ele>1261</ele>
        <time>2023-04-21T14:26:08.000Z</time>
      </trkpt>
      <trkpt lat="44.50342" lon="6.27973">
        <ele>1261</ele>
        <time>2023-04-21T14:26:09.000Z</time>
      </trkpt>
      <trkpt lat="44.50342" lon="6.27973">
        <ele>1261</ele>
        <time>2023-04-21T14:26:10.000Z</time>
      </trkpt>
      <trkpt lat="44.50342" lon="6.27973">
        <ele>1261</ele>
        <time>2023-04-21T14:26:11.000Z</time>
      </trkpt>
      <trkpt lat="44.50342" lon="6.27974">
        <ele>1261</ele>
        <time>2023-04-21T14:26:12.000Z</time>
      </trkpt>
      <trkpt lat="44.50342" lon="6.27974">
        <ele>1261</ele>
        <time>2023-04-21T14:26:13.000Z</time>
      </trkpt>
      <trkpt lat="44.50341" lon="6.27974">
        <ele>1261</ele>
        <time>2023-04-21T14:26:14.000Z</time>
      </trkpt>
      <trkpt lat="44.50341" lon="6.27974">
        <ele>1261</ele>
        <time>2023-04-21T14:26:15.000Z</time>
      </trkpt>
      <trkpt lat="44.50341" lon="6.27973">
        <ele>1261</ele>
        <time>2023-04-21T14:26:16.000Z</time>
      </trkpt>
      <trkpt lat="44.50341" lon="6.27973">
        <ele>1261</ele>
        <time>2023-04-21T14:26:17.000Z</time>
      </trkpt>
      <trkpt lat="44.50341" lon="6.27973">
        <ele>1261</ele>
        <time>2023-04-21T14:26:18.000Z</time>
      </trkpt>
      <trkpt lat="44.50341" lon="6.27973">
        <ele>1261</ele>
        <time>2023-04-21T14:26:19.000Z</time>
      </trkpt>
      <trkpt lat="44.50341" lon="6.27973">
        <ele>1261</ele>
        <time>2023-04-21T14:26:20.000Z</time>
      </trkpt>
      <trkpt lat="44.50341" lon="6.27973">
        <ele>1261</ele>
        <time>2023-04-21T14:26:21.000Z</time>
      </trkpt>
      <trkpt lat="44.50341" lon="6.27973">
        <ele>1261</ele>
        <time>2023-04-21T14:26:22.000Z</time>
      </trkpt>
      <trkpt lat="44.50341" lon="6.27973">
        <ele>1261</ele>
        <time>2023-04-21T14:26:23.000Z</time>
      </trkpt>
      <trkpt lat="44.50341" lon="6.27973">
        <ele>1261</ele>
        <time>2023-04-21T14:26:24.000Z</time>
      </trkpt>
      <trkpt lat="44.50341" lon="6.27973">
        <ele>1260</ele>
        <time>2023-04-21T14:26:25.000Z</time>
      </trkpt>
      <trkpt lat="44.5034" lon="6.27973">
        <ele>1261</ele>
        <time>2023-04-21T14:26:26.000Z</time>
      </trkpt>
      <trkpt lat="44.5034" lon="6.27973">
        <ele>1261</ele>
        <time>2023-04-21T14:26:27.000Z</time>
      </trkpt>
      <trkpt lat="44.5034" lon="6.27973">
        <ele>1260</ele>
        <time>2023-04-21T14:26:28.000Z</time>
      </trkpt>
      <trkpt lat="44.5034" lon="6.27973">
        <ele>1261</ele>
        <time>2023-04-21T14:26:29.000Z</time>
      </trkpt>
      <trkpt lat="44.5034" lon="6.27973">
        <ele>1261</ele>
        <time>2023-04-21T14:26:30.000Z</time>
      </trkpt>
      <trkpt lat="44.5034" lon="6.27973">
        <ele>1261</ele>
        <time>2023-04-21T14:26:31.000Z</time>
      </trkpt>
      <trkpt lat="44.5034" lon="6.27973">
        <ele>1261</ele>
        <time>2023-04-21T14:26:32.000Z</time>
      </trkpt>
      <trkpt lat="44.5034" lon="6.27973">
        <ele>1261</ele>
        <time>2023-04-21T14:26:33.000Z</time>
      </trkpt>
      <trkpt lat="44.5034" lon="6.27973">
        <ele>1260</ele>
        <time>2023-04-21T14:26:34.000Z</time>
      </trkpt>
      <trkpt lat="44.5034" lon="6.27973">
        <ele>1260</ele>
        <time>2023-04-21T14:26:35.000Z</time>
      </trkpt>
      <trkpt lat="44.5034" lon="6.27973">
        <ele>1260</ele>
        <time>2023-04-21T14:26:36.000Z</time>
      </trkpt>
      <trkpt lat="44.5034" lon="6.27973">
        <ele>1260</ele>
        <time>2023-04-21T14:26:37.000Z</time>
      </trkpt>
      <trkpt lat="44.50341" lon="6.27972">
        <ele>1259</ele>
        <time>2023-04-21T14:26:38.000Z</time>
      </trkpt>
      <trkpt lat="44.50341" lon="6.27971">
        <ele>1259</ele>
        <time>2023-04-21T14:26:39.000Z</time>
      </trkpt>
      <trkpt lat="44.50342" lon="6.2797">
        <ele>1260</ele>
        <time>2023-04-21T14:26:40.000Z</time>
      </trkpt>
      <trkpt lat="44.50342" lon="6.2797">
        <ele>1260</ele>
        <time>2023-04-21T14:26:41.000Z</time>
      </trkpt>
      <trkpt lat="44.50343" lon="6.27969">
        <ele>1260</ele>
        <time>2023-04-21T14:26:42.000Z</time>
      </trkpt>
      <trkpt lat="44.50343" lon="6.27969">
        <ele>1260</ele>
        <time>2023-04-21T14:26:43.000Z</time>
      </trkpt>
      <trkpt lat="44.50343" lon="6.27968">
        <ele>1260</ele>
        <time>2023-04-21T14:26:44.000Z</time>
      </trkpt>
      <trkpt lat="44.50344" lon="6.27968">
        <ele>1261</ele>
        <time>2023-04-21T14:26:45.000Z</time>
      </trkpt>
      <trkpt lat="44.50344" lon="6.27967">
        <ele>1261</ele>
        <time>2023-04-21T14:26:46.000Z</time>
      </trkpt>
      <trkpt lat="44.50345" lon="6.27966">
        <ele>1261</ele>
        <time>2023-04-21T14:26:47.000Z</time>
      </trkpt>
      <trkpt lat="44.50345" lon="6.27965">
        <ele>1262</ele>
        <time>2023-04-21T14:26:48.000Z</time>
      </trkpt>
      <trkpt lat="44.50346" lon="6.27965">
        <ele>1262</ele>
        <time>2023-04-21T14:26:49.000Z</time>
      </trkpt>
      <trkpt lat="44.50347" lon="6.27964">
        <ele>1262</ele>
        <time>2023-04-21T14:26:50.000Z</time>
      </trkpt>
      <trkpt lat="44.50347" lon="6.27963">
        <ele>1262</ele>
        <time>2023-04-21T14:26:51.000Z</time>
      </trkpt>
      <trkpt lat="44.50348" lon="6.27962">
        <ele>1262</ele>
        <time>2023-04-21T14:26:52.000Z</time>
      </trkpt>
      <trkpt lat="44.50348" lon="6.27961">
        <ele>1262</ele>
        <time>2023-04-21T14:26:53.000Z</time>
      </trkpt>
      <trkpt lat="44.50349" lon="6.27961">
        <ele>1262</ele>
        <time>2023-04-21T14:26:54.000Z</time>
      </trkpt>
      <trkpt lat="44.50349" lon="6.2796">
        <ele>1263</ele>
        <time>2023-04-21T14:26:55.000Z</time>
      </trkpt>
      <trkpt lat="44.5035" lon="6.27958">
        <ele>1263</ele>
        <time>2023-04-21T14:26:56.000Z</time>
      </trkpt>
      <trkpt lat="44.5035" lon="6.27957">
        <ele>1263</ele>
        <time>2023-04-21T14:26:57.000Z</time>
      </trkpt>
      <trkpt lat="44.50351" lon="6.27956">
        <ele>1263</ele>
        <time>2023-04-21T14:26:58.000Z</time>
      </trkpt>
      <trkpt lat="44.50351" lon="6.27955">
        <ele>1263</ele>
        <time>2023-04-21T14:26:59.000Z</time>
      </trkpt>
      <trkpt lat="44.50351" lon="6.27954">
        <ele>1263</ele>
        <time>2023-04-21T14:27:00.000Z</time>
      </trkpt>
      <trkpt lat="44.50351" lon="6.27954">
        <ele>1263</ele>
        <time>2023-04-21T14:27:01.000Z</time>
      </trkpt>
      <trkpt lat="44.50352" lon="6.27952">
        <ele>1263</ele>
        <time>2023-04-21T14:27:02.000Z</time>
      </trkpt>
      <trkpt lat="44.50352" lon="6.27951">
        <ele>1263</ele>
        <time>2023-04-21T14:27:03.000Z</time>
      </trkpt>
      <trkpt lat="44.50352" lon="6.2795">
        <ele>1264</ele>
        <time>2023-04-21T14:27:04.000Z</time>
      </trkpt>
      <trkpt lat="44.50352" lon="6.27949">
        <ele>1264</ele>
        <time>2023-04-21T14:27:05.000Z</time>
      </trkpt>
      <trkpt lat="44.50352" lon="6.27948">
        <ele>1264</ele>
        <time>2023-04-21T14:27:06.000Z</time>
      </trkpt>
      <trkpt lat="44.50352" lon="6.27947">
        <ele>1264</ele>
        <time>2023-04-21T14:27:07.000Z</time>
      </trkpt>
      <trkpt lat="44.50352" lon="6.27947">
        <ele>1264</ele>
        <time>2023-04-21T14:27:08.000Z</time>
      </trkpt>
      <trkpt lat="44.50352" lon="6.27947">
        <ele>1264</ele>
        <time>2023-04-21T14:27:09.000Z</time>
      </trkpt>
      <trkpt lat="44.50352" lon="6.27947">
        <ele>1264</ele>
        <time>2023-04-21T14:27:10.000Z</time>
      </trkpt>
      <trkpt lat="44.50352" lon="6.27947">
        <ele>1264</ele>
        <time>2023-04-21T14:27:11.000Z</time>
      </trkpt>
      <trkpt lat="44.50352" lon="6.27947">
        <ele>1264</ele>
        <time>2023-04-21T14:27:12.000Z</time>
      </trkpt>
      <trkpt lat="44.50352" lon="6.27947">
        <ele>1264</ele>
        <time>2023-04-21T14:27:13.000Z</time>
      </trkpt>
      <trkpt lat="44.50352" lon="6.27947">
        <ele>1264</ele>
        <time>2023-04-21T14:27:14.000Z</time>
      </trkpt>
      <trkpt lat="44.50352" lon="6.27947">
        <ele>1264</ele>
        <time>2023-04-21T14:27:15.000Z</time>
      </trkpt>
      <trkpt lat="44.50352" lon="6.27947">
        <ele>1265</ele>
        <time>2023-04-21T14:27:16.000Z</time>
      </trkpt>
      <trkpt lat="44.50352" lon="6.27947">
        <ele>1265</ele>
        <time>2023-04-21T14:27:17.000Z</time>
      </trkpt>
      <trkpt lat="44.50352" lon="6.27947">
        <ele>1265</ele>
        <time>2023-04-21T14:27:18.000Z</time>
      </trkpt>
      <trkpt lat="44.50352" lon="6.27947">
        <ele>1265</ele>
        <time>2023-04-21T14:27:19.000Z</time>
      </trkpt>
      <trkpt lat="44.50352" lon="6.27947">
        <ele>1265</ele>
        <time>2023-04-21T14:27:20.000Z</time>
      </trkpt>
      <trkpt lat="44.50352" lon="6.27947">
        <ele>1265</ele>
        <time>2023-04-21T14:27:21.000Z</time>
      </trkpt>
      <trkpt lat="44.50352" lon="6.27947">
        <ele>1265</ele>
        <time>2023-04-21T14:27:22.000Z</time>
      </trkpt>
      <trkpt lat="44.50351" lon="6.27948">
        <ele>1265</ele>
        <time>2023-04-21T14:27:23.000Z</time>
      </trkpt>
      <trkpt lat="44.50349" lon="6.27949">
        <ele>1265</ele>
        <time>2023-04-21T14:27:24.000Z</time>
      </trkpt>
      <trkpt lat="44.50347" lon="6.27951">
        <ele>1265</ele>
        <time>2023-04-21T14:27:25.000Z</time>
      </trkpt>
      <trkpt lat="44.50345" lon="6.27953">
        <ele>1265</ele>
        <time>2023-04-21T14:27:26.000Z</time>
      </trkpt>
      <trkpt lat="44.50343" lon="6.27956">
        <ele>1263</ele>
        <time>2023-04-21T14:27:27.000Z</time>
      </trkpt>
      <trkpt lat="44.50341" lon="6.27958">
        <ele>1263</ele>
        <time>2023-04-21T14:27:28.000Z</time>
      </trkpt>
      <trkpt lat="44.50339" lon="6.27961">
        <ele>1263</ele>
        <time>2023-04-21T14:27:29.000Z</time>
      </trkpt>
      <trkpt lat="44.50336" lon="6.27963">
        <ele>1263</ele>
        <time>2023-04-21T14:27:30.000Z</time>
      </trkpt>
      <trkpt lat="44.50332" lon="6.27966">
        <ele>1261</ele>
        <time>2023-04-21T14:27:31.000Z</time>
      </trkpt>
      <trkpt lat="44.50328" lon="6.27969">
        <ele>1260</ele>
        <time>2023-04-21T14:27:32.000Z</time>
      </trkpt>
      <trkpt lat="44.50325" lon="6.27971">
        <ele>1259</ele>
        <time>2023-04-21T14:27:33.000Z</time>
      </trkpt>
      <trkpt lat="44.50321" lon="6.27972">
        <ele>1258</ele>
        <time>2023-04-21T14:27:34.000Z</time>
      </trkpt>
      <trkpt lat="44.50317" lon="6.27973">
        <ele>1258</ele>
        <time>2023-04-21T14:27:35.000Z</time>
      </trkpt>
      <trkpt lat="44.50312" lon="6.27975">
        <ele>1258</ele>
        <time>2023-04-21T14:27:36.000Z</time>
      </trkpt>
      <trkpt lat="44.50307" lon="6.27975">
        <ele>1256</ele>
        <time>2023-04-21T14:27:37.000Z</time>
      </trkpt>
      <trkpt lat="44.50301" lon="6.27975">
        <ele>1257</ele>
        <time>2023-04-21T14:27:38.000Z</time>
      </trkpt>
      <trkpt lat="44.50294" lon="6.27975">
        <ele>1256</ele>
        <time>2023-04-21T14:27:39.000Z</time>
      </trkpt>
      <trkpt lat="44.50287" lon="6.27976">
        <ele>1255</ele>
        <time>2023-04-21T14:27:40.000Z</time>
      </trkpt>
      <trkpt lat="44.5028" lon="6.27977">
        <ele>1252</ele>
        <time>2023-04-21T14:27:41.000Z</time>
      </trkpt>
      <trkpt lat="44.50273" lon="6.27978">
        <ele>1252</ele>
        <time>2023-04-21T14:27:42.000Z</time>
      </trkpt>
      <trkpt lat="44.50265" lon="6.2798">
        <ele>1251</ele>
        <time>2023-04-21T14:27:43.000Z</time>
      </trkpt>
      <trkpt lat="44.50257" lon="6.27983">
        <ele>1250</ele>
        <time>2023-04-21T14:27:44.000Z</time>
      </trkpt>
      <trkpt lat="44.50249" lon="6.27985">
        <ele>1248</ele>
        <time>2023-04-21T14:27:45.000Z</time>
      </trkpt>
      <trkpt lat="44.50242" lon="6.27987">
        <ele>1247</ele>
        <time>2023-04-21T14:27:46.000Z</time>
      </trkpt>
      <trkpt lat="44.50235" lon="6.27991">
        <ele>1246</ele>
        <time>2023-04-21T14:27:47.000Z</time>
      </trkpt>
      <trkpt lat="44.5023" lon="6.27994">
        <ele>1244</ele>
        <time>2023-04-21T14:27:48.000Z</time>
      </trkpt>
      <trkpt lat="44.50232" lon="6.27998">
        <ele>1248</ele>
        <time>2023-04-21T14:27:49.000Z</time>
      </trkpt>
      <trkpt lat="44.50235" lon="6.28">
        <ele>1252</ele>
        <time>2023-04-21T14:27:50.000Z</time>
      </trkpt>
      <trkpt lat="44.50237" lon="6.28">
        <ele>1251</ele>
        <time>2023-04-21T14:27:51.000Z</time>
      </trkpt>
      <trkpt lat="44.50238" lon="6.28001">
        <ele>1250</ele>
        <time>2023-04-21T14:27:52.000Z</time>
      </trkpt>
      <trkpt lat="44.50238" lon="6.28002">
        <ele>1250</ele>
        <time>2023-04-21T14:27:53.000Z</time>
      </trkpt>
      <trkpt lat="44.50238" lon="6.28002">
        <ele>1249</ele>
        <time>2023-04-21T14:27:54.000Z</time>
      </trkpt>
      <trkpt lat="44.50238" lon="6.28003">
        <ele>1249</ele>
        <time>2023-04-21T14:27:55.000Z</time>
      </trkpt>
      <trkpt lat="44.50237" lon="6.28003">
        <ele>1249</ele>
        <time>2023-04-21T14:27:56.000Z</time>
      </trkpt>
      <trkpt lat="44.50237" lon="6.28003">
        <ele>1248</ele>
        <time>2023-04-21T14:27:57.000Z</time>
      </trkpt>
      <trkpt lat="44.50237" lon="6.28003">
        <ele>1248</ele>
        <time>2023-04-21T14:27:58.000Z</time>
      </trkpt>
      <trkpt lat="44.50237" lon="6.28003">
        <ele>1247</ele>
        <time>2023-04-21T14:27:59.000Z</time>
      </trkpt>
      <trkpt lat="44.50237" lon="6.28003">
        <ele>1247</ele>
        <time>2023-04-21T14:28:00.000Z</time>
      </trkpt>
      <trkpt lat="44.50237" lon="6.28003">
        <ele>1247</ele>
        <time>2023-04-21T14:28:01.000Z</time>
      </trkpt>
      <trkpt lat="44.50237" lon="6.28003">
        <ele>1247</ele>
        <time>2023-04-21T14:28:02.000Z</time>
      </trkpt>
      <trkpt lat="44.50237" lon="6.28003">
        <ele>1247</ele>
        <time>2023-04-21T14:28:03.000Z</time>
      </trkpt>
      <trkpt lat="44.50237" lon="6.28003">
        <ele>1247</ele>
        <time>2023-04-21T14:28:04.000Z</time>
      </trkpt>
      <trkpt lat="44.50236" lon="6.28003">
        <ele>1247</ele>
        <time>2023-04-21T14:28:05.000Z</time>
      </trkpt>
      <trkpt lat="44.50236" lon="6.28003">
        <ele>1247</ele>
        <time>2023-04-21T14:28:06.000Z</time>
      </trkpt>
      <trkpt lat="44.50236" lon="6.28003">
        <ele>1246</ele>
        <time>2023-04-21T14:28:07.000Z</time>
      </trkpt>
      <trkpt lat="44.50236" lon="6.28004">
        <ele>1246</ele>
        <time>2023-04-21T14:28:08.000Z</time>
      </trkpt>
      <trkpt lat="44.50237" lon="6.28004">
        <ele>1247</ele>
        <time>2023-04-21T14:28:09.000Z</time>
      </trkpt>
      <trkpt lat="44.50238" lon="6.28004">
        <ele>1246</ele>
        <time>2023-04-21T14:28:10.000Z</time>
      </trkpt>
      <trkpt lat="44.5024" lon="6.28004">
        <ele>1246</ele>
        <time>2023-04-21T14:28:11.000Z</time>
      </trkpt>
      <trkpt lat="44.50242" lon="6.28003">
        <ele>1245</ele>
        <time>2023-04-21T14:28:12.000Z</time>
      </trkpt>
      <trkpt lat="44.50245" lon="6.28003">
        <ele>1244</ele>
        <time>2023-04-21T14:28:13.000Z</time>
      </trkpt>
      <trkpt lat="44.50248" lon="6.28003">
        <ele>1244</ele>
        <time>2023-04-21T14:28:14.000Z</time>
      </trkpt>
      <trkpt lat="44.50251" lon="6.28003">
        <ele>1244</ele>
        <time>2023-04-21T14:28:15.000Z</time>
      </trkpt>
      <trkpt lat="44.50255" lon="6.28003">
        <ele>1243</ele>
        <time>2023-04-21T14:28:16.000Z</time>
      </trkpt>
      <trkpt lat="44.50258" lon="6.28002">
        <ele>1243</ele>
        <time>2023-04-21T14:28:17.000Z</time>
      </trkpt>
      <trkpt lat="44.50262" lon="6.28002">
        <ele>1243</ele>
        <time>2023-04-21T14:28:18.000Z</time>
      </trkpt>
      <trkpt lat="44.50267" lon="6.28001">
        <ele>1243</ele>
        <time>2023-04-21T14:28:19.000Z</time>
      </trkpt>
      <trkpt lat="44.50272" lon="6.28">
        <ele>1243</ele>
        <time>2023-04-21T14:28:20.000Z</time>
      </trkpt>
      <trkpt lat="44.50277" lon="6.28">
        <ele>1243</ele>
        <time>2023-04-21T14:28:21.000Z</time>
      </trkpt>
      <trkpt lat="44.50284" lon="6.28003">
        <ele>1245</ele>
        <time>2023-04-21T14:28:22.000Z</time>
      </trkpt>
      <trkpt lat="44.5029" lon="6.28008">
        <ele>1246</ele>
        <time>2023-04-21T14:28:23.000Z</time>
      </trkpt>
      <trkpt lat="44.50295" lon="6.28012">
        <ele>1247</ele>
        <time>2023-04-21T14:28:24.000Z</time>
      </trkpt>
      <trkpt lat="44.50301" lon="6.28016">
        <ele>1247</ele>
        <time>2023-04-21T14:28:25.000Z</time>
      </trkpt>
      <trkpt lat="44.50309" lon="6.28021">
        <ele>1245</ele>
        <time>2023-04-21T14:28:26.000Z</time>
      </trkpt>
      <trkpt lat="44.50315" lon="6.28026">
        <ele>1246</ele>
        <time>2023-04-21T14:28:27.000Z</time>
      </trkpt>
      <trkpt lat="44.50322" lon="6.28031">
        <ele>1246</ele>
        <time>2023-04-21T14:28:28.000Z</time>
      </trkpt>
      <trkpt lat="44.50329" lon="6.28038">
        <ele>1244</ele>
        <time>2023-04-21T14:28:29.000Z</time>
      </trkpt>
      <trkpt lat="44.50336" lon="6.28044">
        <ele>1244</ele>
        <time>2023-04-21T14:28:30.000Z</time>
      </trkpt>
      <trkpt lat="44.50342" lon="6.2805">
        <ele>1243</ele>
        <time>2023-04-21T14:28:31.000Z</time>
      </trkpt>
      <trkpt lat="44.50347" lon="6.28053">
        <ele>1242</ele>
        <time>2023-04-21T14:28:32.000Z</time>
      </trkpt>
      <trkpt lat="44.50353" lon="6.28056">
        <ele>1240</ele>
        <time>2023-04-21T14:28:33.000Z</time>
      </trkpt>
      <trkpt lat="44.5036" lon="6.28057">
        <ele>1240</ele>
        <time>2023-04-21T14:28:34.000Z</time>
      </trkpt>
      <trkpt lat="44.50364" lon="6.28057">
        <ele>1243</ele>
        <time>2023-04-21T14:28:35.000Z</time>
      </trkpt>
      <trkpt lat="44.50371" lon="6.28057">
        <ele>1242</ele>
        <time>2023-04-21T14:28:36.000Z</time>
      </trkpt>
      <trkpt lat="44.50378" lon="6.28057">
        <ele>1242</ele>
        <time>2023-04-21T14:28:37.000Z</time>
      </trkpt>
      <trkpt lat="44.50384" lon="6.28057">
        <ele>1241</ele>
        <time>2023-04-21T14:28:38.000Z</time>
      </trkpt>
      <trkpt lat="44.5039" lon="6.28057">
        <ele>1240</ele>
        <time>2023-04-21T14:28:39.000Z</time>
      </trkpt>
      <trkpt lat="44.50397" lon="6.28057">
        <ele>1240</ele>
        <time>2023-04-21T14:28:40.000Z</time>
      </trkpt>
      <trkpt lat="44.50403" lon="6.28056">
        <ele>1241</ele>
        <time>2023-04-21T14:28:41.000Z</time>
      </trkpt>
      <trkpt lat="44.50407" lon="6.2805">
        <ele>1241</ele>
        <time>2023-04-21T14:28:42.000Z</time>
      </trkpt>
      <trkpt lat="44.50412" lon="6.28048">
        <ele>1242</ele>
        <time>2023-04-21T14:28:43.000Z</time>
      </trkpt>
      <trkpt lat="44.50417" lon="6.28043">
        <ele>1243</ele>
        <time>2023-04-21T14:28:44.000Z</time>
      </trkpt>
      <trkpt lat="44.50422" lon="6.28037">
        <ele>1242</ele>
        <time>2023-04-21T14:28:45.000Z</time>
      </trkpt>
      <trkpt lat="44.50427" lon="6.28033">
        <ele>1243</ele>
        <time>2023-04-21T14:28:46.000Z</time>
      </trkpt>
      <trkpt lat="44.50433" lon="6.28029">
        <ele>1244</ele>
        <time>2023-04-21T14:28:47.000Z</time>
      </trkpt>
      <trkpt lat="44.5044" lon="6.28022">
        <ele>1241</ele>
        <time>2023-04-21T14:28:48.000Z</time>
      </trkpt>
      <trkpt lat="44.50447" lon="6.28014">
        <ele>1236</ele>
        <time>2023-04-21T14:28:49.000Z</time>
      </trkpt>
      <trkpt lat="44.50455" lon="6.28008">
        <ele>1236</ele>
        <time>2023-04-21T14:28:50.000Z</time>
      </trkpt>
      <trkpt lat="44.50463" lon="6.28002">
        <ele>1233</ele>
        <time>2023-04-21T14:28:51.000Z</time>
      </trkpt>
      <trkpt lat="44.5047" lon="6.27997">
        <ele>1231</ele>
        <time>2023-04-21T14:28:52.000Z</time>
      </trkpt>
      <trkpt lat="44.50476" lon="6.27994">
        <ele>1231</ele>
        <time>2023-04-21T14:28:53.000Z</time>
      </trkpt>
      <trkpt lat="44.50481" lon="6.27991">
        <ele>1229</ele>
        <time>2023-04-21T14:28:54.000Z</time>
      </trkpt>
      <trkpt lat="44.50485" lon="6.27991">
        <ele>1228</ele>
        <time>2023-04-21T14:28:55.000Z</time>
      </trkpt>
      <trkpt lat="44.50485" lon="6.27996">
        <ele>1229</ele>
        <time>2023-04-21T14:28:56.000Z</time>
      </trkpt>
      <trkpt lat="44.50486" lon="6.28001">
        <ele>1229</ele>
        <time>2023-04-21T14:28:57.000Z</time>
      </trkpt>
      <trkpt lat="44.50486" lon="6.28005">
        <ele>1229</ele>
        <time>2023-04-21T14:28:58.000Z</time>
      </trkpt>
      <trkpt lat="44.50484" lon="6.28009">
        <ele>1230</ele>
        <time>2023-04-21T14:28:59.000Z</time>
      </trkpt>
      <trkpt lat="44.50482" lon="6.28013">
        <ele>1230</ele>
        <time>2023-04-21T14:29:00.000Z</time>
      </trkpt>
      <trkpt lat="44.50479" lon="6.28017">
        <ele>1230</ele>
        <time>2023-04-21T14:29:01.000Z</time>
      </trkpt>
      <trkpt lat="44.50477" lon="6.28021">
        <ele>1230</ele>
        <time>2023-04-21T14:29:02.000Z</time>
      </trkpt>
      <trkpt lat="44.50475" lon="6.28026">
        <ele>1231</ele>
        <time>2023-04-21T14:29:03.000Z</time>
      </trkpt>
      <trkpt lat="44.50473" lon="6.28032">
        <ele>1229</ele>
        <time>2023-04-21T14:29:04.000Z</time>
      </trkpt>
      <trkpt lat="44.50469" lon="6.28042">
        <ele>1227</ele>
        <time>2023-04-21T14:29:05.000Z</time>
      </trkpt>
      <trkpt lat="44.50465" lon="6.28051">
        <ele>1227</ele>
        <time>2023-04-21T14:29:06.000Z</time>
      </trkpt>
      <trkpt lat="44.50461" lon="6.28062">
        <ele>1226</ele>
        <time>2023-04-21T14:29:07.000Z</time>
      </trkpt>
      <trkpt lat="44.50457" lon="6.28072">
        <ele>1223</ele>
        <time>2023-04-21T14:29:08.000Z</time>
      </trkpt>
      <trkpt lat="44.50452" lon="6.28083">
        <ele>1221</ele>
        <time>2023-04-21T14:29:09.000Z</time>
      </trkpt>
      <trkpt lat="44.50448" lon="6.28095">
        <ele>1221</ele>
        <time>2023-04-21T14:29:10.000Z</time>
      </trkpt>
      <trkpt lat="44.50444" lon="6.28106">
        <ele>1220</ele>
        <time>2023-04-21T14:29:11.000Z</time>
      </trkpt>
      <trkpt lat="44.5044" lon="6.28117">
        <ele>1219</ele>
        <time>2023-04-21T14:29:12.000Z</time>
      </trkpt>
      <trkpt lat="44.50437" lon="6.28128">
        <ele>1220</ele>
        <time>2023-04-21T14:29:13.000Z</time>
      </trkpt>
      <trkpt lat="44.50431" lon="6.28137">
        <ele>1217</ele>
        <time>2023-04-21T14:29:14.000Z</time>
      </trkpt>
      <trkpt lat="44.50427" lon="6.28146">
        <ele>1216</ele>
        <time>2023-04-21T14:29:15.000Z</time>
      </trkpt>
      <trkpt lat="44.50421" lon="6.28155">
        <ele>1214</ele>
        <time>2023-04-21T14:29:16.000Z</time>
      </trkpt>
      <trkpt lat="44.50416" lon="6.28163">
        <ele>1213</ele>
        <time>2023-04-21T14:29:17.000Z</time>
      </trkpt>
      <trkpt lat="44.50408" lon="6.28168">
        <ele>1212</ele>
        <time>2023-04-21T14:29:18.000Z</time>
      </trkpt>
      <trkpt lat="44.504" lon="6.28172">
        <ele>1211</ele>
        <time>2023-04-21T14:29:19.000Z</time>
      </trkpt>
      <trkpt lat="44.50391" lon="6.28177">
        <ele>1209</ele>
        <time>2023-04-21T14:29:20.000Z</time>
      </trkpt>
      <trkpt lat="44.50383" lon="6.28183">
        <ele>1208</ele>
        <time>2023-04-21T14:29:21.000Z</time>
      </trkpt>
      <trkpt lat="44.50374" lon="6.28189">
        <ele>1205</ele>
        <time>2023-04-21T14:29:22.000Z</time>
      </trkpt>
      <trkpt lat="44.50364" lon="6.28194">
        <ele>1202</ele>
        <time>2023-04-21T14:29:23.000Z</time>
      </trkpt>
      <trkpt lat="44.50355" lon="6.28199">
        <ele>1201</ele>
        <time>2023-04-21T14:29:24.000Z</time>
      </trkpt>
      <trkpt lat="44.50347" lon="6.28202">
        <ele>1200</ele>
        <time>2023-04-21T14:29:25.000Z</time>
      </trkpt>
      <trkpt lat="44.50338" lon="6.28206">
        <ele>1198</ele>
        <time>2023-04-21T14:29:26.000Z</time>
      </trkpt>
      <trkpt lat="44.50331" lon="6.28208">
        <ele>1196</ele>
        <time>2023-04-21T14:29:27.000Z</time>
      </trkpt>
      <trkpt lat="44.50323" lon="6.2821">
        <ele>1194</ele>
        <time>2023-04-21T14:29:28.000Z</time>
      </trkpt>
      <trkpt lat="44.50316" lon="6.2821">
        <ele>1191</ele>
        <time>2023-04-21T14:29:29.000Z</time>
      </trkpt>
      <trkpt lat="44.50309" lon="6.28208">
        <ele>1189</ele>
        <time>2023-04-21T14:29:30.000Z</time>
      </trkpt>
      <trkpt lat="44.50302" lon="6.28207">
        <ele>1189</ele>
        <time>2023-04-21T14:29:31.000Z</time>
      </trkpt>
      <trkpt lat="44.50296" lon="6.28206">
        <ele>1188</ele>
        <time>2023-04-21T14:29:32.000Z</time>
      </trkpt>
      <trkpt lat="44.50291" lon="6.28205">
        <ele>1187</ele>
        <time>2023-04-21T14:29:33.000Z</time>
      </trkpt>
      <trkpt lat="44.50286" lon="6.28206">
        <ele>1185</ele>
        <time>2023-04-21T14:29:34.000Z</time>
      </trkpt>
      <trkpt lat="44.50282" lon="6.2821">
        <ele>1186</ele>
        <time>2023-04-21T14:29:35.000Z</time>
      </trkpt>
      <trkpt lat="44.50283" lon="6.28215">
        <ele>1190</ele>
        <time>2023-04-21T14:29:36.000Z</time>
      </trkpt>
      <trkpt lat="44.50285" lon="6.28218">
        <ele>1190</ele>
        <time>2023-04-21T14:29:37.000Z</time>
      </trkpt>
      <trkpt lat="44.50287" lon="6.28219">
        <ele>1189</ele>
        <time>2023-04-21T14:29:38.000Z</time>
      </trkpt>
      <trkpt lat="44.5029" lon="6.2822">
        <ele>1188</ele>
        <time>2023-04-21T14:29:39.000Z</time>
      </trkpt>
      <trkpt lat="44.50294" lon="6.28223">
        <ele>1187</ele>
        <time>2023-04-21T14:29:40.000Z</time>
      </trkpt>
      <trkpt lat="44.50298" lon="6.28225">
        <ele>1188</ele>
        <time>2023-04-21T14:29:41.000Z</time>
      </trkpt>
      <trkpt lat="44.50302" lon="6.28229">
        <ele>1188</ele>
        <time>2023-04-21T14:29:42.000Z</time>
      </trkpt>
      <trkpt lat="44.50307" lon="6.28232">
        <ele>1188</ele>
        <time>2023-04-21T14:29:43.000Z</time>
      </trkpt>
      <trkpt lat="44.50312" lon="6.28237">
        <ele>1186</ele>
        <time>2023-04-21T14:29:44.000Z</time>
      </trkpt>
      <trkpt lat="44.50317" lon="6.28241">
        <ele>1185</ele>
        <time>2023-04-21T14:29:45.000Z</time>
      </trkpt>
      <trkpt lat="44.5032" lon="6.28244">
        <ele>1185</ele>
        <time>2023-04-21T14:29:46.000Z</time>
      </trkpt>
      <trkpt lat="44.50323" lon="6.28245">
        <ele>1185</ele>
        <time>2023-04-21T14:29:47.000Z</time>
      </trkpt>
      <trkpt lat="44.50324" lon="6.28247">
        <ele>1183</ele>
        <time>2023-04-21T14:29:48.000Z</time>
      </trkpt>
      <trkpt lat="44.50325" lon="6.28248">
        <ele>1182</ele>
        <time>2023-04-21T14:29:49.000Z</time>
      </trkpt>
      <trkpt lat="44.50327" lon="6.2825">
        <ele>1181</ele>
        <time>2023-04-21T14:29:50.000Z</time>
      </trkpt>
      <trkpt lat="44.5033" lon="6.28251">
        <ele>1180</ele>
        <time>2023-04-21T14:29:51.000Z</time>
      </trkpt>
      <trkpt lat="44.50333" lon="6.28252">
        <ele>1180</ele>
        <time>2023-04-21T14:29:52.000Z</time>
      </trkpt>
      <trkpt lat="44.50336" lon="6.28253">
        <ele>1180</ele>
        <time>2023-04-21T14:29:53.000Z</time>
      </trkpt>
      <trkpt lat="44.5034" lon="6.28254">
        <ele>1179</ele>
        <time>2023-04-21T14:29:54.000Z</time>
      </trkpt>
      <trkpt lat="44.50343" lon="6.28256">
        <ele>1179</ele>
        <time>2023-04-21T14:29:55.000Z</time>
      </trkpt>
      <trkpt lat="44.50348" lon="6.2826">
        <ele>1178</ele>
        <time>2023-04-21T14:29:56.000Z</time>
      </trkpt>
      <trkpt lat="44.50353" lon="6.28262">
        <ele>1179</ele>
        <time>2023-04-21T14:29:57.000Z</time>
      </trkpt>
      <trkpt lat="44.50358" lon="6.28266">
        <ele>1178</ele>
        <time>2023-04-21T14:29:58.000Z</time>
      </trkpt>
      <trkpt lat="44.50363" lon="6.28269">
        <ele>1178</ele>
        <time>2023-04-21T14:29:59.000Z</time>
      </trkpt>
      <trkpt lat="44.50368" lon="6.28273">
        <ele>1177</ele>
        <time>2023-04-21T14:30:00.000Z</time>
      </trkpt>
      <trkpt lat="44.50373" lon="6.28277">
        <ele>1176</ele>
        <time>2023-04-21T14:30:01.000Z</time>
      </trkpt>
      <trkpt lat="44.50376" lon="6.28281">
        <ele>1176</ele>
        <time>2023-04-21T14:30:02.000Z</time>
      </trkpt>
      <trkpt lat="44.5038" lon="6.28284">
        <ele>1175</ele>
        <time>2023-04-21T14:30:03.000Z</time>
      </trkpt>
      <trkpt lat="44.50386" lon="6.28286">
        <ele>1176</ele>
        <time>2023-04-21T14:30:04.000Z</time>
      </trkpt>
      <trkpt lat="44.50391" lon="6.28286">
        <ele>1176</ele>
        <time>2023-04-21T14:30:05.000Z</time>
      </trkpt>
      <trkpt lat="44.50398" lon="6.28288">
        <ele>1176</ele>
        <time>2023-04-21T14:30:06.000Z</time>
      </trkpt>
      <trkpt lat="44.50404" lon="6.28289">
        <ele>1175</ele>
        <time>2023-04-21T14:30:07.000Z</time>
      </trkpt>
      <trkpt lat="44.50411" lon="6.2829">
        <ele>1174</ele>
        <time>2023-04-21T14:30:08.000Z</time>
      </trkpt>
      <trkpt lat="44.50419" lon="6.28292">
        <ele>1173</ele>
        <time>2023-04-21T14:30:09.000Z</time>
      </trkpt>
      <trkpt lat="44.50426" lon="6.28294">
        <ele>1173</ele>
        <time>2023-04-21T14:30:10.000Z</time>
      </trkpt>
      <trkpt lat="44.50433" lon="6.28298">
        <ele>1172</ele>
        <time>2023-04-21T14:30:11.000Z</time>
      </trkpt>
      <trkpt lat="44.50439" lon="6.28303">
        <ele>1173</ele>
        <time>2023-04-21T14:30:12.000Z</time>
      </trkpt>
      <trkpt lat="44.50444" lon="6.28307">
        <ele>1172</ele>
        <time>2023-04-21T14:30:13.000Z</time>
      </trkpt>
      <trkpt lat="44.50447" lon="6.28309">
        <ele>1168</ele>
        <time>2023-04-21T14:30:14.000Z</time>
      </trkpt>
      <trkpt lat="44.50451" lon="6.2831">
        <ele>1166</ele>
        <time>2023-04-21T14:30:15.000Z</time>
      </trkpt>
      <trkpt lat="44.50456" lon="6.28309">
        <ele>1166</ele>
        <time>2023-04-21T14:30:16.000Z</time>
      </trkpt>
      <trkpt lat="44.5046" lon="6.28308">
        <ele>1170</ele>
        <time>2023-04-21T14:30:17.000Z</time>
      </trkpt>
      <trkpt lat="44.50465" lon="6.28307">
        <ele>1169</ele>
        <time>2023-04-21T14:30:18.000Z</time>
      </trkpt>
      <trkpt lat="44.50471" lon="6.28307">
        <ele>1166</ele>
        <time>2023-04-21T14:30:19.000Z</time>
      </trkpt>
      <trkpt lat="44.50478" lon="6.28306">
        <ele>1166</ele>
        <time>2023-04-21T14:30:20.000Z</time>
      </trkpt>
      <trkpt lat="44.50483" lon="6.28306">
        <ele>1167</ele>
        <time>2023-04-21T14:30:21.000Z</time>
      </trkpt>
      <trkpt lat="44.50491" lon="6.2831">
        <ele>1168</ele>
        <time>2023-04-21T14:30:22.000Z</time>
      </trkpt>
      <trkpt lat="44.505" lon="6.28314">
        <ele>1170</ele>
        <time>2023-04-21T14:30:23.000Z</time>
      </trkpt>
      <trkpt lat="44.50509" lon="6.28315">
        <ele>1169</ele>
        <time>2023-04-21T14:30:24.000Z</time>
      </trkpt>
      <trkpt lat="44.50518" lon="6.28316">
        <ele>1169</ele>
        <time>2023-04-21T14:30:25.000Z</time>
      </trkpt>
      <trkpt lat="44.50527" lon="6.28316">
        <ele>1167</ele>
        <time>2023-04-21T14:30:26.000Z</time>
      </trkpt>
      <trkpt lat="44.50535" lon="6.28318">
        <ele>1167</ele>
        <time>2023-04-21T14:30:27.000Z</time>
      </trkpt>
      <trkpt lat="44.50543" lon="6.28321">
        <ele>1168</ele>
        <time>2023-04-21T14:30:28.000Z</time>
      </trkpt>
      <trkpt lat="44.50551" lon="6.28324">
        <ele>1168</ele>
        <time>2023-04-21T14:30:29.000Z</time>
      </trkpt>
      <trkpt lat="44.50558" lon="6.28326">
        <ele>1166</ele>
        <time>2023-04-21T14:30:30.000Z</time>
      </trkpt>
      <trkpt lat="44.50567" lon="6.28325">
        <ele>1164</ele>
        <time>2023-04-21T14:30:31.000Z</time>
      </trkpt>
      <trkpt lat="44.50576" lon="6.28325">
        <ele>1163</ele>
        <time>2023-04-21T14:30:32.000Z</time>
      </trkpt>
      <trkpt lat="44.50585" lon="6.28325">
        <ele>1161</ele>
        <time>2023-04-21T14:30:33.000Z</time>
      </trkpt>
      <trkpt lat="44.50594" lon="6.28322">
        <ele>1157</ele>
        <time>2023-04-21T14:30:34.000Z</time>
      </trkpt>
      <trkpt lat="44.50602" lon="6.28319">
        <ele>1157</ele>
        <time>2023-04-21T14:30:35.000Z</time>
      </trkpt>
      <trkpt lat="44.50611" lon="6.28315">
        <ele>1156</ele>
        <time>2023-04-21T14:30:36.000Z</time>
      </trkpt>
      <trkpt lat="44.50619" lon="6.2831">
        <ele>1155</ele>
        <time>2023-04-21T14:30:37.000Z</time>
      </trkpt>
      <trkpt lat="44.50626" lon="6.28305">
        <ele>1152</ele>
        <time>2023-04-21T14:30:38.000Z</time>
      </trkpt>
      <trkpt lat="44.50633" lon="6.28299">
        <ele>1151</ele>
        <time>2023-04-21T14:30:39.000Z</time>
      </trkpt>
      <trkpt lat="44.5064" lon="6.28296">
        <ele>1150</ele>
        <time>2023-04-21T14:30:40.000Z</time>
      </trkpt>
      <trkpt lat="44.50646" lon="6.28295">
        <ele>1149</ele>
        <time>2023-04-21T14:30:41.000Z</time>
      </trkpt>
      <trkpt lat="44.50648" lon="6.28295">
        <ele>1146</ele>
        <time>2023-04-21T14:30:42.000Z</time>
      </trkpt>
      <trkpt lat="44.5065" lon="6.28299">
        <ele>1146</ele>
        <time>2023-04-21T14:30:43.000Z</time>
      </trkpt>
      <trkpt lat="44.50654" lon="6.28302">
        <ele>1146</ele>
        <time>2023-04-21T14:30:44.000Z</time>
      </trkpt>
      <trkpt lat="44.50656" lon="6.28303">
        <ele>1146</ele>
        <time>2023-04-21T14:30:45.000Z</time>
      </trkpt>
      <trkpt lat="44.50658" lon="6.28305">
        <ele>1146</ele>
        <time>2023-04-21T14:30:46.000Z</time>
      </trkpt>
      <trkpt lat="44.5066" lon="6.28307">
        <ele>1145</ele>
        <time>2023-04-21T14:30:47.000Z</time>
      </trkpt>
      <trkpt lat="44.50661" lon="6.2831">
        <ele>1144</ele>
        <time>2023-04-21T14:30:48.000Z</time>
      </trkpt>
      <trkpt lat="44.50664" lon="6.28313">
        <ele>1144</ele>
        <time>2023-04-21T14:30:49.000Z</time>
      </trkpt>
      <trkpt lat="44.50665" lon="6.28317">
        <ele>1145</ele>
        <time>2023-04-21T14:30:50.000Z</time>
      </trkpt>
      <trkpt lat="44.50667" lon="6.28322">
        <ele>1144</ele>
        <time>2023-04-21T14:30:51.000Z</time>
      </trkpt>
      <trkpt lat="44.50668" lon="6.28327">
        <ele>1143</ele>
        <time>2023-04-21T14:30:52.000Z</time>
      </trkpt>
      <trkpt lat="44.5067" lon="6.28332">
        <ele>1140</ele>
        <time>2023-04-21T14:30:53.000Z</time>
      </trkpt>
      <trkpt lat="44.50673" lon="6.28338">
        <ele>1141</ele>
        <time>2023-04-21T14:30:54.000Z</time>
      </trkpt>
      <trkpt lat="44.50677" lon="6.28345">
        <ele>1139</ele>
        <time>2023-04-21T14:30:55.000Z</time>
      </trkpt>
      <trkpt lat="44.50681" lon="6.28351">
        <ele>1138</ele>
        <time>2023-04-21T14:30:56.000Z</time>
      </trkpt>
      <trkpt lat="44.50684" lon="6.28355">
        <ele>1136</ele>
        <time>2023-04-21T14:30:57.000Z</time>
      </trkpt>
      <trkpt lat="44.50689" lon="6.28359">
        <ele>1136</ele>
        <time>2023-04-21T14:30:58.000Z</time>
      </trkpt>
      <trkpt lat="44.50693" lon="6.28363">
        <ele>1136</ele>
        <time>2023-04-21T14:30:59.000Z</time>
      </trkpt>
      <trkpt lat="44.50697" lon="6.28367">
        <ele>1136</ele>
        <time>2023-04-21T14:31:00.000Z</time>
      </trkpt>
      <trkpt lat="44.50701" lon="6.2837">
        <ele>1136</ele>
        <time>2023-04-21T14:31:01.000Z</time>
      </trkpt>
      <trkpt lat="44.50705" lon="6.28374">
        <ele>1136</ele>
        <time>2023-04-21T14:31:02.000Z</time>
      </trkpt>
      <trkpt lat="44.50709" lon="6.28378">
        <ele>1135</ele>
        <time>2023-04-21T14:31:03.000Z</time>
      </trkpt>
      <trkpt lat="44.5071" lon="6.28381">
        <ele>1134</ele>
        <time>2023-04-21T14:31:04.000Z</time>
      </trkpt>
      <trkpt lat="44.50712" lon="6.28383">
        <ele>1133</ele>
        <time>2023-04-21T14:31:05.000Z</time>
      </trkpt>
      <trkpt lat="44.50714" lon="6.28386">
        <ele>1132</ele>
        <time>2023-04-21T14:31:06.000Z</time>
      </trkpt>
      <trkpt lat="44.50716" lon="6.28389">
        <ele>1131</ele>
        <time>2023-04-21T14:31:07.000Z</time>
      </trkpt>
      <trkpt lat="44.50717" lon="6.28393">
        <ele>1131</ele>
        <time>2023-04-21T14:31:08.000Z</time>
      </trkpt>
      <trkpt lat="44.50718" lon="6.28398">
        <ele>1130</ele>
        <time>2023-04-21T14:31:09.000Z</time>
      </trkpt>
      <trkpt lat="44.50719" lon="6.28403">
        <ele>1128</ele>
        <time>2023-04-21T14:31:10.000Z</time>
      </trkpt>
      <trkpt lat="44.50715" lon="6.28404">
        <ele>1127</ele>
        <time>2023-04-21T14:31:11.000Z</time>
      </trkpt>
      <trkpt lat="44.50711" lon="6.28406">
        <ele>1129</ele>
        <time>2023-04-21T14:31:12.000Z</time>
      </trkpt>
      <trkpt lat="44.50709" lon="6.28404">
        <ele>1129</ele>
        <time>2023-04-21T14:31:13.000Z</time>
      </trkpt>
      <trkpt lat="44.50707" lon="6.28404">
        <ele>1128</ele>
        <time>2023-04-21T14:31:14.000Z</time>
      </trkpt>
      <trkpt lat="44.50705" lon="6.28402">
        <ele>1127</ele>
        <time>2023-04-21T14:31:15.000Z</time>
      </trkpt>
      <trkpt lat="44.50704" lon="6.28401">
        <ele>1127</ele>
        <time>2023-04-21T14:31:16.000Z</time>
      </trkpt>
      <trkpt lat="44.50701" lon="6.28399">
        <ele>1127</ele>
        <time>2023-04-21T14:31:17.000Z</time>
      </trkpt>
      <trkpt lat="44.50698" lon="6.28397">
        <ele>1128</ele>
        <time>2023-04-21T14:31:18.000Z</time>
      </trkpt>
      <trkpt lat="44.50695" lon="6.28396">
        <ele>1129</ele>
        <time>2023-04-21T14:31:19.000Z</time>
      </trkpt>
      <trkpt lat="44.50692" lon="6.28394">
        <ele>1129</ele>
        <time>2023-04-21T14:31:20.000Z</time>
      </trkpt>
      <trkpt lat="44.50689" lon="6.28392">
        <ele>1129</ele>
        <time>2023-04-21T14:31:21.000Z</time>
      </trkpt>
      <trkpt lat="44.50685" lon="6.2839">
        <ele>1129</ele>
        <time>2023-04-21T14:31:22.000Z</time>
      </trkpt>
      <trkpt lat="44.50682" lon="6.28388">
        <ele>1129</ele>
        <time>2023-04-21T14:31:23.000Z</time>
      </trkpt>
      <trkpt lat="44.50678" lon="6.28386">
        <ele>1129</ele>
        <time>2023-04-21T14:31:24.000Z</time>
      </trkpt>
      <trkpt lat="44.50674" lon="6.28384">
        <ele>1129</ele>
        <time>2023-04-21T14:31:25.000Z</time>
      </trkpt>
      <trkpt lat="44.5067" lon="6.28382">
        <ele>1128</ele>
        <time>2023-04-21T14:31:26.000Z</time>
      </trkpt>
      <trkpt lat="44.50666" lon="6.2838">
        <ele>1128</ele>
        <time>2023-04-21T14:31:27.000Z</time>
      </trkpt>
      <trkpt lat="44.50662" lon="6.28378">
        <ele>1128</ele>
        <time>2023-04-21T14:31:28.000Z</time>
      </trkpt>
      <trkpt lat="44.50657" lon="6.28376">
        <ele>1127</ele>
        <time>2023-04-21T14:31:29.000Z</time>
      </trkpt>
      <trkpt lat="44.50652" lon="6.28374">
        <ele>1127</ele>
        <time>2023-04-21T14:31:30.000Z</time>
      </trkpt>
      <trkpt lat="44.50648" lon="6.28373">
        <ele>1127</ele>
        <time>2023-04-21T14:31:31.000Z</time>
      </trkpt>
      <trkpt lat="44.50643" lon="6.28373">
        <ele>1127</ele>
        <time>2023-04-21T14:31:32.000Z</time>
      </trkpt>
      <trkpt lat="44.50639" lon="6.28372">
        <ele>1127</ele>
        <time>2023-04-21T14:31:33.000Z</time>
      </trkpt>
      <trkpt lat="44.50635" lon="6.28372">
        <ele>1126</ele>
        <time>2023-04-21T14:31:34.000Z</time>
      </trkpt>
      <trkpt lat="44.50631" lon="6.28372">
        <ele>1126</ele>
        <time>2023-04-21T14:31:35.000Z</time>
      </trkpt>
      <trkpt lat="44.50628" lon="6.28372">
        <ele>1126</ele>
        <time>2023-04-21T14:31:36.000Z</time>
      </trkpt>
      <trkpt lat="44.50624" lon="6.28372">
        <ele>1126</ele>
        <time>2023-04-21T14:31:37.000Z</time>
      </trkpt>
      <trkpt lat="44.50621" lon="6.28372">
        <ele>1125</ele>
        <time>2023-04-21T14:31:38.000Z</time>
      </trkpt>
      <trkpt lat="44.50617" lon="6.28372">
        <ele>1125</ele>
        <time>2023-04-21T14:31:39.000Z</time>
      </trkpt>
      <trkpt lat="44.50614" lon="6.28372">
        <ele>1125</ele>
        <time>2023-04-21T14:31:40.000Z</time>
      </trkpt>
      <trkpt lat="44.5061" lon="6.28372">
        <ele>1125</ele>
        <time>2023-04-21T14:31:41.000Z</time>
      </trkpt>
      <trkpt lat="44.50607" lon="6.28373">
        <ele>1125</ele>
        <time>2023-04-21T14:31:42.000Z</time>
      </trkpt>
      <trkpt lat="44.50604" lon="6.28373">
        <ele>1124</ele>
        <time>2023-04-21T14:31:43.000Z</time>
      </trkpt>
      <trkpt lat="44.506" lon="6.28375">
        <ele>1124</ele>
        <time>2023-04-21T14:31:44.000Z</time>
      </trkpt>
      <trkpt lat="44.50597" lon="6.28376">
        <ele>1124</ele>
        <time>2023-04-21T14:31:45.000Z</time>
      </trkpt>
      <trkpt lat="44.50594" lon="6.28377">
        <ele>1124</ele>
        <time>2023-04-21T14:31:46.000Z</time>
      </trkpt>
      <trkpt lat="44.50591" lon="6.28378">
        <ele>1123</ele>
        <time>2023-04-21T14:31:47.000Z</time>
      </trkpt>
      <trkpt lat="44.50589" lon="6.28378">
        <ele>1123</ele>
        <time>2023-04-21T14:31:48.000Z</time>
      </trkpt>
      <trkpt lat="44.50589" lon="6.28378">
        <ele>1123</ele>
        <time>2023-04-21T14:31:49.000Z</time>
      </trkpt>
      <trkpt lat="44.50589" lon="6.28379">
        <ele>1122</ele>
        <time>2023-04-21T14:31:50.000Z</time>
      </trkpt>
      <trkpt lat="44.50589" lon="6.28379">
        <ele>1122</ele>
        <time>2023-04-21T14:31:51.000Z</time>
      </trkpt>
      <trkpt lat="44.50589" lon="6.28379">
        <ele>1122</ele>
        <time>2023-04-21T14:31:52.000Z</time>
      </trkpt>
      <trkpt lat="44.50589" lon="6.28379">
        <ele>1122</ele>
        <time>2023-04-21T14:31:53.000Z</time>
      </trkpt>
      <trkpt lat="44.5059" lon="6.28379">
        <ele>1122</ele>
        <time>2023-04-21T14:31:54.000Z</time>
      </trkpt>
      <trkpt lat="44.5059" lon="6.28379">
        <ele>1122</ele>
        <time>2023-04-21T14:31:55.000Z</time>
      </trkpt>
      <trkpt lat="44.5059" lon="6.28379">
        <ele>1122</ele>
        <time>2023-04-21T14:31:56.000Z</time>
      </trkpt>
      <trkpt lat="44.5059" lon="6.28379">
        <ele>1122</ele>
        <time>2023-04-21T14:31:57.000Z</time>
      </trkpt>
      <trkpt lat="44.5059" lon="6.28379">
        <ele>1122</ele>
        <time>2023-04-21T14:31:58.000Z</time>
      </trkpt>
      <trkpt lat="44.5059" lon="6.28379">
        <ele>1122</ele>
        <time>2023-04-21T14:31:59.000Z</time>
      </trkpt>
      <trkpt lat="44.5059" lon="6.28379">
        <ele>1122</ele>
        <time>2023-04-21T14:32:00.000Z</time>
      </trkpt>
      <trkpt lat="44.5059" lon="6.28379">
        <ele>1122</ele>
        <time>2023-04-21T14:32:01.000Z</time>
      </trkpt>
      <trkpt lat="44.5059" lon="6.28379">
        <ele>1122</ele>
        <time>2023-04-21T14:32:02.000Z</time>
      </trkpt>
      <trkpt lat="44.5059" lon="6.28379">
        <ele>1122</ele>
        <time>2023-04-21T14:32:03.000Z</time>
      </trkpt>
      <trkpt lat="44.5059" lon="6.28379">
        <ele>1122</ele>
        <time>2023-04-21T14:32:04.000Z</time>
      </trkpt>
      <trkpt lat="44.5059" lon="6.28379">
        <ele>1122</ele>
        <time>2023-04-21T14:32:05.000Z</time>
      </trkpt>
      <trkpt lat="44.5059" lon="6.28379">
        <ele>1122</ele>
        <time>2023-04-21T14:32:06.000Z</time>
      </trkpt>
      <trkpt lat="44.5059" lon="6.28379">
        <ele>1122</ele>
        <time>2023-04-21T14:32:07.000Z</time>
      </trkpt>
      <trkpt lat="44.5059" lon="6.28379">
        <ele>1122</ele>
        <time>2023-04-21T14:32:08.000Z</time>
      </trkpt>
      <trkpt lat="44.5059" lon="6.2838">
        <ele>1122</ele>
        <time>2023-04-21T14:32:09.000Z</time>
      </trkpt>
      <trkpt lat="44.5059" lon="6.2838">
        <ele>1122</ele>
        <time>2023-04-21T14:32:10.000Z</time>
      </trkpt>
      <trkpt lat="44.5059" lon="6.2838">
        <ele>1121</ele>
        <time>2023-04-21T14:32:11.000Z</time>
      </trkpt>
      <trkpt lat="44.5059" lon="6.28379">
        <ele>1121</ele>
        <time>2023-04-21T14:32:12.000Z</time>
      </trkpt>
      <trkpt lat="44.5059" lon="6.28379">
        <ele>1121</ele>
        <time>2023-04-21T14:32:13.000Z</time>
      </trkpt>
      <trkpt lat="44.5059" lon="6.28379">
        <ele>1121</ele>
        <time>2023-04-21T14:32:14.000Z</time>
      </trkpt>
      <trkpt lat="44.5059" lon="6.28379">
        <ele>1121</ele>
        <time>2023-04-21T14:32:15.000Z</time>
      </trkpt>
      <trkpt lat="44.5059" lon="6.28379">
        <ele>1121</ele>
        <time>2023-04-21T14:32:16.000Z</time>
      </trkpt>
      <trkpt lat="44.5059" lon="6.28379">
        <ele>1121</ele>
        <time>2023-04-21T14:32:17.000Z</time>
      </trkpt>
      <trkpt lat="44.5059" lon="6.28379">
        <ele>1121</ele>
        <time>2023-04-21T14:32:18.000Z</time>
      </trkpt>
      <trkpt lat="44.5059" lon="6.28379">
        <ele>1121</ele>
        <time>2023-04-21T14:32:19.000Z</time>
      </trkpt>
      <trkpt lat="44.5059" lon="6.28379">
        <ele>1121</ele>
        <time>2023-04-21T14:32:20.000Z</time>
      </trkpt>
      <trkpt lat="44.5059" lon="6.28379">
        <ele>1121</ele>
        <time>2023-04-21T14:32:21.000Z</time>
      </trkpt>
      <trkpt lat="44.5059" lon="6.28379">
        <ele>1121</ele>
        <time>2023-04-21T14:32:22.000Z</time>
      </trkpt>
      <trkpt lat="44.5059" lon="6.28379">
        <ele>1121</ele>
        <time>2023-04-21T14:32:23.000Z</time>
      </trkpt>
      <trkpt lat="44.5059" lon="6.28379">
        <ele>1121</ele>
        <time>2023-04-21T14:32:24.000Z</time>
      </trkpt>
      <trkpt lat="44.5059" lon="6.28379">
        <ele>1121</ele>
        <time>2023-04-21T14:32:25.000Z</time>
      </trkpt>
      <trkpt lat="44.5059" lon="6.28379">
        <ele>1121</ele>
        <time>2023-04-21T14:32:26.000Z</time>
      </trkpt>
      <trkpt lat="44.5059" lon="6.28379">
        <ele>1121</ele>
        <time>2023-04-21T14:32:27.000Z</time>
      </trkpt>
      <trkpt lat="44.5059" lon="6.28379">
        <ele>1120</ele>
        <time>2023-04-21T14:32:28.000Z</time>
      </trkpt>
      <trkpt lat="44.5059" lon="6.28379">
        <ele>1120</ele>
        <time>2023-04-21T14:32:29.000Z</time>
      </trkpt>
      <trkpt lat="44.5059" lon="6.28379">
        <ele>1120</ele>
        <time>2023-04-21T14:32:30.000Z</time>
      </trkpt>
      <trkpt lat="44.5059" lon="6.28379">
        <ele>1120</ele>
        <time>2023-04-21T14:32:31.000Z</time>
      </trkpt>
      <trkpt lat="44.5059" lon="6.28379">
        <ele>1120</ele>
        <time>2023-04-21T14:32:32.000Z</time>
      </trkpt>
      <trkpt lat="44.5059" lon="6.28379">
        <ele>1120</ele>
        <time>2023-04-21T14:32:33.000Z</time>
      </trkpt>
      <trkpt lat="44.5059" lon="6.28379">
        <ele>1120</ele>
        <time>2023-04-21T14:32:34.000Z</time>
      </trkpt>
      <trkpt lat="44.5059" lon="6.28379">
        <ele>1120</ele>
        <time>2023-04-21T14:32:35.000Z</time>
      </trkpt>
      <trkpt lat="44.5059" lon="6.28379">
        <ele>1120</ele>
        <time>2023-04-21T14:32:36.000Z</time>
      </trkpt>
      <trkpt lat="44.5059" lon="6.28379">
        <ele>1120</ele>
        <time>2023-04-21T14:32:37.000Z</time>
      </trkpt>
      <trkpt lat="44.5059" lon="6.28379">
        <ele>1120</ele>
        <time>2023-04-21T14:32:38.000Z</time>
      </trkpt>
      <trkpt lat="44.5059" lon="6.28379">
        <ele>1120</ele>
        <time>2023-04-21T14:32:39.000Z</time>
      </trkpt>
      <trkpt lat="44.50589" lon="6.28379">
        <ele>1120</ele>
        <time>2023-04-21T14:32:40.000Z</time>
      </trkpt>
      <trkpt lat="44.50588" lon="6.2838">
        <ele>1120</ele>
        <time>2023-04-21T14:32:41.000Z</time>
      </trkpt>
      <trkpt lat="44.50586" lon="6.2838">
        <ele>1120</ele>
        <time>2023-04-21T14:32:42.000Z</time>
      </trkpt>
      <trkpt lat="44.50584" lon="6.2838">
        <ele>1120</ele>
        <time>2023-04-21T14:32:43.000Z</time>
      </trkpt>
      <trkpt lat="44.50582" lon="6.28379">
        <ele>1120</ele>
        <time>2023-04-21T14:32:44.000Z</time>
      </trkpt>
      <trkpt lat="44.5058" lon="6.28379">
        <ele>1120</ele>
        <time>2023-04-21T14:32:45.000Z</time>
      </trkpt>
      <trkpt lat="44.50579" lon="6.2838">
        <ele>1120</ele>
        <time>2023-04-21T14:32:46.000Z</time>
      </trkpt>
      <trkpt lat="44.50577" lon="6.2838">
        <ele>1120</ele>
        <time>2023-04-21T14:32:47.000Z</time>
      </trkpt>
      <trkpt lat="44.50575" lon="6.2838">
        <ele>1120</ele>
        <time>2023-04-21T14:32:48.000Z</time>
      </trkpt>
      <trkpt lat="44.50573" lon="6.28381">
        <ele>1120</ele>
        <time>2023-04-21T14:32:49.000Z</time>
      </trkpt>
      <trkpt lat="44.50572" lon="6.28383">
        <ele>1119</ele>
        <time>2023-04-21T14:32:50.000Z</time>
      </trkpt>
      <trkpt lat="44.5057" lon="6.28385">
        <ele>1119</ele>
        <time>2023-04-21T14:32:51.000Z</time>
      </trkpt>
      <trkpt lat="44.50569" lon="6.28387">
        <ele>1119</ele>
        <time>2023-04-21T14:32:52.000Z</time>
      </trkpt>
      <trkpt lat="44.50568" lon="6.28388">
        <ele>1119</ele>
        <time>2023-04-21T14:32:53.000Z</time>
      </trkpt>
      <trkpt lat="44.50566" lon="6.28387">
        <ele>1118</ele>
        <time>2023-04-21T14:32:54.000Z</time>
      </trkpt>
      <trkpt lat="44.50566" lon="6.28385">
        <ele>1119</ele>
        <time>2023-04-21T14:32:55.000Z</time>
      </trkpt>
      <trkpt lat="44.50566" lon="6.28383">
        <ele>1119</ele>
        <time>2023-04-21T14:32:56.000Z</time>
      </trkpt>
      <trkpt lat="44.50568" lon="6.28382">
        <ele>1120</ele>
        <time>2023-04-21T14:32:57.000Z</time>
      </trkpt>
      <trkpt lat="44.50569" lon="6.28382">
        <ele>1119</ele>
        <time>2023-04-21T14:32:58.000Z</time>
      </trkpt>
      <trkpt lat="44.50571" lon="6.28381">
        <ele>1119</ele>
        <time>2023-04-21T14:32:59.000Z</time>
      </trkpt>
      <trkpt lat="44.50573" lon="6.28381">
        <ele>1119</ele>
        <time>2023-04-21T14:33:00.000Z</time>
      </trkpt>
      <trkpt lat="44.50574" lon="6.2838">
        <ele>1119</ele>
        <time>2023-04-21T14:33:01.000Z</time>
      </trkpt>
      <trkpt lat="44.50576" lon="6.2838">
        <ele>1119</ele>
        <time>2023-04-21T14:33:02.000Z</time>
      </trkpt>
      <trkpt lat="44.50578" lon="6.2838">
        <ele>1119</ele>
        <time>2023-04-21T14:33:03.000Z</time>
      </trkpt>
      <trkpt lat="44.50579" lon="6.28379">
        <ele>1118</ele>
        <time>2023-04-21T14:33:04.000Z</time>
      </trkpt>
      <trkpt lat="44.50582" lon="6.28379">
        <ele>1118</ele>
        <time>2023-04-21T14:33:05.000Z</time>
      </trkpt>
      <trkpt lat="44.50584" lon="6.28379">
        <ele>1119</ele>
        <time>2023-04-21T14:33:06.000Z</time>
      </trkpt>
      <trkpt lat="44.50585" lon="6.2838">
        <ele>1119</ele>
        <time>2023-04-21T14:33:07.000Z</time>
      </trkpt>
      <trkpt lat="44.50586" lon="6.2838">
        <ele>1119</ele>
        <time>2023-04-21T14:33:08.000Z</time>
      </trkpt>
      <trkpt lat="44.50587" lon="6.2838">
        <ele>1119</ele>
        <time>2023-04-21T14:33:09.000Z</time>
      </trkpt>
      <trkpt lat="44.50586" lon="6.2838">
        <ele>1119</ele>
        <time>2023-04-21T14:33:10.000Z</time>
      </trkpt>
      <trkpt lat="44.50586" lon="6.28379">
        <ele>1119</ele>
        <time>2023-04-21T14:33:11.000Z</time>
      </trkpt>
      <trkpt lat="44.50586" lon="6.28379">
        <ele>1119</ele>
        <time>2023-04-21T14:33:12.000Z</time>
      </trkpt>
      <trkpt lat="44.50586" lon="6.28379">
        <ele>1119</ele>
        <time>2023-04-21T14:33:13.000Z</time>
      </trkpt>
      <trkpt lat="44.50586" lon="6.28379">
        <ele>1119</ele>
        <time>2023-04-21T14:33:14.000Z</time>
      </trkpt>
      <trkpt lat="44.50586" lon="6.28379">
        <ele>1119</ele>
        <time>2023-04-21T14:33:15.000Z</time>
      </trkpt>
      <trkpt lat="44.50586" lon="6.28379">
        <ele>1119</ele>
        <time>2023-04-21T14:33:16.000Z</time>
      </trkpt>
      <trkpt lat="44.50586" lon="6.28379">
        <ele>1119</ele>
        <time>2023-04-21T14:33:17.000Z</time>
      </trkpt>
      <trkpt lat="44.50586" lon="6.28379">
        <ele>1119</ele>
        <time>2023-04-21T14:33:18.000Z</time>
      </trkpt>
      <trkpt lat="44.50586" lon="6.28379">
        <ele>1119</ele>
        <time>2023-04-21T14:33:19.000Z</time>
      </trkpt>
      <trkpt lat="44.50586" lon="6.28379">
        <ele>1119</ele>
        <time>2023-04-21T14:33:20.000Z</time>
      </trkpt>
      <trkpt lat="44.50586" lon="6.28379">
        <ele>1119</ele>
        <time>2023-04-21T14:33:21.000Z</time>
      </trkpt>
      <trkpt lat="44.50586" lon="6.28379">
        <ele>1120</ele>
        <time>2023-04-21T14:33:22.000Z</time>
      </trkpt>
      <trkpt lat="44.50586" lon="6.2838">
        <ele>1120</ele>
        <time>2023-04-21T14:33:23.000Z</time>
      </trkpt>
      <trkpt lat="44.50586" lon="6.2838">
        <ele>1120</ele>
        <time>2023-04-21T14:33:24.000Z</time>
      </trkpt>
      <trkpt lat="44.50586" lon="6.2838">
        <ele>1119</ele>
        <time>2023-04-21T14:33:25.000Z</time>
      </trkpt>
      <trkpt lat="44.50586" lon="6.2838">
        <ele>1119</ele>
        <time>2023-04-21T14:33:26.000Z</time>
      </trkpt>
      <trkpt lat="44.50586" lon="6.2838">
        <ele>1119</ele>
        <time>2023-04-21T14:33:27.000Z</time>
      </trkpt>
      <trkpt lat="44.50586" lon="6.2838">
        <ele>1119</ele>
        <time>2023-04-21T14:33:28.000Z</time>
      </trkpt>
      <trkpt lat="44.50586" lon="6.2838">
        <ele>1119</ele>
        <time>2023-04-21T14:33:29.000Z</time>
      </trkpt>
      <trkpt lat="44.50586" lon="6.2838">
        <ele>1119</ele>
        <time>2023-04-21T14:33:30.000Z</time>
      </trkpt>
      <trkpt lat="44.50586" lon="6.2838">
        <ele>1119</ele>
        <time>2023-04-21T14:33:31.000Z</time>
      </trkpt>
      <trkpt lat="44.50587" lon="6.28379">
        <ele>1119</ele>
        <time>2023-04-21T14:33:32.000Z</time>
      </trkpt>
      <trkpt lat="44.50587" lon="6.28379">
        <ele>1119</ele>
        <time>2023-04-21T14:33:33.000Z</time>
      </trkpt>
      <trkpt lat="44.50587" lon="6.28379">
        <ele>1119</ele>
        <time>2023-04-21T14:33:34.000Z</time>
      </trkpt>
      <trkpt lat="44.50587" lon="6.28379">
        <ele>1119</ele>
        <time>2023-04-21T14:33:35.000Z</time>
      </trkpt>
      <trkpt lat="44.50587" lon="6.28378">
        <ele>1119</ele>
        <time>2023-04-21T14:33:36.000Z</time>
      </trkpt>
      <trkpt lat="44.50587" lon="6.28378">
        <ele>1118</ele>
        <time>2023-04-21T14:33:37.000Z</time>
      </trkpt>
      <trkpt lat="44.50587" lon="6.28378">
        <ele>1118</ele>
        <time>2023-04-21T14:33:38.000Z</time>
      </trkpt>
      <trkpt lat="44.50587" lon="6.28378">
        <ele>1118</ele>
        <time>2023-04-21T14:33:39.000Z</time>
      </trkpt>
      <trkpt lat="44.50587" lon="6.28378">
        <ele>1118</ele>
        <time>2023-04-21T14:33:40.000Z</time>
      </trkpt>
      <trkpt lat="44.50587" lon="6.28378">
        <ele>1118</ele>
        <time>2023-04-21T14:33:41.000Z</time>
      </trkpt>
      <trkpt lat="44.50587" lon="6.28378">
        <ele>1117</ele>
        <time>2023-04-21T14:33:42.000Z</time>
      </trkpt>
      <trkpt lat="44.50587" lon="6.28378">
        <ele>1117</ele>
        <time>2023-04-21T14:33:43.000Z</time>
      </trkpt>
      <trkpt lat="44.50587" lon="6.28378">
        <ele>1117</ele>
        <time>2023-04-21T14:33:44.000Z</time>
      </trkpt>
      <trkpt lat="44.50587" lon="6.28378">
        <ele>1117</ele>
        <time>2023-04-21T14:33:45.000Z</time>
      </trkpt>
      <trkpt lat="44.50587" lon="6.28377">
        <ele>1117</ele>
        <time>2023-04-21T14:33:46.000Z</time>
      </trkpt>
      <trkpt lat="44.50587" lon="6.28377">
        <ele>1117</ele>
        <time>2023-04-21T14:33:47.000Z</time>
      </trkpt>
      <trkpt lat="44.50587" lon="6.28377">
        <ele>1116</ele>
        <time>2023-04-21T14:33:48.000Z</time>
      </trkpt>
      <trkpt lat="44.50587" lon="6.28377">
        <ele>1116</ele>
        <time>2023-04-21T14:33:49.000Z</time>
      </trkpt>
      <trkpt lat="44.50587" lon="6.28377">
        <ele>1116</ele>
        <time>2023-04-21T14:33:50.000Z</time>
      </trkpt>
      <trkpt lat="44.50587" lon="6.28377">
        <ele>1116</ele>
        <time>2023-04-21T14:33:51.000Z</time>
      </trkpt>
      <trkpt lat="44.50587" lon="6.28377">
        <ele>1116</ele>
        <time>2023-04-21T14:33:52.000Z</time>
      </trkpt>
      <trkpt lat="44.50587" lon="6.28377">
        <ele>1116</ele>
        <time>2023-04-21T14:33:53.000Z</time>
      </trkpt>
      <trkpt lat="44.50586" lon="6.28377">
        <ele>1116</ele>
        <time>2023-04-21T14:33:54.000Z</time>
      </trkpt>
      <trkpt lat="44.50586" lon="6.28377">
        <ele>1116</ele>
        <time>2023-04-21T14:33:55.000Z</time>
      </trkpt>
      <trkpt lat="44.50586" lon="6.28377">
        <ele>1116</ele>
        <time>2023-04-21T14:33:56.000Z</time>
      </trkpt>
      <trkpt lat="44.50586" lon="6.28376">
        <ele>1115</ele>
        <time>2023-04-21T14:33:57.000Z</time>
      </trkpt>
      <trkpt lat="44.50586" lon="6.28376">
        <ele>1115</ele>
        <time>2023-04-21T14:33:58.000Z</time>
      </trkpt>
      <trkpt lat="44.50586" lon="6.28376">
        <ele>1115</ele>
        <time>2023-04-21T14:33:59.000Z</time>
      </trkpt>
      <trkpt lat="44.50586" lon="6.28376">
        <ele>1115</ele>
        <time>2023-04-21T14:34:00.000Z</time>
      </trkpt>
      <trkpt lat="44.50586" lon="6.28376">
        <ele>1115</ele>
        <time>2023-04-21T14:34:01.000Z</time>
      </trkpt>
      <trkpt lat="44.50586" lon="6.28376">
        <ele>1115</ele>
        <time>2023-04-21T14:34:02.000Z</time>
      </trkpt>
      <trkpt lat="44.50586" lon="6.28376">
        <ele>1115</ele>
        <time>2023-04-21T14:34:03.000Z</time>
      </trkpt>
      <trkpt lat="44.50586" lon="6.28376">
        <ele>1115</ele>
        <time>2023-04-21T14:34:04.000Z</time>
      </trkpt>
      <trkpt lat="44.50586" lon="6.28376">
        <ele>1115</ele>
        <time>2023-04-21T14:34:05.000Z</time>
      </trkpt>
      <trkpt lat="44.50586" lon="6.28375">
        <ele>1115</ele>
        <time>2023-04-21T14:34:06.000Z</time>
      </trkpt>
      <trkpt lat="44.50586" lon="6.28375">
        <ele>1115</ele>
        <time>2023-04-21T14:34:07.000Z</time>
      </trkpt>
      <trkpt lat="44.50586" lon="6.28375">
        <ele>1115</ele>
        <time>2023-04-21T14:34:08.000Z</time>
      </trkpt>
      <trkpt lat="44.50586" lon="6.28375">
        <ele>1115</ele>
        <time>2023-04-21T14:34:09.000Z</time>
      </trkpt>
      <trkpt lat="44.50586" lon="6.28375">
        <ele>1115</ele>
        <time>2023-04-21T14:34:10.000Z</time>
      </trkpt>
      <trkpt lat="44.50586" lon="6.28375">
        <ele>1115</ele>
        <time>2023-04-21T14:34:11.000Z</time>
      </trkpt>
      <trkpt lat="44.50586" lon="6.28375">
        <ele>1115</ele>
        <time>2023-04-21T14:34:12.000Z</time>
      </trkpt>
      <trkpt lat="44.50586" lon="6.28375">
        <ele>1116</ele>
        <time>2023-04-21T14:34:13.000Z</time>
      </trkpt>
      <trkpt lat="44.50586" lon="6.28375">
        <ele>1116</ele>
        <time>2023-04-21T14:34:14.000Z</time>
      </trkpt>
      <trkpt lat="44.50586" lon="6.28375">
        <ele>1116</ele>
        <time>2023-04-21T14:34:15.000Z</time>
      </trkpt>
      <trkpt lat="44.50586" lon="6.28375">
        <ele>1116</ele>
        <time>2023-04-21T14:34:16.000Z</time>
      </trkpt>
      <trkpt lat="44.50586" lon="6.28375">
        <ele>1116</ele>
        <time>2023-04-21T14:34:17.000Z</time>
      </trkpt>
      <trkpt lat="44.50586" lon="6.28375">
        <ele>1117</ele>
        <time>2023-04-21T14:34:18.000Z</time>
      </trkpt>
      <trkpt lat="44.50586" lon="6.28375">
        <ele>1117</ele>
        <time>2023-04-21T14:34:19.000Z</time>
      </trkpt>
      <trkpt lat="44.50586" lon="6.28375">
        <ele>1117</ele>
        <time>2023-04-21T14:34:20.000Z</time>
      </trkpt>
      <trkpt lat="44.50586" lon="6.28375">
        <ele>1117</ele>
        <time>2023-04-21T14:34:21.000Z</time>
      </trkpt>
      <trkpt lat="44.50586" lon="6.28375">
        <ele>1118</ele>
        <time>2023-04-21T14:34:22.000Z</time>
      </trkpt>
      <trkpt lat="44.50586" lon="6.28375">
        <ele>1118</ele>
        <time>2023-04-21T14:34:23.000Z</time>
      </trkpt>
      <trkpt lat="44.50586" lon="6.28375">
        <ele>1119</ele>
        <time>2023-04-21T14:34:24.000Z</time>
      </trkpt>
      <trkpt lat="44.50586" lon="6.28375">
        <ele>1119</ele>
        <time>2023-04-21T14:34:25.000Z</time>
      </trkpt>
      <trkpt lat="44.50586" lon="6.28375">
        <ele>1119</ele>
        <time>2023-04-21T14:34:26.000Z</time>
      </trkpt>
      <trkpt lat="44.50586" lon="6.28375">
        <ele>1120</ele>
        <time>2023-04-21T14:34:27.000Z</time>
      </trkpt>
      <trkpt lat="44.50586" lon="6.28375">
        <ele>1120</ele>
        <time>2023-04-21T14:34:28.000Z</time>
      </trkpt>
      <trkpt lat="44.50586" lon="6.28375">
        <ele>1121</ele>
        <time>2023-04-21T14:34:29.000Z</time>
      </trkpt>
      <trkpt lat="44.50586" lon="6.28375">
        <ele>1121</ele>
        <time>2023-04-21T14:34:30.000Z</time>
      </trkpt>
      <trkpt lat="44.50586" lon="6.28375">
        <ele>1121</ele>
        <time>2023-04-21T14:34:31.000Z</time>
      </trkpt>
      <trkpt lat="44.50586" lon="6.28375">
        <ele>1122</ele>
        <time>2023-04-21T14:34:32.000Z</time>
      </trkpt>
      <trkpt lat="44.50586" lon="6.28375">
        <ele>1122</ele>
        <time>2023-04-21T14:34:33.000Z</time>
      </trkpt>
      <trkpt lat="44.50586" lon="6.28375">
        <ele>1122</ele>
        <time>2023-04-21T14:34:34.000Z</time>
      </trkpt>
      <trkpt lat="44.50586" lon="6.28375">
        <ele>1123</ele>
        <time>2023-04-21T14:34:35.000Z</time>
      </trkpt>
      <trkpt lat="44.50586" lon="6.28375">
        <ele>1123</ele>
        <time>2023-04-21T14:34:36.000Z</time>
      </trkpt>
      <trkpt lat="44.50586" lon="6.28375">
        <ele>1123</ele>
        <time>2023-04-21T14:34:37.000Z</time>
      </trkpt>
      <trkpt lat="44.50586" lon="6.28375">
        <ele>1123</ele>
        <time>2023-04-21T14:34:38.000Z</time>
      </trkpt>
      <trkpt lat="44.50586" lon="6.28375">
        <ele>1123</ele>
        <time>2023-04-21T14:34:39.000Z</time>
      </trkpt>
      <trkpt lat="44.50586" lon="6.28375">
        <ele>1124</ele>
        <time>2023-04-21T14:34:40.000Z</time>
      </trkpt>
      <trkpt lat="44.50586" lon="6.28375">
        <ele>1124</ele>
        <time>2023-04-21T14:34:41.000Z</time>
      </trkpt>
      <trkpt lat="44.50586" lon="6.28375">
        <ele>1124</ele>
        <time>2023-04-21T14:34:42.000Z</time>
      </trkpt>
      <trkpt lat="44.50586" lon="6.28375">
        <ele>1124</ele>
        <time>2023-04-21T14:34:43.000Z</time>
      </trkpt>
      <trkpt lat="44.50586" lon="6.28375">
        <ele>1124</ele>
        <time>2023-04-21T14:34:44.000Z</time>
      </trkpt>
      <trkpt lat="44.50586" lon="6.28375">
        <ele>1124</ele>
        <time>2023-04-21T14:34:45.000Z</time>
      </trkpt>
      <trkpt lat="44.50586" lon="6.28375">
        <ele>1124</ele>
        <time>2023-04-21T14:34:46.000Z</time>
      </trkpt>
      <trkpt lat="44.50586" lon="6.28375">
        <ele>1124</ele>
        <time>2023-04-21T14:34:47.000Z</time>
      </trkpt>
      <trkpt lat="44.50586" lon="6.28375">
        <ele>1124</ele>
        <time>2023-04-21T14:34:48.000Z</time>
      </trkpt>
      <trkpt lat="44.50586" lon="6.28376">
        <ele>1124</ele>
        <time>2023-04-21T14:34:49.000Z</time>
      </trkpt>
      <trkpt lat="44.50586" lon="6.28376">
        <ele>1123</ele>
        <time>2023-04-21T14:34:50.000Z</time>
      </trkpt>
      <trkpt lat="44.50586" lon="6.28376">
        <ele>1123</ele>
        <time>2023-04-21T14:34:51.000Z</time>
      </trkpt>
      <trkpt lat="44.50586" lon="6.28376">
        <ele>1123</ele>
        <time>2023-04-21T14:34:52.000Z</time>
      </trkpt>
      <trkpt lat="44.50586" lon="6.28376">
        <ele>1123</ele>
        <time>2023-04-21T14:34:53.000Z</time>
      </trkpt>
      <trkpt lat="44.50586" lon="6.28376">
        <ele>1123</ele>
        <time>2023-04-21T14:34:54.000Z</time>
      </trkpt>
      <trkpt lat="44.50586" lon="6.28376">
        <ele>1123</ele>
        <time>2023-04-21T14:34:55.000Z</time>
      </trkpt>
      <trkpt lat="44.50586" lon="6.28376">
        <ele>1123</ele>
        <time>2023-04-21T14:34:56.000Z</time>
      </trkpt>
      <trkpt lat="44.50586" lon="6.28376">
        <ele>1123</ele>
        <time>2023-04-21T14:34:57.000Z</time>
      </trkpt>
      <trkpt lat="44.50586" lon="6.28376">
        <ele>1123</ele>
        <time>2023-04-21T14:34:58.000Z</time>
      </trkpt>
      <trkpt lat="44.50586" lon="6.28377">
        <ele>1123</ele>
        <time>2023-04-21T14:34:59.000Z</time>
      </trkpt>
      <trkpt lat="44.50586" lon="6.28377">
        <ele>1122</ele>
        <time>2023-04-21T14:35:00.000Z</time>
      </trkpt>
      <trkpt lat="44.50586" lon="6.28377">
        <ele>1122</ele>
        <time>2023-04-21T14:35:01.000Z</time>
      </trkpt>
      <trkpt lat="44.50586" lon="6.28377">
        <ele>1122</ele>
        <time>2023-04-21T14:35:02.000Z</time>
      </trkpt>
      <trkpt lat="44.50586" lon="6.28377">
        <ele>1122</ele>
        <time>2023-04-21T14:35:03.000Z</time>
      </trkpt>
      <trkpt lat="44.50586" lon="6.28377">
        <ele>1122</ele>
        <time>2023-04-21T14:35:04.000Z</time>
      </trkpt>
      <trkpt lat="44.50586" lon="6.28377">
        <ele>1122</ele>
        <time>2023-04-21T14:35:05.000Z</time>
      </trkpt>
      <trkpt lat="44.50586" lon="6.28377">
        <ele>1122</ele>
        <time>2023-04-21T14:35:06.000Z</time>
      </trkpt>
      <trkpt lat="44.50586" lon="6.28377">
        <ele>1121</ele>
        <time>2023-04-21T14:35:07.000Z</time>
      </trkpt>
      <trkpt lat="44.50586" lon="6.28377">
        <ele>1121</ele>
        <time>2023-04-21T14:35:08.000Z</time>
      </trkpt>
      <trkpt lat="44.50586" lon="6.28377">
        <ele>1121</ele>
        <time>2023-04-21T14:35:09.000Z</time>
      </trkpt>
      <trkpt lat="44.50586" lon="6.28377">
        <ele>1121</ele>
        <time>2023-04-21T14:35:10.000Z</time>
      </trkpt>
      <trkpt lat="44.50586" lon="6.28377">
        <ele>1121</ele>
        <time>2023-04-21T14:35:11.000Z</time>
      </trkpt>
      <trkpt lat="44.50586" lon="6.28377">
        <ele>1121</ele>
        <time>2023-04-21T14:35:12.000Z</time>
      </trkpt>
      <trkpt lat="44.50586" lon="6.28377">
        <ele>1121</ele>
        <time>2023-04-21T14:35:13.000Z</time>
      </trkpt>
      <trkpt lat="44.50586" lon="6.28377">
        <ele>1121</ele>
        <time>2023-04-21T14:35:14.000Z</time>
      </trkpt>
      <trkpt lat="44.50586" lon="6.28377">
        <ele>1120</ele>
        <time>2023-04-21T14:35:15.000Z</time>
      </trkpt>
      <trkpt lat="44.50586" lon="6.28377">
        <ele>1120</ele>
        <time>2023-04-21T14:35:16.000Z</time>
      </trkpt>
      <trkpt lat="44.50586" lon="6.28377">
        <ele>1120</ele>
        <time>2023-04-21T14:35:17.000Z</time>
      </trkpt>
      <trkpt lat="44.50586" lon="6.28377">
        <ele>1120</ele>
        <time>2023-04-21T14:35:18.000Z</time>
      </trkpt>
      <trkpt lat="44.50586" lon="6.28377">
        <ele>1120</ele>
        <time>2023-04-21T14:35:19.000Z</time>
      </trkpt>
      <trkpt lat="44.50586" lon="6.28377">
        <ele>1120</ele>
        <time>2023-04-21T14:35:20.000Z</time>
      </trkpt>
      <trkpt lat="44.50586" lon="6.28377">
        <ele>1120</ele>
        <time>2023-04-21T14:35:21.000Z</time>
      </trkpt>
      <trkpt lat="44.50586" lon="6.28377">
        <ele>1119</ele>
        <time>2023-04-21T14:35:22.000Z</time>
      </trkpt>
      <trkpt lat="44.50586" lon="6.28377">
        <ele>1119</ele>
        <time>2023-04-21T14:35:23.000Z</time>
      </trkpt>
      <trkpt lat="44.50586" lon="6.28377">
        <ele>1119</ele>
        <time>2023-04-21T14:35:24.000Z</time>
      </trkpt>
      <trkpt lat="44.50586" lon="6.28377">
        <ele>1119</ele>
        <time>2023-04-21T14:35:25.000Z</time>
      </trkpt>
      <trkpt lat="44.50586" lon="6.28377">
        <ele>1119</ele>
        <time>2023-04-21T14:35:26.000Z</time>
      </trkpt>
      <trkpt lat="44.50586" lon="6.28377">
        <ele>1119</ele>
        <time>2023-04-21T14:35:27.000Z</time>
      </trkpt>
      <trkpt lat="44.50586" lon="6.28377">
        <ele>1119</ele>
        <time>2023-04-21T14:35:28.000Z</time>
      </trkpt>
      <trkpt lat="44.50586" lon="6.28377">
        <ele>1119</ele>
        <time>2023-04-21T14:35:29.000Z</time>
      </trkpt>
      <trkpt lat="44.50586" lon="6.28377">
        <ele>1119</ele>
        <time>2023-04-21T14:35:30.000Z</time>
      </trkpt>
      <trkpt lat="44.50586" lon="6.28377">
        <ele>1118</ele>
        <time>2023-04-21T14:35:31.000Z</time>
      </trkpt>
      <trkpt lat="44.50586" lon="6.28377">
        <ele>1118</ele>
        <time>2023-04-21T14:35:32.000Z</time>
      </trkpt>
      <trkpt lat="44.50586" lon="6.28377">
        <ele>1118</ele>
        <time>2023-04-21T14:35:33.000Z</time>
      </trkpt>
      <trkpt lat="44.50586" lon="6.28377">
        <ele>1118</ele>
        <time>2023-04-21T14:35:34.000Z</time>
      </trkpt>
      <trkpt lat="44.50586" lon="6.28377">
        <ele>1118</ele>
        <time>2023-04-21T14:35:35.000Z</time>
      </trkpt>
      <trkpt lat="44.50586" lon="6.28376">
        <ele>1118</ele>
        <time>2023-04-21T14:35:36.000Z</time>
      </trkpt>
      <trkpt lat="44.50586" lon="6.28376">
        <ele>1118</ele>
        <time>2023-04-21T14:35:37.000Z</time>
      </trkpt>
      <trkpt lat="44.50586" lon="6.28376">
        <ele>1117</ele>
        <time>2023-04-21T14:35:38.000Z</time>
      </trkpt>
      <trkpt lat="44.50586" lon="6.28376">
        <ele>1117</ele>
        <time>2023-04-21T14:35:39.000Z</time>
      </trkpt>
      <trkpt lat="44.50586" lon="6.28376">
        <ele>1117</ele>
        <time>2023-04-21T14:35:40.000Z</time>
      </trkpt>
      <trkpt lat="44.50587" lon="6.28376">
        <ele>1117</ele>
        <time>2023-04-21T14:35:41.000Z</time>
      </trkpt>
      <trkpt lat="44.50587" lon="6.28376">
        <ele>1117</ele>
        <time>2023-04-21T14:35:42.000Z</time>
      </trkpt>
      <trkpt lat="44.50587" lon="6.28376">
        <ele>1116</ele>
        <time>2023-04-21T14:35:43.000Z</time>
      </trkpt>
      <trkpt lat="44.50587" lon="6.28376">
        <ele>1116</ele>
        <time>2023-04-21T14:35:44.000Z</time>
      </trkpt>
      <trkpt lat="44.50587" lon="6.28376">
        <ele>1116</ele>
        <time>2023-04-21T14:35:45.000Z</time>
      </trkpt>
      <trkpt lat="44.50587" lon="6.28376">
        <ele>1116</ele>
        <time>2023-04-21T14:35:46.000Z</time>
      </trkpt>
      <trkpt lat="44.50587" lon="6.28376">
        <ele>1116</ele>
        <time>2023-04-21T14:35:47.000Z</time>
      </trkpt>
      <trkpt lat="44.50587" lon="6.28376">
        <ele>1116</ele>
        <time>2023-04-21T14:35:48.000Z</time>
      </trkpt>
      <trkpt lat="44.50587" lon="6.28376">
        <ele>1116</ele>
        <time>2023-04-21T14:35:49.000Z</time>
      </trkpt>
      <trkpt lat="44.50587" lon="6.28376">
        <ele>1116</ele>
        <time>2023-04-21T14:35:50.000Z</time>
      </trkpt>
      <trkpt lat="44.50587" lon="6.28376">
        <ele>1116</ele>
        <time>2023-04-21T14:35:51.000Z</time>
      </trkpt>
      <trkpt lat="44.50587" lon="6.28376">
        <ele>1116</ele>
        <time>2023-04-21T14:35:52.000Z</time>
      </trkpt>
      <trkpt lat="44.50587" lon="6.28376">
        <ele>1116</ele>
        <time>2023-04-21T14:35:53.000Z</time>
      </trkpt>
      <trkpt lat="44.50587" lon="6.28375">
        <ele>1116</ele>
        <time>2023-04-21T14:35:54.000Z</time>
      </trkpt>
      <trkpt lat="44.50587" lon="6.28375">
        <ele>1116</ele>
        <time>2023-04-21T14:35:55.000Z</time>
      </trkpt>
      <trkpt lat="44.50587" lon="6.28375">
        <ele>1116</ele>
        <time>2023-04-21T14:35:56.000Z</time>
      </trkpt>
      <trkpt lat="44.50587" lon="6.28375">
        <ele>1116</ele>
        <time>2023-04-21T14:35:57.000Z</time>
      </trkpt>
      <trkpt lat="44.50587" lon="6.28375">
        <ele>1116</ele>
        <time>2023-04-21T14:35:58.000Z</time>
      </trkpt>
      <trkpt lat="44.50587" lon="6.28375">
        <ele>1116</ele>
        <time>2023-04-21T14:35:59.000Z</time>
      </trkpt>
      <trkpt lat="44.50587" lon="6.28375">
        <ele>1117</ele>
        <time>2023-04-21T14:36:00.000Z</time>
      </trkpt>
      <trkpt lat="44.50587" lon="6.28375">
        <ele>1117</ele>
        <time>2023-04-21T14:36:01.000Z</time>
      </trkpt>
      <trkpt lat="44.50587" lon="6.28375">
        <ele>1117</ele>
        <time>2023-04-21T14:36:02.000Z</time>
      </trkpt>
      <trkpt lat="44.50587" lon="6.28375">
        <ele>1117</ele>
        <time>2023-04-21T14:36:03.000Z</time>
      </trkpt>
      <trkpt lat="44.50587" lon="6.28375">
        <ele>1118</ele>
        <time>2023-04-21T14:36:04.000Z</time>
      </trkpt>
      <trkpt lat="44.50587" lon="6.28375">
        <ele>1118</ele>
        <time>2023-04-21T14:36:05.000Z</time>
      </trkpt>
      <trkpt lat="44.50587" lon="6.28375">
        <ele>1118</ele>
        <time>2023-04-21T14:36:06.000Z</time>
      </trkpt>
      <trkpt lat="44.50587" lon="6.28375">
        <ele>1118</ele>
        <time>2023-04-21T14:36:07.000Z</time>
      </trkpt>
      <trkpt lat="44.50587" lon="6.28375">
        <ele>1118</ele>
        <time>2023-04-21T14:36:08.000Z</time>
      </trkpt>
      <trkpt lat="44.50587" lon="6.28375">
        <ele>1119</ele>
        <time>2023-04-21T14:36:09.000Z</time>
      </trkpt>
      <trkpt lat="44.50587" lon="6.28376">
        <ele>1119</ele>
        <time>2023-04-21T14:36:10.000Z</time>
      </trkpt>
      <trkpt lat="44.50587" lon="6.28376">
        <ele>1119</ele>
        <time>2023-04-21T14:36:11.000Z</time>
      </trkpt>
      <trkpt lat="44.50587" lon="6.28376">
        <ele>1119</ele>
        <time>2023-04-21T14:36:12.000Z</time>
      </trkpt>
      <trkpt lat="44.50587" lon="6.28376">
        <ele>1119</ele>
        <time>2023-04-21T14:36:13.000Z</time>
      </trkpt>
      <trkpt lat="44.50587" lon="6.28376">
        <ele>1120</ele>
        <time>2023-04-21T14:36:14.000Z</time>
      </trkpt>
      <trkpt lat="44.50587" lon="6.28376">
        <ele>1120</ele>
        <time>2023-04-21T14:36:15.000Z</time>
      </trkpt>
      <trkpt lat="44.50587" lon="6.28376">
        <ele>1120</ele>
        <time>2023-04-21T14:36:16.000Z</time>
      </trkpt>
      <trkpt lat="44.50587" lon="6.28376">
        <ele>1120</ele>
        <time>2023-04-21T14:36:17.000Z</time>
      </trkpt>
      <trkpt lat="44.50587" lon="6.28376">
        <ele>1120</ele>
        <time>2023-04-21T14:36:18.000Z</time>
      </trkpt>
      <trkpt lat="44.50587" lon="6.28376">
        <ele>1120</ele>
        <time>2023-04-21T14:36:19.000Z</time>
      </trkpt>
      <trkpt lat="44.50587" lon="6.28376">
        <ele>1120</ele>
        <time>2023-04-21T14:36:20.000Z</time>
      </trkpt>
      <trkpt lat="44.50587" lon="6.28376">
        <ele>1120</ele>
        <time>2023-04-21T14:36:21.000Z</time>
      </trkpt>
      <trkpt lat="44.50587" lon="6.28376">
        <ele>1120</ele>
        <time>2023-04-21T14:36:22.000Z</time>
      </trkpt>
      <trkpt lat="44.50587" lon="6.28376">
        <ele>1120</ele>
        <time>2023-04-21T14:36:23.000Z</time>
      </trkpt>
      <trkpt lat="44.50587" lon="6.28376">
        <ele>1120</ele>
        <time>2023-04-21T14:36:24.000Z</time>
      </trkpt>
      <trkpt lat="44.50587" lon="6.28376">
        <ele>1120</ele>
        <time>2023-04-21T14:36:25.000Z</time>
      </trkpt>
      <trkpt lat="44.50587" lon="6.28376">
        <ele>1120</ele>
        <time>2023-04-21T14:36:26.000Z</time>
      </trkpt>
      <trkpt lat="44.50588" lon="6.28376">
        <ele>1120</ele>
        <time>2023-04-21T14:36:27.000Z</time>
      </trkpt>
      <trkpt lat="44.50588" lon="6.28376">
        <ele>1120</ele>
        <time>2023-04-21T14:36:28.000Z</time>
      </trkpt>
      <trkpt lat="44.50588" lon="6.28376">
        <ele>1119</ele>
        <time>2023-04-21T14:36:29.000Z</time>
      </trkpt>
      <trkpt lat="44.50588" lon="6.28376">
        <ele>1119</ele>
        <time>2023-04-21T14:36:30.000Z</time>
      </trkpt>
      <trkpt lat="44.50588" lon="6.28376">
        <ele>1119</ele>
        <time>2023-04-21T14:36:31.000Z</time>
      </trkpt>
      <trkpt lat="44.50588" lon="6.28376">
        <ele>1119</ele>
        <time>2023-04-21T14:36:32.000Z</time>
      </trkpt>
      <trkpt lat="44.50588" lon="6.28376">
        <ele>1118</ele>
        <time>2023-04-21T14:36:33.000Z</time>
      </trkpt>
      <trkpt lat="44.50588" lon="6.28376">
        <ele>1118</ele>
        <time>2023-04-21T14:36:34.000Z</time>
      </trkpt>
      <trkpt lat="44.50588" lon="6.28376">
        <ele>1118</ele>
        <time>2023-04-21T14:36:35.000Z</time>
      </trkpt>
      <trkpt lat="44.50588" lon="6.28376">
        <ele>1118</ele>
        <time>2023-04-21T14:36:36.000Z</time>
      </trkpt>
      <trkpt lat="44.50588" lon="6.28376">
        <ele>1118</ele>
        <time>2023-04-21T14:36:37.000Z</time>
      </trkpt>
      <trkpt lat="44.50588" lon="6.28376">
        <ele>1117</ele>
        <time>2023-04-21T14:36:38.000Z</time>
      </trkpt>
      <trkpt lat="44.50588" lon="6.28376">
        <ele>1117</ele>
        <time>2023-04-21T14:36:39.000Z</time>
      </trkpt>
      <trkpt lat="44.50588" lon="6.28376">
        <ele>1117</ele>
        <time>2023-04-21T14:36:40.000Z</time>
      </trkpt>
      <trkpt lat="44.50588" lon="6.28376">
        <ele>1117</ele>
        <time>2023-04-21T14:36:41.000Z</time>
      </trkpt>
      <trkpt lat="44.50588" lon="6.28376">
        <ele>1117</ele>
        <time>2023-04-21T14:36:42.000Z</time>
      </trkpt>
      <trkpt lat="44.50588" lon="6.28376">
        <ele>1117</ele>
        <time>2023-04-21T14:36:43.000Z</time>
      </trkpt>
      <trkpt lat="44.50588" lon="6.28376">
        <ele>1117</ele>
        <time>2023-04-21T14:36:44.000Z</time>
      </trkpt>
      <trkpt lat="44.50588" lon="6.28376">
        <ele>1117</ele>
        <time>2023-04-21T14:36:45.000Z</time>
      </trkpt>
      <trkpt lat="44.50588" lon="6.28376">
        <ele>1117</ele>
        <time>2023-04-21T14:36:46.000Z</time>
      </trkpt>
      <trkpt lat="44.50587" lon="6.28376">
        <ele>1117</ele>
        <time>2023-04-21T14:36:47.000Z</time>
      </trkpt>
      <trkpt lat="44.50587" lon="6.28376">
        <ele>1117</ele>
        <time>2023-04-21T14:36:48.000Z</time>
      </trkpt>
      <trkpt lat="44.50587" lon="6.28376">
        <ele>1117</ele>
        <time>2023-04-21T14:36:49.000Z</time>
      </trkpt>
      <trkpt lat="44.50587" lon="6.28377">
        <ele>1117</ele>
        <time>2023-04-21T14:36:50.000Z</time>
      </trkpt>
      <trkpt lat="44.50587" lon="6.28377">
        <ele>1117</ele>
        <time>2023-04-21T14:36:51.000Z</time>
      </trkpt>
      <trkpt lat="44.50587" lon="6.28377">
        <ele>1117</ele>
        <time>2023-04-21T14:36:52.000Z</time>
      </trkpt>
      <trkpt lat="44.50587" lon="6.28377">
        <ele>1117</ele>
        <time>2023-04-21T14:36:53.000Z</time>
      </trkpt>
      <trkpt lat="44.50587" lon="6.28378">
        <ele>1117</ele>
        <time>2023-04-21T14:36:54.000Z</time>
      </trkpt>
      <trkpt lat="44.50587" lon="6.28378">
        <ele>1117</ele>
        <time>2023-04-21T14:36:55.000Z</time>
      </trkpt>
      <trkpt lat="44.50587" lon="6.28378">
        <ele>1117</ele>
        <time>2023-04-21T14:36:56.000Z</time>
      </trkpt>
      <trkpt lat="44.50587" lon="6.28378">
        <ele>1117</ele>
        <time>2023-04-21T14:36:57.000Z</time>
      </trkpt>
      <trkpt lat="44.50587" lon="6.28378">
        <ele>1117</ele>
        <time>2023-04-21T14:36:58.000Z</time>
      </trkpt>
      <trkpt lat="44.50587" lon="6.28378">
        <ele>1116</ele>
        <time>2023-04-21T14:36:59.000Z</time>
      </trkpt>
      <trkpt lat="44.50587" lon="6.28379">
        <ele>1116</ele>
        <time>2023-04-21T14:37:00.000Z</time>
      </trkpt>
      <trkpt lat="44.50587" lon="6.28379">
        <ele>1116</ele>
        <time>2023-04-21T14:37:01.000Z</time>
      </trkpt>
      <trkpt lat="44.50587" lon="6.28378">
        <ele>1116</ele>
        <time>2023-04-21T14:37:02.000Z</time>
      </trkpt>
      <trkpt lat="44.50587" lon="6.28378">
        <ele>1116</ele>
        <time>2023-04-21T14:37:03.000Z</time>
      </trkpt>
      <trkpt lat="44.50587" lon="6.28378">
        <ele>1116</ele>
        <time>2023-04-21T14:37:04.000Z</time>
      </trkpt>
      <trkpt lat="44.50587" lon="6.28378">
        <ele>1116</ele>
        <time>2023-04-21T14:37:05.000Z</time>
      </trkpt>
    </trkseg>
  </trk>
</gpx>